<?xml version='1.0' encoding='UTF-8'?><gpx version="1.1" creator="JPX - https://github.com/jenetics/jpx" xmlns="http://www.topografix.com/GPX/1/1"><trk><trkseg><trkpt lat="43.1367754" lon="11.4834757"><ele>146.0</ele><time>2026-05-03T06:13:00.157Z</time></trkpt><trkpt lat="43.1368449" lon="11.4835049"><ele>146.0</ele><time>2026-05-03T06:13:27.156Z</time></trkpt><trkpt lat="43.1368616" lon="11.4834105"><ele>146.0</ele><time>2026-05-03T06:13:30.158Z</time></trkpt><trkpt lat="43.1368276" lon="11.4833065"><ele>146.0</ele><time>2026-05-03T06:13:32.157Z</time></trkpt><trkpt lat="43.1368066" lon="11.483164"><ele>146.0</ele><time>2026-05-03T06:13:34.158Z</time></trkpt><trkpt lat="43.1367908" lon="11.4829921"><ele>146.0</ele><time>2026-05-03T06:13:36.158Z</time></trkpt><trkpt lat="43.1367842" lon="11.4829009"><ele>146.0</ele><time>2026-05-03T06:13:37.158Z</time></trkpt><trkpt lat="43.1367793" lon="11.4828109"><ele>146.0</ele><time>2026-05-03T06:13:38.158Z</time></trkpt><trkpt lat="43.136776" lon="11.4827228"><ele>146.0</ele><time>2026-05-03T06:13:39.158Z</time></trkpt><trkpt lat="43.1367783" lon="11.4825492"><ele>146.0</ele><time>2026-05-03T06:13:41.158Z</time></trkpt><trkpt lat="43.1367744" lon="11.482391"><ele>146.0</ele><time>2026-05-03T06:13:43.157Z</time></trkpt><trkpt lat="43.1367687" lon="11.4822716"><ele>146.0</ele><time>2026-05-03T06:13:45.158Z</time></trkpt><trkpt lat="43.1367582" lon="11.4821439"><ele>146.0</ele><time>2026-05-03T06:13:49.158Z</time></trkpt><trkpt lat="43.1366982" lon="11.4820713"><ele>146.0</ele><time>2026-05-03T06:13:52.157Z</time></trkpt><trkpt lat="43.1366283" lon="11.4821005"><ele>146.0</ele><time>2026-05-03T06:13:54.157Z</time></trkpt><trkpt lat="43.1366582" lon="11.4821915"><ele>146.0</ele><time>2026-05-03T06:13:57.157Z</time></trkpt><trkpt lat="43.1367269" lon="11.4821777"><ele>146.0</ele><time>2026-05-03T06:32:13.16Z</time></trkpt><trkpt lat="43.136739" lon="11.4822919"><ele>146.0</ele><time>2026-05-03T06:32:17.16Z</time></trkpt><trkpt lat="43.1367497" lon="11.4824007"><ele>146.0</ele><time>2026-05-03T06:32:19.16Z</time></trkpt><trkpt lat="43.1367707" lon="11.4825233"><ele>146.0</ele><time>2026-05-03T06:32:21.16Z</time></trkpt><trkpt lat="43.1367813" lon="11.4826514"><ele>146.0</ele><time>2026-05-03T06:32:23.16Z</time></trkpt><trkpt lat="43.1367903" lon="11.4828023"><ele>146.0</ele><time>2026-05-03T06:32:25.16Z</time></trkpt><trkpt lat="43.1367898" lon="11.4829313"><ele>146.0</ele><time>2026-05-03T06:32:27.16Z</time></trkpt><trkpt lat="43.1367906" lon="11.4830198"><ele>146.0</ele><time>2026-05-03T06:32:29.16Z</time></trkpt><trkpt lat="43.1367981" lon="11.4831116"><ele>146.0</ele><time>2026-05-03T06:32:44.159Z</time></trkpt><trkpt lat="43.1368216" lon="11.4832162"><ele>146.0</ele><time>2026-05-03T06:32:46.16Z</time></trkpt><trkpt lat="43.1368252" lon="11.4833214"><ele>146.0</ele><time>2026-05-03T06:32:49.158Z</time></trkpt><trkpt lat="43.1368849" lon="11.4834005"><ele>146.0</ele><time>2026-05-03T06:33:02.16Z</time></trkpt><trkpt lat="43.1369917" lon="11.4833963"><ele>146.0</ele><time>2026-05-03T06:33:04.158Z</time></trkpt><trkpt lat="43.137055" lon="11.4833851"><ele>146.0</ele><time>2026-05-03T06:33:05.159Z</time></trkpt><trkpt lat="43.1371257" lon="11.4833749"><ele>146.0</ele><time>2026-05-03T06:33:06.16Z</time></trkpt><trkpt lat="43.1371972" lon="11.4833682"><ele>146.0</ele><time>2026-05-03T06:33:07.159Z</time></trkpt><trkpt lat="43.1372775" lon="11.4833647"><ele>146.0</ele><time>2026-05-03T06:33:08.158Z</time></trkpt><trkpt lat="43.1373606" lon="11.4833693"><ele>146.0</ele><time>2026-05-03T06:33:09.16Z</time></trkpt><trkpt lat="43.1374481" lon="11.4833685"><ele>146.2</ele><time>2026-05-03T06:33:10.16Z</time></trkpt><trkpt lat="43.137537" lon="11.4833682"><ele>146.39999999999998</ele><time>2026-05-03T06:33:11.16Z</time></trkpt><trkpt lat="43.1376264" lon="11.4833705"><ele>146.6</ele><time>2026-05-03T06:33:12.16Z</time></trkpt><trkpt lat="43.1377205" lon="11.4833652"><ele>146.79999999999998</ele><time>2026-05-03T06:33:13.158Z</time></trkpt><trkpt lat="43.1378139" lon="11.4833648"><ele>147.0</ele><time>2026-05-03T06:33:14.159Z</time></trkpt><trkpt lat="43.1379151" lon="11.4833633"><ele>147.0</ele><time>2026-05-03T06:33:15.16Z</time></trkpt><trkpt lat="43.1380164" lon="11.4833612"><ele>147.0</ele><time>2026-05-03T06:33:16.16Z</time></trkpt><trkpt lat="43.1381174" lon="11.4833594"><ele>147.0</ele><time>2026-05-03T06:33:17.16Z</time></trkpt><trkpt lat="43.1382227" lon="11.4833543"><ele>147.0</ele><time>2026-05-03T06:33:18.159Z</time></trkpt><trkpt lat="43.1383358" lon="11.4833428"><ele>147.0</ele><time>2026-05-03T06:33:19.159Z</time></trkpt><trkpt lat="43.1384526" lon="11.483328"><ele>146.79999999999998</ele><time>2026-05-03T06:33:20.16Z</time></trkpt><trkpt lat="43.1385676" lon="11.4832904"><ele>146.6</ele><time>2026-05-03T06:33:21.16Z</time></trkpt><trkpt lat="43.1386827" lon="11.4832513"><ele>146.39999999999998</ele><time>2026-05-03T06:33:22.159Z</time></trkpt><trkpt lat="43.1387855" lon="11.4832141"><ele>146.2</ele><time>2026-05-03T06:33:23.158Z</time></trkpt><trkpt lat="43.138881" lon="11.4831745"><ele>146.0</ele><time>2026-05-03T06:33:24.16Z</time></trkpt><trkpt lat="43.1389644" lon="11.4831309"><ele>145.8</ele><time>2026-05-03T06:33:25.159Z</time></trkpt><trkpt lat="43.1390531" lon="11.483088"><ele>145.6</ele><time>2026-05-03T06:33:26.16Z</time></trkpt><trkpt lat="43.1391498" lon="11.4830357"><ele>145.4</ele><time>2026-05-03T06:33:27.16Z</time></trkpt><trkpt lat="43.1392475" lon="11.4829794"><ele>145.2</ele><time>2026-05-03T06:33:28.16Z</time></trkpt><trkpt lat="43.1393464" lon="11.4829068"><ele>145.0</ele><time>2026-05-03T06:33:29.16Z</time></trkpt><trkpt lat="43.1394436" lon="11.4828345"><ele>145.5</ele><time>2026-05-03T06:33:30.159Z</time></trkpt><trkpt lat="43.1395422" lon="11.4827628"><ele>146.0</ele><time>2026-05-03T06:33:31.16Z</time></trkpt><trkpt lat="43.1396453" lon="11.4826901"><ele>146.5</ele><time>2026-05-03T06:33:32.159Z</time></trkpt><trkpt lat="43.1397481" lon="11.4826158"><ele>147.0</ele><time>2026-05-03T06:33:33.16Z</time></trkpt><trkpt lat="43.1398529" lon="11.4825421"><ele>146.0</ele><time>2026-05-03T06:33:34.16Z</time></trkpt><trkpt lat="43.1399674" lon="11.4824609"><ele>145.0</ele><time>2026-05-03T06:33:35.16Z</time></trkpt><trkpt lat="43.1400699" lon="11.482385"><ele>144.0</ele><time>2026-05-03T06:33:36.16Z</time></trkpt><trkpt lat="43.1401635" lon="11.4823198"><ele>143.0</ele><time>2026-05-03T06:33:37.16Z</time></trkpt><trkpt lat="43.1402566" lon="11.4822518"><ele>143.0</ele><time>2026-05-03T06:33:38.16Z</time></trkpt><trkpt lat="43.1403567" lon="11.4821766"><ele>143.0</ele><time>2026-05-03T06:33:39.158Z</time></trkpt><trkpt lat="43.1404731" lon="11.4820983"><ele>143.0</ele><time>2026-05-03T06:33:40.16Z</time></trkpt><trkpt lat="43.1405916" lon="11.482019"><ele>143.0</ele><time>2026-05-03T06:33:41.16Z</time></trkpt><trkpt lat="43.1406965" lon="11.4819434"><ele>142.6</ele><time>2026-05-03T06:33:42.16Z</time></trkpt><trkpt lat="43.1407932" lon="11.4818791"><ele>142.20000000000002</ele><time>2026-05-03T06:33:43.159Z</time></trkpt><trkpt lat="43.1408856" lon="11.481814"><ele>141.8</ele><time>2026-05-03T06:33:44.16Z</time></trkpt><trkpt lat="43.1409819" lon="11.4817518"><ele>141.4</ele><time>2026-05-03T06:33:45.158Z</time></trkpt><trkpt lat="43.1410799" lon="11.4816854"><ele>141.0</ele><time>2026-05-03T06:33:46.159Z</time></trkpt><trkpt lat="43.1411816" lon="11.4816222"><ele>141.0</ele><time>2026-05-03T06:33:47.159Z</time></trkpt><trkpt lat="43.1412829" lon="11.4815531"><ele>141.0</ele><time>2026-05-03T06:33:48.16Z</time></trkpt><trkpt lat="43.1413828" lon="11.4814735"><ele>141.0</ele><time>2026-05-03T06:33:49.159Z</time></trkpt><trkpt lat="43.1414792" lon="11.481392"><ele>141.0</ele><time>2026-05-03T06:33:50.158Z</time></trkpt><trkpt lat="43.1415745" lon="11.4813028"><ele>141.2</ele><time>2026-05-03T06:33:51.158Z</time></trkpt><trkpt lat="43.1416682" lon="11.4811975"><ele>141.39999999999998</ele><time>2026-05-03T06:33:52.159Z</time></trkpt><trkpt lat="43.1417516" lon="11.4810873"><ele>141.6</ele><time>2026-05-03T06:33:53.16Z</time></trkpt><trkpt lat="43.1418325" lon="11.4809848"><ele>141.79999999999998</ele><time>2026-05-03T06:33:54.16Z</time></trkpt><trkpt lat="43.141904" lon="11.4808922"><ele>142.0</ele><time>2026-05-03T06:33:55.158Z</time></trkpt><trkpt lat="43.1419727" lon="11.4808156"><ele>142.0</ele><time>2026-05-03T06:33:56.16Z</time></trkpt><trkpt lat="43.1420367" lon="11.480784"><ele>142.0</ele><time>2026-05-03T06:33:57.159Z</time></trkpt><trkpt lat="43.1421389" lon="11.4808476"><ele>142.0</ele><time>2026-05-03T06:33:59.159Z</time></trkpt><trkpt lat="43.1421855" lon="11.4809305"><ele>142.0</ele><time>2026-05-03T06:34:00.16Z</time></trkpt><trkpt lat="43.142239" lon="11.4810407"><ele>142.0</ele><time>2026-05-03T06:34:01.16Z</time></trkpt><trkpt lat="43.1423164" lon="11.4811611"><ele>142.25</ele><time>2026-05-03T06:34:02.158Z</time></trkpt><trkpt lat="43.1424037" lon="11.4812719"><ele>142.5</ele><time>2026-05-03T06:34:03.16Z</time></trkpt><trkpt lat="43.1424938" lon="11.4813856"><ele>142.75</ele><time>2026-05-03T06:34:04.159Z</time></trkpt><trkpt lat="43.1425743" lon="11.481488"><ele>143.0</ele><time>2026-05-03T06:34:05.16Z</time></trkpt><trkpt lat="43.1426578" lon="11.4815884"><ele>143.0</ele><time>2026-05-03T06:34:06.16Z</time></trkpt><trkpt lat="43.1427449" lon="11.4816863"><ele>143.0</ele><time>2026-05-03T06:34:07.159Z</time></trkpt><trkpt lat="43.1428232" lon="11.4817753"><ele>143.0</ele><time>2026-05-03T06:34:08.159Z</time></trkpt><trkpt lat="43.1429032" lon="11.4818343"><ele>143.0</ele><time>2026-05-03T06:34:09.158Z</time></trkpt><trkpt lat="43.1429707" lon="11.4819054"><ele>143.0</ele><time>2026-05-03T06:34:10.16Z</time></trkpt><trkpt lat="43.143037" lon="11.4819704"><ele>143.0</ele><time>2026-05-03T06:34:11.159Z</time></trkpt><trkpt lat="43.1431076" lon="11.4820332"><ele>143.0</ele><time>2026-05-03T06:34:12.159Z</time></trkpt><trkpt lat="43.1431734" lon="11.4820995"><ele>143.0</ele><time>2026-05-03T06:34:13.16Z</time></trkpt><trkpt lat="43.1432386" lon="11.4821632"><ele>143.0</ele><time>2026-05-03T06:34:14.16Z</time></trkpt><trkpt lat="43.1433025" lon="11.4822256"><ele>143.0</ele><time>2026-05-03T06:34:15.159Z</time></trkpt><trkpt lat="43.1433664" lon="11.4822878"><ele>143.0</ele><time>2026-05-03T06:34:16.159Z</time></trkpt><trkpt lat="43.1434326" lon="11.4823397"><ele>142.83333333333331</ele><time>2026-05-03T06:34:17.16Z</time></trkpt><trkpt lat="43.1435071" lon="11.4823764"><ele>142.66666666666666</ele><time>2026-05-03T06:34:18.16Z</time></trkpt><trkpt lat="43.1435902" lon="11.4823891"><ele>142.5</ele><time>2026-05-03T06:34:19.16Z</time></trkpt><trkpt lat="43.1436734" lon="11.482382"><ele>142.33333333333334</ele><time>2026-05-03T06:34:20.159Z</time></trkpt><trkpt lat="43.1437578" lon="11.482357"><ele>142.16666666666669</ele><time>2026-05-03T06:34:21.16Z</time></trkpt><trkpt lat="43.1438442" lon="11.4823326"><ele>142.0</ele><time>2026-05-03T06:34:22.159Z</time></trkpt><trkpt lat="43.1439274" lon="11.482305"><ele>142.0</ele><time>2026-05-03T06:34:23.159Z</time></trkpt><trkpt lat="43.1440132" lon="11.4822688"><ele>142.0</ele><time>2026-05-03T06:34:24.159Z</time></trkpt><trkpt lat="43.1440982" lon="11.4822342"><ele>142.0</ele><time>2026-05-03T06:34:25.16Z</time></trkpt><trkpt lat="43.1441834" lon="11.4821997"><ele>142.0</ele><time>2026-05-03T06:34:26.159Z</time></trkpt><trkpt lat="43.1442706" lon="11.4821649"><ele>142.0</ele><time>2026-05-03T06:34:27.158Z</time></trkpt><trkpt lat="43.1443605" lon="11.4821305"><ele>142.4</ele><time>2026-05-03T06:34:28.16Z</time></trkpt><trkpt lat="43.1444525" lon="11.4820963"><ele>142.79999999999998</ele><time>2026-05-03T06:34:29.159Z</time></trkpt><trkpt lat="43.1445455" lon="11.4820602"><ele>143.2</ele><time>2026-05-03T06:34:30.159Z</time></trkpt><trkpt lat="43.1446428" lon="11.4820246"><ele>143.6</ele><time>2026-05-03T06:34:31.16Z</time></trkpt><trkpt lat="43.1447413" lon="11.4819889"><ele>144.0</ele><time>2026-05-03T06:34:32.16Z</time></trkpt><trkpt lat="43.1448397" lon="11.4819513"><ele>144.4</ele><time>2026-05-03T06:34:33.159Z</time></trkpt><trkpt lat="43.1449381" lon="11.4819145"><ele>144.8</ele><time>2026-05-03T06:34:34.16Z</time></trkpt><trkpt lat="43.1450356" lon="11.4818777"><ele>145.2</ele><time>2026-05-03T06:34:35.159Z</time></trkpt><trkpt lat="43.145134" lon="11.4818387"><ele>145.6</ele><time>2026-05-03T06:34:36.16Z</time></trkpt><trkpt lat="43.1452343" lon="11.4817984"><ele>146.0</ele><time>2026-05-03T06:34:37.159Z</time></trkpt><trkpt lat="43.1453352" lon="11.4817566"><ele>146.0</ele><time>2026-05-03T06:34:38.16Z</time></trkpt><trkpt lat="43.1454384" lon="11.4817161"><ele>146.0</ele><time>2026-05-03T06:34:39.159Z</time></trkpt><trkpt lat="43.1455408" lon="11.4816761"><ele>146.0</ele><time>2026-05-03T06:34:40.16Z</time></trkpt><trkpt lat="43.1456432" lon="11.4816405"><ele>146.0</ele><time>2026-05-03T06:34:41.16Z</time></trkpt><trkpt lat="43.1457442" lon="11.4816019"><ele>146.0</ele><time>2026-05-03T06:34:42.16Z</time></trkpt><trkpt lat="43.145844" lon="11.4815616"><ele>146.6</ele><time>2026-05-03T06:34:43.159Z</time></trkpt><trkpt lat="43.1459406" lon="11.4815247"><ele>147.2</ele><time>2026-05-03T06:34:44.16Z</time></trkpt><trkpt lat="43.1460377" lon="11.4814872"><ele>147.8</ele><time>2026-05-03T06:34:45.16Z</time></trkpt><trkpt lat="43.1461345" lon="11.481453"><ele>148.4</ele><time>2026-05-03T06:34:46.16Z</time></trkpt><trkpt lat="43.1462303" lon="11.4814211"><ele>149.0</ele><time>2026-05-03T06:34:47.16Z</time></trkpt><trkpt lat="43.146325" lon="11.4813899"><ele>149.0</ele><time>2026-05-03T06:34:48.16Z</time></trkpt><trkpt lat="43.1464139" lon="11.4813562"><ele>149.0</ele><time>2026-05-03T06:34:49.16Z</time></trkpt><trkpt lat="43.1464765" lon="11.4813007"><ele>149.0</ele><time>2026-05-03T06:34:50.16Z</time></trkpt><trkpt lat="43.1465284" lon="11.48122"><ele>149.0</ele><time>2026-05-03T06:34:51.16Z</time></trkpt><trkpt lat="43.1465616" lon="11.4811237"><ele>149.0</ele><time>2026-05-03T06:34:52.16Z</time></trkpt><trkpt lat="43.1465877" lon="11.481017"><ele>149.0</ele><time>2026-05-03T06:34:53.16Z</time></trkpt><trkpt lat="43.1466138" lon="11.4809066"><ele>150.83333333333331</ele><time>2026-05-03T06:34:54.158Z</time></trkpt><trkpt lat="43.1466463" lon="11.4807943"><ele>152.66666666666666</ele><time>2026-05-03T06:34:55.159Z</time></trkpt><trkpt lat="43.1466843" lon="11.4806859"><ele>154.5</ele><time>2026-05-03T06:34:56.16Z</time></trkpt><trkpt lat="43.1467358" lon="11.4805838"><ele>156.33333333333334</ele><time>2026-05-03T06:34:57.158Z</time></trkpt><trkpt lat="43.1468013" lon="11.4805167"><ele>158.16666666666669</ele><time>2026-05-03T06:34:58.16Z</time></trkpt><trkpt lat="43.1468749" lon="11.4804852"><ele>160.0</ele><time>2026-05-03T06:34:59.16Z</time></trkpt><trkpt lat="43.1469571" lon="11.4804817"><ele>160.0</ele><time>2026-05-03T06:35:00.16Z</time></trkpt><trkpt lat="43.1470439" lon="11.4804961"><ele>160.0</ele><time>2026-05-03T06:35:01.159Z</time></trkpt><trkpt lat="43.1471323" lon="11.4805239"><ele>160.0</ele><time>2026-05-03T06:35:02.16Z</time></trkpt><trkpt lat="43.1472211" lon="11.4805621"><ele>160.0</ele><time>2026-05-03T06:35:03.16Z</time></trkpt><trkpt lat="43.14731" lon="11.4806111"><ele>160.0</ele><time>2026-05-03T06:35:04.159Z</time></trkpt><trkpt lat="43.1473992" lon="11.4806675"><ele>162.4</ele><time>2026-05-03T06:35:05.159Z</time></trkpt><trkpt lat="43.1474904" lon="11.4807282"><ele>164.8</ele><time>2026-05-03T06:35:06.159Z</time></trkpt><trkpt lat="43.1475793" lon="11.4807896"><ele>167.2</ele><time>2026-05-03T06:35:07.16Z</time></trkpt><trkpt lat="43.1476703" lon="11.4808457"><ele>169.6</ele><time>2026-05-03T06:35:08.159Z</time></trkpt><trkpt lat="43.147762" lon="11.4808985"><ele>172.0</ele><time>2026-05-03T06:35:09.159Z</time></trkpt><trkpt lat="43.147855" lon="11.4809449"><ele>172.0</ele><time>2026-05-03T06:35:10.158Z</time></trkpt><trkpt lat="43.1479508" lon="11.4809889"><ele>172.0</ele><time>2026-05-03T06:35:11.158Z</time></trkpt><trkpt lat="43.1480486" lon="11.4810341"><ele>172.0</ele><time>2026-05-03T06:35:12.158Z</time></trkpt><trkpt lat="43.1481485" lon="11.4810848"><ele>172.0</ele><time>2026-05-03T06:35:13.159Z</time></trkpt><trkpt lat="43.148247" lon="11.4811408"><ele>172.0</ele><time>2026-05-03T06:35:14.16Z</time></trkpt><trkpt lat="43.1483464" lon="11.4811876"><ele>173.39999999999998</ele><time>2026-05-03T06:35:15.159Z</time></trkpt><trkpt lat="43.1484461" lon="11.4812172"><ele>174.79999999999998</ele><time>2026-05-03T06:35:16.16Z</time></trkpt><trkpt lat="43.1485355" lon="11.4812182"><ele>176.2</ele><time>2026-05-03T06:35:17.16Z</time></trkpt><trkpt lat="43.1486203" lon="11.4811815"><ele>177.6</ele><time>2026-05-03T06:35:18.159Z</time></trkpt><trkpt lat="43.1486883" lon="11.4811065"><ele>179.0</ele><time>2026-05-03T06:35:19.16Z</time></trkpt><trkpt lat="43.1487494" lon="11.4810122"><ele>179.0</ele><time>2026-05-03T06:35:20.159Z</time></trkpt><trkpt lat="43.1488165" lon="11.4809396"><ele>179.0</ele><time>2026-05-03T06:35:21.159Z</time></trkpt><trkpt lat="43.1488892" lon="11.4809167"><ele>179.0</ele><time>2026-05-03T06:35:22.158Z</time></trkpt><trkpt lat="43.148975" lon="11.4809191"><ele>179.0</ele><time>2026-05-03T06:35:23.16Z</time></trkpt><trkpt lat="43.1490695" lon="11.4809278"><ele>179.0</ele><time>2026-05-03T06:35:24.159Z</time></trkpt><trkpt lat="43.1491669" lon="11.4809228"><ele>179.0</ele><time>2026-05-03T06:35:25.159Z</time></trkpt><trkpt lat="43.149269" lon="11.4808995"><ele>181.6</ele><time>2026-05-03T06:35:26.16Z</time></trkpt><trkpt lat="43.1493697" lon="11.4808602"><ele>184.2</ele><time>2026-05-03T06:35:27.159Z</time></trkpt><trkpt lat="43.1494688" lon="11.4808106"><ele>186.79999999999998</ele><time>2026-05-03T06:35:28.159Z</time></trkpt><trkpt lat="43.1495717" lon="11.480771"><ele>189.39999999999998</ele><time>2026-05-03T06:35:29.158Z</time></trkpt><trkpt lat="43.1496767" lon="11.4807631"><ele>192.0</ele><time>2026-05-03T06:35:30.159Z</time></trkpt><trkpt lat="43.149778" lon="11.4807734"><ele>194.39999999999998</ele><time>2026-05-03T06:35:31.159Z</time></trkpt><trkpt lat="43.1498812" lon="11.4807746"><ele>196.79999999999998</ele><time>2026-05-03T06:35:32.16Z</time></trkpt><trkpt lat="43.1499824" lon="11.480741"><ele>199.2</ele><time>2026-05-03T06:35:33.159Z</time></trkpt><trkpt lat="43.1500829" lon="11.4807071"><ele>201.6</ele><time>2026-05-03T06:35:34.16Z</time></trkpt><trkpt lat="43.1501841" lon="11.4807122"><ele>204.0</ele><time>2026-05-03T06:35:35.159Z</time></trkpt><trkpt lat="43.1502856" lon="11.4807352"><ele>204.0</ele><time>2026-05-03T06:35:36.158Z</time></trkpt><trkpt lat="43.1503935" lon="11.4807614"><ele>204.0</ele><time>2026-05-03T06:35:37.159Z</time></trkpt><trkpt lat="43.1504992" lon="11.4807841"><ele>204.0</ele><time>2026-05-03T06:35:38.16Z</time></trkpt><trkpt lat="43.1506073" lon="11.4808119"><ele>204.0</ele><time>2026-05-03T06:35:39.16Z</time></trkpt><trkpt lat="43.1507135" lon="11.4808467"><ele>204.0</ele><time>2026-05-03T06:35:40.159Z</time></trkpt><trkpt lat="43.1508204" lon="11.480883"><ele>206.75</ele><time>2026-05-03T06:35:41.159Z</time></trkpt><trkpt lat="43.1509293" lon="11.4809199"><ele>209.5</ele><time>2026-05-03T06:35:42.16Z</time></trkpt><trkpt lat="43.1510398" lon="11.4809547"><ele>212.25</ele><time>2026-05-03T06:35:43.16Z</time></trkpt><trkpt lat="43.151153" lon="11.4809806"><ele>215.0</ele><time>2026-05-03T06:35:44.159Z</time></trkpt><trkpt lat="43.151269" lon="11.4809966"><ele>215.0</ele><time>2026-05-03T06:35:45.158Z</time></trkpt><trkpt lat="43.1513875" lon="11.4810042"><ele>215.0</ele><time>2026-05-03T06:35:46.159Z</time></trkpt><trkpt lat="43.1515036" lon="11.4810145"><ele>215.0</ele><time>2026-05-03T06:35:47.159Z</time></trkpt><trkpt lat="43.1516224" lon="11.4810311"><ele>215.0</ele><time>2026-05-03T06:35:48.16Z</time></trkpt><trkpt lat="43.1517385" lon="11.4810536"><ele>216.0</ele><time>2026-05-03T06:35:49.16Z</time></trkpt><trkpt lat="43.151857" lon="11.4810801"><ele>217.0</ele><time>2026-05-03T06:35:50.16Z</time></trkpt><trkpt lat="43.1519597" lon="11.4811061"><ele>218.0</ele><time>2026-05-03T06:35:51.16Z</time></trkpt><trkpt lat="43.1520543" lon="11.4811258"><ele>219.0</ele><time>2026-05-03T06:35:52.159Z</time></trkpt><trkpt lat="43.1521497" lon="11.4811359"><ele>220.0</ele><time>2026-05-03T06:35:53.16Z</time></trkpt><trkpt lat="43.1522358" lon="11.4811449"><ele>220.0</ele><time>2026-05-03T06:35:54.158Z</time></trkpt><trkpt lat="43.1523235" lon="11.4811475"><ele>220.0</ele><time>2026-05-03T06:35:55.159Z</time></trkpt><trkpt lat="43.1524135" lon="11.4811301"><ele>220.0</ele><time>2026-05-03T06:35:56.158Z</time></trkpt><trkpt lat="43.1525042" lon="11.481104"><ele>220.0</ele><time>2026-05-03T06:35:57.16Z</time></trkpt><trkpt lat="43.1525972" lon="11.4810738"><ele>220.0</ele><time>2026-05-03T06:35:58.16Z</time></trkpt><trkpt lat="43.1526922" lon="11.4810405"><ele>220.6</ele><time>2026-05-03T06:35:59.159Z</time></trkpt><trkpt lat="43.1527902" lon="11.4810152"><ele>221.2</ele><time>2026-05-03T06:36:00.16Z</time></trkpt><trkpt lat="43.1528892" lon="11.4809917"><ele>221.8</ele><time>2026-05-03T06:36:01.16Z</time></trkpt><trkpt lat="43.1529785" lon="11.480969"><ele>222.4</ele><time>2026-05-03T06:36:02.16Z</time></trkpt><trkpt lat="43.1530608" lon="11.4809486"><ele>223.0</ele><time>2026-05-03T06:36:03.159Z</time></trkpt><trkpt lat="43.1531407" lon="11.4809289"><ele>222.8</ele><time>2026-05-03T06:36:04.159Z</time></trkpt><trkpt lat="43.1532129" lon="11.4809136"><ele>222.60000000000002</ele><time>2026-05-03T06:36:05.16Z</time></trkpt><trkpt lat="43.1533217" lon="11.4809236"><ele>222.39999999999998</ele><time>2026-05-03T06:36:07.16Z</time></trkpt><trkpt lat="43.1533972" lon="11.4810509"><ele>222.2</ele><time>2026-05-03T06:36:09.16Z</time></trkpt><trkpt lat="43.1534261" lon="11.4811513"><ele>222.0</ele><time>2026-05-03T06:36:10.159Z</time></trkpt><trkpt lat="43.1534584" lon="11.4812709"><ele>222.0</ele><time>2026-05-03T06:36:11.16Z</time></trkpt><trkpt lat="43.1534898" lon="11.4813999"><ele>222.0</ele><time>2026-05-03T06:36:12.159Z</time></trkpt><trkpt lat="43.1535225" lon="11.4815359"><ele>222.0</ele><time>2026-05-03T06:36:13.16Z</time></trkpt><trkpt lat="43.1535485" lon="11.4816464"><ele>222.0</ele><time>2026-05-03T06:36:14.16Z</time></trkpt><trkpt lat="43.1535889" lon="11.4817771"><ele>222.0</ele><time>2026-05-03T06:36:16.16Z</time></trkpt><trkpt lat="43.1536706" lon="11.4818495"><ele>222.0</ele><time>2026-05-03T06:36:18.16Z</time></trkpt><trkpt lat="43.1537934" lon="11.4819016"><ele>222.0</ele><time>2026-05-03T06:36:20.16Z</time></trkpt><trkpt lat="43.1538679" lon="11.4819442"><ele>222.0</ele><time>2026-05-03T06:36:21.16Z</time></trkpt><trkpt lat="43.1539557" lon="11.4819815"><ele>222.0</ele><time>2026-05-03T06:36:22.159Z</time></trkpt><trkpt lat="43.1540582" lon="11.4820087"><ele>222.0</ele><time>2026-05-03T06:36:23.159Z</time></trkpt><trkpt lat="43.1541582" lon="11.4820278"><ele>221.8</ele><time>2026-05-03T06:36:24.16Z</time></trkpt><trkpt lat="43.1542618" lon="11.4820428"><ele>221.6</ele><time>2026-05-03T06:36:25.16Z</time></trkpt><trkpt lat="43.154365" lon="11.4820546"><ele>221.40000000000003</ele><time>2026-05-03T06:36:26.159Z</time></trkpt><trkpt lat="43.1544609" lon="11.4820749"><ele>221.20000000000002</ele><time>2026-05-03T06:36:27.16Z</time></trkpt><trkpt lat="43.1545482" lon="11.4821082"><ele>221.0</ele><time>2026-05-03T06:36:28.159Z</time></trkpt><trkpt lat="43.154645" lon="11.4821575"><ele>221.0</ele><time>2026-05-03T06:36:29.16Z</time></trkpt><trkpt lat="43.1547353" lon="11.4822212"><ele>221.00000000000003</ele><time>2026-05-03T06:36:30.16Z</time></trkpt><trkpt lat="43.1548192" lon="11.482297"><ele>221.00000000000003</ele><time>2026-05-03T06:36:31.16Z</time></trkpt><trkpt lat="43.1548976" lon="11.4823728"><ele>221.0</ele><time>2026-05-03T06:36:32.16Z</time></trkpt><trkpt lat="43.1549597" lon="11.4824516"><ele>221.0</ele><time>2026-05-03T06:36:33.159Z</time></trkpt><trkpt lat="43.1550059" lon="11.4825482"><ele>219.4</ele><time>2026-05-03T06:36:34.16Z</time></trkpt><trkpt lat="43.1550412" lon="11.4826642"><ele>217.8</ele><time>2026-05-03T06:36:35.16Z</time></trkpt><trkpt lat="43.1550681" lon="11.4828012"><ele>216.20000000000002</ele><time>2026-05-03T06:36:36.16Z</time></trkpt><trkpt lat="43.1550915" lon="11.482936"><ele>214.60000000000002</ele><time>2026-05-03T06:36:37.159Z</time></trkpt><trkpt lat="43.1551237" lon="11.4830527"><ele>213.0</ele><time>2026-05-03T06:36:38.16Z</time></trkpt><trkpt lat="43.1551688" lon="11.4831641"><ele>213.0</ele><time>2026-05-03T06:36:39.16Z</time></trkpt><trkpt lat="43.1552293" lon="11.4832511"><ele>213.0</ele><time>2026-05-03T06:36:40.16Z</time></trkpt><trkpt lat="43.1553058" lon="11.4833243"><ele>213.0</ele><time>2026-05-03T06:36:41.159Z</time></trkpt><trkpt lat="43.1553894" lon="11.4833866"><ele>213.0</ele><time>2026-05-03T06:36:42.159Z</time></trkpt><trkpt lat="43.1554784" lon="11.4834394"><ele>213.0</ele><time>2026-05-03T06:36:43.159Z</time></trkpt><trkpt lat="43.1555697" lon="11.4834881"><ele>213.0</ele><time>2026-05-03T06:36:44.16Z</time></trkpt><trkpt lat="43.1556615" lon="11.4835377"><ele>213.0</ele><time>2026-05-03T06:36:45.16Z</time></trkpt><trkpt lat="43.1557457" lon="11.4835957"><ele>213.0</ele><time>2026-05-03T06:36:46.16Z</time></trkpt><trkpt lat="43.1558122" lon="11.4836489"><ele>213.0</ele><time>2026-05-03T06:36:47.16Z</time></trkpt><trkpt lat="43.1558662" lon="11.4836963"><ele>213.0</ele><time>2026-05-03T06:36:48.159Z</time></trkpt><trkpt lat="43.155918" lon="11.4837498"><ele>213.0</ele><time>2026-05-03T06:36:49.159Z</time></trkpt><trkpt lat="43.1559681" lon="11.4838141"><ele>213.0</ele><time>2026-05-03T06:36:50.159Z</time></trkpt><trkpt lat="43.1560141" lon="11.4838881"><ele>213.0</ele><time>2026-05-03T06:36:51.16Z</time></trkpt><trkpt lat="43.15606" lon="11.483975"><ele>213.0</ele><time>2026-05-03T06:36:52.159Z</time></trkpt><trkpt lat="43.1561064" lon="11.4840687"><ele>213.0</ele><time>2026-05-03T06:36:53.16Z</time></trkpt><trkpt lat="43.1561426" lon="11.4841707"><ele>213.0</ele><time>2026-05-03T06:36:54.159Z</time></trkpt><trkpt lat="43.1561762" lon="11.4842821"><ele>213.0</ele><time>2026-05-03T06:36:55.16Z</time></trkpt><trkpt lat="43.1562007" lon="11.4843859"><ele>213.0</ele><time>2026-05-03T06:36:56.159Z</time></trkpt><trkpt lat="43.1562277" lon="11.4844816"><ele>213.0</ele><time>2026-05-03T06:36:57.159Z</time></trkpt><trkpt lat="43.1562501" lon="11.4845709"><ele>213.0</ele><time>2026-05-03T06:36:58.16Z</time></trkpt><trkpt lat="43.1562925" lon="11.484725"><ele>213.0</ele><time>2026-05-03T06:37:00.16Z</time></trkpt><trkpt lat="43.1563384" lon="11.4848882"><ele>213.0</ele><time>2026-05-03T06:37:02.159Z</time></trkpt><trkpt lat="43.1563769" lon="11.4850221"><ele>213.0</ele><time>2026-05-03T06:37:04.16Z</time></trkpt><trkpt lat="43.1564314" lon="11.4851153"><ele>213.0</ele><time>2026-05-03T06:37:06.159Z</time></trkpt><trkpt lat="43.1565002" lon="11.4852159"><ele>213.0</ele><time>2026-05-03T06:37:08.16Z</time></trkpt><trkpt lat="43.1565444" lon="11.4852869"><ele>213.0</ele><time>2026-05-03T06:37:09.16Z</time></trkpt><trkpt lat="43.156603" lon="11.4853797"><ele>213.0</ele><time>2026-05-03T06:37:10.16Z</time></trkpt><trkpt lat="43.1566333" lon="11.4854865"><ele>213.0</ele><time>2026-05-03T06:37:11.16Z</time></trkpt><trkpt lat="43.1566736" lon="11.4855844"><ele>213.0</ele><time>2026-05-03T06:37:12.159Z</time></trkpt><trkpt lat="43.1567249" lon="11.4856726"><ele>213.0</ele><time>2026-05-03T06:37:13.159Z</time></trkpt><trkpt lat="43.156767" lon="11.4857832"><ele>213.0</ele><time>2026-05-03T06:37:14.159Z</time></trkpt><trkpt lat="43.1568105" lon="11.4858878"><ele>213.0</ele><time>2026-05-03T06:37:15.159Z</time></trkpt><trkpt lat="43.1568569" lon="11.4860032"><ele>213.0</ele><time>2026-05-03T06:37:16.16Z</time></trkpt><trkpt lat="43.1569052" lon="11.486116"><ele>213.0</ele><time>2026-05-03T06:37:17.16Z</time></trkpt><trkpt lat="43.1569555" lon="11.4862263"><ele>213.0</ele><time>2026-05-03T06:37:18.16Z</time></trkpt><trkpt lat="43.1570012" lon="11.4863287"><ele>213.0</ele><time>2026-05-03T06:37:19.16Z</time></trkpt><trkpt lat="43.1570462" lon="11.4864318"><ele>213.0</ele><time>2026-05-03T06:37:20.159Z</time></trkpt><trkpt lat="43.157103" lon="11.4865333"><ele>213.0</ele><time>2026-05-03T06:37:21.159Z</time></trkpt><trkpt lat="43.1571424" lon="11.4866255"><ele>213.0</ele><time>2026-05-03T06:37:22.158Z</time></trkpt><trkpt lat="43.1571847" lon="11.4867066"><ele>213.33333333333334</ele><time>2026-05-03T06:37:23.16Z</time></trkpt><trkpt lat="43.1572301" lon="11.4867889"><ele>213.66666666666669</ele><time>2026-05-03T06:37:24.159Z</time></trkpt><trkpt lat="43.157271" lon="11.4868627"><ele>214.0</ele><time>2026-05-03T06:37:25.16Z</time></trkpt><trkpt lat="43.157343" lon="11.4869407"><ele>214.33333333333334</ele><time>2026-05-03T06:37:26.159Z</time></trkpt><trkpt lat="43.1574369" lon="11.4869916"><ele>214.66666666666669</ele><time>2026-05-03T06:37:27.16Z</time></trkpt><trkpt lat="43.1575029" lon="11.4870682"><ele>215.0</ele><time>2026-05-03T06:37:28.159Z</time></trkpt><trkpt lat="43.1575763" lon="11.487138"><ele>215.66666666666669</ele><time>2026-05-03T06:37:29.16Z</time></trkpt><trkpt lat="43.1576451" lon="11.4872383"><ele>216.33333333333334</ele><time>2026-05-03T06:37:30.159Z</time></trkpt><trkpt lat="43.1577007" lon="11.4873378"><ele>217.0</ele><time>2026-05-03T06:37:31.159Z</time></trkpt><trkpt lat="43.1577486" lon="11.4874415"><ele>217.66666666666669</ele><time>2026-05-03T06:37:32.16Z</time></trkpt><trkpt lat="43.1577833" lon="11.4875324"><ele>218.33333333333334</ele><time>2026-05-03T06:37:33.16Z</time></trkpt><trkpt lat="43.1578312" lon="11.4876239"><ele>219.0</ele><time>2026-05-03T06:37:34.16Z</time></trkpt><trkpt lat="43.1578752" lon="11.4877222"><ele>219.0</ele><time>2026-05-03T06:37:35.159Z</time></trkpt><trkpt lat="43.1579156" lon="11.4878283"><ele>218.99999999999997</ele><time>2026-05-03T06:37:36.159Z</time></trkpt><trkpt lat="43.1579645" lon="11.4879407"><ele>218.99999999999997</ele><time>2026-05-03T06:37:37.158Z</time></trkpt><trkpt lat="43.1579487" lon="11.4880949"><ele>219.0</ele><time>2026-05-03T06:37:38.159Z</time></trkpt><trkpt lat="43.1579674" lon="11.4882222"><ele>219.0</ele><time>2026-05-03T06:37:39.159Z</time></trkpt><trkpt lat="43.1579856" lon="11.4883445"><ele>219.66666666666666</ele><time>2026-05-03T06:37:40.159Z</time></trkpt><trkpt lat="43.1580169" lon="11.4884509"><ele>220.33333333333331</ele><time>2026-05-03T06:37:41.16Z</time></trkpt><trkpt lat="43.1580319" lon="11.4885585"><ele>221.0</ele><time>2026-05-03T06:37:42.16Z</time></trkpt><trkpt lat="43.1580416" lon="11.4886634"><ele>221.66666666666666</ele><time>2026-05-03T06:37:43.159Z</time></trkpt><trkpt lat="43.158017" lon="11.488772"><ele>222.33333333333331</ele><time>2026-05-03T06:37:44.159Z</time></trkpt><trkpt lat="43.1580029" lon="11.4888867"><ele>223.0</ele><time>2026-05-03T06:37:45.159Z</time></trkpt><trkpt lat="43.1580038" lon="11.4889947"><ele>224.0</ele><time>2026-05-03T06:37:46.159Z</time></trkpt><trkpt lat="43.1580013" lon="11.4891099"><ele>225.0</ele><time>2026-05-03T06:37:47.16Z</time></trkpt><trkpt lat="43.1579784" lon="11.4892456"><ele>226.0</ele><time>2026-05-03T06:37:49.16Z</time></trkpt><trkpt lat="43.1579161" lon="11.4893373"><ele>227.0</ele><time>2026-05-03T06:37:51.16Z</time></trkpt><trkpt lat="43.1578068" lon="11.4894286"><ele>228.0</ele><time>2026-05-03T06:37:53.16Z</time></trkpt><trkpt lat="43.1577331" lon="11.4895159"><ele>226.60000000000002</ele><time>2026-05-03T06:37:55.159Z</time></trkpt><trkpt lat="43.1577549" lon="11.4896173"><ele>225.20000000000002</ele><time>2026-05-03T06:37:57.158Z</time></trkpt><trkpt lat="43.157815" lon="11.4896824"><ele>223.8</ele><time>2026-05-03T06:37:58.158Z</time></trkpt><trkpt lat="43.1579065" lon="11.4897802"><ele>222.4</ele><time>2026-05-03T06:37:59.159Z</time></trkpt><trkpt lat="43.1579892" lon="11.4898833"><ele>221.0</ele><time>2026-05-03T06:38:00.16Z</time></trkpt><trkpt lat="43.1580657" lon="11.4899929"><ele>221.0</ele><time>2026-05-03T06:38:01.159Z</time></trkpt><trkpt lat="43.1581445" lon="11.4901097"><ele>221.00000000000003</ele><time>2026-05-03T06:38:02.16Z</time></trkpt><trkpt lat="43.1582143" lon="11.4902229"><ele>221.00000000000003</ele><time>2026-05-03T06:38:03.159Z</time></trkpt><trkpt lat="43.1582739" lon="11.4903349"><ele>221.0</ele><time>2026-05-03T06:38:04.16Z</time></trkpt><trkpt lat="43.1583319" lon="11.4904386"><ele>221.0</ele><time>2026-05-03T06:38:05.16Z</time></trkpt><trkpt lat="43.158384" lon="11.4905391"><ele>220.66666666666669</ele><time>2026-05-03T06:38:06.16Z</time></trkpt><trkpt lat="43.1584315" lon="11.4906303"><ele>220.33333333333334</ele><time>2026-05-03T06:38:07.158Z</time></trkpt><trkpt lat="43.1584797" lon="11.4907117"><ele>220.0</ele><time>2026-05-03T06:38:08.16Z</time></trkpt><trkpt lat="43.1585307" lon="11.4907954"><ele>219.66666666666669</ele><time>2026-05-03T06:38:09.16Z</time></trkpt><trkpt lat="43.1585916" lon="11.4908749"><ele>219.33333333333334</ele><time>2026-05-03T06:38:10.159Z</time></trkpt><trkpt lat="43.1586551" lon="11.4909511"><ele>219.0</ele><time>2026-05-03T06:38:11.16Z</time></trkpt><trkpt lat="43.1587228" lon="11.4910284"><ele>219.0</ele><time>2026-05-03T06:38:12.159Z</time></trkpt><trkpt lat="43.1587912" lon="11.4911024"><ele>218.99999999999997</ele><time>2026-05-03T06:38:13.16Z</time></trkpt><trkpt lat="43.1588663" lon="11.4911773"><ele>218.99999999999997</ele><time>2026-05-03T06:38:14.16Z</time></trkpt><trkpt lat="43.1589415" lon="11.4912559"><ele>219.0</ele><time>2026-05-03T06:38:15.16Z</time></trkpt><trkpt lat="43.1590207" lon="11.4913409"><ele>219.0</ele><time>2026-05-03T06:38:16.16Z</time></trkpt><trkpt lat="43.159103" lon="11.4914272"><ele>219.2</ele><time>2026-05-03T06:38:17.16Z</time></trkpt><trkpt lat="43.1591909" lon="11.491517"><ele>219.39999999999998</ele><time>2026-05-03T06:38:18.159Z</time></trkpt><trkpt lat="43.1592818" lon="11.4916058"><ele>219.6</ele><time>2026-05-03T06:38:19.16Z</time></trkpt><trkpt lat="43.1593763" lon="11.4916941"><ele>219.8</ele><time>2026-05-03T06:38:20.159Z</time></trkpt><trkpt lat="43.1594677" lon="11.4917842"><ele>220.0</ele><time>2026-05-03T06:38:21.16Z</time></trkpt><trkpt lat="43.1595571" lon="11.4918695"><ele>220.0</ele><time>2026-05-03T06:38:22.16Z</time></trkpt><trkpt lat="43.1596458" lon="11.4919386"><ele>220.0</ele><time>2026-05-03T06:38:23.159Z</time></trkpt><trkpt lat="43.1597288" lon="11.4919961"><ele>220.0</ele><time>2026-05-03T06:38:24.159Z</time></trkpt><trkpt lat="43.1598121" lon="11.4920335"><ele>220.0</ele><time>2026-05-03T06:38:25.16Z</time></trkpt><trkpt lat="43.1598928" lon="11.4920442"><ele>220.0</ele><time>2026-05-03T06:38:26.158Z</time></trkpt><trkpt lat="43.1599808" lon="11.4920308"><ele>221.4</ele><time>2026-05-03T06:38:27.16Z</time></trkpt><trkpt lat="43.1600716" lon="11.4920032"><ele>222.8</ele><time>2026-05-03T06:38:28.16Z</time></trkpt><trkpt lat="43.1601608" lon="11.4919585"><ele>224.2</ele><time>2026-05-03T06:38:29.16Z</time></trkpt><trkpt lat="43.1602451" lon="11.4918964"><ele>225.6</ele><time>2026-05-03T06:38:30.16Z</time></trkpt><trkpt lat="43.1603234" lon="11.4918177"><ele>227.0</ele><time>2026-05-03T06:38:31.16Z</time></trkpt><trkpt lat="43.1603898" lon="11.4917209"><ele>227.0</ele><time>2026-05-03T06:38:32.16Z</time></trkpt><trkpt lat="43.1604437" lon="11.4916101"><ele>227.0</ele><time>2026-05-03T06:38:33.159Z</time></trkpt><trkpt lat="43.160486" lon="11.4914905"><ele>227.0</ele><time>2026-05-03T06:38:34.159Z</time></trkpt><trkpt lat="43.160518" lon="11.4913661"><ele>227.0</ele><time>2026-05-03T06:38:35.159Z</time></trkpt><trkpt lat="43.1605425" lon="11.491242"><ele>227.0</ele><time>2026-05-03T06:38:36.159Z</time></trkpt><trkpt lat="43.1605711" lon="11.4911153"><ele>227.0</ele><time>2026-05-03T06:38:37.159Z</time></trkpt><trkpt lat="43.160602" lon="11.4909951"><ele>227.0</ele><time>2026-05-03T06:38:38.159Z</time></trkpt><trkpt lat="43.1606493" lon="11.4908932"><ele>227.0</ele><time>2026-05-03T06:38:39.16Z</time></trkpt><trkpt lat="43.1607119" lon="11.4907945"><ele>227.0</ele><time>2026-05-03T06:38:40.159Z</time></trkpt><trkpt lat="43.1607893" lon="11.4907061"><ele>227.0</ele><time>2026-05-03T06:38:41.16Z</time></trkpt><trkpt lat="43.1608773" lon="11.4906309"><ele>227.0</ele><time>2026-05-03T06:38:42.16Z</time></trkpt><trkpt lat="43.1609744" lon="11.4905717"><ele>227.0</ele><time>2026-05-03T06:38:43.16Z</time></trkpt><trkpt lat="43.1610747" lon="11.4905244"><ele>227.0</ele><time>2026-05-03T06:38:44.159Z</time></trkpt><trkpt lat="43.1611723" lon="11.490479"><ele>227.0</ele><time>2026-05-03T06:38:45.159Z</time></trkpt><trkpt lat="43.1612714" lon="11.4904376"><ele>227.0</ele><time>2026-05-03T06:38:46.159Z</time></trkpt><trkpt lat="43.1613723" lon="11.4903934"><ele>227.8</ele><time>2026-05-03T06:38:47.159Z</time></trkpt><trkpt lat="43.1614706" lon="11.4903486"><ele>228.6</ele><time>2026-05-03T06:38:48.159Z</time></trkpt><trkpt lat="43.1615719" lon="11.4903039"><ele>229.40000000000003</ele><time>2026-05-03T06:38:49.158Z</time></trkpt><trkpt lat="43.1616753" lon="11.4902563"><ele>230.20000000000002</ele><time>2026-05-03T06:38:50.158Z</time></trkpt><trkpt lat="43.1617777" lon="11.4902127"><ele>231.0</ele><time>2026-05-03T06:38:51.16Z</time></trkpt><trkpt lat="43.1618839" lon="11.4901784"><ele>231.4</ele><time>2026-05-03T06:38:52.159Z</time></trkpt><trkpt lat="43.1619905" lon="11.4901639"><ele>231.8</ele><time>2026-05-03T06:38:53.16Z</time></trkpt><trkpt lat="43.1620986" lon="11.4901594"><ele>232.20000000000002</ele><time>2026-05-03T06:38:54.16Z</time></trkpt><trkpt lat="43.1622036" lon="11.4901614"><ele>232.60000000000002</ele><time>2026-05-03T06:38:55.159Z</time></trkpt><trkpt lat="43.162309" lon="11.4901678"><ele>233.0</ele><time>2026-05-03T06:38:56.16Z</time></trkpt><trkpt lat="43.1624157" lon="11.4901758"><ele>233.0</ele><time>2026-05-03T06:38:57.159Z</time></trkpt><trkpt lat="43.1625261" lon="11.4901913"><ele>233.0</ele><time>2026-05-03T06:38:58.159Z</time></trkpt><trkpt lat="43.1626382" lon="11.4902113"><ele>233.0</ele><time>2026-05-03T06:38:59.159Z</time></trkpt><trkpt lat="43.1627545" lon="11.4902269"><ele>233.0</ele><time>2026-05-03T06:39:00.16Z</time></trkpt><trkpt lat="43.1628713" lon="11.4902449"><ele>233.0</ele><time>2026-05-03T06:39:01.159Z</time></trkpt><trkpt lat="43.1629867" lon="11.49026"><ele>233.0</ele><time>2026-05-03T06:39:02.159Z</time></trkpt><trkpt lat="43.1631041" lon="11.4902722"><ele>233.0</ele><time>2026-05-03T06:39:03.159Z</time></trkpt><trkpt lat="43.1632211" lon="11.4902892"><ele>233.0</ele><time>2026-05-03T06:39:04.16Z</time></trkpt><trkpt lat="43.1633408" lon="11.490309"><ele>233.0</ele><time>2026-05-03T06:39:05.16Z</time></trkpt><trkpt lat="43.1634605" lon="11.4903183"><ele>233.0</ele><time>2026-05-03T06:39:06.159Z</time></trkpt><trkpt lat="43.1635812" lon="11.4903029"><ele>233.0</ele><time>2026-05-03T06:39:07.159Z</time></trkpt><trkpt lat="43.1637017" lon="11.4902799"><ele>233.0</ele><time>2026-05-03T06:39:08.159Z</time></trkpt><trkpt lat="43.1638223" lon="11.49026"><ele>233.0</ele><time>2026-05-03T06:39:09.16Z</time></trkpt><trkpt lat="43.1639464" lon="11.4902393"><ele>233.0</ele><time>2026-05-03T06:39:10.159Z</time></trkpt><trkpt lat="43.1640733" lon="11.4902165"><ele>233.0</ele><time>2026-05-03T06:39:11.158Z</time></trkpt><trkpt lat="43.1642052" lon="11.4901871"><ele>233.0</ele><time>2026-05-03T06:39:12.159Z</time></trkpt><trkpt lat="43.1643334" lon="11.490162"><ele>233.0</ele><time>2026-05-03T06:39:13.16Z</time></trkpt><trkpt lat="43.1644702" lon="11.490129"><ele>233.0</ele><time>2026-05-03T06:39:14.16Z</time></trkpt><trkpt lat="43.1646057" lon="11.4900976"><ele>233.0</ele><time>2026-05-03T06:39:15.16Z</time></trkpt><trkpt lat="43.1647422" lon="11.4900679"><ele>233.0</ele><time>2026-05-03T06:39:16.16Z</time></trkpt><trkpt lat="43.1648774" lon="11.4900384"><ele>233.0</ele><time>2026-05-03T06:39:17.16Z</time></trkpt><trkpt lat="43.165016" lon="11.4900103"><ele>233.0</ele><time>2026-05-03T06:39:18.159Z</time></trkpt><trkpt lat="43.1651503" lon="11.4899787"><ele>233.0</ele><time>2026-05-03T06:39:19.16Z</time></trkpt><trkpt lat="43.1652854" lon="11.4899475"><ele>233.0</ele><time>2026-05-03T06:39:20.16Z</time></trkpt><trkpt lat="43.1654177" lon="11.4899207"><ele>233.0</ele><time>2026-05-03T06:39:21.16Z</time></trkpt><trkpt lat="43.1655382" lon="11.489898"><ele>233.0</ele><time>2026-05-03T06:39:22.159Z</time></trkpt><trkpt lat="43.1656539" lon="11.4898846"><ele>233.0</ele><time>2026-05-03T06:39:23.159Z</time></trkpt><trkpt lat="43.1657685" lon="11.489883"><ele>233.0</ele><time>2026-05-03T06:39:24.159Z</time></trkpt><trkpt lat="43.1658862" lon="11.4898942"><ele>232.0</ele><time>2026-05-03T06:39:25.16Z</time></trkpt><trkpt lat="43.1660069" lon="11.4899242"><ele>231.0</ele><time>2026-05-03T06:39:26.16Z</time></trkpt><trkpt lat="43.1661268" lon="11.4899402"><ele>230.0</ele><time>2026-05-03T06:39:27.159Z</time></trkpt><trkpt lat="43.1662457" lon="11.4899586"><ele>229.0</ele><time>2026-05-03T06:39:28.159Z</time></trkpt><trkpt lat="43.1663638" lon="11.4899763"><ele>229.0</ele><time>2026-05-03T06:39:29.16Z</time></trkpt><trkpt lat="43.166481" lon="11.489996"><ele>229.0</ele><time>2026-05-03T06:39:30.16Z</time></trkpt><trkpt lat="43.1665952" lon="11.4900162"><ele>229.0</ele><time>2026-05-03T06:39:31.159Z</time></trkpt><trkpt lat="43.1667106" lon="11.4900342"><ele>229.0</ele><time>2026-05-03T06:39:32.158Z</time></trkpt><trkpt lat="43.1668285" lon="11.4900601"><ele>230.0</ele><time>2026-05-03T06:39:33.16Z</time></trkpt><trkpt lat="43.1669448" lon="11.4900875"><ele>231.0</ele><time>2026-05-03T06:39:34.159Z</time></trkpt><trkpt lat="43.1670629" lon="11.4901142"><ele>232.0</ele><time>2026-05-03T06:39:35.16Z</time></trkpt><trkpt lat="43.1671786" lon="11.4901432"><ele>233.0</ele><time>2026-05-03T06:39:36.16Z</time></trkpt><trkpt lat="43.1672935" lon="11.4901768"><ele>233.0</ele><time>2026-05-03T06:39:37.159Z</time></trkpt><trkpt lat="43.1673998" lon="11.4902225"><ele>233.0</ele><time>2026-05-03T06:39:38.16Z</time></trkpt><trkpt lat="43.1674994" lon="11.4902938"><ele>233.0</ele><time>2026-05-03T06:39:39.159Z</time></trkpt><trkpt lat="43.1675816" lon="11.4903847"><ele>233.0</ele><time>2026-05-03T06:39:40.159Z</time></trkpt><trkpt lat="43.1676518" lon="11.4904704"><ele>233.0</ele><time>2026-05-03T06:39:41.159Z</time></trkpt><trkpt lat="43.1677275" lon="11.4905598"><ele>233.0</ele><time>2026-05-03T06:39:42.158Z</time></trkpt><trkpt lat="43.1678071" lon="11.4906589"><ele>233.0</ele><time>2026-05-03T06:39:43.159Z</time></trkpt><trkpt lat="43.1678815" lon="11.4907687"><ele>233.0</ele><time>2026-05-03T06:39:44.16Z</time></trkpt><trkpt lat="43.1679434" lon="11.4908986"><ele>233.0</ele><time>2026-05-03T06:39:45.16Z</time></trkpt><trkpt lat="43.1680054" lon="11.4910317"><ele>233.0</ele><time>2026-05-03T06:39:46.158Z</time></trkpt><trkpt lat="43.1680818" lon="11.4911533"><ele>234.0</ele><time>2026-05-03T06:39:47.16Z</time></trkpt><trkpt lat="43.1681649" lon="11.4912707"><ele>235.0</ele><time>2026-05-03T06:39:48.159Z</time></trkpt><trkpt lat="43.168248" lon="11.4913861"><ele>236.0</ele><time>2026-05-03T06:39:49.158Z</time></trkpt><trkpt lat="43.1683258" lon="11.4915063"><ele>237.0</ele><time>2026-05-03T06:39:50.159Z</time></trkpt><trkpt lat="43.1683926" lon="11.4916345"><ele>237.0</ele><time>2026-05-03T06:39:51.16Z</time></trkpt><trkpt lat="43.1684703" lon="11.4917444"><ele>237.0</ele><time>2026-05-03T06:39:52.16Z</time></trkpt><trkpt lat="43.1685516" lon="11.4918427"><ele>237.0</ele><time>2026-05-03T06:39:53.159Z</time></trkpt><trkpt lat="43.1686276" lon="11.4919179"><ele>237.0</ele><time>2026-05-03T06:39:54.16Z</time></trkpt><trkpt lat="43.1686975" lon="11.4919693"><ele>237.0</ele><time>2026-05-03T06:39:55.159Z</time></trkpt><trkpt lat="43.1687847" lon="11.4920279"><ele>237.0</ele><time>2026-05-03T06:39:56.159Z</time></trkpt><trkpt lat="43.1688831" lon="11.4920721"><ele>237.0</ele><time>2026-05-03T06:39:57.158Z</time></trkpt><trkpt lat="43.168977" lon="11.4920963"><ele>237.0</ele><time>2026-05-03T06:39:58.159Z</time></trkpt><trkpt lat="43.169071" lon="11.492104"><ele>237.0</ele><time>2026-05-03T06:39:59.159Z</time></trkpt><trkpt lat="43.1691667" lon="11.492116"><ele>237.0</ele><time>2026-05-03T06:40:00.159Z</time></trkpt><trkpt lat="43.1692644" lon="11.492139"><ele>237.6</ele><time>2026-05-03T06:40:01.16Z</time></trkpt><trkpt lat="43.1693565" lon="11.4921807"><ele>238.2</ele><time>2026-05-03T06:40:02.159Z</time></trkpt><trkpt lat="43.1694491" lon="11.4922283"><ele>238.8</ele><time>2026-05-03T06:40:03.16Z</time></trkpt><trkpt lat="43.1695369" lon="11.4922854"><ele>239.4</ele><time>2026-05-03T06:40:04.159Z</time></trkpt><trkpt lat="43.1696275" lon="11.4923453"><ele>240.0</ele><time>2026-05-03T06:40:05.16Z</time></trkpt><trkpt lat="43.1697202" lon="11.4923999"><ele>240.0</ele><time>2026-05-03T06:40:06.159Z</time></trkpt><trkpt lat="43.1698104" lon="11.4924502"><ele>240.0</ele><time>2026-05-03T06:40:07.159Z</time></trkpt><trkpt lat="43.1698934" lon="11.4924733"><ele>240.0</ele><time>2026-05-03T06:40:08.16Z</time></trkpt><trkpt lat="43.1699704" lon="11.4924809"><ele>240.0</ele><time>2026-05-03T06:40:09.159Z</time></trkpt><trkpt lat="43.170046" lon="11.4924818"><ele>240.0</ele><time>2026-05-03T06:40:10.159Z</time></trkpt><trkpt lat="43.1701233" lon="11.4924719"><ele>240.0</ele><time>2026-05-03T06:40:11.159Z</time></trkpt><trkpt lat="43.1701996" lon="11.4924516"><ele>240.5</ele><time>2026-05-03T06:40:12.159Z</time></trkpt><trkpt lat="43.1702768" lon="11.4924271"><ele>241.0</ele><time>2026-05-03T06:40:13.159Z</time></trkpt><trkpt lat="43.1703534" lon="11.4924024"><ele>241.5</ele><time>2026-05-03T06:40:14.16Z</time></trkpt><trkpt lat="43.1704274" lon="11.4923762"><ele>242.0</ele><time>2026-05-03T06:40:15.16Z</time></trkpt><trkpt lat="43.1705032" lon="11.4923475"><ele>242.5</ele><time>2026-05-03T06:40:16.159Z</time></trkpt><trkpt lat="43.1705716" lon="11.4923241"><ele>243.0</ele><time>2026-05-03T06:40:17.159Z</time></trkpt><trkpt lat="43.1706401" lon="11.4923016"><ele>241.5</ele><time>2026-05-03T06:40:18.16Z</time></trkpt><trkpt lat="43.1707106" lon="11.4922763"><ele>240.0</ele><time>2026-05-03T06:40:19.159Z</time></trkpt><trkpt lat="43.1707888" lon="11.4922488"><ele>238.5</ele><time>2026-05-03T06:40:20.16Z</time></trkpt><trkpt lat="43.1708595" lon="11.4922259"><ele>237.0</ele><time>2026-05-03T06:40:21.16Z</time></trkpt><trkpt lat="43.1709276" lon="11.4922004"><ele>235.5</ele><time>2026-05-03T06:40:22.16Z</time></trkpt><trkpt lat="43.1710002" lon="11.4921723"><ele>234.0</ele><time>2026-05-03T06:40:23.16Z</time></trkpt><trkpt lat="43.1710821" lon="11.4921427"><ele>234.0</ele><time>2026-05-03T06:40:24.159Z</time></trkpt><trkpt lat="43.1711666" lon="11.4921139"><ele>233.99999999999997</ele><time>2026-05-03T06:40:25.159Z</time></trkpt><trkpt lat="43.1712499" lon="11.4920836"><ele>233.99999999999997</ele><time>2026-05-03T06:40:26.159Z</time></trkpt><trkpt lat="43.1713393" lon="11.4920545"><ele>234.0</ele><time>2026-05-03T06:40:27.16Z</time></trkpt><trkpt lat="43.1714302" lon="11.4920248"><ele>234.0</ele><time>2026-05-03T06:40:28.16Z</time></trkpt><trkpt lat="43.1715266" lon="11.49199"><ele>233.6</ele><time>2026-05-03T06:40:29.159Z</time></trkpt><trkpt lat="43.1716328" lon="11.4919512"><ele>233.2</ele><time>2026-05-03T06:40:30.16Z</time></trkpt><trkpt lat="43.1717313" lon="11.4919193"><ele>232.79999999999998</ele><time>2026-05-03T06:40:31.159Z</time></trkpt><trkpt lat="43.171832" lon="11.4918883"><ele>232.39999999999998</ele><time>2026-05-03T06:40:32.16Z</time></trkpt><trkpt lat="43.1719307" lon="11.4918497"><ele>232.0</ele><time>2026-05-03T06:40:33.16Z</time></trkpt><trkpt lat="43.1720256" lon="11.4918098"><ele>232.0</ele><time>2026-05-03T06:40:34.16Z</time></trkpt><trkpt lat="43.1721237" lon="11.491779"><ele>232.0</ele><time>2026-05-03T06:40:35.16Z</time></trkpt><trkpt lat="43.1722177" lon="11.4917435"><ele>232.0</ele><time>2026-05-03T06:40:36.159Z</time></trkpt><trkpt lat="43.1723094" lon="11.4917014"><ele>232.0</ele><time>2026-05-03T06:40:37.158Z</time></trkpt><trkpt lat="43.1724045" lon="11.4916593"><ele>232.0</ele><time>2026-05-03T06:40:38.159Z</time></trkpt><trkpt lat="43.1724998" lon="11.4916136"><ele>232.99999999999997</ele><time>2026-05-03T06:40:39.16Z</time></trkpt><trkpt lat="43.172592" lon="11.4915837"><ele>234.0</ele><time>2026-05-03T06:40:40.16Z</time></trkpt><trkpt lat="43.172684" lon="11.4915731"><ele>235.0</ele><time>2026-05-03T06:40:41.159Z</time></trkpt><trkpt lat="43.1727787" lon="11.4915732"><ele>236.0</ele><time>2026-05-03T06:40:42.16Z</time></trkpt><trkpt lat="43.1728631" lon="11.4915711"><ele>236.99999999999997</ele><time>2026-05-03T06:40:43.159Z</time></trkpt><trkpt lat="43.1729393" lon="11.4915668"><ele>238.0</ele><time>2026-05-03T06:40:44.16Z</time></trkpt><trkpt lat="43.1730184" lon="11.4915583"><ele>237.99999999999997</ele><time>2026-05-03T06:40:45.159Z</time></trkpt><trkpt lat="43.1731056" lon="11.4915246"><ele>238.0</ele><time>2026-05-03T06:40:46.159Z</time></trkpt><trkpt lat="43.1731827" lon="11.4915204"><ele>238.0</ele><time>2026-05-03T06:40:47.16Z</time></trkpt><trkpt lat="43.1732498" lon="11.4915244"><ele>238.0</ele><time>2026-05-03T06:40:48.159Z</time></trkpt><trkpt lat="43.1733805" lon="11.4915579"><ele>237.99999999999997</ele><time>2026-05-03T06:40:50.159Z</time></trkpt><trkpt lat="43.1734575" lon="11.4915836"><ele>238.0</ele><time>2026-05-03T06:40:51.16Z</time></trkpt><trkpt lat="43.1735335" lon="11.4916103"><ele>238.49999999999997</ele><time>2026-05-03T06:40:52.16Z</time></trkpt><trkpt lat="43.1736023" lon="11.4916389"><ele>239.0</ele><time>2026-05-03T06:40:53.159Z</time></trkpt><trkpt lat="43.1736978" lon="11.4916802"><ele>239.5</ele><time>2026-05-03T06:40:55.159Z</time></trkpt><trkpt lat="43.1738145" lon="11.4916738"><ele>240.0</ele><time>2026-05-03T06:40:58.159Z</time></trkpt><trkpt lat="43.173872" lon="11.4916179"><ele>240.49999999999997</ele><time>2026-05-03T06:40:59.16Z</time></trkpt><trkpt lat="43.1739379" lon="11.4915464"><ele>241.0</ele><time>2026-05-03T06:41:00.16Z</time></trkpt><trkpt lat="43.1740057" lon="11.4914745"><ele>239.83333333333331</ele><time>2026-05-03T06:41:01.16Z</time></trkpt><trkpt lat="43.174076" lon="11.4914012"><ele>238.66666666666666</ele><time>2026-05-03T06:41:02.16Z</time></trkpt><trkpt lat="43.174144" lon="11.4913337"><ele>237.5</ele><time>2026-05-03T06:41:03.159Z</time></trkpt><trkpt lat="43.1742012" lon="11.4912609"><ele>236.33333333333331</ele><time>2026-05-03T06:41:04.16Z</time></trkpt><trkpt lat="43.1742673" lon="11.4911782"><ele>235.16666666666666</ele><time>2026-05-03T06:41:05.159Z</time></trkpt><trkpt lat="43.1743299" lon="11.4910814"><ele>234.0</ele><time>2026-05-03T06:41:06.16Z</time></trkpt><trkpt lat="43.1743989" lon="11.4909848"><ele>233.2</ele><time>2026-05-03T06:41:07.16Z</time></trkpt><trkpt lat="43.1744748" lon="11.4908853"><ele>232.39999999999998</ele><time>2026-05-03T06:41:08.159Z</time></trkpt><trkpt lat="43.1745498" lon="11.4907814"><ele>231.6</ele><time>2026-05-03T06:41:09.159Z</time></trkpt><trkpt lat="43.1746254" lon="11.4906705"><ele>230.8</ele><time>2026-05-03T06:41:10.16Z</time></trkpt><trkpt lat="43.1747027" lon="11.4905548"><ele>230.0</ele><time>2026-05-03T06:41:11.16Z</time></trkpt><trkpt lat="43.1747743" lon="11.4904404"><ele>229.0</ele><time>2026-05-03T06:41:12.158Z</time></trkpt><trkpt lat="43.1748428" lon="11.4903265"><ele>228.0</ele><time>2026-05-03T06:41:13.159Z</time></trkpt><trkpt lat="43.1749032" lon="11.4902295"><ele>227.0</ele><time>2026-05-03T06:41:14.159Z</time></trkpt><trkpt lat="43.1749615" lon="11.4901327"><ele>226.0</ele><time>2026-05-03T06:41:15.159Z</time></trkpt><trkpt lat="43.175023" lon="11.4900314"><ele>225.0</ele><time>2026-05-03T06:41:16.161Z</time></trkpt><trkpt lat="43.1750976" lon="11.4899457"><ele>227.6</ele><time>2026-05-03T06:41:17.16Z</time></trkpt><trkpt lat="43.1751894" lon="11.4898622"><ele>230.2</ele><time>2026-05-03T06:41:18.161Z</time></trkpt><trkpt lat="43.1752858" lon="11.489779"><ele>232.8</ele><time>2026-05-03T06:41:19.159Z</time></trkpt><trkpt lat="43.1753779" lon="11.4897114"><ele>235.4</ele><time>2026-05-03T06:41:20.161Z</time></trkpt><trkpt lat="43.1754747" lon="11.4896452"><ele>238.0</ele><time>2026-05-03T06:41:21.161Z</time></trkpt><trkpt lat="43.1755651" lon="11.4895851"><ele>238.0</ele><time>2026-05-03T06:41:22.16Z</time></trkpt><trkpt lat="43.1756542" lon="11.4895289"><ele>238.0</ele><time>2026-05-03T06:41:23.16Z</time></trkpt><trkpt lat="43.1757403" lon="11.4894851"><ele>238.0</ele><time>2026-05-03T06:41:24.161Z</time></trkpt><trkpt lat="43.17583" lon="11.4894526"><ele>238.0</ele><time>2026-05-03T06:41:25.16Z</time></trkpt><trkpt lat="43.1759305" lon="11.4894171"><ele>238.0</ele><time>2026-05-03T06:41:26.161Z</time></trkpt><trkpt lat="43.1760286" lon="11.4893903"><ele>238.60000000000002</ele><time>2026-05-03T06:41:27.161Z</time></trkpt><trkpt lat="43.1761295" lon="11.489356"><ele>239.20000000000002</ele><time>2026-05-03T06:41:28.16Z</time></trkpt><trkpt lat="43.1762205" lon="11.4893205"><ele>239.8</ele><time>2026-05-03T06:41:29.161Z</time></trkpt><trkpt lat="43.1763164" lon="11.4892684"><ele>240.4</ele><time>2026-05-03T06:41:30.161Z</time></trkpt><trkpt lat="43.1764085" lon="11.4892069"><ele>241.0</ele><time>2026-05-03T06:41:31.16Z</time></trkpt><trkpt lat="43.1764992" lon="11.4891337"><ele>240.8</ele><time>2026-05-03T06:41:32.161Z</time></trkpt><trkpt lat="43.1765938" lon="11.4890564"><ele>240.60000000000002</ele><time>2026-05-03T06:41:33.161Z</time></trkpt><trkpt lat="43.1766798" lon="11.4889659"><ele>240.4</ele><time>2026-05-03T06:41:34.161Z</time></trkpt><trkpt lat="43.1767568" lon="11.4888611"><ele>240.2</ele><time>2026-05-03T06:41:35.161Z</time></trkpt><trkpt lat="43.1768221" lon="11.4887718"><ele>240.0</ele><time>2026-05-03T06:41:36.161Z</time></trkpt><trkpt lat="43.176881" lon="11.4886869"><ele>240.0</ele><time>2026-05-03T06:41:37.16Z</time></trkpt><trkpt lat="43.1769343" lon="11.488616"><ele>240.0</ele><time>2026-05-03T06:41:38.16Z</time></trkpt><trkpt lat="43.1769775" lon="11.4885443"><ele>240.0</ele><time>2026-05-03T06:41:39.16Z</time></trkpt><trkpt lat="43.1770119" lon="11.4884084"><ele>240.0</ele><time>2026-05-03T06:41:41.16Z</time></trkpt><trkpt lat="43.176958" lon="11.4882458"><ele>240.0</ele><time>2026-05-03T06:41:43.161Z</time></trkpt><trkpt lat="43.1769084" lon="11.4881431"><ele>240.0</ele><time>2026-05-03T06:41:44.161Z</time></trkpt><trkpt lat="43.1768717" lon="11.4880284"><ele>240.0</ele><time>2026-05-03T06:41:45.161Z</time></trkpt><trkpt lat="43.1768459" lon="11.4878874"><ele>240.0</ele><time>2026-05-03T06:41:46.161Z</time></trkpt><trkpt lat="43.17683" lon="11.4877382"><ele>240.0</ele><time>2026-05-03T06:41:47.16Z</time></trkpt><trkpt lat="43.1768144" lon="11.4875819"><ele>240.0</ele><time>2026-05-03T06:41:48.161Z</time></trkpt><trkpt lat="43.1768014" lon="11.4874255"><ele>239.75</ele><time>2026-05-03T06:41:49.161Z</time></trkpt><trkpt lat="43.1767772" lon="11.4872712"><ele>239.5</ele><time>2026-05-03T06:41:50.16Z</time></trkpt><trkpt lat="43.176744" lon="11.4871108"><ele>239.25</ele><time>2026-05-03T06:41:51.16Z</time></trkpt><trkpt lat="43.1766981" lon="11.4869532"><ele>239.0</ele><time>2026-05-03T06:41:52.16Z</time></trkpt><trkpt lat="43.1766421" lon="11.4867973"><ele>238.5</ele><time>2026-05-03T06:41:53.161Z</time></trkpt><trkpt lat="43.1765774" lon="11.4866431"><ele>238.0</ele><time>2026-05-03T06:41:54.161Z</time></trkpt><trkpt lat="43.1765057" lon="11.4864932"><ele>237.5</ele><time>2026-05-03T06:41:55.161Z</time></trkpt><trkpt lat="43.1764307" lon="11.4863509"><ele>237.0</ele><time>2026-05-03T06:41:56.16Z</time></trkpt><trkpt lat="43.1763605" lon="11.4862229"><ele>236.39999999999998</ele><time>2026-05-03T06:41:57.161Z</time></trkpt><trkpt lat="43.176283" lon="11.4861011"><ele>235.79999999999998</ele><time>2026-05-03T06:41:58.161Z</time></trkpt><trkpt lat="43.1762082" lon="11.4859749"><ele>235.2</ele><time>2026-05-03T06:41:59.16Z</time></trkpt><trkpt lat="43.1761474" lon="11.4858613"><ele>234.6</ele><time>2026-05-03T06:42:00.161Z</time></trkpt><trkpt lat="43.1760809" lon="11.4857535"><ele>234.0</ele><time>2026-05-03T06:42:01.161Z</time></trkpt><trkpt lat="43.1760082" lon="11.4856531"><ele>234.0</ele><time>2026-05-03T06:42:02.16Z</time></trkpt><trkpt lat="43.1759261" lon="11.4855592"><ele>233.99999999999997</ele><time>2026-05-03T06:42:03.161Z</time></trkpt><trkpt lat="43.1758501" lon="11.4854799"><ele>233.99999999999997</ele><time>2026-05-03T06:42:04.161Z</time></trkpt><trkpt lat="43.1757749" lon="11.4854028"><ele>234.0</ele><time>2026-05-03T06:42:05.16Z</time></trkpt><trkpt lat="43.1757028" lon="11.4853286"><ele>234.0</ele><time>2026-05-03T06:42:06.161Z</time></trkpt><trkpt lat="43.1756297" lon="11.4852499"><ele>233.16666666666666</ele><time>2026-05-03T06:42:07.159Z</time></trkpt><trkpt lat="43.1755614" lon="11.4851807"><ele>232.33333333333331</ele><time>2026-05-03T06:42:08.161Z</time></trkpt><trkpt lat="43.1755074" lon="11.4851237"><ele>231.5</ele><time>2026-05-03T06:42:09.161Z</time></trkpt><trkpt lat="43.1754588" lon="11.4850194"><ele>230.66666666666666</ele><time>2026-05-03T06:42:11.161Z</time></trkpt><trkpt lat="43.1754978" lon="11.4848909"><ele>229.83333333333331</ele><time>2026-05-03T06:42:13.16Z</time></trkpt><trkpt lat="43.1755547" lon="11.484804"><ele>229.0</ele><time>2026-05-03T06:42:14.16Z</time></trkpt><trkpt lat="43.1756186" lon="11.4846997"><ele>228.99999999999997</ele><time>2026-05-03T06:42:15.159Z</time></trkpt><trkpt lat="43.1756647" lon="11.4846021"><ele>229.0</ele><time>2026-05-03T06:42:16.161Z</time></trkpt><trkpt lat="43.1757138" lon="11.4844996"><ele>229.0</ele><time>2026-05-03T06:42:17.161Z</time></trkpt><trkpt lat="43.1757586" lon="11.4844032"><ele>229.0</ele><time>2026-05-03T06:42:18.159Z</time></trkpt><trkpt lat="43.1757957" lon="11.4842996"><ele>228.99999999999997</ele><time>2026-05-03T06:42:19.159Z</time></trkpt><trkpt lat="43.1758198" lon="11.4841835"><ele>229.0</ele><time>2026-05-03T06:42:20.161Z</time></trkpt><trkpt lat="43.1758313" lon="11.4840554"><ele>229.0</ele><time>2026-05-03T06:42:21.161Z</time></trkpt><trkpt lat="43.1758304" lon="11.4839139"><ele>228.99999999999997</ele><time>2026-05-03T06:42:22.161Z</time></trkpt><trkpt lat="43.1758204" lon="11.4837598"><ele>228.99999999999997</ele><time>2026-05-03T06:42:23.161Z</time></trkpt><trkpt lat="43.1758054" lon="11.4836082"><ele>229.0</ele><time>2026-05-03T06:42:24.16Z</time></trkpt><trkpt lat="43.1757918" lon="11.4834522"><ele>229.0</ele><time>2026-05-03T06:42:25.161Z</time></trkpt><trkpt lat="43.1757788" lon="11.4832951"><ele>227.66666666666666</ele><time>2026-05-03T06:42:26.161Z</time></trkpt><trkpt lat="43.1757695" lon="11.4831478"><ele>226.33333333333331</ele><time>2026-05-03T06:42:27.16Z</time></trkpt><trkpt lat="43.1757601" lon="11.4830164"><ele>225.0</ele><time>2026-05-03T06:42:28.161Z</time></trkpt><trkpt lat="43.1757395" lon="11.4829068"><ele>223.66666666666669</ele><time>2026-05-03T06:42:29.161Z</time></trkpt><trkpt lat="43.1757149" lon="11.4828007"><ele>222.33333333333334</ele><time>2026-05-03T06:42:30.16Z</time></trkpt><trkpt lat="43.1756804" lon="11.4827052"><ele>221.0</ele><time>2026-05-03T06:42:31.16Z</time></trkpt><trkpt lat="43.1756439" lon="11.4826041"><ele>218.20000000000002</ele><time>2026-05-03T06:42:32.161Z</time></trkpt><trkpt lat="43.1756284" lon="11.4824879"><ele>215.40000000000003</ele><time>2026-05-03T06:42:33.159Z</time></trkpt><trkpt lat="43.1756394" lon="11.4823581"><ele>212.6</ele><time>2026-05-03T06:42:34.16Z</time></trkpt><trkpt lat="43.1756572" lon="11.4822223"><ele>209.8</ele><time>2026-05-03T06:42:35.161Z</time></trkpt><trkpt lat="43.1756805" lon="11.4820923"><ele>207.0</ele><time>2026-05-03T06:42:36.161Z</time></trkpt><trkpt lat="43.1757042" lon="11.4819676"><ele>207.0</ele><time>2026-05-03T06:42:37.161Z</time></trkpt><trkpt lat="43.1757373" lon="11.481855"><ele>207.0</ele><time>2026-05-03T06:42:38.161Z</time></trkpt><trkpt lat="43.1757802" lon="11.4817556"><ele>207.0</ele><time>2026-05-03T06:42:39.161Z</time></trkpt><trkpt lat="43.1758458" lon="11.4816674"><ele>207.0</ele><time>2026-05-03T06:42:40.161Z</time></trkpt><trkpt lat="43.1759204" lon="11.4815762"><ele>207.0</ele><time>2026-05-03T06:42:41.159Z</time></trkpt><trkpt lat="43.175991" lon="11.4814653"><ele>207.0</ele><time>2026-05-03T06:42:42.16Z</time></trkpt><trkpt lat="43.1760484" lon="11.4813455"><ele>207.0</ele><time>2026-05-03T06:42:43.161Z</time></trkpt><trkpt lat="43.1760839" lon="11.4811849"><ele>207.0</ele><time>2026-05-03T06:42:44.161Z</time></trkpt><trkpt lat="43.1761132" lon="11.4810292"><ele>207.0</ele><time>2026-05-03T06:42:45.161Z</time></trkpt><trkpt lat="43.1761366" lon="11.4808776"><ele>205.2</ele><time>2026-05-03T06:42:46.161Z</time></trkpt><trkpt lat="43.1761564" lon="11.4807256"><ele>203.39999999999998</ele><time>2026-05-03T06:42:47.161Z</time></trkpt><trkpt lat="43.1761759" lon="11.480579"><ele>201.60000000000002</ele><time>2026-05-03T06:42:48.161Z</time></trkpt><trkpt lat="43.1761934" lon="11.4804379"><ele>199.8</ele><time>2026-05-03T06:42:49.161Z</time></trkpt><trkpt lat="43.1762219" lon="11.4803131"><ele>198.0</ele><time>2026-05-03T06:42:50.16Z</time></trkpt><trkpt lat="43.1762662" lon="11.4801947"><ele>197.4</ele><time>2026-05-03T06:42:51.161Z</time></trkpt><trkpt lat="43.1763269" lon="11.4800918"><ele>196.8</ele><time>2026-05-03T06:42:52.161Z</time></trkpt><trkpt lat="43.1763993" lon="11.4799949"><ele>196.2</ele><time>2026-05-03T06:42:53.16Z</time></trkpt><trkpt lat="43.176472" lon="11.479898"><ele>195.6</ele><time>2026-05-03T06:42:54.16Z</time></trkpt><trkpt lat="43.1765377" lon="11.4797947"><ele>195.0</ele><time>2026-05-03T06:42:55.16Z</time></trkpt><trkpt lat="43.1765993" lon="11.4796868"><ele>193.4</ele><time>2026-05-03T06:42:56.161Z</time></trkpt><trkpt lat="43.1766506" lon="11.4795721"><ele>191.8</ele><time>2026-05-03T06:42:57.16Z</time></trkpt><trkpt lat="43.1766866" lon="11.4794457"><ele>190.2</ele><time>2026-05-03T06:42:58.16Z</time></trkpt><trkpt lat="43.1767044" lon="11.479308"><ele>188.6</ele><time>2026-05-03T06:42:59.161Z</time></trkpt><trkpt lat="43.1767052" lon="11.4791596"><ele>187.0</ele><time>2026-05-03T06:43:00.161Z</time></trkpt><trkpt lat="43.1766972" lon="11.479004"><ele>187.0</ele><time>2026-05-03T06:43:01.16Z</time></trkpt><trkpt lat="43.1766845" lon="11.4788488"><ele>187.0</ele><time>2026-05-03T06:43:02.16Z</time></trkpt><trkpt lat="43.1766737" lon="11.4786961"><ele>187.0</ele><time>2026-05-03T06:43:03.161Z</time></trkpt><trkpt lat="43.1766684" lon="11.4785405"><ele>187.0</ele><time>2026-05-03T06:43:04.16Z</time></trkpt><trkpt lat="43.1766744" lon="11.4783864"><ele>185.39999999999998</ele><time>2026-05-03T06:43:05.161Z</time></trkpt><trkpt lat="43.1766891" lon="11.4782343"><ele>183.79999999999998</ele><time>2026-05-03T06:43:06.16Z</time></trkpt><trkpt lat="43.1767064" lon="11.4780896"><ele>182.2</ele><time>2026-05-03T06:43:07.16Z</time></trkpt><trkpt lat="43.1767275" lon="11.4779546"><ele>180.6</ele><time>2026-05-03T06:43:08.161Z</time></trkpt><trkpt lat="43.1767537" lon="11.4778331"><ele>179.0</ele><time>2026-05-03T06:43:09.161Z</time></trkpt><trkpt lat="43.1767902" lon="11.4777289"><ele>177.0</ele><time>2026-05-03T06:43:10.161Z</time></trkpt><trkpt lat="43.1768491" lon="11.4776463"><ele>175.0</ele><time>2026-05-03T06:43:11.16Z</time></trkpt><trkpt lat="43.1769179" lon="11.4775815"><ele>173.0</ele><time>2026-05-03T06:43:12.159Z</time></trkpt><trkpt lat="43.1770022" lon="11.477533"><ele>171.0</ele><time>2026-05-03T06:43:13.161Z</time></trkpt><trkpt lat="43.1771052" lon="11.4774967"><ele>169.0</ele><time>2026-05-03T06:43:14.161Z</time></trkpt><trkpt lat="43.1772182" lon="11.4774716"><ele>169.0</ele><time>2026-05-03T06:43:15.161Z</time></trkpt><trkpt lat="43.177343" lon="11.477454"><ele>169.0</ele><time>2026-05-03T06:43:16.161Z</time></trkpt><trkpt lat="43.1774767" lon="11.4774334"><ele>169.0</ele><time>2026-05-03T06:43:17.16Z</time></trkpt><trkpt lat="43.1776153" lon="11.4774142"><ele>169.0</ele><time>2026-05-03T06:43:18.16Z</time></trkpt><trkpt lat="43.1777587" lon="11.4773991"><ele>166.33333333333334</ele><time>2026-05-03T06:43:19.161Z</time></trkpt><trkpt lat="43.1779108" lon="11.4773828"><ele>163.66666666666666</ele><time>2026-05-03T06:43:20.16Z</time></trkpt><trkpt lat="43.1780659" lon="11.4773638"><ele>161.0</ele><time>2026-05-03T06:43:21.161Z</time></trkpt><trkpt lat="43.1782232" lon="11.4773383"><ele>159.66666666666666</ele><time>2026-05-03T06:43:22.161Z</time></trkpt><trkpt lat="43.1783822" lon="11.4773065"><ele>158.33333333333334</ele><time>2026-05-03T06:43:23.16Z</time></trkpt><trkpt lat="43.1785413" lon="11.4772681"><ele>157.0</ele><time>2026-05-03T06:43:24.161Z</time></trkpt><trkpt lat="43.178702" lon="11.4772236"><ele>157.0</ele><time>2026-05-03T06:43:25.161Z</time></trkpt><trkpt lat="43.1788611" lon="11.4771747"><ele>157.0</ele><time>2026-05-03T06:43:26.161Z</time></trkpt><trkpt lat="43.179019" lon="11.4771277"><ele>157.0</ele><time>2026-05-03T06:43:27.16Z</time></trkpt><trkpt lat="43.1791756" lon="11.4770941"><ele>156.33333333333334</ele><time>2026-05-03T06:43:28.16Z</time></trkpt><trkpt lat="43.1793332" lon="11.4770843"><ele>155.66666666666666</ele><time>2026-05-03T06:43:29.161Z</time></trkpt><trkpt lat="43.1794898" lon="11.4771"><ele>155.0</ele><time>2026-05-03T06:43:30.161Z</time></trkpt><trkpt lat="43.1796442" lon="11.4771355"><ele>155.0</ele><time>2026-05-03T06:43:31.161Z</time></trkpt><trkpt lat="43.1797968" lon="11.4771797"><ele>155.0</ele><time>2026-05-03T06:43:32.16Z</time></trkpt><trkpt lat="43.1799508" lon="11.4772195"><ele>155.0</ele><time>2026-05-03T06:43:33.161Z</time></trkpt><trkpt lat="43.1801036" lon="11.4772573"><ele>155.0</ele><time>2026-05-03T06:43:34.16Z</time></trkpt><trkpt lat="43.1802545" lon="11.4772982"><ele>155.0</ele><time>2026-05-03T06:43:35.161Z</time></trkpt><trkpt lat="43.1804081" lon="11.4773367"><ele>155.0</ele><time>2026-05-03T06:43:36.16Z</time></trkpt><trkpt lat="43.1805591" lon="11.477371"><ele>155.33333333333331</ele><time>2026-05-03T06:43:37.161Z</time></trkpt><trkpt lat="43.1807104" lon="11.4774019"><ele>155.66666666666666</ele><time>2026-05-03T06:43:38.16Z</time></trkpt><trkpt lat="43.18086" lon="11.4774334"><ele>156.0</ele><time>2026-05-03T06:43:39.159Z</time></trkpt><trkpt lat="43.1810108" lon="11.4774677"><ele>156.0</ele><time>2026-05-03T06:43:40.161Z</time></trkpt><trkpt lat="43.181163" lon="11.4775055"><ele>156.0</ele><time>2026-05-03T06:43:41.159Z</time></trkpt><trkpt lat="43.1813058" lon="11.4775404"><ele>156.0</ele><time>2026-05-03T06:43:42.16Z</time></trkpt><trkpt lat="43.181454" lon="11.4775768"><ele>156.0</ele><time>2026-05-03T06:43:43.161Z</time></trkpt><trkpt lat="43.1815991" lon="11.47762"><ele>156.0</ele><time>2026-05-03T06:43:44.16Z</time></trkpt><trkpt lat="43.1817453" lon="11.4776632"><ele>156.0</ele><time>2026-05-03T06:43:45.16Z</time></trkpt><trkpt lat="43.1818849" lon="11.4777048"><ele>156.0</ele><time>2026-05-03T06:43:46.161Z</time></trkpt><trkpt lat="43.1820159" lon="11.4777448"><ele>156.0</ele><time>2026-05-03T06:43:47.161Z</time></trkpt><trkpt lat="43.1821381" lon="11.4777809"><ele>156.0</ele><time>2026-05-03T06:43:48.16Z</time></trkpt><trkpt lat="43.1822473" lon="11.477802"><ele>156.0</ele><time>2026-05-03T06:43:49.161Z</time></trkpt><trkpt lat="43.1823486" lon="11.4778029"><ele>156.0</ele><time>2026-05-03T06:43:50.16Z</time></trkpt><trkpt lat="43.1824417" lon="11.4777781"><ele>156.0</ele><time>2026-05-03T06:43:51.161Z</time></trkpt><trkpt lat="43.1825282" lon="11.4777295"><ele>155.83333333333334</ele><time>2026-05-03T06:43:52.16Z</time></trkpt><trkpt lat="43.1826117" lon="11.4776628"><ele>155.66666666666666</ele><time>2026-05-03T06:43:53.16Z</time></trkpt><trkpt lat="43.1826891" lon="11.4775956"><ele>155.5</ele><time>2026-05-03T06:43:54.16Z</time></trkpt><trkpt lat="43.182758" lon="11.4775276"><ele>155.33333333333331</ele><time>2026-05-03T06:43:55.161Z</time></trkpt><trkpt lat="43.1828197" lon="11.4774664"><ele>155.16666666666666</ele><time>2026-05-03T06:43:56.161Z</time></trkpt><trkpt lat="43.1828764" lon="11.4774201"><ele>155.0</ele><time>2026-05-03T06:43:57.16Z</time></trkpt><trkpt lat="43.182944" lon="11.4773489"><ele>155.0</ele><time>2026-05-03T06:43:59.161Z</time></trkpt><trkpt lat="43.1830054" lon="11.4773077"><ele>155.0</ele><time>2026-05-03T06:44:01.161Z</time></trkpt><trkpt lat="43.1830686" lon="11.4772527"><ele>155.0</ele><time>2026-05-03T06:44:04.161Z</time></trkpt><trkpt lat="43.1831227" lon="11.477195"><ele>155.0</ele><time>2026-05-03T06:44:48.161Z</time></trkpt><trkpt lat="43.183186" lon="11.4771372"><ele>155.0</ele><time>2026-05-03T06:44:50.159Z</time></trkpt><trkpt lat="43.1832978" lon="11.4770424"><ele>155.0</ele><time>2026-05-03T06:44:52.729Z</time></trkpt><trkpt lat="43.1834227" lon="11.4769431"><ele>154.6</ele><time>2026-05-03T06:44:54.16Z</time></trkpt><trkpt lat="43.1834986" lon="11.4768808"><ele>154.2</ele><time>2026-05-03T06:44:55.16Z</time></trkpt><trkpt lat="43.1835753" lon="11.476817"><ele>153.8</ele><time>2026-05-03T06:44:56.161Z</time></trkpt><trkpt lat="43.1836604" lon="11.4767514"><ele>153.4</ele><time>2026-05-03T06:44:57.161Z</time></trkpt><trkpt lat="43.1837465" lon="11.4766817"><ele>153.0</ele><time>2026-05-03T06:44:58.161Z</time></trkpt><trkpt lat="43.1838392" lon="11.4766085"><ele>153.0</ele><time>2026-05-03T06:44:59.161Z</time></trkpt><trkpt lat="43.1839339" lon="11.476533"><ele>153.0</ele><time>2026-05-03T06:45:00.16Z</time></trkpt><trkpt lat="43.1840289" lon="11.4764558"><ele>153.0</ele><time>2026-05-03T06:45:01.161Z</time></trkpt><trkpt lat="43.184131" lon="11.4763766"><ele>153.0</ele><time>2026-05-03T06:45:02.16Z</time></trkpt><trkpt lat="43.1842346" lon="11.4762947"><ele>153.25</ele><time>2026-05-03T06:45:03.16Z</time></trkpt><trkpt lat="43.1843395" lon="11.4762103"><ele>153.5</ele><time>2026-05-03T06:45:04.16Z</time></trkpt><trkpt lat="43.1844493" lon="11.4761258"><ele>153.75</ele><time>2026-05-03T06:45:05.159Z</time></trkpt><trkpt lat="43.1845594" lon="11.476041"><ele>154.0</ele><time>2026-05-03T06:45:06.16Z</time></trkpt><trkpt lat="43.1846706" lon="11.4759481"><ele>154.0</ele><time>2026-05-03T06:45:07.161Z</time></trkpt><trkpt lat="43.1847816" lon="11.475853"><ele>154.0</ele><time>2026-05-03T06:45:08.161Z</time></trkpt><trkpt lat="43.1848958" lon="11.4757584"><ele>154.0</ele><time>2026-05-03T06:45:09.16Z</time></trkpt><trkpt lat="43.1850092" lon="11.475661"><ele>154.0</ele><time>2026-05-03T06:45:10.161Z</time></trkpt><trkpt lat="43.1851241" lon="11.4755657"><ele>154.0</ele><time>2026-05-03T06:45:11.16Z</time></trkpt><trkpt lat="43.1852395" lon="11.4754693"><ele>154.0</ele><time>2026-05-03T06:45:12.161Z</time></trkpt><trkpt lat="43.1853546" lon="11.4753734"><ele>154.0</ele><time>2026-05-03T06:45:13.161Z</time></trkpt><trkpt lat="43.1854715" lon="11.4752769"><ele>154.0</ele><time>2026-05-03T06:45:14.161Z</time></trkpt><trkpt lat="43.1855808" lon="11.4751831"><ele>154.0</ele><time>2026-05-03T06:45:15.161Z</time></trkpt><trkpt lat="43.1856856" lon="11.4750942"><ele>154.0</ele><time>2026-05-03T06:45:16.16Z</time></trkpt><trkpt lat="43.1857934" lon="11.475011"><ele>154.0</ele><time>2026-05-03T06:45:17.161Z</time></trkpt><trkpt lat="43.1859033" lon="11.4749358"><ele>154.0</ele><time>2026-05-03T06:45:18.16Z</time></trkpt><trkpt lat="43.1860176" lon="11.4748725"><ele>154.0</ele><time>2026-05-03T06:45:19.16Z</time></trkpt><trkpt lat="43.186134" lon="11.4748292"><ele>154.0</ele><time>2026-05-03T06:45:20.16Z</time></trkpt><trkpt lat="43.1862547" lon="11.4748056"><ele>154.0</ele><time>2026-05-03T06:45:21.161Z</time></trkpt><trkpt lat="43.1863766" lon="11.4747989"><ele>154.0</ele><time>2026-05-03T06:45:22.161Z</time></trkpt><trkpt lat="43.186501" lon="11.4748033"><ele>154.2</ele><time>2026-05-03T06:45:23.161Z</time></trkpt><trkpt lat="43.1866237" lon="11.4748035"><ele>154.4</ele><time>2026-05-03T06:45:24.16Z</time></trkpt><trkpt lat="43.186732" lon="11.4747895"><ele>154.6</ele><time>2026-05-03T06:45:25.161Z</time></trkpt><trkpt lat="43.1868405" lon="11.4747718"><ele>154.8</ele><time>2026-05-03T06:45:26.16Z</time></trkpt><trkpt lat="43.1869483" lon="11.4747591"><ele>155.0</ele><time>2026-05-03T06:45:27.161Z</time></trkpt><trkpt lat="43.1870538" lon="11.4747501"><ele>155.0</ele><time>2026-05-03T06:45:28.16Z</time></trkpt><trkpt lat="43.1871441" lon="11.4747499"><ele>155.0</ele><time>2026-05-03T06:45:29.161Z</time></trkpt><trkpt lat="43.1872267" lon="11.4747575"><ele>155.0</ele><time>2026-05-03T06:45:30.159Z</time></trkpt><trkpt lat="43.1873055" lon="11.4747746"><ele>155.0</ele><time>2026-05-03T06:45:31.16Z</time></trkpt><trkpt lat="43.1873838" lon="11.4748109"><ele>155.0</ele><time>2026-05-03T06:45:32.159Z</time></trkpt><trkpt lat="43.1874552" lon="11.474863"><ele>155.0</ele><time>2026-05-03T06:45:33.161Z</time></trkpt><trkpt lat="43.187527" lon="11.474919"><ele>155.66666666666666</ele><time>2026-05-03T06:45:34.16Z</time></trkpt><trkpt lat="43.1876059" lon="11.474961"><ele>156.33333333333331</ele><time>2026-05-03T06:45:35.16Z</time></trkpt><trkpt lat="43.1876848" lon="11.474977"><ele>157.0</ele><time>2026-05-03T06:45:36.16Z</time></trkpt><trkpt lat="43.1877589" lon="11.4749672"><ele>157.66666666666666</ele><time>2026-05-03T06:45:37.161Z</time></trkpt><trkpt lat="43.1878208" lon="11.4749334"><ele>158.33333333333334</ele><time>2026-05-03T06:45:38.16Z</time></trkpt><trkpt lat="43.1878726" lon="11.4748638"><ele>159.0</ele><time>2026-05-03T06:45:39.161Z</time></trkpt><trkpt lat="43.1879138" lon="11.4747793"><ele>159.0</ele><time>2026-05-03T06:45:40.161Z</time></trkpt><trkpt lat="43.1879423" lon="11.4746704"><ele>159.0</ele><time>2026-05-03T06:45:41.161Z</time></trkpt><trkpt lat="43.187973" lon="11.474559"><ele>159.0</ele><time>2026-05-03T06:45:42.161Z</time></trkpt><trkpt lat="43.1880191" lon="11.4744499"><ele>159.0</ele><time>2026-05-03T06:45:43.159Z</time></trkpt><trkpt lat="43.1880783" lon="11.4743578"><ele>159.0</ele><time>2026-05-03T06:45:44.159Z</time></trkpt><trkpt lat="43.1881524" lon="11.47429"><ele>159.0</ele><time>2026-05-03T06:45:45.16Z</time></trkpt><trkpt lat="43.1882358" lon="11.474226"><ele>160.2</ele><time>2026-05-03T06:45:46.16Z</time></trkpt><trkpt lat="43.1883223" lon="11.4741474"><ele>161.4</ele><time>2026-05-03T06:45:47.161Z</time></trkpt><trkpt lat="43.1883967" lon="11.4740542"><ele>162.6</ele><time>2026-05-03T06:45:48.161Z</time></trkpt><trkpt lat="43.1884635" lon="11.4739488"><ele>163.8</ele><time>2026-05-03T06:45:49.16Z</time></trkpt><trkpt lat="43.1885213" lon="11.4738263"><ele>165.0</ele><time>2026-05-03T06:45:50.161Z</time></trkpt><trkpt lat="43.1885713" lon="11.4736918"><ele>165.0</ele><time>2026-05-03T06:45:51.161Z</time></trkpt><trkpt lat="43.1886191" lon="11.4735488"><ele>165.0</ele><time>2026-05-03T06:45:52.16Z</time></trkpt><trkpt lat="43.1886683" lon="11.4734029"><ele>165.0</ele><time>2026-05-03T06:45:53.161Z</time></trkpt><trkpt lat="43.1887242" lon="11.4732563"><ele>165.0</ele><time>2026-05-03T06:45:54.161Z</time></trkpt><trkpt lat="43.1887841" lon="11.4731075"><ele>165.0</ele><time>2026-05-03T06:45:55.16Z</time></trkpt><trkpt lat="43.1888497" lon="11.4729568"><ele>165.0</ele><time>2026-05-03T06:45:56.161Z</time></trkpt><trkpt lat="43.1889125" lon="11.4728021"><ele>165.0</ele><time>2026-05-03T06:45:57.161Z</time></trkpt><trkpt lat="43.1889699" lon="11.4726421"><ele>165.0</ele><time>2026-05-03T06:45:58.16Z</time></trkpt><trkpt lat="43.1890144" lon="11.4724717"><ele>165.5</ele><time>2026-05-03T06:45:59.16Z</time></trkpt><trkpt lat="43.189057" lon="11.4722995"><ele>166.0</ele><time>2026-05-03T06:46:00.16Z</time></trkpt><trkpt lat="43.1891045" lon="11.4721288"><ele>166.5</ele><time>2026-05-03T06:46:01.161Z</time></trkpt><trkpt lat="43.1891526" lon="11.4719772"><ele>167.0</ele><time>2026-05-03T06:46:02.16Z</time></trkpt><trkpt lat="43.1892049" lon="11.4718352"><ele>167.0</ele><time>2026-05-03T06:46:03.16Z</time></trkpt><trkpt lat="43.1892722" lon="11.4716953"><ele>167.0</ele><time>2026-05-03T06:46:04.161Z</time></trkpt><trkpt lat="43.1893546" lon="11.4715638"><ele>167.0</ele><time>2026-05-03T06:46:05.161Z</time></trkpt><trkpt lat="43.1894488" lon="11.4714505"><ele>167.0</ele><time>2026-05-03T06:46:06.161Z</time></trkpt><trkpt lat="43.189553" lon="11.471352"><ele>166.5</ele><time>2026-05-03T06:46:07.161Z</time></trkpt><trkpt lat="43.1896665" lon="11.4712676"><ele>166.0</ele><time>2026-05-03T06:46:08.161Z</time></trkpt><trkpt lat="43.1897875" lon="11.4711962"><ele>165.5</ele><time>2026-05-03T06:46:09.16Z</time></trkpt><trkpt lat="43.1899085" lon="11.4711269"><ele>165.0</ele><time>2026-05-03T06:46:10.161Z</time></trkpt><trkpt lat="43.1900331" lon="11.4710565"><ele>165.0</ele><time>2026-05-03T06:46:11.161Z</time></trkpt><trkpt lat="43.1901488" lon="11.4709687"><ele>165.0</ele><time>2026-05-03T06:46:12.16Z</time></trkpt><trkpt lat="43.1902521" lon="11.4708537"><ele>165.0</ele><time>2026-05-03T06:46:13.16Z</time></trkpt><trkpt lat="43.1903572" lon="11.4707386"><ele>165.0</ele><time>2026-05-03T06:46:14.16Z</time></trkpt><trkpt lat="43.1904612" lon="11.4706204"><ele>165.0</ele><time>2026-05-03T06:46:15.161Z</time></trkpt><trkpt lat="43.1905586" lon="11.4705102"><ele>165.0</ele><time>2026-05-03T06:46:16.161Z</time></trkpt><trkpt lat="43.1906501" lon="11.4703981"><ele>165.0</ele><time>2026-05-03T06:46:17.161Z</time></trkpt><trkpt lat="43.1907346" lon="11.4702764"><ele>165.0</ele><time>2026-05-03T06:46:18.161Z</time></trkpt><trkpt lat="43.1908166" lon="11.4701362"><ele>164.25</ele><time>2026-05-03T06:46:19.161Z</time></trkpt><trkpt lat="43.1908937" lon="11.4699903"><ele>163.5</ele><time>2026-05-03T06:46:20.161Z</time></trkpt><trkpt lat="43.1909593" lon="11.4698329"><ele>162.75</ele><time>2026-05-03T06:46:21.161Z</time></trkpt><trkpt lat="43.1910209" lon="11.4696752"><ele>162.0</ele><time>2026-05-03T06:46:22.16Z</time></trkpt><trkpt lat="43.1910827" lon="11.469519"><ele>160.75</ele><time>2026-05-03T06:46:23.161Z</time></trkpt><trkpt lat="43.1911399" lon="11.4693606"><ele>159.5</ele><time>2026-05-03T06:46:24.16Z</time></trkpt><trkpt lat="43.1912101" lon="11.4692176"><ele>158.25</ele><time>2026-05-03T06:46:25.16Z</time></trkpt><trkpt lat="43.191298" lon="11.4690819"><ele>157.0</ele><time>2026-05-03T06:46:26.161Z</time></trkpt><trkpt lat="43.1913969" lon="11.4689662"><ele>157.0</ele><time>2026-05-03T06:46:27.161Z</time></trkpt><trkpt lat="43.1915041" lon="11.4688621"><ele>157.0</ele><time>2026-05-03T06:46:28.161Z</time></trkpt><trkpt lat="43.191613" lon="11.4687586"><ele>157.0</ele><time>2026-05-03T06:46:29.159Z</time></trkpt><trkpt lat="43.1917208" lon="11.4686593"><ele>157.0</ele><time>2026-05-03T06:46:30.161Z</time></trkpt><trkpt lat="43.1918301" lon="11.468559"><ele>157.5</ele><time>2026-05-03T06:46:31.161Z</time></trkpt><trkpt lat="43.1919398" lon="11.4684556"><ele>158.0</ele><time>2026-05-03T06:46:32.159Z</time></trkpt><trkpt lat="43.1920507" lon="11.4683449"><ele>158.5</ele><time>2026-05-03T06:46:33.16Z</time></trkpt><trkpt lat="43.1921644" lon="11.4682307"><ele>159.0</ele><time>2026-05-03T06:46:34.16Z</time></trkpt><trkpt lat="43.1922768" lon="11.4681202"><ele>159.25</ele><time>2026-05-03T06:46:35.161Z</time></trkpt><trkpt lat="43.1923898" lon="11.4680073"><ele>159.5</ele><time>2026-05-03T06:46:36.161Z</time></trkpt><trkpt lat="43.1925019" lon="11.4678936"><ele>159.75</ele><time>2026-05-03T06:46:37.161Z</time></trkpt><trkpt lat="43.1926152" lon="11.4677793"><ele>160.0</ele><time>2026-05-03T06:46:38.161Z</time></trkpt><trkpt lat="43.1927293" lon="11.4676626"><ele>159.25</ele><time>2026-05-03T06:46:39.161Z</time></trkpt><trkpt lat="43.1928476" lon="11.4675495"><ele>158.5</ele><time>2026-05-03T06:46:40.16Z</time></trkpt><trkpt lat="43.1929701" lon="11.467437"><ele>157.75</ele><time>2026-05-03T06:46:41.161Z</time></trkpt><trkpt lat="43.1930873" lon="11.4673211"><ele>157.0</ele><time>2026-05-03T06:46:42.161Z</time></trkpt><trkpt lat="43.193206" lon="11.4672055"><ele>156.75</ele><time>2026-05-03T06:46:43.16Z</time></trkpt><trkpt lat="43.1933263" lon="11.4670922"><ele>156.5</ele><time>2026-05-03T06:46:44.16Z</time></trkpt><trkpt lat="43.1934486" lon="11.4669814"><ele>156.25</ele><time>2026-05-03T06:46:45.161Z</time></trkpt><trkpt lat="43.1935724" lon="11.4668697"><ele>156.0</ele><time>2026-05-03T06:46:46.16Z</time></trkpt><trkpt lat="43.1936956" lon="11.4667559"><ele>156.0</ele><time>2026-05-03T06:46:47.16Z</time></trkpt><trkpt lat="43.1938204" lon="11.4666429"><ele>156.0</ele><time>2026-05-03T06:46:48.161Z</time></trkpt><trkpt lat="43.193943" lon="11.4665311"><ele>156.0</ele><time>2026-05-03T06:46:49.161Z</time></trkpt><trkpt lat="43.1940627" lon="11.4664192"><ele>156.0</ele><time>2026-05-03T06:46:50.16Z</time></trkpt><trkpt lat="43.1941826" lon="11.466308"><ele>155.75</ele><time>2026-05-03T06:46:51.159Z</time></trkpt><trkpt lat="43.1942978" lon="11.4661981"><ele>155.5</ele><time>2026-05-03T06:46:52.161Z</time></trkpt><trkpt lat="43.1943995" lon="11.4660928"><ele>155.25</ele><time>2026-05-03T06:46:53.16Z</time></trkpt><trkpt lat="43.194492" lon="11.4660042"><ele>155.0</ele><time>2026-05-03T06:46:54.16Z</time></trkpt><trkpt lat="43.1945782" lon="11.4659279"><ele>155.0</ele><time>2026-05-03T06:46:55.161Z</time></trkpt><trkpt lat="43.1946555" lon="11.4658514"><ele>155.0</ele><time>2026-05-03T06:46:56.161Z</time></trkpt><trkpt lat="43.194724" lon="11.4657886"><ele>155.0</ele><time>2026-05-03T06:46:57.161Z</time></trkpt><trkpt lat="43.1947844" lon="11.4657433"><ele>155.0</ele><time>2026-05-03T06:46:58.161Z</time></trkpt><trkpt lat="43.194896" lon="11.4657464"><ele>155.0</ele><time>2026-05-03T06:47:00.161Z</time></trkpt><trkpt lat="43.194956" lon="11.4658018"><ele>155.0</ele><time>2026-05-03T06:47:01.161Z</time></trkpt><trkpt lat="43.195005" lon="11.4658851"><ele>155.0</ele><time>2026-05-03T06:47:02.161Z</time></trkpt><trkpt lat="43.195064" lon="11.4659837"><ele>155.0</ele><time>2026-05-03T06:47:03.161Z</time></trkpt><trkpt lat="43.1951309" lon="11.4660838"><ele>155.0</ele><time>2026-05-03T06:47:04.161Z</time></trkpt><trkpt lat="43.1952065" lon="11.4661899"><ele>155.0</ele><time>2026-05-03T06:47:05.161Z</time></trkpt><trkpt lat="43.1952819" lon="11.4662902"><ele>155.0</ele><time>2026-05-03T06:47:06.16Z</time></trkpt><trkpt lat="43.1953404" lon="11.4663956"><ele>155.6</ele><time>2026-05-03T06:47:07.161Z</time></trkpt><trkpt lat="43.1953805" lon="11.4665159"><ele>156.2</ele><time>2026-05-03T06:47:08.161Z</time></trkpt><trkpt lat="43.1954053" lon="11.4666469"><ele>156.8</ele><time>2026-05-03T06:47:09.161Z</time></trkpt><trkpt lat="43.1954266" lon="11.4667795"><ele>157.4</ele><time>2026-05-03T06:47:10.161Z</time></trkpt><trkpt lat="43.1954432" lon="11.4669182"><ele>158.0</ele><time>2026-05-03T06:47:11.16Z</time></trkpt><trkpt lat="43.1954597" lon="11.4670598"><ele>158.4</ele><time>2026-05-03T06:47:12.16Z</time></trkpt><trkpt lat="43.195482" lon="11.4672033"><ele>158.8</ele><time>2026-05-03T06:47:13.161Z</time></trkpt><trkpt lat="43.1955121" lon="11.467341"><ele>159.2</ele><time>2026-05-03T06:47:14.16Z</time></trkpt><trkpt lat="43.1955511" lon="11.4674556"><ele>159.6</ele><time>2026-05-03T06:47:15.159Z</time></trkpt><trkpt lat="43.1956106" lon="11.4675429"><ele>160.0</ele><time>2026-05-03T06:47:16.16Z</time></trkpt><trkpt lat="43.195682" lon="11.4676033"><ele>161.0</ele><time>2026-05-03T06:47:17.161Z</time></trkpt><trkpt lat="43.195766" lon="11.4676495"><ele>162.0</ele><time>2026-05-03T06:47:18.161Z</time></trkpt><trkpt lat="43.1958584" lon="11.4676833"><ele>163.0</ele><time>2026-05-03T06:47:19.161Z</time></trkpt><trkpt lat="43.1959565" lon="11.4677227"><ele>164.0</ele><time>2026-05-03T06:47:20.16Z</time></trkpt><trkpt lat="43.1960552" lon="11.467775"><ele>165.0</ele><time>2026-05-03T06:47:21.16Z</time></trkpt><trkpt lat="43.1961504" lon="11.4678496"><ele>165.0</ele><time>2026-05-03T06:47:22.161Z</time></trkpt><trkpt lat="43.1962382" lon="11.4679431"><ele>165.0</ele><time>2026-05-03T06:47:23.161Z</time></trkpt><trkpt lat="43.1963197" lon="11.4680484"><ele>165.0</ele><time>2026-05-03T06:47:24.161Z</time></trkpt><trkpt lat="43.1963902" lon="11.4681654"><ele>165.0</ele><time>2026-05-03T06:47:25.16Z</time></trkpt><trkpt lat="43.1964618" lon="11.46829"><ele>165.0</ele><time>2026-05-03T06:47:26.161Z</time></trkpt><trkpt lat="43.1965278" lon="11.4684228"><ele>167.0</ele><time>2026-05-03T06:47:27.16Z</time></trkpt><trkpt lat="43.1965749" lon="11.4685697"><ele>169.0</ele><time>2026-05-03T06:47:28.161Z</time></trkpt><trkpt lat="43.1965981" lon="11.4687183"><ele>171.0</ele><time>2026-05-03T06:47:29.161Z</time></trkpt><trkpt lat="43.1966221" lon="11.4688416"><ele>173.0</ele><time>2026-05-03T06:47:30.16Z</time></trkpt><trkpt lat="43.1966658" lon="11.4689605"><ele>175.0</ele><time>2026-05-03T06:47:31.16Z</time></trkpt><trkpt lat="43.1967225" lon="11.4690709"><ele>176.2</ele><time>2026-05-03T06:47:32.161Z</time></trkpt><trkpt lat="43.1967857" lon="11.4691773"><ele>177.4</ele><time>2026-05-03T06:47:33.161Z</time></trkpt><trkpt lat="43.19685" lon="11.4692827"><ele>178.60000000000002</ele><time>2026-05-03T06:47:34.161Z</time></trkpt><trkpt lat="43.1969156" lon="11.4693937"><ele>179.8</ele><time>2026-05-03T06:47:35.161Z</time></trkpt><trkpt lat="43.1969739" lon="11.4695112"><ele>181.0</ele><time>2026-05-03T06:47:36.16Z</time></trkpt><trkpt lat="43.1970281" lon="11.469635"><ele>181.25</ele><time>2026-05-03T06:47:37.161Z</time></trkpt><trkpt lat="43.1970843" lon="11.4697696"><ele>181.5</ele><time>2026-05-03T06:47:38.161Z</time></trkpt><trkpt lat="43.1971337" lon="11.4699041"><ele>181.75</ele><time>2026-05-03T06:47:39.16Z</time></trkpt><trkpt lat="43.1971884" lon="11.4700464"><ele>182.0</ele><time>2026-05-03T06:47:40.16Z</time></trkpt><trkpt lat="43.1972383" lon="11.4701877"><ele>182.0</ele><time>2026-05-03T06:47:41.16Z</time></trkpt><trkpt lat="43.1972889" lon="11.4703259"><ele>182.0</ele><time>2026-05-03T06:47:42.161Z</time></trkpt><trkpt lat="43.1973697" lon="11.4704275"><ele>182.0</ele><time>2026-05-03T06:47:43.161Z</time></trkpt><trkpt lat="43.1974385" lon="11.4705317"><ele>182.0</ele><time>2026-05-03T06:47:44.161Z</time></trkpt><trkpt lat="43.1975387" lon="11.4705793"><ele>182.0</ele><time>2026-05-03T06:47:45.161Z</time></trkpt><trkpt lat="43.1976442" lon="11.4705961"><ele>185.6</ele><time>2026-05-03T06:47:46.16Z</time></trkpt><trkpt lat="43.197746" lon="11.4706123"><ele>189.2</ele><time>2026-05-03T06:47:47.161Z</time></trkpt><trkpt lat="43.1978494" lon="11.4706356"><ele>192.8</ele><time>2026-05-03T06:47:48.161Z</time></trkpt><trkpt lat="43.1979512" lon="11.4706828"><ele>196.4</ele><time>2026-05-03T06:47:49.161Z</time></trkpt><trkpt lat="43.1980419" lon="11.4707507"><ele>200.0</ele><time>2026-05-03T06:47:50.16Z</time></trkpt><trkpt lat="43.198138" lon="11.4708147"><ele>200.8</ele><time>2026-05-03T06:47:51.161Z</time></trkpt><trkpt lat="43.198213" lon="11.4709223"><ele>201.6</ele><time>2026-05-03T06:47:52.161Z</time></trkpt><trkpt lat="43.1982881" lon="11.4710344"><ele>202.39999999999998</ele><time>2026-05-03T06:47:53.16Z</time></trkpt><trkpt lat="43.1983532" lon="11.4711515"><ele>203.2</ele><time>2026-05-03T06:47:54.161Z</time></trkpt><trkpt lat="43.1984013" lon="11.4712926"><ele>204.0</ele><time>2026-05-03T06:47:55.161Z</time></trkpt><trkpt lat="43.1984494" lon="11.4714319"><ele>205.5</ele><time>2026-05-03T06:47:56.16Z</time></trkpt><trkpt lat="43.1984942" lon="11.4715727"><ele>207.0</ele><time>2026-05-03T06:47:57.161Z</time></trkpt><trkpt lat="43.1985268" lon="11.4717143"><ele>208.5</ele><time>2026-05-03T06:47:58.161Z</time></trkpt><trkpt lat="43.198559" lon="11.4718624"><ele>210.0</ele><time>2026-05-03T06:47:59.161Z</time></trkpt><trkpt lat="43.1985765" lon="11.4720219"><ele>210.75</ele><time>2026-05-03T06:48:00.161Z</time></trkpt><trkpt lat="43.1985811" lon="11.4721926"><ele>211.5</ele><time>2026-05-03T06:48:01.16Z</time></trkpt><trkpt lat="43.1985217" lon="11.4723569"><ele>212.25</ele><time>2026-05-03T06:48:02.161Z</time></trkpt><trkpt lat="43.1985036" lon="11.4725004"><ele>213.0</ele><time>2026-05-03T06:48:03.16Z</time></trkpt><trkpt lat="43.1985019" lon="11.4726643"><ele>213.0</ele><time>2026-05-03T06:48:04.161Z</time></trkpt><trkpt lat="43.1985079" lon="11.4728269"><ele>213.0</ele><time>2026-05-03T06:48:05.161Z</time></trkpt><trkpt lat="43.1985379" lon="11.4729836"><ele>213.0</ele><time>2026-05-03T06:48:06.16Z</time></trkpt><trkpt lat="43.1986018" lon="11.4731096"><ele>213.0</ele><time>2026-05-03T06:48:07.161Z</time></trkpt><trkpt lat="43.1986575" lon="11.4732469"><ele>213.2</ele><time>2026-05-03T06:48:08.161Z</time></trkpt><trkpt lat="43.1987316" lon="11.4733687"><ele>213.4</ele><time>2026-05-03T06:48:09.161Z</time></trkpt><trkpt lat="43.1987861" lon="11.473495"><ele>213.59999999999997</ele><time>2026-05-03T06:48:10.16Z</time></trkpt><trkpt lat="43.198831" lon="11.4736211"><ele>213.79999999999998</ele><time>2026-05-03T06:48:11.16Z</time></trkpt><trkpt lat="43.1988468" lon="11.4737783"><ele>214.0</ele><time>2026-05-03T06:48:12.161Z</time></trkpt><trkpt lat="43.1988457" lon="11.4739305"><ele>212.2</ele><time>2026-05-03T06:48:13.16Z</time></trkpt><trkpt lat="43.1988539" lon="11.4740843"><ele>210.39999999999998</ele><time>2026-05-03T06:48:14.161Z</time></trkpt><trkpt lat="43.1988719" lon="11.4742313"><ele>208.6</ele><time>2026-05-03T06:48:15.161Z</time></trkpt><trkpt lat="43.1989077" lon="11.4743849"><ele>206.8</ele><time>2026-05-03T06:48:16.161Z</time></trkpt><trkpt lat="43.1989553" lon="11.4745176"><ele>205.0</ele><time>2026-05-03T06:48:17.16Z</time></trkpt><trkpt lat="43.1990148" lon="11.4746408"><ele>203.5</ele><time>2026-05-03T06:48:18.161Z</time></trkpt><trkpt lat="43.199086" lon="11.4747723"><ele>202.0</ele><time>2026-05-03T06:48:19.161Z</time></trkpt><trkpt lat="43.1991558" lon="11.4749086"><ele>200.5</ele><time>2026-05-03T06:48:20.161Z</time></trkpt><trkpt lat="43.1992297" lon="11.4750425"><ele>199.0</ele><time>2026-05-03T06:48:21.161Z</time></trkpt><trkpt lat="43.1992996" lon="11.4751751"><ele>199.0</ele><time>2026-05-03T06:48:22.161Z</time></trkpt><trkpt lat="43.1993756" lon="11.4753013"><ele>199.0</ele><time>2026-05-03T06:48:23.161Z</time></trkpt><trkpt lat="43.199458" lon="11.4754215"><ele>199.0</ele><time>2026-05-03T06:48:24.16Z</time></trkpt><trkpt lat="43.1995441" lon="11.4755333"><ele>199.0</ele><time>2026-05-03T06:48:25.16Z</time></trkpt><trkpt lat="43.199642" lon="11.4756259"><ele>200.75</ele><time>2026-05-03T06:48:26.161Z</time></trkpt><trkpt lat="43.1997441" lon="11.4757119"><ele>202.5</ele><time>2026-05-03T06:48:27.16Z</time></trkpt><trkpt lat="43.1998447" lon="11.475785"><ele>204.25</ele><time>2026-05-03T06:48:28.161Z</time></trkpt><trkpt lat="43.1999469" lon="11.4758649"><ele>206.0</ele><time>2026-05-03T06:48:29.16Z</time></trkpt><trkpt lat="43.2000395" lon="11.4759683"><ele>206.0</ele><time>2026-05-03T06:48:30.16Z</time></trkpt><trkpt lat="43.2001236" lon="11.4760782"><ele>206.0</ele><time>2026-05-03T06:48:31.161Z</time></trkpt><trkpt lat="43.2002155" lon="11.4761796"><ele>206.0</ele><time>2026-05-03T06:48:32.16Z</time></trkpt><trkpt lat="43.2003123" lon="11.4762757"><ele>206.0</ele><time>2026-05-03T06:48:33.16Z</time></trkpt><trkpt lat="43.2004107" lon="11.4763733"><ele>207.0</ele><time>2026-05-03T06:48:34.16Z</time></trkpt><trkpt lat="43.2005061" lon="11.4764761"><ele>208.0</ele><time>2026-05-03T06:48:35.16Z</time></trkpt><trkpt lat="43.2006048" lon="11.4765812"><ele>209.0</ele><time>2026-05-03T06:48:36.16Z</time></trkpt><trkpt lat="43.2006835" lon="11.4767195"><ele>210.0</ele><time>2026-05-03T06:48:37.161Z</time></trkpt><trkpt lat="43.2007603" lon="11.4768544"><ele>210.0</ele><time>2026-05-03T06:48:38.161Z</time></trkpt><trkpt lat="43.2008325" lon="11.4769928"><ele>210.0</ele><time>2026-05-03T06:48:39.161Z</time></trkpt><trkpt lat="43.2008996" lon="11.4771331"><ele>210.0</ele><time>2026-05-03T06:48:40.16Z</time></trkpt><trkpt lat="43.2009605" lon="11.4772822"><ele>210.0</ele><time>2026-05-03T06:48:41.16Z</time></trkpt><trkpt lat="43.2010168" lon="11.4774318"><ele>209.0</ele><time>2026-05-03T06:48:42.161Z</time></trkpt><trkpt lat="43.201075" lon="11.4775808"><ele>208.0</ele><time>2026-05-03T06:48:43.161Z</time></trkpt><trkpt lat="43.2011323" lon="11.4777304"><ele>207.0</ele><time>2026-05-03T06:48:44.16Z</time></trkpt><trkpt lat="43.2011918" lon="11.477875"><ele>206.0</ele><time>2026-05-03T06:48:45.161Z</time></trkpt><trkpt lat="43.201249" lon="11.4780246"><ele>206.75</ele><time>2026-05-03T06:48:46.159Z</time></trkpt><trkpt lat="43.2013111" lon="11.478169"><ele>207.5</ele><time>2026-05-03T06:48:47.161Z</time></trkpt><trkpt lat="43.2013754" lon="11.4783144"><ele>208.25</ele><time>2026-05-03T06:48:48.161Z</time></trkpt><trkpt lat="43.2014367" lon="11.478462"><ele>209.0</ele><time>2026-05-03T06:48:49.161Z</time></trkpt><trkpt lat="43.2014991" lon="11.4786115"><ele>209.0</ele><time>2026-05-03T06:48:50.161Z</time></trkpt><trkpt lat="43.2015614" lon="11.4787629"><ele>209.0</ele><time>2026-05-03T06:48:51.16Z</time></trkpt><trkpt lat="43.2016153" lon="11.4789181"><ele>209.0</ele><time>2026-05-03T06:48:52.161Z</time></trkpt><trkpt lat="43.2016673" lon="11.4790817"><ele>209.0</ele><time>2026-05-03T06:48:53.161Z</time></trkpt><trkpt lat="43.2017142" lon="11.4792439"><ele>209.75</ele><time>2026-05-03T06:48:54.16Z</time></trkpt><trkpt lat="43.2017616" lon="11.4794077"><ele>210.5</ele><time>2026-05-03T06:48:55.16Z</time></trkpt><trkpt lat="43.2018" lon="11.479573"><ele>211.25</ele><time>2026-05-03T06:48:56.16Z</time></trkpt><trkpt lat="43.201845" lon="11.4797338"><ele>212.0</ele><time>2026-05-03T06:48:57.161Z</time></trkpt><trkpt lat="43.2018888" lon="11.4798919"><ele>212.0</ele><time>2026-05-03T06:48:58.161Z</time></trkpt><trkpt lat="43.2019421" lon="11.4800491"><ele>212.0</ele><time>2026-05-03T06:48:59.161Z</time></trkpt><trkpt lat="43.2019985" lon="11.4801958"><ele>212.0</ele><time>2026-05-03T06:49:00.161Z</time></trkpt><trkpt lat="43.2020495" lon="11.4803453"><ele>212.0</ele><time>2026-05-03T06:49:01.161Z</time></trkpt><trkpt lat="43.2021026" lon="11.480503"><ele>211.25</ele><time>2026-05-03T06:49:02.161Z</time></trkpt><trkpt lat="43.2021508" lon="11.4806634"><ele>210.5</ele><time>2026-05-03T06:49:03.161Z</time></trkpt><trkpt lat="43.2021941" lon="11.4808301"><ele>209.75</ele><time>2026-05-03T06:49:04.161Z</time></trkpt><trkpt lat="43.2022232" lon="11.4809957"><ele>209.0</ele><time>2026-05-03T06:49:05.16Z</time></trkpt><trkpt lat="43.2022508" lon="11.4811638"><ele>210.25</ele><time>2026-05-03T06:49:06.161Z</time></trkpt><trkpt lat="43.2022731" lon="11.4813332"><ele>211.5</ele><time>2026-05-03T06:49:07.16Z</time></trkpt><trkpt lat="43.2022937" lon="11.481507"><ele>212.75</ele><time>2026-05-03T06:49:08.161Z</time></trkpt><trkpt lat="43.2023107" lon="11.481682"><ele>214.0</ele><time>2026-05-03T06:49:09.161Z</time></trkpt><trkpt lat="43.202311" lon="11.481856"><ele>214.0</ele><time>2026-05-03T06:49:10.16Z</time></trkpt><trkpt lat="43.2022962" lon="11.4820254"><ele>214.0</ele><time>2026-05-03T06:49:11.161Z</time></trkpt><trkpt lat="43.2022652" lon="11.482193"><ele>214.0</ele><time>2026-05-03T06:49:12.16Z</time></trkpt><trkpt lat="43.2022367" lon="11.4823603"><ele>214.0</ele><time>2026-05-03T06:49:13.161Z</time></trkpt><trkpt lat="43.2022177" lon="11.4825307"><ele>216.25</ele><time>2026-05-03T06:49:14.161Z</time></trkpt><trkpt lat="43.2022119" lon="11.4827001"><ele>218.5</ele><time>2026-05-03T06:49:15.16Z</time></trkpt><trkpt lat="43.2022136" lon="11.4828725"><ele>220.75</ele><time>2026-05-03T06:49:16.16Z</time></trkpt><trkpt lat="43.2022054" lon="11.4830359"><ele>223.0</ele><time>2026-05-03T06:49:17.161Z</time></trkpt><trkpt lat="43.2021819" lon="11.4831763"><ele>225.8</ele><time>2026-05-03T06:49:18.159Z</time></trkpt><trkpt lat="43.202143" lon="11.4833026"><ele>228.60000000000002</ele><time>2026-05-03T06:49:19.161Z</time></trkpt><trkpt lat="43.2020844" lon="11.4834234"><ele>231.39999999999998</ele><time>2026-05-03T06:49:20.161Z</time></trkpt><trkpt lat="43.202018" lon="11.4835363"><ele>234.2</ele><time>2026-05-03T06:49:21.159Z</time></trkpt><trkpt lat="43.2019471" lon="11.4836477"><ele>237.0</ele><time>2026-05-03T06:49:22.161Z</time></trkpt><trkpt lat="43.2018766" lon="11.4837538"><ele>239.66666666666666</ele><time>2026-05-03T06:49:23.161Z</time></trkpt><trkpt lat="43.201819" lon="11.4838678"><ele>242.33333333333331</ele><time>2026-05-03T06:49:24.16Z</time></trkpt><trkpt lat="43.2017863" lon="11.4839797"><ele>245.0</ele><time>2026-05-03T06:49:25.161Z</time></trkpt><trkpt lat="43.2017783" lon="11.4840941"><ele>247.66666666666666</ele><time>2026-05-03T06:49:26.159Z</time></trkpt><trkpt lat="43.2018" lon="11.4842071"><ele>250.33333333333331</ele><time>2026-05-03T06:49:27.161Z</time></trkpt><trkpt lat="43.2018447" lon="11.4843156"><ele>253.0</ele><time>2026-05-03T06:49:28.161Z</time></trkpt><trkpt lat="43.2018958" lon="11.4844247"><ele>253.0</ele><time>2026-05-03T06:49:29.16Z</time></trkpt><trkpt lat="43.2019468" lon="11.4845395"><ele>253.0</ele><time>2026-05-03T06:49:30.16Z</time></trkpt><trkpt lat="43.2019967" lon="11.4846551"><ele>253.0</ele><time>2026-05-03T06:49:31.161Z</time></trkpt><trkpt lat="43.2020439" lon="11.4848017"><ele>253.0</ele><time>2026-05-03T06:49:32.161Z</time></trkpt><trkpt lat="43.2020756" lon="11.4849451"><ele>253.0</ele><time>2026-05-03T06:49:33.161Z</time></trkpt><trkpt lat="43.2021089" lon="11.4850911"><ele>253.2</ele><time>2026-05-03T06:49:34.16Z</time></trkpt><trkpt lat="43.2021335" lon="11.4852413"><ele>253.4</ele><time>2026-05-03T06:49:35.16Z</time></trkpt><trkpt lat="43.2021608" lon="11.4853833"><ele>253.59999999999997</ele><time>2026-05-03T06:49:36.161Z</time></trkpt><trkpt lat="43.2021814" lon="11.4855215"><ele>253.79999999999998</ele><time>2026-05-03T06:49:37.16Z</time></trkpt><trkpt lat="43.2022212" lon="11.4856744"><ele>254.0</ele><time>2026-05-03T06:49:38.16Z</time></trkpt><trkpt lat="43.2022636" lon="11.4858183"><ele>254.0</ele><time>2026-05-03T06:49:39.161Z</time></trkpt><trkpt lat="43.202311" lon="11.4859594"><ele>254.0</ele><time>2026-05-03T06:49:40.16Z</time></trkpt><trkpt lat="43.2023737" lon="11.4860983"><ele>254.0</ele><time>2026-05-03T06:49:41.161Z</time></trkpt><trkpt lat="43.2024519" lon="11.486232"><ele>254.0</ele><time>2026-05-03T06:49:42.161Z</time></trkpt><trkpt lat="43.2025308" lon="11.4863526"><ele>252.5</ele><time>2026-05-03T06:49:43.161Z</time></trkpt><trkpt lat="43.2026191" lon="11.4864698"><ele>251.0</ele><time>2026-05-03T06:49:44.161Z</time></trkpt><trkpt lat="43.2027109" lon="11.4865858"><ele>249.5</ele><time>2026-05-03T06:49:45.16Z</time></trkpt><trkpt lat="43.2028066" lon="11.4867043"><ele>248.0</ele><time>2026-05-03T06:49:46.161Z</time></trkpt><trkpt lat="43.2028909" lon="11.4868326"><ele>248.0</ele><time>2026-05-03T06:49:47.161Z</time></trkpt><trkpt lat="43.2029818" lon="11.486944"><ele>248.0</ele><time>2026-05-03T06:49:48.16Z</time></trkpt><trkpt lat="43.2030856" lon="11.4870607"><ele>248.0</ele><time>2026-05-03T06:49:49.16Z</time></trkpt><trkpt lat="43.203182" lon="11.4871779"><ele>248.0</ele><time>2026-05-03T06:49:50.161Z</time></trkpt><trkpt lat="43.2032762" lon="11.4873009"><ele>248.25</ele><time>2026-05-03T06:49:51.161Z</time></trkpt><trkpt lat="43.2033624" lon="11.4874144"><ele>248.5</ele><time>2026-05-03T06:49:52.161Z</time></trkpt><trkpt lat="43.203453" lon="11.4875282"><ele>248.75</ele><time>2026-05-03T06:49:53.16Z</time></trkpt><trkpt lat="43.2035369" lon="11.4876537"><ele>249.0</ele><time>2026-05-03T06:49:54.161Z</time></trkpt><trkpt lat="43.2036188" lon="11.4877798"><ele>249.0</ele><time>2026-05-03T06:49:55.16Z</time></trkpt><trkpt lat="43.2036929" lon="11.487907"><ele>249.0</ele><time>2026-05-03T06:49:56.161Z</time></trkpt><trkpt lat="43.203772" lon="11.4880399"><ele>249.0</ele><time>2026-05-03T06:49:57.161Z</time></trkpt><trkpt lat="43.203854" lon="11.4881749"><ele>249.0</ele><time>2026-05-03T06:49:58.161Z</time></trkpt><trkpt lat="43.2039415" lon="11.4883094"><ele>248.75</ele><time>2026-05-03T06:49:59.161Z</time></trkpt><trkpt lat="43.2040206" lon="11.4884394"><ele>248.5</ele><time>2026-05-03T06:50:00.161Z</time></trkpt><trkpt lat="43.204108" lon="11.4885668"><ele>248.25</ele><time>2026-05-03T06:50:01.161Z</time></trkpt><trkpt lat="43.2041845" lon="11.4886928"><ele>248.0</ele><time>2026-05-03T06:50:02.161Z</time></trkpt><trkpt lat="43.204269" lon="11.4888173"><ele>248.0</ele><time>2026-05-03T06:50:03.16Z</time></trkpt><trkpt lat="43.2043511" lon="11.4889476"><ele>248.0</ele><time>2026-05-03T06:50:04.161Z</time></trkpt><trkpt lat="43.2044341" lon="11.4890845"><ele>248.0</ele><time>2026-05-03T06:50:05.16Z</time></trkpt><trkpt lat="43.2045015" lon="11.4892316"><ele>248.0</ele><time>2026-05-03T06:50:06.159Z</time></trkpt><trkpt lat="43.204561" lon="11.489386"><ele>248.0</ele><time>2026-05-03T06:50:07.159Z</time></trkpt><trkpt lat="43.2046108" lon="11.4895462"><ele>248.0</ele><time>2026-05-03T06:50:08.159Z</time></trkpt><trkpt lat="43.204661" lon="11.4897056"><ele>248.0</ele><time>2026-05-03T06:50:09.16Z</time></trkpt><trkpt lat="43.2047049" lon="11.4898586"><ele>248.0</ele><time>2026-05-03T06:50:10.16Z</time></trkpt><trkpt lat="43.2047493" lon="11.4900019"><ele>247.25</ele><time>2026-05-03T06:50:11.161Z</time></trkpt><trkpt lat="43.2048038" lon="11.4901434"><ele>246.5</ele><time>2026-05-03T06:50:12.161Z</time></trkpt><trkpt lat="43.2048707" lon="11.4902774"><ele>245.75</ele><time>2026-05-03T06:50:13.161Z</time></trkpt><trkpt lat="43.2049487" lon="11.4904067"><ele>245.0</ele><time>2026-05-03T06:50:14.161Z</time></trkpt><trkpt lat="43.2050338" lon="11.4905266"><ele>245.0</ele><time>2026-05-03T06:50:15.159Z</time></trkpt><trkpt lat="43.2051243" lon="11.4906398"><ele>245.0</ele><time>2026-05-03T06:50:16.16Z</time></trkpt><trkpt lat="43.2052191" lon="11.4907411"><ele>245.0</ele><time>2026-05-03T06:50:17.161Z</time></trkpt><trkpt lat="43.2053211" lon="11.4908106"><ele>245.0</ele><time>2026-05-03T06:50:18.161Z</time></trkpt><trkpt lat="43.205428" lon="11.4908585"><ele>245.0</ele><time>2026-05-03T06:50:19.161Z</time></trkpt><trkpt lat="43.2055471" lon="11.4908823"><ele>245.0</ele><time>2026-05-03T06:50:20.161Z</time></trkpt><trkpt lat="43.2056677" lon="11.4908929"><ele>245.0</ele><time>2026-05-03T06:50:21.161Z</time></trkpt><trkpt lat="43.2057838" lon="11.4908877"><ele>245.0</ele><time>2026-05-03T06:50:22.161Z</time></trkpt><trkpt lat="43.2059063" lon="11.4908667"><ele>248.25</ele><time>2026-05-03T06:50:23.161Z</time></trkpt><trkpt lat="43.2060264" lon="11.4908555"><ele>251.5</ele><time>2026-05-03T06:50:24.161Z</time></trkpt><trkpt lat="43.2061449" lon="11.4908697"><ele>254.75</ele><time>2026-05-03T06:50:25.16Z</time></trkpt><trkpt lat="43.2062594" lon="11.4908878"><ele>258.0</ele><time>2026-05-03T06:50:26.161Z</time></trkpt><trkpt lat="43.2063625" lon="11.4909222"><ele>258.0</ele><time>2026-05-03T06:50:27.16Z</time></trkpt><trkpt lat="43.206469" lon="11.4909754"><ele>258.0</ele><time>2026-05-03T06:50:28.16Z</time></trkpt><trkpt lat="43.2065605" lon="11.4910531"><ele>258.0</ele><time>2026-05-03T06:50:29.16Z</time></trkpt><trkpt lat="43.2066411" lon="11.4911595"><ele>258.0</ele><time>2026-05-03T06:50:30.16Z</time></trkpt><trkpt lat="43.2067095" lon="11.4912852"><ele>258.0</ele><time>2026-05-03T06:50:31.159Z</time></trkpt><trkpt lat="43.2067686" lon="11.4914258"><ele>256.75</ele><time>2026-05-03T06:50:32.161Z</time></trkpt><trkpt lat="43.2068245" lon="11.4915705"><ele>255.5</ele><time>2026-05-03T06:50:33.161Z</time></trkpt><trkpt lat="43.2068922" lon="11.4917088"><ele>254.25</ele><time>2026-05-03T06:50:34.161Z</time></trkpt><trkpt lat="43.2069644" lon="11.4918461"><ele>253.0</ele><time>2026-05-03T06:50:35.16Z</time></trkpt><trkpt lat="43.20705" lon="11.4919763"><ele>251.75</ele><time>2026-05-03T06:50:36.161Z</time></trkpt><trkpt lat="43.2071471" lon="11.4920951"><ele>250.5</ele><time>2026-05-03T06:50:37.161Z</time></trkpt><trkpt lat="43.2072548" lon="11.4922027"><ele>249.25</ele><time>2026-05-03T06:50:38.161Z</time></trkpt><trkpt lat="43.2073627" lon="11.4923114"><ele>248.0</ele><time>2026-05-03T06:50:39.161Z</time></trkpt><trkpt lat="43.2074731" lon="11.492422"><ele>248.0</ele><time>2026-05-03T06:50:40.16Z</time></trkpt><trkpt lat="43.2075791" lon="11.4925255"><ele>248.0</ele><time>2026-05-03T06:50:41.16Z</time></trkpt><trkpt lat="43.2076861" lon="11.4926392"><ele>248.0</ele><time>2026-05-03T06:50:42.16Z</time></trkpt><trkpt lat="43.2077955" lon="11.4927494"><ele>248.0</ele><time>2026-05-03T06:50:43.16Z</time></trkpt><trkpt lat="43.2079058" lon="11.4928643"><ele>248.5</ele><time>2026-05-03T06:50:44.161Z</time></trkpt><trkpt lat="43.2080135" lon="11.4929748"><ele>249.0</ele><time>2026-05-03T06:50:45.161Z</time></trkpt><trkpt lat="43.2081239" lon="11.4930909"><ele>249.5</ele><time>2026-05-03T06:50:46.16Z</time></trkpt><trkpt lat="43.2082355" lon="11.493198"><ele>250.0</ele><time>2026-05-03T06:50:47.162Z</time></trkpt><trkpt lat="43.2083506" lon="11.4933024"><ele>250.0</ele><time>2026-05-03T06:50:48.161Z</time></trkpt><trkpt lat="43.2084668" lon="11.4933966"><ele>250.0</ele><time>2026-05-03T06:50:49.161Z</time></trkpt><trkpt lat="43.2085815" lon="11.4934904"><ele>250.0</ele><time>2026-05-03T06:50:50.162Z</time></trkpt><trkpt lat="43.2086856" lon="11.4935912"><ele>250.0</ele><time>2026-05-03T06:50:51.16Z</time></trkpt><trkpt lat="43.2087789" lon="11.4937063"><ele>252.25</ele><time>2026-05-03T06:50:52.161Z</time></trkpt><trkpt lat="43.2088593" lon="11.4938364"><ele>254.5</ele><time>2026-05-03T06:50:53.162Z</time></trkpt><trkpt lat="43.2089248" lon="11.4939822"><ele>256.75</ele><time>2026-05-03T06:50:54.162Z</time></trkpt><trkpt lat="43.2089825" lon="11.4941317"><ele>259.0</ele><time>2026-05-03T06:50:55.162Z</time></trkpt><trkpt lat="43.209038" lon="11.4942822"><ele>259.0</ele><time>2026-05-03T06:50:56.161Z</time></trkpt><trkpt lat="43.2090883" lon="11.4944351"><ele>259.0</ele><time>2026-05-03T06:50:57.161Z</time></trkpt><trkpt lat="43.2091293" lon="11.494598"><ele>259.0</ele><time>2026-05-03T06:50:58.16Z</time></trkpt><trkpt lat="43.209164" lon="11.4947633"><ele>259.0</ele><time>2026-05-03T06:50:59.161Z</time></trkpt><trkpt lat="43.2091898" lon="11.4949277"><ele>259.5</ele><time>2026-05-03T06:51:00.162Z</time></trkpt><trkpt lat="43.2092088" lon="11.4950956"><ele>260.0</ele><time>2026-05-03T06:51:01.162Z</time></trkpt><trkpt lat="43.2092297" lon="11.4952617"><ele>260.5</ele><time>2026-05-03T06:51:02.162Z</time></trkpt><trkpt lat="43.2092598" lon="11.4954064"><ele>261.0</ele><time>2026-05-03T06:51:03.162Z</time></trkpt><trkpt lat="43.2093077" lon="11.4955451"><ele>261.40000000000003</ele><time>2026-05-03T06:51:04.161Z</time></trkpt><trkpt lat="43.2093553" lon="11.4956725"><ele>261.8</ele><time>2026-05-03T06:51:05.161Z</time></trkpt><trkpt lat="43.2094058" lon="11.4958097"><ele>262.20000000000005</ele><time>2026-05-03T06:51:06.161Z</time></trkpt><trkpt lat="43.2094496" lon="11.4959427"><ele>262.6</ele><time>2026-05-03T06:51:07.161Z</time></trkpt><trkpt lat="43.2094932" lon="11.4960829"><ele>263.0</ele><time>2026-05-03T06:51:08.161Z</time></trkpt><trkpt lat="43.2095495" lon="11.4962243"><ele>263.5</ele><time>2026-05-03T06:51:09.161Z</time></trkpt><trkpt lat="43.2096029" lon="11.4963554"><ele>264.0</ele><time>2026-05-03T06:51:10.162Z</time></trkpt><trkpt lat="43.2096934" lon="11.4964907"><ele>264.5</ele><time>2026-05-03T06:51:11.161Z</time></trkpt><trkpt lat="43.2097708" lon="11.4966097"><ele>265.0</ele><time>2026-05-03T06:51:12.162Z</time></trkpt><trkpt lat="43.209855" lon="11.4967067"><ele>265.0</ele><time>2026-05-03T06:51:13.162Z</time></trkpt><trkpt lat="43.2099416" lon="11.4967877"><ele>265.0</ele><time>2026-05-03T06:51:14.162Z</time></trkpt><trkpt lat="43.2100353" lon="11.4968589"><ele>265.0</ele><time>2026-05-03T06:51:15.161Z</time></trkpt><trkpt lat="43.2101286" lon="11.4969348"><ele>265.0</ele><time>2026-05-03T06:51:16.162Z</time></trkpt><trkpt lat="43.2102193" lon="11.4970066"><ele>265.0</ele><time>2026-05-03T06:51:17.162Z</time></trkpt><trkpt lat="43.2103083" lon="11.4970767"><ele>264.8</ele><time>2026-05-03T06:51:18.162Z</time></trkpt><trkpt lat="43.2103968" lon="11.4971462"><ele>264.6</ele><time>2026-05-03T06:51:19.161Z</time></trkpt><trkpt lat="43.210483" lon="11.4972174"><ele>264.4</ele><time>2026-05-03T06:51:20.162Z</time></trkpt><trkpt lat="43.2105711" lon="11.4972863"><ele>264.2</ele><time>2026-05-03T06:51:21.162Z</time></trkpt><trkpt lat="43.2106592" lon="11.4973611"><ele>264.0</ele><time>2026-05-03T06:51:22.162Z</time></trkpt><trkpt lat="43.2107354" lon="11.497454"><ele>264.0</ele><time>2026-05-03T06:51:23.162Z</time></trkpt><trkpt lat="43.2107935" lon="11.4975614"><ele>264.0</ele><time>2026-05-03T06:51:24.162Z</time></trkpt><trkpt lat="43.2108342" lon="11.4976798"><ele>264.0</ele><time>2026-05-03T06:51:25.161Z</time></trkpt><trkpt lat="43.210866" lon="11.4978025"><ele>264.0</ele><time>2026-05-03T06:51:26.161Z</time></trkpt><trkpt lat="43.2108919" lon="11.4979364"><ele>264.0</ele><time>2026-05-03T06:51:27.162Z</time></trkpt><trkpt lat="43.2109112" lon="11.4980675"><ele>263.1666666666667</ele><time>2026-05-03T06:51:28.162Z</time></trkpt><trkpt lat="43.2109337" lon="11.4981948"><ele>262.3333333333333</ele><time>2026-05-03T06:51:29.161Z</time></trkpt><trkpt lat="43.2109632" lon="11.4983095"><ele>261.5</ele><time>2026-05-03T06:51:30.162Z</time></trkpt><trkpt lat="43.2110053" lon="11.498414"><ele>260.66666666666663</ele><time>2026-05-03T06:51:31.162Z</time></trkpt><trkpt lat="43.2110622" lon="11.4985048"><ele>259.8333333333333</ele><time>2026-05-03T06:51:32.161Z</time></trkpt><trkpt lat="43.2111324" lon="11.4985758"><ele>259.0</ele><time>2026-05-03T06:51:33.16Z</time></trkpt><trkpt lat="43.2112096" lon="11.4986278"><ele>259.0</ele><time>2026-05-03T06:51:34.161Z</time></trkpt><trkpt lat="43.2112894" lon="11.49866"><ele>259.0</ele><time>2026-05-03T06:51:35.162Z</time></trkpt><trkpt lat="43.2113717" lon="11.4986713"><ele>259.0</ele><time>2026-05-03T06:51:36.162Z</time></trkpt><trkpt lat="43.2114696" lon="11.4986608"><ele>259.0</ele><time>2026-05-03T06:51:37.161Z</time></trkpt><trkpt lat="43.2115664" lon="11.4986444"><ele>259.0</ele><time>2026-05-03T06:51:38.16Z</time></trkpt><trkpt lat="43.2116628" lon="11.4986232"><ele>257.5</ele><time>2026-05-03T06:51:39.162Z</time></trkpt><trkpt lat="43.2117525" lon="11.4985974"><ele>256.0</ele><time>2026-05-03T06:51:40.162Z</time></trkpt><trkpt lat="43.2118324" lon="11.4985743"><ele>254.5</ele><time>2026-05-03T06:51:41.161Z</time></trkpt><trkpt lat="43.2119087" lon="11.498585"><ele>253.0</ele><time>2026-05-03T06:51:42.161Z</time></trkpt><trkpt lat="43.2119869" lon="11.4986264"><ele>251.49999999999997</ele><time>2026-05-03T06:51:43.161Z</time></trkpt><trkpt lat="43.2120626" lon="11.4987006"><ele>250.0</ele><time>2026-05-03T06:51:44.161Z</time></trkpt><trkpt lat="43.212127" lon="11.4988013"><ele>248.8</ele><time>2026-05-03T06:51:45.162Z</time></trkpt><trkpt lat="43.2121745" lon="11.4989168"><ele>247.6</ele><time>2026-05-03T06:51:46.161Z</time></trkpt><trkpt lat="43.2122022" lon="11.4990401"><ele>246.39999999999998</ele><time>2026-05-03T06:51:47.162Z</time></trkpt><trkpt lat="43.2122147" lon="11.4991717"><ele>245.2</ele><time>2026-05-03T06:51:48.161Z</time></trkpt><trkpt lat="43.2122072" lon="11.4992846"><ele>244.0</ele><time>2026-05-03T06:51:49.162Z</time></trkpt><trkpt lat="43.2121766" lon="11.4993906"><ele>244.0</ele><time>2026-05-03T06:51:50.161Z</time></trkpt><trkpt lat="43.2121234" lon="11.4994852"><ele>243.99999999999997</ele><time>2026-05-03T06:51:51.162Z</time></trkpt><trkpt lat="43.2120501" lon="11.4995552"><ele>243.99999999999997</ele><time>2026-05-03T06:51:52.161Z</time></trkpt><trkpt lat="43.2119559" lon="11.4996025"><ele>244.0</ele><time>2026-05-03T06:51:53.161Z</time></trkpt><trkpt lat="43.211861" lon="11.4996367"><ele>244.0</ele><time>2026-05-03T06:51:54.162Z</time></trkpt><trkpt lat="43.2117783" lon="11.4996759"><ele>241.39999999999998</ele><time>2026-05-03T06:51:55.162Z</time></trkpt><trkpt lat="43.2116868" lon="11.4997266"><ele>238.79999999999998</ele><time>2026-05-03T06:51:56.161Z</time></trkpt><trkpt lat="43.2116393" lon="11.499835"><ele>236.20000000000002</ele><time>2026-05-03T06:51:57.161Z</time></trkpt><trkpt lat="43.2115862" lon="11.4999487"><ele>233.60000000000002</ele><time>2026-05-03T06:51:58.161Z</time></trkpt><trkpt lat="43.2115463" lon="11.5000814"><ele>231.0</ele><time>2026-05-03T06:51:59.161Z</time></trkpt><trkpt lat="43.2115163" lon="11.5002271"><ele>229.0</ele><time>2026-05-03T06:52:00.161Z</time></trkpt><trkpt lat="43.2114899" lon="11.5003784"><ele>227.00000000000003</ele><time>2026-05-03T06:52:01.161Z</time></trkpt><trkpt lat="43.2114622" lon="11.5005291"><ele>225.00000000000003</ele><time>2026-05-03T06:52:02.162Z</time></trkpt><trkpt lat="43.2114346" lon="11.5006582"><ele>223.0</ele><time>2026-05-03T06:52:03.162Z</time></trkpt><trkpt lat="43.2114041" lon="11.5007736"><ele>221.0</ele><time>2026-05-03T06:52:04.162Z</time></trkpt><trkpt lat="43.2113584" lon="11.5008812"><ele>220.60000000000002</ele><time>2026-05-03T06:52:05.162Z</time></trkpt><trkpt lat="43.2112967" lon="11.5009661"><ele>220.20000000000002</ele><time>2026-05-03T06:52:06.162Z</time></trkpt><trkpt lat="43.2112199" lon="11.5010354"><ele>219.79999999999998</ele><time>2026-05-03T06:52:07.161Z</time></trkpt><trkpt lat="43.211129" lon="11.5010892"><ele>219.39999999999998</ele><time>2026-05-03T06:52:08.162Z</time></trkpt><trkpt lat="43.2110269" lon="11.5011491"><ele>219.0</ele><time>2026-05-03T06:52:09.162Z</time></trkpt><trkpt lat="43.2109266" lon="11.5012185"><ele>219.2</ele><time>2026-05-03T06:52:10.162Z</time></trkpt><trkpt lat="43.210829" lon="11.501299"><ele>219.39999999999998</ele><time>2026-05-03T06:52:11.161Z</time></trkpt><trkpt lat="43.2107416" lon="11.5013872"><ele>219.6</ele><time>2026-05-03T06:52:12.16Z</time></trkpt><trkpt lat="43.2106654" lon="11.5014946"><ele>219.8</ele><time>2026-05-03T06:52:13.162Z</time></trkpt><trkpt lat="43.2106022" lon="11.5016192"><ele>220.0</ele><time>2026-05-03T06:52:14.162Z</time></trkpt><trkpt lat="43.2105487" lon="11.5017496"><ele>220.0</ele><time>2026-05-03T06:52:15.162Z</time></trkpt><trkpt lat="43.2105048" lon="11.5018924"><ele>220.0</ele><time>2026-05-03T06:52:16.162Z</time></trkpt><trkpt lat="43.2104631" lon="11.5020354"><ele>220.0</ele><time>2026-05-03T06:52:17.162Z</time></trkpt><trkpt lat="43.2104193" lon="11.5021604"><ele>220.0</ele><time>2026-05-03T06:52:18.162Z</time></trkpt><trkpt lat="43.2103638" lon="11.5022693"><ele>220.0</ele><time>2026-05-03T06:52:19.16Z</time></trkpt><trkpt lat="43.2102985" lon="11.5023636"><ele>222.0</ele><time>2026-05-03T06:52:20.162Z</time></trkpt><trkpt lat="43.2102203" lon="11.5024477"><ele>224.0</ele><time>2026-05-03T06:52:21.162Z</time></trkpt><trkpt lat="43.210135" lon="11.5025386"><ele>226.0</ele><time>2026-05-03T06:52:22.161Z</time></trkpt><trkpt lat="43.2100441" lon="11.5026305"><ele>228.0</ele><time>2026-05-03T06:52:23.161Z</time></trkpt><trkpt lat="43.2099519" lon="11.5027218"><ele>230.0</ele><time>2026-05-03T06:52:24.161Z</time></trkpt><trkpt lat="43.2098651" lon="11.5028114"><ele>228.6</ele><time>2026-05-03T06:52:25.16Z</time></trkpt><trkpt lat="43.2097775" lon="11.5028985"><ele>227.2</ele><time>2026-05-03T06:52:26.162Z</time></trkpt><trkpt lat="43.209689" lon="11.5029915"><ele>225.8</ele><time>2026-05-03T06:52:27.162Z</time></trkpt><trkpt lat="43.2095995" lon="11.5030861"><ele>224.4</ele><time>2026-05-03T06:52:28.162Z</time></trkpt><trkpt lat="43.2095089" lon="11.5031841"><ele>223.0</ele><time>2026-05-03T06:52:29.162Z</time></trkpt><trkpt lat="43.2094159" lon="11.5032918"><ele>222.0</ele><time>2026-05-03T06:52:30.162Z</time></trkpt><trkpt lat="43.2093286" lon="11.5034083"><ele>221.0</ele><time>2026-05-03T06:52:31.161Z</time></trkpt><trkpt lat="43.2092457" lon="11.5035389"><ele>220.0</ele><time>2026-05-03T06:52:32.162Z</time></trkpt><trkpt lat="43.2091679" lon="11.5036701"><ele>219.0</ele><time>2026-05-03T06:52:33.162Z</time></trkpt><trkpt lat="43.2090903" lon="11.5038075"><ele>216.25</ele><time>2026-05-03T06:52:34.162Z</time></trkpt><trkpt lat="43.2090143" lon="11.5039461"><ele>213.5</ele><time>2026-05-03T06:52:35.161Z</time></trkpt><trkpt lat="43.2089361" lon="11.5040871"><ele>210.75</ele><time>2026-05-03T06:52:36.162Z</time></trkpt><trkpt lat="43.2088594" lon="11.5042129"><ele>208.0</ele><time>2026-05-03T06:52:37.162Z</time></trkpt><trkpt lat="43.2087887" lon="11.5043225"><ele>208.0</ele><time>2026-05-03T06:52:38.162Z</time></trkpt><trkpt lat="43.2087129" lon="11.5044161"><ele>208.0</ele><time>2026-05-03T06:52:39.161Z</time></trkpt><trkpt lat="43.2086366" lon="11.504485"><ele>208.0</ele><time>2026-05-03T06:52:40.161Z</time></trkpt><trkpt lat="43.2085468" lon="11.5045338"><ele>208.0</ele><time>2026-05-03T06:52:41.162Z</time></trkpt><trkpt lat="43.208442" lon="11.5045685"><ele>208.0</ele><time>2026-05-03T06:52:42.16Z</time></trkpt><trkpt lat="43.2083284" lon="11.504589"><ele>204.8</ele><time>2026-05-03T06:52:43.162Z</time></trkpt><trkpt lat="43.2082202" lon="11.5045993"><ele>201.60000000000002</ele><time>2026-05-03T06:52:44.162Z</time></trkpt><trkpt lat="43.2081122" lon="11.504603"><ele>198.39999999999998</ele><time>2026-05-03T06:52:45.162Z</time></trkpt><trkpt lat="43.2080119" lon="11.5045865"><ele>195.2</ele><time>2026-05-03T06:52:46.162Z</time></trkpt><trkpt lat="43.2079219" lon="11.5045614"><ele>192.0</ele><time>2026-05-03T06:52:47.161Z</time></trkpt><trkpt lat="43.2078513" lon="11.5045442"><ele>190.33333333333334</ele><time>2026-05-03T06:52:48.161Z</time></trkpt><trkpt lat="43.2077547" lon="11.5045823"><ele>188.66666666666666</ele><time>2026-05-03T06:52:50.161Z</time></trkpt><trkpt lat="43.2077065" lon="11.5046395"><ele>187.0</ele><time>2026-05-03T06:52:52.162Z</time></trkpt><trkpt lat="43.2077634" lon="11.5046968"><ele>185.33333333333331</ele><time>2026-05-03T06:52:56.161Z</time></trkpt><trkpt lat="43.2078679" lon="11.5047444"><ele>183.66666666666666</ele><time>2026-05-03T06:52:58.162Z</time></trkpt><trkpt lat="43.2079481" lon="11.504789"><ele>182.0</ele><time>2026-05-03T06:52:59.161Z</time></trkpt><trkpt lat="43.2080345" lon="11.5048343"><ele>182.0</ele><time>2026-05-03T06:53:00.161Z</time></trkpt><trkpt lat="43.2081283" lon="11.504882"><ele>182.0</ele><time>2026-05-03T06:53:01.162Z</time></trkpt><trkpt lat="43.2082279" lon="11.5049366"><ele>182.0</ele><time>2026-05-03T06:53:02.16Z</time></trkpt><trkpt lat="43.2083279" lon="11.5049967"><ele>182.0</ele><time>2026-05-03T06:53:03.162Z</time></trkpt><trkpt lat="43.2084354" lon="11.5050462"><ele>182.0</ele><time>2026-05-03T06:53:04.162Z</time></trkpt><trkpt lat="43.2085472" lon="11.5050751"><ele>182.6</ele><time>2026-05-03T06:53:05.162Z</time></trkpt><trkpt lat="43.2086544" lon="11.50509"><ele>183.2</ele><time>2026-05-03T06:53:06.161Z</time></trkpt><trkpt lat="43.2087546" lon="11.5051056"><ele>183.8</ele><time>2026-05-03T06:53:07.16Z</time></trkpt><trkpt lat="43.2088472" lon="11.5051259"><ele>184.4</ele><time>2026-05-03T06:53:08.162Z</time></trkpt><trkpt lat="43.2089305" lon="11.5051391"><ele>185.0</ele><time>2026-05-03T06:53:09.162Z</time></trkpt><trkpt lat="43.2090163" lon="11.5051338"><ele>185.0</ele><time>2026-05-03T06:53:10.161Z</time></trkpt><trkpt lat="43.2091067" lon="11.5051084"><ele>185.0</ele><time>2026-05-03T06:53:11.162Z</time></trkpt><trkpt lat="43.2091971" lon="11.5050612"><ele>185.0</ele><time>2026-05-03T06:53:12.162Z</time></trkpt><trkpt lat="43.2092835" lon="11.5050025"><ele>185.0</ele><time>2026-05-03T06:53:13.161Z</time></trkpt><trkpt lat="43.2093688" lon="11.50495"><ele>185.0</ele><time>2026-05-03T06:53:14.161Z</time></trkpt><trkpt lat="43.2094533" lon="11.5049107"><ele>185.0</ele><time>2026-05-03T06:53:15.161Z</time></trkpt><trkpt lat="43.2095408" lon="11.5048964"><ele>185.0</ele><time>2026-05-03T06:53:16.162Z</time></trkpt><trkpt lat="43.2096357" lon="11.5049126"><ele>185.0</ele><time>2026-05-03T06:53:17.162Z</time></trkpt><trkpt lat="43.2097336" lon="11.5049618"><ele>185.0</ele><time>2026-05-03T06:53:18.162Z</time></trkpt><trkpt lat="43.2098309" lon="11.5050391"><ele>185.0</ele><time>2026-05-03T06:53:19.162Z</time></trkpt><trkpt lat="43.2099296" lon="11.5051319"><ele>183.4</ele><time>2026-05-03T06:53:20.161Z</time></trkpt><trkpt lat="43.2100244" lon="11.5052245"><ele>181.8</ele><time>2026-05-03T06:53:21.162Z</time></trkpt><trkpt lat="43.2101199" lon="11.5053057"><ele>180.2</ele><time>2026-05-03T06:53:22.162Z</time></trkpt><trkpt lat="43.2102205" lon="11.5053638"><ele>178.6</ele><time>2026-05-03T06:53:23.161Z</time></trkpt><trkpt lat="43.210324" lon="11.505398"><ele>177.0</ele><time>2026-05-03T06:53:24.161Z</time></trkpt><trkpt lat="43.2104276" lon="11.5054235"><ele>176.39999999999998</ele><time>2026-05-03T06:53:25.162Z</time></trkpt><trkpt lat="43.2105294" lon="11.5054454"><ele>175.79999999999998</ele><time>2026-05-03T06:53:26.161Z</time></trkpt><trkpt lat="43.2106301" lon="11.5054534"><ele>175.2</ele><time>2026-05-03T06:53:27.162Z</time></trkpt><trkpt lat="43.2107386" lon="11.5054382"><ele>174.6</ele><time>2026-05-03T06:53:28.161Z</time></trkpt><trkpt lat="43.2108509" lon="11.5054047"><ele>174.0</ele><time>2026-05-03T06:53:29.16Z</time></trkpt><trkpt lat="43.2109554" lon="11.5053723"><ele>174.0</ele><time>2026-05-03T06:53:30.161Z</time></trkpt><trkpt lat="43.2110561" lon="11.5053472"><ele>174.0</ele><time>2026-05-03T06:53:31.162Z</time></trkpt><trkpt lat="43.211147" lon="11.5053479"><ele>174.0</ele><time>2026-05-03T06:53:32.162Z</time></trkpt><trkpt lat="43.2112277" lon="11.5053827"><ele>174.0</ele><time>2026-05-03T06:53:33.161Z</time></trkpt><trkpt lat="43.2112968" lon="11.5054537"><ele>174.0</ele><time>2026-05-03T06:53:34.162Z</time></trkpt><trkpt lat="43.2113562" lon="11.5055549"><ele>172.2</ele><time>2026-05-03T06:53:35.162Z</time></trkpt><trkpt lat="43.2114033" lon="11.5056728"><ele>170.39999999999998</ele><time>2026-05-03T06:53:36.162Z</time></trkpt><trkpt lat="43.211444" lon="11.5058008"><ele>168.6</ele><time>2026-05-03T06:53:37.162Z</time></trkpt><trkpt lat="43.211484" lon="11.5059336"><ele>166.8</ele><time>2026-05-03T06:53:38.161Z</time></trkpt><trkpt lat="43.2115232" lon="11.5060737"><ele>165.0</ele><time>2026-05-03T06:53:39.162Z</time></trkpt><trkpt lat="43.2115591" lon="11.5062146"><ele>165.0</ele><time>2026-05-03T06:53:40.161Z</time></trkpt><trkpt lat="43.2116015" lon="11.5063619"><ele>165.0</ele><time>2026-05-03T06:53:41.161Z</time></trkpt><trkpt lat="43.2116478" lon="11.5065116"><ele>165.0</ele><time>2026-05-03T06:53:42.161Z</time></trkpt><trkpt lat="43.2116929" lon="11.5066657"><ele>165.0</ele><time>2026-05-03T06:53:43.162Z</time></trkpt><trkpt lat="43.2117347" lon="11.506821"><ele>165.0</ele><time>2026-05-03T06:53:44.162Z</time></trkpt><trkpt lat="43.2117793" lon="11.5069777"><ele>165.0</ele><time>2026-05-03T06:53:45.161Z</time></trkpt><trkpt lat="43.211823" lon="11.5071245"><ele>165.0</ele><time>2026-05-03T06:53:46.161Z</time></trkpt><trkpt lat="43.2118623" lon="11.5072584"><ele>165.0</ele><time>2026-05-03T06:53:47.162Z</time></trkpt><trkpt lat="43.2119058" lon="11.5073913"><ele>164.8</ele><time>2026-05-03T06:53:48.161Z</time></trkpt><trkpt lat="43.2119584" lon="11.5075184"><ele>164.6</ele><time>2026-05-03T06:53:49.162Z</time></trkpt><trkpt lat="43.2120276" lon="11.5076267"><ele>164.39999999999998</ele><time>2026-05-03T06:53:50.161Z</time></trkpt><trkpt lat="43.212112" lon="11.5077145"><ele>164.2</ele><time>2026-05-03T06:53:51.161Z</time></trkpt><trkpt lat="43.2122087" lon="11.5077793"><ele>164.0</ele><time>2026-05-03T06:53:52.161Z</time></trkpt><trkpt lat="43.2123138" lon="11.5078355"><ele>163.75</ele><time>2026-05-03T06:53:53.161Z</time></trkpt><trkpt lat="43.2124113" lon="11.5079083"><ele>163.5</ele><time>2026-05-03T06:53:54.162Z</time></trkpt><trkpt lat="43.2125129" lon="11.5079859"><ele>163.25</ele><time>2026-05-03T06:53:55.161Z</time></trkpt><trkpt lat="43.2125913" lon="11.5081277"><ele>163.0</ele><time>2026-05-03T06:53:56.162Z</time></trkpt><trkpt lat="43.2126645" lon="11.5082736"><ele>162.75</ele><time>2026-05-03T06:53:57.162Z</time></trkpt><trkpt lat="43.2127336" lon="11.5084306"><ele>162.5</ele><time>2026-05-03T06:53:58.162Z</time></trkpt><trkpt lat="43.2128037" lon="11.5085893"><ele>162.25</ele><time>2026-05-03T06:53:59.161Z</time></trkpt><trkpt lat="43.2128773" lon="11.5087425"><ele>162.0</ele><time>2026-05-03T06:54:00.162Z</time></trkpt><trkpt lat="43.2129514" lon="11.5088984"><ele>161.75</ele><time>2026-05-03T06:54:01.162Z</time></trkpt><trkpt lat="43.2130265" lon="11.509049"><ele>161.5</ele><time>2026-05-03T06:54:02.162Z</time></trkpt><trkpt lat="43.2130986" lon="11.5092021"><ele>161.25</ele><time>2026-05-03T06:54:03.162Z</time></trkpt><trkpt lat="43.213172" lon="11.5093497"><ele>161.0</ele><time>2026-05-03T06:54:04.162Z</time></trkpt><trkpt lat="43.2132501" lon="11.5094865"><ele>161.66666666666666</ele><time>2026-05-03T06:54:05.162Z</time></trkpt><trkpt lat="43.2133341" lon="11.5096123"><ele>162.33333333333334</ele><time>2026-05-03T06:54:06.162Z</time></trkpt><trkpt lat="43.2134336" lon="11.5097308"><ele>163.0</ele><time>2026-05-03T06:54:07.162Z</time></trkpt><trkpt lat="43.211444" lon="11.5058008"><ele>163.2</ele><time>2026-05-03T06:53:37.162Z</time></trkpt><trkpt lat="43.211484" lon="11.5059336"><ele>163.4</ele><time>2026-05-03T06:53:38.161Z</time></trkpt><trkpt lat="43.2115232" lon="11.5060737"><ele>163.6</ele><time>2026-05-03T06:53:39.162Z</time></trkpt><trkpt lat="43.2115591" lon="11.5062146"><ele>163.79999999999998</ele><time>2026-05-03T06:53:40.161Z</time></trkpt><trkpt lat="43.2116015" lon="11.5063619"><ele>164.0</ele><time>2026-05-03T06:53:41.161Z</time></trkpt><trkpt lat="43.2116478" lon="11.5065116"><ele>164.0</ele><time>2026-05-03T06:53:42.161Z</time></trkpt><trkpt lat="43.2116929" lon="11.5066657"><ele>164.0</ele><time>2026-05-03T06:53:43.162Z</time></trkpt><trkpt lat="43.2117347" lon="11.506821"><ele>164.0</ele><time>2026-05-03T06:53:44.162Z</time></trkpt><trkpt lat="43.2117793" lon="11.5069777"><ele>164.0</ele><time>2026-05-03T06:53:45.161Z</time></trkpt><trkpt lat="43.211823" lon="11.5071245"><ele>164.0</ele><time>2026-05-03T06:53:46.161Z</time></trkpt><trkpt lat="43.2118623" lon="11.5072584"><ele>164.0</ele><time>2026-05-03T06:53:47.162Z</time></trkpt><trkpt lat="43.2119058" lon="11.5073913"><ele>164.0</ele><time>2026-05-03T06:53:48.161Z</time></trkpt><trkpt lat="43.2119584" lon="11.5075184"><ele>164.0</ele><time>2026-05-03T06:53:49.162Z</time></trkpt><trkpt lat="43.2120276" lon="11.5076267"><ele>164.0</ele><time>2026-05-03T06:53:50.161Z</time></trkpt><trkpt lat="43.212112" lon="11.5077145"><ele>164.0</ele><time>2026-05-03T06:53:51.161Z</time></trkpt><trkpt lat="43.2122087" lon="11.5077793"><ele>164.0</ele><time>2026-05-03T06:53:52.161Z</time></trkpt><trkpt lat="43.2123138" lon="11.5078355"><ele>164.0</ele><time>2026-05-03T06:53:53.161Z</time></trkpt><trkpt lat="43.2124113" lon="11.5079083"><ele>164.0</ele><time>2026-05-03T06:53:54.162Z</time></trkpt><trkpt lat="43.2125129" lon="11.5079859"><ele>164.0</ele><time>2026-05-03T06:53:55.161Z</time></trkpt><trkpt lat="43.2125913" lon="11.5081277"><ele>163.5</ele><time>2026-05-03T06:53:56.162Z</time></trkpt><trkpt lat="43.2126645" lon="11.5082736"><ele>163.0</ele><time>2026-05-03T06:53:57.162Z</time></trkpt><trkpt lat="43.2127336" lon="11.5084306"><ele>162.5</ele><time>2026-05-03T06:53:58.162Z</time></trkpt><trkpt lat="43.2128037" lon="11.5085893"><ele>162.0</ele><time>2026-05-03T06:53:59.161Z</time></trkpt><trkpt lat="43.2128773" lon="11.5087425"><ele>161.75</ele><time>2026-05-03T06:54:00.162Z</time></trkpt><trkpt lat="43.2129514" lon="11.5088984"><ele>161.5</ele><time>2026-05-03T06:54:01.162Z</time></trkpt><trkpt lat="43.2130265" lon="11.509049"><ele>161.25</ele><time>2026-05-03T06:54:02.162Z</time></trkpt><trkpt lat="43.2130986" lon="11.5092021"><ele>161.0</ele><time>2026-05-03T06:54:03.162Z</time></trkpt><trkpt lat="43.213172" lon="11.5093497"><ele>161.5</ele><time>2026-05-03T06:54:04.162Z</time></trkpt><trkpt lat="43.2132501" lon="11.5094865"><ele>162.0</ele><time>2026-05-03T06:54:05.162Z</time></trkpt><trkpt lat="43.2133341" lon="11.5096123"><ele>162.5</ele><time>2026-05-03T06:54:06.162Z</time></trkpt><trkpt lat="43.2134336" lon="11.5097308"><ele>163.0</ele><time>2026-05-03T06:54:07.162Z</time></trkpt><trkpt lat="43.2135311" lon="11.509843"><ele>163.0</ele><time>2026-05-03T06:54:08.161Z</time></trkpt><trkpt lat="43.213624" lon="11.5099591"><ele>163.0</ele><time>2026-05-03T06:54:09.162Z</time></trkpt><trkpt lat="43.213718" lon="11.5100743"><ele>163.0</ele><time>2026-05-03T06:54:10.161Z</time></trkpt><trkpt lat="43.2138107" lon="11.510202"><ele>163.0</ele><time>2026-05-03T06:54:11.162Z</time></trkpt><trkpt lat="43.213895" lon="11.5103366"><ele>163.25</ele><time>2026-05-03T06:54:12.162Z</time></trkpt><trkpt lat="43.2139735" lon="11.5104772"><ele>163.5</ele><time>2026-05-03T06:54:13.161Z</time></trkpt><trkpt lat="43.2140511" lon="11.5106159"><ele>163.75</ele><time>2026-05-03T06:54:14.162Z</time></trkpt><trkpt lat="43.2141294" lon="11.5107539"><ele>164.0</ele><time>2026-05-03T06:54:15.161Z</time></trkpt><trkpt lat="43.2141929" lon="11.5108859"><ele>164.0</ele><time>2026-05-03T06:54:16.16Z</time></trkpt><trkpt lat="43.2142342" lon="11.5110181"><ele>164.0</ele><time>2026-05-03T06:54:17.162Z</time></trkpt><trkpt lat="43.2142582" lon="11.5111659"><ele>164.0</ele><time>2026-05-03T06:54:18.162Z</time></trkpt><trkpt lat="43.2142597" lon="11.5113187"><ele>164.0</ele><time>2026-05-03T06:54:19.161Z</time></trkpt><trkpt lat="43.2142383" lon="11.5114653"><ele>164.0</ele><time>2026-05-03T06:54:20.162Z</time></trkpt><trkpt lat="43.2142108" lon="11.5116064"><ele>164.39999999999998</ele><time>2026-05-03T06:54:21.162Z</time></trkpt><trkpt lat="43.214205" lon="11.5117413"><ele>164.8</ele><time>2026-05-03T06:54:22.162Z</time></trkpt><trkpt lat="43.2142151" lon="11.5118664"><ele>165.2</ele><time>2026-05-03T06:54:23.161Z</time></trkpt><trkpt lat="43.2142443" lon="11.5119873"><ele>165.60000000000002</ele><time>2026-05-03T06:54:24.162Z</time></trkpt><trkpt lat="43.2142896" lon="11.5121079"><ele>166.0</ele><time>2026-05-03T06:54:25.162Z</time></trkpt><trkpt lat="43.2143479" lon="11.5122192"><ele>166.5</ele><time>2026-05-03T06:54:26.161Z</time></trkpt><trkpt lat="43.2144226" lon="11.5123178"><ele>167.0</ele><time>2026-05-03T06:54:27.161Z</time></trkpt><trkpt lat="43.2145117" lon="11.5124071"><ele>167.5</ele><time>2026-05-03T06:54:28.161Z</time></trkpt><trkpt lat="43.2146095" lon="11.5124974"><ele>168.0</ele><time>2026-05-03T06:54:29.162Z</time></trkpt><trkpt lat="43.2147076" lon="11.5125914"><ele>168.0</ele><time>2026-05-03T06:54:30.161Z</time></trkpt><trkpt lat="43.2148042" lon="11.5126853"><ele>168.0</ele><time>2026-05-03T06:54:31.162Z</time></trkpt><trkpt lat="43.2149008" lon="11.5127853"><ele>168.0</ele><time>2026-05-03T06:54:32.162Z</time></trkpt><trkpt lat="43.2149961" lon="11.5128863"><ele>168.0</ele><time>2026-05-03T06:54:33.162Z</time></trkpt><trkpt lat="43.2150967" lon="11.5129894"><ele>170.4</ele><time>2026-05-03T06:54:34.162Z</time></trkpt><trkpt lat="43.2151889" lon="11.513098"><ele>172.8</ele><time>2026-05-03T06:54:35.161Z</time></trkpt><trkpt lat="43.2152735" lon="11.5132106"><ele>175.2</ele><time>2026-05-03T06:54:36.162Z</time></trkpt><trkpt lat="43.2153442" lon="11.5133181"><ele>177.6</ele><time>2026-05-03T06:54:37.161Z</time></trkpt><trkpt lat="43.2154012" lon="11.5134284"><ele>180.0</ele><time>2026-05-03T06:54:38.162Z</time></trkpt><trkpt lat="43.2154428" lon="11.5135279"><ele>180.0</ele><time>2026-05-03T06:54:39.162Z</time></trkpt><trkpt lat="43.2154852" lon="11.5135997"><ele>180.0</ele><time>2026-05-03T06:54:40.162Z</time></trkpt><trkpt lat="43.2154784" lon="11.5136948"><ele>180.0</ele><time>2026-05-03T06:54:50.162Z</time></trkpt><trkpt lat="43.2155159" lon="11.5136156"><ele>180.0</ele><time>2026-05-03T06:54:58.162Z</time></trkpt><trkpt lat="43.2156084" lon="11.5136284"><ele>180.0</ele><time>2026-05-03T06:55:00.161Z</time></trkpt><trkpt lat="43.215688" lon="11.5136736"><ele>180.0</ele><time>2026-05-03T06:55:02.162Z</time></trkpt><trkpt lat="43.2157791" lon="11.5137168"><ele>180.8</ele><time>2026-05-03T06:55:04.16Z</time></trkpt><trkpt lat="43.2158773" lon="11.5137286"><ele>181.6</ele><time>2026-05-03T06:55:06.162Z</time></trkpt><trkpt lat="43.2159755" lon="11.5137492"><ele>182.39999999999998</ele><time>2026-05-03T06:55:08.162Z</time></trkpt><trkpt lat="43.2160565" lon="11.5137617"><ele>183.2</ele><time>2026-05-03T06:55:10.162Z</time></trkpt><trkpt lat="43.2161421" lon="11.5137303"><ele>184.0</ele><time>2026-05-03T06:55:12.162Z</time></trkpt><trkpt lat="43.2162351" lon="11.5136607"><ele>184.6</ele><time>2026-05-03T06:55:14.162Z</time></trkpt><trkpt lat="43.2163194" lon="11.5135792"><ele>185.2</ele><time>2026-05-03T06:55:16.162Z</time></trkpt><trkpt lat="43.2163969" lon="11.5135038"><ele>185.79999999999998</ele><time>2026-05-03T06:55:18.161Z</time></trkpt><trkpt lat="43.2163348" lon="11.5135713"><ele>186.39999999999998</ele><time>2026-05-03T06:56:21.162Z</time></trkpt><trkpt lat="43.2162578" lon="11.5136433"><ele>187.0</ele><time>2026-05-03T06:56:23.162Z</time></trkpt><trkpt lat="43.2161839" lon="11.5137024"><ele>187.0</ele><time>2026-05-03T06:56:25.161Z</time></trkpt><trkpt lat="43.2161203" lon="11.5137409"><ele>187.0</ele><time>2026-05-03T06:56:27.16Z</time></trkpt><trkpt lat="43.2160519" lon="11.5137714"><ele>187.0</ele><time>2026-05-03T06:56:29.161Z</time></trkpt><trkpt lat="43.2159847" lon="11.5137558"><ele>187.0</ele><time>2026-05-03T06:56:32.161Z</time></trkpt><trkpt lat="43.2160766" lon="11.5136527"><ele>187.0</ele><time>2026-05-03T06:56:37.162Z</time></trkpt><trkpt lat="43.2161852" lon="11.5135978"><ele>187.0</ele><time>2026-05-03T06:56:39.162Z</time></trkpt><trkpt lat="43.2162417" lon="11.5135519"><ele>187.0</ele><time>2026-05-03T06:56:40.162Z</time></trkpt><trkpt lat="43.2162961" lon="11.5134891"><ele>187.0</ele><time>2026-05-03T06:56:41.161Z</time></trkpt><trkpt lat="43.2163428" lon="11.5134031"><ele>187.0</ele><time>2026-05-03T06:56:42.162Z</time></trkpt><trkpt lat="43.2163819" lon="11.5132993"><ele>187.0</ele><time>2026-05-03T06:56:43.162Z</time></trkpt><trkpt lat="43.2164272" lon="11.5131891"><ele>187.0</ele><time>2026-05-03T06:56:44.162Z</time></trkpt><trkpt lat="43.2164641" lon="11.5130976"><ele>187.0</ele><time>2026-05-03T06:56:45.162Z</time></trkpt><trkpt lat="43.2164971" lon="11.5130199"><ele>188.5</ele><time>2026-05-03T06:56:46.162Z</time></trkpt><trkpt lat="43.216546" lon="11.5129254"><ele>190.0</ele><time>2026-05-03T06:56:48.162Z</time></trkpt><trkpt lat="43.2166004" lon="11.5128597"><ele>191.5</ele><time>2026-05-03T06:56:51.162Z</time></trkpt><trkpt lat="43.2166586" lon="11.5128181"><ele>193.0</ele><time>2026-05-03T06:56:53.162Z</time></trkpt><trkpt lat="43.2167328" lon="11.5127243"><ele>194.49999999999997</ele><time>2026-05-03T06:56:55.161Z</time></trkpt><trkpt lat="43.2167892" lon="11.5126552"><ele>196.0</ele><time>2026-05-03T06:56:56.161Z</time></trkpt><trkpt lat="43.2168484" lon="11.5125918"><ele>196.60000000000002</ele><time>2026-05-03T06:56:57.162Z</time></trkpt><trkpt lat="43.2169128" lon="11.5125047"><ele>197.2</ele><time>2026-05-03T06:56:58.162Z</time></trkpt><trkpt lat="43.2169859" lon="11.5124113"><ele>197.8</ele><time>2026-05-03T06:56:59.161Z</time></trkpt><trkpt lat="43.2170496" lon="11.5123516"><ele>198.39999999999998</ele><time>2026-05-03T06:57:00.162Z</time></trkpt><trkpt lat="43.2171108" lon="11.5123221"><ele>199.0</ele><time>2026-05-03T06:57:01.161Z</time></trkpt><trkpt lat="43.2172503" lon="11.5122955"><ele>201.33333333333331</ele><time>2026-05-03T06:57:03.162Z</time></trkpt><trkpt lat="43.2173281" lon="11.5122926"><ele>203.66666666666666</ele><time>2026-05-03T06:57:04.162Z</time></trkpt><trkpt lat="43.2174119" lon="11.5122944"><ele>206.0</ele><time>2026-05-03T06:57:05.161Z</time></trkpt><trkpt lat="43.2174945" lon="11.5122983"><ele>208.33333333333331</ele><time>2026-05-03T06:57:06.162Z</time></trkpt><trkpt lat="43.2175789" lon="11.5122933"><ele>210.66666666666666</ele><time>2026-05-03T06:57:07.162Z</time></trkpt><trkpt lat="43.2176662" lon="11.5122867"><ele>213.0</ele><time>2026-05-03T06:57:08.162Z</time></trkpt><trkpt lat="43.217758" lon="11.5122729"><ele>213.0</ele><time>2026-05-03T06:57:09.162Z</time></trkpt><trkpt lat="43.2178472" lon="11.5122444"><ele>213.0</ele><time>2026-05-03T06:57:10.162Z</time></trkpt><trkpt lat="43.2179311" lon="11.5122105"><ele>213.0</ele><time>2026-05-03T06:57:11.162Z</time></trkpt><trkpt lat="43.2180057" lon="11.5121742"><ele>213.0</ele><time>2026-05-03T06:57:12.162Z</time></trkpt><trkpt lat="43.2180662" lon="11.5121435"><ele>213.0</ele><time>2026-05-03T06:57:13.162Z</time></trkpt><trkpt lat="43.2181331" lon="11.5121104"><ele>213.0</ele><time>2026-05-03T06:57:18.161Z</time></trkpt><trkpt lat="43.2182037" lon="11.5120727"><ele>217.66666666666666</ele><time>2026-05-03T06:57:21.161Z</time></trkpt><trkpt lat="43.2182862" lon="11.5120293"><ele>222.33333333333331</ele><time>2026-05-03T06:57:23.162Z</time></trkpt><trkpt lat="43.218397" lon="11.5119574"><ele>227.0</ele><time>2026-05-03T06:57:25.162Z</time></trkpt><trkpt lat="43.2184666" lon="11.5119168"><ele>231.66666666666666</ele><time>2026-05-03T06:57:26.161Z</time></trkpt><trkpt lat="43.2185333" lon="11.5118683"><ele>236.33333333333331</ele><time>2026-05-03T06:57:27.161Z</time></trkpt><trkpt lat="43.2186019" lon="11.511807"><ele>241.0</ele><time>2026-05-03T06:57:28.161Z</time></trkpt><trkpt lat="43.2186718" lon="11.5117457"><ele>241.0</ele><time>2026-05-03T06:57:29.16Z</time></trkpt><trkpt lat="43.2187381" lon="11.5117086"><ele>241.00000000000003</ele><time>2026-05-03T06:57:30.161Z</time></trkpt><trkpt lat="43.2188094" lon="11.5116869"><ele>241.00000000000003</ele><time>2026-05-03T06:57:31.162Z</time></trkpt><trkpt lat="43.2189201" lon="11.5117137"><ele>241.0</ele><time>2026-05-03T06:57:33.161Z</time></trkpt><trkpt lat="43.2189955" lon="11.5117291"><ele>241.0</ele><time>2026-05-03T06:57:34.161Z</time></trkpt><trkpt lat="43.2192542" lon="11.5116733"><ele>242.83333333333331</ele><time>2026-05-03T06:57:37.161Z</time></trkpt><trkpt lat="43.2193317" lon="11.5115933"><ele>244.66666666666666</ele><time>2026-05-03T06:57:38.161Z</time></trkpt><trkpt lat="43.2194056" lon="11.5114801"><ele>246.5</ele><time>2026-05-03T06:57:39.161Z</time></trkpt><trkpt lat="43.2194455" lon="11.5114081"><ele>248.33333333333331</ele><time>2026-05-03T06:57:40.161Z</time></trkpt><trkpt lat="43.2194939" lon="11.511343"><ele>250.16666666666666</ele><time>2026-05-03T06:57:41.162Z</time></trkpt><trkpt lat="43.2195648" lon="11.5112609"><ele>252.0</ele><time>2026-05-03T06:57:43.161Z</time></trkpt><trkpt lat="43.2196354" lon="11.5113053"><ele>252.0</ele><time>2026-05-03T06:57:47.162Z</time></trkpt><trkpt lat="43.2196866" lon="11.511445"><ele>252.0</ele><time>2026-05-03T06:57:49.161Z</time></trkpt><trkpt lat="43.2197194" lon="11.5115322"><ele>252.0</ele><time>2026-05-03T06:57:50.16Z</time></trkpt><trkpt lat="43.2197542" lon="11.5116305"><ele>252.0</ele><time>2026-05-03T06:57:51.161Z</time></trkpt><trkpt lat="43.2198008" lon="11.5117563"><ele>252.0</ele><time>2026-05-03T06:57:52.16Z</time></trkpt><trkpt lat="43.2198602" lon="11.5119004"><ele>252.75</ele><time>2026-05-03T06:57:53.162Z</time></trkpt><trkpt lat="43.2199109" lon="11.5120376"><ele>253.5</ele><time>2026-05-03T06:57:54.162Z</time></trkpt><trkpt lat="43.2199588" lon="11.5121795"><ele>254.25</ele><time>2026-05-03T06:57:55.162Z</time></trkpt><trkpt lat="43.2200124" lon="11.5123242"><ele>255.0</ele><time>2026-05-03T06:57:56.16Z</time></trkpt><trkpt lat="43.220079" lon="11.5124709"><ele>256.25</ele><time>2026-05-03T06:57:57.162Z</time></trkpt><trkpt lat="43.2201419" lon="11.5126218"><ele>257.5</ele><time>2026-05-03T06:57:58.161Z</time></trkpt><trkpt lat="43.2202037" lon="11.5127726"><ele>258.75</ele><time>2026-05-03T06:57:59.162Z</time></trkpt><trkpt lat="43.2202667" lon="11.5129249"><ele>260.0</ele><time>2026-05-03T06:58:00.162Z</time></trkpt><trkpt lat="43.2203173" lon="11.5130582"><ele>260.0</ele><time>2026-05-03T06:58:01.161Z</time></trkpt><trkpt lat="43.2203619" lon="11.5131848"><ele>260.0</ele><time>2026-05-03T06:58:02.162Z</time></trkpt><trkpt lat="43.2204146" lon="11.5133123"><ele>260.0</ele><time>2026-05-03T06:58:03.162Z</time></trkpt><trkpt lat="43.2204623" lon="11.5134443"><ele>260.0</ele><time>2026-05-03T06:58:04.162Z</time></trkpt><trkpt lat="43.220505" lon="11.5135755"><ele>260.0</ele><time>2026-05-03T06:58:05.162Z</time></trkpt><trkpt lat="43.2205424" lon="11.5136925"><ele>258.6</ele><time>2026-05-03T06:58:06.161Z</time></trkpt><trkpt lat="43.2205739" lon="11.5138173"><ele>257.2</ele><time>2026-05-03T06:58:07.162Z</time></trkpt><trkpt lat="43.2205998" lon="11.5139434"><ele>255.8</ele><time>2026-05-03T06:58:08.162Z</time></trkpt><trkpt lat="43.2206304" lon="11.5140695"><ele>254.4</ele><time>2026-05-03T06:58:09.16Z</time></trkpt><trkpt lat="43.2206589" lon="11.5141945"><ele>253.0</ele><time>2026-05-03T06:58:10.161Z</time></trkpt><trkpt lat="43.2206803" lon="11.5143069"><ele>254.00000000000003</ele><time>2026-05-03T06:58:11.161Z</time></trkpt><trkpt lat="43.2207048" lon="11.5144051"><ele>255.0</ele><time>2026-05-03T06:58:12.162Z</time></trkpt><trkpt lat="43.2207353" lon="11.5144896"><ele>256.0</ele><time>2026-05-03T06:58:13.162Z</time></trkpt><trkpt lat="43.2207752" lon="11.5145686"><ele>257.0</ele><time>2026-05-03T06:58:14.162Z</time></trkpt><trkpt lat="43.2208255" lon="11.5146485"><ele>258.0</ele><time>2026-05-03T06:58:15.16Z</time></trkpt><trkpt lat="43.2208767" lon="11.5147207"><ele>259.00000000000006</ele><time>2026-05-03T06:58:16.161Z</time></trkpt><trkpt lat="43.2209278" lon="11.5148009"><ele>260.0</ele><time>2026-05-03T06:58:17.162Z</time></trkpt><trkpt lat="43.2209749" lon="11.5148953"><ele>260.0</ele><time>2026-05-03T06:58:18.161Z</time></trkpt><trkpt lat="43.2210223" lon="11.5149939"><ele>260.0</ele><time>2026-05-03T06:58:19.162Z</time></trkpt><trkpt lat="43.2210767" lon="11.515096"><ele>260.0</ele><time>2026-05-03T06:58:20.162Z</time></trkpt><trkpt lat="43.2211384" lon="11.5152009"><ele>260.0</ele><time>2026-05-03T06:58:21.16Z</time></trkpt><trkpt lat="43.2212018" lon="11.5153063"><ele>260.0</ele><time>2026-05-03T06:58:22.162Z</time></trkpt><trkpt lat="43.2212672" lon="11.5154117"><ele>260.4</ele><time>2026-05-03T06:58:23.162Z</time></trkpt><trkpt lat="43.2213332" lon="11.5155084"><ele>260.8</ele><time>2026-05-03T06:58:24.161Z</time></trkpt><trkpt lat="43.2214031" lon="11.515604"><ele>261.2</ele><time>2026-05-03T06:58:25.162Z</time></trkpt><trkpt lat="43.2214717" lon="11.515697"><ele>261.6</ele><time>2026-05-03T06:58:26.162Z</time></trkpt><trkpt lat="43.2215384" lon="11.5157912"><ele>262.0</ele><time>2026-05-03T06:58:27.162Z</time></trkpt><trkpt lat="43.2216041" lon="11.5158821"><ele>262.0</ele><time>2026-05-03T06:58:28.162Z</time></trkpt><trkpt lat="43.2216624" lon="11.5159804"><ele>262.0</ele><time>2026-05-03T06:58:29.162Z</time></trkpt><trkpt lat="43.2217086" lon="11.5160768"><ele>262.0</ele><time>2026-05-03T06:58:30.161Z</time></trkpt><trkpt lat="43.2217427" lon="11.516171"><ele>262.0</ele><time>2026-05-03T06:58:31.162Z</time></trkpt><trkpt lat="43.2217598" lon="11.5162574"><ele>262.0</ele><time>2026-05-03T06:58:32.162Z</time></trkpt><trkpt lat="43.2217699" lon="11.5163438"><ele>262.0</ele><time>2026-05-03T06:58:34.161Z</time></trkpt><trkpt lat="43.221789" lon="11.516444"><ele>261.2857142857143</ele><time>2026-05-03T06:58:37.162Z</time></trkpt><trkpt lat="43.2217935" lon="11.5165376"><ele>260.5714285714286</ele><time>2026-05-03T06:58:40.162Z</time></trkpt><trkpt lat="43.2217839" lon="11.5166257"><ele>259.8571428571429</ele><time>2026-05-03T06:58:45.161Z</time></trkpt><trkpt lat="43.2217848" lon="11.5167379"><ele>259.14285714285717</ele><time>2026-05-03T06:58:47.162Z</time></trkpt><trkpt lat="43.2217719" lon="11.5168342"><ele>258.42857142857144</ele><time>2026-05-03T06:58:49.162Z</time></trkpt><trkpt lat="43.2217537" lon="11.5169317"><ele>257.7142857142857</ele><time>2026-05-03T06:58:52.162Z</time></trkpt><trkpt lat="43.2217475" lon="11.51702"><ele>257.0</ele><time>2026-05-03T06:59:32.161Z</time></trkpt><trkpt lat="43.2217455" lon="11.517111"><ele>257.0</ele><time>2026-05-03T06:59:34.16Z</time></trkpt><trkpt lat="43.221741" lon="11.517216"><ele>257.0</ele><time>2026-05-03T06:59:36.161Z</time></trkpt><trkpt lat="43.2217375" lon="11.5173224"><ele>257.0</ele><time>2026-05-03T06:59:38.16Z</time></trkpt><trkpt lat="43.2217343" lon="11.5174451"><ele>257.0</ele><time>2026-05-03T06:59:40.162Z</time></trkpt><trkpt lat="43.2217313" lon="11.5175884"><ele>257.0</ele><time>2026-05-03T06:59:42.162Z</time></trkpt><trkpt lat="43.2217186" lon="11.5177228"><ele>257.0</ele><time>2026-05-03T06:59:44.161Z</time></trkpt><trkpt lat="43.2217118" lon="11.5178609"><ele>256.8</ele><time>2026-05-03T06:59:46.161Z</time></trkpt><trkpt lat="43.2217078" lon="11.5180043"><ele>256.6</ele><time>2026-05-03T06:59:48.161Z</time></trkpt><trkpt lat="43.2217011" lon="11.5181474"><ele>256.40000000000003</ele><time>2026-05-03T06:59:50.162Z</time></trkpt><trkpt lat="43.2217046" lon="11.5183004"><ele>256.2</ele><time>2026-05-03T06:59:52.161Z</time></trkpt><trkpt lat="43.2216971" lon="11.5184225"><ele>256.0</ele><time>2026-05-03T06:59:54.161Z</time></trkpt><trkpt lat="43.2216864" lon="11.518529"><ele>255.99999999999997</ele><time>2026-05-03T07:01:55.161Z</time></trkpt><trkpt lat="43.2216753" lon="11.5186345"><ele>256.0</ele><time>2026-05-03T07:01:58.161Z</time></trkpt><trkpt lat="43.2217166" lon="11.5187229"><ele>256.0</ele><time>2026-05-03T07:04:01.161Z</time></trkpt><trkpt lat="43.221792" lon="11.5188458"><ele>256.0</ele><time>2026-05-03T07:04:03.161Z</time></trkpt><trkpt lat="43.2218337" lon="11.5189332"><ele>255.99999999999997</ele><time>2026-05-03T07:04:04.162Z</time></trkpt><trkpt lat="43.2218811" lon="11.5190284"><ele>256.0</ele><time>2026-05-03T07:04:05.162Z</time></trkpt><trkpt lat="43.2219296" lon="11.5191326"><ele>255.99999999999997</ele><time>2026-05-03T07:04:06.161Z</time></trkpt><trkpt lat="43.2219732" lon="11.5192264"><ele>256.0</ele><time>2026-05-03T07:04:07.16Z</time></trkpt><trkpt lat="43.2220121" lon="11.519314"><ele>256.0</ele><time>2026-05-03T07:04:08.162Z</time></trkpt><trkpt lat="43.2220563" lon="11.5194009"><ele>256.0</ele><time>2026-05-03T07:04:09.162Z</time></trkpt><trkpt lat="43.2220894" lon="11.5194896"><ele>255.99999999999997</ele><time>2026-05-03T07:04:10.161Z</time></trkpt><trkpt lat="43.2221267" lon="11.519581"><ele>256.0</ele><time>2026-05-03T07:04:11.162Z</time></trkpt><trkpt lat="43.2221698" lon="11.519668"><ele>255.83333333333331</ele><time>2026-05-03T07:04:12.162Z</time></trkpt><trkpt lat="43.2222278" lon="11.5197339"><ele>255.66666666666666</ele><time>2026-05-03T07:04:13.162Z</time></trkpt><trkpt lat="43.2222921" lon="11.5197992"><ele>255.5</ele><time>2026-05-03T07:04:14.161Z</time></trkpt><trkpt lat="43.2223699" lon="11.5198566"><ele>255.33333333333331</ele><time>2026-05-03T07:04:15.162Z</time></trkpt><trkpt lat="43.2224391" lon="11.519917"><ele>255.16666666666666</ele><time>2026-05-03T07:04:16.161Z</time></trkpt><trkpt lat="43.2225062" lon="11.5199818"><ele>255.0</ele><time>2026-05-03T07:04:17.161Z</time></trkpt><trkpt lat="43.2225745" lon="11.520067"><ele>254.83333333333334</ele><time>2026-05-03T07:04:18.161Z</time></trkpt><trkpt lat="43.2226434" lon="11.5201656"><ele>254.66666666666669</ele><time>2026-05-03T07:04:19.161Z</time></trkpt><trkpt lat="43.2227082" lon="11.5202692"><ele>254.5</ele><time>2026-05-03T07:04:20.161Z</time></trkpt><trkpt lat="43.2227642" lon="11.5203674"><ele>254.33333333333334</ele><time>2026-05-03T07:04:21.161Z</time></trkpt><trkpt lat="43.2228099" lon="11.5204596"><ele>254.16666666666669</ele><time>2026-05-03T07:04:22.161Z</time></trkpt><trkpt lat="43.2228489" lon="11.5205431"><ele>254.0</ele><time>2026-05-03T07:04:23.16Z</time></trkpt><trkpt lat="43.2228794" lon="11.520619"><ele>252.79999999999998</ele><time>2026-05-03T07:04:24.161Z</time></trkpt><trkpt lat="43.2229281" lon="11.5207465"><ele>251.59999999999997</ele><time>2026-05-03T07:04:26.162Z</time></trkpt><trkpt lat="43.2229935" lon="11.5208805"><ele>250.4</ele><time>2026-05-03T07:04:28.161Z</time></trkpt><trkpt lat="43.2230559" lon="11.5210339"><ele>249.2</ele><time>2026-05-03T07:04:30.162Z</time></trkpt><trkpt lat="43.2230844" lon="11.5211146"><ele>248.0</ele><time>2026-05-03T07:04:31.162Z</time></trkpt><trkpt lat="43.2231147" lon="11.5211941"><ele>246.16666666666669</ele><time>2026-05-03T07:04:32.161Z</time></trkpt><trkpt lat="43.2231515" lon="11.5212723"><ele>244.33333333333334</ele><time>2026-05-03T07:04:33.162Z</time></trkpt><trkpt lat="43.2231876" lon="11.5213536"><ele>242.5</ele><time>2026-05-03T07:04:34.162Z</time></trkpt><trkpt lat="43.223225" lon="11.5214366"><ele>240.66666666666669</ele><time>2026-05-03T07:04:35.161Z</time></trkpt><trkpt lat="43.2232633" lon="11.5215293"><ele>238.83333333333334</ele><time>2026-05-03T07:04:36.161Z</time></trkpt><trkpt lat="43.2233076" lon="11.5216297"><ele>237.0</ele><time>2026-05-03T07:04:37.162Z</time></trkpt><trkpt lat="43.22335" lon="11.5217313"><ele>237.0</ele><time>2026-05-03T07:04:38.161Z</time></trkpt><trkpt lat="43.2233955" lon="11.5218351"><ele>237.0</ele><time>2026-05-03T07:04:39.162Z</time></trkpt><trkpt lat="43.2234433" lon="11.52194"><ele>237.0</ele><time>2026-05-03T07:04:40.161Z</time></trkpt><trkpt lat="43.2234874" lon="11.522044"><ele>237.0</ele><time>2026-05-03T07:04:41.161Z</time></trkpt><trkpt lat="43.2235322" lon="11.5221441"><ele>237.0</ele><time>2026-05-03T07:04:42.161Z</time></trkpt><trkpt lat="43.2235762" lon="11.5222418"><ele>237.0</ele><time>2026-05-03T07:04:43.162Z</time></trkpt><trkpt lat="43.2236204" lon="11.5223399"><ele>235.16666666666666</ele><time>2026-05-03T07:04:44.162Z</time></trkpt><trkpt lat="43.2236673" lon="11.5224361"><ele>233.33333333333331</ele><time>2026-05-03T07:04:45.161Z</time></trkpt><trkpt lat="43.2237159" lon="11.5225325"><ele>231.5</ele><time>2026-05-03T07:04:46.162Z</time></trkpt><trkpt lat="43.2237667" lon="11.5226291"><ele>229.66666666666666</ele><time>2026-05-03T07:04:47.161Z</time></trkpt><trkpt lat="43.2238251" lon="11.5227261"><ele>227.83333333333331</ele><time>2026-05-03T07:04:48.162Z</time></trkpt><trkpt lat="43.2238862" lon="11.5228261"><ele>226.0</ele><time>2026-05-03T07:04:49.16Z</time></trkpt><trkpt lat="43.2239501" lon="11.522932"><ele>224.0</ele><time>2026-05-03T07:04:50.161Z</time></trkpt><trkpt lat="43.2240111" lon="11.5230341"><ele>222.00000000000003</ele><time>2026-05-03T07:04:51.162Z</time></trkpt><trkpt lat="43.2240745" lon="11.5231323"><ele>220.00000000000003</ele><time>2026-05-03T07:04:52.16Z</time></trkpt><trkpt lat="43.2241411" lon="11.5232241"><ele>218.0</ele><time>2026-05-03T07:04:53.161Z</time></trkpt><trkpt lat="43.2242098" lon="11.52331"><ele>216.0</ele><time>2026-05-03T07:04:54.161Z</time></trkpt><trkpt lat="43.2242886" lon="11.5233926"><ele>216.0</ele><time>2026-05-03T07:04:55.162Z</time></trkpt><trkpt lat="43.2243704" lon="11.5234717"><ele>216.00000000000003</ele><time>2026-05-03T07:04:56.161Z</time></trkpt><trkpt lat="43.2244566" lon="11.5235507"><ele>216.00000000000003</ele><time>2026-05-03T07:04:57.162Z</time></trkpt><trkpt lat="43.2245487" lon="11.5236312"><ele>216.0</ele><time>2026-05-03T07:04:58.16Z</time></trkpt><trkpt lat="43.2246465" lon="11.5237182"><ele>216.0</ele><time>2026-05-03T07:04:59.16Z</time></trkpt><trkpt lat="43.2247444" lon="11.523809"><ele>213.20000000000002</ele><time>2026-05-03T07:05:00.161Z</time></trkpt><trkpt lat="43.22484" lon="11.5238984"><ele>210.40000000000003</ele><time>2026-05-03T07:05:01.162Z</time></trkpt><trkpt lat="43.2249337" lon="11.5239877"><ele>207.6</ele><time>2026-05-03T07:05:02.162Z</time></trkpt><trkpt lat="43.225023" lon="11.5240774"><ele>204.8</ele><time>2026-05-03T07:05:03.16Z</time></trkpt><trkpt lat="43.2251078" lon="11.5241714"><ele>202.0</ele><time>2026-05-03T07:05:04.162Z</time></trkpt><trkpt lat="43.2251878" lon="11.5242594"><ele>202.0</ele><time>2026-05-03T07:05:05.161Z</time></trkpt><trkpt lat="43.2252717" lon="11.5243568"><ele>202.0</ele><time>2026-05-03T07:05:06.162Z</time></trkpt><trkpt lat="43.2253656" lon="11.5244653"><ele>202.0</ele><time>2026-05-03T07:05:07.162Z</time></trkpt><trkpt lat="43.2254607" lon="11.5245738"><ele>202.0</ele><time>2026-05-03T07:05:08.162Z</time></trkpt><trkpt lat="43.2255507" lon="11.5246683"><ele>200.0</ele><time>2026-05-03T07:05:09.161Z</time></trkpt><trkpt lat="43.2256382" lon="11.5247599"><ele>198.0</ele><time>2026-05-03T07:05:10.161Z</time></trkpt><trkpt lat="43.2257279" lon="11.5248499"><ele>196.0</ele><time>2026-05-03T07:05:11.161Z</time></trkpt><trkpt lat="43.2258225" lon="11.5249419"><ele>194.0</ele><time>2026-05-03T07:05:12.161Z</time></trkpt><trkpt lat="43.2259216" lon="11.5250363"><ele>194.0</ele><time>2026-05-03T07:05:13.161Z</time></trkpt><trkpt lat="43.2260192" lon="11.5251303"><ele>194.0</ele><time>2026-05-03T07:05:14.161Z</time></trkpt><trkpt lat="43.226114" lon="11.5252278"><ele>194.0</ele><time>2026-05-03T07:05:15.162Z</time></trkpt><trkpt lat="43.2262064" lon="11.5253233"><ele>194.0</ele><time>2026-05-03T07:05:16.16Z</time></trkpt><trkpt lat="43.226302" lon="11.5254226"><ele>192.2</ele><time>2026-05-03T07:05:17.162Z</time></trkpt><trkpt lat="43.2263919" lon="11.5255201"><ele>190.39999999999998</ele><time>2026-05-03T07:05:18.162Z</time></trkpt><trkpt lat="43.2264788" lon="11.5256173"><ele>188.6</ele><time>2026-05-03T07:05:19.162Z</time></trkpt><trkpt lat="43.2265659" lon="11.5257091"><ele>186.8</ele><time>2026-05-03T07:05:20.162Z</time></trkpt><trkpt lat="43.2266543" lon="11.525804"><ele>185.0</ele><time>2026-05-03T07:05:21.161Z</time></trkpt><trkpt lat="43.2267446" lon="11.5258976"><ele>185.0</ele><time>2026-05-03T07:05:22.162Z</time></trkpt><trkpt lat="43.2268347" lon="11.5259926"><ele>185.0</ele><time>2026-05-03T07:05:23.161Z</time></trkpt><trkpt lat="43.2269254" lon="11.5260822"><ele>185.0</ele><time>2026-05-03T07:05:24.162Z</time></trkpt><trkpt lat="43.2270066" lon="11.5261636"><ele>185.0</ele><time>2026-05-03T07:05:25.162Z</time></trkpt><trkpt lat="43.2270881" lon="11.5262437"><ele>185.0</ele><time>2026-05-03T07:05:26.162Z</time></trkpt><trkpt lat="43.2271622" lon="11.5263292"><ele>183.4</ele><time>2026-05-03T07:05:27.161Z</time></trkpt><trkpt lat="43.227234" lon="11.5264067"><ele>181.8</ele><time>2026-05-03T07:05:28.162Z</time></trkpt><trkpt lat="43.2273044" lon="11.5264743"><ele>180.2</ele><time>2026-05-03T07:05:29.162Z</time></trkpt><trkpt lat="43.2273807" lon="11.5265501"><ele>178.6</ele><time>2026-05-03T07:05:30.162Z</time></trkpt><trkpt lat="43.2274615" lon="11.5266304"><ele>177.0</ele><time>2026-05-03T07:05:31.162Z</time></trkpt><trkpt lat="43.2275482" lon="11.526722"><ele>176.0</ele><time>2026-05-03T07:05:32.162Z</time></trkpt><trkpt lat="43.2276361" lon="11.5268174"><ele>175.0</ele><time>2026-05-03T07:05:33.162Z</time></trkpt><trkpt lat="43.2277335" lon="11.5269138"><ele>174.0</ele><time>2026-05-03T07:05:34.161Z</time></trkpt><trkpt lat="43.2278325" lon="11.5270168"><ele>173.0</ele><time>2026-05-03T07:05:35.161Z</time></trkpt><trkpt lat="43.2279429" lon="11.5271026"><ele>172.75</ele><time>2026-05-03T07:05:36.162Z</time></trkpt><trkpt lat="43.2280543" lon="11.5271724"><ele>172.5</ele><time>2026-05-03T07:05:37.162Z</time></trkpt><trkpt lat="43.2281718" lon="11.5272422"><ele>172.25</ele><time>2026-05-03T07:05:38.161Z</time></trkpt><trkpt lat="43.2282909" lon="11.5273082"><ele>172.0</ele><time>2026-05-03T07:05:39.161Z</time></trkpt><trkpt lat="43.2284171" lon="11.5273638"><ele>171.0</ele><time>2026-05-03T07:05:40.162Z</time></trkpt><trkpt lat="43.228539" lon="11.5274266"><ele>170.0</ele><time>2026-05-03T07:05:41.162Z</time></trkpt><trkpt lat="43.2286528" lon="11.5274932"><ele>169.0</ele><time>2026-05-03T07:05:42.16Z</time></trkpt><trkpt lat="43.2287584" lon="11.5275865"><ele>168.0</ele><time>2026-05-03T07:05:43.161Z</time></trkpt><trkpt lat="43.228862" lon="11.5276918"><ele>168.0</ele><time>2026-05-03T07:05:44.162Z</time></trkpt><trkpt lat="43.2289592" lon="11.5278097"><ele>168.0</ele><time>2026-05-03T07:05:45.161Z</time></trkpt><trkpt lat="43.2290557" lon="11.5279259"><ele>168.0</ele><time>2026-05-03T07:05:46.162Z</time></trkpt><trkpt lat="43.2291489" lon="11.5280446"><ele>168.0</ele><time>2026-05-03T07:05:47.162Z</time></trkpt><trkpt lat="43.2292435" lon="11.5281577"><ele>169.5</ele><time>2026-05-03T07:05:48.162Z</time></trkpt><trkpt lat="43.2293369" lon="11.5282691"><ele>171.0</ele><time>2026-05-03T07:05:49.161Z</time></trkpt><trkpt lat="43.2294292" lon="11.5283805"><ele>172.5</ele><time>2026-05-03T07:05:50.162Z</time></trkpt><trkpt lat="43.2295227" lon="11.5284845"><ele>174.0</ele><time>2026-05-03T07:05:51.162Z</time></trkpt><trkpt lat="43.2296064" lon="11.5285728"><ele>174.0</ele><time>2026-05-03T07:05:52.162Z</time></trkpt><trkpt lat="43.2296823" lon="11.5286465"><ele>174.0</ele><time>2026-05-03T07:05:53.162Z</time></trkpt><trkpt lat="43.2297482" lon="11.528703"><ele>174.0</ele><time>2026-05-03T07:05:54.161Z</time></trkpt><trkpt lat="43.2298462" lon="11.5287633"><ele>174.0</ele><time>2026-05-03T07:05:56.162Z</time></trkpt><trkpt lat="43.2299024" lon="11.5288044"><ele>174.0</ele><time>2026-05-03T07:05:57.162Z</time></trkpt><trkpt lat="43.2299644" lon="11.5288758"><ele>174.0</ele><time>2026-05-03T07:05:58.161Z</time></trkpt><trkpt lat="43.2300315" lon="11.5289703"><ele>174.5</ele><time>2026-05-03T07:05:59.162Z</time></trkpt><trkpt lat="43.2301085" lon="11.5290721"><ele>175.0</ele><time>2026-05-03T07:06:00.161Z</time></trkpt><trkpt lat="43.2301933" lon="11.5291869"><ele>175.5</ele><time>2026-05-03T07:06:01.162Z</time></trkpt><trkpt lat="43.2302803" lon="11.529307"><ele>176.0</ele><time>2026-05-03T07:06:02.162Z</time></trkpt><trkpt lat="43.2303767" lon="11.5294386"><ele>175.0</ele><time>2026-05-03T07:06:03.161Z</time></trkpt><trkpt lat="43.2304774" lon="11.5295707"><ele>174.0</ele><time>2026-05-03T07:06:04.162Z</time></trkpt><trkpt lat="43.2305793" lon="11.5297102"><ele>173.0</ele><time>2026-05-03T07:06:05.16Z</time></trkpt><trkpt lat="43.2306846" lon="11.529853"><ele>172.0</ele><time>2026-05-03T07:06:06.161Z</time></trkpt><trkpt lat="43.2307927" lon="11.5299961"><ele>172.0</ele><time>2026-05-03T07:06:07.162Z</time></trkpt><trkpt lat="43.2309042" lon="11.5301457"><ele>172.0</ele><time>2026-05-03T07:06:08.162Z</time></trkpt><trkpt lat="43.2310104" lon="11.5302893"><ele>172.0</ele><time>2026-05-03T07:06:09.162Z</time></trkpt><trkpt lat="43.2311174" lon="11.5304406"><ele>171.0</ele><time>2026-05-03T07:06:10.16Z</time></trkpt><trkpt lat="43.2312136" lon="11.5306027"><ele>170.0</ele><time>2026-05-03T07:06:11.161Z</time></trkpt><trkpt lat="43.2312977" lon="11.5307706"><ele>169.0</ele><time>2026-05-03T07:06:12.161Z</time></trkpt><trkpt lat="43.2313652" lon="11.5309574"><ele>169.0</ele><time>2026-05-03T07:06:13.162Z</time></trkpt><trkpt lat="43.2314216" lon="11.5311509"><ele>169.0</ele><time>2026-05-03T07:06:14.162Z</time></trkpt><trkpt lat="43.2314697" lon="11.531351"><ele>169.0</ele><time>2026-05-03T07:06:15.162Z</time></trkpt><trkpt lat="43.231513" lon="11.5315532"><ele>169.33333333333334</ele><time>2026-05-03T07:06:16.162Z</time></trkpt><trkpt lat="43.231556" lon="11.5317559"><ele>169.66666666666666</ele><time>2026-05-03T07:06:17.162Z</time></trkpt><trkpt lat="43.2315951" lon="11.5319576"><ele>170.0</ele><time>2026-05-03T07:06:18.162Z</time></trkpt><trkpt lat="43.2316318" lon="11.5321545"><ele>170.0</ele><time>2026-05-03T07:06:19.16Z</time></trkpt><trkpt lat="43.2316711" lon="11.5323523"><ele>170.0</ele><time>2026-05-03T07:06:20.161Z</time></trkpt><trkpt lat="43.2317115" lon="11.5325461"><ele>170.0</ele><time>2026-05-03T07:06:21.162Z</time></trkpt><trkpt lat="43.231753" lon="11.5327384"><ele>170.0</ele><time>2026-05-03T07:06:22.162Z</time></trkpt><trkpt lat="43.2317944" lon="11.5329315"><ele>170.0</ele><time>2026-05-03T07:06:23.161Z</time></trkpt><trkpt lat="43.2318344" lon="11.5331224"><ele>170.0</ele><time>2026-05-03T07:06:24.161Z</time></trkpt><trkpt lat="43.2318723" lon="11.533315"><ele>170.0</ele><time>2026-05-03T07:06:25.162Z</time></trkpt><trkpt lat="43.2319112" lon="11.5335054"><ele>170.0</ele><time>2026-05-03T07:06:26.161Z</time></trkpt><trkpt lat="43.2319539" lon="11.5336928"><ele>169.5</ele><time>2026-05-03T07:06:27.161Z</time></trkpt><trkpt lat="43.2320114" lon="11.5338717"><ele>169.0</ele><time>2026-05-03T07:06:28.161Z</time></trkpt><trkpt lat="43.2320865" lon="11.5340398"><ele>168.5</ele><time>2026-05-03T07:06:29.162Z</time></trkpt><trkpt lat="43.2321761" lon="11.5341903"><ele>168.0</ele><time>2026-05-03T07:06:30.162Z</time></trkpt><trkpt lat="43.2322841" lon="11.5343222"><ele>168.5</ele><time>2026-05-03T07:06:31.161Z</time></trkpt><trkpt lat="43.2324027" lon="11.5344366"><ele>169.0</ele><time>2026-05-03T07:06:32.161Z</time></trkpt><trkpt lat="43.2325275" lon="11.5345374"><ele>169.5</ele><time>2026-05-03T07:06:33.162Z</time></trkpt><trkpt lat="43.2326558" lon="11.5346343"><ele>170.0</ele><time>2026-05-03T07:06:34.162Z</time></trkpt><trkpt lat="43.2327821" lon="11.5347342"><ele>170.0</ele><time>2026-05-03T07:06:35.161Z</time></trkpt><trkpt lat="43.2329106" lon="11.534832"><ele>170.0</ele><time>2026-05-03T07:06:36.162Z</time></trkpt><trkpt lat="43.2330415" lon="11.5349286"><ele>170.0</ele><time>2026-05-03T07:06:37.162Z</time></trkpt><trkpt lat="43.2331716" lon="11.5350312"><ele>170.0</ele><time>2026-05-03T07:06:38.162Z</time></trkpt><trkpt lat="43.2332986" lon="11.5351341"><ele>169.75</ele><time>2026-05-03T07:06:39.16Z</time></trkpt><trkpt lat="43.2334222" lon="11.5352454"><ele>169.5</ele><time>2026-05-03T07:06:40.161Z</time></trkpt><trkpt lat="43.2335376" lon="11.5353721"><ele>169.25</ele><time>2026-05-03T07:06:41.162Z</time></trkpt><trkpt lat="43.2336412" lon="11.5355168"><ele>169.0</ele><time>2026-05-03T07:06:42.16Z</time></trkpt><trkpt lat="43.2337345" lon="11.5356725"><ele>169.0</ele><time>2026-05-03T07:06:43.161Z</time></trkpt><trkpt lat="43.2338208" lon="11.5358354"><ele>169.0</ele><time>2026-05-03T07:06:44.161Z</time></trkpt><trkpt lat="43.2339075" lon="11.5359969"><ele>169.0</ele><time>2026-05-03T07:06:45.162Z</time></trkpt><trkpt lat="43.2339916" lon="11.5361605"><ele>169.0</ele><time>2026-05-03T07:06:46.162Z</time></trkpt><trkpt lat="43.234077" lon="11.5363227"><ele>169.75</ele><time>2026-05-03T07:06:47.162Z</time></trkpt><trkpt lat="43.234165" lon="11.5364832"><ele>170.5</ele><time>2026-05-03T07:06:48.161Z</time></trkpt><trkpt lat="43.2342519" lon="11.536643"><ele>171.25</ele><time>2026-05-03T07:06:49.161Z</time></trkpt><trkpt lat="43.2343385" lon="11.5368044"><ele>172.0</ele><time>2026-05-03T07:06:50.161Z</time></trkpt><trkpt lat="43.2344258" lon="11.5369661"><ele>172.0</ele><time>2026-05-03T07:06:51.162Z</time></trkpt><trkpt lat="43.2345134" lon="11.5371298"><ele>172.0</ele><time>2026-05-03T07:06:52.162Z</time></trkpt><trkpt lat="43.2346041" lon="11.5372929"><ele>172.0</ele><time>2026-05-03T07:06:53.162Z</time></trkpt><trkpt lat="43.234692" lon="11.5374565"><ele>172.0</ele><time>2026-05-03T07:06:54.162Z</time></trkpt><trkpt lat="43.2347812" lon="11.5376228"><ele>172.66666666666669</ele><time>2026-05-03T07:06:55.161Z</time></trkpt><trkpt lat="43.2348693" lon="11.5377903"><ele>173.33333333333334</ele><time>2026-05-03T07:06:56.161Z</time></trkpt><trkpt lat="43.2349587" lon="11.5379565"><ele>174.0</ele><time>2026-05-03T07:06:57.161Z</time></trkpt><trkpt lat="43.23505" lon="11.5381239"><ele>174.0</ele><time>2026-05-03T07:06:58.161Z</time></trkpt><trkpt lat="43.2351416" lon="11.5382937"><ele>174.0</ele><time>2026-05-03T07:06:59.161Z</time></trkpt><trkpt lat="43.235234" lon="11.5384633"><ele>174.0</ele><time>2026-05-03T07:07:00.161Z</time></trkpt><trkpt lat="43.2353261" lon="11.5386305"><ele>173.66666666666666</ele><time>2026-05-03T07:07:01.162Z</time></trkpt><trkpt lat="43.2354172" lon="11.5387995"><ele>173.33333333333331</ele><time>2026-05-03T07:07:02.162Z</time></trkpt><trkpt lat="43.2355078" lon="11.5389683"><ele>173.0</ele><time>2026-05-03T07:07:03.162Z</time></trkpt><trkpt lat="43.2355984" lon="11.5391367"><ele>173.5</ele><time>2026-05-03T07:07:04.161Z</time></trkpt><trkpt lat="43.235688" lon="11.5393062"><ele>174.0</ele><time>2026-05-03T07:07:05.162Z</time></trkpt><trkpt lat="43.235768" lon="11.539467"><ele>174.5</ele><time>2026-05-03T07:07:06.162Z</time></trkpt><trkpt lat="43.2358314" lon="11.5396392"><ele>175.0</ele><time>2026-05-03T07:07:07.162Z</time></trkpt><trkpt lat="43.2358716" lon="11.5398275"><ele>175.0</ele><time>2026-05-03T07:07:08.162Z</time></trkpt><trkpt lat="43.235886" lon="11.5400223"><ele>175.0</ele><time>2026-05-03T07:07:09.16Z</time></trkpt><trkpt lat="43.2358831" lon="11.5402159"><ele>175.0</ele><time>2026-05-03T07:07:10.162Z</time></trkpt><trkpt lat="43.2358718" lon="11.5404137"><ele>175.0</ele><time>2026-05-03T07:07:11.16Z</time></trkpt><trkpt lat="43.2358608" lon="11.5406095"><ele>175.0</ele><time>2026-05-03T07:07:12.162Z</time></trkpt><trkpt lat="43.2358468" lon="11.5408088"><ele>175.0</ele><time>2026-05-03T07:07:13.162Z</time></trkpt><trkpt lat="43.2358369" lon="11.5410096"><ele>175.0</ele><time>2026-05-03T07:07:14.161Z</time></trkpt><trkpt lat="43.2358284" lon="11.5412101"><ele>175.0</ele><time>2026-05-03T07:07:15.161Z</time></trkpt><trkpt lat="43.2358204" lon="11.5414108"><ele>176.0</ele><time>2026-05-03T07:07:16.161Z</time></trkpt><trkpt lat="43.2358132" lon="11.5416121"><ele>177.0</ele><time>2026-05-03T07:07:17.162Z</time></trkpt><trkpt lat="43.2358048" lon="11.5418165"><ele>178.0</ele><time>2026-05-03T07:07:18.162Z</time></trkpt><trkpt lat="43.2357975" lon="11.5420198"><ele>179.0</ele><time>2026-05-03T07:07:19.162Z</time></trkpt><trkpt lat="43.2357902" lon="11.5422232"><ele>179.0</ele><time>2026-05-03T07:07:20.162Z</time></trkpt><trkpt lat="43.2357799" lon="11.5424284"><ele>179.0</ele><time>2026-05-03T07:07:21.161Z</time></trkpt><trkpt lat="43.2357706" lon="11.5426339"><ele>179.0</ele><time>2026-05-03T07:07:22.162Z</time></trkpt><trkpt lat="43.2357646" lon="11.5428414"><ele>178.66666666666666</ele><time>2026-05-03T07:07:23.16Z</time></trkpt><trkpt lat="43.2357596" lon="11.54305"><ele>178.33333333333334</ele><time>2026-05-03T07:07:24.162Z</time></trkpt><trkpt lat="43.235754" lon="11.5432608"><ele>178.0</ele><time>2026-05-03T07:07:25.161Z</time></trkpt><trkpt lat="43.2357467" lon="11.5434754"><ele>178.0</ele><time>2026-05-03T07:07:26.161Z</time></trkpt><trkpt lat="43.2357363" lon="11.5436911"><ele>178.0</ele><time>2026-05-03T07:07:27.162Z</time></trkpt><trkpt lat="43.2357277" lon="11.5439063"><ele>178.0</ele><time>2026-05-03T07:07:28.161Z</time></trkpt><trkpt lat="43.2357211" lon="11.5441239"><ele>177.66666666666669</ele><time>2026-05-03T07:07:29.162Z</time></trkpt><trkpt lat="43.2357119" lon="11.5443404"><ele>177.33333333333334</ele><time>2026-05-03T07:07:30.161Z</time></trkpt><trkpt lat="43.2357054" lon="11.5445556"><ele>177.0</ele><time>2026-05-03T07:07:31.161Z</time></trkpt><trkpt lat="43.2357065" lon="11.5447724"><ele>176.66666666666666</ele><time>2026-05-03T07:07:32.162Z</time></trkpt><trkpt lat="43.2357233" lon="11.5449851"><ele>176.33333333333331</ele><time>2026-05-03T07:07:33.162Z</time></trkpt><trkpt lat="43.2357587" lon="11.5451938"><ele>176.0</ele><time>2026-05-03T07:07:34.162Z</time></trkpt><trkpt lat="43.2358112" lon="11.5453978"><ele>176.0</ele><time>2026-05-03T07:07:35.162Z</time></trkpt><trkpt lat="43.235876" lon="11.5455983"><ele>176.0</ele><time>2026-05-03T07:07:36.16Z</time></trkpt><trkpt lat="43.2359453" lon="11.5457955"><ele>176.0</ele><time>2026-05-03T07:07:37.162Z</time></trkpt><trkpt lat="43.2360201" lon="11.5459881"><ele>176.0</ele><time>2026-05-03T07:07:38.162Z</time></trkpt><trkpt lat="43.2361049" lon="11.5461736"><ele>176.0</ele><time>2026-05-03T07:07:39.162Z</time></trkpt><trkpt lat="43.2361979" lon="11.5463496"><ele>176.0</ele><time>2026-05-03T07:07:40.16Z</time></trkpt><trkpt lat="43.2362987" lon="11.5465164"><ele>176.66666666666666</ele><time>2026-05-03T07:07:41.162Z</time></trkpt><trkpt lat="43.2364032" lon="11.546675"><ele>177.33333333333334</ele><time>2026-05-03T07:07:42.162Z</time></trkpt><trkpt lat="43.2365111" lon="11.5468331"><ele>178.0</ele><time>2026-05-03T07:07:43.161Z</time></trkpt><trkpt lat="43.2366174" lon="11.5469922"><ele>176.66666666666669</ele><time>2026-05-03T07:07:44.162Z</time></trkpt><trkpt lat="43.2367293" lon="11.5471459"><ele>175.33333333333334</ele><time>2026-05-03T07:07:45.162Z</time></trkpt><trkpt lat="43.2368464" lon="11.5472939"><ele>174.0</ele><time>2026-05-03T07:07:46.162Z</time></trkpt><trkpt lat="43.2369692" lon="11.5474341"><ele>174.0</ele><time>2026-05-03T07:07:47.161Z</time></trkpt><trkpt lat="43.237094" lon="11.5475722"><ele>174.0</ele><time>2026-05-03T07:07:48.162Z</time></trkpt><trkpt lat="43.2372189" lon="11.5477115"><ele>174.0</ele><time>2026-05-03T07:07:49.161Z</time></trkpt><trkpt lat="43.2373438" lon="11.5478516"><ele>174.66666666666666</ele><time>2026-05-03T07:07:50.162Z</time></trkpt><trkpt lat="43.2374702" lon="11.5479906"><ele>175.33333333333331</ele><time>2026-05-03T07:07:51.162Z</time></trkpt><trkpt lat="43.237597" lon="11.5481289"><ele>176.0</ele><time>2026-05-03T07:07:52.162Z</time></trkpt><trkpt lat="43.2377234" lon="11.5482674"><ele>176.0</ele><time>2026-05-03T07:07:53.16Z</time></trkpt><trkpt lat="43.2378498" lon="11.5484071"><ele>176.0</ele><time>2026-05-03T07:07:54.162Z</time></trkpt><trkpt lat="43.237978" lon="11.5485428"><ele>176.0</ele><time>2026-05-03T07:07:55.161Z</time></trkpt><trkpt lat="43.2381103" lon="11.5486693"><ele>176.0</ele><time>2026-05-03T07:07:56.161Z</time></trkpt><trkpt lat="43.2382433" lon="11.5487949"><ele>176.0</ele><time>2026-05-03T07:07:57.162Z</time></trkpt><trkpt lat="43.2383774" lon="11.5489162"><ele>176.0</ele><time>2026-05-03T07:07:58.162Z</time></trkpt><trkpt lat="43.2385122" lon="11.5490311"><ele>176.0</ele><time>2026-05-03T07:07:59.162Z</time></trkpt><trkpt lat="43.2386518" lon="11.5491354"><ele>176.0</ele><time>2026-05-03T07:08:00.162Z</time></trkpt><trkpt lat="43.2387948" lon="11.5492335"><ele>176.0</ele><time>2026-05-03T07:08:01.161Z</time></trkpt><trkpt lat="43.2389372" lon="11.5493366"><ele>175.66666666666666</ele><time>2026-05-03T07:08:02.161Z</time></trkpt><trkpt lat="43.2390768" lon="11.5494456"><ele>175.33333333333334</ele><time>2026-05-03T07:08:03.161Z</time></trkpt><trkpt lat="43.2392114" lon="11.549566"><ele>175.0</ele><time>2026-05-03T07:08:04.161Z</time></trkpt><trkpt lat="43.2393404" lon="11.5496983"><ele>175.0</ele><time>2026-05-03T07:08:05.161Z</time></trkpt><trkpt lat="43.2394639" lon="11.5498393"><ele>175.0</ele><time>2026-05-03T07:08:06.162Z</time></trkpt><trkpt lat="43.2395829" lon="11.5499862"><ele>175.0</ele><time>2026-05-03T07:08:07.162Z</time></trkpt><trkpt lat="43.2396957" lon="11.5501394"><ele>174.33333333333334</ele><time>2026-05-03T07:08:08.161Z</time></trkpt><trkpt lat="43.2398081" lon="11.550297"><ele>173.66666666666666</ele><time>2026-05-03T07:08:09.161Z</time></trkpt><trkpt lat="43.239921" lon="11.5504535"><ele>173.0</ele><time>2026-05-03T07:08:10.16Z</time></trkpt><trkpt lat="43.2400323" lon="11.5506079"><ele>173.0</ele><time>2026-05-03T07:08:11.162Z</time></trkpt><trkpt lat="43.2401459" lon="11.5507641"><ele>173.0</ele><time>2026-05-03T07:08:12.162Z</time></trkpt><trkpt lat="43.2402609" lon="11.5509204"><ele>173.0</ele><time>2026-05-03T07:08:13.162Z</time></trkpt><trkpt lat="43.2403757" lon="11.5510693"><ele>172.5</ele><time>2026-05-03T07:08:14.161Z</time></trkpt><trkpt lat="43.2404807" lon="11.5512116"><ele>172.0</ele><time>2026-05-03T07:08:15.161Z</time></trkpt><trkpt lat="43.2405765" lon="11.5513475"><ele>171.5</ele><time>2026-05-03T07:08:16.162Z</time></trkpt><trkpt lat="43.2406696" lon="11.5514753"><ele>171.0</ele><time>2026-05-03T07:08:17.161Z</time></trkpt><trkpt lat="43.2407522" lon="11.5515997"><ele>172.60000000000002</ele><time>2026-05-03T07:08:18.161Z</time></trkpt><trkpt lat="43.2408091" lon="11.5517383"><ele>174.2</ele><time>2026-05-03T07:08:19.16Z</time></trkpt><trkpt lat="43.2408203" lon="11.5518789"><ele>175.8</ele><time>2026-05-03T07:08:20.161Z</time></trkpt><trkpt lat="43.2407925" lon="11.5520179"><ele>177.39999999999998</ele><time>2026-05-03T07:08:21.161Z</time></trkpt><trkpt lat="43.2407395" lon="11.5521526"><ele>179.0</ele><time>2026-05-03T07:08:22.162Z</time></trkpt><trkpt lat="43.2406789" lon="11.5522799"><ele>177.6</ele><time>2026-05-03T07:08:23.161Z</time></trkpt><trkpt lat="43.2406231" lon="11.552394"><ele>176.2</ele><time>2026-05-03T07:08:24.162Z</time></trkpt><trkpt lat="43.2405762" lon="11.5524869"><ele>174.79999999999998</ele><time>2026-05-03T07:08:25.161Z</time></trkpt><trkpt lat="43.240534" lon="11.5525748"><ele>173.39999999999998</ele><time>2026-05-03T07:08:26.161Z</time></trkpt><trkpt lat="43.2404843" lon="11.5526816"><ele>172.0</ele><time>2026-05-03T07:08:27.161Z</time></trkpt><trkpt lat="43.2404287" lon="11.5527987"><ele>172.25</ele><time>2026-05-03T07:08:28.161Z</time></trkpt><trkpt lat="43.2403662" lon="11.552919"><ele>172.5</ele><time>2026-05-03T07:08:29.161Z</time></trkpt><trkpt lat="43.2402983" lon="11.5530407"><ele>172.75</ele><time>2026-05-03T07:08:30.162Z</time></trkpt><trkpt lat="43.240225" lon="11.5531633"><ele>173.0</ele><time>2026-05-03T07:08:31.161Z</time></trkpt><trkpt lat="43.2401491" lon="11.5532863"><ele>173.0</ele><time>2026-05-03T07:08:32.162Z</time></trkpt><trkpt lat="43.2400754" lon="11.5534082"><ele>173.0</ele><time>2026-05-03T07:08:33.161Z</time></trkpt><trkpt lat="43.2399988" lon="11.5535349"><ele>173.0</ele><time>2026-05-03T07:08:34.161Z</time></trkpt><trkpt lat="43.2399159" lon="11.5536631"><ele>173.0</ele><time>2026-05-03T07:08:35.162Z</time></trkpt><trkpt lat="43.2398269" lon="11.5537926"><ele>173.0</ele><time>2026-05-03T07:08:36.161Z</time></trkpt><trkpt lat="43.2397354" lon="11.5539221"><ele>173.0</ele><time>2026-05-03T07:08:37.16Z</time></trkpt><trkpt lat="43.2396417" lon="11.5540515"><ele>173.0</ele><time>2026-05-03T07:08:38.161Z</time></trkpt><trkpt lat="43.239549" lon="11.554179"><ele>173.0</ele><time>2026-05-03T07:08:39.161Z</time></trkpt><trkpt lat="43.2394538" lon="11.5542977"><ele>173.0</ele><time>2026-05-03T07:08:40.162Z</time></trkpt><trkpt lat="43.2393585" lon="11.5544044"><ele>173.0</ele><time>2026-05-03T07:08:41.162Z</time></trkpt><trkpt lat="43.2392626" lon="11.5544928"><ele>173.0</ele><time>2026-05-03T07:08:42.162Z</time></trkpt><trkpt lat="43.2391688" lon="11.5545551"><ele>173.0</ele><time>2026-05-03T07:08:43.161Z</time></trkpt><trkpt lat="43.2390771" lon="11.5545897"><ele>173.0</ele><time>2026-05-03T07:08:44.162Z</time></trkpt><trkpt lat="43.2389842" lon="11.5545915"><ele>173.83333333333331</ele><time>2026-05-03T07:08:45.162Z</time></trkpt><trkpt lat="43.2389047" lon="11.5545904"><ele>174.66666666666666</ele><time>2026-05-03T07:08:46.162Z</time></trkpt><trkpt lat="43.2388347" lon="11.5546159"><ele>175.5</ele><time>2026-05-03T07:08:47.162Z</time></trkpt><trkpt lat="43.238766" lon="11.5547459"><ele>176.33333333333334</ele><time>2026-05-03T07:08:49.161Z</time></trkpt><trkpt lat="43.2387738" lon="11.5548397"><ele>177.16666666666669</ele><time>2026-05-03T07:08:50.161Z</time></trkpt><trkpt lat="43.2388146" lon="11.5549242"><ele>178.0</ele><time>2026-05-03T07:08:51.162Z</time></trkpt><trkpt lat="43.2388626" lon="11.5550182"><ele>178.0</ele><time>2026-05-03T07:08:52.162Z</time></trkpt><trkpt lat="43.2388908" lon="11.5551388"><ele>178.0</ele><time>2026-05-03T07:08:53.162Z</time></trkpt><trkpt lat="43.2388962" lon="11.5552698"><ele>178.0</ele><time>2026-05-03T07:08:54.161Z</time></trkpt><trkpt lat="43.2388731" lon="11.5554075"><ele>178.0</ele><time>2026-05-03T07:08:55.161Z</time></trkpt><trkpt lat="43.2388244" lon="11.5555332"><ele>178.0</ele><time>2026-05-03T07:08:56.162Z</time></trkpt><trkpt lat="43.2387638" lon="11.5556563"><ele>178.0</ele><time>2026-05-03T07:08:57.162Z</time></trkpt><trkpt lat="43.238697" lon="11.555781"><ele>178.0</ele><time>2026-05-03T07:08:58.162Z</time></trkpt><trkpt lat="43.2386214" lon="11.5558981"><ele>178.0</ele><time>2026-05-03T07:08:59.162Z</time></trkpt><trkpt lat="43.2385407" lon="11.5559955"><ele>178.0</ele><time>2026-05-03T07:09:00.162Z</time></trkpt><trkpt lat="43.2384641" lon="11.5560731"><ele>178.0</ele><time>2026-05-03T07:09:01.162Z</time></trkpt><trkpt lat="43.238395" lon="11.5561307"><ele>178.0</ele><time>2026-05-03T07:09:02.161Z</time></trkpt><trkpt lat="43.2383379" lon="11.5561723"><ele>178.0</ele><time>2026-05-03T07:09:03.161Z</time></trkpt><trkpt lat="43.2382823" lon="11.5562405"><ele>178.0</ele><time>2026-05-03T07:09:05.162Z</time></trkpt><trkpt lat="43.2383146" lon="11.55632"><ele>178.0</ele><time>2026-05-03T07:09:08.162Z</time></trkpt><trkpt lat="43.2383322" lon="11.5562338"><ele>178.0</ele><time>2026-05-03T07:09:27.161Z</time></trkpt><trkpt lat="43.2383902" lon="11.5561629"><ele>178.0</ele><time>2026-05-03T07:09:29.162Z</time></trkpt><trkpt lat="43.2385017" lon="11.5560635"><ele>178.0</ele><time>2026-05-03T07:09:31.162Z</time></trkpt><trkpt lat="43.2385636" lon="11.5560003"><ele>178.0</ele><time>2026-05-03T07:09:32.161Z</time></trkpt><trkpt lat="43.238615" lon="11.5559319"><ele>178.0</ele><time>2026-05-03T07:09:33.162Z</time></trkpt><trkpt lat="43.2386891" lon="11.5558926"><ele>178.0</ele><time>2026-05-03T07:09:35.16Z</time></trkpt><trkpt lat="43.2387829" lon="11.5558838"><ele>178.0</ele><time>2026-05-03T07:09:38.162Z</time></trkpt><trkpt lat="43.2388507" lon="11.5558788"><ele>178.0</ele><time>2026-05-03T07:09:40.162Z</time></trkpt><trkpt lat="43.2388914" lon="11.5559649"><ele>178.0</ele><time>2026-05-03T07:09:45.16Z</time></trkpt><trkpt lat="43.2388427" lon="11.5560529"><ele>178.0</ele><time>2026-05-03T07:09:48.161Z</time></trkpt><trkpt lat="43.2388215" lon="11.5561394"><ele>178.0</ele><time>2026-05-03T07:09:52.16Z</time></trkpt><trkpt lat="43.2388308" lon="11.5562256"><ele>178.0</ele><time>2026-05-03T07:09:54.162Z</time></trkpt><trkpt lat="43.2388504" lon="11.5563124"><ele>178.0</ele><time>2026-05-03T07:09:58.162Z</time></trkpt><trkpt lat="43.2388743" lon="11.5564618"><ele>178.0</ele><time>2026-05-03T07:10:00.162Z</time></trkpt><trkpt lat="43.2389016" lon="11.5565671"><ele>178.0</ele><time>2026-05-03T07:10:01.162Z</time></trkpt><trkpt lat="43.2389381" lon="11.5566833"><ele>178.0</ele><time>2026-05-03T07:10:02.162Z</time></trkpt><trkpt lat="43.2389768" lon="11.5567997"><ele>178.0</ele><time>2026-05-03T07:10:03.161Z</time></trkpt><trkpt lat="43.2390117" lon="11.5568985"><ele>178.0</ele><time>2026-05-03T07:10:04.161Z</time></trkpt><trkpt lat="43.2390457" lon="11.5569917"><ele>178.0</ele><time>2026-05-03T07:10:05.162Z</time></trkpt><trkpt lat="43.2390757" lon="11.5570777"><ele>178.0</ele><time>2026-05-03T07:10:06.162Z</time></trkpt><trkpt lat="43.2390854" lon="11.5572049"><ele>178.0</ele><time>2026-05-03T07:10:08.161Z</time></trkpt><trkpt lat="43.2390217" lon="11.557303"><ele>178.0</ele><time>2026-05-03T07:10:10.162Z</time></trkpt><trkpt lat="43.2389633" lon="11.5573556"><ele>178.0</ele><time>2026-05-03T07:10:11.161Z</time></trkpt><trkpt lat="43.2388932" lon="11.557421"><ele>178.0</ele><time>2026-05-03T07:10:12.162Z</time></trkpt><trkpt lat="43.2388159" lon="11.5574923"><ele>178.0</ele><time>2026-05-03T07:10:13.161Z</time></trkpt><trkpt lat="43.2387405" lon="11.5575557"><ele>178.0</ele><time>2026-05-03T07:10:14.162Z</time></trkpt><trkpt lat="43.2386645" lon="11.5576125"><ele>177.83333333333334</ele><time>2026-05-03T07:10:15.161Z</time></trkpt><trkpt lat="43.2385865" lon="11.5576605"><ele>177.66666666666669</ele><time>2026-05-03T07:10:16.162Z</time></trkpt><trkpt lat="43.2385057" lon="11.5577057"><ele>177.5</ele><time>2026-05-03T07:10:17.16Z</time></trkpt><trkpt lat="43.2384293" lon="11.5577464"><ele>177.33333333333334</ele><time>2026-05-03T07:10:18.16Z</time></trkpt><trkpt lat="43.2383507" lon="11.5577702"><ele>177.16666666666666</ele><time>2026-05-03T07:10:19.161Z</time></trkpt><trkpt lat="43.2382739" lon="11.5578047"><ele>177.0</ele><time>2026-05-03T07:10:20.161Z</time></trkpt><trkpt lat="43.2381627" lon="11.5579042"><ele>177.5</ele><time>2026-05-03T07:10:22.161Z</time></trkpt><trkpt lat="43.2380979" lon="11.5579741"><ele>178.0</ele><time>2026-05-03T07:10:23.162Z</time></trkpt><trkpt lat="43.2380946" lon="11.5580897"><ele>178.5</ele><time>2026-05-03T07:10:24.162Z</time></trkpt><trkpt lat="43.2380988" lon="11.5582427"><ele>179.0</ele><time>2026-05-03T07:10:25.161Z</time></trkpt><trkpt lat="43.238095" lon="11.5583654"><ele>179.5</ele><time>2026-05-03T07:10:26.161Z</time></trkpt><trkpt lat="43.2380948" lon="11.5584769"><ele>180.0</ele><time>2026-05-03T07:10:27.161Z</time></trkpt><trkpt lat="43.2381022" lon="11.5585882"><ele>180.0</ele><time>2026-05-03T07:10:28.162Z</time></trkpt><trkpt lat="43.238111" lon="11.5586999"><ele>180.0</ele><time>2026-05-03T07:10:29.161Z</time></trkpt><trkpt lat="43.2381398" lon="11.5587997"><ele>180.0</ele><time>2026-05-03T07:10:30.162Z</time></trkpt><trkpt lat="43.2381779" lon="11.5589019"><ele>180.0</ele><time>2026-05-03T07:10:31.162Z</time></trkpt><trkpt lat="43.2382135" lon="11.5590019"><ele>180.0</ele><time>2026-05-03T07:10:32.161Z</time></trkpt><trkpt lat="43.2382527" lon="11.559103"><ele>180.0</ele><time>2026-05-03T07:10:33.162Z</time></trkpt><trkpt lat="43.2382853" lon="11.559194"><ele>180.2</ele><time>2026-05-03T07:10:34.162Z</time></trkpt><trkpt lat="43.2382969" lon="11.5593495"><ele>180.4</ele><time>2026-05-03T07:10:36.162Z</time></trkpt><trkpt lat="43.2382466" lon="11.5595267"><ele>180.60000000000002</ele><time>2026-05-03T07:10:38.162Z</time></trkpt><trkpt lat="43.2382093" lon="11.559629"><ele>180.8</ele><time>2026-05-03T07:10:39.161Z</time></trkpt><trkpt lat="43.238169" lon="11.559735"><ele>181.0</ele><time>2026-05-03T07:10:40.161Z</time></trkpt><trkpt lat="43.2381291" lon="11.5598419"><ele>181.60000000000002</ele><time>2026-05-03T07:10:41.161Z</time></trkpt><trkpt lat="43.2380872" lon="11.5599509"><ele>182.2</ele><time>2026-05-03T07:10:42.161Z</time></trkpt><trkpt lat="43.2380474" lon="11.5600704"><ele>182.8</ele><time>2026-05-03T07:10:43.161Z</time></trkpt><trkpt lat="43.2380123" lon="11.5601955"><ele>183.39999999999998</ele><time>2026-05-03T07:10:44.162Z</time></trkpt><trkpt lat="43.2379817" lon="11.5603291"><ele>184.0</ele><time>2026-05-03T07:10:45.16Z</time></trkpt><trkpt lat="43.2379609" lon="11.5604697"><ele>187.39999999999998</ele><time>2026-05-03T07:10:46.162Z</time></trkpt><trkpt lat="43.2379462" lon="11.5606181"><ele>190.8</ele><time>2026-05-03T07:10:47.162Z</time></trkpt><trkpt lat="43.2379297" lon="11.5607679"><ele>194.2</ele><time>2026-05-03T07:10:48.161Z</time></trkpt><trkpt lat="43.2379145" lon="11.5609152"><ele>197.60000000000002</ele><time>2026-05-03T07:10:49.161Z</time></trkpt><trkpt lat="43.2378969" lon="11.5610575"><ele>201.0</ele><time>2026-05-03T07:10:50.161Z</time></trkpt><trkpt lat="43.2378734" lon="11.5611947"><ele>203.60000000000002</ele><time>2026-05-03T07:10:51.161Z</time></trkpt><trkpt lat="43.2378322" lon="11.5613268"><ele>206.2</ele><time>2026-05-03T07:10:52.162Z</time></trkpt><trkpt lat="43.2377821" lon="11.561451"><ele>208.79999999999998</ele><time>2026-05-03T07:10:53.162Z</time></trkpt><trkpt lat="43.2377331" lon="11.5615804"><ele>211.39999999999998</ele><time>2026-05-03T07:10:54.162Z</time></trkpt><trkpt lat="43.2376794" lon="11.5617127"><ele>214.0</ele><time>2026-05-03T07:10:55.162Z</time></trkpt><trkpt lat="43.2376194" lon="11.5618385"><ele>214.0</ele><time>2026-05-03T07:10:56.161Z</time></trkpt><trkpt lat="43.2375629" lon="11.5619655"><ele>213.99999999999997</ele><time>2026-05-03T07:10:57.161Z</time></trkpt><trkpt lat="43.2375079" lon="11.5620944"><ele>213.99999999999997</ele><time>2026-05-03T07:10:58.161Z</time></trkpt><trkpt lat="43.2374624" lon="11.5622271"><ele>214.0</ele><time>2026-05-03T07:10:59.162Z</time></trkpt><trkpt lat="43.2374268" lon="11.5623536"><ele>214.0</ele><time>2026-05-03T07:11:00.161Z</time></trkpt><trkpt lat="43.2373955" lon="11.5624717"><ele>215.0</ele><time>2026-05-03T07:11:01.162Z</time></trkpt><trkpt lat="43.2373592" lon="11.5626019"><ele>216.0</ele><time>2026-05-03T07:11:02.162Z</time></trkpt><trkpt lat="43.2373147" lon="11.5627519"><ele>217.0</ele><time>2026-05-03T07:11:03.162Z</time></trkpt><trkpt lat="43.2372666" lon="11.5629055"><ele>218.0</ele><time>2026-05-03T07:11:04.162Z</time></trkpt><trkpt lat="43.237219" lon="11.5630524"><ele>218.4</ele><time>2026-05-03T07:11:05.162Z</time></trkpt><trkpt lat="43.2371756" lon="11.5631927"><ele>218.8</ele><time>2026-05-03T07:11:06.161Z</time></trkpt><trkpt lat="43.2371508" lon="11.5633162"><ele>219.2</ele><time>2026-05-03T07:11:07.161Z</time></trkpt><trkpt lat="43.2371327" lon="11.5634279"><ele>219.6</ele><time>2026-05-03T07:11:08.161Z</time></trkpt><trkpt lat="43.2371125" lon="11.5635364"><ele>220.0</ele><time>2026-05-03T07:11:09.162Z</time></trkpt><trkpt lat="43.2370904" lon="11.5636518"><ele>220.66666666666666</ele><time>2026-05-03T07:11:10.16Z</time></trkpt><trkpt lat="43.2370793" lon="11.5637495"><ele>221.33333333333331</ele><time>2026-05-03T07:11:11.162Z</time></trkpt><trkpt lat="43.237089" lon="11.5638518"><ele>222.0</ele><time>2026-05-03T07:11:13.162Z</time></trkpt><trkpt lat="43.2371111" lon="11.56396"><ele>222.66666666666669</ele><time>2026-05-03T07:11:16.162Z</time></trkpt><trkpt lat="43.2371393" lon="11.5640759"><ele>223.33333333333334</ele><time>2026-05-03T07:11:19.161Z</time></trkpt><trkpt lat="43.2371666" lon="11.5641756"><ele>224.0</ele><time>2026-05-03T07:11:21.162Z</time></trkpt><trkpt lat="43.2372003" lon="11.5642665"><ele>224.0</ele><time>2026-05-03T07:11:23.162Z</time></trkpt><trkpt lat="43.2372281" lon="11.5643474"><ele>223.99999999999997</ele><time>2026-05-03T07:11:25.162Z</time></trkpt><trkpt lat="43.2372705" lon="11.564444"><ele>223.99999999999997</ele><time>2026-05-03T07:11:27.16Z</time></trkpt><trkpt lat="43.2373169" lon="11.564587"><ele>224.0</ele><time>2026-05-03T07:11:29.162Z</time></trkpt><trkpt lat="43.2373062" lon="11.5646874"><ele>224.0</ele><time>2026-05-03T07:11:30.162Z</time></trkpt><trkpt lat="43.2373431" lon="11.5648572"><ele>224.0</ele><time>2026-05-03T07:11:32.16Z</time></trkpt><trkpt lat="43.2373664" lon="11.5649452"><ele>223.99999999999997</ele><time>2026-05-03T07:11:33.162Z</time></trkpt><trkpt lat="43.23739" lon="11.5651101"><ele>223.99999999999997</ele><time>2026-05-03T07:11:35.162Z</time></trkpt><trkpt lat="43.2373959" lon="11.5652822"><ele>224.0</ele><time>2026-05-03T07:11:37.162Z</time></trkpt><trkpt lat="43.2374058" lon="11.5653779"><ele>224.0</ele><time>2026-05-03T07:11:38.162Z</time></trkpt><trkpt lat="43.2374196" lon="11.565474"><ele>224.14285714285714</ele><time>2026-05-03T07:11:39.162Z</time></trkpt><trkpt lat="43.2374224" lon="11.5655739"><ele>224.28571428571428</ele><time>2026-05-03T07:11:40.162Z</time></trkpt><trkpt lat="43.2374325" lon="11.5656716"><ele>224.42857142857144</ele><time>2026-05-03T07:11:41.162Z</time></trkpt><trkpt lat="43.2374449" lon="11.5657684"><ele>224.57142857142858</ele><time>2026-05-03T07:11:42.161Z</time></trkpt><trkpt lat="43.2374459" lon="11.565862"><ele>224.71428571428572</ele><time>2026-05-03T07:11:43.162Z</time></trkpt><trkpt lat="43.237453" lon="11.565962"><ele>224.8571428571429</ele><time>2026-05-03T07:11:44.162Z</time></trkpt><trkpt lat="43.237457" lon="11.5660651"><ele>225.00000000000003</ele><time>2026-05-03T07:11:45.161Z</time></trkpt><trkpt lat="43.2374536" lon="11.5661663"><ele>225.33333333333334</ele><time>2026-05-03T07:11:46.161Z</time></trkpt><trkpt lat="43.237452" lon="11.5662725"><ele>225.66666666666669</ele><time>2026-05-03T07:11:47.162Z</time></trkpt><trkpt lat="43.2374491" lon="11.5663761"><ele>226.0</ele><time>2026-05-03T07:11:48.162Z</time></trkpt><trkpt lat="43.2374454" lon="11.5664911"><ele>226.33333333333334</ele><time>2026-05-03T07:11:49.161Z</time></trkpt><trkpt lat="43.2374433" lon="11.5666075"><ele>226.66666666666669</ele><time>2026-05-03T07:11:50.161Z</time></trkpt><trkpt lat="43.2374365" lon="11.566716"><ele>227.0</ele><time>2026-05-03T07:11:51.161Z</time></trkpt><trkpt lat="43.2374248" lon="11.5668146"><ele>227.00000000000003</ele><time>2026-05-03T07:11:52.16Z</time></trkpt><trkpt lat="43.2373907" lon="11.5669732"><ele>227.0</ele><time>2026-05-03T07:11:54.161Z</time></trkpt><trkpt lat="43.2373778" lon="11.5670604"><ele>227.0</ele><time>2026-05-03T07:11:55.162Z</time></trkpt><trkpt lat="43.2373721" lon="11.5671623"><ele>227.0</ele><time>2026-05-03T07:11:56.162Z</time></trkpt><trkpt lat="43.2373718" lon="11.5672668"><ele>227.00000000000003</ele><time>2026-05-03T07:11:57.162Z</time></trkpt><trkpt lat="43.2373537" lon="11.5673993"><ele>227.0</ele><time>2026-05-03T07:11:58.161Z</time></trkpt><trkpt lat="43.2373415" lon="11.5675175"><ele>227.50000000000003</ele><time>2026-05-03T07:11:59.161Z</time></trkpt><trkpt lat="43.2373224" lon="11.5676324"><ele>228.0</ele><time>2026-05-03T07:12:00.161Z</time></trkpt><trkpt lat="43.2372942" lon="11.567737"><ele>228.5</ele><time>2026-05-03T07:12:01.161Z</time></trkpt><trkpt lat="43.2372658" lon="11.5678446"><ele>229.0</ele><time>2026-05-03T07:12:02.161Z</time></trkpt><trkpt lat="43.2372086" lon="11.567932"><ele>229.50000000000003</ele><time>2026-05-03T07:12:03.161Z</time></trkpt><trkpt lat="43.2371497" lon="11.5680197"><ele>230.0</ele><time>2026-05-03T07:12:04.16Z</time></trkpt><trkpt lat="43.2370931" lon="11.5681016"><ele>232.16666666666669</ele><time>2026-05-03T07:12:05.162Z</time></trkpt><trkpt lat="43.2370313" lon="11.5681881"><ele>234.33333333333334</ele><time>2026-05-03T07:12:06.161Z</time></trkpt><trkpt lat="43.2369773" lon="11.5682773"><ele>236.5</ele><time>2026-05-03T07:12:07.161Z</time></trkpt><trkpt lat="43.2368989" lon="11.568386"><ele>238.66666666666669</ele><time>2026-05-03T07:12:09.162Z</time></trkpt><trkpt lat="43.2368561" lon="11.5684531"><ele>240.83333333333334</ele><time>2026-05-03T07:12:10.162Z</time></trkpt><trkpt lat="43.2368159" lon="11.5685293"><ele>243.0</ele><time>2026-05-03T07:12:11.161Z</time></trkpt><trkpt lat="43.2367912" lon="11.5686157"><ele>245.0</ele><time>2026-05-03T07:12:12.16Z</time></trkpt><trkpt lat="43.2367574" lon="11.5686999"><ele>247.0</ele><time>2026-05-03T07:12:13.161Z</time></trkpt><trkpt lat="43.2367183" lon="11.5687829"><ele>249.0</ele><time>2026-05-03T07:12:14.161Z</time></trkpt><trkpt lat="43.23669" lon="11.5688678"><ele>251.0</ele><time>2026-05-03T07:12:16.162Z</time></trkpt><trkpt lat="43.2366619" lon="11.5689494"><ele>253.0</ele><time>2026-05-03T07:12:20.162Z</time></trkpt><trkpt lat="43.2366144" lon="11.5690627"><ele>255.0</ele><time>2026-05-03T07:12:24.161Z</time></trkpt><trkpt lat="43.236568" lon="11.569185"><ele>255.0</ele><time>2026-05-03T07:12:27.162Z</time></trkpt><trkpt lat="43.2365855" lon="11.5693378"><ele>255.0</ele><time>2026-05-03T07:12:29.162Z</time></trkpt><trkpt lat="43.2365701" lon="11.5694505"><ele>255.0</ele><time>2026-05-03T07:12:31.162Z</time></trkpt><trkpt lat="43.236511" lon="11.5695424"><ele>255.0</ele><time>2026-05-03T07:12:33.162Z</time></trkpt><trkpt lat="43.2364813" lon="11.569632"><ele>255.0</ele><time>2026-05-03T07:12:35.162Z</time></trkpt><trkpt lat="43.2365281" lon="11.5697052"><ele>255.0</ele><time>2026-05-03T07:12:38.16Z</time></trkpt><trkpt lat="43.2365989" lon="11.5697025"><ele>255.0</ele><time>2026-05-03T07:12:40.162Z</time></trkpt><trkpt lat="43.2366885" lon="11.5697064"><ele>255.0</ele><time>2026-05-03T07:12:42.162Z</time></trkpt><trkpt lat="43.236821" lon="11.5696939"><ele>255.0</ele><time>2026-05-03T07:12:44.162Z</time></trkpt><trkpt lat="43.2368962" lon="11.5696882"><ele>255.0</ele><time>2026-05-03T07:12:45.162Z</time></trkpt><trkpt lat="43.2369812" lon="11.5696878"><ele>255.0</ele><time>2026-05-03T07:12:46.162Z</time></trkpt><trkpt lat="43.2370714" lon="11.5697004"><ele>255.0</ele><time>2026-05-03T07:12:47.162Z</time></trkpt><trkpt lat="43.237163" lon="11.5697189"><ele>255.0</ele><time>2026-05-03T07:12:48.162Z</time></trkpt><trkpt lat="43.2372557" lon="11.5697376"><ele>255.0</ele><time>2026-05-03T07:12:49.161Z</time></trkpt><trkpt lat="43.2373498" lon="11.5697468"><ele>255.0</ele><time>2026-05-03T07:12:50.162Z</time></trkpt><trkpt lat="43.2374457" lon="11.569749"><ele>255.0</ele><time>2026-05-03T07:12:51.162Z</time></trkpt><trkpt lat="43.2375379" lon="11.5697543"><ele>255.8</ele><time>2026-05-03T07:12:52.16Z</time></trkpt><trkpt lat="43.2376227" lon="11.5697692"><ele>256.6</ele><time>2026-05-03T07:12:53.162Z</time></trkpt><trkpt lat="43.2377046" lon="11.5698025"><ele>257.4</ele><time>2026-05-03T07:12:54.161Z</time></trkpt><trkpt lat="43.2377853" lon="11.5698562"><ele>258.2</ele><time>2026-05-03T07:12:55.162Z</time></trkpt><trkpt lat="43.2378685" lon="11.5699203"><ele>259.0</ele><time>2026-05-03T07:12:56.162Z</time></trkpt><trkpt lat="43.2379539" lon="11.5699943"><ele>259.0</ele><time>2026-05-03T07:12:57.162Z</time></trkpt><trkpt lat="43.2380437" lon="11.5700656"><ele>259.0</ele><time>2026-05-03T07:12:58.161Z</time></trkpt><trkpt lat="43.2381371" lon="11.5701386"><ele>259.0</ele><time>2026-05-03T07:12:59.161Z</time></trkpt><trkpt lat="43.2382242" lon="11.5702226"><ele>259.0</ele><time>2026-05-03T07:13:00.161Z</time></trkpt><trkpt lat="43.2382909" lon="11.5703073"><ele>259.0</ele><time>2026-05-03T07:13:01.161Z</time></trkpt><trkpt lat="43.2383482" lon="11.5703859"><ele>259.4</ele><time>2026-05-03T07:13:02.16Z</time></trkpt><trkpt lat="43.2384138" lon="11.570472"><ele>259.79999999999995</ele><time>2026-05-03T07:13:03.161Z</time></trkpt><trkpt lat="43.2384911" lon="11.5705694"><ele>260.20000000000005</ele><time>2026-05-03T07:13:04.161Z</time></trkpt><trkpt lat="43.238578" lon="11.5706721"><ele>260.6</ele><time>2026-05-03T07:13:05.161Z</time></trkpt><trkpt lat="43.2386728" lon="11.5707686"><ele>261.0</ele><time>2026-05-03T07:13:06.162Z</time></trkpt><trkpt lat="43.2387777" lon="11.5708542"><ele>261.0</ele><time>2026-05-03T07:13:07.16Z</time></trkpt><trkpt lat="43.2388815" lon="11.5709232"><ele>261.0</ele><time>2026-05-03T07:13:08.161Z</time></trkpt><trkpt lat="43.2389816" lon="11.5709905"><ele>261.0</ele><time>2026-05-03T07:13:09.162Z</time></trkpt><trkpt lat="43.2390843" lon="11.5710694"><ele>261.0</ele><time>2026-05-03T07:13:10.161Z</time></trkpt><trkpt lat="43.239179" lon="11.5711658"><ele>260.0</ele><time>2026-05-03T07:13:11.162Z</time></trkpt><trkpt lat="43.2392691" lon="11.5712784"><ele>259.0</ele><time>2026-05-03T07:13:12.161Z</time></trkpt><trkpt lat="43.2393568" lon="11.5713991"><ele>258.0</ele><time>2026-05-03T07:13:13.161Z</time></trkpt><trkpt lat="43.2394443" lon="11.5715172"><ele>257.0</ele><time>2026-05-03T07:13:14.161Z</time></trkpt><trkpt lat="43.2395293" lon="11.5716327"><ele>257.0</ele><time>2026-05-03T07:13:15.161Z</time></trkpt><trkpt lat="43.2396062" lon="11.5717405"><ele>257.0</ele><time>2026-05-03T07:13:16.161Z</time></trkpt><trkpt lat="43.2396797" lon="11.5718408"><ele>257.0</ele><time>2026-05-03T07:13:17.162Z</time></trkpt><trkpt lat="43.2397462" lon="11.5719417"><ele>257.0</ele><time>2026-05-03T07:13:18.161Z</time></trkpt><trkpt lat="43.23982" lon="11.5720495"><ele>257.0</ele><time>2026-05-03T07:13:19.162Z</time></trkpt><trkpt lat="43.2399012" lon="11.5721662"><ele>256.0</ele><time>2026-05-03T07:13:20.162Z</time></trkpt><trkpt lat="43.2399825" lon="11.5722779"><ele>255.0</ele><time>2026-05-03T07:13:21.162Z</time></trkpt><trkpt lat="43.2400609" lon="11.5723863"><ele>254.0</ele><time>2026-05-03T07:13:22.161Z</time></trkpt><trkpt lat="43.2401348" lon="11.5724904"><ele>253.0</ele><time>2026-05-03T07:13:23.161Z</time></trkpt><trkpt lat="43.240202" lon="11.5725928"><ele>252.0</ele><time>2026-05-03T07:13:24.162Z</time></trkpt><trkpt lat="43.2402679" lon="11.572691"><ele>252.0</ele><time>2026-05-03T07:13:25.162Z</time></trkpt><trkpt lat="43.2403199" lon="11.5727828"><ele>252.0</ele><time>2026-05-03T07:13:26.161Z</time></trkpt><trkpt lat="43.2403643" lon="11.5728553"><ele>252.0</ele><time>2026-05-03T07:13:27.162Z</time></trkpt><trkpt lat="43.2404254" lon="11.5729584"><ele>252.0</ele><time>2026-05-03T07:13:29.162Z</time></trkpt><trkpt lat="43.2404291" lon="11.5730476"><ele>252.0</ele><time>2026-05-03T07:13:31.162Z</time></trkpt><trkpt lat="43.2403728" lon="11.5730922"><ele>252.0</ele><time>2026-05-03T07:13:33.162Z</time></trkpt><trkpt lat="43.2402242" lon="11.5730958"><ele>251.39999999999998</ele><time>2026-05-03T07:13:35.161Z</time></trkpt><trkpt lat="43.2401285" lon="11.5730914"><ele>250.79999999999998</ele><time>2026-05-03T07:13:36.161Z</time></trkpt><trkpt lat="43.2400231" lon="11.573088"><ele>250.2</ele><time>2026-05-03T07:13:37.161Z</time></trkpt><trkpt lat="43.2399135" lon="11.5730848"><ele>249.6</ele><time>2026-05-03T07:13:38.161Z</time></trkpt><trkpt lat="43.2398" lon="11.5730804"><ele>249.0</ele><time>2026-05-03T07:13:39.162Z</time></trkpt><trkpt lat="43.2396934" lon="11.5730733"><ele>248.66666666666666</ele><time>2026-05-03T07:13:40.162Z</time></trkpt><trkpt lat="43.2395944" lon="11.573069"><ele>248.33333333333331</ele><time>2026-05-03T07:13:41.161Z</time></trkpt><trkpt lat="43.2395035" lon="11.5730646"><ele>248.0</ele><time>2026-05-03T07:13:42.162Z</time></trkpt><trkpt lat="43.2394214" lon="11.573063"><ele>247.66666666666666</ele><time>2026-05-03T07:13:43.162Z</time></trkpt><trkpt lat="43.2393448" lon="11.573058"><ele>247.33333333333331</ele><time>2026-05-03T07:13:44.162Z</time></trkpt><trkpt lat="43.2392734" lon="11.5730522"><ele>247.0</ele><time>2026-05-03T07:13:45.162Z</time></trkpt><trkpt lat="43.2392083" lon="11.5730478"><ele>246.99999999999997</ele><time>2026-05-03T07:13:46.162Z</time></trkpt><trkpt lat="43.2391054" lon="11.5730383"><ele>247.0</ele><time>2026-05-03T07:13:48.16Z</time></trkpt><trkpt lat="43.2390255" lon="11.5730296"><ele>247.0</ele><time>2026-05-03T07:13:50.162Z</time></trkpt><trkpt lat="43.2389471" lon="11.5730345"><ele>247.0</ele><time>2026-05-03T07:13:53.161Z</time></trkpt><trkpt lat="43.2390099" lon="11.5730023"><ele>246.99999999999997</ele><time>2026-05-03T07:14:01.16Z</time></trkpt><trkpt lat="43.2390958" lon="11.5730128"><ele>247.0</ele><time>2026-05-03T07:14:09.161Z</time></trkpt><trkpt lat="43.2391641" lon="11.5730258"><ele>247.0</ele><time>2026-05-03T07:14:10.161Z</time></trkpt><trkpt lat="43.2392416" lon="11.5730368"><ele>247.0</ele><time>2026-05-03T07:14:11.161Z</time></trkpt><trkpt lat="43.2393328" lon="11.5730452"><ele>247.0</ele><time>2026-05-03T07:14:12.161Z</time></trkpt><trkpt lat="43.2394301" lon="11.5730514"><ele>247.0</ele><time>2026-05-03T07:14:13.161Z</time></trkpt><trkpt lat="43.2395351" lon="11.5730594"><ele>247.0</ele><time>2026-05-03T07:14:14.162Z</time></trkpt><trkpt lat="43.2396411" lon="11.5730658"><ele>247.0</ele><time>2026-05-03T07:14:15.161Z</time></trkpt><trkpt lat="43.2397487" lon="11.5730711"><ele>247.0</ele><time>2026-05-03T07:14:16.161Z</time></trkpt><trkpt lat="43.2398559" lon="11.5730779"><ele>247.0</ele><time>2026-05-03T07:14:17.162Z</time></trkpt><trkpt lat="43.2399651" lon="11.5730803"><ele>247.0</ele><time>2026-05-03T07:14:18.16Z</time></trkpt><trkpt lat="43.2400729" lon="11.5730831"><ele>247.0</ele><time>2026-05-03T07:14:19.162Z</time></trkpt><trkpt lat="43.2401786" lon="11.5730841"><ele>247.39999999999998</ele><time>2026-05-03T07:14:20.16Z</time></trkpt><trkpt lat="43.240282" lon="11.5730868"><ele>247.79999999999998</ele><time>2026-05-03T07:14:21.162Z</time></trkpt><trkpt lat="43.2403808" lon="11.5730924"><ele>248.2</ele><time>2026-05-03T07:14:22.16Z</time></trkpt><trkpt lat="43.2404751" lon="11.5731207"><ele>248.6</ele><time>2026-05-03T07:14:23.161Z</time></trkpt><trkpt lat="43.2405603" lon="11.573175"><ele>249.0</ele><time>2026-05-03T07:14:24.161Z</time></trkpt><trkpt lat="43.2406403" lon="11.5732439"><ele>249.39999999999998</ele><time>2026-05-03T07:14:25.162Z</time></trkpt><trkpt lat="43.2407171" lon="11.5733239"><ele>249.79999999999998</ele><time>2026-05-03T07:14:26.161Z</time></trkpt><trkpt lat="43.2407969" lon="11.5734053"><ele>250.20000000000002</ele><time>2026-05-03T07:14:27.161Z</time></trkpt><trkpt lat="43.2408859" lon="11.5734804"><ele>250.60000000000002</ele><time>2026-05-03T07:14:28.161Z</time></trkpt><trkpt lat="43.240984" lon="11.573545"><ele>251.0</ele><time>2026-05-03T07:14:29.161Z</time></trkpt><trkpt lat="43.2410867" lon="11.5735986"><ele>251.0</ele><time>2026-05-03T07:14:30.162Z</time></trkpt><trkpt lat="43.241193" lon="11.5736514"><ele>251.0</ele><time>2026-05-03T07:14:31.16Z</time></trkpt><trkpt lat="43.2412994" lon="11.5737083"><ele>251.0</ele><time>2026-05-03T07:14:32.161Z</time></trkpt><trkpt lat="43.2414082" lon="11.5737674"><ele>251.0</ele><time>2026-05-03T07:14:33.161Z</time></trkpt><trkpt lat="43.2415134" lon="11.5738271"><ele>250.5</ele><time>2026-05-03T07:14:34.162Z</time></trkpt><trkpt lat="43.2416196" lon="11.5738873"><ele>250.0</ele><time>2026-05-03T07:14:35.162Z</time></trkpt><trkpt lat="43.241728" lon="11.5739441"><ele>249.5</ele><time>2026-05-03T07:14:36.162Z</time></trkpt><trkpt lat="43.2418362" lon="11.574"><ele>249.0</ele><time>2026-05-03T07:14:37.162Z</time></trkpt><trkpt lat="43.2419464" lon="11.5740551"><ele>249.0</ele><time>2026-05-03T07:14:38.162Z</time></trkpt><trkpt lat="43.2420595" lon="11.5741075"><ele>249.0</ele><time>2026-05-03T07:14:39.162Z</time></trkpt><trkpt lat="43.2421696" lon="11.5741626"><ele>249.0</ele><time>2026-05-03T07:14:40.162Z</time></trkpt><trkpt lat="43.2422787" lon="11.5742229"><ele>249.0</ele><time>2026-05-03T07:14:41.16Z</time></trkpt><trkpt lat="43.2423886" lon="11.5742875"><ele>248.75</ele><time>2026-05-03T07:14:42.161Z</time></trkpt><trkpt lat="43.2424981" lon="11.5743566"><ele>248.5</ele><time>2026-05-03T07:14:43.162Z</time></trkpt><trkpt lat="43.2426041" lon="11.5744263"><ele>248.25</ele><time>2026-05-03T07:14:44.161Z</time></trkpt><trkpt lat="43.2427053" lon="11.5745047"><ele>248.0</ele><time>2026-05-03T07:14:45.161Z</time></trkpt><trkpt lat="43.2428063" lon="11.5745831"><ele>248.0</ele><time>2026-05-03T07:14:46.162Z</time></trkpt><trkpt lat="43.2429065" lon="11.5746649"><ele>248.0</ele><time>2026-05-03T07:14:47.161Z</time></trkpt><trkpt lat="43.2430069" lon="11.5747484"><ele>248.0</ele><time>2026-05-03T07:14:48.162Z</time></trkpt><trkpt lat="43.2431075" lon="11.5748337"><ele>248.0</ele><time>2026-05-03T07:14:49.162Z</time></trkpt><trkpt lat="43.2432133" lon="11.5749185"><ele>248.25</ele><time>2026-05-03T07:14:50.162Z</time></trkpt><trkpt lat="43.2433215" lon="11.5750078"><ele>248.5</ele><time>2026-05-03T07:14:51.161Z</time></trkpt><trkpt lat="43.2434298" lon="11.5751048"><ele>248.75</ele><time>2026-05-03T07:14:52.16Z</time></trkpt><trkpt lat="43.2435379" lon="11.5752095"><ele>249.0</ele><time>2026-05-03T07:14:53.162Z</time></trkpt><trkpt lat="43.2436443" lon="11.5753186"><ele>249.0</ele><time>2026-05-03T07:14:54.161Z</time></trkpt><trkpt lat="43.2437461" lon="11.575433"><ele>249.0</ele><time>2026-05-03T07:14:55.161Z</time></trkpt><trkpt lat="43.2438486" lon="11.5755537"><ele>249.0</ele><time>2026-05-03T07:14:56.162Z</time></trkpt><trkpt lat="43.243943" lon="11.5756916"><ele>249.0</ele><time>2026-05-03T07:14:57.161Z</time></trkpt><trkpt lat="43.2440245" lon="11.5758437"><ele>249.0</ele><time>2026-05-03T07:14:58.161Z</time></trkpt><trkpt lat="43.2440956" lon="11.5760102"><ele>249.0</ele><time>2026-05-03T07:14:59.161Z</time></trkpt><trkpt lat="43.244157" lon="11.5761848"><ele>249.0</ele><time>2026-05-03T07:15:00.161Z</time></trkpt><trkpt lat="43.2442094" lon="11.5763675"><ele>249.0</ele><time>2026-05-03T07:15:01.162Z</time></trkpt><trkpt lat="43.2442585" lon="11.5765538"><ele>248.75</ele><time>2026-05-03T07:15:02.161Z</time></trkpt><trkpt lat="43.2443065" lon="11.5767424"><ele>248.5</ele><time>2026-05-03T07:15:03.161Z</time></trkpt><trkpt lat="43.2443535" lon="11.576928"><ele>248.25</ele><time>2026-05-03T07:15:04.161Z</time></trkpt><trkpt lat="43.2444035" lon="11.5771129"><ele>248.0</ele><time>2026-05-03T07:15:05.161Z</time></trkpt><trkpt lat="43.2444615" lon="11.5772966"><ele>248.0</ele><time>2026-05-03T07:15:06.161Z</time></trkpt><trkpt lat="43.2445293" lon="11.5774725"><ele>248.0</ele><time>2026-05-03T07:15:07.162Z</time></trkpt><trkpt lat="43.2445999" lon="11.5776306"><ele>248.0</ele><time>2026-05-03T07:15:08.162Z</time></trkpt><trkpt lat="43.2446639" lon="11.5777611"><ele>248.0</ele><time>2026-05-03T07:15:09.162Z</time></trkpt><trkpt lat="43.244731" lon="11.5778718"><ele>248.4</ele><time>2026-05-03T07:15:10.162Z</time></trkpt><trkpt lat="43.244808" lon="11.5779486"><ele>248.8</ele><time>2026-05-03T07:15:11.161Z</time></trkpt><trkpt lat="43.2448928" lon="11.5779978"><ele>249.2</ele><time>2026-05-03T07:15:12.161Z</time></trkpt><trkpt lat="43.2449934" lon="11.578016"><ele>249.6</ele><time>2026-05-03T07:15:13.161Z</time></trkpt><trkpt lat="43.245096" lon="11.5780084"><ele>250.0</ele><time>2026-05-03T07:15:14.162Z</time></trkpt><trkpt lat="43.2452059" lon="11.5779974"><ele>250.0</ele><time>2026-05-03T07:15:15.162Z</time></trkpt><trkpt lat="43.2453229" lon="11.5779847"><ele>250.0</ele><time>2026-05-03T07:15:16.161Z</time></trkpt><trkpt lat="43.2454391" lon="11.5779716"><ele>250.0</ele><time>2026-05-03T07:15:17.162Z</time></trkpt><trkpt lat="43.2455411" lon="11.5779681"><ele>250.0</ele><time>2026-05-03T07:15:18.162Z</time></trkpt><trkpt lat="43.2456317" lon="11.5779646"><ele>250.0</ele><time>2026-05-03T07:15:19.16Z</time></trkpt><trkpt lat="43.2457041" lon="11.5779646"><ele>250.99999999999997</ele><time>2026-05-03T07:15:20.162Z</time></trkpt><trkpt lat="43.2457921" lon="11.5779529"><ele>252.0</ele><time>2026-05-03T07:15:22.162Z</time></trkpt><trkpt lat="43.2458691" lon="11.5779351"><ele>253.0</ele><time>2026-05-03T07:15:24.162Z</time></trkpt><trkpt lat="43.2459395" lon="11.5779311"><ele>254.0</ele><time>2026-05-03T07:15:27.161Z</time></trkpt><trkpt lat="43.2460104" lon="11.5779148"><ele>254.99999999999997</ele><time>2026-05-03T07:15:29.162Z</time></trkpt><trkpt lat="43.2461017" lon="11.5779063"><ele>256.0</ele><time>2026-05-03T07:15:31.161Z</time></trkpt><trkpt lat="43.2460129" lon="11.5779392"><ele>256.0</ele><time>2026-05-03T07:15:39.161Z</time></trkpt><trkpt lat="43.2458725" lon="11.5779667"><ele>256.0</ele><time>2026-05-03T07:15:41.162Z</time></trkpt><trkpt lat="43.2458032" lon="11.5779764"><ele>256.0</ele><time>2026-05-03T07:15:42.162Z</time></trkpt><trkpt lat="43.2457361" lon="11.5779933"><ele>256.0</ele><time>2026-05-03T07:15:44.162Z</time></trkpt><trkpt lat="43.2457927" lon="11.5780691"><ele>256.0</ele><time>2026-05-03T07:15:48.161Z</time></trkpt><trkpt lat="43.2458956" lon="11.578159"><ele>255.99999999999997</ele><time>2026-05-03T07:15:50.162Z</time></trkpt><trkpt lat="43.2459619" lon="11.5782156"><ele>256.0</ele><time>2026-05-03T07:15:51.161Z</time></trkpt><trkpt lat="43.2460323" lon="11.5782798"><ele>256.0</ele><time>2026-05-03T07:15:52.162Z</time></trkpt><trkpt lat="43.2461019" lon="11.5783408"><ele>256.0</ele><time>2026-05-03T07:15:53.162Z</time></trkpt><trkpt lat="43.2461616" lon="11.578398"><ele>255.99999999999997</ele><time>2026-05-03T07:15:54.16Z</time></trkpt><trkpt lat="43.2462092" lon="11.5784614"><ele>256.0</ele><time>2026-05-03T07:15:55.162Z</time></trkpt><trkpt lat="43.2462478" lon="11.5785376"><ele>255.99999999999997</ele><time>2026-05-03T07:15:56.162Z</time></trkpt><trkpt lat="43.246275" lon="11.578624"><ele>256.0</ele><time>2026-05-03T07:15:57.162Z</time></trkpt><trkpt lat="43.2462939" lon="11.5787072"><ele>256.0</ele><time>2026-05-03T07:15:58.161Z</time></trkpt><trkpt lat="43.2463083" lon="11.5787964"><ele>256.0</ele><time>2026-05-03T07:15:59.162Z</time></trkpt><trkpt lat="43.2463453" lon="11.5789588"><ele>255.99999999999997</ele><time>2026-05-03T07:16:01.161Z</time></trkpt><trkpt lat="43.2463791" lon="11.5791097"><ele>256.0</ele><time>2026-05-03T07:16:03.162Z</time></trkpt><trkpt lat="43.2463965" lon="11.579198"><ele>256.0</ele><time>2026-05-03T07:16:04.162Z</time></trkpt><trkpt lat="43.2464316" lon="11.5792745"><ele>256.0</ele><time>2026-05-03T07:16:05.161Z</time></trkpt><trkpt lat="43.2464922" lon="11.5793554"><ele>256.0</ele><time>2026-05-03T07:16:06.162Z</time></trkpt><trkpt lat="43.2465813" lon="11.5794415"><ele>256.0</ele><time>2026-05-03T07:16:07.162Z</time></trkpt><trkpt lat="43.2466928" lon="11.5795387"><ele>256.0</ele><time>2026-05-03T07:16:08.162Z</time></trkpt><trkpt lat="43.2468017" lon="11.5796382"><ele>256.0</ele><time>2026-05-03T07:16:09.162Z</time></trkpt><trkpt lat="43.2469054" lon="11.5797246"><ele>256.0</ele><time>2026-05-03T07:16:10.161Z</time></trkpt><trkpt lat="43.2470109" lon="11.5798126"><ele>256.0</ele><time>2026-05-03T07:16:11.161Z</time></trkpt><trkpt lat="43.2471227" lon="11.579894"><ele>256.0</ele><time>2026-05-03T07:16:12.16Z</time></trkpt><trkpt lat="43.2472401" lon="11.5799757"><ele>256.0</ele><time>2026-05-03T07:16:13.161Z</time></trkpt><trkpt lat="43.2473636" lon="11.5800594"><ele>256.0</ele><time>2026-05-03T07:16:14.161Z</time></trkpt><trkpt lat="43.2474846" lon="11.5801492"><ele>256.0</ele><time>2026-05-03T07:16:15.161Z</time></trkpt><trkpt lat="43.2476" lon="11.5802525"><ele>256.0</ele><time>2026-05-03T07:16:16.162Z</time></trkpt><trkpt lat="43.2477072" lon="11.5803745"><ele>256.0</ele><time>2026-05-03T07:16:17.161Z</time></trkpt><trkpt lat="43.247801" lon="11.580515"><ele>256.0</ele><time>2026-05-03T07:16:18.161Z</time></trkpt><trkpt lat="43.2478904" lon="11.5806673"><ele>256.0</ele><time>2026-05-03T07:16:19.162Z</time></trkpt><trkpt lat="43.2479728" lon="11.5808185"><ele>256.0</ele><time>2026-05-03T07:16:20.162Z</time></trkpt><trkpt lat="43.2480521" lon="11.5809641"><ele>255.0</ele><time>2026-05-03T07:16:21.162Z</time></trkpt><trkpt lat="43.2481302" lon="11.5811093"><ele>254.0</ele><time>2026-05-03T07:16:22.162Z</time></trkpt><trkpt lat="43.248206" lon="11.5812476"><ele>253.0</ele><time>2026-05-03T07:16:23.162Z</time></trkpt><trkpt lat="43.2482757" lon="11.5813753"><ele>252.0</ele><time>2026-05-03T07:16:24.161Z</time></trkpt><trkpt lat="43.2483441" lon="11.5815072"><ele>254.0</ele><time>2026-05-03T07:16:25.161Z</time></trkpt><trkpt lat="43.248416" lon="11.5816393"><ele>256.0</ele><time>2026-05-03T07:16:26.161Z</time></trkpt><trkpt lat="43.2484963" lon="11.5817647"><ele>258.0</ele><time>2026-05-03T07:16:27.162Z</time></trkpt><trkpt lat="43.2485838" lon="11.5818884"><ele>260.0</ele><time>2026-05-03T07:16:28.162Z</time></trkpt><trkpt lat="43.2486732" lon="11.5820164"><ele>259.5</ele><time>2026-05-03T07:16:29.162Z</time></trkpt><trkpt lat="43.2487639" lon="11.5821374"><ele>259.0</ele><time>2026-05-03T07:16:30.162Z</time></trkpt><trkpt lat="43.2488522" lon="11.5822522"><ele>258.5</ele><time>2026-05-03T07:16:31.161Z</time></trkpt><trkpt lat="43.2489303" lon="11.5823498"><ele>258.0</ele><time>2026-05-03T07:16:32.161Z</time></trkpt><trkpt lat="43.2490049" lon="11.582448"><ele>258.0</ele><time>2026-05-03T07:16:33.161Z</time></trkpt><trkpt lat="43.2490696" lon="11.5825425"><ele>258.0</ele><time>2026-05-03T07:16:34.162Z</time></trkpt><trkpt lat="43.2491133" lon="11.5826462"><ele>258.0</ele><time>2026-05-03T07:16:35.161Z</time></trkpt><trkpt lat="43.2491381" lon="11.5827533"><ele>258.0</ele><time>2026-05-03T07:16:36.161Z</time></trkpt><trkpt lat="43.249151" lon="11.5828762"><ele>258.0</ele><time>2026-05-03T07:16:37.162Z</time></trkpt><trkpt lat="43.2491502" lon="11.5830125"><ele>258.4</ele><time>2026-05-03T07:16:38.162Z</time></trkpt><trkpt lat="43.2491507" lon="11.5831589"><ele>258.8</ele><time>2026-05-03T07:16:39.162Z</time></trkpt><trkpt lat="43.2491687" lon="11.5833029"><ele>259.2</ele><time>2026-05-03T07:16:40.162Z</time></trkpt><trkpt lat="43.2492078" lon="11.5834448"><ele>259.6</ele><time>2026-05-03T07:16:41.161Z</time></trkpt><trkpt lat="43.2492622" lon="11.5835907"><ele>260.0</ele><time>2026-05-03T07:16:42.162Z</time></trkpt><trkpt lat="43.2493159" lon="11.5837487"><ele>260.0</ele><time>2026-05-03T07:16:43.161Z</time></trkpt><trkpt lat="43.2493611" lon="11.5839067"><ele>260.0</ele><time>2026-05-03T07:16:44.162Z</time></trkpt><trkpt lat="43.2494011" lon="11.584058"><ele>260.0</ele><time>2026-05-03T07:16:45.161Z</time></trkpt><trkpt lat="43.2494496" lon="11.5842194"><ele>260.0</ele><time>2026-05-03T07:16:46.162Z</time></trkpt><trkpt lat="43.2495061" lon="11.584373"><ele>259.5</ele><time>2026-05-03T07:16:47.162Z</time></trkpt><trkpt lat="43.2495747" lon="11.5845244"><ele>259.0</ele><time>2026-05-03T07:16:48.161Z</time></trkpt><trkpt lat="43.2496485" lon="11.5846706"><ele>258.5</ele><time>2026-05-03T07:16:49.161Z</time></trkpt><trkpt lat="43.2497256" lon="11.584816"><ele>258.0</ele><time>2026-05-03T07:16:50.162Z</time></trkpt><trkpt lat="43.2497987" lon="11.5849555"><ele>258.0</ele><time>2026-05-03T07:16:51.162Z</time></trkpt><trkpt lat="43.2498662" lon="11.5850864"><ele>258.0</ele><time>2026-05-03T07:16:52.161Z</time></trkpt><trkpt lat="43.2499276" lon="11.5852083"><ele>258.0</ele><time>2026-05-03T07:16:53.162Z</time></trkpt><trkpt lat="43.2499911" lon="11.5853204"><ele>258.0</ele><time>2026-05-03T07:16:54.161Z</time></trkpt><trkpt lat="43.2500579" lon="11.5854346"><ele>258.0</ele><time>2026-05-03T07:16:55.161Z</time></trkpt><trkpt lat="43.2501214" lon="11.585563"><ele>258.0</ele><time>2026-05-03T07:16:56.162Z</time></trkpt><trkpt lat="43.2501729" lon="11.5857059"><ele>258.0</ele><time>2026-05-03T07:16:57.162Z</time></trkpt><trkpt lat="43.2502133" lon="11.5858567"><ele>258.0</ele><time>2026-05-03T07:16:58.16Z</time></trkpt><trkpt lat="43.2502575" lon="11.586009"><ele>258.0</ele><time>2026-05-03T07:16:59.161Z</time></trkpt><trkpt lat="43.2503122" lon="11.5861567"><ele>258.0</ele><time>2026-05-03T07:17:00.162Z</time></trkpt><trkpt lat="43.2503757" lon="11.5863008"><ele>258.0</ele><time>2026-05-03T07:17:01.162Z</time></trkpt><trkpt lat="43.2504487" lon="11.5864373"><ele>258.0</ele><time>2026-05-03T07:17:02.161Z</time></trkpt><trkpt lat="43.250525" lon="11.5865766"><ele>258.0</ele><time>2026-05-03T07:17:03.161Z</time></trkpt><trkpt lat="43.2505954" lon="11.5867212"><ele>258.25</ele><time>2026-05-03T07:17:04.162Z</time></trkpt><trkpt lat="43.2506682" lon="11.5868647"><ele>258.5</ele><time>2026-05-03T07:17:05.161Z</time></trkpt><trkpt lat="43.2507434" lon="11.5869968"><ele>258.75</ele><time>2026-05-03T07:17:06.162Z</time></trkpt><trkpt lat="43.2508258" lon="11.5871267"><ele>259.0</ele><time>2026-05-03T07:17:07.161Z</time></trkpt><trkpt lat="43.2509134" lon="11.587246"><ele>259.0</ele><time>2026-05-03T07:17:08.162Z</time></trkpt><trkpt lat="43.2510006" lon="11.5873662"><ele>259.0</ele><time>2026-05-03T07:17:09.161Z</time></trkpt><trkpt lat="43.2510879" lon="11.5874872"><ele>259.0</ele><time>2026-05-03T07:17:10.162Z</time></trkpt><trkpt lat="43.2511779" lon="11.5876108"><ele>259.0</ele><time>2026-05-03T07:17:11.161Z</time></trkpt><trkpt lat="43.2512643" lon="11.5877395"><ele>259.25</ele><time>2026-05-03T07:17:12.163Z</time></trkpt><trkpt lat="43.2513503" lon="11.5878692"><ele>259.5</ele><time>2026-05-03T07:17:13.163Z</time></trkpt><trkpt lat="43.2514253" lon="11.5879902"><ele>259.75</ele><time>2026-05-03T07:17:14.163Z</time></trkpt><trkpt lat="43.2514933" lon="11.5880965"><ele>260.0</ele><time>2026-05-03T07:17:15.163Z</time></trkpt><trkpt lat="43.2515633" lon="11.5882104"><ele>260.6</ele><time>2026-05-03T07:17:16.161Z</time></trkpt><trkpt lat="43.2516421" lon="11.5883403"><ele>261.2</ele><time>2026-05-03T07:17:17.162Z</time></trkpt><trkpt lat="43.2517148" lon="11.5884509"><ele>261.8</ele><time>2026-05-03T07:17:18.163Z</time></trkpt><trkpt lat="43.2517833" lon="11.5885501"><ele>262.4</ele><time>2026-05-03T07:17:19.162Z</time></trkpt><trkpt lat="43.2518463" lon="11.5886388"><ele>263.0</ele><time>2026-05-03T07:17:20.163Z</time></trkpt><trkpt lat="43.2519079" lon="11.5887227"><ele>263.33333333333337</ele><time>2026-05-03T07:17:21.163Z</time></trkpt><trkpt lat="43.2519606" lon="11.5888112"><ele>263.6666666666667</ele><time>2026-05-03T07:17:22.161Z</time></trkpt><trkpt lat="43.2520113" lon="11.5889003"><ele>264.0</ele><time>2026-05-03T07:17:23.163Z</time></trkpt><trkpt lat="43.2520618" lon="11.5889703"><ele>264.3333333333333</ele><time>2026-05-03T07:17:24.163Z</time></trkpt><trkpt lat="43.2521162" lon="11.5890437"><ele>264.66666666666663</ele><time>2026-05-03T07:17:25.163Z</time></trkpt><trkpt lat="43.2521686" lon="11.5891028"><ele>265.0</ele><time>2026-05-03T07:17:26.162Z</time></trkpt><trkpt lat="43.2522557" lon="11.5892032"><ele>265.2</ele><time>2026-05-03T07:17:28.161Z</time></trkpt><trkpt lat="43.2523173" lon="11.5893002"><ele>265.4</ele><time>2026-05-03T07:17:30.162Z</time></trkpt><trkpt lat="43.2523757" lon="11.5893961"><ele>265.6</ele><time>2026-05-03T07:17:32.162Z</time></trkpt><trkpt lat="43.2524397" lon="11.5895234"><ele>265.8</ele><time>2026-05-03T07:17:34.163Z</time></trkpt><trkpt lat="43.2524788" lon="11.5896052"><ele>266.0</ele><time>2026-05-03T07:17:35.161Z</time></trkpt><trkpt lat="43.2525284" lon="11.5896969"><ele>266.40000000000003</ele><time>2026-05-03T07:17:36.162Z</time></trkpt><trkpt lat="43.2525845" lon="11.5898058"><ele>266.8</ele><time>2026-05-03T07:17:37.162Z</time></trkpt><trkpt lat="43.2526483" lon="11.5899245"><ele>267.20000000000005</ele><time>2026-05-03T07:17:38.163Z</time></trkpt><trkpt lat="43.2527153" lon="11.5900408"><ele>267.6</ele><time>2026-05-03T07:17:39.163Z</time></trkpt><trkpt lat="43.2527877" lon="11.5901695"><ele>268.0</ele><time>2026-05-03T07:17:40.162Z</time></trkpt><trkpt lat="43.2528556" lon="11.5902927"><ele>268.5</ele><time>2026-05-03T07:17:41.161Z</time></trkpt><trkpt lat="43.252919" lon="11.5904319"><ele>269.0</ele><time>2026-05-03T07:17:42.162Z</time></trkpt><trkpt lat="43.2529752" lon="11.5905775"><ele>269.5</ele><time>2026-05-03T07:17:43.163Z</time></trkpt><trkpt lat="43.2530178" lon="11.5907253"><ele>270.0</ele><time>2026-05-03T07:17:44.163Z</time></trkpt><trkpt lat="43.2530386" lon="11.5908719"><ele>270.0</ele><time>2026-05-03T07:17:45.163Z</time></trkpt><trkpt lat="43.2530409" lon="11.5910206"><ele>270.0</ele><time>2026-05-03T07:17:46.162Z</time></trkpt><trkpt lat="43.253035" lon="11.5911815"><ele>270.0</ele><time>2026-05-03T07:17:47.162Z</time></trkpt><trkpt lat="43.2530333" lon="11.5913374"><ele>270.0</ele><time>2026-05-03T07:17:48.162Z</time></trkpt><trkpt lat="43.2530325" lon="11.5914828"><ele>270.0</ele><time>2026-05-03T07:17:49.162Z</time></trkpt><trkpt lat="43.2530409" lon="11.591635"><ele>270.6</ele><time>2026-05-03T07:17:50.162Z</time></trkpt><trkpt lat="43.2530574" lon="11.5917844"><ele>271.2</ele><time>2026-05-03T07:17:51.163Z</time></trkpt><trkpt lat="43.2530892" lon="11.591931"><ele>271.8</ele><time>2026-05-03T07:17:52.163Z</time></trkpt><trkpt lat="43.2531279" lon="11.5920726"><ele>272.4</ele><time>2026-05-03T07:17:53.163Z</time></trkpt><trkpt lat="43.2531664" lon="11.5921986"><ele>273.0</ele><time>2026-05-03T07:17:54.163Z</time></trkpt><trkpt lat="43.2532205" lon="11.5923106"><ele>274.2</ele><time>2026-05-03T07:17:55.163Z</time></trkpt><trkpt lat="43.2532807" lon="11.5924087"><ele>275.4</ele><time>2026-05-03T07:17:56.163Z</time></trkpt><trkpt lat="43.2533489" lon="11.592482"><ele>276.59999999999997</ele><time>2026-05-03T07:17:57.162Z</time></trkpt><trkpt lat="43.2534267" lon="11.5925749"><ele>277.8</ele><time>2026-05-03T07:17:58.162Z</time></trkpt><trkpt lat="43.2534992" lon="11.5926817"><ele>279.0</ele><time>2026-05-03T07:17:59.163Z</time></trkpt><trkpt lat="43.2535781" lon="11.5927776"><ele>280.5</ele><time>2026-05-03T07:18:00.163Z</time></trkpt><trkpt lat="43.2536668" lon="11.5928717"><ele>282.0</ele><time>2026-05-03T07:18:01.162Z</time></trkpt><trkpt lat="43.2537564" lon="11.5929646"><ele>283.5</ele><time>2026-05-03T07:18:02.162Z</time></trkpt><trkpt lat="43.2538538" lon="11.5930529"><ele>285.0</ele><time>2026-05-03T07:18:03.162Z</time></trkpt><trkpt lat="43.2539562" lon="11.5931328"><ele>285.0</ele><time>2026-05-03T07:18:04.163Z</time></trkpt><trkpt lat="43.254066" lon="11.5932056"><ele>285.0</ele><time>2026-05-03T07:18:05.163Z</time></trkpt><trkpt lat="43.2541756" lon="11.5932748"><ele>285.0</ele><time>2026-05-03T07:18:06.163Z</time></trkpt><trkpt lat="43.254285" lon="11.593343"><ele>285.0</ele><time>2026-05-03T07:18:07.162Z</time></trkpt><trkpt lat="43.2543858" lon="11.5934179"><ele>285.0</ele><time>2026-05-03T07:18:08.162Z</time></trkpt><trkpt lat="43.2544752" lon="11.5934922"><ele>285.0</ele><time>2026-05-03T07:18:09.162Z</time></trkpt><trkpt lat="43.2545642" lon="11.593559"><ele>285.0</ele><time>2026-05-03T07:18:10.162Z</time></trkpt><trkpt lat="43.254659" lon="11.5936111"><ele>285.0</ele><time>2026-05-03T07:18:11.162Z</time></trkpt><trkpt lat="43.2547567" lon="11.5936701"><ele>285.0</ele><time>2026-05-03T07:18:12.162Z</time></trkpt><trkpt lat="43.2548368" lon="11.593727"><ele>285.6666666666667</ele><time>2026-05-03T07:18:13.163Z</time></trkpt><trkpt lat="43.2548972" lon="11.5937824"><ele>286.3333333333333</ele><time>2026-05-03T07:18:14.163Z</time></trkpt><trkpt lat="43.2549482" lon="11.5938491"><ele>287.0</ele><time>2026-05-03T07:18:15.162Z</time></trkpt><trkpt lat="43.2550085" lon="11.593932"><ele>287.66666666666663</ele><time>2026-05-03T07:18:16.162Z</time></trkpt><trkpt lat="43.2550537" lon="11.5940201"><ele>288.3333333333333</ele><time>2026-05-03T07:18:17.162Z</time></trkpt><trkpt lat="43.2551129" lon="11.594113"><ele>289.0</ele><time>2026-05-03T07:18:18.163Z</time></trkpt><trkpt lat="43.2551779" lon="11.5942142"><ele>289.0</ele><time>2026-05-03T07:18:19.162Z</time></trkpt><trkpt lat="43.2552475" lon="11.5943175"><ele>289.0</ele><time>2026-05-03T07:18:20.163Z</time></trkpt><trkpt lat="43.2553137" lon="11.5944226"><ele>289.0</ele><time>2026-05-03T07:18:21.162Z</time></trkpt><trkpt lat="43.2553788" lon="11.5945066"><ele>289.0</ele><time>2026-05-03T07:18:22.162Z</time></trkpt><trkpt lat="43.2554357" lon="11.5945876"><ele>289.0</ele><time>2026-05-03T07:18:23.163Z</time></trkpt><trkpt lat="43.2554972" lon="11.5946743"><ele>288.8</ele><time>2026-05-03T07:18:24.163Z</time></trkpt><trkpt lat="43.2555644" lon="11.5947541"><ele>288.59999999999997</ele><time>2026-05-03T07:18:25.163Z</time></trkpt><trkpt lat="43.2556333" lon="11.5948404"><ele>288.4</ele><time>2026-05-03T07:18:26.163Z</time></trkpt><trkpt lat="43.2557035" lon="11.5949368"><ele>288.2</ele><time>2026-05-03T07:18:27.162Z</time></trkpt><trkpt lat="43.2557749" lon="11.5950355"><ele>288.0</ele><time>2026-05-03T07:18:28.163Z</time></trkpt><trkpt lat="43.2558382" lon="11.5951211"><ele>288.0</ele><time>2026-05-03T07:18:29.163Z</time></trkpt><trkpt lat="43.2559018" lon="11.5951964"><ele>288.0</ele><time>2026-05-03T07:18:30.163Z</time></trkpt><trkpt lat="43.2559572" lon="11.5952675"><ele>288.0</ele><time>2026-05-03T07:18:31.163Z</time></trkpt><trkpt lat="43.2560057" lon="11.5953265"><ele>288.0</ele><time>2026-05-03T07:18:32.162Z</time></trkpt><trkpt lat="43.2560633" lon="11.5954349"><ele>288.0</ele><time>2026-05-03T07:18:34.163Z</time></trkpt><trkpt lat="43.2561175" lon="11.5955246"><ele>288.0</ele><time>2026-05-03T07:18:36.163Z</time></trkpt><trkpt lat="43.2562098" lon="11.5956582"><ele>287.5</ele><time>2026-05-03T07:18:38.163Z</time></trkpt><trkpt lat="43.256302" lon="11.5957355"><ele>287.0</ele><time>2026-05-03T07:18:39.162Z</time></trkpt><trkpt lat="43.2564065" lon="11.5958368"><ele>286.5</ele><time>2026-05-03T07:18:40.163Z</time></trkpt><trkpt lat="43.2565402" lon="11.5959637"><ele>286.0</ele><time>2026-05-03T07:18:41.162Z</time></trkpt><trkpt lat="43.2566914" lon="11.5960986"><ele>285.0</ele><time>2026-05-03T07:18:42.162Z</time></trkpt><trkpt lat="43.2568389" lon="11.5962345"><ele>284.0</ele><time>2026-05-03T07:18:43.163Z</time></trkpt><trkpt lat="43.2569922" lon="11.5963667"><ele>283.0</ele><time>2026-05-03T07:18:44.162Z</time></trkpt><trkpt lat="43.2571398" lon="11.5964828"><ele>283.0</ele><time>2026-05-03T07:18:45.162Z</time></trkpt><trkpt lat="43.2572854" lon="11.5965947"><ele>283.0</ele><time>2026-05-03T07:18:46.161Z</time></trkpt><trkpt lat="43.257429" lon="11.5967081"><ele>283.0</ele><time>2026-05-03T07:18:47.162Z</time></trkpt><trkpt lat="43.2575721" lon="11.5968214"><ele>283.0</ele><time>2026-05-03T07:18:48.162Z</time></trkpt><trkpt lat="43.2577118" lon="11.5969328"><ele>283.0</ele><time>2026-05-03T07:18:49.163Z</time></trkpt><trkpt lat="43.2578496" lon="11.5970408"><ele>283.0</ele><time>2026-05-03T07:18:50.163Z</time></trkpt><trkpt lat="43.2579889" lon="11.5971406"><ele>285.0</ele><time>2026-05-03T07:18:51.162Z</time></trkpt><trkpt lat="43.2581304" lon="11.5972287"><ele>287.0</ele><time>2026-05-03T07:18:52.163Z</time></trkpt><trkpt lat="43.2582762" lon="11.5973027"><ele>289.0</ele><time>2026-05-03T07:18:53.162Z</time></trkpt><trkpt lat="43.2584234" lon="11.5973688"><ele>289.0</ele><time>2026-05-03T07:18:54.162Z</time></trkpt><trkpt lat="43.2585711" lon="11.5974355"><ele>289.0</ele><time>2026-05-03T07:18:55.163Z</time></trkpt><trkpt lat="43.2587195" lon="11.5975046"><ele>289.0</ele><time>2026-05-03T07:18:56.163Z</time></trkpt><trkpt lat="43.2588687" lon="11.5975736"><ele>290.66666666666663</ele><time>2026-05-03T07:18:57.162Z</time></trkpt><trkpt lat="43.259019" lon="11.5976349"><ele>292.3333333333333</ele><time>2026-05-03T07:18:58.162Z</time></trkpt><trkpt lat="43.259171" lon="11.5976845"><ele>294.0</ele><time>2026-05-03T07:18:59.163Z</time></trkpt><trkpt lat="43.2593254" lon="11.597722"><ele>294.0</ele><time>2026-05-03T07:19:00.163Z</time></trkpt><trkpt lat="43.2594815" lon="11.5977564"><ele>294.0</ele><time>2026-05-03T07:19:01.163Z</time></trkpt><trkpt lat="43.2596396" lon="11.5977908"><ele>294.0</ele><time>2026-05-03T07:19:02.163Z</time></trkpt><trkpt lat="43.2597998" lon="11.5978286"><ele>293.0</ele><time>2026-05-03T07:19:03.163Z</time></trkpt><trkpt lat="43.2599599" lon="11.5978735"><ele>292.0</ele><time>2026-05-03T07:19:04.163Z</time></trkpt><trkpt lat="43.2601179" lon="11.5979294"><ele>291.0</ele><time>2026-05-03T07:19:05.163Z</time></trkpt><trkpt lat="43.2602754" lon="11.597991"><ele>291.0</ele><time>2026-05-03T07:19:06.162Z</time></trkpt><trkpt lat="43.2604336" lon="11.5980554"><ele>291.0</ele><time>2026-05-03T07:19:07.163Z</time></trkpt><trkpt lat="43.2605932" lon="11.5981217"><ele>291.0</ele><time>2026-05-03T07:19:08.163Z</time></trkpt><trkpt lat="43.260747" lon="11.5982017"><ele>291.0</ele><time>2026-05-03T07:19:09.162Z</time></trkpt><trkpt lat="43.2608911" lon="11.5983063"><ele>291.0</ele><time>2026-05-03T07:19:10.161Z</time></trkpt><trkpt lat="43.2610249" lon="11.5984359"><ele>291.0</ele><time>2026-05-03T07:19:11.163Z</time></trkpt><trkpt lat="43.2611448" lon="11.5985876"><ele>291.0</ele><time>2026-05-03T07:19:12.162Z</time></trkpt><trkpt lat="43.2612539" lon="11.5987549"><ele>291.0</ele><time>2026-05-03T07:19:13.163Z</time></trkpt><trkpt lat="43.2613605" lon="11.5989257"><ele>291.0</ele><time>2026-05-03T07:19:14.162Z</time></trkpt><trkpt lat="43.2614722" lon="11.5990848"><ele>291.0</ele><time>2026-05-03T07:19:15.163Z</time></trkpt><trkpt lat="43.2615988" lon="11.5992211"><ele>291.0</ele><time>2026-05-03T07:19:16.163Z</time></trkpt><trkpt lat="43.2617368" lon="11.599331"><ele>291.0</ele><time>2026-05-03T07:19:17.162Z</time></trkpt><trkpt lat="43.2618857" lon="11.5994147"><ele>291.0</ele><time>2026-05-03T07:19:18.163Z</time></trkpt><trkpt lat="43.2620367" lon="11.5994863"><ele>291.0</ele><time>2026-05-03T07:19:19.163Z</time></trkpt><trkpt lat="43.2621874" lon="11.5995562"><ele>291.0</ele><time>2026-05-03T07:19:20.163Z</time></trkpt><trkpt lat="43.2623378" lon="11.5996258"><ele>293.0</ele><time>2026-05-03T07:19:21.162Z</time></trkpt><trkpt lat="43.262488" lon="11.5996941"><ele>295.0</ele><time>2026-05-03T07:19:22.162Z</time></trkpt><trkpt lat="43.2626391" lon="11.5997509"><ele>297.0</ele><time>2026-05-03T07:19:23.163Z</time></trkpt><trkpt lat="43.2627919" lon="11.5997943"><ele>297.0</ele><time>2026-05-03T07:19:24.162Z</time></trkpt><trkpt lat="43.2629466" lon="11.5998235"><ele>297.0</ele><time>2026-05-03T07:19:25.163Z</time></trkpt><trkpt lat="43.2631018" lon="11.5998411"><ele>297.0</ele><time>2026-05-03T07:19:26.163Z</time></trkpt><trkpt lat="43.2632558" lon="11.5998583"><ele>297.25</ele><time>2026-05-03T07:19:27.161Z</time></trkpt><trkpt lat="43.2633976" lon="11.5998922"><ele>297.5</ele><time>2026-05-03T07:19:28.163Z</time></trkpt><trkpt lat="43.2635266" lon="11.5999677"><ele>297.75</ele><time>2026-05-03T07:19:29.163Z</time></trkpt><trkpt lat="43.2636412" lon="11.6000913"><ele>298.0</ele><time>2026-05-03T07:19:30.163Z</time></trkpt><trkpt lat="43.2637409" lon="11.6002389"><ele>297.0</ele><time>2026-05-03T07:19:31.161Z</time></trkpt><trkpt lat="43.2638327" lon="11.6004009"><ele>296.0</ele><time>2026-05-03T07:19:32.162Z</time></trkpt><trkpt lat="43.2639219" lon="11.6005683"><ele>295.0</ele><time>2026-05-03T07:19:33.163Z</time></trkpt><trkpt lat="43.2640146" lon="11.6007358"><ele>295.0</ele><time>2026-05-03T07:19:34.162Z</time></trkpt><trkpt lat="43.2641091" lon="11.6009041"><ele>295.0</ele><time>2026-05-03T07:19:35.163Z</time></trkpt><trkpt lat="43.2641972" lon="11.6010644"><ele>295.0</ele><time>2026-05-03T07:19:36.162Z</time></trkpt><trkpt lat="43.2642842" lon="11.6012079"><ele>295.0</ele><time>2026-05-03T07:19:37.161Z</time></trkpt><trkpt lat="43.2643729" lon="11.6013353"><ele>294.8</ele><time>2026-05-03T07:19:38.163Z</time></trkpt><trkpt lat="43.2644599" lon="11.6014515"><ele>294.6</ele><time>2026-05-03T07:19:39.161Z</time></trkpt><trkpt lat="43.2645449" lon="11.6015557"><ele>294.4</ele><time>2026-05-03T07:19:40.162Z</time></trkpt><trkpt lat="43.2646312" lon="11.6016485"><ele>294.2</ele><time>2026-05-03T07:19:41.163Z</time></trkpt><trkpt lat="43.2647195" lon="11.6017179"><ele>294.0</ele><time>2026-05-03T07:19:42.163Z</time></trkpt><trkpt lat="43.2648124" lon="11.6017583"><ele>294.0</ele><time>2026-05-03T07:19:43.163Z</time></trkpt><trkpt lat="43.2649009" lon="11.6017902"><ele>294.0</ele><time>2026-05-03T07:19:44.162Z</time></trkpt><trkpt lat="43.2649852" lon="11.6018197"><ele>294.0</ele><time>2026-05-03T07:19:45.163Z</time></trkpt><trkpt lat="43.2650646" lon="11.6018453"><ele>294.0</ele><time>2026-05-03T07:19:46.163Z</time></trkpt><trkpt lat="43.2651417" lon="11.6018709"><ele>294.0</ele><time>2026-05-03T07:19:47.163Z</time></trkpt><trkpt lat="43.2652147" lon="11.6018937"><ele>294.0</ele><time>2026-05-03T07:19:48.163Z</time></trkpt><trkpt lat="43.2652838" lon="11.6019125"><ele>294.0</ele><time>2026-05-03T07:19:49.162Z</time></trkpt><trkpt lat="43.2653477" lon="11.601928"><ele>294.0</ele><time>2026-05-03T07:19:50.163Z</time></trkpt><trkpt lat="43.2654145" lon="11.6019448"><ele>294.0</ele><time>2026-05-03T07:19:51.162Z</time></trkpt><trkpt lat="43.2654825" lon="11.6019611"><ele>294.0</ele><time>2026-05-03T07:19:52.162Z</time></trkpt><trkpt lat="43.2655516" lon="11.6019767"><ele>294.0</ele><time>2026-05-03T07:19:53.163Z</time></trkpt><trkpt lat="43.2656292" lon="11.6019944"><ele>294.0</ele><time>2026-05-03T07:19:54.163Z</time></trkpt><trkpt lat="43.2657133" lon="11.602022"><ele>294.0</ele><time>2026-05-03T07:19:55.163Z</time></trkpt><trkpt lat="43.2658017" lon="11.602055"><ele>293.8</ele><time>2026-05-03T07:19:56.163Z</time></trkpt><trkpt lat="43.265893" lon="11.6021003"><ele>293.59999999999997</ele><time>2026-05-03T07:19:57.162Z</time></trkpt><trkpt lat="43.2659895" lon="11.6021605"><ele>293.4</ele><time>2026-05-03T07:19:58.163Z</time></trkpt><trkpt lat="43.2660875" lon="11.602235"><ele>293.2</ele><time>2026-05-03T07:19:59.163Z</time></trkpt><trkpt lat="43.2661896" lon="11.6023217"><ele>293.0</ele><time>2026-05-03T07:20:00.161Z</time></trkpt><trkpt lat="43.2662907" lon="11.6024173"><ele>293.0</ele><time>2026-05-03T07:20:01.163Z</time></trkpt><trkpt lat="43.2663908" lon="11.6025209"><ele>293.0</ele><time>2026-05-03T07:20:02.163Z</time></trkpt><trkpt lat="43.2664896" lon="11.6026288"><ele>293.0</ele><time>2026-05-03T07:20:03.163Z</time></trkpt><trkpt lat="43.2665971" lon="11.6027374"><ele>293.0</ele><time>2026-05-03T07:20:04.163Z</time></trkpt><trkpt lat="43.2668631" lon="11.603015"><ele>292.6666666666667</ele><time>2026-05-03T07:20:07.085Z</time></trkpt><trkpt lat="43.267043" lon="11.6031869"><ele>292.3333333333333</ele><time>2026-05-03T07:20:08.163Z</time></trkpt><trkpt lat="43.2671635" lon="11.6032842"><ele>292.0</ele><time>2026-05-03T07:20:09.162Z</time></trkpt><trkpt lat="43.2672967" lon="11.6033607"><ele>292.0</ele><time>2026-05-03T07:20:10.163Z</time></trkpt><trkpt lat="43.2674367" lon="11.6034209"><ele>292.0</ele><time>2026-05-03T07:20:11.163Z</time></trkpt><trkpt lat="43.2675789" lon="11.6034701"><ele>292.0</ele><time>2026-05-03T07:20:12.162Z</time></trkpt><trkpt lat="43.267724" lon="11.6035219"><ele>292.0</ele><time>2026-05-03T07:20:13.163Z</time></trkpt><trkpt lat="43.2678687" lon="11.6035776"><ele>292.0</ele><time>2026-05-03T07:20:14.162Z</time></trkpt><trkpt lat="43.2680115" lon="11.6036398"><ele>292.0</ele><time>2026-05-03T07:20:15.162Z</time></trkpt><trkpt lat="43.2681505" lon="11.6037138"><ele>292.0</ele><time>2026-05-03T07:20:16.163Z</time></trkpt><trkpt lat="43.26829" lon="11.6038031"><ele>293.3333333333333</ele><time>2026-05-03T07:20:17.162Z</time></trkpt><trkpt lat="43.268429" lon="11.6039014"><ele>294.6666666666667</ele><time>2026-05-03T07:20:18.162Z</time></trkpt><trkpt lat="43.2685674" lon="11.6040008"><ele>296.0</ele><time>2026-05-03T07:20:19.161Z</time></trkpt><trkpt lat="43.268707" lon="11.6041043"><ele>296.0</ele><time>2026-05-03T07:20:20.161Z</time></trkpt><trkpt lat="43.2688467" lon="11.6042042"><ele>296.0</ele><time>2026-05-03T07:20:21.163Z</time></trkpt><trkpt lat="43.2689872" lon="11.6043001"><ele>296.0</ele><time>2026-05-03T07:20:22.163Z</time></trkpt><trkpt lat="43.2691317" lon="11.6043862"><ele>296.0</ele><time>2026-05-03T07:20:23.163Z</time></trkpt><trkpt lat="43.2692812" lon="11.604453"><ele>296.0</ele><time>2026-05-03T07:20:24.162Z</time></trkpt><trkpt lat="43.2694343" lon="11.6045002"><ele>296.0</ele><time>2026-05-03T07:20:25.163Z</time></trkpt><trkpt lat="43.2695894" lon="11.6045268"><ele>296.0</ele><time>2026-05-03T07:20:26.163Z</time></trkpt><trkpt lat="43.2697454" lon="11.604543"><ele>296.0</ele><time>2026-05-03T07:20:27.162Z</time></trkpt><trkpt lat="43.2699023" lon="11.6045705"><ele>296.0</ele><time>2026-05-03T07:20:28.161Z</time></trkpt><trkpt lat="43.2700553" lon="11.604612"><ele>296.33333333333337</ele><time>2026-05-03T07:20:29.162Z</time></trkpt><trkpt lat="43.2702058" lon="11.6046718"><ele>296.6666666666667</ele><time>2026-05-03T07:20:30.162Z</time></trkpt><trkpt lat="43.2703521" lon="11.6047482"><ele>297.0</ele><time>2026-05-03T07:20:31.163Z</time></trkpt><trkpt lat="43.2704957" lon="11.604832"><ele>297.6666666666667</ele><time>2026-05-03T07:20:32.163Z</time></trkpt><trkpt lat="43.2706391" lon="11.6049145"><ele>298.33333333333337</ele><time>2026-05-03T07:20:33.163Z</time></trkpt><trkpt lat="43.2707835" lon="11.6049886"><ele>299.0</ele><time>2026-05-03T07:20:34.163Z</time></trkpt><trkpt lat="43.2709308" lon="11.605056"><ele>299.0</ele><time>2026-05-03T07:20:35.163Z</time></trkpt><trkpt lat="43.2710763" lon="11.6051193"><ele>299.0</ele><time>2026-05-03T07:20:36.163Z</time></trkpt><trkpt lat="43.2712241" lon="11.6051764"><ele>299.0</ele><time>2026-05-03T07:20:37.163Z</time></trkpt><trkpt lat="43.2713725" lon="11.605225"><ele>300.33333333333337</ele><time>2026-05-03T07:20:38.162Z</time></trkpt><trkpt lat="43.2715256" lon="11.6052662"><ele>301.6666666666667</ele><time>2026-05-03T07:20:39.163Z</time></trkpt><trkpt lat="43.2716846" lon="11.6052864"><ele>303.0</ele><time>2026-05-03T07:20:40.163Z</time></trkpt><trkpt lat="43.2718421" lon="11.6052892"><ele>303.0</ele><time>2026-05-03T07:20:41.163Z</time></trkpt><trkpt lat="43.2719919" lon="11.6052773"><ele>303.0</ele><time>2026-05-03T07:20:42.163Z</time></trkpt><trkpt lat="43.2721351" lon="11.6052536"><ele>303.0</ele><time>2026-05-03T07:20:43.162Z</time></trkpt><trkpt lat="43.2722737" lon="11.6052245"><ele>303.0</ele><time>2026-05-03T07:20:44.163Z</time></trkpt><trkpt lat="43.2724182" lon="11.605195"><ele>301.0</ele><time>2026-05-03T07:20:45.163Z</time></trkpt><trkpt lat="43.2725685" lon="11.6051677"><ele>299.0</ele><time>2026-05-03T07:20:46.161Z</time></trkpt><trkpt lat="43.2727202" lon="11.6051416"><ele>297.0</ele><time>2026-05-03T07:20:47.162Z</time></trkpt><trkpt lat="43.2728742" lon="11.6051126"><ele>297.0</ele><time>2026-05-03T07:20:48.162Z</time></trkpt><trkpt lat="43.2730309" lon="11.6050796"><ele>297.0</ele><time>2026-05-03T07:20:49.163Z</time></trkpt><trkpt lat="43.2731885" lon="11.605045"><ele>297.0</ele><time>2026-05-03T07:20:50.162Z</time></trkpt><trkpt lat="43.2733484" lon="11.6050059"><ele>295.6666666666667</ele><time>2026-05-03T07:20:51.163Z</time></trkpt><trkpt lat="43.2735105" lon="11.6049663"><ele>294.33333333333337</ele><time>2026-05-03T07:20:52.163Z</time></trkpt><trkpt lat="43.2736739" lon="11.604935"><ele>293.0</ele><time>2026-05-03T07:20:53.163Z</time></trkpt><trkpt lat="43.2738381" lon="11.6049071"><ele>292.33333333333337</ele><time>2026-05-03T07:20:54.162Z</time></trkpt><trkpt lat="43.2740023" lon="11.6048817"><ele>291.6666666666667</ele><time>2026-05-03T07:20:55.162Z</time></trkpt><trkpt lat="43.2741674" lon="11.6048589"><ele>291.0</ele><time>2026-05-03T07:20:56.162Z</time></trkpt><trkpt lat="43.2743315" lon="11.6048349"><ele>291.0</ele><time>2026-05-03T07:20:57.163Z</time></trkpt><trkpt lat="43.2744933" lon="11.6048031"><ele>291.0</ele><time>2026-05-03T07:20:58.163Z</time></trkpt><trkpt lat="43.2746547" lon="11.6047737"><ele>291.0</ele><time>2026-05-03T07:20:59.162Z</time></trkpt><trkpt lat="43.2748147" lon="11.6047392"><ele>291.3333333333333</ele><time>2026-05-03T07:21:00.163Z</time></trkpt><trkpt lat="43.2749745" lon="11.6047014"><ele>291.66666666666663</ele><time>2026-05-03T07:21:01.163Z</time></trkpt><trkpt lat="43.275133" lon="11.604662"><ele>292.0</ele><time>2026-05-03T07:21:02.163Z</time></trkpt><trkpt lat="43.2752908" lon="11.6046248"><ele>292.0</ele><time>2026-05-03T07:21:03.162Z</time></trkpt><trkpt lat="43.2754456" lon="11.6045867"><ele>292.0</ele><time>2026-05-03T07:21:04.163Z</time></trkpt><trkpt lat="43.2755906" lon="11.6045575"><ele>292.0</ele><time>2026-05-03T07:21:05.163Z</time></trkpt><trkpt lat="43.2757342" lon="11.6045471"><ele>292.0</ele><time>2026-05-03T07:21:06.162Z</time></trkpt><trkpt lat="43.2758592" lon="11.6045832"><ele>292.0</ele><time>2026-05-03T07:21:07.163Z</time></trkpt><trkpt lat="43.2759712" lon="11.6046527"><ele>292.0</ele><time>2026-05-03T07:21:08.161Z</time></trkpt><trkpt lat="43.276063" lon="11.6047589"><ele>292.0</ele><time>2026-05-03T07:21:09.162Z</time></trkpt><trkpt lat="43.2761281" lon="11.6049027"><ele>292.0</ele><time>2026-05-03T07:21:10.162Z</time></trkpt><trkpt lat="43.2761741" lon="11.6050693"><ele>292.0</ele><time>2026-05-03T07:21:11.163Z</time></trkpt><trkpt lat="43.2762146" lon="11.6052472"><ele>292.0</ele><time>2026-05-03T07:21:12.163Z</time></trkpt><trkpt lat="43.276257" lon="11.6054228"><ele>292.0</ele><time>2026-05-03T07:21:13.163Z</time></trkpt><trkpt lat="43.2762865" lon="11.6055958"><ele>292.0</ele><time>2026-05-03T07:21:14.163Z</time></trkpt><trkpt lat="43.2763279" lon="11.6057796"><ele>293.75</ele><time>2026-05-03T07:21:15.163Z</time></trkpt><trkpt lat="43.2763779" lon="11.6059574"><ele>295.5</ele><time>2026-05-03T07:21:16.162Z</time></trkpt><trkpt lat="43.2764362" lon="11.6061247"><ele>297.25</ele><time>2026-05-03T07:21:17.161Z</time></trkpt><trkpt lat="43.2765145" lon="11.6062872"><ele>299.0</ele><time>2026-05-03T07:21:18.162Z</time></trkpt><trkpt lat="43.2766046" lon="11.6064432"><ele>300.75</ele><time>2026-05-03T07:21:19.163Z</time></trkpt><trkpt lat="43.2767025" lon="11.6065841"><ele>302.5</ele><time>2026-05-03T07:21:20.161Z</time></trkpt><trkpt lat="43.276804" lon="11.6067165"><ele>304.25</ele><time>2026-05-03T07:21:21.163Z</time></trkpt><trkpt lat="43.2769072" lon="11.6068462"><ele>306.0</ele><time>2026-05-03T07:21:22.163Z</time></trkpt><trkpt lat="43.2770111" lon="11.6069743"><ele>307.5</ele><time>2026-05-03T07:21:23.163Z</time></trkpt><trkpt lat="43.2771129" lon="11.6071057"><ele>309.0</ele><time>2026-05-03T07:21:24.163Z</time></trkpt><trkpt lat="43.2772157" lon="11.607238"><ele>310.5</ele><time>2026-05-03T07:21:25.161Z</time></trkpt><trkpt lat="43.2773242" lon="11.6073631"><ele>312.0</ele><time>2026-05-03T07:21:26.163Z</time></trkpt><trkpt lat="43.27744" lon="11.6074601"><ele>312.25</ele><time>2026-05-03T07:21:27.163Z</time></trkpt><trkpt lat="43.2775658" lon="11.6075125"><ele>312.5</ele><time>2026-05-03T07:21:28.162Z</time></trkpt><trkpt lat="43.2776951" lon="11.6075254"><ele>312.75</ele><time>2026-05-03T07:21:29.162Z</time></trkpt><trkpt lat="43.2778256" lon="11.6074978"><ele>313.0</ele><time>2026-05-03T07:21:30.163Z</time></trkpt><trkpt lat="43.2779551" lon="11.6074297"><ele>313.0</ele><time>2026-05-03T07:21:31.163Z</time></trkpt><trkpt lat="43.2780794" lon="11.6073295"><ele>313.0</ele><time>2026-05-03T07:21:32.162Z</time></trkpt><trkpt lat="43.2782011" lon="11.6072159"><ele>313.0</ele><time>2026-05-03T07:21:33.162Z</time></trkpt><trkpt lat="43.2783242" lon="11.6071017"><ele>313.0</ele><time>2026-05-03T07:21:34.162Z</time></trkpt><trkpt lat="43.2784498" lon="11.6069832"><ele>312.66666666666663</ele><time>2026-05-03T07:21:35.162Z</time></trkpt><trkpt lat="43.2785712" lon="11.606864"><ele>312.3333333333333</ele><time>2026-05-03T07:21:36.162Z</time></trkpt><trkpt lat="43.2786963" lon="11.6067529"><ele>312.0</ele><time>2026-05-03T07:21:37.162Z</time></trkpt><trkpt lat="43.2788224" lon="11.606637"><ele>313.0</ele><time>2026-05-03T07:21:38.163Z</time></trkpt><trkpt lat="43.2789376" lon="11.6065024"><ele>314.0</ele><time>2026-05-03T07:21:39.163Z</time></trkpt><trkpt lat="43.2790286" lon="11.606358"><ele>315.0</ele><time>2026-05-03T07:21:40.162Z</time></trkpt><trkpt lat="43.279104" lon="11.6062155"><ele>316.0</ele><time>2026-05-03T07:21:41.163Z</time></trkpt><trkpt lat="43.2791854" lon="11.606096"><ele>316.0</ele><time>2026-05-03T07:21:42.163Z</time></trkpt><trkpt lat="43.279276" lon="11.6060106"><ele>316.0</ele><time>2026-05-03T07:21:43.163Z</time></trkpt><trkpt lat="43.2793729" lon="11.6059552"><ele>316.0</ele><time>2026-05-03T07:21:44.163Z</time></trkpt><trkpt lat="43.2794753" lon="11.60593"><ele>316.0</ele><time>2026-05-03T07:21:45.161Z</time></trkpt><trkpt lat="43.2795876" lon="11.605926"><ele>316.0</ele><time>2026-05-03T07:21:46.162Z</time></trkpt><trkpt lat="43.2797033" lon="11.6059308"><ele>315.5</ele><time>2026-05-03T07:21:47.162Z</time></trkpt><trkpt lat="43.2798252" lon="11.605941"><ele>315.0</ele><time>2026-05-03T07:21:48.162Z</time></trkpt><trkpt lat="43.2799484" lon="11.6059501"><ele>314.5</ele><time>2026-05-03T07:21:49.163Z</time></trkpt><trkpt lat="43.2800743" lon="11.6059585"><ele>314.0</ele><time>2026-05-03T07:21:50.162Z</time></trkpt><trkpt lat="43.2802035" lon="11.6059711"><ele>314.0</ele><time>2026-05-03T07:21:51.163Z</time></trkpt><trkpt lat="43.2803347" lon="11.6059836"><ele>314.0</ele><time>2026-05-03T07:21:52.163Z</time></trkpt><trkpt lat="43.2804644" lon="11.6059919"><ele>314.0</ele><time>2026-05-03T07:21:53.162Z</time></trkpt><trkpt lat="43.2805972" lon="11.6059908"><ele>314.0</ele><time>2026-05-03T07:21:54.163Z</time></trkpt><trkpt lat="43.2807298" lon="11.6059729"><ele>314.0</ele><time>2026-05-03T07:21:55.163Z</time></trkpt><trkpt lat="43.2808585" lon="11.6059369"><ele>314.0</ele><time>2026-05-03T07:21:56.162Z</time></trkpt><trkpt lat="43.2809776" lon="11.6058974"><ele>314.0</ele><time>2026-05-03T07:21:57.163Z</time></trkpt><trkpt lat="43.2810878" lon="11.6058621"><ele>314.0</ele><time>2026-05-03T07:21:58.161Z</time></trkpt><trkpt lat="43.2811894" lon="11.6058321"><ele>314.0</ele><time>2026-05-03T07:21:59.163Z</time></trkpt><trkpt lat="43.281285" lon="11.6058021"><ele>314.0</ele><time>2026-05-03T07:22:00.163Z</time></trkpt><trkpt lat="43.2813818" lon="11.6057741"><ele>314.0</ele><time>2026-05-03T07:22:01.163Z</time></trkpt><trkpt lat="43.2814846" lon="11.605746"><ele>314.0</ele><time>2026-05-03T07:22:02.162Z</time></trkpt><trkpt lat="43.2815909" lon="11.6057266"><ele>314.0</ele><time>2026-05-03T07:22:03.162Z</time></trkpt><trkpt lat="43.2817017" lon="11.6057049"><ele>315.0</ele><time>2026-05-03T07:22:04.162Z</time></trkpt><trkpt lat="43.2818145" lon="11.6056748"><ele>316.0</ele><time>2026-05-03T07:22:05.162Z</time></trkpt><trkpt lat="43.281925" lon="11.605632"><ele>317.0</ele><time>2026-05-03T07:22:06.162Z</time></trkpt><trkpt lat="43.2820307" lon="11.6055715"><ele>318.0</ele><time>2026-05-03T07:22:07.162Z</time></trkpt><trkpt lat="43.2821302" lon="11.6055006"><ele>318.0</ele><time>2026-05-03T07:22:08.163Z</time></trkpt><trkpt lat="43.2822201" lon="11.6054308"><ele>318.0</ele><time>2026-05-03T07:22:09.163Z</time></trkpt><trkpt lat="43.2822996" lon="11.605366"><ele>318.0</ele><time>2026-05-03T07:22:10.162Z</time></trkpt><trkpt lat="43.2823681" lon="11.6053115"><ele>318.0</ele><time>2026-05-03T07:22:11.163Z</time></trkpt><trkpt lat="43.2824541" lon="11.6052171"><ele>318.0</ele><time>2026-05-03T07:22:13.163Z</time></trkpt><trkpt lat="43.2824579" lon="11.6050808"><ele>317.8333333333333</ele><time>2026-05-03T07:22:15.162Z</time></trkpt><trkpt lat="43.2824282" lon="11.6049841"><ele>317.6666666666667</ele><time>2026-05-03T07:22:16.162Z</time></trkpt><trkpt lat="43.2823871" lon="11.60488"><ele>317.5</ele><time>2026-05-03T07:22:17.163Z</time></trkpt><trkpt lat="43.282338" lon="11.604767"><ele>317.33333333333337</ele><time>2026-05-03T07:22:18.163Z</time></trkpt><trkpt lat="43.2822888" lon="11.6046514"><ele>317.1666666666667</ele><time>2026-05-03T07:22:19.161Z</time></trkpt><trkpt lat="43.2822435" lon="11.604546"><ele>317.0</ele><time>2026-05-03T07:22:20.162Z</time></trkpt><trkpt lat="43.2822017" lon="11.604446"><ele>316.0</ele><time>2026-05-03T07:22:21.163Z</time></trkpt><trkpt lat="43.2821627" lon="11.6043504"><ele>315.0</ele><time>2026-05-03T07:22:22.163Z</time></trkpt><trkpt lat="43.2821233" lon="11.6042625"><ele>314.0</ele><time>2026-05-03T07:22:23.162Z</time></trkpt><trkpt lat="43.2820855" lon="11.604178"><ele>313.0</ele><time>2026-05-03T07:22:24.163Z</time></trkpt><trkpt lat="43.2820556" lon="11.6040913"><ele>312.0</ele><time>2026-05-03T07:22:25.162Z</time></trkpt><trkpt lat="43.2820446" lon="11.6040049"><ele>311.0</ele><time>2026-05-03T07:22:26.163Z</time></trkpt><trkpt lat="43.2821009" lon="11.6038555"><ele>311.0</ele><time>2026-05-03T07:22:28.162Z</time></trkpt><trkpt lat="43.2821633" lon="11.6038073"><ele>311.0</ele><time>2026-05-03T07:22:29.162Z</time></trkpt><trkpt lat="43.2822416" lon="11.6037892"><ele>311.0</ele><time>2026-05-03T07:22:30.163Z</time></trkpt><trkpt lat="43.2823317" lon="11.6037829"><ele>311.0</ele><time>2026-05-03T07:22:31.162Z</time></trkpt><trkpt lat="43.282424" lon="11.6037779"><ele>311.0</ele><time>2026-05-03T07:22:32.162Z</time></trkpt><trkpt lat="43.2825163" lon="11.6037699"><ele>311.0</ele><time>2026-05-03T07:22:33.163Z</time></trkpt><trkpt lat="43.2826052" lon="11.6037634"><ele>311.33333333333337</ele><time>2026-05-03T07:22:34.163Z</time></trkpt><trkpt lat="43.2826823" lon="11.6037582"><ele>311.6666666666667</ele><time>2026-05-03T07:22:35.163Z</time></trkpt><trkpt lat="43.2827545" lon="11.6037554"><ele>312.0</ele><time>2026-05-03T07:22:36.163Z</time></trkpt><trkpt lat="43.2828867" lon="11.6037503"><ele>312.3333333333333</ele><time>2026-05-03T07:22:38.162Z</time></trkpt><trkpt lat="43.2829685" lon="11.6037443"><ele>312.66666666666663</ele><time>2026-05-03T07:22:39.162Z</time></trkpt><trkpt lat="43.2830532" lon="11.6037404"><ele>313.0</ele><time>2026-05-03T07:22:40.163Z</time></trkpt><trkpt lat="43.2831434" lon="11.6037333"><ele>313.0</ele><time>2026-05-03T07:22:41.163Z</time></trkpt><trkpt lat="43.2832264" lon="11.6037223"><ele>313.0</ele><time>2026-05-03T07:22:42.163Z</time></trkpt><trkpt lat="43.2833089" lon="11.6037129"><ele>313.0</ele><time>2026-05-03T07:22:43.163Z</time></trkpt><trkpt lat="43.2833861" lon="11.6037054"><ele>313.0</ele><time>2026-05-03T07:22:44.163Z</time></trkpt><trkpt lat="43.283484" lon="11.6037206"><ele>313.0</ele><time>2026-05-03T07:22:46.162Z</time></trkpt><trkpt lat="43.2835339" lon="11.6038099"><ele>313.0</ele><time>2026-05-03T07:22:48.163Z</time></trkpt><trkpt lat="43.2835933" lon="11.6039094"><ele>313.0</ele><time>2026-05-03T07:22:50.162Z</time></trkpt><trkpt lat="43.2836813" lon="11.6038665"><ele>313.0</ele><time>2026-05-03T07:22:51.161Z</time></trkpt><trkpt lat="43.2837547" lon="11.6038108"><ele>313.0</ele><time>2026-05-03T07:22:52.163Z</time></trkpt><trkpt lat="43.2838374" lon="11.6037439"><ele>313.0</ele><time>2026-05-03T07:22:53.163Z</time></trkpt><trkpt lat="43.2839344" lon="11.6036917"><ele>313.0</ele><time>2026-05-03T07:22:54.163Z</time></trkpt><trkpt lat="43.2840393" lon="11.6036365"><ele>312.25</ele><time>2026-05-03T07:22:55.163Z</time></trkpt><trkpt lat="43.2841462" lon="11.6035792"><ele>311.5</ele><time>2026-05-03T07:22:56.163Z</time></trkpt><trkpt lat="43.2842618" lon="11.6035273"><ele>310.75</ele><time>2026-05-03T07:22:57.162Z</time></trkpt><trkpt lat="43.2843828" lon="11.6034759"><ele>310.0</ele><time>2026-05-03T07:22:58.163Z</time></trkpt><trkpt lat="43.2845004" lon="11.6034144"><ele>310.0</ele><time>2026-05-03T07:22:59.163Z</time></trkpt><trkpt lat="43.284618" lon="11.6033537"><ele>310.0</ele><time>2026-05-03T07:23:00.162Z</time></trkpt><trkpt lat="43.2847213" lon="11.6032777"><ele>310.0</ele><time>2026-05-03T07:23:01.163Z</time></trkpt><trkpt lat="43.2848174" lon="11.6031914"><ele>310.0</ele><time>2026-05-03T07:23:02.163Z</time></trkpt><trkpt lat="43.2849063" lon="11.6030875"><ele>309.6</ele><time>2026-05-03T07:23:03.162Z</time></trkpt><trkpt lat="43.2849764" lon="11.602964"><ele>309.2</ele><time>2026-05-03T07:23:04.162Z</time></trkpt><trkpt lat="43.2850272" lon="11.6028253"><ele>308.8</ele><time>2026-05-03T07:23:05.162Z</time></trkpt><trkpt lat="43.285068" lon="11.6026839"><ele>308.4</ele><time>2026-05-03T07:23:06.162Z</time></trkpt><trkpt lat="43.2851058" lon="11.602553"><ele>308.0</ele><time>2026-05-03T07:23:07.163Z</time></trkpt><trkpt lat="43.2851443" lon="11.6024256"><ele>307.6</ele><time>2026-05-03T07:23:08.163Z</time></trkpt><trkpt lat="43.2851848" lon="11.6023034"><ele>307.20000000000005</ele><time>2026-05-03T07:23:09.162Z</time></trkpt><trkpt lat="43.285232" lon="11.6021848"><ele>306.8</ele><time>2026-05-03T07:23:10.162Z</time></trkpt><trkpt lat="43.2852887" lon="11.6020691"><ele>306.40000000000003</ele><time>2026-05-03T07:23:11.162Z</time></trkpt><trkpt lat="43.2853549" lon="11.6019582"><ele>306.0</ele><time>2026-05-03T07:23:12.161Z</time></trkpt><trkpt lat="43.2854373" lon="11.6018607"><ele>305.2</ele><time>2026-05-03T07:23:13.163Z</time></trkpt><trkpt lat="43.285521" lon="11.6017829"><ele>304.40000000000003</ele><time>2026-05-03T07:23:14.162Z</time></trkpt><trkpt lat="43.2856134" lon="11.6017249"><ele>303.6</ele><time>2026-05-03T07:23:15.162Z</time></trkpt><trkpt lat="43.2857118" lon="11.6016786"><ele>302.8</ele><time>2026-05-03T07:23:16.162Z</time></trkpt><trkpt lat="43.2857998" lon="11.6016405"><ele>302.0</ele><time>2026-05-03T07:23:17.163Z</time></trkpt><trkpt lat="43.2858842" lon="11.6016083"><ele>302.0</ele><time>2026-05-03T07:23:18.161Z</time></trkpt><trkpt lat="43.2859546" lon="11.6015837"><ele>302.0</ele><time>2026-05-03T07:23:19.161Z</time></trkpt><trkpt lat="43.2860466" lon="11.6015291"><ele>302.0</ele><time>2026-05-03T07:23:21.162Z</time></trkpt><trkpt lat="43.286068" lon="11.6014393"><ele>302.0</ele><time>2026-05-03T07:23:23.163Z</time></trkpt><trkpt lat="43.286046" lon="11.6013465"><ele>302.0</ele><time>2026-05-03T07:23:25.163Z</time></trkpt><trkpt lat="43.2859659" lon="11.6013307"><ele>302.0</ele><time>2026-05-03T07:23:27.163Z</time></trkpt><trkpt lat="43.2858986" lon="11.6013165"><ele>302.0</ele><time>2026-05-03T07:23:29.163Z</time></trkpt><trkpt lat="43.2858324" lon="11.6012866"><ele>302.0</ele><time>2026-05-03T07:23:31.162Z</time></trkpt><trkpt lat="43.2857411" lon="11.6012207"><ele>302.0</ele><time>2026-05-03T07:23:33.162Z</time></trkpt><trkpt lat="43.2856632" lon="11.6011771"><ele>302.0</ele><time>2026-05-03T07:23:34.163Z</time></trkpt><trkpt lat="43.2855728" lon="11.6010979"><ele>302.0</ele><time>2026-05-03T07:23:36.163Z</time></trkpt><trkpt lat="43.2855343" lon="11.6009703"><ele>301.2</ele><time>2026-05-03T07:23:38.163Z</time></trkpt><trkpt lat="43.2855396" lon="11.6008339"><ele>300.4</ele><time>2026-05-03T07:23:40.163Z</time></trkpt><trkpt lat="43.2855741" lon="11.6007438"><ele>299.6</ele><time>2026-05-03T07:23:52.163Z</time></trkpt><trkpt lat="43.2856264" lon="11.6006127"><ele>298.8</ele><time>2026-05-03T07:23:56.162Z</time></trkpt><trkpt lat="43.2856863" lon="11.6004497"><ele>298.0</ele><time>2026-05-03T07:23:58.162Z</time></trkpt><trkpt lat="43.2857345" lon="11.6003674"><ele>297.4</ele><time>2026-05-03T07:23:59.162Z</time></trkpt><trkpt lat="43.2857989" lon="11.6002998"><ele>296.8</ele><time>2026-05-03T07:24:00.162Z</time></trkpt><trkpt lat="43.2858755" lon="11.6002455"><ele>296.2</ele><time>2026-05-03T07:24:01.162Z</time></trkpt><trkpt lat="43.2859615" lon="11.6001979"><ele>295.6</ele><time>2026-05-03T07:24:02.163Z</time></trkpt><trkpt lat="43.2860521" lon="11.6001409"><ele>295.0</ele><time>2026-05-03T07:24:03.163Z</time></trkpt><trkpt lat="43.2861403" lon="11.6000705"><ele>295.0</ele><time>2026-05-03T07:24:04.163Z</time></trkpt><trkpt lat="43.2862248" lon="11.5999875"><ele>295.0</ele><time>2026-05-03T07:24:05.162Z</time></trkpt><trkpt lat="43.2863141" lon="11.5998978"><ele>295.0</ele><time>2026-05-03T07:24:06.163Z</time></trkpt><trkpt lat="43.2863908" lon="11.5997909"><ele>295.0</ele><time>2026-05-03T07:24:07.163Z</time></trkpt><trkpt lat="43.2864711" lon="11.5996891"><ele>295.0</ele><time>2026-05-03T07:24:08.163Z</time></trkpt><trkpt lat="43.2865513" lon="11.5995767"><ele>295.25</ele><time>2026-05-03T07:24:09.163Z</time></trkpt><trkpt lat="43.2866324" lon="11.599467"><ele>295.5</ele><time>2026-05-03T07:24:10.162Z</time></trkpt><trkpt lat="43.2867184" lon="11.5993598"><ele>295.75</ele><time>2026-05-03T07:24:11.163Z</time></trkpt><trkpt lat="43.2868083" lon="11.5992545"><ele>296.0</ele><time>2026-05-03T07:24:12.162Z</time></trkpt><trkpt lat="43.2869013" lon="11.5991415"><ele>296.0</ele><time>2026-05-03T07:24:13.163Z</time></trkpt><trkpt lat="43.2870009" lon="11.5990387"><ele>296.0</ele><time>2026-05-03T07:24:14.162Z</time></trkpt><trkpt lat="43.287099" lon="11.5989469"><ele>296.0</ele><time>2026-05-03T07:24:15.163Z</time></trkpt><trkpt lat="43.287189" lon="11.5988626"><ele>296.0</ele><time>2026-05-03T07:24:16.163Z</time></trkpt><trkpt lat="43.2872756" lon="11.5987809"><ele>295.6666666666667</ele><time>2026-05-03T07:24:17.163Z</time></trkpt><trkpt lat="43.2873578" lon="11.5987084"><ele>295.33333333333337</ele><time>2026-05-03T07:24:18.163Z</time></trkpt><trkpt lat="43.2874341" lon="11.5986417"><ele>295.0</ele><time>2026-05-03T07:24:19.162Z</time></trkpt><trkpt lat="43.2874999" lon="11.5985959"><ele>294.6666666666667</ele><time>2026-05-03T07:24:20.161Z</time></trkpt><trkpt lat="43.2875695" lon="11.5985694"><ele>294.3333333333333</ele><time>2026-05-03T07:24:22.162Z</time></trkpt><trkpt lat="43.2876372" lon="11.5986883"><ele>294.0</ele><time>2026-05-03T07:24:25.163Z</time></trkpt><trkpt lat="43.2876773" lon="11.5987732"><ele>294.0</ele><time>2026-05-03T07:24:26.163Z</time></trkpt><trkpt lat="43.2877383" lon="11.5988527"><ele>294.0</ele><time>2026-05-03T07:24:27.163Z</time></trkpt><trkpt lat="43.2877987" lon="11.5989308"><ele>294.0</ele><time>2026-05-03T07:24:28.163Z</time></trkpt><trkpt lat="43.2878557" lon="11.5990063"><ele>294.0</ele><time>2026-05-03T07:24:29.163Z</time></trkpt><trkpt lat="43.2879136" lon="11.599078"><ele>294.0</ele><time>2026-05-03T07:24:30.162Z</time></trkpt><trkpt lat="43.2879633" lon="11.5991467"><ele>294.0</ele><time>2026-05-03T07:24:31.161Z</time></trkpt><trkpt lat="43.2880102" lon="11.5992078"><ele>294.0</ele><time>2026-05-03T07:24:32.162Z</time></trkpt><trkpt lat="43.2881056" lon="11.5992933"><ele>294.0</ele><time>2026-05-03T07:24:34.163Z</time></trkpt><trkpt lat="43.2882354" lon="11.5993462"><ele>294.0</ele><time>2026-05-03T07:24:36.163Z</time></trkpt><trkpt lat="43.2883176" lon="11.5993787"><ele>294.0</ele><time>2026-05-03T07:24:37.163Z</time></trkpt><trkpt lat="43.2883977" lon="11.5994204"><ele>294.0</ele><time>2026-05-03T07:24:38.163Z</time></trkpt><trkpt lat="43.2884899" lon="11.5994665"><ele>294.0</ele><time>2026-05-03T07:24:39.162Z</time></trkpt><trkpt lat="43.2885814" lon="11.5995168"><ele>294.0</ele><time>2026-05-03T07:24:40.162Z</time></trkpt><trkpt lat="43.2886746" lon="11.5995727"><ele>294.0</ele><time>2026-05-03T07:24:41.163Z</time></trkpt><trkpt lat="43.2887639" lon="11.5996337"><ele>294.0</ele><time>2026-05-03T07:24:42.163Z</time></trkpt><trkpt lat="43.2888493" lon="11.5997134"><ele>294.0</ele><time>2026-05-03T07:24:43.163Z</time></trkpt><trkpt lat="43.2889347" lon="11.5997828"><ele>293.8</ele><time>2026-05-03T07:24:44.163Z</time></trkpt><trkpt lat="43.2890279" lon="11.5998443"><ele>293.59999999999997</ele><time>2026-05-03T07:24:45.162Z</time></trkpt><trkpt lat="43.2891261" lon="11.5998883"><ele>293.4</ele><time>2026-05-03T07:24:46.163Z</time></trkpt><trkpt lat="43.2892285" lon="11.5999165"><ele>293.2</ele><time>2026-05-03T07:24:47.163Z</time></trkpt><trkpt lat="43.289325" lon="11.5999404"><ele>293.0</ele><time>2026-05-03T07:24:48.163Z</time></trkpt><trkpt lat="43.2894088" lon="11.5999762"><ele>293.0</ele><time>2026-05-03T07:24:49.163Z</time></trkpt><trkpt lat="43.2894966" lon="11.6000154"><ele>293.0</ele><time>2026-05-03T07:24:50.162Z</time></trkpt><trkpt lat="43.2895881" lon="11.600059"><ele>293.0</ele><time>2026-05-03T07:24:51.163Z</time></trkpt><trkpt lat="43.2896902" lon="11.6000832"><ele>293.0</ele><time>2026-05-03T07:24:52.162Z</time></trkpt><trkpt lat="43.289793" lon="11.6000885"><ele>293.0</ele><time>2026-05-03T07:24:53.163Z</time></trkpt><trkpt lat="43.2899006" lon="11.6000774"><ele>293.0</ele><time>2026-05-03T07:24:54.162Z</time></trkpt><trkpt lat="43.2900098" lon="11.6000591"><ele>293.0</ele><time>2026-05-03T07:24:55.163Z</time></trkpt><trkpt lat="43.2901225" lon="11.6000406"><ele>293.0</ele><time>2026-05-03T07:24:56.162Z</time></trkpt><trkpt lat="43.2902374" lon="11.6000427"><ele>293.0</ele><time>2026-05-03T07:24:57.163Z</time></trkpt><trkpt lat="43.2903439" lon="11.6000575"><ele>293.0</ele><time>2026-05-03T07:24:58.163Z</time></trkpt><trkpt lat="43.2904476" lon="11.6000548"><ele>293.0</ele><time>2026-05-03T07:24:59.162Z</time></trkpt><trkpt lat="43.2905486" lon="11.6000251"><ele>293.0</ele><time>2026-05-03T07:25:00.162Z</time></trkpt><trkpt lat="43.2906432" lon="11.5999713"><ele>293.0</ele><time>2026-05-03T07:25:01.161Z</time></trkpt><trkpt lat="43.2907298" lon="11.5998938"><ele>293.0</ele><time>2026-05-03T07:25:02.163Z</time></trkpt><trkpt lat="43.2908069" lon="11.5998244"><ele>293.0</ele><time>2026-05-03T07:25:03.163Z</time></trkpt><trkpt lat="43.2908911" lon="11.5997718"><ele>293.2</ele><time>2026-05-03T07:25:04.163Z</time></trkpt><trkpt lat="43.2909844" lon="11.5997274"><ele>293.4</ele><time>2026-05-03T07:25:05.163Z</time></trkpt><trkpt lat="43.2910799" lon="11.5997005"><ele>293.59999999999997</ele><time>2026-05-03T07:25:06.163Z</time></trkpt><trkpt lat="43.2911803" lon="11.5996913"><ele>293.8</ele><time>2026-05-03T07:25:07.162Z</time></trkpt><trkpt lat="43.2912706" lon="11.5997007"><ele>294.0</ele><time>2026-05-03T07:25:08.162Z</time></trkpt><trkpt lat="43.2913515" lon="11.5997172"><ele>294.0</ele><time>2026-05-03T07:25:09.163Z</time></trkpt><trkpt lat="43.2914283" lon="11.5997305"><ele>294.0</ele><time>2026-05-03T07:25:10.163Z</time></trkpt><trkpt lat="43.2915008" lon="11.5997376"><ele>294.0</ele><time>2026-05-03T07:25:11.162Z</time></trkpt><trkpt lat="43.2915692" lon="11.599738"><ele>294.0</ele><time>2026-05-03T07:25:12.163Z</time></trkpt><trkpt lat="43.2916879" lon="11.5997326"><ele>294.0</ele><time>2026-05-03T07:25:14.163Z</time></trkpt><trkpt lat="43.2917937" lon="11.5997291"><ele>294.0</ele><time>2026-05-03T07:25:16.163Z</time></trkpt><trkpt lat="43.2918927" lon="11.5997263"><ele>294.0</ele><time>2026-05-03T07:25:18.163Z</time></trkpt><trkpt lat="43.2919867" lon="11.5997299"><ele>294.0</ele><time>2026-05-03T07:25:20.162Z</time></trkpt><trkpt lat="43.2920854" lon="11.599738"><ele>294.0</ele><time>2026-05-03T07:25:22.163Z</time></trkpt><trkpt lat="43.2922119" lon="11.5997326"><ele>294.0</ele><time>2026-05-03T07:25:24.163Z</time></trkpt><trkpt lat="43.2922901" lon="11.5997318"><ele>294.0</ele><time>2026-05-03T07:25:25.163Z</time></trkpt><trkpt lat="43.2923759" lon="11.5997317"><ele>294.2</ele><time>2026-05-03T07:25:26.163Z</time></trkpt><trkpt lat="43.2924651" lon="11.5997267"><ele>294.4</ele><time>2026-05-03T07:25:27.163Z</time></trkpt><trkpt lat="43.2925621" lon="11.5997245"><ele>294.6</ele><time>2026-05-03T07:25:28.162Z</time></trkpt><trkpt lat="43.2926601" lon="11.5997288"><ele>294.8</ele><time>2026-05-03T07:25:29.162Z</time></trkpt><trkpt lat="43.2927574" lon="11.5997274"><ele>295.0</ele><time>2026-05-03T07:25:30.163Z</time></trkpt><trkpt lat="43.2928489" lon="11.5997321"><ele>295.0</ele><time>2026-05-03T07:25:31.162Z</time></trkpt><trkpt lat="43.292939" lon="11.5997293"><ele>295.0</ele><time>2026-05-03T07:25:32.162Z</time></trkpt><trkpt lat="43.2930326" lon="11.5997163"><ele>295.0</ele><time>2026-05-03T07:25:33.163Z</time></trkpt><trkpt lat="43.2931255" lon="11.5997074"><ele>295.0</ele><time>2026-05-03T07:25:34.163Z</time></trkpt><trkpt lat="43.293219" lon="11.599684"><ele>295.0</ele><time>2026-05-03T07:25:35.163Z</time></trkpt><trkpt lat="43.2933104" lon="11.5996617"><ele>295.3333333333333</ele><time>2026-05-03T07:25:36.161Z</time></trkpt><trkpt lat="43.293388" lon="11.5996352"><ele>295.66666666666663</ele><time>2026-05-03T07:25:37.163Z</time></trkpt><trkpt lat="43.2934584" lon="11.5996019"><ele>296.0</ele><time>2026-05-03T07:25:38.163Z</time></trkpt><trkpt lat="43.2935513" lon="11.5995434"><ele>296.3333333333333</ele><time>2026-05-03T07:25:40.162Z</time></trkpt><trkpt lat="43.2936124" lon="11.5995071"><ele>296.6666666666667</ele><time>2026-05-03T07:25:42.163Z</time></trkpt><trkpt lat="43.2936718" lon="11.5994731"><ele>297.0</ele><time>2026-05-03T07:25:45.163Z</time></trkpt><trkpt lat="43.293731" lon="11.5994367"><ele>296.3333333333333</ele><time>2026-05-03T07:25:50.163Z</time></trkpt><trkpt lat="43.2937901" lon="11.5993964"><ele>295.6666666666667</ele><time>2026-05-03T07:25:52.161Z</time></trkpt><trkpt lat="43.293874" lon="11.5993533"><ele>295.0</ele><time>2026-05-03T07:25:54.163Z</time></trkpt><trkpt lat="43.2939476" lon="11.5993155"><ele>294.33333333333337</ele><time>2026-05-03T07:25:56.163Z</time></trkpt><trkpt lat="43.2940239" lon="11.5992608"><ele>293.6666666666667</ele><time>2026-05-03T07:25:59.161Z</time></trkpt><trkpt lat="43.2941086" lon="11.5992065"><ele>293.0</ele><time>2026-05-03T07:26:02.163Z</time></trkpt><trkpt lat="43.2941816" lon="11.5991298"><ele>293.0</ele><time>2026-05-03T07:26:04.162Z</time></trkpt><trkpt lat="43.2942791" lon="11.5990843"><ele>293.0</ele><time>2026-05-03T07:26:06.163Z</time></trkpt><trkpt lat="43.2943591" lon="11.5990488"><ele>293.0</ele><time>2026-05-03T07:26:08.163Z</time></trkpt><trkpt lat="43.2944321" lon="11.5990214"><ele>293.0</ele><time>2026-05-03T07:26:10.162Z</time></trkpt><trkpt lat="43.2945152" lon="11.5989984"><ele>293.0</ele><time>2026-05-03T07:26:12.162Z</time></trkpt><trkpt lat="43.2946193" lon="11.5989673"><ele>293.0</ele><time>2026-05-03T07:26:14.161Z</time></trkpt><trkpt lat="43.2947262" lon="11.5989392"><ele>293.0</ele><time>2026-05-03T07:26:16.163Z</time></trkpt><trkpt lat="43.2948196" lon="11.5989074"><ele>293.0</ele><time>2026-05-03T07:26:18.163Z</time></trkpt><trkpt lat="43.2949173" lon="11.5988769"><ele>293.0</ele><time>2026-05-03T07:26:20.163Z</time></trkpt><trkpt lat="43.2950096" lon="11.5988537"><ele>293.0</ele><time>2026-05-03T07:26:22.163Z</time></trkpt><trkpt lat="43.2950951" lon="11.5988563"><ele>293.33333333333337</ele><time>2026-05-03T07:26:24.163Z</time></trkpt><trkpt lat="43.2951734" lon="11.5989138"><ele>293.6666666666667</ele><time>2026-05-03T07:26:26.162Z</time></trkpt><trkpt lat="43.2952544" lon="11.5989811"><ele>294.0</ele><time>2026-05-03T07:26:28.163Z</time></trkpt><trkpt lat="43.2953052" lon="11.5990461"><ele>294.3333333333333</ele><time>2026-05-03T07:26:32.163Z</time></trkpt><trkpt lat="43.2952375" lon="11.5991235"><ele>294.66666666666663</ele><time>2026-05-03T07:26:35.163Z</time></trkpt><trkpt lat="43.2951689" lon="11.5991202"><ele>295.0</ele><time>2026-05-03T07:26:39.161Z</time></trkpt><trkpt lat="43.2950847" lon="11.5991259"><ele>295.0</ele><time>2026-05-03T07:26:41.163Z</time></trkpt><trkpt lat="43.2951433" lon="11.5991785"><ele>295.0</ele><time>2026-05-03T07:26:47.162Z</time></trkpt><trkpt lat="43.2952089" lon="11.599112"><ele>295.0</ele><time>2026-05-03T07:26:50.163Z</time></trkpt><trkpt lat="43.2952211" lon="11.5989846"><ele>295.0</ele><time>2026-05-03T07:26:53.163Z</time></trkpt><trkpt lat="43.2951281" lon="11.5989081"><ele>295.0</ele><time>2026-05-03T07:26:55.162Z</time></trkpt><trkpt lat="43.2950027" lon="11.5988984"><ele>295.0</ele><time>2026-05-03T07:26:57.163Z</time></trkpt><trkpt lat="43.2949357" lon="11.5989228"><ele>295.0</ele><time>2026-05-03T07:26:58.163Z</time></trkpt><trkpt lat="43.2948641" lon="11.598954"><ele>295.0</ele><time>2026-05-03T07:26:59.163Z</time></trkpt><trkpt lat="43.2947872" lon="11.5989791"><ele>295.0</ele><time>2026-05-03T07:27:00.163Z</time></trkpt><trkpt lat="43.2947072" lon="11.5990036"><ele>295.0</ele><time>2026-05-03T07:27:01.163Z</time></trkpt><trkpt lat="43.2946283" lon="11.5990322"><ele>295.0</ele><time>2026-05-03T07:27:02.163Z</time></trkpt><trkpt lat="43.2945507" lon="11.5990594"><ele>294.66666666666663</ele><time>2026-05-03T07:27:03.163Z</time></trkpt><trkpt lat="43.2944735" lon="11.5990875"><ele>294.3333333333333</ele><time>2026-05-03T07:27:04.163Z</time></trkpt><trkpt lat="43.294398" lon="11.5991163"><ele>294.0</ele><time>2026-05-03T07:27:05.162Z</time></trkpt><trkpt lat="43.2943299" lon="11.5991459"><ele>293.6666666666667</ele><time>2026-05-03T07:27:06.162Z</time></trkpt><trkpt lat="43.2942356" lon="11.5991958"><ele>293.33333333333337</ele><time>2026-05-03T07:27:08.163Z</time></trkpt><trkpt lat="43.2942112" lon="11.5993027"><ele>293.0</ele><time>2026-05-03T07:27:11.162Z</time></trkpt><trkpt lat="43.2942751" lon="11.59938"><ele>292.99999999999994</ele><time>2026-05-03T07:27:13.163Z</time></trkpt><trkpt lat="43.2943364" lon="11.5994081"><ele>293.0</ele><time>2026-05-03T07:27:14.162Z</time></trkpt><trkpt lat="43.2944023" lon="11.5994445"><ele>293.0</ele><time>2026-05-03T07:27:15.163Z</time></trkpt><trkpt lat="43.2944687" lon="11.5994913"><ele>293.0</ele><time>2026-05-03T07:27:16.162Z</time></trkpt><trkpt lat="43.2945382" lon="11.5995475"><ele>293.0</ele><time>2026-05-03T07:27:17.163Z</time></trkpt><trkpt lat="43.2945995" lon="11.5995984"><ele>292.99999999999994</ele><time>2026-05-03T07:27:18.163Z</time></trkpt><trkpt lat="43.294655" lon="11.5996482"><ele>293.0</ele><time>2026-05-03T07:27:19.162Z</time></trkpt><trkpt lat="43.2947412" lon="11.5997531"><ele>293.6666666666667</ele><time>2026-05-03T07:27:21.162Z</time></trkpt><trkpt lat="43.2948111" lon="11.5998412"><ele>294.33333333333337</ele><time>2026-05-03T07:27:23.162Z</time></trkpt><trkpt lat="43.2948672" lon="11.5999115"><ele>295.0</ele><time>2026-05-03T07:27:25.162Z</time></trkpt><trkpt lat="43.2949151" lon="11.5999705"><ele>295.6666666666667</ele><time>2026-05-03T07:27:27.162Z</time></trkpt><trkpt lat="43.2949699" lon="11.6000422"><ele>296.3333333333333</ele><time>2026-05-03T07:27:30.162Z</time></trkpt><trkpt lat="43.2950322" lon="11.6001179"><ele>297.0</ele><time>2026-05-03T07:27:32.163Z</time></trkpt><trkpt lat="43.2951259" lon="11.6002375"><ele>297.0</ele><time>2026-05-03T07:27:34.162Z</time></trkpt><trkpt lat="43.2951963" lon="11.6003234"><ele>297.0</ele><time>2026-05-03T07:27:36.163Z</time></trkpt><trkpt lat="43.295273" lon="11.600335"><ele>297.0</ele><time>2026-05-03T07:27:42.163Z</time></trkpt><trkpt lat="43.2953551" lon="11.6002439"><ele>297.0</ele><time>2026-05-03T07:27:44.162Z</time></trkpt><trkpt lat="43.295441" lon="11.60012"><ele>297.0</ele><time>2026-05-03T07:27:46.162Z</time></trkpt><trkpt lat="43.2954919" lon="11.6000483"><ele>297.0</ele><time>2026-05-03T07:27:47.163Z</time></trkpt><trkpt lat="43.2955439" lon="11.599974"><ele>297.0</ele><time>2026-05-03T07:27:48.162Z</time></trkpt><trkpt lat="43.2955971" lon="11.5999005"><ele>297.0</ele><time>2026-05-03T07:27:49.163Z</time></trkpt><trkpt lat="43.2956543" lon="11.5998117"><ele>297.0</ele><time>2026-05-03T07:27:50.162Z</time></trkpt><trkpt lat="43.2957184" lon="11.5997168"><ele>297.0</ele><time>2026-05-03T07:27:51.163Z</time></trkpt><trkpt lat="43.295788" lon="11.5996133"><ele>297.0</ele><time>2026-05-03T07:27:52.163Z</time></trkpt><trkpt lat="43.2958571" lon="11.5995081"><ele>296.0</ele><time>2026-05-03T07:27:53.162Z</time></trkpt><trkpt lat="43.295932" lon="11.5993987"><ele>295.0</ele><time>2026-05-03T07:27:54.162Z</time></trkpt><trkpt lat="43.2960076" lon="11.5992856"><ele>294.0</ele><time>2026-05-03T07:27:55.163Z</time></trkpt><trkpt lat="43.296084" lon="11.5991683"><ele>293.0</ele><time>2026-05-03T07:27:56.163Z</time></trkpt><trkpt lat="43.2961645" lon="11.5990477"><ele>293.0</ele><time>2026-05-03T07:27:57.162Z</time></trkpt><trkpt lat="43.2962476" lon="11.5989288"><ele>293.0</ele><time>2026-05-03T07:27:58.161Z</time></trkpt><trkpt lat="43.2963292" lon="11.5988116"><ele>293.0</ele><time>2026-05-03T07:27:59.162Z</time></trkpt><trkpt lat="43.2964118" lon="11.59869"><ele>293.0</ele><time>2026-05-03T07:28:00.162Z</time></trkpt><trkpt lat="43.2964941" lon="11.5985665"><ele>292.25</ele><time>2026-05-03T07:28:01.162Z</time></trkpt><trkpt lat="43.2965769" lon="11.5984456"><ele>291.5</ele><time>2026-05-03T07:28:02.163Z</time></trkpt><trkpt lat="43.2966597" lon="11.5983216"><ele>290.75</ele><time>2026-05-03T07:28:03.163Z</time></trkpt><trkpt lat="43.2967384" lon="11.5981981"><ele>290.0</ele><time>2026-05-03T07:28:04.161Z</time></trkpt><trkpt lat="43.2968209" lon="11.598075"><ele>290.0</ele><time>2026-05-03T07:28:05.163Z</time></trkpt><trkpt lat="43.2969062" lon="11.5979536"><ele>290.0</ele><time>2026-05-03T07:28:06.162Z</time></trkpt><trkpt lat="43.2969963" lon="11.5978372"><ele>290.0</ele><time>2026-05-03T07:28:07.163Z</time></trkpt><trkpt lat="43.2970906" lon="11.597728"><ele>290.0</ele><time>2026-05-03T07:28:08.162Z</time></trkpt><trkpt lat="43.2971905" lon="11.5976263"><ele>289.0</ele><time>2026-05-03T07:28:09.161Z</time></trkpt><trkpt lat="43.2973003" lon="11.59754"><ele>288.0</ele><time>2026-05-03T07:28:10.163Z</time></trkpt><trkpt lat="43.2974225" lon="11.597466"><ele>287.0</ele><time>2026-05-03T07:28:11.163Z</time></trkpt><trkpt lat="43.2975472" lon="11.5974125"><ele>286.0</ele><time>2026-05-03T07:28:12.162Z</time></trkpt><trkpt lat="43.2976758" lon="11.5973729"><ele>286.0</ele><time>2026-05-03T07:28:13.163Z</time></trkpt><trkpt lat="43.2978111" lon="11.597354"><ele>286.0</ele><time>2026-05-03T07:28:14.163Z</time></trkpt><trkpt lat="43.2979484" lon="11.5973527"><ele>286.0</ele><time>2026-05-03T07:28:15.161Z</time></trkpt><trkpt lat="43.2980898" lon="11.5973741"><ele>286.0</ele><time>2026-05-03T07:28:16.162Z</time></trkpt><trkpt lat="43.2982308" lon="11.5974182"><ele>284.25</ele><time>2026-05-03T07:28:17.163Z</time></trkpt><trkpt lat="43.2983614" lon="11.5974818"><ele>282.5</ele><time>2026-05-03T07:28:18.162Z</time></trkpt><trkpt lat="43.2984793" lon="11.5975593"><ele>280.75</ele><time>2026-05-03T07:28:19.162Z</time></trkpt><trkpt lat="43.2985849" lon="11.5976414"><ele>279.0</ele><time>2026-05-03T07:28:20.162Z</time></trkpt><trkpt lat="43.2986798" lon="11.5977353"><ele>278.8</ele><time>2026-05-03T07:28:21.162Z</time></trkpt><trkpt lat="43.2987644" lon="11.5978434"><ele>278.59999999999997</ele><time>2026-05-03T07:28:22.162Z</time></trkpt><trkpt lat="43.2988388" lon="11.5979504"><ele>278.4</ele><time>2026-05-03T07:28:23.163Z</time></trkpt><trkpt lat="43.2989081" lon="11.5980472"><ele>278.2</ele><time>2026-05-03T07:28:24.163Z</time></trkpt><trkpt lat="43.2989825" lon="11.5981315"><ele>278.0</ele><time>2026-05-03T07:28:25.162Z</time></trkpt><trkpt lat="43.2990564" lon="11.5981983"><ele>278.0</ele><time>2026-05-03T07:28:26.163Z</time></trkpt><trkpt lat="43.2991293" lon="11.5982479"><ele>278.0</ele><time>2026-05-03T07:28:27.163Z</time></trkpt><trkpt lat="43.2991943" lon="11.598297"><ele>278.0</ele><time>2026-05-03T07:28:28.163Z</time></trkpt><trkpt lat="43.2992519" lon="11.5983382"><ele>278.0</ele><time>2026-05-03T07:28:29.163Z</time></trkpt><trkpt lat="43.2993387" lon="11.5983606"><ele>278.0</ele><time>2026-05-03T07:28:31.163Z</time></trkpt><trkpt lat="43.2994536" lon="11.598269"><ele>278.0</ele><time>2026-05-03T07:28:33.163Z</time></trkpt><trkpt lat="43.2995169" lon="11.5981765"><ele>278.0</ele><time>2026-05-03T07:28:34.163Z</time></trkpt><trkpt lat="43.2995785" lon="11.5980758"><ele>278.0</ele><time>2026-05-03T07:28:35.163Z</time></trkpt><trkpt lat="43.2996493" lon="11.5979665"><ele>278.0</ele><time>2026-05-03T07:28:36.162Z</time></trkpt><trkpt lat="43.2997234" lon="11.5978524"><ele>278.0</ele><time>2026-05-03T07:28:37.163Z</time></trkpt><trkpt lat="43.2997957" lon="11.597747"><ele>278.0</ele><time>2026-05-03T07:28:38.163Z</time></trkpt><trkpt lat="43.2998743" lon="11.5976553"><ele>276.4</ele><time>2026-05-03T07:28:39.163Z</time></trkpt><trkpt lat="43.2999618" lon="11.5975894"><ele>274.8</ele><time>2026-05-03T07:28:40.163Z</time></trkpt><trkpt lat="43.3000649" lon="11.597546"><ele>273.2</ele><time>2026-05-03T07:28:41.163Z</time></trkpt><trkpt lat="43.3001683" lon="11.5975157"><ele>271.6</ele><time>2026-05-03T07:28:42.162Z</time></trkpt><trkpt lat="43.3002654" lon="11.5974936"><ele>270.0</ele><time>2026-05-03T07:28:43.162Z</time></trkpt><trkpt lat="43.3003513" lon="11.597476"><ele>270.0</ele><time>2026-05-03T07:28:44.161Z</time></trkpt><trkpt lat="43.3004326" lon="11.5974587"><ele>270.0</ele><time>2026-05-03T07:28:45.162Z</time></trkpt><trkpt lat="43.3005093" lon="11.597444"><ele>270.0</ele><time>2026-05-03T07:28:46.162Z</time></trkpt><trkpt lat="43.3005865" lon="11.5974329"><ele>270.0</ele><time>2026-05-03T07:28:47.163Z</time></trkpt><trkpt lat="43.3006622" lon="11.5974249"><ele>270.0</ele><time>2026-05-03T07:28:48.163Z</time></trkpt><trkpt lat="43.3007414" lon="11.597415"><ele>270.0</ele><time>2026-05-03T07:28:49.163Z</time></trkpt><trkpt lat="43.3008304" lon="11.5974011"><ele>269.8</ele><time>2026-05-03T07:28:50.162Z</time></trkpt><trkpt lat="43.3009313" lon="11.5973842"><ele>269.6</ele><time>2026-05-03T07:28:51.162Z</time></trkpt><trkpt lat="43.3010348" lon="11.5973647"><ele>269.4</ele><time>2026-05-03T07:28:52.163Z</time></trkpt><trkpt lat="43.3011427" lon="11.5973455"><ele>269.2</ele><time>2026-05-03T07:28:53.162Z</time></trkpt><trkpt lat="43.3012576" lon="11.5973266"><ele>269.0</ele><time>2026-05-03T07:28:54.163Z</time></trkpt><trkpt lat="43.3013772" lon="11.5973076"><ele>267.59999999999997</ele><time>2026-05-03T07:28:55.163Z</time></trkpt><trkpt lat="43.3014899" lon="11.5972889"><ele>266.2</ele><time>2026-05-03T07:28:56.162Z</time></trkpt><trkpt lat="43.3015983" lon="11.5972666"><ele>264.79999999999995</ele><time>2026-05-03T07:28:57.162Z</time></trkpt><trkpt lat="43.3017012" lon="11.5972467"><ele>263.4</ele><time>2026-05-03T07:28:58.163Z</time></trkpt><trkpt lat="43.3018022" lon="11.597227"><ele>262.0</ele><time>2026-05-03T07:28:59.163Z</time></trkpt><trkpt lat="43.3018999" lon="11.5972081"><ele>262.0</ele><time>2026-05-03T07:29:00.161Z</time></trkpt><trkpt lat="43.3019938" lon="11.5971878"><ele>262.0</ele><time>2026-05-03T07:29:01.163Z</time></trkpt><trkpt lat="43.3020808" lon="11.5971645"><ele>262.0</ele><time>2026-05-03T07:29:02.163Z</time></trkpt><trkpt lat="43.3021627" lon="11.5971226"><ele>262.0</ele><time>2026-05-03T07:29:03.162Z</time></trkpt><trkpt lat="43.302235" lon="11.5970682"><ele>262.0</ele><time>2026-05-03T07:29:04.163Z</time></trkpt><trkpt lat="43.3023024" lon="11.5970054"><ele>262.0</ele><time>2026-05-03T07:29:05.162Z</time></trkpt><trkpt lat="43.3023566" lon="11.5969467"><ele>261.0</ele><time>2026-05-03T07:29:06.163Z</time></trkpt><trkpt lat="43.3024363" lon="11.596871"><ele>260.0</ele><time>2026-05-03T07:29:08.163Z</time></trkpt><trkpt lat="43.3025146" lon="11.5968994"><ele>259.0</ele><time>2026-05-03T07:29:10.162Z</time></trkpt><trkpt lat="43.3025935" lon="11.5970088"><ele>258.0</ele><time>2026-05-03T07:29:12.163Z</time></trkpt><trkpt lat="43.3027182" lon="11.5971515"><ele>258.0</ele><time>2026-05-03T07:29:14.163Z</time></trkpt><trkpt lat="43.3027899" lon="11.5971999"><ele>258.0</ele><time>2026-05-03T07:29:15.163Z</time></trkpt><trkpt lat="43.3028616" lon="11.5971922"><ele>258.0</ele><time>2026-05-03T07:29:16.163Z</time></trkpt><trkpt lat="43.3029284" lon="11.5971409"><ele>258.0</ele><time>2026-05-03T07:29:17.163Z</time></trkpt><trkpt lat="43.3029927" lon="11.5970538"><ele>258.0</ele><time>2026-05-03T07:29:18.163Z</time></trkpt><trkpt lat="43.3030453" lon="11.5969419"><ele>258.0</ele><time>2026-05-03T07:29:19.163Z</time></trkpt><trkpt lat="43.3031004" lon="11.596825"><ele>257.4</ele><time>2026-05-03T07:29:20.163Z</time></trkpt><trkpt lat="43.303166" lon="11.5967055"><ele>256.8</ele><time>2026-05-03T07:29:21.163Z</time></trkpt><trkpt lat="43.3032403" lon="11.5965808"><ele>256.2</ele><time>2026-05-03T07:29:22.163Z</time></trkpt><trkpt lat="43.3033204" lon="11.5964614"><ele>255.6</ele><time>2026-05-03T07:29:23.162Z</time></trkpt><trkpt lat="43.3033944" lon="11.5963677"><ele>255.0</ele><time>2026-05-03T07:29:24.161Z</time></trkpt><trkpt lat="43.3034758" lon="11.5963071"><ele>255.0</ele><time>2026-05-03T07:29:25.163Z</time></trkpt><trkpt lat="43.303567" lon="11.5962824"><ele>255.0</ele><time>2026-05-03T07:29:26.162Z</time></trkpt><trkpt lat="43.3036527" lon="11.5962924"><ele>255.0</ele><time>2026-05-03T07:29:27.163Z</time></trkpt><trkpt lat="43.3037405" lon="11.5963107"><ele>255.0</ele><time>2026-05-03T07:29:28.161Z</time></trkpt><trkpt lat="43.3038255" lon="11.596301"><ele>255.0</ele><time>2026-05-03T07:29:29.162Z</time></trkpt><trkpt lat="43.3039047" lon="11.5963014"><ele>255.0</ele><time>2026-05-03T07:29:30.163Z</time></trkpt><trkpt lat="43.3039946" lon="11.5963994"><ele>257.6666666666667</ele><time>2026-05-03T07:29:32.163Z</time></trkpt><trkpt lat="43.3040486" lon="11.5964937"><ele>260.3333333333333</ele><time>2026-05-03T07:29:33.163Z</time></trkpt><trkpt lat="43.3041202" lon="11.5965922"><ele>263.0</ele><time>2026-05-03T07:29:34.163Z</time></trkpt><trkpt lat="43.3041701" lon="11.5966843"><ele>265.66666666666663</ele><time>2026-05-03T07:29:35.163Z</time></trkpt><trkpt lat="43.3042148" lon="11.5967721"><ele>268.3333333333333</ele><time>2026-05-03T07:29:36.163Z</time></trkpt><trkpt lat="43.3042184" lon="11.5968947"><ele>271.0</ele><time>2026-05-03T07:29:38.162Z</time></trkpt><trkpt lat="43.3041766" lon="11.5970574"><ele>271.5</ele><time>2026-05-03T07:29:40.162Z</time></trkpt><trkpt lat="43.3041655" lon="11.597158"><ele>272.0</ele><time>2026-05-03T07:29:41.162Z</time></trkpt><trkpt lat="43.3041617" lon="11.5972567"><ele>272.5</ele><time>2026-05-03T07:29:42.163Z</time></trkpt><trkpt lat="43.3041735" lon="11.5973562"><ele>273.0</ele><time>2026-05-03T07:29:43.162Z</time></trkpt><trkpt lat="43.3041958" lon="11.5974582"><ele>273.5</ele><time>2026-05-03T07:29:44.163Z</time></trkpt><trkpt lat="43.3042125" lon="11.5975664"><ele>274.0</ele><time>2026-05-03T07:29:45.163Z</time></trkpt><trkpt lat="43.3042294" lon="11.5976775"><ele>274.0</ele><time>2026-05-03T07:29:46.163Z</time></trkpt><trkpt lat="43.3042509" lon="11.5977882"><ele>274.0</ele><time>2026-05-03T07:29:47.163Z</time></trkpt><trkpt lat="43.3042727" lon="11.5978946"><ele>274.0</ele><time>2026-05-03T07:29:48.163Z</time></trkpt><trkpt lat="43.3043008" lon="11.5979972"><ele>274.0</ele><time>2026-05-03T07:29:49.163Z</time></trkpt><trkpt lat="43.3043268" lon="11.5980999"><ele>274.0</ele><time>2026-05-03T07:29:50.162Z</time></trkpt><trkpt lat="43.304349" lon="11.5982073"><ele>274.0</ele><time>2026-05-03T07:29:51.162Z</time></trkpt><trkpt lat="43.3043629" lon="11.5983186"><ele>275.5</ele><time>2026-05-03T07:29:52.163Z</time></trkpt><trkpt lat="43.3043725" lon="11.5984276"><ele>277.0</ele><time>2026-05-03T07:29:53.162Z</time></trkpt><trkpt lat="43.3043799" lon="11.5985361"><ele>278.5</ele><time>2026-05-03T07:29:54.163Z</time></trkpt><trkpt lat="43.3043915" lon="11.5986428"><ele>280.0</ele><time>2026-05-03T07:29:55.162Z</time></trkpt><trkpt lat="43.3043989" lon="11.5987513"><ele>281.5</ele><time>2026-05-03T07:29:56.161Z</time></trkpt><trkpt lat="43.3044072" lon="11.5988581"><ele>283.0</ele><time>2026-05-03T07:29:57.162Z</time></trkpt><trkpt lat="43.3044083" lon="11.5989679"><ele>283.8333333333333</ele><time>2026-05-03T07:29:58.163Z</time></trkpt><trkpt lat="43.3044141" lon="11.5990755"><ele>284.66666666666663</ele><time>2026-05-03T07:29:59.162Z</time></trkpt><trkpt lat="43.3044171" lon="11.5991739"><ele>285.5</ele><time>2026-05-03T07:30:00.163Z</time></trkpt><trkpt lat="43.3044267" lon="11.5992595"><ele>286.3333333333333</ele><time>2026-05-03T07:30:01.163Z</time></trkpt><trkpt lat="43.3044426" lon="11.5994019"><ele>287.1666666666667</ele><time>2026-05-03T07:30:03.163Z</time></trkpt><trkpt lat="43.3044432" lon="11.5995321"><ele>288.0</ele><time>2026-05-03T07:30:05.161Z</time></trkpt><trkpt lat="43.3044611" lon="11.5996245"><ele>288.0</ele><time>2026-05-03T07:30:07.162Z</time></trkpt><trkpt lat="43.3045245" lon="11.5996617"><ele>288.0</ele><time>2026-05-03T07:30:09.162Z</time></trkpt><trkpt lat="43.3045946" lon="11.5996791"><ele>288.0</ele><time>2026-05-03T07:30:11.163Z</time></trkpt><trkpt lat="43.3046725" lon="11.5997002"><ele>288.0</ele><time>2026-05-03T07:30:13.162Z</time></trkpt><trkpt lat="43.3047557" lon="11.5997291"><ele>288.0</ele><time>2026-05-03T07:30:15.163Z</time></trkpt><trkpt lat="43.3048428" lon="11.5997659"><ele>288.0</ele><time>2026-05-03T07:30:17.163Z</time></trkpt><trkpt lat="43.3049319" lon="11.5998037"><ele>288.0</ele><time>2026-05-03T07:30:19.162Z</time></trkpt><trkpt lat="43.3050451" lon="11.5998416"><ele>288.0</ele><time>2026-05-03T07:30:21.163Z</time></trkpt><trkpt lat="43.305159" lon="11.5998739"><ele>288.0</ele><time>2026-05-03T07:30:23.163Z</time></trkpt><trkpt lat="43.30522" lon="11.5998966"><ele>288.0</ele><time>2026-05-03T07:30:24.162Z</time></trkpt><trkpt lat="43.3052811" lon="11.5999222"><ele>288.0</ele><time>2026-05-03T07:30:25.162Z</time></trkpt><trkpt lat="43.3053431" lon="11.5999422"><ele>288.0</ele><time>2026-05-03T07:30:26.163Z</time></trkpt><trkpt lat="43.3054067" lon="11.5999577"><ele>288.00000000000006</ele><time>2026-05-03T07:30:27.162Z</time></trkpt><trkpt lat="43.3054723" lon="11.5999683"><ele>288.0</ele><time>2026-05-03T07:30:28.163Z</time></trkpt><trkpt lat="43.3055376" lon="11.5999914"><ele>288.0</ele><time>2026-05-03T07:30:29.161Z</time></trkpt><trkpt lat="43.305606" lon="11.6000118"><ele>288.0</ele><time>2026-05-03T07:30:30.163Z</time></trkpt><trkpt lat="43.3056801" lon="11.6000395"><ele>288.0</ele><time>2026-05-03T07:30:31.161Z</time></trkpt><trkpt lat="43.3057568" lon="11.600074"><ele>288.00000000000006</ele><time>2026-05-03T07:30:32.162Z</time></trkpt><trkpt lat="43.305834" lon="11.6001094"><ele>288.0</ele><time>2026-05-03T07:30:33.162Z</time></trkpt><trkpt lat="43.305912" lon="11.6001476"><ele>287.8333333333333</ele><time>2026-05-03T07:30:34.162Z</time></trkpt><trkpt lat="43.3059962" lon="11.6001837"><ele>287.6666666666667</ele><time>2026-05-03T07:30:35.162Z</time></trkpt><trkpt lat="43.3060824" lon="11.6002248"><ele>287.5</ele><time>2026-05-03T07:30:36.163Z</time></trkpt><trkpt lat="43.306165" lon="11.6002656"><ele>287.33333333333337</ele><time>2026-05-03T07:30:37.163Z</time></trkpt><trkpt lat="43.3062296" lon="11.6003306"><ele>287.1666666666667</ele><time>2026-05-03T07:30:38.161Z</time></trkpt><trkpt lat="43.3062901" lon="11.6003813"><ele>287.0</ele><time>2026-05-03T07:30:39.161Z</time></trkpt><trkpt lat="43.3063813" lon="11.6005048"><ele>286.6</ele><time>2026-05-03T07:30:41.161Z</time></trkpt><trkpt lat="43.3064629" lon="11.6006307"><ele>286.2</ele><time>2026-05-03T07:30:43.163Z</time></trkpt><trkpt lat="43.3065508" lon="11.6007454"><ele>285.8</ele><time>2026-05-03T07:30:45.163Z</time></trkpt><trkpt lat="43.3066032" lon="11.6008078"><ele>285.4</ele><time>2026-05-03T07:30:46.162Z</time></trkpt><trkpt lat="43.3066582" lon="11.6008827"><ele>285.0</ele><time>2026-05-03T07:30:47.162Z</time></trkpt><trkpt lat="43.3067168" lon="11.6009683"><ele>285.0</ele><time>2026-05-03T07:30:48.162Z</time></trkpt><trkpt lat="43.3067802" lon="11.6010662"><ele>285.0</ele><time>2026-05-03T07:30:49.163Z</time></trkpt><trkpt lat="43.3068519" lon="11.6011617"><ele>285.0</ele><time>2026-05-03T07:30:50.163Z</time></trkpt><trkpt lat="43.306931" lon="11.6012472"><ele>285.0</ele><time>2026-05-03T07:30:51.163Z</time></trkpt><trkpt lat="43.307024" lon="11.6013208"><ele>285.0</ele><time>2026-05-03T07:30:52.162Z</time></trkpt><trkpt lat="43.3071238" lon="11.6013829"><ele>286.2</ele><time>2026-05-03T07:30:53.163Z</time></trkpt><trkpt lat="43.3072311" lon="11.6014381"><ele>287.4</ele><time>2026-05-03T07:30:54.162Z</time></trkpt><trkpt lat="43.3073373" lon="11.6014863"><ele>288.6</ele><time>2026-05-03T07:30:55.163Z</time></trkpt><trkpt lat="43.30744" lon="11.601536"><ele>289.8</ele><time>2026-05-03T07:30:56.162Z</time></trkpt><trkpt lat="43.3075412" lon="11.6015859"><ele>291.0</ele><time>2026-05-03T07:30:57.162Z</time></trkpt><trkpt lat="43.3076411" lon="11.6016436"><ele>288.40000000000003</ele><time>2026-05-03T07:30:58.163Z</time></trkpt><trkpt lat="43.3077351" lon="11.6017012"><ele>285.8</ele><time>2026-05-03T07:30:59.163Z</time></trkpt><trkpt lat="43.3078308" lon="11.6017419"><ele>283.20000000000005</ele><time>2026-05-03T07:31:00.163Z</time></trkpt><trkpt lat="43.3079283" lon="11.601758"><ele>280.6</ele><time>2026-05-03T07:31:01.163Z</time></trkpt><trkpt lat="43.3080245" lon="11.6017389"><ele>278.0</ele><time>2026-05-03T07:31:02.163Z</time></trkpt><trkpt lat="43.30811" lon="11.6016988"><ele>277.0</ele><time>2026-05-03T07:31:03.163Z</time></trkpt><trkpt lat="43.308194" lon="11.60165"><ele>276.0</ele><time>2026-05-03T07:31:04.163Z</time></trkpt><trkpt lat="43.3082735" lon="11.6016083"><ele>275.0</ele><time>2026-05-03T07:31:05.163Z</time></trkpt><trkpt lat="43.3083467" lon="11.6015831"><ele>274.0</ele><time>2026-05-03T07:31:06.163Z</time></trkpt><trkpt lat="43.3084102" lon="11.6015783"><ele>273.0</ele><time>2026-05-03T07:31:07.163Z</time></trkpt><trkpt lat="43.3085075" lon="11.6016413"><ele>272.0</ele><time>2026-05-03T07:31:09.163Z</time></trkpt><trkpt lat="43.3085922" lon="11.6017753"><ele>272.0</ele><time>2026-05-03T07:31:11.163Z</time></trkpt><trkpt lat="43.3086587" lon="11.6018352"><ele>272.0</ele><time>2026-05-03T07:31:12.163Z</time></trkpt><trkpt lat="43.3087431" lon="11.6018984"><ele>272.0</ele><time>2026-05-03T07:31:13.162Z</time></trkpt><trkpt lat="43.3088487" lon="11.6019524"><ele>272.0</ele><time>2026-05-03T07:31:14.162Z</time></trkpt><trkpt lat="43.3089897" lon="11.6019898"><ele>272.0</ele><time>2026-05-03T07:31:15.163Z</time></trkpt><trkpt lat="43.3091165" lon="11.6020229"><ele>273.6</ele><time>2026-05-03T07:31:16.163Z</time></trkpt><trkpt lat="43.3092296" lon="11.6020653"><ele>275.2</ele><time>2026-05-03T07:31:17.162Z</time></trkpt><trkpt lat="43.3093409" lon="11.6020926"><ele>276.8</ele><time>2026-05-03T07:31:18.163Z</time></trkpt><trkpt lat="43.30944" lon="11.6020881"><ele>278.4</ele><time>2026-05-03T07:31:19.163Z</time></trkpt><trkpt lat="43.3095482" lon="11.6020662"><ele>280.0</ele><time>2026-05-03T07:31:20.162Z</time></trkpt><trkpt lat="43.3096596" lon="11.602044"><ele>283.4</ele><time>2026-05-03T07:31:21.163Z</time></trkpt><trkpt lat="43.3097721" lon="11.6020123"><ele>286.8</ele><time>2026-05-03T07:31:22.163Z</time></trkpt><trkpt lat="43.3098575" lon="11.6019994"><ele>290.2</ele><time>2026-05-03T07:31:23.163Z</time></trkpt><trkpt lat="43.3099623" lon="11.6020246"><ele>293.6</ele><time>2026-05-03T07:31:24.163Z</time></trkpt><trkpt lat="43.3100464" lon="11.6020657"><ele>297.0</ele><time>2026-05-03T07:31:25.162Z</time></trkpt><trkpt lat="43.3101041" lon="11.6021285"><ele>297.0</ele><time>2026-05-03T07:31:26.162Z</time></trkpt><trkpt lat="43.3101551" lon="11.6022265"><ele>297.0</ele><time>2026-05-03T07:31:27.162Z</time></trkpt><trkpt lat="43.3102007" lon="11.6023459"><ele>297.0</ele><time>2026-05-03T07:31:28.163Z</time></trkpt><trkpt lat="43.3102522" lon="11.6024877"><ele>297.0</ele><time>2026-05-03T07:31:29.163Z</time></trkpt><trkpt lat="43.3103077" lon="11.6026398"><ele>297.0</ele><time>2026-05-03T07:31:30.163Z</time></trkpt><trkpt lat="43.3103769" lon="11.6027832"><ele>297.5</ele><time>2026-05-03T07:31:31.163Z</time></trkpt><trkpt lat="43.3104581" lon="11.6029081"><ele>298.0</ele><time>2026-05-03T07:31:32.162Z</time></trkpt><trkpt lat="43.3105365" lon="11.603028"><ele>298.5</ele><time>2026-05-03T07:31:33.162Z</time></trkpt><trkpt lat="43.3106213" lon="11.6031551"><ele>299.0</ele><time>2026-05-03T07:31:34.163Z</time></trkpt><trkpt lat="43.3107014" lon="11.6032906"><ele>300.5</ele><time>2026-05-03T07:31:35.162Z</time></trkpt><trkpt lat="43.3107836" lon="11.6034221"><ele>302.0</ele><time>2026-05-03T07:31:36.162Z</time></trkpt><trkpt lat="43.3108719" lon="11.603543"><ele>303.5</ele><time>2026-05-03T07:31:37.163Z</time></trkpt><trkpt lat="43.3109639" lon="11.6036586"><ele>305.0</ele><time>2026-05-03T07:31:38.163Z</time></trkpt><trkpt lat="43.3110769" lon="11.6037615"><ele>306.25</ele><time>2026-05-03T07:31:39.163Z</time></trkpt><trkpt lat="43.3111713" lon="11.6038778"><ele>307.5</ele><time>2026-05-03T07:31:40.163Z</time></trkpt><trkpt lat="43.3112509" lon="11.6039831"><ele>308.75</ele><time>2026-05-03T07:31:41.163Z</time></trkpt><trkpt lat="43.3113344" lon="11.6040914"><ele>310.0</ele><time>2026-05-03T07:31:42.163Z</time></trkpt><trkpt lat="43.3114258" lon="11.6041942"><ele>311.25</ele><time>2026-05-03T07:31:43.163Z</time></trkpt><trkpt lat="43.3115317" lon="11.6042928"><ele>312.5</ele><time>2026-05-03T07:31:44.162Z</time></trkpt><trkpt lat="43.311638" lon="11.6043529"><ele>313.75</ele><time>2026-05-03T07:31:45.162Z</time></trkpt><trkpt lat="43.3117471" lon="11.6044189"><ele>315.0</ele><time>2026-05-03T07:31:46.163Z</time></trkpt><trkpt lat="43.3118528" lon="11.6044802"><ele>316.4</ele><time>2026-05-03T07:31:47.162Z</time></trkpt><trkpt lat="43.3119339" lon="11.6045736"><ele>317.8</ele><time>2026-05-03T07:31:48.161Z</time></trkpt><trkpt lat="43.3119956" lon="11.6046903"><ele>319.20000000000005</ele><time>2026-05-03T07:31:49.162Z</time></trkpt><trkpt lat="43.3120638" lon="11.6048113"><ele>320.6</ele><time>2026-05-03T07:31:50.163Z</time></trkpt><trkpt lat="43.3121321" lon="11.6049322"><ele>322.0</ele><time>2026-05-03T07:31:51.163Z</time></trkpt><trkpt lat="43.3122099" lon="11.6050614"><ele>323.25</ele><time>2026-05-03T07:31:52.163Z</time></trkpt><trkpt lat="43.3122793" lon="11.605221"><ele>324.5</ele><time>2026-05-03T07:31:53.163Z</time></trkpt><trkpt lat="43.3123554" lon="11.6053595"><ele>325.75</ele><time>2026-05-03T07:31:54.162Z</time></trkpt><trkpt lat="43.3124245" lon="11.6055013"><ele>327.0</ele><time>2026-05-03T07:31:55.162Z</time></trkpt><trkpt lat="43.3124769" lon="11.6056477"><ele>329.0</ele><time>2026-05-03T07:31:56.163Z</time></trkpt><trkpt lat="43.3124822" lon="11.6058111"><ele>331.0</ele><time>2026-05-03T07:31:57.163Z</time></trkpt><trkpt lat="43.312507" lon="11.6059761"><ele>333.0</ele><time>2026-05-03T07:31:58.163Z</time></trkpt><trkpt lat="43.3125357" lon="11.6061424"><ele>335.0</ele><time>2026-05-03T07:31:59.163Z</time></trkpt><trkpt lat="43.3125712" lon="11.6063045"><ele>336.25</ele><time>2026-05-03T07:32:00.163Z</time></trkpt><trkpt lat="43.3126272" lon="11.6064899"><ele>337.5</ele><time>2026-05-03T07:32:01.163Z</time></trkpt><trkpt lat="43.3126531" lon="11.6066662"><ele>338.75</ele><time>2026-05-03T07:32:02.162Z</time></trkpt><trkpt lat="43.3126543" lon="11.6068194"><ele>340.0</ele><time>2026-05-03T07:32:03.162Z</time></trkpt><trkpt lat="43.3126584" lon="11.6069408"><ele>339.66666666666663</ele><time>2026-05-03T07:32:04.163Z</time></trkpt><trkpt lat="43.3126766" lon="11.6070433"><ele>339.3333333333333</ele><time>2026-05-03T07:32:05.162Z</time></trkpt><trkpt lat="43.3127161" lon="11.6071186"><ele>339.0</ele><time>2026-05-03T07:32:06.163Z</time></trkpt><trkpt lat="43.3127773" lon="11.6071731"><ele>338.6666666666667</ele><time>2026-05-03T07:32:07.162Z</time></trkpt><trkpt lat="43.3128552" lon="11.6072224"><ele>338.33333333333337</ele><time>2026-05-03T07:32:08.163Z</time></trkpt><trkpt lat="43.3129494" lon="11.6072611"><ele>338.0</ele><time>2026-05-03T07:32:09.161Z</time></trkpt><trkpt lat="43.3130519" lon="11.6072744"><ele>340.79999999999995</ele><time>2026-05-03T07:32:10.162Z</time></trkpt><trkpt lat="43.3131539" lon="11.6072932"><ele>343.6</ele><time>2026-05-03T07:32:11.163Z</time></trkpt><trkpt lat="43.313251" lon="11.6073395"><ele>346.4</ele><time>2026-05-03T07:32:12.162Z</time></trkpt><trkpt lat="43.3133493" lon="11.6074033"><ele>349.20000000000005</ele><time>2026-05-03T07:32:13.161Z</time></trkpt><trkpt lat="43.3134534" lon="11.6074506"><ele>352.0</ele><time>2026-05-03T07:32:14.161Z</time></trkpt><trkpt lat="43.313557" lon="11.6074692"><ele>352.0</ele><time>2026-05-03T07:32:15.161Z</time></trkpt><trkpt lat="43.3136606" lon="11.6074529"><ele>352.0</ele><time>2026-05-03T07:32:16.163Z</time></trkpt><trkpt lat="43.3137605" lon="11.6074329"><ele>352.0</ele><time>2026-05-03T07:32:17.163Z</time></trkpt><trkpt lat="43.3138564" lon="11.6074264"><ele>352.0</ele><time>2026-05-03T07:32:18.163Z</time></trkpt><trkpt lat="43.3139614" lon="11.6074309"><ele>352.0</ele><time>2026-05-03T07:32:19.162Z</time></trkpt><trkpt lat="43.3140515" lon="11.6074656"><ele>353.0</ele><time>2026-05-03T07:32:20.163Z</time></trkpt><trkpt lat="43.3141312" lon="11.607492"><ele>354.0</ele><time>2026-05-03T07:32:21.161Z</time></trkpt><trkpt lat="43.3142077" lon="11.6075027"><ele>355.0</ele><time>2026-05-03T07:32:22.162Z</time></trkpt><trkpt lat="43.3142745" lon="11.60752"><ele>356.0</ele><time>2026-05-03T07:32:23.162Z</time></trkpt><trkpt lat="43.3143375" lon="11.6075402"><ele>357.0</ele><time>2026-05-03T07:32:24.161Z</time></trkpt><trkpt lat="43.3144398" lon="11.6076282"><ele>358.0</ele><time>2026-05-03T07:32:26.162Z</time></trkpt><trkpt lat="43.3144852" lon="11.6077455"><ele>357.8333333333333</ele><time>2026-05-03T07:32:28.163Z</time></trkpt><trkpt lat="43.3144956" lon="11.6078344"><ele>357.66666666666663</ele><time>2026-05-03T07:32:29.163Z</time></trkpt><trkpt lat="43.3145104" lon="11.607936"><ele>357.5</ele><time>2026-05-03T07:32:30.162Z</time></trkpt><trkpt lat="43.3145371" lon="11.6080344"><ele>357.3333333333333</ele><time>2026-05-03T07:32:31.163Z</time></trkpt><trkpt lat="43.3145732" lon="11.6081302"><ele>357.1666666666667</ele><time>2026-05-03T07:32:32.162Z</time></trkpt><trkpt lat="43.3146186" lon="11.6082233"><ele>357.0</ele><time>2026-05-03T07:32:33.163Z</time></trkpt><trkpt lat="43.3146719" lon="11.6083151"><ele>357.0</ele><time>2026-05-03T07:32:34.162Z</time></trkpt><trkpt lat="43.3147329" lon="11.6084116"><ele>357.0</ele><time>2026-05-03T07:32:35.163Z</time></trkpt><trkpt lat="43.3147963" lon="11.6085104"><ele>357.0</ele><time>2026-05-03T07:32:36.162Z</time></trkpt><trkpt lat="43.3148574" lon="11.6086116"><ele>357.0</ele><time>2026-05-03T07:32:37.162Z</time></trkpt><trkpt lat="43.3149226" lon="11.6087233"><ele>357.0</ele><time>2026-05-03T07:32:38.163Z</time></trkpt><trkpt lat="43.3149824" lon="11.6088425"><ele>359.5</ele><time>2026-05-03T07:32:39.162Z</time></trkpt><trkpt lat="43.3150421" lon="11.6089698"><ele>362.0</ele><time>2026-05-03T07:32:40.162Z</time></trkpt><trkpt lat="43.3151056" lon="11.6090997"><ele>364.5</ele><time>2026-05-03T07:32:41.163Z</time></trkpt><trkpt lat="43.3151709" lon="11.6092286"><ele>367.0</ele><time>2026-05-03T07:32:42.163Z</time></trkpt><trkpt lat="43.3152348" lon="11.6093558"><ele>367.0</ele><time>2026-05-03T07:32:43.163Z</time></trkpt><trkpt lat="43.3152984" lon="11.6094824"><ele>367.0</ele><time>2026-05-03T07:32:44.163Z</time></trkpt><trkpt lat="43.3153558" lon="11.6096208"><ele>367.0</ele><time>2026-05-03T07:32:45.162Z</time></trkpt><trkpt lat="43.3154132" lon="11.6097539"><ele>367.0</ele><time>2026-05-03T07:32:46.163Z</time></trkpt><trkpt lat="43.3154732" lon="11.6098856"><ele>367.25</ele><time>2026-05-03T07:32:47.162Z</time></trkpt><trkpt lat="43.3155378" lon="11.610017"><ele>367.5</ele><time>2026-05-03T07:32:48.163Z</time></trkpt><trkpt lat="43.3156057" lon="11.6101553"><ele>367.75</ele><time>2026-05-03T07:32:49.163Z</time></trkpt><trkpt lat="43.3156836" lon="11.6102829"><ele>368.0</ele><time>2026-05-03T07:32:50.162Z</time></trkpt><trkpt lat="43.3157705" lon="11.6104008"><ele>370.0</ele><time>2026-05-03T07:32:51.163Z</time></trkpt><trkpt lat="43.3158549" lon="11.6105176"><ele>372.0</ele><time>2026-05-03T07:32:52.163Z</time></trkpt><trkpt lat="43.3159247" lon="11.6106428"><ele>374.0</ele><time>2026-05-03T07:32:53.163Z</time></trkpt><trkpt lat="43.3159745" lon="11.6107849"><ele>376.0</ele><time>2026-05-03T07:32:54.163Z</time></trkpt><trkpt lat="43.3160115" lon="11.6109364"><ele>376.0</ele><time>2026-05-03T07:32:55.162Z</time></trkpt><trkpt lat="43.3160324" lon="11.6110959"><ele>376.0</ele><time>2026-05-03T07:32:56.163Z</time></trkpt><trkpt lat="43.3160574" lon="11.6112415"><ele>376.0</ele><time>2026-05-03T07:32:57.163Z</time></trkpt><trkpt lat="43.3160799" lon="11.6113764"><ele>376.0</ele><time>2026-05-03T07:32:58.163Z</time></trkpt><trkpt lat="43.3161072" lon="11.6115045"><ele>376.0</ele><time>2026-05-03T07:32:59.161Z</time></trkpt><trkpt lat="43.3161374" lon="11.6116203"><ele>376.66666666666663</ele><time>2026-05-03T07:33:00.162Z</time></trkpt><trkpt lat="43.3161772" lon="11.6117267"><ele>377.3333333333333</ele><time>2026-05-03T07:33:01.162Z</time></trkpt><trkpt lat="43.3162282" lon="11.6118226"><ele>378.0</ele><time>2026-05-03T07:33:02.163Z</time></trkpt><trkpt lat="43.3162849" lon="11.611909"><ele>378.6666666666667</ele><time>2026-05-03T07:33:03.162Z</time></trkpt><trkpt lat="43.3163435" lon="11.61199"><ele>379.33333333333337</ele><time>2026-05-03T07:33:04.163Z</time></trkpt><trkpt lat="43.3164042" lon="11.6120689"><ele>380.0</ele><time>2026-05-03T07:33:05.163Z</time></trkpt><trkpt lat="43.3164696" lon="11.6121524"><ele>380.6666666666667</ele><time>2026-05-03T07:33:06.163Z</time></trkpt><trkpt lat="43.3165341" lon="11.6122325"><ele>381.33333333333337</ele><time>2026-05-03T07:33:07.163Z</time></trkpt><trkpt lat="43.3166027" lon="11.612313"><ele>382.0</ele><time>2026-05-03T07:33:08.163Z</time></trkpt><trkpt lat="43.3166676" lon="11.612389"><ele>382.6666666666667</ele><time>2026-05-03T07:33:09.162Z</time></trkpt><trkpt lat="43.3167366" lon="11.6124692"><ele>383.3333333333333</ele><time>2026-05-03T07:33:10.162Z</time></trkpt><trkpt lat="43.3168034" lon="11.6125527"><ele>384.0</ele><time>2026-05-03T07:33:11.162Z</time></trkpt><trkpt lat="43.3168723" lon="11.6126358"><ele>384.0</ele><time>2026-05-03T07:33:12.163Z</time></trkpt><trkpt lat="43.3169436" lon="11.6127241"><ele>384.0</ele><time>2026-05-03T07:33:13.162Z</time></trkpt><trkpt lat="43.3170179" lon="11.6128085"><ele>384.0</ele><time>2026-05-03T07:33:14.163Z</time></trkpt><trkpt lat="43.3170934" lon="11.612892"><ele>384.0</ele><time>2026-05-03T07:33:15.163Z</time></trkpt><trkpt lat="43.3171774" lon="11.6129683"><ele>384.0</ele><time>2026-05-03T07:33:16.163Z</time></trkpt><trkpt lat="43.3172575" lon="11.6130533"><ele>385.3333333333333</ele><time>2026-05-03T07:33:17.163Z</time></trkpt><trkpt lat="43.3173359" lon="11.6131325"><ele>386.66666666666663</ele><time>2026-05-03T07:33:18.161Z</time></trkpt><trkpt lat="43.3174163" lon="11.6132004"><ele>388.0</ele><time>2026-05-03T07:33:19.163Z</time></trkpt><trkpt lat="43.3174903" lon="11.6132529"><ele>389.3333333333333</ele><time>2026-05-03T07:33:20.162Z</time></trkpt><trkpt lat="43.3175661" lon="11.6132855"><ele>390.66666666666663</ele><time>2026-05-03T07:33:21.162Z</time></trkpt><trkpt lat="43.3176503" lon="11.6133089"><ele>392.0</ele><time>2026-05-03T07:33:22.162Z</time></trkpt><trkpt lat="43.3177343" lon="11.6133443"><ele>392.0</ele><time>2026-05-03T07:33:23.163Z</time></trkpt><trkpt lat="43.3178241" lon="11.6133514"><ele>392.0</ele><time>2026-05-03T07:33:24.161Z</time></trkpt><trkpt lat="43.3179145" lon="11.6133465"><ele>392.0</ele><time>2026-05-03T07:33:25.162Z</time></trkpt><trkpt lat="43.3180145" lon="11.6133479"><ele>392.0</ele><time>2026-05-03T07:33:26.163Z</time></trkpt><trkpt lat="43.3181166" lon="11.6133533"><ele>392.0</ele><time>2026-05-03T07:33:27.163Z</time></trkpt><trkpt lat="43.3182187" lon="11.6133667"><ele>393.0</ele><time>2026-05-03T07:33:28.163Z</time></trkpt><trkpt lat="43.3183212" lon="11.6133945"><ele>394.0</ele><time>2026-05-03T07:33:29.163Z</time></trkpt><trkpt lat="43.3184234" lon="11.6134364"><ele>395.0</ele><time>2026-05-03T07:33:30.163Z</time></trkpt><trkpt lat="43.3185212" lon="11.6134902"><ele>396.0</ele><time>2026-05-03T07:33:31.163Z</time></trkpt><trkpt lat="43.3186158" lon="11.613537"><ele>397.0</ele><time>2026-05-03T07:33:32.162Z</time></trkpt><trkpt lat="43.3187165" lon="11.6135641"><ele>397.0</ele><time>2026-05-03T07:33:33.163Z</time></trkpt><trkpt lat="43.318809" lon="11.6135559"><ele>397.0</ele><time>2026-05-03T07:33:34.163Z</time></trkpt><trkpt lat="43.3189104" lon="11.6135266"><ele>397.0</ele><time>2026-05-03T07:33:35.163Z</time></trkpt><trkpt lat="43.3190159" lon="11.6135031"><ele>397.0</ele><time>2026-05-03T07:33:36.163Z</time></trkpt><trkpt lat="43.3191187" lon="11.6134751"><ele>397.0</ele><time>2026-05-03T07:33:37.163Z</time></trkpt><trkpt lat="43.3192212" lon="11.613432"><ele>396.8</ele><time>2026-05-03T07:33:38.163Z</time></trkpt><trkpt lat="43.3193236" lon="11.6133766"><ele>396.6</ele><time>2026-05-03T07:33:39.163Z</time></trkpt><trkpt lat="43.3194193" lon="11.6133223"><ele>396.40000000000003</ele><time>2026-05-03T07:33:40.162Z</time></trkpt><trkpt lat="43.3195089" lon="11.6132713"><ele>396.20000000000005</ele><time>2026-05-03T07:33:41.162Z</time></trkpt><trkpt lat="43.3195937" lon="11.6132154"><ele>396.0</ele><time>2026-05-03T07:33:42.162Z</time></trkpt><trkpt lat="43.3196742" lon="11.6131636"><ele>396.0</ele><time>2026-05-03T07:33:43.163Z</time></trkpt><trkpt lat="43.3197481" lon="11.6131082"><ele>396.0</ele><time>2026-05-03T07:33:44.162Z</time></trkpt><trkpt lat="43.3198208" lon="11.6130518"><ele>396.0</ele><time>2026-05-03T07:33:45.162Z</time></trkpt><trkpt lat="43.3198898" lon="11.6130191"><ele>396.0</ele><time>2026-05-03T07:33:46.162Z</time></trkpt><trkpt lat="43.3199599" lon="11.6130093"><ele>396.0</ele><time>2026-05-03T07:33:47.162Z</time></trkpt><trkpt lat="43.3200405" lon="11.6130275"><ele>396.0</ele><time>2026-05-03T07:33:48.161Z</time></trkpt><trkpt lat="43.3201197" lon="11.6130595"><ele>396.0</ele><time>2026-05-03T07:33:49.163Z</time></trkpt><trkpt lat="43.3201974" lon="11.6130941"><ele>396.0</ele><time>2026-05-03T07:33:50.163Z</time></trkpt><trkpt lat="43.3202768" lon="11.6131387"><ele>396.0</ele><time>2026-05-03T07:33:51.163Z</time></trkpt><trkpt lat="43.3203456" lon="11.6132061"><ele>396.0</ele><time>2026-05-03T07:33:52.162Z</time></trkpt><trkpt lat="43.320426" lon="11.6132544"><ele>396.0</ele><time>2026-05-03T07:33:53.163Z</time></trkpt><trkpt lat="43.3204971" lon="11.6133165"><ele>396.0</ele><time>2026-05-03T07:33:54.161Z</time></trkpt><trkpt lat="43.3205721" lon="11.6133872"><ele>395.1666666666667</ele><time>2026-05-03T07:33:55.162Z</time></trkpt><trkpt lat="43.3206388" lon="11.6134756"><ele>394.33333333333337</ele><time>2026-05-03T07:33:56.163Z</time></trkpt><trkpt lat="43.320705" lon="11.6135533"><ele>393.5</ele><time>2026-05-03T07:33:57.163Z</time></trkpt><trkpt lat="43.3207895" lon="11.6135745"><ele>392.6666666666667</ele><time>2026-05-03T07:34:00.161Z</time></trkpt><trkpt lat="43.3208037" lon="11.6134888"><ele>391.83333333333337</ele><time>2026-05-03T07:34:01.162Z</time></trkpt><trkpt lat="43.3208235" lon="11.6133906"><ele>391.0</ele><time>2026-05-03T07:34:02.162Z</time></trkpt><trkpt lat="43.3208584" lon="11.6132414"><ele>391.00000000000006</ele><time>2026-05-03T07:34:03.163Z</time></trkpt><trkpt lat="43.3209053" lon="11.6131339"><ele>391.0</ele><time>2026-05-03T07:34:04.163Z</time></trkpt><trkpt lat="43.320956" lon="11.6130413"><ele>391.0</ele><time>2026-05-03T07:34:05.161Z</time></trkpt><trkpt lat="43.321009" lon="11.6129799"><ele>391.0</ele><time>2026-05-03T07:34:06.163Z</time></trkpt><trkpt lat="43.3210763" lon="11.6129604"><ele>391.00000000000006</ele><time>2026-05-03T07:34:07.163Z</time></trkpt><trkpt lat="43.3211439" lon="11.6129792"><ele>391.0</ele><time>2026-05-03T07:34:08.162Z</time></trkpt><trkpt lat="43.321207" lon="11.6130318"><ele>391.0</ele><time>2026-05-03T07:34:09.163Z</time></trkpt><trkpt lat="43.3212583" lon="11.6131113"><ele>391.0</ele><time>2026-05-03T07:34:10.163Z</time></trkpt><trkpt lat="43.3213213" lon="11.6132002"><ele>391.0</ele><time>2026-05-03T07:34:11.161Z</time></trkpt><trkpt lat="43.3213759" lon="11.6132913"><ele>391.0</ele><time>2026-05-03T07:34:12.163Z</time></trkpt><trkpt lat="43.3214373" lon="11.6133883"><ele>391.0</ele><time>2026-05-03T07:34:13.162Z</time></trkpt><trkpt lat="43.321514" lon="11.6134823"><ele>393.0</ele><time>2026-05-03T07:34:14.163Z</time></trkpt><trkpt lat="43.3215891" lon="11.6135631"><ele>395.0</ele><time>2026-05-03T07:34:15.163Z</time></trkpt><trkpt lat="43.3216811" lon="11.613615"><ele>397.0</ele><time>2026-05-03T07:34:16.162Z</time></trkpt><trkpt lat="43.3217669" lon="11.6137001"><ele>399.0</ele><time>2026-05-03T07:34:17.163Z</time></trkpt><trkpt lat="43.3218281" lon="11.6138004"><ele>401.0</ele><time>2026-05-03T07:34:18.163Z</time></trkpt><trkpt lat="43.3218909" lon="11.6139279"><ele>403.0</ele><time>2026-05-03T07:34:19.162Z</time></trkpt><trkpt lat="43.3219531" lon="11.6140499"><ele>405.0</ele><time>2026-05-03T07:34:20.163Z</time></trkpt><trkpt lat="43.3220229" lon="11.6141744"><ele>407.0</ele><time>2026-05-03T07:34:21.162Z</time></trkpt><trkpt lat="43.3221058" lon="11.6142939"><ele>409.0</ele><time>2026-05-03T07:34:22.163Z</time></trkpt><trkpt lat="43.3221778" lon="11.6144024"><ele>412.6</ele><time>2026-05-03T07:34:23.163Z</time></trkpt><trkpt lat="43.3222677" lon="11.6144988"><ele>416.2</ele><time>2026-05-03T07:34:24.163Z</time></trkpt><trkpt lat="43.3223685" lon="11.6145681"><ele>419.80000000000007</ele><time>2026-05-03T07:34:25.163Z</time></trkpt><trkpt lat="43.3224807" lon="11.6146184"><ele>423.40000000000003</ele><time>2026-05-03T07:34:26.162Z</time></trkpt><trkpt lat="43.3225813" lon="11.6146411"><ele>427.0</ele><time>2026-05-03T07:34:27.162Z</time></trkpt><trkpt lat="43.3226633" lon="11.6146402"><ele>427.0</ele><time>2026-05-03T07:34:28.162Z</time></trkpt><trkpt lat="43.3227713" lon="11.6146028"><ele>427.00000000000006</ele><time>2026-05-03T07:34:30.163Z</time></trkpt><trkpt lat="43.3228361" lon="11.6145713"><ele>427.00000000000006</ele><time>2026-05-03T07:35:02.163Z</time></trkpt><trkpt lat="43.3229288" lon="11.6145364"><ele>427.0</ele><time>2026-05-03T07:35:08.163Z</time></trkpt><trkpt lat="43.3230497" lon="11.614501"><ele>427.0</ele><time>2026-05-03T07:35:10.163Z</time></trkpt><trkpt lat="43.3231156" lon="11.6144876"><ele>427.50000000000006</ele><time>2026-05-03T07:35:11.162Z</time></trkpt><trkpt lat="43.323187" lon="11.6144779"><ele>428.0</ele><time>2026-05-03T07:35:12.162Z</time></trkpt><trkpt lat="43.3232664" lon="11.6144798"><ele>428.5</ele><time>2026-05-03T07:35:13.162Z</time></trkpt><trkpt lat="43.3233516" lon="11.6144856"><ele>429.0</ele><time>2026-05-03T07:35:14.163Z</time></trkpt><trkpt lat="43.3234303" lon="11.614512"><ele>429.50000000000006</ele><time>2026-05-03T07:35:15.163Z</time></trkpt><trkpt lat="43.3235025" lon="11.6145408"><ele>430.0</ele><time>2026-05-03T07:35:16.163Z</time></trkpt><trkpt lat="43.3235696" lon="11.6145737"><ele>430.0</ele><time>2026-05-03T07:35:17.163Z</time></trkpt><trkpt lat="43.3236213" lon="11.6146275"><ele>430.0</ele><time>2026-05-03T07:35:18.163Z</time></trkpt><trkpt lat="43.3236759" lon="11.6146825"><ele>430.0</ele><time>2026-05-03T07:35:19.162Z</time></trkpt><trkpt lat="43.3237289" lon="11.614734"><ele>430.0</ele><time>2026-05-03T07:35:20.163Z</time></trkpt><trkpt lat="43.323778" lon="11.6148134"><ele>430.0</ele><time>2026-05-03T07:35:21.163Z</time></trkpt><trkpt lat="43.3238363" lon="11.6148987"><ele>430.0</ele><time>2026-05-03T07:35:22.163Z</time></trkpt><trkpt lat="43.32389" lon="11.6149952"><ele>430.0</ele><time>2026-05-03T07:35:23.163Z</time></trkpt><trkpt lat="43.3239497" lon="11.6150832"><ele>427.50000000000006</ele><time>2026-05-03T07:35:24.162Z</time></trkpt><trkpt lat="43.3240124" lon="11.615164"><ele>425.0</ele><time>2026-05-03T07:35:25.162Z</time></trkpt><trkpt lat="43.3240777" lon="11.6152283"><ele>422.5</ele><time>2026-05-03T07:35:26.161Z</time></trkpt><trkpt lat="43.3241415" lon="11.6152846"><ele>420.0</ele><time>2026-05-03T07:35:27.162Z</time></trkpt><trkpt lat="43.3241981" lon="11.6153429"><ele>417.50000000000006</ele><time>2026-05-03T07:35:28.163Z</time></trkpt><trkpt lat="43.3242539" lon="11.6154048"><ele>415.0</ele><time>2026-05-03T07:35:29.163Z</time></trkpt><trkpt lat="43.3243092" lon="11.6154677"><ele>415.00000000000006</ele><time>2026-05-03T07:35:30.163Z</time></trkpt><trkpt lat="43.3243616" lon="11.6155251"><ele>415.0</ele><time>2026-05-03T07:35:31.162Z</time></trkpt><trkpt lat="43.3244635" lon="11.6156048"><ele>415.0</ele><time>2026-05-03T07:35:33.163Z</time></trkpt><trkpt lat="43.3245234" lon="11.6156431"><ele>415.0</ele><time>2026-05-03T07:35:34.161Z</time></trkpt><trkpt lat="43.3245705" lon="11.6157121"><ele>415.00000000000006</ele><time>2026-05-03T07:35:35.163Z</time></trkpt><trkpt lat="43.32463" lon="11.6157721"><ele>415.0</ele><time>2026-05-03T07:35:36.162Z</time></trkpt><trkpt lat="43.3247002" lon="11.615838"><ele>412.0</ele><time>2026-05-03T07:35:37.163Z</time></trkpt><trkpt lat="43.3247606" lon="11.6158926"><ele>409.0</ele><time>2026-05-03T07:35:38.163Z</time></trkpt><trkpt lat="43.3248396" lon="11.6159971"><ele>406.0</ele><time>2026-05-03T07:35:40.162Z</time></trkpt><trkpt lat="43.3249178" lon="11.6160383"><ele>403.0</ele><time>2026-05-03T07:36:12.163Z</time></trkpt><trkpt lat="43.325016" lon="11.61608"><ele>400.0</ele><time>2026-05-03T07:36:15.162Z</time></trkpt><trkpt lat="43.3250851" lon="11.6161816"><ele>400.00000000000006</ele><time>2026-05-03T07:36:17.163Z</time></trkpt><trkpt lat="43.3250876" lon="11.6162891"><ele>400.0</ele><time>2026-05-03T07:36:20.161Z</time></trkpt><trkpt lat="43.3251058" lon="11.616417"><ele>400.0</ele><time>2026-05-03T07:36:22.161Z</time></trkpt><trkpt lat="43.3251256" lon="11.6165486"><ele>400.0</ele><time>2026-05-03T07:36:24.163Z</time></trkpt><trkpt lat="43.3251307" lon="11.6166552"><ele>400.00000000000006</ele><time>2026-05-03T07:36:26.163Z</time></trkpt><trkpt lat="43.3251054" lon="11.6167873"><ele>400.0</ele><time>2026-05-03T07:36:28.163Z</time></trkpt><trkpt lat="43.3251179" lon="11.6169479"><ele>401.83333333333337</ele><time>2026-05-03T07:36:30.163Z</time></trkpt><trkpt lat="43.325197" lon="11.6170055"><ele>403.6666666666667</ele><time>2026-05-03T07:36:31.162Z</time></trkpt><trkpt lat="43.3252324" lon="11.6171204"><ele>405.5</ele><time>2026-05-03T07:36:33.163Z</time></trkpt><trkpt lat="43.3252943" lon="11.6172233"><ele>407.33333333333337</ele><time>2026-05-03T07:36:35.162Z</time></trkpt><trkpt lat="43.3253499" lon="11.6172776"><ele>409.1666666666667</ele><time>2026-05-03T07:36:49.163Z</time></trkpt><trkpt lat="43.3253679" lon="11.6171717"><ele>411.0</ele><time>2026-05-03T07:37:28.162Z</time></trkpt><trkpt lat="43.3254389" lon="11.6171699"><ele>411.0</ele><time>2026-05-03T07:37:31.162Z</time></trkpt><trkpt lat="43.3255229" lon="11.6171833"><ele>411.0</ele><time>2026-05-03T07:42:35.163Z</time></trkpt><trkpt lat="43.3256042" lon="11.617257"><ele>411.0</ele><time>2026-05-03T07:42:37.163Z</time></trkpt><trkpt lat="43.3257184" lon="11.6173211"><ele>411.0</ele><time>2026-05-03T07:42:39.163Z</time></trkpt><trkpt lat="43.3257819" lon="11.6173551"><ele>411.0</ele><time>2026-05-03T07:42:40.163Z</time></trkpt><trkpt lat="43.325849" lon="11.6174019"><ele>411.0</ele><time>2026-05-03T07:42:41.163Z</time></trkpt><trkpt lat="43.325918" lon="11.617455"><ele>410.8333333333333</ele><time>2026-05-03T07:42:42.163Z</time></trkpt><trkpt lat="43.3259931" lon="11.617481"><ele>410.66666666666663</ele><time>2026-05-03T07:42:43.163Z</time></trkpt><trkpt lat="43.3260612" lon="11.6175299"><ele>410.5</ele><time>2026-05-03T07:42:44.163Z</time></trkpt><trkpt lat="43.3261123" lon="11.6176131"><ele>410.3333333333333</ele><time>2026-05-03T07:42:45.163Z</time></trkpt><trkpt lat="43.326168" lon="11.6176851"><ele>410.16666666666663</ele><time>2026-05-03T07:42:46.163Z</time></trkpt><trkpt lat="43.3262076" lon="11.6177528"><ele>410.0</ele><time>2026-05-03T07:42:47.162Z</time></trkpt><trkpt lat="43.3262444" lon="11.6179012"><ele>410.49999999999994</ele><time>2026-05-03T07:42:49.163Z</time></trkpt><trkpt lat="43.3262888" lon="11.6179735"><ele>411.0</ele><time>2026-05-03T07:42:50.163Z</time></trkpt><trkpt lat="43.3262901" lon="11.6180706"><ele>411.5</ele><time>2026-05-03T07:42:51.163Z</time></trkpt><trkpt lat="43.3263237" lon="11.6182134"><ele>412.0</ele><time>2026-05-03T07:42:53.163Z</time></trkpt><trkpt lat="43.3263551" lon="11.6183429"><ele>412.49999999999994</ele><time>2026-05-03T07:42:55.161Z</time></trkpt><trkpt lat="43.3264196" lon="11.618425"><ele>413.0</ele><time>2026-05-03T07:42:58.163Z</time></trkpt><trkpt lat="43.3264423" lon="11.6185088"><ele>413.66666666666663</ele><time>2026-05-03T07:42:59.163Z</time></trkpt><trkpt lat="43.3265176" lon="11.6186547"><ele>414.3333333333333</ele><time>2026-05-03T07:43:01.162Z</time></trkpt><trkpt lat="43.3265792" lon="11.6187292"><ele>415.0</ele><time>2026-05-03T07:43:02.162Z</time></trkpt><trkpt lat="43.3266331" lon="11.6187955"><ele>415.66666666666663</ele><time>2026-05-03T07:43:03.163Z</time></trkpt><trkpt lat="43.3266723" lon="11.6188641"><ele>416.3333333333333</ele><time>2026-05-03T07:43:04.162Z</time></trkpt><trkpt lat="43.3267113" lon="11.618933"><ele>417.0</ele><time>2026-05-03T07:43:05.163Z</time></trkpt><trkpt lat="43.3267932" lon="11.6190538"><ele>417.0</ele><time>2026-05-03T07:43:07.162Z</time></trkpt><trkpt lat="43.3268442" lon="11.6191815"><ele>417.0</ele><time>2026-05-03T07:43:09.162Z</time></trkpt><trkpt lat="43.3268986" lon="11.6192799"><ele>417.0</ele><time>2026-05-03T07:43:11.162Z</time></trkpt><trkpt lat="43.3269292" lon="11.6193827"><ele>417.0</ele><time>2026-05-03T07:43:13.163Z</time></trkpt><trkpt lat="43.3269468" lon="11.6194762"><ele>417.0</ele><time>2026-05-03T07:43:15.163Z</time></trkpt><trkpt lat="43.3270201" lon="11.6195328"><ele>417.0</ele><time>2026-05-03T07:43:18.163Z</time></trkpt><trkpt lat="43.3270927" lon="11.6195181"><ele>417.6</ele><time>2026-05-03T07:43:21.162Z</time></trkpt><trkpt lat="43.3271821" lon="11.6195415"><ele>418.20000000000005</ele><time>2026-05-03T07:43:30.162Z</time></trkpt><trkpt lat="43.3272761" lon="11.6195831"><ele>418.8</ele><time>2026-05-03T07:43:32.162Z</time></trkpt><trkpt lat="43.3274026" lon="11.6196322"><ele>419.4</ele><time>2026-05-03T07:43:34.163Z</time></trkpt><trkpt lat="43.3274801" lon="11.6196591"><ele>420.0</ele><time>2026-05-03T07:43:35.162Z</time></trkpt><trkpt lat="43.327557" lon="11.6196822"><ele>420.0</ele><time>2026-05-03T07:43:36.162Z</time></trkpt><trkpt lat="43.327636" lon="11.6196849"><ele>420.0</ele><time>2026-05-03T07:43:37.163Z</time></trkpt><trkpt lat="43.3277085" lon="11.6196762"><ele>420.0</ele><time>2026-05-03T07:43:38.162Z</time></trkpt><trkpt lat="43.3277826" lon="11.6196777"><ele>420.0</ele><time>2026-05-03T07:43:40.162Z</time></trkpt><trkpt lat="43.3278454" lon="11.6196502"><ele>420.0</ele><time>2026-05-03T07:44:05.163Z</time></trkpt><trkpt lat="43.3279468" lon="11.6197034"><ele>420.0</ele><time>2026-05-03T07:44:07.162Z</time></trkpt><trkpt lat="43.3280756" lon="11.6197148"><ele>423.0</ele><time>2026-05-03T07:44:09.162Z</time></trkpt><trkpt lat="43.3281471" lon="11.6197327"><ele>426.0</ele><time>2026-05-03T07:44:10.163Z</time></trkpt><trkpt lat="43.3282482" lon="11.6197424"><ele>429.0</ele><time>2026-05-03T07:44:11.161Z</time></trkpt><trkpt lat="43.3283563" lon="11.6197387"><ele>432.0</ele><time>2026-05-03T07:44:12.163Z</time></trkpt><trkpt lat="43.3284553" lon="11.6197342"><ele>435.0</ele><time>2026-05-03T07:44:13.163Z</time></trkpt><trkpt lat="43.3285702" lon="11.6197328"><ele>435.0</ele><time>2026-05-03T07:44:14.162Z</time></trkpt><trkpt lat="43.3286506" lon="11.619706"><ele>435.0</ele><time>2026-05-03T07:44:15.163Z</time></trkpt><trkpt lat="43.3287357" lon="11.6197037"><ele>435.0</ele><time>2026-05-03T07:44:16.162Z</time></trkpt><trkpt lat="43.3288493" lon="11.6197479"><ele>435.0</ele><time>2026-05-03T07:44:18.161Z</time></trkpt><trkpt lat="43.3289275" lon="11.6197819"><ele>435.0</ele><time>2026-05-03T07:44:19.162Z</time></trkpt><trkpt lat="43.3290326" lon="11.6197993"><ele>436.8333333333333</ele><time>2026-05-03T07:44:21.163Z</time></trkpt><trkpt lat="43.3291122" lon="11.619803"><ele>438.66666666666663</ele><time>2026-05-03T07:44:32.163Z</time></trkpt><trkpt lat="43.3291832" lon="11.6198423"><ele>440.5</ele><time>2026-05-03T07:44:35.162Z</time></trkpt><trkpt lat="43.3292345" lon="11.6199599"><ele>442.3333333333333</ele><time>2026-05-03T07:44:38.163Z</time></trkpt><trkpt lat="43.3293432" lon="11.6200484"><ele>444.16666666666663</ele><time>2026-05-03T07:44:40.163Z</time></trkpt><trkpt lat="43.3293996" lon="11.6200889"><ele>446.0</ele><time>2026-05-03T07:44:41.163Z</time></trkpt><trkpt lat="43.3294556" lon="11.6201304"><ele>445.99999999999994</ele><time>2026-05-03T07:44:42.162Z</time></trkpt><trkpt lat="43.3295234" lon="11.6201712"><ele>446.0</ele><time>2026-05-03T07:44:43.163Z</time></trkpt><trkpt lat="43.3295903" lon="11.620216"><ele>446.0</ele><time>2026-05-03T07:44:44.163Z</time></trkpt><trkpt lat="43.3296558" lon="11.6202548"><ele>446.0</ele><time>2026-05-03T07:44:45.162Z</time></trkpt><trkpt lat="43.3297274" lon="11.6203071"><ele>445.99999999999994</ele><time>2026-05-03T07:44:46.163Z</time></trkpt><trkpt lat="43.3297946" lon="11.6203608"><ele>446.0</ele><time>2026-05-03T07:44:47.162Z</time></trkpt><trkpt lat="43.3298605" lon="11.6204005"><ele>446.3333333333333</ele><time>2026-05-03T07:44:48.162Z</time></trkpt><trkpt lat="43.3299203" lon="11.6204506"><ele>446.66666666666663</ele><time>2026-05-03T07:44:49.162Z</time></trkpt><trkpt lat="43.3299864" lon="11.6204982"><ele>447.0</ele><time>2026-05-03T07:44:50.163Z</time></trkpt><trkpt lat="43.330065" lon="11.6205662"><ele>447.33333333333337</ele><time>2026-05-03T07:44:51.163Z</time></trkpt><trkpt lat="43.3301315" lon="11.6206346"><ele>447.6666666666667</ele><time>2026-05-03T07:44:52.163Z</time></trkpt><trkpt lat="43.3302023" lon="11.6207047"><ele>448.0</ele><time>2026-05-03T07:44:53.162Z</time></trkpt><trkpt lat="43.3302645" lon="11.6207936"><ele>448.0</ele><time>2026-05-03T07:44:54.162Z</time></trkpt><trkpt lat="43.3303178" lon="11.6208692"><ele>447.99999999999994</ele><time>2026-05-03T07:44:55.163Z</time></trkpt><trkpt lat="43.3303684" lon="11.6209299"><ele>447.99999999999994</ele><time>2026-05-03T07:44:56.162Z</time></trkpt><trkpt lat="43.3304567" lon="11.6209948"><ele>448.0</ele><time>2026-05-03T07:44:58.163Z</time></trkpt><trkpt lat="43.3305696" lon="11.6209088"><ele>448.0</ele><time>2026-05-03T07:44:59.161Z</time></trkpt><trkpt lat="43.3306373" lon="11.6208216"><ele>446.33333333333337</ele><time>2026-05-03T07:45:00.163Z</time></trkpt><trkpt lat="43.3307096" lon="11.6207897"><ele>444.6666666666667</ele><time>2026-05-03T07:45:01.163Z</time></trkpt><trkpt lat="43.3307909" lon="11.6207531"><ele>443.0</ele><time>2026-05-03T07:45:02.163Z</time></trkpt><trkpt lat="43.3308676" lon="11.6207262"><ele>441.33333333333337</ele><time>2026-05-03T07:45:03.162Z</time></trkpt><trkpt lat="43.3309612" lon="11.620735"><ele>439.6666666666667</ele><time>2026-05-03T07:45:05.162Z</time></trkpt><trkpt lat="43.331042" lon="11.6207619"><ele>438.0</ele><time>2026-05-03T07:45:07.163Z</time></trkpt><trkpt lat="43.3311135" lon="11.6207879"><ele>438.0</ele><time>2026-05-03T07:45:09.163Z</time></trkpt><trkpt lat="43.3311842" lon="11.6208282"><ele>438.0</ele><time>2026-05-03T07:45:11.163Z</time></trkpt><trkpt lat="43.3312528" lon="11.6208831"><ele>438.0</ele><time>2026-05-03T07:45:13.162Z</time></trkpt><trkpt lat="43.3313196" lon="11.6209709"><ele>438.0</ele><time>2026-05-03T07:45:15.163Z</time></trkpt><trkpt lat="43.3313841" lon="11.6210995"><ele>438.0</ele><time>2026-05-03T07:45:17.162Z</time></trkpt><trkpt lat="43.3314223" lon="11.6211785"><ele>438.0</ele><time>2026-05-03T07:45:18.162Z</time></trkpt><trkpt lat="43.3314496" lon="11.6212585"><ele>438.59999999999997</ele><time>2026-05-03T07:45:19.161Z</time></trkpt><trkpt lat="43.3315128" lon="11.6213694"><ele>439.19999999999993</ele><time>2026-05-03T07:45:21.162Z</time></trkpt><trkpt lat="43.3315934" lon="11.6214373"><ele>439.8</ele><time>2026-05-03T07:45:23.163Z</time></trkpt><trkpt lat="43.3317063" lon="11.6214766"><ele>440.4</ele><time>2026-05-03T07:45:25.163Z</time></trkpt><trkpt lat="43.3318011" lon="11.6215398"><ele>441.0</ele><time>2026-05-03T07:45:27.163Z</time></trkpt><trkpt lat="43.33186" lon="11.62162"><ele>441.0</ele><time>2026-05-03T07:45:29.163Z</time></trkpt><trkpt lat="43.3319289" lon="11.6217194"><ele>441.0</ele><time>2026-05-03T07:45:31.163Z</time></trkpt><trkpt lat="43.3319933" lon="11.621836"><ele>441.0</ele><time>2026-05-03T07:45:33.163Z</time></trkpt><trkpt lat="43.3320162" lon="11.6219826"><ele>441.0</ele><time>2026-05-03T07:45:35.162Z</time></trkpt><trkpt lat="43.3320527" lon="11.6221065"><ele>441.0</ele><time>2026-05-03T07:45:37.163Z</time></trkpt><trkpt lat="43.3321364" lon="11.622178"><ele>440.20000000000005</ele><time>2026-05-03T07:45:39.162Z</time></trkpt><trkpt lat="43.332238" lon="11.6221766"><ele>439.40000000000003</ele><time>2026-05-03T07:45:41.163Z</time></trkpt><trkpt lat="43.3323369" lon="11.6222162"><ele>438.6</ele><time>2026-05-03T07:45:43.162Z</time></trkpt><trkpt lat="43.332424" lon="11.6222137"><ele>437.8</ele><time>2026-05-03T07:45:46.162Z</time></trkpt><trkpt lat="43.3323335" lon="11.6222461"><ele>437.0</ele><time>2026-05-03T07:47:11.163Z</time></trkpt><trkpt lat="43.3322637" lon="11.6222317"><ele>437.66666666666663</ele><time>2026-05-03T07:47:14.162Z</time></trkpt><trkpt lat="43.3321737" lon="11.6221689"><ele>438.3333333333333</ele><time>2026-05-03T07:47:16.163Z</time></trkpt><trkpt lat="43.3321035" lon="11.622164"><ele>439.0</ele><time>2026-05-03T07:47:17.163Z</time></trkpt><trkpt lat="43.332026" lon="11.622089"><ele>439.66666666666663</ele><time>2026-05-03T07:47:19.163Z</time></trkpt><trkpt lat="43.3319954" lon="11.6219696"><ele>440.3333333333333</ele><time>2026-05-03T07:47:21.162Z</time></trkpt><trkpt lat="43.3319843" lon="11.6218816"><ele>441.0</ele><time>2026-05-03T07:47:22.162Z</time></trkpt><trkpt lat="43.3319601" lon="11.621781"><ele>441.0</ele><time>2026-05-03T07:47:23.162Z</time></trkpt><trkpt lat="43.3319238" lon="11.6216918"><ele>441.0</ele><time>2026-05-03T07:47:24.163Z</time></trkpt><trkpt lat="43.331874" lon="11.6216384"><ele>441.0</ele><time>2026-05-03T07:47:25.163Z</time></trkpt><trkpt lat="43.3318293" lon="11.621576"><ele>441.0</ele><time>2026-05-03T07:47:26.162Z</time></trkpt><trkpt lat="43.3317475" lon="11.6215158"><ele>441.0</ele><time>2026-05-03T07:47:28.163Z</time></trkpt><trkpt lat="43.3316492" lon="11.6214669"><ele>441.0</ele><time>2026-05-03T07:47:30.162Z</time></trkpt><trkpt lat="43.331556" lon="11.621438"><ele>441.0</ele><time>2026-05-03T07:47:32.163Z</time></trkpt><trkpt lat="43.3314838" lon="11.6213598"><ele>441.0</ele><time>2026-05-03T07:47:34.162Z</time></trkpt><trkpt lat="43.3314305" lon="11.6212136"><ele>441.0</ele><time>2026-05-03T07:47:36.163Z</time></trkpt><trkpt lat="43.3313659" lon="11.6211071"><ele>441.0</ele><time>2026-05-03T07:47:38.162Z</time></trkpt><trkpt lat="43.331316" lon="11.6209987"><ele>441.0</ele><time>2026-05-03T07:47:40.163Z</time></trkpt><trkpt lat="43.3312515" lon="11.6209178"><ele>440.5</ele><time>2026-05-03T07:47:42.162Z</time></trkpt><trkpt lat="43.3311726" lon="11.6208591"><ele>440.0</ele><time>2026-05-03T07:47:44.162Z</time></trkpt><trkpt lat="43.3310721" lon="11.6208086"><ele>439.5</ele><time>2026-05-03T07:47:46.163Z</time></trkpt><trkpt lat="43.3310074" lon="11.6207756"><ele>439.0</ele><time>2026-05-03T07:47:49.163Z</time></trkpt><trkpt lat="43.3310039" lon="11.6206773"><ele>438.5</ele><time>2026-05-03T07:47:56.162Z</time></trkpt><trkpt lat="43.3310216" lon="11.62057"><ele>438.0</ele><time>2026-05-03T07:47:58.162Z</time></trkpt><trkpt lat="43.3310331" lon="11.6204316"><ele>434.0</ele><time>2026-05-03T07:48:00.163Z</time></trkpt><trkpt lat="43.331073" lon="11.6202901"><ele>429.99999999999994</ele><time>2026-05-03T07:48:02.162Z</time></trkpt><trkpt lat="43.3311311" lon="11.6201663"><ele>426.0</ele><time>2026-05-03T07:48:04.163Z</time></trkpt><trkpt lat="43.3312008" lon="11.6200577"><ele>422.0</ele><time>2026-05-03T07:48:06.163Z</time></trkpt><trkpt lat="43.331269" lon="11.6199637"><ele>418.0</ele><time>2026-05-03T07:48:08.162Z</time></trkpt><trkpt lat="43.3313445" lon="11.6198873"><ele>416.1666666666667</ele><time>2026-05-03T07:48:10.162Z</time></trkpt><trkpt lat="43.3314476" lon="11.6198618"><ele>414.33333333333337</ele><time>2026-05-03T07:48:12.162Z</time></trkpt><trkpt lat="43.3315088" lon="11.6198914"><ele>412.5</ele><time>2026-05-03T07:48:13.163Z</time></trkpt><trkpt lat="43.3316056" lon="11.6199625"><ele>410.66666666666663</ele><time>2026-05-03T07:48:15.163Z</time></trkpt><trkpt lat="43.3316576" lon="11.6200208"><ele>408.8333333333333</ele><time>2026-05-03T07:48:16.163Z</time></trkpt><trkpt lat="43.3317023" lon="11.6200841"><ele>407.0</ele><time>2026-05-03T07:48:17.163Z</time></trkpt><trkpt lat="43.3317473" lon="11.6201449"><ele>407.0</ele><time>2026-05-03T07:48:18.163Z</time></trkpt><trkpt lat="43.3318249" lon="11.6202705"><ele>407.0</ele><time>2026-05-03T07:48:20.163Z</time></trkpt><trkpt lat="43.331948" lon="11.6202957"><ele>407.0</ele><time>2026-05-03T07:48:22.163Z</time></trkpt><trkpt lat="43.332068" lon="11.6202768"><ele>407.0</ele><time>2026-05-03T07:48:24.162Z</time></trkpt><trkpt lat="43.3321382" lon="11.6203006"><ele>407.0</ele><time>2026-05-03T07:48:25.162Z</time></trkpt><trkpt lat="43.3322064" lon="11.6203352"><ele>406.42857142857144</ele><time>2026-05-03T07:48:26.162Z</time></trkpt><trkpt lat="43.332279" lon="11.6203557"><ele>405.8571428571429</ele><time>2026-05-03T07:48:27.162Z</time></trkpt><trkpt lat="43.332344" lon="11.6204003"><ele>405.28571428571433</ele><time>2026-05-03T07:48:28.162Z</time></trkpt><trkpt lat="43.3324037" lon="11.6204542"><ele>404.7142857142857</ele><time>2026-05-03T07:48:29.163Z</time></trkpt><trkpt lat="43.3324622" lon="11.6204885"><ele>404.1428571428571</ele><time>2026-05-03T07:48:30.163Z</time></trkpt><trkpt lat="43.3325324" lon="11.6205093"><ele>403.5714285714286</ele><time>2026-05-03T07:48:32.163Z</time></trkpt><trkpt lat="43.3325997" lon="11.6204358"><ele>403.0</ele><time>2026-05-03T07:48:35.163Z</time></trkpt><trkpt lat="43.3326315" lon="11.6203565"><ele>400.2</ele><time>2026-05-03T07:48:43.162Z</time></trkpt><trkpt lat="43.3326909" lon="11.6202928"><ele>397.4</ele><time>2026-05-03T07:48:45.162Z</time></trkpt><trkpt lat="43.3327742" lon="11.6202778"><ele>394.59999999999997</ele><time>2026-05-03T07:48:47.162Z</time></trkpt><trkpt lat="43.3328899" lon="11.620278"><ele>391.79999999999995</ele><time>2026-05-03T07:48:49.163Z</time></trkpt><trkpt lat="43.3330059" lon="11.6202327"><ele>389.0</ele><time>2026-05-03T07:48:51.161Z</time></trkpt><trkpt lat="43.3330682" lon="11.6201881"><ele>387.0</ele><time>2026-05-03T07:48:52.163Z</time></trkpt><trkpt lat="43.3331574" lon="11.620109"><ele>385.0</ele><time>2026-05-03T07:48:54.163Z</time></trkpt><trkpt lat="43.3332641" lon="11.6200849"><ele>383.0</ele><time>2026-05-03T07:48:56.162Z</time></trkpt><trkpt lat="43.3333358" lon="11.6200732"><ele>381.0</ele><time>2026-05-03T07:48:57.163Z</time></trkpt><trkpt lat="43.3334124" lon="11.6200644"><ele>379.0</ele><time>2026-05-03T07:48:58.163Z</time></trkpt><trkpt lat="43.3335274" lon="11.6200415"><ele>379.00000000000006</ele><time>2026-05-03T07:49:00.162Z</time></trkpt><trkpt lat="43.3336117" lon="11.620018"><ele>379.0</ele><time>2026-05-03T07:49:02.163Z</time></trkpt><trkpt lat="43.3336883" lon="11.6199774"><ele>379.0</ele><time>2026-05-03T07:49:04.162Z</time></trkpt><trkpt lat="43.3337495" lon="11.6199297"><ele>379.0</ele><time>2026-05-03T07:49:06.163Z</time></trkpt><trkpt lat="43.3338055" lon="11.6199751"><ele>379.0</ele><time>2026-05-03T07:49:09.162Z</time></trkpt><trkpt lat="43.3338461" lon="11.620052"><ele>379.00000000000006</ele><time>2026-05-03T07:49:11.163Z</time></trkpt><trkpt lat="43.3339056" lon="11.6201124"><ele>379.0</ele><time>2026-05-03T07:49:14.162Z</time></trkpt><trkpt lat="43.3339548" lon="11.6201961"><ele>378.5</ele><time>2026-05-03T07:49:17.163Z</time></trkpt><trkpt lat="43.3340166" lon="11.6202341"><ele>378.0</ele><time>2026-05-03T07:49:19.162Z</time></trkpt><trkpt lat="43.3340869" lon="11.6202628"><ele>377.5</ele><time>2026-05-03T07:49:22.162Z</time></trkpt><trkpt lat="43.3341046" lon="11.6203501"><ele>377.0</ele><time>2026-05-03T07:49:58.163Z</time></trkpt><trkpt lat="43.3340585" lon="11.6204681"><ele>376.5</ele><time>2026-05-03T07:50:00.161Z</time></trkpt><trkpt lat="43.334023" lon="11.6205818"><ele>376.0</ele><time>2026-05-03T07:50:02.163Z</time></trkpt><trkpt lat="43.3340888" lon="11.6206525"><ele>376.0</ele><time>2026-05-03T07:50:04.162Z</time></trkpt><trkpt lat="43.3341601" lon="11.6206882"><ele>376.0</ele><time>2026-05-03T07:50:23.163Z</time></trkpt><trkpt lat="43.3342198" lon="11.6207443"><ele>376.0</ele><time>2026-05-03T07:50:31.162Z</time></trkpt><trkpt lat="43.3342996" lon="11.6208082"><ele>376.0</ele><time>2026-05-03T07:50:34.163Z</time></trkpt><trkpt lat="43.3343844" lon="11.6208225"><ele>376.0</ele><time>2026-05-03T07:50:36.161Z</time></trkpt><trkpt lat="43.3344586" lon="11.6208101"><ele>376.0</ele><time>2026-05-03T07:50:38.162Z</time></trkpt><trkpt lat="43.3345336" lon="11.620813"><ele>376.0</ele><time>2026-05-03T07:50:40.163Z</time></trkpt><trkpt lat="43.3345607" lon="11.6208999"><ele>376.0</ele><time>2026-05-03T07:50:41.163Z</time></trkpt><trkpt lat="43.3345818" lon="11.6210227"><ele>376.0</ele><time>2026-05-03T07:50:43.163Z</time></trkpt><trkpt lat="43.334565" lon="11.6211333"><ele>376.0</ele><time>2026-05-03T07:50:45.163Z</time></trkpt><trkpt lat="43.3345835" lon="11.62126"><ele>376.0</ele><time>2026-05-03T07:50:48.163Z</time></trkpt><trkpt lat="43.3345571" lon="11.6213387"><ele>376.0</ele><time>2026-05-03T07:50:50.161Z</time></trkpt><trkpt lat="43.3345415" lon="11.6214605"><ele>378.4</ele><time>2026-05-03T07:50:52.162Z</time></trkpt><trkpt lat="43.3345304" lon="11.6216161"><ele>380.8</ele><time>2026-05-03T07:50:54.163Z</time></trkpt><trkpt lat="43.3345256" lon="11.621725"><ele>383.2</ele><time>2026-05-03T07:50:56.162Z</time></trkpt><trkpt lat="43.3345625" lon="11.6218379"><ele>385.59999999999997</ele><time>2026-05-03T07:51:32.163Z</time></trkpt><trkpt lat="43.3346128" lon="11.6219473"><ele>388.0</ele><time>2026-05-03T07:51:34.163Z</time></trkpt><trkpt lat="43.3346835" lon="11.6219987"><ele>390.50000000000006</ele><time>2026-05-03T07:51:36.162Z</time></trkpt><trkpt lat="43.3347457" lon="11.6219655"><ele>393.0</ele><time>2026-05-03T07:51:38.162Z</time></trkpt><trkpt lat="43.3347658" lon="11.6218496"><ele>395.5</ele><time>2026-05-03T07:51:40.163Z</time></trkpt><trkpt lat="43.3348014" lon="11.6217307"><ele>398.0</ele><time>2026-05-03T07:51:42.162Z</time></trkpt><trkpt lat="43.3348696" lon="11.6216563"><ele>400.50000000000006</ele><time>2026-05-03T07:51:44.163Z</time></trkpt><trkpt lat="43.3349268" lon="11.6217132"><ele>403.0</ele><time>2026-05-03T07:51:47.162Z</time></trkpt><trkpt lat="43.3349485" lon="11.6218161"><ele>403.0</ele><time>2026-05-03T07:51:49.163Z</time></trkpt><trkpt lat="43.3349761" lon="11.6219154"><ele>403.0</ele><time>2026-05-03T07:51:51.163Z</time></trkpt><trkpt lat="43.3350115" lon="11.6220628"><ele>403.0</ele><time>2026-05-03T07:51:53.163Z</time></trkpt><trkpt lat="43.3350527" lon="11.6221688"><ele>403.0</ele><time>2026-05-03T07:51:55.163Z</time></trkpt><trkpt lat="43.3351413" lon="11.6222704"><ele>403.0</ele><time>2026-05-03T07:51:57.163Z</time></trkpt><trkpt lat="43.3351946" lon="11.6223303"><ele>404.1666666666667</ele><time>2026-05-03T07:51:58.162Z</time></trkpt><trkpt lat="43.3352444" lon="11.6223927"><ele>405.33333333333337</ele><time>2026-05-03T07:51:59.163Z</time></trkpt><trkpt lat="43.3353033" lon="11.6224593"><ele>406.5</ele><time>2026-05-03T07:52:00.161Z</time></trkpt><trkpt lat="43.3353328" lon="11.6225448"><ele>407.66666666666663</ele><time>2026-05-03T07:52:01.162Z</time></trkpt><trkpt lat="43.3353643" lon="11.622625"><ele>408.8333333333333</ele><time>2026-05-03T07:52:02.163Z</time></trkpt><trkpt lat="43.3353646" lon="11.6227888"><ele>410.0</ele><time>2026-05-03T07:52:04.163Z</time></trkpt><trkpt lat="43.3353661" lon="11.6228914"><ele>410.4</ele><time>2026-05-03T07:52:06.162Z</time></trkpt><trkpt lat="43.3353682" lon="11.6230207"><ele>410.8</ele><time>2026-05-03T07:52:37.161Z</time></trkpt><trkpt lat="43.3353561" lon="11.623197"><ele>411.20000000000005</ele><time>2026-05-03T07:52:39.163Z</time></trkpt><trkpt lat="43.3353481" lon="11.6232894"><ele>411.6</ele><time>2026-05-03T07:52:40.161Z</time></trkpt><trkpt lat="43.3353442" lon="11.6233764"><ele>412.0</ele><time>2026-05-03T07:52:41.162Z</time></trkpt><trkpt lat="43.3354241" lon="11.6234493"><ele>412.00000000000006</ele><time>2026-05-03T07:52:43.163Z</time></trkpt><trkpt lat="43.3354772" lon="11.6235375"><ele>412.0</ele><time>2026-05-03T07:52:45.162Z</time></trkpt><trkpt lat="43.3355415" lon="11.6236752"><ele>412.0</ele><time>2026-05-03T07:52:47.162Z</time></trkpt><trkpt lat="43.3355808" lon="11.6237642"><ele>412.0</ele><time>2026-05-03T07:52:48.162Z</time></trkpt><trkpt lat="43.3356216" lon="11.6238672"><ele>412.00000000000006</ele><time>2026-05-03T07:52:49.163Z</time></trkpt><trkpt lat="43.3356662" lon="11.6239604"><ele>412.0</ele><time>2026-05-03T07:52:50.163Z</time></trkpt><trkpt lat="43.3356959" lon="11.6240575"><ele>415.00000000000006</ele><time>2026-05-03T07:52:51.163Z</time></trkpt><trkpt lat="43.3357016" lon="11.6241508"><ele>418.0</ele><time>2026-05-03T07:52:52.162Z</time></trkpt><trkpt lat="43.3356988" lon="11.6242564"><ele>421.0</ele><time>2026-05-03T07:52:53.163Z</time></trkpt><trkpt lat="43.3356939" lon="11.6243538"><ele>424.0</ele><time>2026-05-03T07:52:54.163Z</time></trkpt><trkpt lat="43.3356595" lon="11.6244284"><ele>427.00000000000006</ele><time>2026-05-03T07:52:55.162Z</time></trkpt><trkpt lat="43.3356293" lon="11.624512"><ele>430.0</ele><time>2026-05-03T07:52:56.163Z</time></trkpt><trkpt lat="43.3356079" lon="11.6246704"><ele>431.50000000000006</ele><time>2026-05-03T07:52:58.162Z</time></trkpt><trkpt lat="43.3356189" lon="11.6247664"><ele>433.0</ele><time>2026-05-03T07:52:59.161Z</time></trkpt><trkpt lat="43.3356353" lon="11.6248834"><ele>434.5</ele><time>2026-05-03T07:53:00.163Z</time></trkpt><trkpt lat="43.3356417" lon="11.6250071"><ele>436.0</ele><time>2026-05-03T07:53:01.162Z</time></trkpt><trkpt lat="43.335633" lon="11.6251269"><ele>437.50000000000006</ele><time>2026-05-03T07:53:02.162Z</time></trkpt><trkpt lat="43.3356304" lon="11.6252408"><ele>439.0</ele><time>2026-05-03T07:53:03.161Z</time></trkpt><trkpt lat="43.3356411" lon="11.6253597"><ele>439.83333333333337</ele><time>2026-05-03T07:53:04.162Z</time></trkpt><trkpt lat="43.3356594" lon="11.6254752"><ele>440.6666666666667</ele><time>2026-05-03T07:53:05.163Z</time></trkpt><trkpt lat="43.3356853" lon="11.6255774"><ele>441.5</ele><time>2026-05-03T07:53:06.163Z</time></trkpt><trkpt lat="43.3357219" lon="11.6256568"><ele>442.33333333333337</ele><time>2026-05-03T07:53:07.162Z</time></trkpt><trkpt lat="43.3357914" lon="11.6257293"><ele>443.1666666666667</ele><time>2026-05-03T07:53:09.163Z</time></trkpt><trkpt lat="43.3358433" lon="11.6258032"><ele>444.0</ele><time>2026-05-03T07:53:11.162Z</time></trkpt><trkpt lat="43.3359018" lon="11.6258986"><ele>444.0</ele><time>2026-05-03T07:53:14.163Z</time></trkpt><trkpt lat="43.3359646" lon="11.6260307"><ele>444.0</ele><time>2026-05-03T07:53:16.163Z</time></trkpt><trkpt lat="43.3360017" lon="11.6261118"><ele>444.0</ele><time>2026-05-03T07:53:17.162Z</time></trkpt><trkpt lat="43.3360399" lon="11.6262163"><ele>444.0</ele><time>2026-05-03T07:53:18.162Z</time></trkpt><trkpt lat="43.3360723" lon="11.6263126"><ele>444.0</ele><time>2026-05-03T07:53:19.163Z</time></trkpt><trkpt lat="43.3360993" lon="11.6264163"><ele>444.0</ele><time>2026-05-03T07:53:20.163Z</time></trkpt><trkpt lat="43.3361231" lon="11.6265158"><ele>445.1666666666667</ele><time>2026-05-03T07:53:21.162Z</time></trkpt><trkpt lat="43.3361432" lon="11.6266246"><ele>446.33333333333337</ele><time>2026-05-03T07:53:22.162Z</time></trkpt><trkpt lat="43.3361528" lon="11.6267306"><ele>447.5</ele><time>2026-05-03T07:53:23.161Z</time></trkpt><trkpt lat="43.3361729" lon="11.6268284"><ele>448.6666666666667</ele><time>2026-05-03T07:53:24.163Z</time></trkpt><trkpt lat="43.3361857" lon="11.6269224"><ele>449.83333333333337</ele><time>2026-05-03T07:53:25.163Z</time></trkpt><trkpt lat="43.3361752" lon="11.6270239"><ele>451.0</ele><time>2026-05-03T07:53:26.162Z</time></trkpt><trkpt lat="43.3361065" lon="11.6270879"><ele>453.0</ele><time>2026-05-03T07:53:27.162Z</time></trkpt><trkpt lat="43.3360744" lon="11.6272264"><ele>455.0</ele><time>2026-05-03T07:53:29.162Z</time></trkpt><trkpt lat="43.3361253" lon="11.6274038"><ele>457.0</ele><time>2026-05-03T07:53:31.163Z</time></trkpt><trkpt lat="43.3361961" lon="11.6274728"><ele>459.0</ele><time>2026-05-03T07:53:32.163Z</time></trkpt><trkpt lat="43.3362554" lon="11.6275713"><ele>461.0</ele><time>2026-05-03T07:53:33.163Z</time></trkpt><trkpt lat="43.3363423" lon="11.6276553"><ele>461.0</ele><time>2026-05-03T07:53:35.163Z</time></trkpt><trkpt lat="43.3364276" lon="11.6277479"><ele>461.0</ele><time>2026-05-03T07:53:37.161Z</time></trkpt><trkpt lat="43.3363716" lon="11.6278012"><ele>461.0</ele><time>2026-05-03T07:53:38.162Z</time></trkpt><trkpt lat="43.3369956" lon="11.6287149"><ele>465.4</ele><time>2026-05-03T07:54:10.163Z</time></trkpt><trkpt lat="43.3370632" lon="11.6287498"><ele>469.8</ele><time>2026-05-03T07:54:18.162Z</time></trkpt><trkpt lat="43.3371477" lon="11.6287946"><ele>474.19999999999993</ele><time>2026-05-03T07:54:20.163Z</time></trkpt><trkpt lat="43.337241" lon="11.6288342"><ele>478.59999999999997</ele><time>2026-05-03T07:54:22.162Z</time></trkpt><trkpt lat="43.3372419" lon="11.6289706"><ele>483.0</ele><time>2026-05-03T07:54:25.163Z</time></trkpt><trkpt lat="43.3372032" lon="11.6290857"><ele>483.0</ele><time>2026-05-03T07:54:27.163Z</time></trkpt><trkpt lat="43.3372293" lon="11.6291671"><ele>483.0</ele><time>2026-05-03T07:54:29.162Z</time></trkpt><trkpt lat="43.3373287" lon="11.6292114"><ele>483.0</ele><time>2026-05-03T07:54:31.163Z</time></trkpt><trkpt lat="43.3373988" lon="11.6292315"><ele>483.0</ele><time>2026-05-03T07:54:32.161Z</time></trkpt><trkpt lat="43.3374629" lon="11.6292459"><ele>483.0</ele><time>2026-05-03T07:54:33.161Z</time></trkpt><trkpt lat="43.3375753" lon="11.6292043"><ele>483.0</ele><time>2026-05-03T07:54:35.163Z</time></trkpt><trkpt lat="43.3376226" lon="11.6291425"><ele>483.0</ele><time>2026-05-03T07:54:36.163Z</time></trkpt><trkpt lat="43.3376758" lon="11.6290835"><ele>483.0</ele><time>2026-05-03T07:54:37.163Z</time></trkpt><trkpt lat="43.3377574" lon="11.629046"><ele>483.0</ele><time>2026-05-03T07:54:39.163Z</time></trkpt><trkpt lat="43.33781" lon="11.6291013"><ele>483.0</ele><time>2026-05-03T07:54:42.162Z</time></trkpt><trkpt lat="43.3378462" lon="11.6292043"><ele>483.0</ele><time>2026-05-03T07:54:44.163Z</time></trkpt><trkpt lat="43.3378992" lon="11.6293303"><ele>483.0</ele><time>2026-05-03T07:54:46.163Z</time></trkpt><trkpt lat="43.337933" lon="11.6294057"><ele>482.59999999999997</ele><time>2026-05-03T07:54:47.163Z</time></trkpt><trkpt lat="43.33798" lon="11.6294996"><ele>482.19999999999993</ele><time>2026-05-03T07:54:49.162Z</time></trkpt><trkpt lat="43.3380246" lon="11.6296079"><ele>481.8</ele><time>2026-05-03T07:54:52.162Z</time></trkpt><trkpt lat="43.3380511" lon="11.6296955"><ele>481.4</ele><time>2026-05-03T07:54:55.163Z</time></trkpt><trkpt lat="43.3380682" lon="11.6298105"><ele>481.0</ele><time>2026-05-03T07:57:46.163Z</time></trkpt><trkpt lat="43.3380677" lon="11.6299839"><ele>481.00000000000006</ele><time>2026-05-03T07:57:48.163Z</time></trkpt><trkpt lat="43.3380727" lon="11.6300892"><ele>481.0</ele><time>2026-05-03T07:57:49.163Z</time></trkpt><trkpt lat="43.3380891" lon="11.6301998"><ele>481.0</ele><time>2026-05-03T07:57:50.163Z</time></trkpt><trkpt lat="43.3381168" lon="11.6303089"><ele>481.0</ele><time>2026-05-03T07:57:51.161Z</time></trkpt><trkpt lat="43.338149" lon="11.6304171"><ele>481.00000000000006</ele><time>2026-05-03T07:57:52.163Z</time></trkpt><trkpt lat="43.3381853" lon="11.6305256"><ele>481.0</ele><time>2026-05-03T07:57:53.162Z</time></trkpt><trkpt lat="43.3382239" lon="11.6306248"><ele>481.1666666666667</ele><time>2026-05-03T07:57:54.163Z</time></trkpt><trkpt lat="43.3382664" lon="11.6307169"><ele>481.33333333333337</ele><time>2026-05-03T07:57:55.163Z</time></trkpt><trkpt lat="43.3383097" lon="11.6308068"><ele>481.5</ele><time>2026-05-03T07:57:56.162Z</time></trkpt><trkpt lat="43.338348" lon="11.630889"><ele>481.66666666666663</ele><time>2026-05-03T07:57:57.163Z</time></trkpt><trkpt lat="43.3383779" lon="11.6309657"><ele>481.8333333333333</ele><time>2026-05-03T07:57:58.162Z</time></trkpt><trkpt lat="43.3384113" lon="11.6310894"><ele>482.0</ele><time>2026-05-03T07:58:00.162Z</time></trkpt><trkpt lat="43.3384403" lon="11.6311894"><ele>482.66666666666663</ele><time>2026-05-03T07:58:03.162Z</time></trkpt><trkpt lat="43.3384491" lon="11.6313043"><ele>483.3333333333333</ele><time>2026-05-03T07:58:23.162Z</time></trkpt><trkpt lat="43.3384397" lon="11.6314771"><ele>484.0</ele><time>2026-05-03T07:58:25.162Z</time></trkpt><trkpt lat="43.3384384" lon="11.6315754"><ele>484.66666666666663</ele><time>2026-05-03T07:58:26.163Z</time></trkpt><trkpt lat="43.3384251" lon="11.6316822"><ele>485.3333333333333</ele><time>2026-05-03T07:58:27.162Z</time></trkpt><trkpt lat="43.3384313" lon="11.6317834"><ele>486.0</ele><time>2026-05-03T07:58:28.162Z</time></trkpt><trkpt lat="43.3384326" lon="11.6318897"><ele>486.0</ele><time>2026-05-03T07:58:29.163Z</time></trkpt><trkpt lat="43.3384689" lon="11.6319727"><ele>486.0</ele><time>2026-05-03T07:58:30.163Z</time></trkpt><trkpt lat="43.3385558" lon="11.6320426"><ele>486.0</ele><time>2026-05-03T07:58:31.163Z</time></trkpt><trkpt lat="43.3386188" lon="11.6321132"><ele>486.0</ele><time>2026-05-03T07:58:32.163Z</time></trkpt><trkpt lat="43.3386861" lon="11.6321636"><ele>486.0</ele><time>2026-05-03T07:58:33.162Z</time></trkpt><trkpt lat="43.3387683" lon="11.632192"><ele>486.0</ele><time>2026-05-03T07:58:34.162Z</time></trkpt><trkpt lat="43.3388484" lon="11.6322139"><ele>487.1666666666667</ele><time>2026-05-03T07:58:35.163Z</time></trkpt><trkpt lat="43.3389361" lon="11.6322505"><ele>488.33333333333337</ele><time>2026-05-03T07:58:36.162Z</time></trkpt><trkpt lat="43.3390165" lon="11.6323043"><ele>489.5</ele><time>2026-05-03T07:58:37.163Z</time></trkpt><trkpt lat="43.3390926" lon="11.6323637"><ele>490.6666666666667</ele><time>2026-05-03T07:58:38.162Z</time></trkpt><trkpt lat="43.3391687" lon="11.632407"><ele>491.83333333333337</ele><time>2026-05-03T07:58:39.162Z</time></trkpt><trkpt lat="43.3392454" lon="11.6324339"><ele>493.0</ele><time>2026-05-03T07:58:40.162Z</time></trkpt><trkpt lat="43.339308" lon="11.6324777"><ele>493.00000000000006</ele><time>2026-05-03T07:58:41.162Z</time></trkpt><trkpt lat="43.3393568" lon="11.632548"><ele>493.0</ele><time>2026-05-03T07:58:42.163Z</time></trkpt><trkpt lat="43.3394047" lon="11.6326291"><ele>493.0</ele><time>2026-05-03T07:58:43.162Z</time></trkpt><trkpt lat="43.339451" lon="11.6327163"><ele>493.0</ele><time>2026-05-03T07:58:44.162Z</time></trkpt><trkpt lat="43.3394962" lon="11.6328128"><ele>493.00000000000006</ele><time>2026-05-03T07:58:45.163Z</time></trkpt><trkpt lat="43.3395327" lon="11.6329127"><ele>493.0</ele><time>2026-05-03T07:58:46.163Z</time></trkpt><trkpt lat="43.3395709" lon="11.6330238"><ele>495.00000000000006</ele><time>2026-05-03T07:58:47.162Z</time></trkpt><trkpt lat="43.3396071" lon="11.6331322"><ele>497.0</ele><time>2026-05-03T07:58:48.162Z</time></trkpt><trkpt lat="43.3395863" lon="11.6332697"><ele>499.0</ele><time>2026-05-03T07:58:49.161Z</time></trkpt><trkpt lat="43.3395917" lon="11.6333882"><ele>501.0</ele><time>2026-05-03T07:58:50.162Z</time></trkpt><trkpt lat="43.3395837" lon="11.6334996"><ele>503.00000000000006</ele><time>2026-05-03T07:58:51.163Z</time></trkpt><trkpt lat="43.3395713" lon="11.6336134"><ele>505.0</ele><time>2026-05-03T07:58:52.163Z</time></trkpt><trkpt lat="43.3395509" lon="11.6337241"><ele>505.33333333333337</ele><time>2026-05-03T07:58:53.162Z</time></trkpt><trkpt lat="43.3395255" lon="11.6338411"><ele>505.6666666666667</ele><time>2026-05-03T07:58:54.162Z</time></trkpt><trkpt lat="43.3394943" lon="11.6339507"><ele>506.0</ele><time>2026-05-03T07:58:55.162Z</time></trkpt><trkpt lat="43.3394686" lon="11.634048"><ele>506.33333333333337</ele><time>2026-05-03T07:58:56.162Z</time></trkpt><trkpt lat="43.3394507" lon="11.63415"><ele>506.6666666666667</ele><time>2026-05-03T07:58:57.162Z</time></trkpt><trkpt lat="43.3394422" lon="11.6342575"><ele>507.0</ele><time>2026-05-03T07:58:58.163Z</time></trkpt><trkpt lat="43.3394674" lon="11.634366"><ele>505.8</ele><time>2026-05-03T07:58:59.162Z</time></trkpt><trkpt lat="43.3394815" lon="11.6344809"><ele>504.6</ele><time>2026-05-03T07:59:00.163Z</time></trkpt><trkpt lat="43.3394933" lon="11.6346217"><ele>503.40000000000003</ele><time>2026-05-03T07:59:01.163Z</time></trkpt><trkpt lat="43.3395222" lon="11.6347516"><ele>502.20000000000005</ele><time>2026-05-03T07:59:02.163Z</time></trkpt><trkpt lat="43.3395496" lon="11.6348836"><ele>501.0</ele><time>2026-05-03T07:59:03.163Z</time></trkpt><trkpt lat="43.3395728" lon="11.6350251"><ele>501.0</ele><time>2026-05-03T07:59:04.163Z</time></trkpt><trkpt lat="43.3396051" lon="11.6351508"><ele>501.0</ele><time>2026-05-03T07:59:05.162Z</time></trkpt><trkpt lat="43.3396247" lon="11.6352875"><ele>501.0</ele><time>2026-05-03T07:59:06.163Z</time></trkpt><trkpt lat="43.339648" lon="11.6354187"><ele>501.0</ele><time>2026-05-03T07:59:07.162Z</time></trkpt><trkpt lat="43.3396799" lon="11.6355561"><ele>501.0</ele><time>2026-05-03T07:59:08.163Z</time></trkpt><trkpt lat="43.339727" lon="11.6356839"><ele>501.0</ele><time>2026-05-03T07:59:09.161Z</time></trkpt><trkpt lat="43.3397655" lon="11.6358155"><ele>501.0</ele><time>2026-05-03T07:59:10.162Z</time></trkpt><trkpt lat="43.3398217" lon="11.6359198"><ele>501.0</ele><time>2026-05-03T07:59:11.162Z</time></trkpt><trkpt lat="43.3398712" lon="11.6360254"><ele>501.0</ele><time>2026-05-03T07:59:12.163Z</time></trkpt><trkpt lat="43.339934" lon="11.6361286"><ele>501.0</ele><time>2026-05-03T07:59:13.163Z</time></trkpt><trkpt lat="43.3400018" lon="11.6362235"><ele>501.0</ele><time>2026-05-03T07:59:14.163Z</time></trkpt><trkpt lat="43.3400701" lon="11.6363236"><ele>501.0</ele><time>2026-05-03T07:59:15.162Z</time></trkpt><trkpt lat="43.3401303" lon="11.6364303"><ele>501.0</ele><time>2026-05-03T07:59:16.163Z</time></trkpt><trkpt lat="43.3401913" lon="11.6365337"><ele>501.0</ele><time>2026-05-03T07:59:17.163Z</time></trkpt><trkpt lat="43.3402497" lon="11.6366364"><ele>501.0</ele><time>2026-05-03T07:59:18.163Z</time></trkpt><trkpt lat="43.3403048" lon="11.6367464"><ele>501.0</ele><time>2026-05-03T07:59:19.163Z</time></trkpt><trkpt lat="43.3403541" lon="11.6368631"><ele>501.0</ele><time>2026-05-03T07:59:20.163Z</time></trkpt><trkpt lat="43.3403937" lon="11.6369789"><ele>501.0</ele><time>2026-05-03T07:59:21.163Z</time></trkpt><trkpt lat="43.3404445" lon="11.6370696"><ele>501.0</ele><time>2026-05-03T07:59:22.162Z</time></trkpt><trkpt lat="43.3405085" lon="11.6371503"><ele>501.0</ele><time>2026-05-03T07:59:23.162Z</time></trkpt><trkpt lat="43.3405798" lon="11.6372338"><ele>503.0</ele><time>2026-05-03T07:59:24.163Z</time></trkpt><trkpt lat="43.340655" lon="11.6373172"><ele>505.0</ele><time>2026-05-03T07:59:25.163Z</time></trkpt><trkpt lat="43.340723" lon="11.6374156"><ele>507.0</ele><time>2026-05-03T07:59:26.162Z</time></trkpt><trkpt lat="43.3407833" lon="11.6375214"><ele>509.0</ele><time>2026-05-03T07:59:27.162Z</time></trkpt><trkpt lat="43.3408396" lon="11.6376308"><ele>511.0</ele><time>2026-05-03T07:59:28.163Z</time></trkpt><trkpt lat="43.3408861" lon="11.637747"><ele>510.8</ele><time>2026-05-03T07:59:29.163Z</time></trkpt><trkpt lat="43.3409193" lon="11.6378741"><ele>510.6</ele><time>2026-05-03T07:59:30.163Z</time></trkpt><trkpt lat="43.3409553" lon="11.6379934"><ele>510.4</ele><time>2026-05-03T07:59:31.163Z</time></trkpt><trkpt lat="43.3410078" lon="11.6380906"><ele>510.2</ele><time>2026-05-03T07:59:32.163Z</time></trkpt><trkpt lat="43.3410752" lon="11.6381844"><ele>510.0</ele><time>2026-05-03T07:59:33.163Z</time></trkpt><trkpt lat="43.3411448" lon="11.6382813"><ele>510.0</ele><time>2026-05-03T07:59:34.163Z</time></trkpt><trkpt lat="43.3412138" lon="11.6383809"><ele>510.0</ele><time>2026-05-03T07:59:35.162Z</time></trkpt><trkpt lat="43.3412824" lon="11.6384848"><ele>510.0</ele><time>2026-05-03T07:59:36.162Z</time></trkpt><trkpt lat="43.3413465" lon="11.6385851"><ele>510.0</ele><time>2026-05-03T07:59:37.163Z</time></trkpt><trkpt lat="43.341412" lon="11.6386802"><ele>510.0</ele><time>2026-05-03T07:59:38.163Z</time></trkpt><trkpt lat="43.341484" lon="11.6387675"><ele>512.3333333333334</ele><time>2026-05-03T07:59:39.163Z</time></trkpt><trkpt lat="43.3415502" lon="11.6388321"><ele>514.6666666666666</ele><time>2026-05-03T07:59:40.162Z</time></trkpt><trkpt lat="43.3416182" lon="11.6388814"><ele>517.0</ele><time>2026-05-03T07:59:41.163Z</time></trkpt><trkpt lat="43.341691" lon="11.6389022"><ele>519.3333333333333</ele><time>2026-05-03T07:59:42.163Z</time></trkpt><trkpt lat="43.3417619" lon="11.6389057"><ele>521.6666666666666</ele><time>2026-05-03T07:59:43.162Z</time></trkpt><trkpt lat="43.3418386" lon="11.6389047"><ele>524.0</ele><time>2026-05-03T07:59:44.163Z</time></trkpt><trkpt lat="43.3419152" lon="11.6388911"><ele>524.0</ele><time>2026-05-03T07:59:45.163Z</time></trkpt><trkpt lat="43.3419828" lon="11.63886"><ele>524.0</ele><time>2026-05-03T07:59:46.162Z</time></trkpt><trkpt lat="43.3420493" lon="11.6388153"><ele>524.0</ele><time>2026-05-03T07:59:47.163Z</time></trkpt><trkpt lat="43.3421122" lon="11.6387641"><ele>524.0</ele><time>2026-05-03T07:59:48.163Z</time></trkpt><trkpt lat="43.34218" lon="11.6387239"><ele>524.0</ele><time>2026-05-03T07:59:49.162Z</time></trkpt><trkpt lat="43.3422494" lon="11.6387122"><ele>524.0</ele><time>2026-05-03T07:59:50.163Z</time></trkpt><trkpt lat="43.3423214" lon="11.6387274"><ele>524.0</ele><time>2026-05-03T07:59:51.163Z</time></trkpt><trkpt lat="43.3423947" lon="11.6387522"><ele>526.8333333333333</ele><time>2026-05-03T07:59:52.162Z</time></trkpt><trkpt lat="43.3424719" lon="11.6387614"><ele>529.6666666666666</ele><time>2026-05-03T07:59:53.162Z</time></trkpt><trkpt lat="43.3425584" lon="11.6387528"><ele>532.5</ele><time>2026-05-03T07:59:54.162Z</time></trkpt><trkpt lat="43.3426428" lon="11.6387434"><ele>535.3333333333334</ele><time>2026-05-03T07:59:55.163Z</time></trkpt><trkpt lat="43.3427348" lon="11.6387428"><ele>538.1666666666667</ele><time>2026-05-03T07:59:56.162Z</time></trkpt><trkpt lat="43.342832" lon="11.6387517"><ele>541.0</ele><time>2026-05-03T07:59:57.162Z</time></trkpt><trkpt lat="43.3429296" lon="11.6387764"><ele>541.0</ele><time>2026-05-03T07:59:58.163Z</time></trkpt><trkpt lat="43.3430206" lon="11.6388192"><ele>541.0</ele><time>2026-05-03T07:59:59.163Z</time></trkpt><trkpt lat="43.3431016" lon="11.6388856"><ele>541.0</ele><time>2026-05-03T08:00:00.163Z</time></trkpt><trkpt lat="43.3431757" lon="11.6389636"><ele>541.0</ele><time>2026-05-03T08:00:01.163Z</time></trkpt><trkpt lat="43.3432453" lon="11.6390543"><ele>541.0</ele><time>2026-05-03T08:00:02.162Z</time></trkpt><trkpt lat="43.3433092" lon="11.639151"><ele>541.8</ele><time>2026-05-03T08:00:03.161Z</time></trkpt><trkpt lat="43.3433716" lon="11.639248"><ele>542.6</ele><time>2026-05-03T08:00:04.162Z</time></trkpt><trkpt lat="43.3434357" lon="11.6393472"><ele>543.4</ele><time>2026-05-03T08:00:05.162Z</time></trkpt><trkpt lat="43.343507" lon="11.6394404"><ele>544.2</ele><time>2026-05-03T08:00:06.162Z</time></trkpt><trkpt lat="43.3435811" lon="11.6395219"><ele>545.0</ele><time>2026-05-03T08:00:07.162Z</time></trkpt><trkpt lat="43.3436615" lon="11.6395968"><ele>546.8</ele><time>2026-05-03T08:00:08.162Z</time></trkpt><trkpt lat="43.3437394" lon="11.6396842"><ele>548.6</ele><time>2026-05-03T08:00:09.16Z</time></trkpt><trkpt lat="43.3438152" lon="11.639781"><ele>550.4</ele><time>2026-05-03T08:00:10.161Z</time></trkpt><trkpt lat="43.3438848" lon="11.6398864"><ele>552.2</ele><time>2026-05-03T08:00:11.162Z</time></trkpt><trkpt lat="43.3439432" lon="11.640003"><ele>554.0</ele><time>2026-05-03T08:00:12.161Z</time></trkpt><trkpt lat="43.3439927" lon="11.6401178"><ele>554.2</ele><time>2026-05-03T08:00:13.161Z</time></trkpt><trkpt lat="43.3440361" lon="11.6402341"><ele>554.4</ele><time>2026-05-03T08:00:14.162Z</time></trkpt><trkpt lat="43.3440782" lon="11.640342"><ele>554.6</ele><time>2026-05-03T08:00:15.162Z</time></trkpt><trkpt lat="43.3441137" lon="11.6404271"><ele>554.8</ele><time>2026-05-03T08:00:16.161Z</time></trkpt><trkpt lat="43.3441857" lon="11.6405746"><ele>555.0</ele><time>2026-05-03T08:00:18.162Z</time></trkpt><trkpt lat="43.3442319" lon="11.6406589"><ele>555.4</ele><time>2026-05-03T08:00:19.162Z</time></trkpt><trkpt lat="43.3442838" lon="11.6407379"><ele>555.8</ele><time>2026-05-03T08:00:20.162Z</time></trkpt><trkpt lat="43.3443311" lon="11.6408048"><ele>556.2</ele><time>2026-05-03T08:00:21.161Z</time></trkpt><trkpt lat="43.344393" lon="11.6408779"><ele>556.6</ele><time>2026-05-03T08:00:23.162Z</time></trkpt><trkpt lat="43.3444767" lon="11.6408146"><ele>557.0</ele><time>2026-05-03T08:00:26.162Z</time></trkpt><trkpt lat="43.3445649" lon="11.6406656"><ele>557.0</ele><time>2026-05-03T08:00:28.162Z</time></trkpt><trkpt lat="43.3446247" lon="11.6405729"><ele>557.0</ele><time>2026-05-03T08:00:29.162Z</time></trkpt><trkpt lat="43.344687" lon="11.6404837"><ele>557.0</ele><time>2026-05-03T08:00:30.162Z</time></trkpt><trkpt lat="43.3447574" lon="11.6403899"><ele>557.0</ele><time>2026-05-03T08:00:31.16Z</time></trkpt><trkpt lat="43.3448321" lon="11.6402997"><ele>557.0</ele><time>2026-05-03T08:00:32.161Z</time></trkpt><trkpt lat="43.3449125" lon="11.640219"><ele>557.8000000000001</ele><time>2026-05-03T08:00:33.161Z</time></trkpt><trkpt lat="43.3450016" lon="11.6401576"><ele>558.6</ele><time>2026-05-03T08:00:34.162Z</time></trkpt><trkpt lat="43.3450996" lon="11.6401076"><ele>559.4000000000001</ele><time>2026-05-03T08:00:35.161Z</time></trkpt><trkpt lat="43.3452039" lon="11.6400679"><ele>560.2</ele><time>2026-05-03T08:00:36.162Z</time></trkpt><trkpt lat="43.345313" lon="11.6400406"><ele>561.0</ele><time>2026-05-03T08:00:37.161Z</time></trkpt><trkpt lat="43.3454244" lon="11.6400192"><ele>561.0</ele><time>2026-05-03T08:00:38.162Z</time></trkpt><trkpt lat="43.3455398" lon="11.6399922"><ele>561.0</ele><time>2026-05-03T08:00:39.162Z</time></trkpt><trkpt lat="43.3456602" lon="11.6399677"><ele>561.0</ele><time>2026-05-03T08:00:40.16Z</time></trkpt><trkpt lat="43.3457806" lon="11.6399474"><ele>561.0</ele><time>2026-05-03T08:00:41.162Z</time></trkpt><trkpt lat="43.3458996" lon="11.639923"><ele>562.25</ele><time>2026-05-03T08:00:42.162Z</time></trkpt><trkpt lat="43.3460163" lon="11.6398985"><ele>563.5</ele><time>2026-05-03T08:00:43.162Z</time></trkpt><trkpt lat="43.3461316" lon="11.6398703"><ele>564.75</ele><time>2026-05-03T08:00:44.162Z</time></trkpt><trkpt lat="43.3462444" lon="11.6398369"><ele>566.0</ele><time>2026-05-03T08:00:45.162Z</time></trkpt><trkpt lat="43.3465635" lon="11.6397585"><ele>566.6666666666666</ele><time>2026-05-03T08:00:49.072Z</time></trkpt><trkpt lat="43.3466862" lon="11.6397355"><ele>567.3333333333333</ele><time>2026-05-03T08:00:50.162Z</time></trkpt><trkpt lat="43.3467583" lon="11.6397277"><ele>568.0</ele><time>2026-05-03T08:00:51.161Z</time></trkpt><trkpt lat="43.3468264" lon="11.6397326"><ele>568.6666666666666</ele><time>2026-05-03T08:00:52.162Z</time></trkpt><trkpt lat="43.3468932" lon="11.6397405"><ele>569.3333333333334</ele><time>2026-05-03T08:00:53.161Z</time></trkpt><trkpt lat="43.3469642" lon="11.6397599"><ele>570.0</ele><time>2026-05-03T08:00:54.162Z</time></trkpt><trkpt lat="43.3470473" lon="11.6397974"><ele>570.0</ele><time>2026-05-03T08:00:55.162Z</time></trkpt><trkpt lat="43.3471346" lon="11.6398414"><ele>570.0</ele><time>2026-05-03T08:00:56.162Z</time></trkpt><trkpt lat="43.3472311" lon="11.6398904"><ele>570.0</ele><time>2026-05-03T08:00:57.162Z</time></trkpt><trkpt lat="43.347334" lon="11.6399349"><ele>570.0</ele><time>2026-05-03T08:00:58.161Z</time></trkpt><trkpt lat="43.3474417" lon="11.6399769"><ele>570.0</ele><time>2026-05-03T08:00:59.161Z</time></trkpt><trkpt lat="43.3475558" lon="11.6400198"><ele>570.5</ele><time>2026-05-03T08:01:00.16Z</time></trkpt><trkpt lat="43.3476676" lon="11.6400615"><ele>571.0</ele><time>2026-05-03T08:01:01.162Z</time></trkpt><trkpt lat="43.3477832" lon="11.6401058"><ele>571.5</ele><time>2026-05-03T08:01:02.162Z</time></trkpt><trkpt lat="43.3478991" lon="11.6401532"><ele>572.0</ele><time>2026-05-03T08:01:03.162Z</time></trkpt><trkpt lat="43.3480188" lon="11.6402039"><ele>571.25</ele><time>2026-05-03T08:01:04.162Z</time></trkpt><trkpt lat="43.3481392" lon="11.6402578"><ele>570.5</ele><time>2026-05-03T08:01:05.162Z</time></trkpt><trkpt lat="43.3482621" lon="11.640313"><ele>569.75</ele><time>2026-05-03T08:01:06.162Z</time></trkpt><trkpt lat="43.3483839" lon="11.6403816"><ele>569.0</ele><time>2026-05-03T08:01:07.162Z</time></trkpt><trkpt lat="43.3485016" lon="11.6404724"><ele>569.25</ele><time>2026-05-03T08:01:08.161Z</time></trkpt><trkpt lat="43.3486138" lon="11.6405807"><ele>569.5</ele><time>2026-05-03T08:01:09.162Z</time></trkpt><trkpt lat="43.3487264" lon="11.6406973"><ele>569.75</ele><time>2026-05-03T08:01:10.162Z</time></trkpt><trkpt lat="43.3488402" lon="11.6408106"><ele>570.0</ele><time>2026-05-03T08:01:11.161Z</time></trkpt><trkpt lat="43.348953" lon="11.6409004"><ele>570.0</ele><time>2026-05-03T08:01:12.162Z</time></trkpt><trkpt lat="43.3490642" lon="11.6409768"><ele>570.0</ele><time>2026-05-03T08:01:13.162Z</time></trkpt><trkpt lat="43.3491663" lon="11.6410509"><ele>570.0</ele><time>2026-05-03T08:01:14.161Z</time></trkpt><trkpt lat="43.3492574" lon="11.6411315"><ele>570.0</ele><time>2026-05-03T08:01:15.162Z</time></trkpt><trkpt lat="43.3493296" lon="11.6412327"><ele>571.2</ele><time>2026-05-03T08:01:16.161Z</time></trkpt><trkpt lat="43.3493673" lon="11.6413604"><ele>572.4</ele><time>2026-05-03T08:01:17.16Z</time></trkpt><trkpt lat="43.3493725" lon="11.6415073"><ele>573.6</ele><time>2026-05-03T08:01:18.161Z</time></trkpt><trkpt lat="43.3493524" lon="11.64166"><ele>574.8</ele><time>2026-05-03T08:01:19.16Z</time></trkpt><trkpt lat="43.3493391" lon="11.6418188"><ele>576.0</ele><time>2026-05-03T08:01:20.162Z</time></trkpt><trkpt lat="43.3493681" lon="11.6419598"><ele>575.75</ele><time>2026-05-03T08:01:21.162Z</time></trkpt><trkpt lat="43.3494219" lon="11.6420956"><ele>575.5</ele><time>2026-05-03T08:01:22.16Z</time></trkpt><trkpt lat="43.3495019" lon="11.642207"><ele>575.25</ele><time>2026-05-03T08:01:23.16Z</time></trkpt><trkpt lat="43.3496073" lon="11.6422983"><ele>575.0</ele><time>2026-05-03T08:01:24.161Z</time></trkpt><trkpt lat="43.3497179" lon="11.6423863"><ele>571.75</ele><time>2026-05-03T08:01:25.162Z</time></trkpt><trkpt lat="43.3498359" lon="11.6424746"><ele>568.5</ele><time>2026-05-03T08:01:26.161Z</time></trkpt><trkpt lat="43.3499563" lon="11.6425664"><ele>565.25</ele><time>2026-05-03T08:01:27.162Z</time></trkpt><trkpt lat="43.3500768" lon="11.642658"><ele>562.0</ele><time>2026-05-03T08:01:28.161Z</time></trkpt><trkpt lat="43.3502029" lon="11.6427567"><ele>560.5</ele><time>2026-05-03T08:01:29.162Z</time></trkpt><trkpt lat="43.3503245" lon="11.6428677"><ele>559.0</ele><time>2026-05-03T08:01:30.162Z</time></trkpt><trkpt lat="43.350441" lon="11.642993"><ele>557.5</ele><time>2026-05-03T08:01:31.162Z</time></trkpt><trkpt lat="43.3505498" lon="11.6431305"><ele>556.0</ele><time>2026-05-03T08:01:32.162Z</time></trkpt><trkpt lat="43.3506505" lon="11.6432812"><ele>555.75</ele><time>2026-05-03T08:01:33.16Z</time></trkpt><trkpt lat="43.3507524" lon="11.6434299"><ele>555.5</ele><time>2026-05-03T08:01:34.161Z</time></trkpt><trkpt lat="43.3508487" lon="11.6435845"><ele>555.25</ele><time>2026-05-03T08:01:35.161Z</time></trkpt><trkpt lat="43.3509456" lon="11.643739"><ele>555.0</ele><time>2026-05-03T08:01:36.161Z</time></trkpt><trkpt lat="43.3510475" lon="11.643889"><ele>554.25</ele><time>2026-05-03T08:01:37.162Z</time></trkpt><trkpt lat="43.3511543" lon="11.6440315"><ele>553.5</ele><time>2026-05-03T08:01:38.162Z</time></trkpt><trkpt lat="43.3512685" lon="11.6441626"><ele>552.75</ele><time>2026-05-03T08:01:39.162Z</time></trkpt><trkpt lat="43.3513902" lon="11.6442774"><ele>552.0</ele><time>2026-05-03T08:01:40.162Z</time></trkpt><trkpt lat="43.3515209" lon="11.6443622"><ele>552.0</ele><time>2026-05-03T08:01:41.162Z</time></trkpt><trkpt lat="43.3516565" lon="11.6444056"><ele>552.0</ele><time>2026-05-03T08:01:42.161Z</time></trkpt><trkpt lat="43.3517984" lon="11.6444082"><ele>552.0</ele><time>2026-05-03T08:01:43.161Z</time></trkpt><trkpt lat="43.3519315" lon="11.6443691"><ele>552.0</ele><time>2026-05-03T08:01:44.162Z</time></trkpt><trkpt lat="43.3520647" lon="11.6442981"><ele>552.0</ele><time>2026-05-03T08:01:45.162Z</time></trkpt><trkpt lat="43.3521987" lon="11.644224"><ele>552.0</ele><time>2026-05-03T08:01:46.162Z</time></trkpt><trkpt lat="43.3523359" lon="11.6441682"><ele>552.0</ele><time>2026-05-03T08:01:47.162Z</time></trkpt><trkpt lat="43.3524775" lon="11.6441322"><ele>552.0</ele><time>2026-05-03T08:01:48.16Z</time></trkpt><trkpt lat="43.3526215" lon="11.6441087"><ele>552.5</ele><time>2026-05-03T08:01:49.162Z</time></trkpt><trkpt lat="43.3527653" lon="11.6440879"><ele>553.0</ele><time>2026-05-03T08:01:50.161Z</time></trkpt><trkpt lat="43.3529099" lon="11.644063"><ele>553.5</ele><time>2026-05-03T08:01:51.162Z</time></trkpt><trkpt lat="43.3530532" lon="11.6440284"><ele>554.0</ele><time>2026-05-03T08:01:52.162Z</time></trkpt><trkpt lat="43.3531959" lon="11.6439759"><ele>554.0</ele><time>2026-05-03T08:01:53.161Z</time></trkpt><trkpt lat="43.3533272" lon="11.6438921"><ele>554.0</ele><time>2026-05-03T08:01:54.161Z</time></trkpt><trkpt lat="43.3534384" lon="11.6437717"><ele>554.0</ele><time>2026-05-03T08:01:55.162Z</time></trkpt><trkpt lat="43.3535339" lon="11.6436319"><ele>554.0</ele><time>2026-05-03T08:01:56.161Z</time></trkpt><trkpt lat="43.3536218" lon="11.6434872"><ele>553.5</ele><time>2026-05-03T08:01:57.162Z</time></trkpt><trkpt lat="43.3537233" lon="11.6433609"><ele>553.0</ele><time>2026-05-03T08:01:58.161Z</time></trkpt><trkpt lat="43.3538381" lon="11.6432641"><ele>552.5</ele><time>2026-05-03T08:01:59.161Z</time></trkpt><trkpt lat="43.353965" lon="11.6432028"><ele>552.0</ele><time>2026-05-03T08:02:00.161Z</time></trkpt><trkpt lat="43.3540996" lon="11.6431755"><ele>554.75</ele><time>2026-05-03T08:02:01.161Z</time></trkpt><trkpt lat="43.354234" lon="11.6431676"><ele>557.5</ele><time>2026-05-03T08:02:02.162Z</time></trkpt><trkpt lat="43.3543688" lon="11.6431816"><ele>560.25</ele><time>2026-05-03T08:02:03.16Z</time></trkpt><trkpt lat="43.3544954" lon="11.6432239"><ele>563.0</ele><time>2026-05-03T08:02:04.161Z</time></trkpt><trkpt lat="43.3546157" lon="11.6432914"><ele>564.75</ele><time>2026-05-03T08:02:05.162Z</time></trkpt><trkpt lat="43.3547245" lon="11.6433841"><ele>566.5</ele><time>2026-05-03T08:02:06.161Z</time></trkpt><trkpt lat="43.3548269" lon="11.6434935"><ele>568.25</ele><time>2026-05-03T08:02:07.162Z</time></trkpt><trkpt lat="43.3549307" lon="11.6436064"><ele>570.0</ele><time>2026-05-03T08:02:08.162Z</time></trkpt><trkpt lat="43.3550317" lon="11.6437173"><ele>571.0</ele><time>2026-05-03T08:02:09.162Z</time></trkpt><trkpt lat="43.3551201" lon="11.6438193"><ele>572.0</ele><time>2026-05-03T08:02:10.161Z</time></trkpt><trkpt lat="43.3551938" lon="11.6439051"><ele>573.0</ele><time>2026-05-03T08:02:11.162Z</time></trkpt><trkpt lat="43.355255" lon="11.6439778"><ele>574.0</ele><time>2026-05-03T08:02:12.16Z</time></trkpt><trkpt lat="43.3553343" lon="11.6440597"><ele>575.0</ele><time>2026-05-03T08:02:14.161Z</time></trkpt><trkpt lat="43.3554058" lon="11.6439636"><ele>575.0</ele><time>2026-05-03T08:02:17.162Z</time></trkpt><trkpt lat="43.3554371" lon="11.6438882"><ele>575.0</ele><time>2026-05-03T08:02:18.162Z</time></trkpt><trkpt lat="43.3554674" lon="11.6438037"><ele>575.0</ele><time>2026-05-03T08:02:19.162Z</time></trkpt><trkpt lat="43.355505" lon="11.6437168"><ele>575.0</ele><time>2026-05-03T08:02:20.161Z</time></trkpt><trkpt lat="43.3555621" lon="11.6435716"><ele>575.0</ele><time>2026-05-03T08:02:22.161Z</time></trkpt><trkpt lat="43.3556003" lon="11.6434868"><ele>575.0</ele><time>2026-05-03T08:02:23.162Z</time></trkpt><trkpt lat="43.3556371" lon="11.6433905"><ele>574.0</ele><time>2026-05-03T08:02:24.162Z</time></trkpt><trkpt lat="43.355678" lon="11.6432992"><ele>573.0</ele><time>2026-05-03T08:02:25.162Z</time></trkpt><trkpt lat="43.355715" lon="11.6432095"><ele>572.0</ele><time>2026-05-03T08:02:26.161Z</time></trkpt><trkpt lat="43.3557552" lon="11.6431147"><ele>571.0</ele><time>2026-05-03T08:02:27.162Z</time></trkpt><trkpt lat="43.3557941" lon="11.6430182"><ele>570.0</ele><time>2026-05-03T08:02:28.161Z</time></trkpt><trkpt lat="43.3558278" lon="11.6429315"><ele>569.0</ele><time>2026-05-03T08:02:29.161Z</time></trkpt><trkpt lat="43.3558814" lon="11.6428021"><ele>569.0</ele><time>2026-05-03T08:02:31.161Z</time></trkpt><trkpt lat="43.3559142" lon="11.6427044"><ele>569.0</ele><time>2026-05-03T08:02:33.161Z</time></trkpt><trkpt lat="43.3559785" lon="11.6425627"><ele>569.0</ele><time>2026-05-03T08:02:35.162Z</time></trkpt><trkpt lat="43.3560466" lon="11.6424051"><ele>569.0</ele><time>2026-05-03T08:02:37.162Z</time></trkpt><trkpt lat="43.3560857" lon="11.6423095"><ele>569.0</ele><time>2026-05-03T08:02:38.162Z</time></trkpt><trkpt lat="43.3561275" lon="11.642203"><ele>569.0</ele><time>2026-05-03T08:02:39.161Z</time></trkpt><trkpt lat="43.3561853" lon="11.6420868"><ele>569.0</ele><time>2026-05-03T08:02:40.162Z</time></trkpt><trkpt lat="43.356238" lon="11.6419598"><ele>569.0</ele><time>2026-05-03T08:02:41.162Z</time></trkpt><trkpt lat="43.3562925" lon="11.641833"><ele>569.0</ele><time>2026-05-03T08:02:42.162Z</time></trkpt><trkpt lat="43.3563521" lon="11.6416973"><ele>569.0</ele><time>2026-05-03T08:02:43.162Z</time></trkpt><trkpt lat="43.3564146" lon="11.641564"><ele>569.0</ele><time>2026-05-03T08:02:44.16Z</time></trkpt><trkpt lat="43.3564783" lon="11.6414219"><ele>569.0</ele><time>2026-05-03T08:02:45.161Z</time></trkpt><trkpt lat="43.3565441" lon="11.641278"><ele>569.0</ele><time>2026-05-03T08:02:46.161Z</time></trkpt><trkpt lat="43.3566062" lon="11.6411333"><ele>569.0</ele><time>2026-05-03T08:02:47.162Z</time></trkpt><trkpt lat="43.3566703" lon="11.6409851"><ele>569.0</ele><time>2026-05-03T08:02:48.162Z</time></trkpt><trkpt lat="43.356737" lon="11.6408373"><ele>569.0</ele><time>2026-05-03T08:02:49.162Z</time></trkpt><trkpt lat="43.3568164" lon="11.640719"><ele>569.0</ele><time>2026-05-03T08:02:50.162Z</time></trkpt><trkpt lat="43.3568951" lon="11.6406012"><ele>569.0</ele><time>2026-05-03T08:02:51.162Z</time></trkpt><trkpt lat="43.3570049" lon="11.6406195"><ele>569.0</ele><time>2026-05-03T08:02:52.162Z</time></trkpt><trkpt lat="43.3570941" lon="11.6405711"><ele>569.0</ele><time>2026-05-03T08:02:53.161Z</time></trkpt><trkpt lat="43.3572231" lon="11.6405681"><ele>569.0</ele><time>2026-05-03T08:02:54.16Z</time></trkpt><trkpt lat="43.3573369" lon="11.6405525"><ele>569.0</ele><time>2026-05-03T08:02:55.161Z</time></trkpt><trkpt lat="43.3574646" lon="11.6404954"><ele>569.25</ele><time>2026-05-03T08:02:56.161Z</time></trkpt><trkpt lat="43.357574" lon="11.6404133"><ele>569.5</ele><time>2026-05-03T08:02:57.161Z</time></trkpt><trkpt lat="43.3576915" lon="11.6403277"><ele>569.75</ele><time>2026-05-03T08:02:58.161Z</time></trkpt><trkpt lat="43.3578105" lon="11.6402394"><ele>570.0</ele><time>2026-05-03T08:02:59.161Z</time></trkpt><trkpt lat="43.3579297" lon="11.6401465"><ele>572.5</ele><time>2026-05-03T08:03:00.162Z</time></trkpt><trkpt lat="43.3580523" lon="11.6400588"><ele>575.0</ele><time>2026-05-03T08:03:01.162Z</time></trkpt><trkpt lat="43.3581744" lon="11.6399733"><ele>577.5</ele><time>2026-05-03T08:03:02.161Z</time></trkpt><trkpt lat="43.3582948" lon="11.6398888"><ele>580.0</ele><time>2026-05-03T08:03:03.162Z</time></trkpt><trkpt lat="43.3584084" lon="11.6398006"><ele>580.0</ele><time>2026-05-03T08:03:04.162Z</time></trkpt><trkpt lat="43.3585206" lon="11.639713"><ele>580.0</ele><time>2026-05-03T08:03:05.162Z</time></trkpt><trkpt lat="43.3586315" lon="11.6396278"><ele>580.0</ele><time>2026-05-03T08:03:06.162Z</time></trkpt><trkpt lat="43.3587446" lon="11.639544"><ele>580.0</ele><time>2026-05-03T08:03:07.162Z</time></trkpt><trkpt lat="43.3588515" lon="11.639455"><ele>582.5</ele><time>2026-05-03T08:03:08.162Z</time></trkpt><trkpt lat="43.3589468" lon="11.6393499"><ele>585.0</ele><time>2026-05-03T08:03:09.162Z</time></trkpt><trkpt lat="43.3590291" lon="11.6392281"><ele>587.5</ele><time>2026-05-03T08:03:10.161Z</time></trkpt><trkpt lat="43.3590982" lon="11.6390976"><ele>590.0</ele><time>2026-05-03T08:03:11.162Z</time></trkpt><trkpt lat="43.359158" lon="11.6389573"><ele>590.0</ele><time>2026-05-03T08:03:12.161Z</time></trkpt><trkpt lat="43.3592048" lon="11.6388144"><ele>590.0</ele><time>2026-05-03T08:03:13.161Z</time></trkpt><trkpt lat="43.3592522" lon="11.6386735"><ele>590.0</ele><time>2026-05-03T08:03:14.161Z</time></trkpt><trkpt lat="43.3593095" lon="11.638547"><ele>590.0</ele><time>2026-05-03T08:03:15.162Z</time></trkpt><trkpt lat="43.3593825" lon="11.6384533"><ele>590.0</ele><time>2026-05-03T08:03:16.161Z</time></trkpt><trkpt lat="43.3594706" lon="11.6384062"><ele>590.25</ele><time>2026-05-03T08:03:17.161Z</time></trkpt><trkpt lat="43.3595742" lon="11.6383951"><ele>590.5</ele><time>2026-05-03T08:03:18.161Z</time></trkpt><trkpt lat="43.3596872" lon="11.6384144"><ele>590.75</ele><time>2026-05-03T08:03:19.162Z</time></trkpt><trkpt lat="43.3598087" lon="11.6384481"><ele>591.0</ele><time>2026-05-03T08:03:20.162Z</time></trkpt><trkpt lat="43.359936" lon="11.6384819"><ele>589.5</ele><time>2026-05-03T08:03:21.162Z</time></trkpt><trkpt lat="43.3600564" lon="11.6385122"><ele>588.0</ele><time>2026-05-03T08:03:22.162Z</time></trkpt><trkpt lat="43.3601753" lon="11.6385308"><ele>586.5</ele><time>2026-05-03T08:03:23.162Z</time></trkpt><trkpt lat="43.3602923" lon="11.6385228"><ele>585.0</ele><time>2026-05-03T08:03:24.162Z</time></trkpt><trkpt lat="43.3604039" lon="11.6384764"><ele>585.0</ele><time>2026-05-03T08:03:25.162Z</time></trkpt><trkpt lat="43.3605092" lon="11.6383934"><ele>585.0</ele><time>2026-05-03T08:03:26.161Z</time></trkpt><trkpt lat="43.3606065" lon="11.6382906"><ele>585.0</ele><time>2026-05-03T08:03:27.162Z</time></trkpt><trkpt lat="43.3607074" lon="11.6381883"><ele>585.0</ele><time>2026-05-03T08:03:28.161Z</time></trkpt><trkpt lat="43.3608308" lon="11.6381217"><ele>583.0</ele><time>2026-05-03T08:03:29.161Z</time></trkpt><trkpt lat="43.3609657" lon="11.6380928"><ele>581.0</ele><time>2026-05-03T08:03:30.162Z</time></trkpt><trkpt lat="43.3611076" lon="11.6380806"><ele>579.0</ele><time>2026-05-03T08:03:31.162Z</time></trkpt><trkpt lat="43.3612561" lon="11.6380987"><ele>577.0</ele><time>2026-05-03T08:03:32.161Z</time></trkpt><trkpt lat="43.3614055" lon="11.6381262"><ele>577.0</ele><time>2026-05-03T08:03:33.162Z</time></trkpt><trkpt lat="43.361558" lon="11.6381533"><ele>577.0</ele><time>2026-05-03T08:03:34.161Z</time></trkpt><trkpt lat="43.3617105" lon="11.6381714"><ele>577.0</ele><time>2026-05-03T08:03:35.162Z</time></trkpt><trkpt lat="43.3618525" lon="11.6381741"><ele>577.0</ele><time>2026-05-03T08:03:36.161Z</time></trkpt><trkpt lat="43.3619801" lon="11.6381498"><ele>577.0</ele><time>2026-05-03T08:03:37.161Z</time></trkpt><trkpt lat="43.3620905" lon="11.6380903"><ele>577.0</ele><time>2026-05-03T08:03:38.161Z</time></trkpt><trkpt lat="43.3621797" lon="11.6379846"><ele>577.0</ele><time>2026-05-03T08:03:39.162Z</time></trkpt><trkpt lat="43.3622572" lon="11.6378527"><ele>577.0</ele><time>2026-05-03T08:03:40.162Z</time></trkpt><trkpt lat="43.362324" lon="11.6377049"><ele>578.75</ele><time>2026-05-03T08:03:41.162Z</time></trkpt><trkpt lat="43.3623908" lon="11.6375467"><ele>580.5</ele><time>2026-05-03T08:03:42.162Z</time></trkpt><trkpt lat="43.3624632" lon="11.6373855"><ele>582.25</ele><time>2026-05-03T08:03:43.16Z</time></trkpt><trkpt lat="43.36254" lon="11.6372281"><ele>584.0</ele><time>2026-05-03T08:03:44.161Z</time></trkpt><trkpt lat="43.3626171" lon="11.637069"><ele>584.75</ele><time>2026-05-03T08:03:45.162Z</time></trkpt><trkpt lat="43.362694" lon="11.6369076"><ele>585.5</ele><time>2026-05-03T08:03:46.162Z</time></trkpt><trkpt lat="43.3627666" lon="11.6367463"><ele>586.25</ele><time>2026-05-03T08:03:47.162Z</time></trkpt><trkpt lat="43.3628298" lon="11.6365734"><ele>587.0</ele><time>2026-05-03T08:03:48.161Z</time></trkpt><trkpt lat="43.3628796" lon="11.6363853"><ele>587.0</ele><time>2026-05-03T08:03:49.161Z</time></trkpt><trkpt lat="43.3629203" lon="11.6361904"><ele>587.0</ele><time>2026-05-03T08:03:50.161Z</time></trkpt><trkpt lat="43.3629531" lon="11.6359904"><ele>587.0</ele><time>2026-05-03T08:03:51.16Z</time></trkpt><trkpt lat="43.3629804" lon="11.6358112"><ele>587.0</ele><time>2026-05-03T08:03:52.161Z</time></trkpt><trkpt lat="43.363027" lon="11.6356505"><ele>585.75</ele><time>2026-05-03T08:03:53.161Z</time></trkpt><trkpt lat="43.3630947" lon="11.6355179"><ele>584.5</ele><time>2026-05-03T08:03:54.162Z</time></trkpt><trkpt lat="43.3631873" lon="11.6354159"><ele>583.25</ele><time>2026-05-03T08:03:55.161Z</time></trkpt><trkpt lat="43.3632952" lon="11.6353227"><ele>582.0</ele><time>2026-05-03T08:03:56.162Z</time></trkpt><trkpt lat="43.3633939" lon="11.6352093"><ele>580.75</ele><time>2026-05-03T08:03:57.162Z</time></trkpt><trkpt lat="43.3634744" lon="11.6350592"><ele>579.5</ele><time>2026-05-03T08:03:58.161Z</time></trkpt><trkpt lat="43.3635416" lon="11.6348902"><ele>578.25</ele><time>2026-05-03T08:03:59.162Z</time></trkpt><trkpt lat="43.3636065" lon="11.6347158"><ele>577.0</ele><time>2026-05-03T08:04:00.161Z</time></trkpt><trkpt lat="43.3636723" lon="11.6345477"><ele>574.75</ele><time>2026-05-03T08:04:01.162Z</time></trkpt><trkpt lat="43.3637464" lon="11.6343885"><ele>572.5</ele><time>2026-05-03T08:04:02.161Z</time></trkpt><trkpt lat="43.3638413" lon="11.634264"><ele>570.25</ele><time>2026-05-03T08:04:03.161Z</time></trkpt><trkpt lat="43.3639601" lon="11.6341829"><ele>568.0</ele><time>2026-05-03T08:04:04.162Z</time></trkpt><trkpt lat="43.3640946" lon="11.634138"><ele>567.25</ele><time>2026-05-03T08:04:05.161Z</time></trkpt><trkpt lat="43.3642355" lon="11.6341159"><ele>566.5</ele><time>2026-05-03T08:04:06.161Z</time></trkpt><trkpt lat="43.364383" lon="11.6341112"><ele>565.75</ele><time>2026-05-03T08:04:07.16Z</time></trkpt><trkpt lat="43.3645307" lon="11.6341063"><ele>565.0</ele><time>2026-05-03T08:04:08.162Z</time></trkpt><trkpt lat="43.364675" lon="11.6341037"><ele>565.25</ele><time>2026-05-03T08:04:09.162Z</time></trkpt><trkpt lat="43.3648135" lon="11.6341208"><ele>565.5</ele><time>2026-05-03T08:04:10.162Z</time></trkpt><trkpt lat="43.3649532" lon="11.634152"><ele>565.75</ele><time>2026-05-03T08:04:11.162Z</time></trkpt><trkpt lat="43.3650897" lon="11.6342021"><ele>566.0</ele><time>2026-05-03T08:04:12.162Z</time></trkpt><trkpt lat="43.365218" lon="11.634254"><ele>566.0</ele><time>2026-05-03T08:04:13.161Z</time></trkpt><trkpt lat="43.3653459" lon="11.6342877"><ele>566.0</ele><time>2026-05-03T08:04:14.161Z</time></trkpt><trkpt lat="43.3654755" lon="11.6342899"><ele>566.0</ele><time>2026-05-03T08:04:15.161Z</time></trkpt><trkpt lat="43.3656132" lon="11.6342812"><ele>566.0</ele><time>2026-05-03T08:04:16.161Z</time></trkpt><trkpt lat="43.3657588" lon="11.6342703"><ele>565.25</ele><time>2026-05-03T08:04:17.16Z</time></trkpt><trkpt lat="43.3659064" lon="11.6342522"><ele>564.5</ele><time>2026-05-03T08:04:18.162Z</time></trkpt><trkpt lat="43.3660496" lon="11.6342296"><ele>563.75</ele><time>2026-05-03T08:04:19.162Z</time></trkpt><trkpt lat="43.3661903" lon="11.6342028"><ele>563.0</ele><time>2026-05-03T08:04:20.162Z</time></trkpt><trkpt lat="43.3663273" lon="11.6341717"><ele>560.75</ele><time>2026-05-03T08:04:21.161Z</time></trkpt><trkpt lat="43.366463" lon="11.634135"><ele>558.5</ele><time>2026-05-03T08:04:22.16Z</time></trkpt><trkpt lat="43.3665957" lon="11.6340971"><ele>556.25</ele><time>2026-05-03T08:04:23.161Z</time></trkpt><trkpt lat="43.3667251" lon="11.6340602"><ele>554.0</ele><time>2026-05-03T08:04:24.162Z</time></trkpt><trkpt lat="43.366859" lon="11.6340257"><ele>554.0</ele><time>2026-05-03T08:04:25.162Z</time></trkpt><trkpt lat="43.3669933" lon="11.6339919"><ele>554.0</ele><time>2026-05-03T08:04:26.162Z</time></trkpt><trkpt lat="43.3671237" lon="11.633963"><ele>554.0</ele><time>2026-05-03T08:04:27.161Z</time></trkpt><trkpt lat="43.3672447" lon="11.6339423"><ele>554.0</ele><time>2026-05-03T08:04:28.162Z</time></trkpt><trkpt lat="43.3673435" lon="11.6339288"><ele>552.6666666666666</ele><time>2026-05-03T08:04:29.162Z</time></trkpt><trkpt lat="43.3674222" lon="11.6339061"><ele>551.3333333333333</ele><time>2026-05-03T08:04:30.162Z</time></trkpt><trkpt lat="43.3674828" lon="11.633852"><ele>550.0</ele><time>2026-05-03T08:04:31.162Z</time></trkpt><trkpt lat="43.3675209" lon="11.6337605"><ele>548.6666666666666</ele><time>2026-05-03T08:04:32.16Z</time></trkpt><trkpt lat="43.3675368" lon="11.6336394"><ele>547.3333333333334</ele><time>2026-05-03T08:04:33.161Z</time></trkpt><trkpt lat="43.3675387" lon="11.6334909"><ele>546.0</ele><time>2026-05-03T08:04:34.161Z</time></trkpt><trkpt lat="43.3675468" lon="11.6333616"><ele>545.4</ele><time>2026-05-03T08:04:35.162Z</time></trkpt><trkpt lat="43.3675682" lon="11.6332468"><ele>544.8</ele><time>2026-05-03T08:04:36.162Z</time></trkpt><trkpt lat="43.3676217" lon="11.6331393"><ele>544.1999999999999</ele><time>2026-05-03T08:04:37.162Z</time></trkpt><trkpt lat="43.3677053" lon="11.6330573"><ele>543.6</ele><time>2026-05-03T08:04:38.16Z</time></trkpt><trkpt lat="43.3678058" lon="11.6329917"><ele>543.0</ele><time>2026-05-03T08:04:39.162Z</time></trkpt><trkpt lat="43.3679176" lon="11.6329353"><ele>540.25</ele><time>2026-05-03T08:04:40.162Z</time></trkpt><trkpt lat="43.3680394" lon="11.6328684"><ele>537.5</ele><time>2026-05-03T08:04:41.162Z</time></trkpt><trkpt lat="43.3681642" lon="11.6328001"><ele>534.75</ele><time>2026-05-03T08:04:42.162Z</time></trkpt><trkpt lat="43.3682951" lon="11.6327283"><ele>532.0</ele><time>2026-05-03T08:04:43.161Z</time></trkpt><trkpt lat="43.3684253" lon="11.6326502"><ele>532.0</ele><time>2026-05-03T08:04:44.161Z</time></trkpt><trkpt lat="43.3685602" lon="11.6325655"><ele>532.0</ele><time>2026-05-03T08:04:45.162Z</time></trkpt><trkpt lat="43.3686998" lon="11.6324777"><ele>532.0</ele><time>2026-05-03T08:04:46.162Z</time></trkpt><trkpt lat="43.368839" lon="11.6323945"><ele>531.3333333333334</ele><time>2026-05-03T08:04:47.162Z</time></trkpt><trkpt lat="43.368982" lon="11.632311"><ele>530.6666666666666</ele><time>2026-05-03T08:04:48.161Z</time></trkpt><trkpt lat="43.3691227" lon="11.6322289"><ele>530.0</ele><time>2026-05-03T08:04:49.16Z</time></trkpt><trkpt lat="43.3692652" lon="11.6321471"><ele>530.0</ele><time>2026-05-03T08:04:50.162Z</time></trkpt><trkpt lat="43.3694071" lon="11.6320723"><ele>530.0</ele><time>2026-05-03T08:04:51.161Z</time></trkpt><trkpt lat="43.3695482" lon="11.632004"><ele>530.0</ele><time>2026-05-03T08:04:52.161Z</time></trkpt><trkpt lat="43.3696786" lon="11.631946"><ele>530.0</ele><time>2026-05-03T08:04:53.162Z</time></trkpt><trkpt lat="43.3697995" lon="11.6318926"><ele>530.2</ele><time>2026-05-03T08:04:54.162Z</time></trkpt><trkpt lat="43.3699105" lon="11.6318503"><ele>530.4</ele><time>2026-05-03T08:04:55.161Z</time></trkpt><trkpt lat="43.3700086" lon="11.6318141"><ele>530.6</ele><time>2026-05-03T08:04:56.16Z</time></trkpt><trkpt lat="43.3700862" lon="11.6317891"><ele>530.8</ele><time>2026-05-03T08:04:57.161Z</time></trkpt><trkpt lat="43.3701756" lon="11.6317842"><ele>531.0</ele><time>2026-05-03T08:04:59.162Z</time></trkpt><trkpt lat="43.3702365" lon="11.6318495"><ele>531.0</ele><time>2026-05-03T08:05:02.161Z</time></trkpt><trkpt lat="43.3703059" lon="11.6319481"><ele>531.0</ele><time>2026-05-03T08:06:42.161Z</time></trkpt><trkpt lat="43.370378" lon="11.6320546"><ele>531.0</ele><time>2026-05-03T08:06:44.162Z</time></trkpt><trkpt lat="43.3704249" lon="11.6321232"><ele>531.0</ele><time>2026-05-03T08:06:45.162Z</time></trkpt><trkpt lat="43.3704734" lon="11.6321991"><ele>531.0</ele><time>2026-05-03T08:06:46.162Z</time></trkpt><trkpt lat="43.370518" lon="11.6322635"><ele>531.0</ele><time>2026-05-03T08:06:47.162Z</time></trkpt><trkpt lat="43.3705657" lon="11.6323303"><ele>529.0</ele><time>2026-05-03T08:06:48.161Z</time></trkpt><trkpt lat="43.3706092" lon="11.632397"><ele>527.0</ele><time>2026-05-03T08:06:49.162Z</time></trkpt><trkpt lat="43.370678" lon="11.6325108"><ele>525.0</ele><time>2026-05-03T08:06:51.161Z</time></trkpt><trkpt lat="43.3707413" lon="11.6325709"><ele>523.0</ele><time>2026-05-03T08:06:53.162Z</time></trkpt><trkpt lat="43.3708382" lon="11.6325992"><ele>521.0</ele><time>2026-05-03T08:06:55.162Z</time></trkpt><trkpt lat="43.370949" lon="11.6326465"><ele>521.0</ele><time>2026-05-03T08:06:57.162Z</time></trkpt><trkpt lat="43.3710003" lon="11.6327035"><ele>521.0</ele><time>2026-05-03T08:06:58.162Z</time></trkpt><trkpt lat="43.3710503" lon="11.6327839"><ele>521.0</ele><time>2026-05-03T08:06:59.16Z</time></trkpt><trkpt lat="43.3711591" lon="11.632916"><ele>521.0</ele><time>2026-05-03T08:07:01.162Z</time></trkpt><trkpt lat="43.3712101" lon="11.6329787"><ele>521.0</ele><time>2026-05-03T08:07:02.162Z</time></trkpt><trkpt lat="43.3712774" lon="11.6330234"><ele>521.0</ele><time>2026-05-03T08:07:03.161Z</time></trkpt><trkpt lat="43.3713336" lon="11.633067"><ele>519.0</ele><time>2026-05-03T08:07:04.162Z</time></trkpt><trkpt lat="43.371407" lon="11.633177"><ele>517.0</ele><time>2026-05-03T08:07:06.161Z</time></trkpt><trkpt lat="43.3714568" lon="11.6332466"><ele>515.0</ele><time>2026-05-03T08:07:07.161Z</time></trkpt><trkpt lat="43.3714902" lon="11.6333377"><ele>513.0</ele><time>2026-05-03T08:07:08.161Z</time></trkpt><trkpt lat="43.3715276" lon="11.6334145"><ele>510.99999999999994</ele><time>2026-05-03T08:07:09.162Z</time></trkpt><trkpt lat="43.3715623" lon="11.633491"><ele>509.0</ele><time>2026-05-03T08:07:10.161Z</time></trkpt><trkpt lat="43.3715992" lon="11.633579"><ele>509.99999999999994</ele><time>2026-05-03T08:07:11.161Z</time></trkpt><trkpt lat="43.3716305" lon="11.6336548"><ele>511.0</ele><time>2026-05-03T08:07:12.162Z</time></trkpt><trkpt lat="43.3716978" lon="11.6337148"><ele>512.0</ele><time>2026-05-03T08:07:13.16Z</time></trkpt><trkpt lat="43.3717416" lon="11.6338025"><ele>513.0</ele><time>2026-05-03T08:07:14.162Z</time></trkpt><trkpt lat="43.3718004" lon="11.6339362"><ele>514.0</ele><time>2026-05-03T08:07:15.162Z</time></trkpt><trkpt lat="43.3718338" lon="11.6340787"><ele>515.0</ele><time>2026-05-03T08:07:16.161Z</time></trkpt><trkpt lat="43.3718632" lon="11.6341973"><ele>515.0</ele><time>2026-05-03T08:07:17.162Z</time></trkpt><trkpt lat="43.3718937" lon="11.6343276"><ele>515.0</ele><time>2026-05-03T08:07:18.162Z</time></trkpt><trkpt lat="43.3719219" lon="11.6344563"><ele>515.0</ele><time>2026-05-03T08:07:19.162Z</time></trkpt><trkpt lat="43.3719533" lon="11.6345672"><ele>515.0</ele><time>2026-05-03T08:07:20.162Z</time></trkpt><trkpt lat="43.3719861" lon="11.6346712"><ele>515.0</ele><time>2026-05-03T08:07:21.161Z</time></trkpt><trkpt lat="43.3720324" lon="11.6347576"><ele>515.0</ele><time>2026-05-03T08:07:22.161Z</time></trkpt><trkpt lat="43.372042" lon="11.6348924"><ele>514.8</ele><time>2026-05-03T08:07:24.162Z</time></trkpt><trkpt lat="43.372056" lon="11.6349999"><ele>514.6</ele><time>2026-05-03T08:07:26.162Z</time></trkpt><trkpt lat="43.3721146" lon="11.6351338"><ele>514.4</ele><time>2026-05-03T08:07:28.162Z</time></trkpt><trkpt lat="43.3721736" lon="11.6352465"><ele>514.2</ele><time>2026-05-03T08:07:29.161Z</time></trkpt><trkpt lat="43.3722255" lon="11.635362"><ele>514.0</ele><time>2026-05-03T08:07:30.16Z</time></trkpt><trkpt lat="43.3722773" lon="11.6354807"><ele>512.6</ele><time>2026-05-03T08:07:31.162Z</time></trkpt><trkpt lat="43.3723275" lon="11.6355924"><ele>511.2</ele><time>2026-05-03T08:07:32.16Z</time></trkpt><trkpt lat="43.3723865" lon="11.6357049"><ele>509.80000000000007</ele><time>2026-05-03T08:07:33.162Z</time></trkpt><trkpt lat="43.3724313" lon="11.6358237"><ele>508.40000000000003</ele><time>2026-05-03T08:07:34.16Z</time></trkpt><trkpt lat="43.3724908" lon="11.6359422"><ele>507.0</ele><time>2026-05-03T08:07:35.162Z</time></trkpt><trkpt lat="43.3725413" lon="11.6360652"><ele>506.40000000000003</ele><time>2026-05-03T08:07:36.16Z</time></trkpt><trkpt lat="43.3726068" lon="11.6361701"><ele>505.80000000000007</ele><time>2026-05-03T08:07:37.161Z</time></trkpt><trkpt lat="43.3726549" lon="11.6362946"><ele>505.2</ele><time>2026-05-03T08:07:38.161Z</time></trkpt><trkpt lat="43.3726966" lon="11.6363925"><ele>504.6</ele><time>2026-05-03T08:07:39.162Z</time></trkpt><trkpt lat="43.372749" lon="11.6365026"><ele>504.0</ele><time>2026-05-03T08:07:40.161Z</time></trkpt><trkpt lat="43.3727905" lon="11.6366187"><ele>504.0</ele><time>2026-05-03T08:07:41.161Z</time></trkpt><trkpt lat="43.3728245" lon="11.6367515"><ele>504.0</ele><time>2026-05-03T08:07:42.162Z</time></trkpt><trkpt lat="43.3728316" lon="11.6368802"><ele>504.0</ele><time>2026-05-03T08:07:43.162Z</time></trkpt><trkpt lat="43.3728515" lon="11.6370284"><ele>504.0</ele><time>2026-05-03T08:07:44.162Z</time></trkpt><trkpt lat="43.3728664" lon="11.6371722"><ele>504.0</ele><time>2026-05-03T08:07:45.16Z</time></trkpt><trkpt lat="43.3728818" lon="11.6373104"><ele>502.8333333333333</ele><time>2026-05-03T08:07:46.161Z</time></trkpt><trkpt lat="43.372896" lon="11.637428"><ele>501.66666666666663</ele><time>2026-05-03T08:07:47.161Z</time></trkpt><trkpt lat="43.3728902" lon="11.6375383"><ele>500.5</ele><time>2026-05-03T08:07:48.162Z</time></trkpt><trkpt lat="43.3728737" lon="11.6376591"><ele>499.3333333333333</ele><time>2026-05-03T08:07:49.16Z</time></trkpt><trkpt lat="43.3728426" lon="11.6377725"><ele>498.16666666666663</ele><time>2026-05-03T08:07:50.162Z</time></trkpt><trkpt lat="43.372792" lon="11.6378821"><ele>497.0</ele><time>2026-05-03T08:07:51.162Z</time></trkpt><trkpt lat="43.3727376" lon="11.6379902"><ele>496.0</ele><time>2026-05-03T08:07:52.162Z</time></trkpt><trkpt lat="43.3727031" lon="11.6380871"><ele>495.00000000000006</ele><time>2026-05-03T08:07:53.162Z</time></trkpt><trkpt lat="43.3726798" lon="11.6381846"><ele>494.00000000000006</ele><time>2026-05-03T08:07:54.162Z</time></trkpt><trkpt lat="43.3726797" lon="11.6383583"><ele>493.0</ele><time>2026-05-03T08:07:56.162Z</time></trkpt><trkpt lat="43.3727059" lon="11.6384765"><ele>492.0</ele><time>2026-05-03T08:07:57.162Z</time></trkpt><trkpt lat="43.3727312" lon="11.6385829"><ele>491.6</ele><time>2026-05-03T08:07:58.162Z</time></trkpt><trkpt lat="43.3727587" lon="11.6386816"><ele>491.20000000000005</ele><time>2026-05-03T08:07:59.161Z</time></trkpt><trkpt lat="43.3727944" lon="11.6387635"><ele>490.8</ele><time>2026-05-03T08:08:01.162Z</time></trkpt><trkpt lat="43.3728679" lon="11.6387817"><ele>490.4</ele><time>2026-05-03T08:08:04.162Z</time></trkpt><trkpt lat="43.3729389" lon="11.6388518"><ele>490.0</ele><time>2026-05-03T08:08:06.162Z</time></trkpt><trkpt lat="43.3730574" lon="11.6389712"><ele>490.6666666666667</ele><time>2026-05-03T08:08:08.162Z</time></trkpt><trkpt lat="43.3731259" lon="11.6390195"><ele>491.33333333333337</ele><time>2026-05-03T08:08:09.162Z</time></trkpt><trkpt lat="43.3731926" lon="11.6390376"><ele>492.0</ele><time>2026-05-03T08:08:10.162Z</time></trkpt><trkpt lat="43.3732546" lon="11.6390167"><ele>492.66666666666663</ele><time>2026-05-03T08:08:11.161Z</time></trkpt><trkpt lat="43.3733243" lon="11.6389617"><ele>493.3333333333333</ele><time>2026-05-03T08:08:12.162Z</time></trkpt><trkpt lat="43.3733785" lon="11.6388994"><ele>494.0</ele><time>2026-05-03T08:08:13.162Z</time></trkpt><trkpt lat="43.3734523" lon="11.6388124"><ele>493.99999999999994</ele><time>2026-05-03T08:08:15.161Z</time></trkpt><trkpt lat="43.3735005" lon="11.6388844"><ele>494.0</ele><time>2026-05-03T08:08:18.162Z</time></trkpt><trkpt lat="43.3735022" lon="11.6389754"><ele>494.0</ele><time>2026-05-03T08:08:20.161Z</time></trkpt><trkpt lat="43.3734869" lon="11.6391606"><ele>494.0</ele><time>2026-05-03T08:08:22.161Z</time></trkpt><trkpt lat="43.3734542" lon="11.6392603"><ele>493.99999999999994</ele><time>2026-05-03T08:08:23.162Z</time></trkpt><trkpt lat="43.3734026" lon="11.6393495"><ele>494.0</ele><time>2026-05-03T08:08:24.161Z</time></trkpt><trkpt lat="43.3733546" lon="11.6394369"><ele>492.99999999999994</ele><time>2026-05-03T08:08:25.162Z</time></trkpt><trkpt lat="43.3733133" lon="11.6395227"><ele>492.0</ele><time>2026-05-03T08:08:26.161Z</time></trkpt><trkpt lat="43.3732786" lon="11.6396914"><ele>491.0</ele><time>2026-05-03T08:08:28.161Z</time></trkpt><trkpt lat="43.3732722" lon="11.639779"><ele>490.0</ele><time>2026-05-03T08:08:29.161Z</time></trkpt><trkpt lat="43.3732606" lon="11.6398771"><ele>488.99999999999994</ele><time>2026-05-03T08:08:30.162Z</time></trkpt><trkpt lat="43.3732589" lon="11.6399734"><ele>488.0</ele><time>2026-05-03T08:08:31.162Z</time></trkpt><trkpt lat="43.3732572" lon="11.6400604"><ele>488.0</ele><time>2026-05-03T08:08:32.161Z</time></trkpt><trkpt lat="43.3733479" lon="11.6402208"><ele>487.99999999999994</ele><time>2026-05-03T08:08:34.162Z</time></trkpt><trkpt lat="43.3734009" lon="11.6402912"><ele>487.99999999999994</ele><time>2026-05-03T08:08:35.161Z</time></trkpt><trkpt lat="43.3734455" lon="11.640369"><ele>488.0</ele><time>2026-05-03T08:08:36.161Z</time></trkpt><trkpt lat="43.3734895" lon="11.6404369"><ele>488.0</ele><time>2026-05-03T08:08:37.162Z</time></trkpt><trkpt lat="43.3735849" lon="11.6405259"><ele>488.4</ele><time>2026-05-03T08:08:38.162Z</time></trkpt><trkpt lat="43.3736933" lon="11.6406123"><ele>488.79999999999995</ele><time>2026-05-03T08:08:40.162Z</time></trkpt><trkpt lat="43.3737505" lon="11.6406531"><ele>489.2</ele><time>2026-05-03T08:08:41.162Z</time></trkpt><trkpt lat="43.3738124" lon="11.640692"><ele>489.6</ele><time>2026-05-03T08:08:42.161Z</time></trkpt><trkpt lat="43.3739252" lon="11.6406902"><ele>490.0</ele><time>2026-05-03T08:08:44.162Z</time></trkpt><trkpt lat="43.3740236" lon="11.6406468"><ele>487.83333333333337</ele><time>2026-05-03T08:08:46.162Z</time></trkpt><trkpt lat="43.3741479" lon="11.6406101"><ele>485.6666666666667</ele><time>2026-05-03T08:08:48.161Z</time></trkpt><trkpt lat="43.3742118" lon="11.6406104"><ele>483.5</ele><time>2026-05-03T08:08:49.161Z</time></trkpt><trkpt lat="43.3742767" lon="11.6405927"><ele>481.33333333333337</ele><time>2026-05-03T08:08:50.162Z</time></trkpt><trkpt lat="43.3743363" lon="11.6406258"><ele>479.1666666666667</ele><time>2026-05-03T08:08:51.162Z</time></trkpt><trkpt lat="43.3744419" lon="11.640714"><ele>477.0</ele><time>2026-05-03T08:08:53.162Z</time></trkpt><trkpt lat="43.3745439" lon="11.6408298"><ele>477.0</ele><time>2026-05-03T08:08:55.16Z</time></trkpt><trkpt lat="43.3745939" lon="11.640903"><ele>477.0</ele><time>2026-05-03T08:08:56.162Z</time></trkpt><trkpt lat="43.3746604" lon="11.6409566"><ele>477.0</ele><time>2026-05-03T08:08:57.162Z</time></trkpt><trkpt lat="43.3747396" lon="11.6409948"><ele>477.0</ele><time>2026-05-03T08:08:58.162Z</time></trkpt><trkpt lat="43.3748163" lon="11.6410203"><ele>477.0</ele><time>2026-05-03T08:08:59.161Z</time></trkpt><trkpt lat="43.3748869" lon="11.641047"><ele>477.0</ele><time>2026-05-03T08:09:00.162Z</time></trkpt><trkpt lat="43.3749875" lon="11.6410748"><ele>474.6</ele><time>2026-05-03T08:09:01.162Z</time></trkpt><trkpt lat="43.3750875" lon="11.6411176"><ele>472.20000000000005</ele><time>2026-05-03T08:09:02.162Z</time></trkpt><trkpt lat="43.3751788" lon="11.6411854"><ele>469.8</ele><time>2026-05-03T08:09:03.162Z</time></trkpt><trkpt lat="43.3752789" lon="11.6412471"><ele>467.4</ele><time>2026-05-03T08:09:04.162Z</time></trkpt><trkpt lat="43.3753669" lon="11.6413174"><ele>465.0</ele><time>2026-05-03T08:09:05.161Z</time></trkpt><trkpt lat="43.3754366" lon="11.6413927"><ele>465.0</ele><time>2026-05-03T08:09:06.162Z</time></trkpt><trkpt lat="43.3755169" lon="11.6414457"><ele>465.0</ele><time>2026-05-03T08:09:07.161Z</time></trkpt><trkpt lat="43.3756015" lon="11.6414936"><ele>465.0</ele><time>2026-05-03T08:09:08.161Z</time></trkpt><trkpt lat="43.3756892" lon="11.6415394"><ele>465.0</ele><time>2026-05-03T08:09:09.162Z</time></trkpt><trkpt lat="43.375785" lon="11.6415685"><ele>465.0</ele><time>2026-05-03T08:09:10.16Z</time></trkpt><trkpt lat="43.3758646" lon="11.6416092"><ele>464.0</ele><time>2026-05-03T08:09:11.16Z</time></trkpt><trkpt lat="43.375946" lon="11.6416542"><ele>463.0</ele><time>2026-05-03T08:09:12.162Z</time></trkpt><trkpt lat="43.3760233" lon="11.6417219"><ele>462.0</ele><time>2026-05-03T08:09:13.161Z</time></trkpt><trkpt lat="43.3760919" lon="11.6418066"><ele>461.0</ele><time>2026-05-03T08:09:14.162Z</time></trkpt><trkpt lat="43.3761579" lon="11.6418829"><ele>460.0</ele><time>2026-05-03T08:09:15.162Z</time></trkpt><trkpt lat="43.3762173" lon="11.6419347"><ele>459.0</ele><time>2026-05-03T08:09:16.162Z</time></trkpt><trkpt lat="43.37628" lon="11.6419854"><ele>457.8333333333333</ele><time>2026-05-03T08:09:17.161Z</time></trkpt><trkpt lat="43.3763666" lon="11.6419991"><ele>456.66666666666663</ele><time>2026-05-03T08:09:18.161Z</time></trkpt><trkpt lat="43.3764548" lon="11.6420242"><ele>455.5</ele><time>2026-05-03T08:09:19.162Z</time></trkpt><trkpt lat="43.3765361" lon="11.6420214"><ele>454.3333333333333</ele><time>2026-05-03T08:09:20.161Z</time></trkpt><trkpt lat="43.3766068" lon="11.6420196"><ele>453.16666666666663</ele><time>2026-05-03T08:09:21.16Z</time></trkpt><trkpt lat="43.3767138" lon="11.6420411"><ele>452.0</ele><time>2026-05-03T08:09:23.161Z</time></trkpt><trkpt lat="43.3767764" lon="11.6420738"><ele>451.99999999999994</ele><time>2026-05-03T08:09:25.16Z</time></trkpt><trkpt lat="43.3768663" lon="11.6421331"><ele>452.0</ele><time>2026-05-03T08:09:51.162Z</time></trkpt><trkpt lat="43.3769293" lon="11.6421613"><ele>452.0</ele><time>2026-05-03T08:09:52.162Z</time></trkpt><trkpt lat="43.3770055" lon="11.6421921"><ele>452.0</ele><time>2026-05-03T08:09:53.162Z</time></trkpt><trkpt lat="43.3770831" lon="11.6422306"><ele>451.99999999999994</ele><time>2026-05-03T08:09:54.162Z</time></trkpt><trkpt lat="43.3771488" lon="11.6422691"><ele>452.0</ele><time>2026-05-03T08:09:55.162Z</time></trkpt><trkpt lat="43.3772154" lon="11.6422912"><ele>452.66666666666663</ele><time>2026-05-03T08:09:56.162Z</time></trkpt><trkpt lat="43.3772907" lon="11.6422727"><ele>453.3333333333333</ele><time>2026-05-03T08:09:57.161Z</time></trkpt><trkpt lat="43.3773643" lon="11.6422301"><ele>454.0</ele><time>2026-05-03T08:09:58.162Z</time></trkpt><trkpt lat="43.3774402" lon="11.6421816"><ele>454.66666666666663</ele><time>2026-05-03T08:09:59.162Z</time></trkpt><trkpt lat="43.3775181" lon="11.6421244"><ele>455.3333333333333</ele><time>2026-05-03T08:10:00.161Z</time></trkpt><trkpt lat="43.3775911" lon="11.6420701"><ele>456.0</ele><time>2026-05-03T08:10:01.162Z</time></trkpt><trkpt lat="43.3776574" lon="11.6420112"><ele>455.0</ele><time>2026-05-03T08:10:02.161Z</time></trkpt><trkpt lat="43.3777322" lon="11.6419572"><ele>454.0</ele><time>2026-05-03T08:10:03.16Z</time></trkpt><trkpt lat="43.3778267" lon="11.6419207"><ele>453.0</ele><time>2026-05-03T08:10:04.162Z</time></trkpt><trkpt lat="43.3779155" lon="11.6419005"><ele>452.0</ele><time>2026-05-03T08:10:05.161Z</time></trkpt><trkpt lat="43.3780462" lon="11.6418591"><ele>451.0</ele><time>2026-05-03T08:10:06.162Z</time></trkpt><trkpt lat="43.3781466" lon="11.6418132"><ele>450.8</ele><time>2026-05-03T08:10:07.162Z</time></trkpt><trkpt lat="43.3782399" lon="11.6417845"><ele>450.6</ele><time>2026-05-03T08:10:08.162Z</time></trkpt><trkpt lat="43.378332" lon="11.641744"><ele>450.4</ele><time>2026-05-03T08:10:09.162Z</time></trkpt><trkpt lat="43.3783948" lon="11.6416615"><ele>450.2</ele><time>2026-05-03T08:10:10.162Z</time></trkpt><trkpt lat="43.3784768" lon="11.6416103"><ele>450.0</ele><time>2026-05-03T08:10:11.162Z</time></trkpt><trkpt lat="43.3785683" lon="11.6415956"><ele>450.0</ele><time>2026-05-03T08:10:12.161Z</time></trkpt><trkpt lat="43.3786696" lon="11.6415975"><ele>450.0</ele><time>2026-05-03T08:10:13.162Z</time></trkpt><trkpt lat="43.3787693" lon="11.6416145"><ele>450.0</ele><time>2026-05-03T08:10:14.162Z</time></trkpt><trkpt lat="43.3788605" lon="11.6416215"><ele>450.0</ele><time>2026-05-03T08:10:15.161Z</time></trkpt><trkpt lat="43.3789447" lon="11.6416268"><ele>450.0</ele><time>2026-05-03T08:10:16.162Z</time></trkpt><trkpt lat="43.3790242" lon="11.6416264"><ele>449.4</ele><time>2026-05-03T08:10:17.161Z</time></trkpt><trkpt lat="43.379114" lon="11.6416318"><ele>448.8</ele><time>2026-05-03T08:10:18.161Z</time></trkpt><trkpt lat="43.3792091" lon="11.6416538"><ele>448.20000000000005</ele><time>2026-05-03T08:10:19.162Z</time></trkpt><trkpt lat="43.3792986" lon="11.6416523"><ele>447.6</ele><time>2026-05-03T08:10:20.162Z</time></trkpt><trkpt lat="43.3793948" lon="11.6416241"><ele>447.0</ele><time>2026-05-03T08:10:21.161Z</time></trkpt><trkpt lat="43.3794919" lon="11.6415751"><ele>447.0</ele><time>2026-05-03T08:10:22.162Z</time></trkpt><trkpt lat="43.3795862" lon="11.6415247"><ele>447.00000000000006</ele><time>2026-05-03T08:10:23.161Z</time></trkpt><trkpt lat="43.3796905" lon="11.6414608"><ele>447.00000000000006</ele><time>2026-05-03T08:10:24.162Z</time></trkpt><trkpt lat="43.379788" lon="11.6414008"><ele>447.0</ele><time>2026-05-03T08:10:25.161Z</time></trkpt><trkpt lat="43.3798918" lon="11.6413594"><ele>447.0</ele><time>2026-05-03T08:10:26.162Z</time></trkpt><trkpt lat="43.3799923" lon="11.6413354"><ele>446.0</ele><time>2026-05-03T08:10:27.162Z</time></trkpt><trkpt lat="43.3800818" lon="11.6413147"><ele>445.00000000000006</ele><time>2026-05-03T08:10:28.162Z</time></trkpt><trkpt lat="43.3801743" lon="11.6413176"><ele>444.00000000000006</ele><time>2026-05-03T08:10:29.161Z</time></trkpt><trkpt lat="43.3802713" lon="11.6413297"><ele>443.0</ele><time>2026-05-03T08:10:30.161Z</time></trkpt><trkpt lat="43.3803715" lon="11.6413318"><ele>442.0</ele><time>2026-05-03T08:10:31.162Z</time></trkpt><trkpt lat="43.3804772" lon="11.6413336"><ele>441.8</ele><time>2026-05-03T08:10:32.161Z</time></trkpt><trkpt lat="43.380582" lon="11.641338"><ele>441.6</ele><time>2026-05-03T08:10:33.161Z</time></trkpt><trkpt lat="43.3806906" lon="11.6413417"><ele>441.40000000000003</ele><time>2026-05-03T08:10:34.162Z</time></trkpt><trkpt lat="43.3808001" lon="11.6413457"><ele>441.20000000000005</ele><time>2026-05-03T08:10:35.162Z</time></trkpt><trkpt lat="43.380908" lon="11.6413464"><ele>441.0</ele><time>2026-05-03T08:10:36.162Z</time></trkpt><trkpt lat="43.3810159" lon="11.6413611"><ele>441.0</ele><time>2026-05-03T08:10:37.162Z</time></trkpt><trkpt lat="43.3811243" lon="11.6413781"><ele>441.0</ele><time>2026-05-03T08:10:38.161Z</time></trkpt><trkpt lat="43.3812382" lon="11.6413896"><ele>441.0</ele><time>2026-05-03T08:10:39.16Z</time></trkpt><trkpt lat="43.3813522" lon="11.6413972"><ele>441.0</ele><time>2026-05-03T08:10:40.161Z</time></trkpt><trkpt lat="43.3814651" lon="11.6413936"><ele>442.0</ele><time>2026-05-03T08:10:41.16Z</time></trkpt><trkpt lat="43.3815805" lon="11.6413873"><ele>443.0</ele><time>2026-05-03T08:10:42.162Z</time></trkpt><trkpt lat="43.3816985" lon="11.6413792"><ele>444.0</ele><time>2026-05-03T08:10:43.16Z</time></trkpt><trkpt lat="43.3818175" lon="11.6413676"><ele>445.0</ele><time>2026-05-03T08:10:44.162Z</time></trkpt><trkpt lat="43.3819372" lon="11.6413555"><ele>445.0</ele><time>2026-05-03T08:10:45.16Z</time></trkpt><trkpt lat="43.3820587" lon="11.6413359"><ele>445.0</ele><time>2026-05-03T08:10:46.161Z</time></trkpt><trkpt lat="43.3821813" lon="11.6413245"><ele>445.0</ele><time>2026-05-03T08:10:47.161Z</time></trkpt><trkpt lat="43.3823028" lon="11.64132"><ele>445.0</ele><time>2026-05-03T08:10:48.161Z</time></trkpt><trkpt lat="43.3824146" lon="11.6413214"><ele>446.0</ele><time>2026-05-03T08:10:49.162Z</time></trkpt><trkpt lat="43.3825267" lon="11.6413174"><ele>447.0</ele><time>2026-05-03T08:10:50.162Z</time></trkpt><trkpt lat="43.38264" lon="11.6412963"><ele>448.0</ele><time>2026-05-03T08:10:51.162Z</time></trkpt><trkpt lat="43.3827581" lon="11.6412935"><ele>449.0</ele><time>2026-05-03T08:10:52.161Z</time></trkpt><trkpt lat="43.3828699" lon="11.6412992"><ele>449.0</ele><time>2026-05-03T08:10:53.162Z</time></trkpt><trkpt lat="43.3829828" lon="11.6413164"><ele>449.0</ele><time>2026-05-03T08:10:54.162Z</time></trkpt><trkpt lat="43.3830951" lon="11.6413416"><ele>449.0</ele><time>2026-05-03T08:10:55.162Z</time></trkpt><trkpt lat="43.3832065" lon="11.6413769"><ele>449.0</ele><time>2026-05-03T08:10:56.161Z</time></trkpt><trkpt lat="43.3833173" lon="11.6414189"><ele>449.6</ele><time>2026-05-03T08:10:57.162Z</time></trkpt><trkpt lat="43.3834283" lon="11.6414538"><ele>450.2</ele><time>2026-05-03T08:10:58.161Z</time></trkpt><trkpt lat="43.3835364" lon="11.6414885"><ele>450.80000000000007</ele><time>2026-05-03T08:10:59.16Z</time></trkpt><trkpt lat="43.3836315" lon="11.6415204"><ele>451.40000000000003</ele><time>2026-05-03T08:11:00.161Z</time></trkpt><trkpt lat="43.3837136" lon="11.641548"><ele>452.0</ele><time>2026-05-03T08:11:01.161Z</time></trkpt><trkpt lat="43.383801" lon="11.6415728"><ele>451.6</ele><time>2026-05-03T08:11:02.161Z</time></trkpt><trkpt lat="43.3838941" lon="11.6416015"><ele>451.20000000000005</ele><time>2026-05-03T08:11:03.161Z</time></trkpt><trkpt lat="43.383981" lon="11.64164"><ele>450.8</ele><time>2026-05-03T08:11:04.162Z</time></trkpt><trkpt lat="43.3840731" lon="11.6416885"><ele>450.4</ele><time>2026-05-03T08:11:05.162Z</time></trkpt><trkpt lat="43.3841629" lon="11.6417623"><ele>450.0</ele><time>2026-05-03T08:11:06.161Z</time></trkpt><trkpt lat="43.3842572" lon="11.6418243"><ele>450.0</ele><time>2026-05-03T08:11:07.162Z</time></trkpt><trkpt lat="43.3843531" lon="11.6418578"><ele>450.0</ele><time>2026-05-03T08:11:08.162Z</time></trkpt><trkpt lat="43.3844387" lon="11.6418739"><ele>450.0</ele><time>2026-05-03T08:11:09.162Z</time></trkpt><trkpt lat="43.384538" lon="11.6418886"><ele>450.0</ele><time>2026-05-03T08:11:10.162Z</time></trkpt><trkpt lat="43.3846387" lon="11.6418617"><ele>450.0</ele><time>2026-05-03T08:11:11.161Z</time></trkpt><trkpt lat="43.3847357" lon="11.6418297"><ele>449.0</ele><time>2026-05-03T08:11:12.162Z</time></trkpt><trkpt lat="43.384808" lon="11.6418075"><ele>448.0</ele><time>2026-05-03T08:11:13.162Z</time></trkpt><trkpt lat="43.384889" lon="11.6417738"><ele>447.0</ele><time>2026-05-03T08:11:14.162Z</time></trkpt><trkpt lat="43.384966" lon="11.6417388"><ele>446.0</ele><time>2026-05-03T08:11:15.161Z</time></trkpt><trkpt lat="43.3850378" lon="11.6417064"><ele>445.0</ele><time>2026-05-03T08:11:16.162Z</time></trkpt><trkpt lat="43.3851092" lon="11.6417129"><ele>444.0</ele><time>2026-05-03T08:11:17.162Z</time></trkpt><trkpt lat="43.3851851" lon="11.6417008"><ele>444.0</ele><time>2026-05-03T08:11:18.162Z</time></trkpt><trkpt lat="43.3852525" lon="11.6417067"><ele>444.0</ele><time>2026-05-03T08:11:19.161Z</time></trkpt><trkpt lat="43.3853383" lon="11.641728"><ele>444.0</ele><time>2026-05-03T08:11:20.162Z</time></trkpt><trkpt lat="43.3854215" lon="11.6417802"><ele>444.0</ele><time>2026-05-03T08:11:21.162Z</time></trkpt><trkpt lat="43.3855007" lon="11.6418304"><ele>444.0</ele><time>2026-05-03T08:11:22.162Z</time></trkpt><trkpt lat="43.3855736" lon="11.6418847"><ele>444.0</ele><time>2026-05-03T08:11:23.161Z</time></trkpt><trkpt lat="43.3856498" lon="11.6419205"><ele>443.2</ele><time>2026-05-03T08:11:24.162Z</time></trkpt><trkpt lat="43.3857315" lon="11.6419543"><ele>442.4</ele><time>2026-05-03T08:11:25.161Z</time></trkpt><trkpt lat="43.3858248" lon="11.6419711"><ele>441.6</ele><time>2026-05-03T08:11:26.162Z</time></trkpt><trkpt lat="43.3859051" lon="11.6419653"><ele>440.8</ele><time>2026-05-03T08:11:27.162Z</time></trkpt><trkpt lat="43.3859832" lon="11.6419568"><ele>440.0</ele><time>2026-05-03T08:11:28.161Z</time></trkpt><trkpt lat="43.3860958" lon="11.641872"><ele>440.0</ele><time>2026-05-03T08:11:29.162Z</time></trkpt><trkpt lat="43.3861998" lon="11.6418128"><ele>440.0</ele><time>2026-05-03T08:11:30.162Z</time></trkpt><trkpt lat="43.3862977" lon="11.6417562"><ele>440.0</ele><time>2026-05-03T08:11:31.16Z</time></trkpt><trkpt lat="43.3864002" lon="11.6416949"><ele>440.0</ele><time>2026-05-03T08:11:32.161Z</time></trkpt><trkpt lat="43.3865024" lon="11.6416317"><ele>440.0</ele><time>2026-05-03T08:11:33.162Z</time></trkpt><trkpt lat="43.3865962" lon="11.641564"><ele>440.0</ele><time>2026-05-03T08:11:34.161Z</time></trkpt><trkpt lat="43.3866917" lon="11.6414733"><ele>440.0</ele><time>2026-05-03T08:11:35.161Z</time></trkpt><trkpt lat="43.3867838" lon="11.6414137"><ele>440.0</ele><time>2026-05-03T08:11:36.162Z</time></trkpt><trkpt lat="43.3868799" lon="11.6413611"><ele>440.0</ele><time>2026-05-03T08:11:37.16Z</time></trkpt><trkpt lat="43.3869662" lon="11.641348"><ele>440.0</ele><time>2026-05-03T08:11:38.162Z</time></trkpt><trkpt lat="43.387046" lon="11.6413567"><ele>440.0</ele><time>2026-05-03T08:11:39.161Z</time></trkpt><trkpt lat="43.3871321" lon="11.6413481"><ele>440.0</ele><time>2026-05-03T08:11:40.162Z</time></trkpt><trkpt lat="43.3872313" lon="11.6413647"><ele>440.0</ele><time>2026-05-03T08:11:41.162Z</time></trkpt><trkpt lat="43.3873227" lon="11.6413634"><ele>440.0</ele><time>2026-05-03T08:11:42.161Z</time></trkpt><trkpt lat="43.3874191" lon="11.6413614"><ele>440.0</ele><time>2026-05-03T08:11:43.16Z</time></trkpt><trkpt lat="43.3875284" lon="11.641352"><ele>440.4</ele><time>2026-05-03T08:11:44.161Z</time></trkpt><trkpt lat="43.3876392" lon="11.6413336"><ele>440.8</ele><time>2026-05-03T08:11:45.162Z</time></trkpt><trkpt lat="43.3877516" lon="11.641334"><ele>441.20000000000005</ele><time>2026-05-03T08:11:46.161Z</time></trkpt><trkpt lat="43.3878635" lon="11.6413501"><ele>441.6</ele><time>2026-05-03T08:11:47.161Z</time></trkpt><trkpt lat="43.387973" lon="11.6413872"><ele>442.0</ele><time>2026-05-03T08:11:48.161Z</time></trkpt><trkpt lat="43.3880783" lon="11.6414125"><ele>442.20000000000005</ele><time>2026-05-03T08:11:49.161Z</time></trkpt><trkpt lat="43.3881782" lon="11.6414301"><ele>442.40000000000003</ele><time>2026-05-03T08:11:50.162Z</time></trkpt><trkpt lat="43.3882535" lon="11.6413719"><ele>442.59999999999997</ele><time>2026-05-03T08:11:51.161Z</time></trkpt><trkpt lat="43.3883464" lon="11.6413154"><ele>442.79999999999995</ele><time>2026-05-03T08:11:52.161Z</time></trkpt><trkpt lat="43.3884392" lon="11.6412463"><ele>443.0</ele><time>2026-05-03T08:11:53.162Z</time></trkpt><trkpt lat="43.3885194" lon="11.641195"><ele>443.0</ele><time>2026-05-03T08:11:54.161Z</time></trkpt><trkpt lat="43.3886156" lon="11.6411551"><ele>442.99999999999994</ele><time>2026-05-03T08:11:55.162Z</time></trkpt><trkpt lat="43.3887108" lon="11.6411219"><ele>442.99999999999994</ele><time>2026-05-03T08:11:56.161Z</time></trkpt><trkpt lat="43.3888101" lon="11.6411013"><ele>443.0</ele><time>2026-05-03T08:11:57.161Z</time></trkpt><trkpt lat="43.3889055" lon="11.6410638"><ele>443.0</ele><time>2026-05-03T08:11:58.161Z</time></trkpt><trkpt lat="43.3890075" lon="11.6410246"><ele>444.59999999999997</ele><time>2026-05-03T08:11:59.162Z</time></trkpt><trkpt lat="43.3891174" lon="11.6410195"><ele>446.19999999999993</ele><time>2026-05-03T08:12:00.161Z</time></trkpt><trkpt lat="43.3892249" lon="11.6410144"><ele>447.8</ele><time>2026-05-03T08:12:01.162Z</time></trkpt><trkpt lat="43.3893305" lon="11.6410083"><ele>449.4</ele><time>2026-05-03T08:12:02.162Z</time></trkpt><trkpt lat="43.3894375" lon="11.641019"><ele>451.0</ele><time>2026-05-03T08:12:03.162Z</time></trkpt><trkpt lat="43.3895466" lon="11.6410471"><ele>451.0</ele><time>2026-05-03T08:12:04.162Z</time></trkpt><trkpt lat="43.38965" lon="11.6410832"><ele>451.0</ele><time>2026-05-03T08:12:05.16Z</time></trkpt><trkpt lat="43.3897437" lon="11.6411317"><ele>451.0</ele><time>2026-05-03T08:12:06.162Z</time></trkpt><trkpt lat="43.3898214" lon="11.6411717"><ele>451.0</ele><time>2026-05-03T08:12:07.162Z</time></trkpt><trkpt lat="43.3898947" lon="11.6412183"><ele>451.0</ele><time>2026-05-03T08:12:08.162Z</time></trkpt><trkpt lat="43.3899749" lon="11.641244"><ele>451.8</ele><time>2026-05-03T08:12:09.162Z</time></trkpt><trkpt lat="43.3900696" lon="11.6412611"><ele>452.6</ele><time>2026-05-03T08:12:10.161Z</time></trkpt><trkpt lat="43.390167" lon="11.641279"><ele>453.4</ele><time>2026-05-03T08:12:11.161Z</time></trkpt><trkpt lat="43.3902729" lon="11.6412964"><ele>454.2</ele><time>2026-05-03T08:12:12.162Z</time></trkpt><trkpt lat="43.3903753" lon="11.6413065"><ele>455.0</ele><time>2026-05-03T08:12:13.161Z</time></trkpt><trkpt lat="43.3904904" lon="11.6412807"><ele>456.6</ele><time>2026-05-03T08:12:14.161Z</time></trkpt><trkpt lat="43.3905991" lon="11.6412647"><ele>458.2</ele><time>2026-05-03T08:12:15.161Z</time></trkpt><trkpt lat="43.3907117" lon="11.6412664"><ele>459.79999999999995</ele><time>2026-05-03T08:12:16.162Z</time></trkpt><trkpt lat="43.3908237" lon="11.6412821"><ele>461.4</ele><time>2026-05-03T08:12:17.161Z</time></trkpt><trkpt lat="43.3909287" lon="11.6412985"><ele>463.0</ele><time>2026-05-03T08:12:18.161Z</time></trkpt><trkpt lat="43.391034" lon="11.6413268"><ele>463.0</ele><time>2026-05-03T08:12:19.16Z</time></trkpt><trkpt lat="43.3911352" lon="11.6413825"><ele>462.99999999999994</ele><time>2026-05-03T08:12:20.162Z</time></trkpt><trkpt lat="43.3912281" lon="11.6414614"><ele>462.99999999999994</ele><time>2026-05-03T08:12:21.162Z</time></trkpt><trkpt lat="43.3913127" lon="11.6415616"><ele>463.0</ele><time>2026-05-03T08:12:22.162Z</time></trkpt><trkpt lat="43.391392" lon="11.6416805"><ele>463.0</ele><time>2026-05-03T08:12:23.161Z</time></trkpt><trkpt lat="43.3914686" lon="11.641805"><ele>464.75</ele><time>2026-05-03T08:12:24.161Z</time></trkpt><trkpt lat="43.3915423" lon="11.6419364"><ele>466.5</ele><time>2026-05-03T08:12:25.161Z</time></trkpt><trkpt lat="43.3916121" lon="11.6420719"><ele>468.25</ele><time>2026-05-03T08:12:26.162Z</time></trkpt><trkpt lat="43.3916829" lon="11.6422103"><ele>470.0</ele><time>2026-05-03T08:12:27.162Z</time></trkpt><trkpt lat="43.3917535" lon="11.6423613"><ele>470.0</ele><time>2026-05-03T08:12:28.162Z</time></trkpt><trkpt lat="43.3918226" lon="11.642506"><ele>470.0</ele><time>2026-05-03T08:12:29.161Z</time></trkpt><trkpt lat="43.3919057" lon="11.6426448"><ele>470.0</ele><time>2026-05-03T08:12:30.162Z</time></trkpt><trkpt lat="43.3919901" lon="11.6427872"><ele>470.0</ele><time>2026-05-03T08:12:31.162Z</time></trkpt><trkpt lat="43.3920695" lon="11.6429252"><ele>470.25</ele><time>2026-05-03T08:12:32.162Z</time></trkpt><trkpt lat="43.39215" lon="11.6430385"><ele>470.5</ele><time>2026-05-03T08:12:33.162Z</time></trkpt><trkpt lat="43.392242" lon="11.6431344"><ele>470.75</ele><time>2026-05-03T08:12:34.162Z</time></trkpt><trkpt lat="43.3923547" lon="11.6432242"><ele>471.0</ele><time>2026-05-03T08:12:35.162Z</time></trkpt><trkpt lat="43.3924767" lon="11.6433135"><ele>471.0</ele><time>2026-05-03T08:12:36.161Z</time></trkpt><trkpt lat="43.3926001" lon="11.6434153"><ele>471.0</ele><time>2026-05-03T08:12:37.162Z</time></trkpt><trkpt lat="43.392718" lon="11.6435386"><ele>471.0</ele><time>2026-05-03T08:12:38.162Z</time></trkpt><trkpt lat="43.3928299" lon="11.6436701"><ele>471.0</ele><time>2026-05-03T08:12:39.162Z</time></trkpt><trkpt lat="43.3929395" lon="11.6438025"><ele>472.25</ele><time>2026-05-03T08:12:40.162Z</time></trkpt><trkpt lat="43.393048" lon="11.6439392"><ele>473.5</ele><time>2026-05-03T08:12:41.162Z</time></trkpt><trkpt lat="43.3931488" lon="11.644078"><ele>474.75</ele><time>2026-05-03T08:12:42.16Z</time></trkpt><trkpt lat="43.3932405" lon="11.6442225"><ele>476.0</ele><time>2026-05-03T08:12:43.162Z</time></trkpt><trkpt lat="43.393317" lon="11.6443823"><ele>474.25</ele><time>2026-05-03T08:12:44.161Z</time></trkpt><trkpt lat="43.3933719" lon="11.6445596"><ele>472.5</ele><time>2026-05-03T08:12:45.162Z</time></trkpt><trkpt lat="43.3934036" lon="11.6447387"><ele>470.75</ele><time>2026-05-03T08:12:46.161Z</time></trkpt><trkpt lat="43.3934443" lon="11.6449015"><ele>469.0</ele><time>2026-05-03T08:12:47.16Z</time></trkpt><trkpt lat="43.3935018" lon="11.6450484"><ele>469.0</ele><time>2026-05-03T08:12:48.162Z</time></trkpt><trkpt lat="43.3935757" lon="11.6451901"><ele>469.0</ele><time>2026-05-03T08:12:49.161Z</time></trkpt><trkpt lat="43.3936759" lon="11.6453188"><ele>469.0</ele><time>2026-05-03T08:12:50.16Z</time></trkpt><trkpt lat="43.3937821" lon="11.6454396"><ele>469.0</ele><time>2026-05-03T08:12:51.161Z</time></trkpt><trkpt lat="43.3938879" lon="11.6455604"><ele>469.25</ele><time>2026-05-03T08:12:52.162Z</time></trkpt><trkpt lat="43.3939897" lon="11.6456951"><ele>469.5</ele><time>2026-05-03T08:12:53.162Z</time></trkpt><trkpt lat="43.3940734" lon="11.6458402"><ele>469.75</ele><time>2026-05-03T08:12:54.162Z</time></trkpt><trkpt lat="43.3941443" lon="11.6459801"><ele>470.0</ele><time>2026-05-03T08:12:55.161Z</time></trkpt><trkpt lat="43.3942057" lon="11.6460993"><ele>468.2</ele><time>2026-05-03T08:12:56.16Z</time></trkpt><trkpt lat="43.3942689" lon="11.6462025"><ele>466.4</ele><time>2026-05-03T08:12:57.161Z</time></trkpt><trkpt lat="43.3943347" lon="11.6462806"><ele>464.6</ele><time>2026-05-03T08:12:58.162Z</time></trkpt><trkpt lat="43.3944126" lon="11.6463405"><ele>462.8</ele><time>2026-05-03T08:12:59.161Z</time></trkpt><trkpt lat="43.3944934" lon="11.6463734"><ele>461.0</ele><time>2026-05-03T08:13:00.162Z</time></trkpt><trkpt lat="43.3945845" lon="11.6463789"><ele>460.4</ele><time>2026-05-03T08:13:01.161Z</time></trkpt><trkpt lat="43.3946826" lon="11.6463497"><ele>459.8</ele><time>2026-05-03T08:13:02.162Z</time></trkpt><trkpt lat="43.3947842" lon="11.6463008"><ele>459.19999999999993</ele><time>2026-05-03T08:13:03.162Z</time></trkpt><trkpt lat="43.3948893" lon="11.6462881"><ele>458.59999999999997</ele><time>2026-05-03T08:13:04.161Z</time></trkpt><trkpt lat="43.3949964" lon="11.6463088"><ele>458.0</ele><time>2026-05-03T08:13:05.162Z</time></trkpt><trkpt lat="43.3951092" lon="11.6463236"><ele>458.0</ele><time>2026-05-03T08:13:06.161Z</time></trkpt><trkpt lat="43.3952263" lon="11.6463033"><ele>458.0</ele><time>2026-05-03T08:13:07.162Z</time></trkpt><trkpt lat="43.3953479" lon="11.6462591"><ele>458.0</ele><time>2026-05-03T08:13:08.162Z</time></trkpt><trkpt lat="43.3954768" lon="11.6462025"><ele>458.0</ele><time>2026-05-03T08:13:09.162Z</time></trkpt><trkpt lat="43.395612" lon="11.646154"><ele>459.75</ele><time>2026-05-03T08:13:10.16Z</time></trkpt><trkpt lat="43.39575" lon="11.6461051"><ele>461.5</ele><time>2026-05-03T08:13:11.162Z</time></trkpt><trkpt lat="43.3958888" lon="11.6460501"><ele>463.25</ele><time>2026-05-03T08:13:12.162Z</time></trkpt><trkpt lat="43.3960262" lon="11.6460005"><ele>465.0</ele><time>2026-05-03T08:13:13.162Z</time></trkpt><trkpt lat="43.3961607" lon="11.6459487"><ele>465.0</ele><time>2026-05-03T08:13:14.162Z</time></trkpt><trkpt lat="43.3962898" lon="11.6458974"><ele>465.0</ele><time>2026-05-03T08:13:15.162Z</time></trkpt><trkpt lat="43.3964207" lon="11.6458423"><ele>465.0</ele><time>2026-05-03T08:13:16.161Z</time></trkpt><trkpt lat="43.3965514" lon="11.6457911"><ele>465.0</ele><time>2026-05-03T08:13:17.162Z</time></trkpt><trkpt lat="43.3966844" lon="11.6457576"><ele>462.5</ele><time>2026-05-03T08:13:18.162Z</time></trkpt><trkpt lat="43.3968082" lon="11.6457307"><ele>460.0</ele><time>2026-05-03T08:13:19.161Z</time></trkpt><trkpt lat="43.3969319" lon="11.6457064"><ele>457.5</ele><time>2026-05-03T08:13:20.162Z</time></trkpt><trkpt lat="43.3970583" lon="11.6457094"><ele>455.0</ele><time>2026-05-03T08:13:21.162Z</time></trkpt><trkpt lat="43.3971897" lon="11.6457341"><ele>453.5</ele><time>2026-05-03T08:13:22.162Z</time></trkpt><trkpt lat="43.397328" lon="11.6457513"><ele>452.0</ele><time>2026-05-03T08:13:23.162Z</time></trkpt><trkpt lat="43.3974631" lon="11.645768"><ele>450.5</ele><time>2026-05-03T08:13:24.161Z</time></trkpt><trkpt lat="43.3976136" lon="11.6457362"><ele>449.0</ele><time>2026-05-03T08:13:25.162Z</time></trkpt><trkpt lat="43.3977595" lon="11.6457254"><ele>449.0</ele><time>2026-05-03T08:13:26.162Z</time></trkpt><trkpt lat="43.3979107" lon="11.6457273"><ele>449.0</ele><time>2026-05-03T08:13:27.162Z</time></trkpt><trkpt lat="43.398058" lon="11.6457358"><ele>449.0</ele><time>2026-05-03T08:13:28.161Z</time></trkpt><trkpt lat="43.3982037" lon="11.6457496"><ele>449.0</ele><time>2026-05-03T08:13:29.16Z</time></trkpt><trkpt lat="43.3983459" lon="11.6457664"><ele>449.25</ele><time>2026-05-03T08:13:30.161Z</time></trkpt><trkpt lat="43.3984874" lon="11.6457895"><ele>449.5</ele><time>2026-05-03T08:13:31.162Z</time></trkpt><trkpt lat="43.3986214" lon="11.6458131"><ele>449.75</ele><time>2026-05-03T08:13:32.161Z</time></trkpt><trkpt lat="43.3987538" lon="11.6458349"><ele>450.0</ele><time>2026-05-03T08:13:33.161Z</time></trkpt><trkpt lat="43.3988899" lon="11.6458477"><ele>451.5</ele><time>2026-05-03T08:13:34.162Z</time></trkpt><trkpt lat="43.3990221" lon="11.6458688"><ele>453.0</ele><time>2026-05-03T08:13:35.162Z</time></trkpt><trkpt lat="43.3991532" lon="11.6459042"><ele>454.5</ele><time>2026-05-03T08:13:36.161Z</time></trkpt><trkpt lat="43.3992838" lon="11.6459567"><ele>456.0</ele><time>2026-05-03T08:13:37.161Z</time></trkpt><trkpt lat="43.3994127" lon="11.6460159"><ele>456.0</ele><time>2026-05-03T08:13:38.161Z</time></trkpt><trkpt lat="43.399543" lon="11.646084"><ele>456.0</ele><time>2026-05-03T08:13:39.162Z</time></trkpt><trkpt lat="43.3996744" lon="11.6461692"><ele>456.0</ele><time>2026-05-03T08:13:40.161Z</time></trkpt><trkpt lat="43.3998064" lon="11.6462526"><ele>456.0</ele><time>2026-05-03T08:13:41.162Z</time></trkpt><trkpt lat="43.3999426" lon="11.6463401"><ele>456.75</ele><time>2026-05-03T08:13:42.162Z</time></trkpt><trkpt lat="43.4000799" lon="11.6464213"><ele>457.5</ele><time>2026-05-03T08:13:43.162Z</time></trkpt><trkpt lat="43.4002154" lon="11.6464957"><ele>458.25</ele><time>2026-05-03T08:13:44.161Z</time></trkpt><trkpt lat="43.4003532" lon="11.6465706"><ele>459.0</ele><time>2026-05-03T08:13:45.161Z</time></trkpt><trkpt lat="43.4004925" lon="11.6466511"><ele>459.75</ele><time>2026-05-03T08:13:46.162Z</time></trkpt><trkpt lat="43.4006289" lon="11.6467366"><ele>460.5</ele><time>2026-05-03T08:13:47.161Z</time></trkpt><trkpt lat="43.4007594" lon="11.6468249"><ele>461.25</ele><time>2026-05-03T08:13:48.161Z</time></trkpt><trkpt lat="43.4008751" lon="11.6469097"><ele>462.0</ele><time>2026-05-03T08:13:49.162Z</time></trkpt><trkpt lat="43.4009746" lon="11.6470126"><ele>464.25</ele><time>2026-05-03T08:13:50.162Z</time></trkpt><trkpt lat="43.401062" lon="11.6471362"><ele>466.5</ele><time>2026-05-03T08:13:51.162Z</time></trkpt><trkpt lat="43.4011436" lon="11.6472816"><ele>468.75</ele><time>2026-05-03T08:13:52.162Z</time></trkpt><trkpt lat="43.4012214" lon="11.647437"><ele>471.0</ele><time>2026-05-03T08:13:53.162Z</time></trkpt><trkpt lat="43.4013003" lon="11.6475904"><ele>470.75</ele><time>2026-05-03T08:13:54.16Z</time></trkpt><trkpt lat="43.4013807" lon="11.647739"><ele>470.5</ele><time>2026-05-03T08:13:55.162Z</time></trkpt><trkpt lat="43.4014674" lon="11.6478856"><ele>470.25</ele><time>2026-05-03T08:13:56.161Z</time></trkpt><trkpt lat="43.4015563" lon="11.648035"><ele>470.0</ele><time>2026-05-03T08:13:57.162Z</time></trkpt><trkpt lat="43.4016421" lon="11.6481862"><ele>470.75</ele><time>2026-05-03T08:13:58.162Z</time></trkpt><trkpt lat="43.4017212" lon="11.6483319"><ele>471.5</ele><time>2026-05-03T08:13:59.161Z</time></trkpt><trkpt lat="43.4017932" lon="11.6484648"><ele>472.25</ele><time>2026-05-03T08:14:00.161Z</time></trkpt><trkpt lat="43.4018601" lon="11.6485809"><ele>473.0</ele><time>2026-05-03T08:14:01.161Z</time></trkpt><trkpt lat="43.4019183" lon="11.6486805"><ele>472.99999999999994</ele><time>2026-05-03T08:14:02.162Z</time></trkpt><trkpt lat="43.4019729" lon="11.6487644"><ele>473.0</ele><time>2026-05-03T08:14:03.161Z</time></trkpt><trkpt lat="43.4020157" lon="11.6488481"><ele>473.0</ele><time>2026-05-03T08:14:04.162Z</time></trkpt><trkpt lat="43.4020408" lon="11.6489378"><ele>473.0</ele><time>2026-05-03T08:14:05.162Z</time></trkpt><trkpt lat="43.402049" lon="11.6490375"><ele>472.99999999999994</ele><time>2026-05-03T08:14:06.161Z</time></trkpt><trkpt lat="43.402041" lon="11.6491546"><ele>473.0</ele><time>2026-05-03T08:14:07.161Z</time></trkpt><trkpt lat="43.4020229" lon="11.64928"><ele>473.0</ele><time>2026-05-03T08:14:08.161Z</time></trkpt><trkpt lat="43.4020003" lon="11.6494187"><ele>472.99999999999994</ele><time>2026-05-03T08:14:09.162Z</time></trkpt><trkpt lat="43.4019762" lon="11.6495671"><ele>472.99999999999994</ele><time>2026-05-03T08:14:10.161Z</time></trkpt><trkpt lat="43.4019535" lon="11.649719"><ele>473.0</ele><time>2026-05-03T08:14:11.162Z</time></trkpt><trkpt lat="43.4019318" lon="11.6498796"><ele>473.0</ele><time>2026-05-03T08:14:12.16Z</time></trkpt><trkpt lat="43.4019188" lon="11.6500446"><ele>472.5</ele><time>2026-05-03T08:14:13.162Z</time></trkpt><trkpt lat="43.401916" lon="11.6501991"><ele>472.0</ele><time>2026-05-03T08:14:14.162Z</time></trkpt><trkpt lat="43.4019221" lon="11.6503545"><ele>471.5</ele><time>2026-05-03T08:14:15.161Z</time></trkpt><trkpt lat="43.4019216" lon="11.6505103"><ele>471.0</ele><time>2026-05-03T08:14:16.161Z</time></trkpt><trkpt lat="43.4019289" lon="11.6506717"><ele>470.25</ele><time>2026-05-03T08:14:17.162Z</time></trkpt><trkpt lat="43.4019486" lon="11.6508301"><ele>469.5</ele><time>2026-05-03T08:14:18.162Z</time></trkpt><trkpt lat="43.4019861" lon="11.6509788"><ele>468.75</ele><time>2026-05-03T08:14:19.162Z</time></trkpt><trkpt lat="43.4020373" lon="11.6511183"><ele>468.0</ele><time>2026-05-03T08:14:20.162Z</time></trkpt><trkpt lat="43.4021027" lon="11.6512547"><ele>468.0</ele><time>2026-05-03T08:14:21.162Z</time></trkpt><trkpt lat="43.4021765" lon="11.6513836"><ele>468.0</ele><time>2026-05-03T08:14:22.16Z</time></trkpt><trkpt lat="43.4022594" lon="11.6515041"><ele>468.0</ele><time>2026-05-03T08:14:23.161Z</time></trkpt><trkpt lat="43.4023383" lon="11.6516129"><ele>468.0</ele><time>2026-05-03T08:14:24.161Z</time></trkpt><trkpt lat="43.4024106" lon="11.6517124"><ele>468.0</ele><time>2026-05-03T08:14:25.162Z</time></trkpt><trkpt lat="43.4024742" lon="11.6517993"><ele>468.0</ele><time>2026-05-03T08:14:26.161Z</time></trkpt><trkpt lat="43.402534" lon="11.6518741"><ele>468.0</ele><time>2026-05-03T08:14:27.162Z</time></trkpt><trkpt lat="43.4025879" lon="11.6519401"><ele>468.0</ele><time>2026-05-03T08:14:28.161Z</time></trkpt><trkpt lat="43.4026713" lon="11.6520244"><ele>468.0</ele><time>2026-05-03T08:14:30.161Z</time></trkpt><trkpt lat="43.4027282" lon="11.6520663"><ele>468.0</ele><time>2026-05-03T08:14:32.162Z</time></trkpt><trkpt lat="43.4028056" lon="11.6520931"><ele>467.79999999999995</ele><time>2026-05-03T08:14:34.161Z</time></trkpt><trkpt lat="43.4028805" lon="11.6521041"><ele>467.59999999999997</ele><time>2026-05-03T08:14:35.162Z</time></trkpt><trkpt lat="43.4029662" lon="11.6520959"><ele>467.40000000000003</ele><time>2026-05-03T08:14:36.161Z</time></trkpt><trkpt lat="43.4030651" lon="11.6520814"><ele>467.20000000000005</ele><time>2026-05-03T08:14:37.162Z</time></trkpt><trkpt lat="43.4031605" lon="11.65207"><ele>467.0</ele><time>2026-05-03T08:14:38.162Z</time></trkpt><trkpt lat="43.4032679" lon="11.6520614"><ele>467.75</ele><time>2026-05-03T08:14:39.162Z</time></trkpt><trkpt lat="43.4033834" lon="11.6520653"><ele>468.5</ele><time>2026-05-03T08:14:40.162Z</time></trkpt><trkpt lat="43.403504" lon="11.6520835"><ele>469.25</ele><time>2026-05-03T08:14:41.162Z</time></trkpt><trkpt lat="43.403624" lon="11.6521094"><ele>470.0</ele><time>2026-05-03T08:14:42.162Z</time></trkpt><trkpt lat="43.4037417" lon="11.652143"><ele>472.25</ele><time>2026-05-03T08:14:43.161Z</time></trkpt><trkpt lat="43.4038641" lon="11.6521738"><ele>474.5</ele><time>2026-05-03T08:14:44.162Z</time></trkpt><trkpt lat="43.403989" lon="11.6521976"><ele>476.75</ele><time>2026-05-03T08:14:45.162Z</time></trkpt><trkpt lat="43.4041034" lon="11.6522241"><ele>479.0</ele><time>2026-05-03T08:14:46.162Z</time></trkpt><trkpt lat="43.4041996" lon="11.652269"><ele>479.0</ele><time>2026-05-03T08:14:47.161Z</time></trkpt><trkpt lat="43.4042871" lon="11.65235"><ele>479.0</ele><time>2026-05-03T08:14:48.161Z</time></trkpt><trkpt lat="43.4043611" lon="11.6524605"><ele>479.0</ele><time>2026-05-03T08:14:49.161Z</time></trkpt><trkpt lat="43.4044307" lon="11.6525801"><ele>479.0</ele><time>2026-05-03T08:14:50.162Z</time></trkpt><trkpt lat="43.4045043" lon="11.6526975"><ele>479.0</ele><time>2026-05-03T08:14:51.162Z</time></trkpt><trkpt lat="43.4045864" lon="11.6528102"><ele>481.4</ele><time>2026-05-03T08:14:52.162Z</time></trkpt><trkpt lat="43.4046735" lon="11.6529143"><ele>483.79999999999995</ele><time>2026-05-03T08:14:53.161Z</time></trkpt><trkpt lat="43.4047638" lon="11.6530115"><ele>486.20000000000005</ele><time>2026-05-03T08:14:54.162Z</time></trkpt><trkpt lat="43.4048529" lon="11.6530907"><ele>488.6</ele><time>2026-05-03T08:14:55.162Z</time></trkpt><trkpt lat="43.4049446" lon="11.6531231"><ele>491.0</ele><time>2026-05-03T08:14:56.161Z</time></trkpt><trkpt lat="43.4050416" lon="11.6531079"><ele>491.0</ele><time>2026-05-03T08:14:57.161Z</time></trkpt><trkpt lat="43.4051382" lon="11.6530603"><ele>491.0</ele><time>2026-05-03T08:14:58.161Z</time></trkpt><trkpt lat="43.405236" lon="11.6530001"><ele>491.0</ele><time>2026-05-03T08:14:59.161Z</time></trkpt><trkpt lat="43.4053332" lon="11.6529303"><ele>491.0</ele><time>2026-05-03T08:15:00.162Z</time></trkpt><trkpt lat="43.4054265" lon="11.6528514"><ele>491.0</ele><time>2026-05-03T08:15:01.161Z</time></trkpt><trkpt lat="43.4055201" lon="11.6527633"><ele>493.20000000000005</ele><time>2026-05-03T08:15:02.161Z</time></trkpt><trkpt lat="43.4056127" lon="11.652675"><ele>495.40000000000003</ele><time>2026-05-03T08:15:03.162Z</time></trkpt><trkpt lat="43.4057024" lon="11.6525995"><ele>497.6</ele><time>2026-05-03T08:15:04.162Z</time></trkpt><trkpt lat="43.4057964" lon="11.6525402"><ele>499.8</ele><time>2026-05-03T08:15:05.161Z</time></trkpt><trkpt lat="43.4058969" lon="11.6524927"><ele>502.0</ele><time>2026-05-03T08:15:06.162Z</time></trkpt><trkpt lat="43.4059932" lon="11.6524641"><ele>501.99999999999994</ele><time>2026-05-03T08:15:07.161Z</time></trkpt><trkpt lat="43.4060756" lon="11.6524652"><ele>502.0</ele><time>2026-05-03T08:15:08.161Z</time></trkpt><trkpt lat="43.4061475" lon="11.6525056"><ele>501.99999999999994</ele><time>2026-05-03T08:15:09.161Z</time></trkpt><trkpt lat="43.4062039" lon="11.652558"><ele>501.99999999999994</ele><time>2026-05-03T08:15:10.16Z</time></trkpt><trkpt lat="43.4062213" lon="11.6526426"><ele>502.0</ele><time>2026-05-03T08:15:11.161Z</time></trkpt><trkpt lat="43.4062249" lon="11.6527347"><ele>501.99999999999994</ele><time>2026-05-03T08:15:12.161Z</time></trkpt><trkpt lat="43.4062026" lon="11.6528256"><ele>501.99999999999994</ele><time>2026-05-03T08:15:13.161Z</time></trkpt><trkpt lat="43.4061749" lon="11.6529161"><ele>503.0</ele><time>2026-05-03T08:15:14.162Z</time></trkpt><trkpt lat="43.4061626" lon="11.6530054"><ele>504.00000000000006</ele><time>2026-05-03T08:15:15.162Z</time></trkpt><trkpt lat="43.4061793" lon="11.6531527"><ele>505.00000000000006</ele><time>2026-05-03T08:15:17.162Z</time></trkpt><trkpt lat="43.4062632" lon="11.6532365"><ele>506.0</ele><time>2026-05-03T08:15:19.162Z</time></trkpt><trkpt lat="43.4063328" lon="11.6533256"><ele>507.0</ele><time>2026-05-03T08:15:21.162Z</time></trkpt><trkpt lat="43.4064064" lon="11.6534259"><ele>507.1666666666667</ele><time>2026-05-03T08:15:23.162Z</time></trkpt><trkpt lat="43.4064824" lon="11.6535499"><ele>507.33333333333337</ele><time>2026-05-03T08:15:25.161Z</time></trkpt><trkpt lat="43.4065221" lon="11.653623"><ele>507.5</ele><time>2026-05-03T08:15:26.16Z</time></trkpt><trkpt lat="43.4065707" lon="11.6536901"><ele>507.6666666666667</ele><time>2026-05-03T08:15:27.161Z</time></trkpt><trkpt lat="43.4066239" lon="11.6537597"><ele>507.83333333333337</ele><time>2026-05-03T08:15:28.162Z</time></trkpt><trkpt lat="43.406685" lon="11.6538232"><ele>508.0</ele><time>2026-05-03T08:15:29.162Z</time></trkpt><trkpt lat="43.4067573" lon="11.6538842"><ele>508.00000000000006</ele><time>2026-05-03T08:15:30.162Z</time></trkpt><trkpt lat="43.4068301" lon="11.6539415"><ele>508.0</ele><time>2026-05-03T08:15:31.162Z</time></trkpt><trkpt lat="43.4069115" lon="11.6539994"><ele>508.0</ele><time>2026-05-03T08:15:32.161Z</time></trkpt><trkpt lat="43.4069958" lon="11.6540536"><ele>508.0</ele><time>2026-05-03T08:15:33.161Z</time></trkpt><trkpt lat="43.4070765" lon="11.6540953"><ele>508.00000000000006</ele><time>2026-05-03T08:15:34.161Z</time></trkpt><trkpt lat="43.4071498" lon="11.6541321"><ele>508.0</ele><time>2026-05-03T08:15:35.161Z</time></trkpt><trkpt lat="43.4072271" lon="11.6541745"><ele>508.79999999999995</ele><time>2026-05-03T08:15:36.162Z</time></trkpt><trkpt lat="43.4073086" lon="11.6542158"><ele>509.59999999999997</ele><time>2026-05-03T08:15:37.161Z</time></trkpt><trkpt lat="43.4073968" lon="11.6542615"><ele>510.40000000000003</ele><time>2026-05-03T08:15:38.161Z</time></trkpt><trkpt lat="43.4074897" lon="11.6543022"><ele>511.20000000000005</ele><time>2026-05-03T08:15:39.161Z</time></trkpt><trkpt lat="43.4075866" lon="11.6543437"><ele>512.0</ele><time>2026-05-03T08:15:40.161Z</time></trkpt><trkpt lat="43.4076911" lon="11.6543855"><ele>512.0</ele><time>2026-05-03T08:15:41.161Z</time></trkpt><trkpt lat="43.4077955" lon="11.6544345"><ele>512.0</ele><time>2026-05-03T08:15:42.161Z</time></trkpt><trkpt lat="43.4079037" lon="11.6544856"><ele>512.0</ele><time>2026-05-03T08:15:43.16Z</time></trkpt><trkpt lat="43.4080098" lon="11.6545262"><ele>512.0</ele><time>2026-05-03T08:15:44.16Z</time></trkpt><trkpt lat="43.4081222" lon="11.6545463"><ele>512.0</ele><time>2026-05-03T08:15:45.161Z</time></trkpt><trkpt lat="43.4082328" lon="11.6545419"><ele>511.25</ele><time>2026-05-03T08:15:46.161Z</time></trkpt><trkpt lat="43.4083448" lon="11.6545266"><ele>510.5</ele><time>2026-05-03T08:15:47.162Z</time></trkpt><trkpt lat="43.4084591" lon="11.6544945"><ele>509.75</ele><time>2026-05-03T08:15:48.161Z</time></trkpt><trkpt lat="43.4085668" lon="11.6544377"><ele>509.0</ele><time>2026-05-03T08:15:49.162Z</time></trkpt><trkpt lat="43.4086626" lon="11.6543667"><ele>509.0</ele><time>2026-05-03T08:15:50.161Z</time></trkpt><trkpt lat="43.4087543" lon="11.6542976"><ele>509.0</ele><time>2026-05-03T08:15:51.161Z</time></trkpt><trkpt lat="43.4088483" lon="11.6542432"><ele>509.0</ele><time>2026-05-03T08:15:52.162Z</time></trkpt><trkpt lat="43.408946" lon="11.6542072"><ele>509.0</ele><time>2026-05-03T08:15:53.161Z</time></trkpt><trkpt lat="43.4090448" lon="11.6542077"><ele>509.0</ele><time>2026-05-03T08:15:54.162Z</time></trkpt><trkpt lat="43.4091401" lon="11.6542288"><ele>507.79999999999995</ele><time>2026-05-03T08:15:55.161Z</time></trkpt><trkpt lat="43.4092354" lon="11.6542309"><ele>506.59999999999997</ele><time>2026-05-03T08:15:56.161Z</time></trkpt><trkpt lat="43.4093297" lon="11.6541942"><ele>505.4</ele><time>2026-05-03T08:15:57.162Z</time></trkpt><trkpt lat="43.4094224" lon="11.6541393"><ele>504.2</ele><time>2026-05-03T08:15:58.162Z</time></trkpt><trkpt lat="43.4095188" lon="11.6540774"><ele>503.0</ele><time>2026-05-03T08:15:59.162Z</time></trkpt><trkpt lat="43.4096204" lon="11.6540145"><ele>500.25</ele><time>2026-05-03T08:16:00.161Z</time></trkpt><trkpt lat="43.4097268" lon="11.6539562"><ele>497.5</ele><time>2026-05-03T08:16:01.161Z</time></trkpt><trkpt lat="43.4098261" lon="11.6538885"><ele>494.75</ele><time>2026-05-03T08:16:02.162Z</time></trkpt><trkpt lat="43.409916" lon="11.6537962"><ele>492.0</ele><time>2026-05-03T08:16:03.161Z</time></trkpt><trkpt lat="43.4099969" lon="11.6536792"><ele>490.75</ele><time>2026-05-03T08:16:04.161Z</time></trkpt><trkpt lat="43.4100743" lon="11.6535432"><ele>489.5</ele><time>2026-05-03T08:16:05.162Z</time></trkpt><trkpt lat="43.4101524" lon="11.6534038"><ele>488.25</ele><time>2026-05-03T08:16:06.161Z</time></trkpt><trkpt lat="43.4102331" lon="11.6532623"><ele>487.0</ele><time>2026-05-03T08:16:07.162Z</time></trkpt><trkpt lat="43.4103219" lon="11.6531318"><ele>487.0</ele><time>2026-05-03T08:16:08.162Z</time></trkpt><trkpt lat="43.4104173" lon="11.653035"><ele>487.0</ele><time>2026-05-03T08:16:09.16Z</time></trkpt><trkpt lat="43.4105172" lon="11.6529546"><ele>487.0</ele><time>2026-05-03T08:16:10.162Z</time></trkpt><trkpt lat="43.4106209" lon="11.6528908"><ele>487.0</ele><time>2026-05-03T08:16:11.162Z</time></trkpt><trkpt lat="43.4107323" lon="11.6529021"><ele>486.8</ele><time>2026-05-03T08:16:12.161Z</time></trkpt><trkpt lat="43.4108361" lon="11.6529439"><ele>486.6</ele><time>2026-05-03T08:16:13.162Z</time></trkpt><trkpt lat="43.4109379" lon="11.6530116"><ele>486.40000000000003</ele><time>2026-05-03T08:16:14.162Z</time></trkpt><trkpt lat="43.4110369" lon="11.6530899"><ele>486.20000000000005</ele><time>2026-05-03T08:16:15.162Z</time></trkpt><trkpt lat="43.4111283" lon="11.6531619"><ele>486.0</ele><time>2026-05-03T08:16:16.161Z</time></trkpt><trkpt lat="43.4112101" lon="11.6532323"><ele>486.0</ele><time>2026-05-03T08:16:17.162Z</time></trkpt><trkpt lat="43.4112859" lon="11.6532795"><ele>486.0</ele><time>2026-05-03T08:16:18.161Z</time></trkpt><trkpt lat="43.4113577" lon="11.6532949"><ele>486.0</ele><time>2026-05-03T08:16:19.161Z</time></trkpt><trkpt lat="43.4114249" lon="11.6532821"><ele>486.0</ele><time>2026-05-03T08:16:20.162Z</time></trkpt><trkpt lat="43.4115433" lon="11.6532253"><ele>486.0</ele><time>2026-05-03T08:16:22.161Z</time></trkpt><trkpt lat="43.4116463" lon="11.6531637"><ele>486.4</ele><time>2026-05-03T08:16:24.162Z</time></trkpt><trkpt lat="43.4117392" lon="11.6531167"><ele>486.8</ele><time>2026-05-03T08:16:26.162Z</time></trkpt><trkpt lat="43.4118344" lon="11.6530652"><ele>487.19999999999993</ele><time>2026-05-03T08:16:28.162Z</time></trkpt><trkpt lat="43.4119232" lon="11.6530044"><ele>487.59999999999997</ele><time>2026-05-03T08:16:30.162Z</time></trkpt><trkpt lat="43.4120042" lon="11.6529541"><ele>488.0</ele><time>2026-05-03T08:16:32.162Z</time></trkpt><trkpt lat="43.4120693" lon="11.6529168"><ele>487.0</ele><time>2026-05-03T08:16:34.162Z</time></trkpt><trkpt lat="43.4102331" lon="11.6532623"><ele>487.0</ele><time>2026-05-03T08:16:07.162Z</time></trkpt><trkpt lat="43.4103219" lon="11.6531318"><ele>487.0</ele><time>2026-05-03T08:16:08.162Z</time></trkpt><trkpt lat="43.4104173" lon="11.653035"><ele>487.0</ele><time>2026-05-03T08:16:09.16Z</time></trkpt><trkpt lat="43.4105172" lon="11.6529546"><ele>487.0</ele><time>2026-05-03T08:16:10.162Z</time></trkpt><trkpt lat="43.4106209" lon="11.6528908"><ele>486.8</ele><time>2026-05-03T08:16:11.162Z</time></trkpt><trkpt lat="43.4107323" lon="11.6529021"><ele>486.6</ele><time>2026-05-03T08:16:12.161Z</time></trkpt><trkpt lat="43.4108361" lon="11.6529439"><ele>486.40000000000003</ele><time>2026-05-03T08:16:13.162Z</time></trkpt><trkpt lat="43.4109379" lon="11.6530116"><ele>486.20000000000005</ele><time>2026-05-03T08:16:14.162Z</time></trkpt><trkpt lat="43.4110369" lon="11.6530899"><ele>486.0</ele><time>2026-05-03T08:16:15.162Z</time></trkpt><trkpt lat="43.4111283" lon="11.6531619"><ele>486.0</ele><time>2026-05-03T08:16:16.161Z</time></trkpt><trkpt lat="43.4112101" lon="11.6532323"><ele>486.0</ele><time>2026-05-03T08:16:17.162Z</time></trkpt><trkpt lat="43.4112859" lon="11.6532795"><ele>486.0</ele><time>2026-05-03T08:16:18.161Z</time></trkpt><trkpt lat="43.4113577" lon="11.6532949"><ele>486.0</ele><time>2026-05-03T08:16:19.161Z</time></trkpt><trkpt lat="43.4114249" lon="11.6532821"><ele>486.0</ele><time>2026-05-03T08:16:20.162Z</time></trkpt><trkpt lat="43.4115433" lon="11.6532253"><ele>486.0</ele><time>2026-05-03T08:16:22.161Z</time></trkpt><trkpt lat="43.4116463" lon="11.6531637"><ele>486.4</ele><time>2026-05-03T08:16:24.162Z</time></trkpt><trkpt lat="43.4117392" lon="11.6531167"><ele>486.8</ele><time>2026-05-03T08:16:26.162Z</time></trkpt><trkpt lat="43.4118344" lon="11.6530652"><ele>487.19999999999993</ele><time>2026-05-03T08:16:28.162Z</time></trkpt><trkpt lat="43.4119232" lon="11.6530044"><ele>487.59999999999997</ele><time>2026-05-03T08:16:30.162Z</time></trkpt><trkpt lat="43.4120042" lon="11.6529541"><ele>488.0</ele><time>2026-05-03T08:16:32.162Z</time></trkpt><trkpt lat="43.4120693" lon="11.6529168"><ele>487.99999999999994</ele><time>2026-05-03T08:16:34.162Z</time></trkpt><trkpt lat="43.4119902" lon="11.652939"><ele>488.0</ele><time>2026-05-03T08:17:14.161Z</time></trkpt><trkpt lat="43.4119363" lon="11.6529948"><ele>488.0</ele><time>2026-05-03T08:17:15.161Z</time></trkpt><trkpt lat="43.4118656" lon="11.6530441"><ele>488.0</ele><time>2026-05-03T08:17:16.162Z</time></trkpt><trkpt lat="43.4117916" lon="11.6530889"><ele>487.99999999999994</ele><time>2026-05-03T08:17:17.161Z</time></trkpt><trkpt lat="43.4117113" lon="11.6531299"><ele>488.0</ele><time>2026-05-03T08:17:18.161Z</time></trkpt><trkpt lat="43.4116302" lon="11.6531679"><ele>487.99999999999994</ele><time>2026-05-03T08:17:19.162Z</time></trkpt><trkpt lat="43.411555" lon="11.6532077"><ele>488.0</ele><time>2026-05-03T08:17:20.162Z</time></trkpt><trkpt lat="43.4114826" lon="11.653243"><ele>487.99999999999994</ele><time>2026-05-03T08:17:21.162Z</time></trkpt><trkpt lat="43.4114178" lon="11.6532645"><ele>487.99999999999994</ele><time>2026-05-03T08:17:22.162Z</time></trkpt><trkpt lat="43.4113491" lon="11.6532757"><ele>488.0</ele><time>2026-05-03T08:17:23.161Z</time></trkpt><trkpt lat="43.4112769" lon="11.6532626"><ele>487.99999999999994</ele><time>2026-05-03T08:17:24.162Z</time></trkpt><trkpt lat="43.4112129" lon="11.653219"><ele>487.99999999999994</ele><time>2026-05-03T08:17:25.162Z</time></trkpt><trkpt lat="43.411155" lon="11.6531671"><ele>487.66666666666663</ele><time>2026-05-03T08:17:26.162Z</time></trkpt><trkpt lat="43.411067" lon="11.6531068"><ele>487.3333333333333</ele><time>2026-05-03T08:17:28.162Z</time></trkpt><trkpt lat="43.4111141" lon="11.6532469"><ele>487.0</ele><time>2026-05-03T08:17:32.161Z</time></trkpt><trkpt lat="43.4111641" lon="11.6533236"><ele>486.66666666666663</ele><time>2026-05-03T08:17:33.161Z</time></trkpt><trkpt lat="43.4112126" lon="11.6534025"><ele>486.3333333333333</ele><time>2026-05-03T08:17:34.162Z</time></trkpt><trkpt lat="43.4112578" lon="11.6534957"><ele>486.0</ele><time>2026-05-03T08:17:35.162Z</time></trkpt><trkpt lat="43.4112983" lon="11.6536045"><ele>485.5</ele><time>2026-05-03T08:17:36.161Z</time></trkpt><trkpt lat="43.4113277" lon="11.6537167"><ele>485.0</ele><time>2026-05-03T08:17:37.16Z</time></trkpt><trkpt lat="43.4113554" lon="11.6538287"><ele>484.5</ele><time>2026-05-03T08:17:38.161Z</time></trkpt><trkpt lat="43.4113832" lon="11.6539422"><ele>484.0</ele><time>2026-05-03T08:17:39.162Z</time></trkpt><trkpt lat="43.4114084" lon="11.6540412"><ele>483.5</ele><time>2026-05-03T08:17:40.16Z</time></trkpt><trkpt lat="43.4114518" lon="11.6541594"><ele>483.0</ele><time>2026-05-03T08:17:42.162Z</time></trkpt><trkpt lat="43.4115547" lon="11.6541542"><ele>483.0</ele><time>2026-05-03T08:17:45.161Z</time></trkpt><trkpt lat="43.4116205" lon="11.6541306"><ele>483.0</ele><time>2026-05-03T08:17:46.162Z</time></trkpt><trkpt lat="43.4117058" lon="11.654118"><ele>483.0</ele><time>2026-05-03T08:17:47.162Z</time></trkpt><trkpt lat="43.4117817" lon="11.6541348"><ele>483.0</ele><time>2026-05-03T08:17:48.161Z</time></trkpt><trkpt lat="43.411859" lon="11.6541793"><ele>483.0</ele><time>2026-05-03T08:17:49.161Z</time></trkpt><trkpt lat="43.4119325" lon="11.6542559"><ele>483.0</ele><time>2026-05-03T08:17:50.16Z</time></trkpt><trkpt lat="43.4119979" lon="11.6543518"><ele>483.0</ele><time>2026-05-03T08:17:51.162Z</time></trkpt><trkpt lat="43.4120593" lon="11.6544578"><ele>482.99999999999994</ele><time>2026-05-03T08:17:52.162Z</time></trkpt><trkpt lat="43.4121057" lon="11.6545719"><ele>482.99999999999994</ele><time>2026-05-03T08:17:53.162Z</time></trkpt><trkpt lat="43.4121256" lon="11.6546857"><ele>483.0</ele><time>2026-05-03T08:17:54.161Z</time></trkpt><trkpt lat="43.4121415" lon="11.6548024"><ele>483.0</ele><time>2026-05-03T08:17:55.161Z</time></trkpt><trkpt lat="43.4121695" lon="11.6549168"><ele>483.0</ele><time>2026-05-03T08:17:56.161Z</time></trkpt><trkpt lat="43.4122097" lon="11.6550277"><ele>483.0</ele><time>2026-05-03T08:17:57.162Z</time></trkpt><trkpt lat="43.4122489" lon="11.6551226"><ele>483.0</ele><time>2026-05-03T08:17:58.162Z</time></trkpt><trkpt lat="43.4122902" lon="11.6552122"><ele>483.0</ele><time>2026-05-03T08:17:59.162Z</time></trkpt><trkpt lat="43.4123257" lon="11.6552997"><ele>483.0</ele><time>2026-05-03T08:18:00.162Z</time></trkpt><trkpt lat="43.4123545" lon="11.6553832"><ele>483.0</ele><time>2026-05-03T08:18:01.162Z</time></trkpt><trkpt lat="43.4124066" lon="11.6555389"><ele>481.8571428571429</ele><time>2026-05-03T08:18:03.161Z</time></trkpt><trkpt lat="43.4124301" lon="11.655625"><ele>480.7142857142857</ele><time>2026-05-03T08:18:04.161Z</time></trkpt><trkpt lat="43.412452" lon="11.6557161"><ele>479.57142857142856</ele><time>2026-05-03T08:18:05.161Z</time></trkpt><trkpt lat="43.4124743" lon="11.655811"><ele>478.42857142857144</ele><time>2026-05-03T08:18:06.162Z</time></trkpt><trkpt lat="43.4124976" lon="11.6559092"><ele>477.28571428571433</ele><time>2026-05-03T08:18:07.161Z</time></trkpt><trkpt lat="43.4125299" lon="11.6560066"><ele>476.14285714285717</ele><time>2026-05-03T08:18:08.161Z</time></trkpt><trkpt lat="43.4125651" lon="11.6561013"><ele>475.0</ele><time>2026-05-03T08:18:09.161Z</time></trkpt><trkpt lat="43.41259" lon="11.6562"><ele>473.8571428571429</ele><time>2026-05-03T08:18:10.161Z</time></trkpt><trkpt lat="43.4126068" lon="11.6563047"><ele>472.7142857142858</ele><time>2026-05-03T08:18:11.16Z</time></trkpt><trkpt lat="43.4126228" lon="11.6564062"><ele>471.57142857142856</ele><time>2026-05-03T08:18:12.161Z</time></trkpt><trkpt lat="43.4126396" lon="11.6565073"><ele>470.42857142857144</ele><time>2026-05-03T08:18:13.162Z</time></trkpt><trkpt lat="43.4126545" lon="11.6566063"><ele>469.2857142857143</ele><time>2026-05-03T08:18:14.162Z</time></trkpt><trkpt lat="43.4126687" lon="11.6567061"><ele>468.1428571428571</ele><time>2026-05-03T08:18:15.162Z</time></trkpt><trkpt lat="43.4126816" lon="11.6567931"><ele>466.99999999999994</ele><time>2026-05-03T08:18:16.161Z</time></trkpt><trkpt lat="43.4127177" lon="11.6569479"><ele>464.3333333333333</ele><time>2026-05-03T08:18:18.162Z</time></trkpt><trkpt lat="43.4127741" lon="11.6570872"><ele>461.66666666666663</ele><time>2026-05-03T08:18:20.162Z</time></trkpt><trkpt lat="43.4128366" lon="11.6572354"><ele>459.0</ele><time>2026-05-03T08:18:22.162Z</time></trkpt><trkpt lat="43.4128682" lon="11.6573124"><ele>456.33333333333337</ele><time>2026-05-03T08:18:23.162Z</time></trkpt><trkpt lat="43.4128982" lon="11.6573901"><ele>453.6666666666667</ele><time>2026-05-03T08:18:24.161Z</time></trkpt><trkpt lat="43.4129275" lon="11.65747"><ele>451.0</ele><time>2026-05-03T08:18:25.162Z</time></trkpt><trkpt lat="43.4129557" lon="11.6575496"><ele>450.1666666666667</ele><time>2026-05-03T08:18:26.162Z</time></trkpt><trkpt lat="43.4130022" lon="11.6577085"><ele>449.33333333333337</ele><time>2026-05-03T08:18:28.161Z</time></trkpt><trkpt lat="43.4130731" lon="11.6578436"><ele>448.5</ele><time>2026-05-03T08:18:30.162Z</time></trkpt><trkpt lat="43.4131269" lon="11.6578896"><ele>447.66666666666663</ele><time>2026-05-03T08:18:31.162Z</time></trkpt><trkpt lat="43.4131873" lon="11.6579316"><ele>446.8333333333333</ele><time>2026-05-03T08:18:32.162Z</time></trkpt><trkpt lat="43.4132456" lon="11.6579867"><ele>446.0</ele><time>2026-05-03T08:18:33.162Z</time></trkpt><trkpt lat="43.4133002" lon="11.6580546"><ele>444.99999999999994</ele><time>2026-05-03T08:18:34.162Z</time></trkpt><trkpt lat="43.4133487" lon="11.6581324"><ele>444.0</ele><time>2026-05-03T08:18:35.161Z</time></trkpt><trkpt lat="43.4133934" lon="11.6582156"><ele>443.0</ele><time>2026-05-03T08:18:36.162Z</time></trkpt><trkpt lat="43.4134333" lon="11.6583053"><ele>442.0</ele><time>2026-05-03T08:18:37.162Z</time></trkpt><trkpt lat="43.4134572" lon="11.658409"><ele>440.99999999999994</ele><time>2026-05-03T08:18:38.161Z</time></trkpt><trkpt lat="43.4134635" lon="11.6585159"><ele>440.0</ele><time>2026-05-03T08:18:39.162Z</time></trkpt><trkpt lat="43.4134684" lon="11.6586206"><ele>437.8333333333333</ele><time>2026-05-03T08:18:40.162Z</time></trkpt><trkpt lat="43.4134734" lon="11.6587277"><ele>435.66666666666663</ele><time>2026-05-03T08:18:41.161Z</time></trkpt><trkpt lat="43.4134804" lon="11.6588377"><ele>433.5</ele><time>2026-05-03T08:18:42.161Z</time></trkpt><trkpt lat="43.4134904" lon="11.6589489"><ele>431.33333333333337</ele><time>2026-05-03T08:18:43.161Z</time></trkpt><trkpt lat="43.4134997" lon="11.659064"><ele>429.1666666666667</ele><time>2026-05-03T08:18:44.161Z</time></trkpt><trkpt lat="43.4135169" lon="11.6591814"><ele>427.0</ele><time>2026-05-03T08:18:45.16Z</time></trkpt><trkpt lat="43.4135426" lon="11.659296"><ele>427.00000000000006</ele><time>2026-05-03T08:18:46.161Z</time></trkpt><trkpt lat="43.4135746" lon="11.6594046"><ele>427.0</ele><time>2026-05-03T08:18:47.161Z</time></trkpt><trkpt lat="43.4135966" lon="11.6595044"><ele>427.0</ele><time>2026-05-03T08:18:48.162Z</time></trkpt><trkpt lat="43.4136151" lon="11.6595988"><ele>427.0</ele><time>2026-05-03T08:18:49.162Z</time></trkpt><trkpt lat="43.4136334" lon="11.6596822"><ele>427.00000000000006</ele><time>2026-05-03T08:18:50.161Z</time></trkpt><trkpt lat="43.4136876" lon="11.6597855"><ele>427.0</ele><time>2026-05-03T08:18:52.161Z</time></trkpt><trkpt lat="43.4137619" lon="11.6598279"><ele>424.00000000000006</ele><time>2026-05-03T08:18:55.162Z</time></trkpt><trkpt lat="43.4138253" lon="11.6598276"><ele>421.0</ele><time>2026-05-03T08:18:57.162Z</time></trkpt><trkpt lat="43.4139075" lon="11.6598266"><ele>418.0</ele><time>2026-05-03T08:18:59.161Z</time></trkpt><trkpt lat="43.414001" lon="11.6598647"><ele>415.0</ele><time>2026-05-03T08:19:01.16Z</time></trkpt><trkpt lat="43.414078" lon="11.6599602"><ele>412.00000000000006</ele><time>2026-05-03T08:19:03.162Z</time></trkpt><trkpt lat="43.4140869" lon="11.6600965"><ele>409.0</ele><time>2026-05-03T08:19:05.161Z</time></trkpt><trkpt lat="43.4140666" lon="11.6602325"><ele>406.50000000000006</ele><time>2026-05-03T08:19:07.16Z</time></trkpt><trkpt lat="43.4140513" lon="11.6603406"><ele>404.0</ele><time>2026-05-03T08:19:09.161Z</time></trkpt><trkpt lat="43.4140895" lon="11.6604188"><ele>401.5</ele><time>2026-05-03T08:19:11.162Z</time></trkpt><trkpt lat="43.4141597" lon="11.6604705"><ele>399.0</ele><time>2026-05-03T08:19:13.161Z</time></trkpt><trkpt lat="43.4142427" lon="11.6605211"><ele>396.50000000000006</ele><time>2026-05-03T08:19:15.161Z</time></trkpt><trkpt lat="43.4143107" lon="11.6605752"><ele>394.0</ele><time>2026-05-03T08:19:17.162Z</time></trkpt><trkpt lat="43.4143724" lon="11.6606277"><ele>394.00000000000006</ele><time>2026-05-03T08:19:20.162Z</time></trkpt><trkpt lat="43.4144488" lon="11.6606537"><ele>394.0</ele><time>2026-05-03T08:19:23.162Z</time></trkpt><trkpt lat="43.4144806" lon="11.6607617"><ele>394.0</ele><time>2026-05-03T08:19:26.16Z</time></trkpt><trkpt lat="43.414474" lon="11.660857"><ele>394.0</ele><time>2026-05-03T08:19:28.162Z</time></trkpt><trkpt lat="43.4145239" lon="11.660977"><ele>394.00000000000006</ele><time>2026-05-03T08:19:30.162Z</time></trkpt><trkpt lat="43.4145599" lon="11.6610496"><ele>394.0</ele><time>2026-05-03T08:19:31.161Z</time></trkpt><trkpt lat="43.4146043" lon="11.6611252"><ele>391.1666666666667</ele><time>2026-05-03T08:19:32.162Z</time></trkpt><trkpt lat="43.4146468" lon="11.6611991"><ele>388.33333333333337</ele><time>2026-05-03T08:19:33.162Z</time></trkpt><trkpt lat="43.4146944" lon="11.6613316"><ele>385.5</ele><time>2026-05-03T08:19:35.162Z</time></trkpt><trkpt lat="43.4147158" lon="11.6614628"><ele>382.6666666666667</ele><time>2026-05-03T08:19:37.162Z</time></trkpt><trkpt lat="43.4147326" lon="11.6615674"><ele>379.83333333333337</ele><time>2026-05-03T08:19:39.161Z</time></trkpt><trkpt lat="43.4147416" lon="11.6616572"><ele>377.0</ele><time>2026-05-03T08:19:41.162Z</time></trkpt><trkpt lat="43.4146776" lon="11.6616855"><ele>377.0</ele><time>2026-05-03T08:19:44.162Z</time></trkpt><trkpt lat="43.414668" lon="11.6615937"><ele>377.0</ele><time>2026-05-03T08:19:46.161Z</time></trkpt><trkpt lat="43.4147405" lon="11.6615075"><ele>377.0</ele><time>2026-05-03T08:19:48.161Z</time></trkpt><trkpt lat="43.4147942" lon="11.6614178"><ele>377.0</ele><time>2026-05-03T08:19:50.16Z</time></trkpt><trkpt lat="43.4148169" lon="11.6612548"><ele>377.0</ele><time>2026-05-03T08:19:52.161Z</time></trkpt><trkpt lat="43.4148309" lon="11.6611607"><ele>377.0</ele><time>2026-05-03T08:19:53.16Z</time></trkpt><trkpt lat="43.4148419" lon="11.6610622"><ele>377.0</ele><time>2026-05-03T08:19:54.161Z</time></trkpt><trkpt lat="43.4148583" lon="11.6609611"><ele>377.0</ele><time>2026-05-03T08:19:55.162Z</time></trkpt><trkpt lat="43.4149278" lon="11.6608098"><ele>377.0</ele><time>2026-05-03T08:19:57.162Z</time></trkpt><trkpt lat="43.4149835" lon="11.6607017"><ele>377.0</ele><time>2026-05-03T08:19:58.162Z</time></trkpt><trkpt lat="43.4150243" lon="11.6606186"><ele>377.0</ele><time>2026-05-03T08:19:59.161Z</time></trkpt><trkpt lat="43.4150972" lon="11.6605399"><ele>377.0</ele><time>2026-05-03T08:20:00.161Z</time></trkpt><trkpt lat="43.4151595" lon="11.6604364"><ele>377.0</ele><time>2026-05-03T08:20:01.162Z</time></trkpt><trkpt lat="43.4152279" lon="11.6603418"><ele>377.0</ele><time>2026-05-03T08:20:02.162Z</time></trkpt><trkpt lat="43.4152833" lon="11.660278"><ele>377.0</ele><time>2026-05-03T08:20:03.161Z</time></trkpt><trkpt lat="43.415334" lon="11.6601945"><ele>377.0</ele><time>2026-05-03T08:20:04.162Z</time></trkpt><trkpt lat="43.4153854" lon="11.6601171"><ele>377.0</ele><time>2026-05-03T08:20:05.162Z</time></trkpt><trkpt lat="43.4154222" lon="11.6600337"><ele>377.1666666666667</ele><time>2026-05-03T08:20:06.162Z</time></trkpt><trkpt lat="43.4154605" lon="11.6598886"><ele>377.33333333333337</ele><time>2026-05-03T08:20:08.162Z</time></trkpt><trkpt lat="43.4155253" lon="11.6598485"><ele>377.5</ele><time>2026-05-03T08:20:11.161Z</time></trkpt><trkpt lat="43.4156042" lon="11.6599262"><ele>377.6666666666667</ele><time>2026-05-03T08:20:13.161Z</time></trkpt><trkpt lat="43.4156579" lon="11.6599907"><ele>377.8333333333333</ele><time>2026-05-03T08:20:14.162Z</time></trkpt><trkpt lat="43.4157352" lon="11.660068"><ele>378.0</ele><time>2026-05-03T08:20:15.162Z</time></trkpt><trkpt lat="43.4158004" lon="11.6601505"><ele>378.0</ele><time>2026-05-03T08:20:16.162Z</time></trkpt><trkpt lat="43.4158707" lon="11.6602048"><ele>378.0</ele><time>2026-05-03T08:20:17.161Z</time></trkpt><trkpt lat="43.4159462" lon="11.6602476"><ele>378.0</ele><time>2026-05-03T08:20:18.161Z</time></trkpt><trkpt lat="43.4160131" lon="11.6602887"><ele>378.0</ele><time>2026-05-03T08:20:19.162Z</time></trkpt><trkpt lat="43.4160891" lon="11.6603334"><ele>378.0</ele><time>2026-05-03T08:20:20.162Z</time></trkpt><trkpt lat="43.4162476" lon="11.6603336"><ele>377.2</ele><time>2026-05-03T08:20:22.161Z</time></trkpt><trkpt lat="43.4163321" lon="11.6603014"><ele>376.4</ele><time>2026-05-03T08:20:23.162Z</time></trkpt><trkpt lat="43.4164168" lon="11.660268"><ele>375.59999999999997</ele><time>2026-05-03T08:20:24.162Z</time></trkpt><trkpt lat="43.4165099" lon="11.6601889"><ele>374.79999999999995</ele><time>2026-05-03T08:20:25.162Z</time></trkpt><trkpt lat="43.4165985" lon="11.6601328"><ele>374.0</ele><time>2026-05-03T08:20:26.161Z</time></trkpt><trkpt lat="43.4166875" lon="11.6601047"><ele>374.0</ele><time>2026-05-03T08:20:27.161Z</time></trkpt><trkpt lat="43.4167684" lon="11.6600818"><ele>374.0</ele><time>2026-05-03T08:20:28.161Z</time></trkpt><trkpt lat="43.4168898" lon="11.6601147"><ele>374.0</ele><time>2026-05-03T08:20:30.161Z</time></trkpt><trkpt lat="43.4169614" lon="11.6601852"><ele>374.0</ele><time>2026-05-03T08:20:31.16Z</time></trkpt><trkpt lat="43.4170348" lon="11.66022"><ele>374.0</ele><time>2026-05-03T08:20:32.161Z</time></trkpt><trkpt lat="43.4170939" lon="11.6602627"><ele>374.0</ele><time>2026-05-03T08:20:33.16Z</time></trkpt><trkpt lat="43.4171784" lon="11.6603267"><ele>371.0</ele><time>2026-05-03T08:20:35.162Z</time></trkpt><trkpt lat="43.417162" lon="11.6604611"><ele>368.0</ele><time>2026-05-03T08:20:37.162Z</time></trkpt><trkpt lat="43.4171304" lon="11.6605926"><ele>365.0</ele><time>2026-05-03T08:20:39.162Z</time></trkpt><trkpt lat="43.4171085" lon="11.6606752"><ele>362.0</ele><time>2026-05-03T08:20:40.162Z</time></trkpt><trkpt lat="43.4170854" lon="11.6607629"><ele>359.0</ele><time>2026-05-03T08:20:41.162Z</time></trkpt><trkpt lat="43.4170659" lon="11.660921"><ele>356.0</ele><time>2026-05-03T08:20:43.161Z</time></trkpt><trkpt lat="43.4170364" lon="11.6610864"><ele>353.4</ele><time>2026-05-03T08:20:45.161Z</time></trkpt><trkpt lat="43.4170549" lon="11.6611988"><ele>350.8</ele><time>2026-05-03T08:20:47.162Z</time></trkpt><trkpt lat="43.4171478" lon="11.6612897"><ele>348.2</ele><time>2026-05-03T08:20:49.162Z</time></trkpt><trkpt lat="43.4172033" lon="11.6613604"><ele>345.59999999999997</ele><time>2026-05-03T08:20:50.161Z</time></trkpt><trkpt lat="43.4172906" lon="11.6614976"><ele>343.0</ele><time>2026-05-03T08:20:52.16Z</time></trkpt><trkpt lat="43.4173447" lon="11.6615648"><ele>342.5</ele><time>2026-05-03T08:20:53.161Z</time></trkpt><trkpt lat="43.4173993" lon="11.6616403"><ele>342.0</ele><time>2026-05-03T08:20:54.162Z</time></trkpt><trkpt lat="43.4174313" lon="11.6617296"><ele>341.5</ele><time>2026-05-03T08:20:55.162Z</time></trkpt><trkpt lat="43.4174635" lon="11.6619083"><ele>341.0</ele><time>2026-05-03T08:20:57.162Z</time></trkpt><trkpt lat="43.4174835" lon="11.662002"><ele>340.5</ele><time>2026-05-03T08:20:58.162Z</time></trkpt><trkpt lat="43.4175173" lon="11.6620876"><ele>340.0</ele><time>2026-05-03T08:20:59.162Z</time></trkpt><trkpt lat="43.4175655" lon="11.6621628"><ele>338.0</ele><time>2026-05-03T08:21:00.161Z</time></trkpt><trkpt lat="43.4176031" lon="11.6623151"><ele>336.0</ele><time>2026-05-03T08:21:02.162Z</time></trkpt><trkpt lat="43.4175809" lon="11.6624803"><ele>334.0</ele><time>2026-05-03T08:21:04.16Z</time></trkpt><trkpt lat="43.4175687" lon="11.6625864"><ele>332.0</ele><time>2026-05-03T08:21:05.161Z</time></trkpt><trkpt lat="43.4175846" lon="11.6627141"><ele>330.0</ele><time>2026-05-03T08:21:07.162Z</time></trkpt><trkpt lat="43.4176637" lon="11.6627916"><ele>328.3333333333333</ele><time>2026-05-03T08:21:09.162Z</time></trkpt><trkpt lat="43.4177186" lon="11.6628388"><ele>326.6666666666667</ele><time>2026-05-03T08:21:10.161Z</time></trkpt><trkpt lat="43.4177683" lon="11.6629248"><ele>325.0</ele><time>2026-05-03T08:21:11.162Z</time></trkpt><trkpt lat="43.4178117" lon="11.663"><ele>323.33333333333337</ele><time>2026-05-03T08:21:12.161Z</time></trkpt><trkpt lat="43.4178592" lon="11.6630758"><ele>321.6666666666667</ele><time>2026-05-03T08:21:13.162Z</time></trkpt><trkpt lat="43.4179683" lon="11.6631658"><ele>320.0</ele><time>2026-05-03T08:21:15.162Z</time></trkpt><trkpt lat="43.4180342" lon="11.663242"><ele>319.6666666666667</ele><time>2026-05-03T08:21:17.162Z</time></trkpt><trkpt lat="43.4180754" lon="11.6633185"><ele>319.33333333333337</ele><time>2026-05-03T08:21:19.162Z</time></trkpt><trkpt lat="43.4181302" lon="11.6633817"><ele>319.0</ele><time>2026-05-03T08:21:21.162Z</time></trkpt><trkpt lat="43.4182435" lon="11.6634763"><ele>318.6666666666667</ele><time>2026-05-03T08:21:23.162Z</time></trkpt><trkpt lat="43.4183052" lon="11.6635383"><ele>318.3333333333333</ele><time>2026-05-03T08:21:24.161Z</time></trkpt><trkpt lat="43.4183624" lon="11.6636051"><ele>318.0</ele><time>2026-05-03T08:21:25.162Z</time></trkpt><trkpt lat="43.4184216" lon="11.6636663"><ele>316.6666666666667</ele><time>2026-05-03T08:21:26.162Z</time></trkpt><trkpt lat="43.4184837" lon="11.6637127"><ele>315.3333333333333</ele><time>2026-05-03T08:21:27.162Z</time></trkpt><trkpt lat="43.418565" lon="11.6637482"><ele>314.0</ele><time>2026-05-03T08:21:28.162Z</time></trkpt><trkpt lat="43.418635" lon="11.6637888"><ele>312.66666666666663</ele><time>2026-05-03T08:21:29.162Z</time></trkpt><trkpt lat="43.4187141" lon="11.6638424"><ele>311.3333333333333</ele><time>2026-05-03T08:21:30.162Z</time></trkpt><trkpt lat="43.4187933" lon="11.6639125"><ele>310.0</ele><time>2026-05-03T08:21:31.162Z</time></trkpt><trkpt lat="43.4188402" lon="11.6639751"><ele>309.5</ele><time>2026-05-03T08:21:32.162Z</time></trkpt><trkpt lat="43.4188776" lon="11.6640708"><ele>309.0</ele><time>2026-05-03T08:21:33.162Z</time></trkpt><trkpt lat="43.4189306" lon="11.6641445"><ele>308.5</ele><time>2026-05-03T08:21:34.161Z</time></trkpt><trkpt lat="43.4190408" lon="11.6641733"><ele>308.0</ele><time>2026-05-03T08:21:36.162Z</time></trkpt><trkpt lat="43.4191171" lon="11.6641953"><ele>307.5</ele><time>2026-05-03T08:21:37.162Z</time></trkpt><trkpt lat="43.4191817" lon="11.6642003"><ele>307.0</ele><time>2026-05-03T08:21:38.161Z</time></trkpt><trkpt lat="43.4192398" lon="11.6642393"><ele>307.0</ele><time>2026-05-03T08:21:39.161Z</time></trkpt><trkpt lat="43.4193112" lon="11.6642662"><ele>307.0</ele><time>2026-05-03T08:21:40.162Z</time></trkpt><trkpt lat="43.4193937" lon="11.6642967"><ele>307.0</ele><time>2026-05-03T08:21:41.161Z</time></trkpt><trkpt lat="43.4194602" lon="11.6643467"><ele>307.0</ele><time>2026-05-03T08:21:42.162Z</time></trkpt><trkpt lat="43.4195288" lon="11.6644164"><ele>307.0</ele><time>2026-05-03T08:21:43.162Z</time></trkpt><trkpt lat="43.4196161" lon="11.6644828"><ele>307.0</ele><time>2026-05-03T08:21:44.161Z</time></trkpt><trkpt lat="43.4196981" lon="11.6645411"><ele>304.8</ele><time>2026-05-03T08:21:45.161Z</time></trkpt><trkpt lat="43.4197769" lon="11.6646093"><ele>302.6</ele><time>2026-05-03T08:21:46.162Z</time></trkpt><trkpt lat="43.4198632" lon="11.6646794"><ele>300.40000000000003</ele><time>2026-05-03T08:21:47.162Z</time></trkpt><trkpt lat="43.4199298" lon="11.6647513"><ele>298.2</ele><time>2026-05-03T08:21:48.161Z</time></trkpt><trkpt lat="43.4200079" lon="11.6648308"><ele>296.0</ele><time>2026-05-03T08:21:49.161Z</time></trkpt><trkpt lat="43.4200741" lon="11.664924"><ele>296.0</ele><time>2026-05-03T08:21:50.16Z</time></trkpt><trkpt lat="43.4201356" lon="11.6649936"><ele>296.0</ele><time>2026-05-03T08:21:51.161Z</time></trkpt><trkpt lat="43.4201996" lon="11.6650793"><ele>296.0</ele><time>2026-05-03T08:21:52.162Z</time></trkpt><trkpt lat="43.420259" lon="11.6651639"><ele>296.0</ele><time>2026-05-03T08:21:53.162Z</time></trkpt><trkpt lat="43.4203184" lon="11.6652374"><ele>296.0</ele><time>2026-05-03T08:21:54.161Z</time></trkpt><trkpt lat="43.4203285" lon="11.6653569"><ele>296.0</ele><time>2026-05-03T08:21:55.162Z</time></trkpt><trkpt lat="43.420343" lon="11.6654579"><ele>295.0</ele><time>2026-05-03T08:21:56.162Z</time></trkpt><trkpt lat="43.4203153" lon="11.6655446"><ele>294.0</ele><time>2026-05-03T08:21:57.162Z</time></trkpt><trkpt lat="43.4202825" lon="11.6656596"><ele>293.0</ele><time>2026-05-03T08:21:58.162Z</time></trkpt><trkpt lat="43.4202389" lon="11.6657345"><ele>292.0</ele><time>2026-05-03T08:21:59.162Z</time></trkpt><trkpt lat="43.4202138" lon="11.6658147"><ele>291.0</ele><time>2026-05-03T08:22:00.162Z</time></trkpt><trkpt lat="43.4202342" lon="11.6659274"><ele>290.0</ele><time>2026-05-03T08:22:02.162Z</time></trkpt><trkpt lat="43.4203083" lon="11.6660689"><ele>288.83333333333337</ele><time>2026-05-03T08:22:04.162Z</time></trkpt><trkpt lat="43.4203383" lon="11.6661757"><ele>287.6666666666667</ele><time>2026-05-03T08:22:05.161Z</time></trkpt><trkpt lat="43.4203577" lon="11.6663009"><ele>286.5</ele><time>2026-05-03T08:22:06.162Z</time></trkpt><trkpt lat="43.4203569" lon="11.6664212"><ele>285.3333333333333</ele><time>2026-05-03T08:22:07.161Z</time></trkpt><trkpt lat="43.4203745" lon="11.6665485"><ele>284.16666666666663</ele><time>2026-05-03T08:22:08.162Z</time></trkpt><trkpt lat="43.4203914" lon="11.6666716"><ele>283.0</ele><time>2026-05-03T08:22:09.161Z</time></trkpt><trkpt lat="43.4204038" lon="11.6667677"><ele>283.0</ele><time>2026-05-03T08:22:10.162Z</time></trkpt><trkpt lat="43.4204326" lon="11.6668546"><ele>283.0</ele><time>2026-05-03T08:22:11.162Z</time></trkpt><trkpt lat="43.4204922" lon="11.6669211"><ele>283.0</ele><time>2026-05-03T08:22:12.161Z</time></trkpt><trkpt lat="43.4205515" lon="11.6669736"><ele>283.0</ele><time>2026-05-03T08:22:13.162Z</time></trkpt><trkpt lat="43.4206211" lon="11.6669872"><ele>283.0</ele><time>2026-05-03T08:22:14.161Z</time></trkpt><trkpt lat="43.4206868" lon="11.6669786"><ele>283.0</ele><time>2026-05-03T08:22:15.162Z</time></trkpt><trkpt lat="43.4207657" lon="11.666944"><ele>283.0</ele><time>2026-05-03T08:22:16.161Z</time></trkpt><trkpt lat="43.4208487" lon="11.6668912"><ele>281.2</ele><time>2026-05-03T08:22:17.161Z</time></trkpt><trkpt lat="43.4209348" lon="11.6668342"><ele>279.4</ele><time>2026-05-03T08:22:18.161Z</time></trkpt><trkpt lat="43.4210112" lon="11.6667794"><ele>277.59999999999997</ele><time>2026-05-03T08:22:19.161Z</time></trkpt><trkpt lat="43.4210935" lon="11.6667461"><ele>275.8</ele><time>2026-05-03T08:22:20.161Z</time></trkpt><trkpt lat="43.4211745" lon="11.666742"><ele>274.0</ele><time>2026-05-03T08:22:21.161Z</time></trkpt><trkpt lat="43.4212766" lon="11.6667756"><ele>273.8</ele><time>2026-05-03T08:22:23.162Z</time></trkpt><trkpt lat="43.4213731" lon="11.666896"><ele>273.59999999999997</ele><time>2026-05-03T08:22:25.161Z</time></trkpt><trkpt lat="43.4214137" lon="11.6669966"><ele>273.4</ele><time>2026-05-03T08:22:26.162Z</time></trkpt><trkpt lat="43.4214327" lon="11.6671159"><ele>273.2</ele><time>2026-05-03T08:22:27.162Z</time></trkpt><trkpt lat="43.4214402" lon="11.66724"><ele>273.0</ele><time>2026-05-03T08:22:28.162Z</time></trkpt><trkpt lat="43.4214532" lon="11.6673587"><ele>273.0</ele><time>2026-05-03T08:22:29.161Z</time></trkpt><trkpt lat="43.4214815" lon="11.6674474"><ele>273.0</ele><time>2026-05-03T08:22:30.161Z</time></trkpt><trkpt lat="43.4215294" lon="11.6675081"><ele>273.0</ele><time>2026-05-03T08:22:31.162Z</time></trkpt><trkpt lat="43.4215996" lon="11.667545"><ele>273.0</ele><time>2026-05-03T08:22:32.161Z</time></trkpt><trkpt lat="43.4216862" lon="11.6675725"><ele>273.0</ele><time>2026-05-03T08:22:33.162Z</time></trkpt><trkpt lat="43.4217899" lon="11.6675902"><ele>273.0</ele><time>2026-05-03T08:22:34.162Z</time></trkpt><trkpt lat="43.4219029" lon="11.6676074"><ele>273.0</ele><time>2026-05-03T08:22:35.162Z</time></trkpt><trkpt lat="43.4220265" lon="11.6676215"><ele>273.0</ele><time>2026-05-03T08:22:36.161Z</time></trkpt><trkpt lat="43.4221491" lon="11.667637"><ele>273.0</ele><time>2026-05-03T08:22:37.16Z</time></trkpt><trkpt lat="43.4222691" lon="11.6676556"><ele>273.0</ele><time>2026-05-03T08:22:38.162Z</time></trkpt><trkpt lat="43.4223721" lon="11.6676811"><ele>273.1666666666667</ele><time>2026-05-03T08:22:39.162Z</time></trkpt><trkpt lat="43.4224574" lon="11.6677059"><ele>273.3333333333333</ele><time>2026-05-03T08:22:40.161Z</time></trkpt><trkpt lat="43.4225227" lon="11.6677299"><ele>273.5</ele><time>2026-05-03T08:22:41.161Z</time></trkpt><trkpt lat="43.4225917" lon="11.6677234"><ele>273.66666666666663</ele><time>2026-05-03T08:22:43.161Z</time></trkpt><trkpt lat="43.4226582" lon="11.6676697"><ele>273.8333333333333</ele><time>2026-05-03T08:22:45.162Z</time></trkpt><trkpt lat="43.42274" lon="11.6675397"><ele>274.0</ele><time>2026-05-03T08:22:47.161Z</time></trkpt><trkpt lat="43.4227743" lon="11.6674625"><ele>274.00000000000006</ele><time>2026-05-03T08:22:48.161Z</time></trkpt><trkpt lat="43.4228156" lon="11.6673797"><ele>274.0</ele><time>2026-05-03T08:22:49.162Z</time></trkpt><trkpt lat="43.4228551" lon="11.6672873"><ele>274.0</ele><time>2026-05-03T08:22:50.16Z</time></trkpt><trkpt lat="43.4228951" lon="11.6671906"><ele>274.0</ele><time>2026-05-03T08:22:51.162Z</time></trkpt><trkpt lat="43.422939" lon="11.6671024"><ele>274.0</ele><time>2026-05-03T08:22:52.161Z</time></trkpt><trkpt lat="43.4229791" lon="11.6670232"><ele>274.00000000000006</ele><time>2026-05-03T08:22:53.162Z</time></trkpt><trkpt lat="43.4230178" lon="11.6669486"><ele>274.0</ele><time>2026-05-03T08:22:54.162Z</time></trkpt><trkpt lat="43.4230569" lon="11.6668719"><ele>274.16666666666663</ele><time>2026-05-03T08:22:55.162Z</time></trkpt><trkpt lat="43.4230959" lon="11.6667891"><ele>274.3333333333333</ele><time>2026-05-03T08:22:56.161Z</time></trkpt><trkpt lat="43.4231336" lon="11.6667064"><ele>274.5</ele><time>2026-05-03T08:22:57.162Z</time></trkpt><trkpt lat="43.423177" lon="11.6666107"><ele>274.6666666666667</ele><time>2026-05-03T08:22:58.162Z</time></trkpt><trkpt lat="43.4232238" lon="11.6665131"><ele>274.83333333333337</ele><time>2026-05-03T08:22:59.162Z</time></trkpt><trkpt lat="43.4232785" lon="11.6664127"><ele>275.0</ele><time>2026-05-03T08:23:00.162Z</time></trkpt><trkpt lat="43.4233302" lon="11.6662995"><ele>275.0</ele><time>2026-05-03T08:23:01.162Z</time></trkpt><trkpt lat="43.4233849" lon="11.6661833"><ele>275.0</ele><time>2026-05-03T08:23:02.162Z</time></trkpt><trkpt lat="43.423446" lon="11.6660602"><ele>275.0</ele><time>2026-05-03T08:23:03.161Z</time></trkpt><trkpt lat="43.4235139" lon="11.6659357"><ele>275.0</ele><time>2026-05-03T08:23:04.162Z</time></trkpt><trkpt lat="43.4235871" lon="11.6658078"><ele>275.0</ele><time>2026-05-03T08:23:05.162Z</time></trkpt><trkpt lat="43.4236651" lon="11.6656779"><ele>275.0</ele><time>2026-05-03T08:23:06.161Z</time></trkpt><trkpt lat="43.4237463" lon="11.6655513"><ele>275.0</ele><time>2026-05-03T08:23:07.162Z</time></trkpt><trkpt lat="43.4238312" lon="11.6654239"><ele>275.0</ele><time>2026-05-03T08:23:08.162Z</time></trkpt><trkpt lat="43.423919" lon="11.665294"><ele>275.0</ele><time>2026-05-03T08:23:09.161Z</time></trkpt><trkpt lat="43.4240106" lon="11.665171"><ele>273.0</ele><time>2026-05-03T08:23:10.162Z</time></trkpt><trkpt lat="43.4241135" lon="11.6650589"><ele>271.0</ele><time>2026-05-03T08:23:11.162Z</time></trkpt><trkpt lat="43.4242281" lon="11.6649656"><ele>269.0</ele><time>2026-05-03T08:23:12.161Z</time></trkpt><trkpt lat="43.424351" lon="11.6648878"><ele>267.0</ele><time>2026-05-03T08:23:13.162Z</time></trkpt><trkpt lat="43.4244845" lon="11.6648266"><ele>267.0</ele><time>2026-05-03T08:23:14.162Z</time></trkpt><trkpt lat="43.4246215" lon="11.6647751"><ele>267.0</ele><time>2026-05-03T08:23:15.161Z</time></trkpt><trkpt lat="43.4247595" lon="11.6647252"><ele>267.0</ele><time>2026-05-03T08:23:16.162Z</time></trkpt><trkpt lat="43.4249006" lon="11.6646765"><ele>267.0</ele><time>2026-05-03T08:23:17.162Z</time></trkpt><trkpt lat="43.4250434" lon="11.6646294"><ele>267.5</ele><time>2026-05-03T08:23:18.162Z</time></trkpt><trkpt lat="43.4251825" lon="11.6645844"><ele>268.0</ele><time>2026-05-03T08:23:19.162Z</time></trkpt><trkpt lat="43.4253275" lon="11.6645355"><ele>268.5</ele><time>2026-05-03T08:23:20.161Z</time></trkpt><trkpt lat="43.4254727" lon="11.664487"><ele>269.0</ele><time>2026-05-03T08:23:21.161Z</time></trkpt><trkpt lat="43.425612" lon="11.6644393"><ele>267.6666666666667</ele><time>2026-05-03T08:23:22.162Z</time></trkpt><trkpt lat="43.4257574" lon="11.6643873"><ele>266.3333333333333</ele><time>2026-05-03T08:23:23.161Z</time></trkpt><trkpt lat="43.4259039" lon="11.6643347"><ele>265.0</ele><time>2026-05-03T08:23:24.16Z</time></trkpt><trkpt lat="43.4260516" lon="11.6642808"><ele>265.0</ele><time>2026-05-03T08:23:25.161Z</time></trkpt><trkpt lat="43.4261996" lon="11.6642191"><ele>265.0</ele><time>2026-05-03T08:23:26.161Z</time></trkpt><trkpt lat="43.4263472" lon="11.6641499"><ele>265.0</ele><time>2026-05-03T08:23:27.161Z</time></trkpt><trkpt lat="43.4264945" lon="11.6640734"><ele>265.0</ele><time>2026-05-03T08:23:28.161Z</time></trkpt><trkpt lat="43.4266405" lon="11.6639872"><ele>265.0</ele><time>2026-05-03T08:23:29.161Z</time></trkpt><trkpt lat="43.4267854" lon="11.6638968"><ele>265.0</ele><time>2026-05-03T08:23:30.162Z</time></trkpt><trkpt lat="43.4269313" lon="11.6638017"><ele>265.0</ele><time>2026-05-03T08:23:31.162Z</time></trkpt><trkpt lat="43.4270778" lon="11.6637058"><ele>265.0</ele><time>2026-05-03T08:23:32.162Z</time></trkpt><trkpt lat="43.4272246" lon="11.6636096"><ele>265.0</ele><time>2026-05-03T08:23:33.161Z</time></trkpt><trkpt lat="43.4273683" lon="11.663517"><ele>263.66666666666663</ele><time>2026-05-03T08:23:34.16Z</time></trkpt><trkpt lat="43.427515" lon="11.6634234"><ele>262.3333333333333</ele><time>2026-05-03T08:23:35.162Z</time></trkpt><trkpt lat="43.4276573" lon="11.6633344"><ele>261.0</ele><time>2026-05-03T08:23:36.162Z</time></trkpt><trkpt lat="43.4278025" lon="11.6632426"><ele>261.0</ele><time>2026-05-03T08:23:37.162Z</time></trkpt><trkpt lat="43.4279481" lon="11.6631461"><ele>261.0</ele><time>2026-05-03T08:23:38.16Z</time></trkpt><trkpt lat="43.428095" lon="11.6630477"><ele>261.0</ele><time>2026-05-03T08:23:39.162Z</time></trkpt><trkpt lat="43.4282431" lon="11.6629515"><ele>260.6666666666667</ele><time>2026-05-03T08:23:40.162Z</time></trkpt><trkpt lat="43.4283919" lon="11.6628576"><ele>260.33333333333337</ele><time>2026-05-03T08:23:41.162Z</time></trkpt><trkpt lat="43.4285386" lon="11.6627642"><ele>260.0</ele><time>2026-05-03T08:23:42.162Z</time></trkpt><trkpt lat="43.4286868" lon="11.6626705"><ele>259.33333333333337</ele><time>2026-05-03T08:23:43.162Z</time></trkpt><trkpt lat="43.4288347" lon="11.6625743"><ele>258.6666666666667</ele><time>2026-05-03T08:23:44.162Z</time></trkpt><trkpt lat="43.428978" lon="11.6624664"><ele>258.0</ele><time>2026-05-03T08:23:45.161Z</time></trkpt><trkpt lat="43.4291181" lon="11.66235"><ele>258.0</ele><time>2026-05-03T08:23:46.162Z</time></trkpt><trkpt lat="43.4292562" lon="11.6622259"><ele>258.0</ele><time>2026-05-03T08:23:47.161Z</time></trkpt><trkpt lat="43.4293911" lon="11.6620948"><ele>258.0</ele><time>2026-05-03T08:23:48.162Z</time></trkpt><trkpt lat="43.429524" lon="11.6619595"><ele>257.6666666666667</ele><time>2026-05-03T08:23:49.162Z</time></trkpt><trkpt lat="43.4296546" lon="11.6618245"><ele>257.33333333333337</ele><time>2026-05-03T08:23:50.162Z</time></trkpt><trkpt lat="43.4297866" lon="11.6616947"><ele>257.0</ele><time>2026-05-03T08:23:51.162Z</time></trkpt><trkpt lat="43.4299236" lon="11.6615739"><ele>257.0</ele><time>2026-05-03T08:23:52.162Z</time></trkpt><trkpt lat="43.4300669" lon="11.6614698"><ele>257.0</ele><time>2026-05-03T08:23:53.162Z</time></trkpt><trkpt lat="43.4302161" lon="11.6613824"><ele>257.0</ele><time>2026-05-03T08:23:54.162Z</time></trkpt><trkpt lat="43.4303691" lon="11.6613111"><ele>257.33333333333337</ele><time>2026-05-03T08:23:55.161Z</time></trkpt><trkpt lat="43.4305257" lon="11.6612602"><ele>257.6666666666667</ele><time>2026-05-03T08:23:56.161Z</time></trkpt><trkpt lat="43.4306852" lon="11.6612248"><ele>258.0</ele><time>2026-05-03T08:23:57.161Z</time></trkpt><trkpt lat="43.4308457" lon="11.6611993"><ele>258.0</ele><time>2026-05-03T08:23:58.16Z</time></trkpt><trkpt lat="43.4310068" lon="11.6611754"><ele>258.0</ele><time>2026-05-03T08:23:59.162Z</time></trkpt><trkpt lat="43.4311689" lon="11.661151"><ele>258.0</ele><time>2026-05-03T08:24:00.162Z</time></trkpt><trkpt lat="43.4313334" lon="11.6611274"><ele>257.6666666666667</ele><time>2026-05-03T08:24:01.162Z</time></trkpt><trkpt lat="43.4314963" lon="11.661103"><ele>257.33333333333337</ele><time>2026-05-03T08:24:02.161Z</time></trkpt><trkpt lat="43.4316595" lon="11.6610806"><ele>257.0</ele><time>2026-05-03T08:24:03.161Z</time></trkpt><trkpt lat="43.4318226" lon="11.6610584"><ele>257.0</ele><time>2026-05-03T08:24:04.161Z</time></trkpt><trkpt lat="43.4319848" lon="11.661034"><ele>257.0</ele><time>2026-05-03T08:24:05.162Z</time></trkpt><trkpt lat="43.4321462" lon="11.6610061"><ele>257.0</ele><time>2026-05-03T08:24:06.162Z</time></trkpt><trkpt lat="43.4323072" lon="11.6609706"><ele>256.6666666666667</ele><time>2026-05-03T08:24:07.162Z</time></trkpt><trkpt lat="43.4324688" lon="11.6609268"><ele>256.3333333333333</ele><time>2026-05-03T08:24:08.161Z</time></trkpt><trkpt lat="43.4326276" lon="11.6608775"><ele>256.0</ele><time>2026-05-03T08:24:09.162Z</time></trkpt><trkpt lat="43.4327853" lon="11.6608231"><ele>256.0</ele><time>2026-05-03T08:24:10.162Z</time></trkpt><trkpt lat="43.4329436" lon="11.6607697"><ele>256.0</ele><time>2026-05-03T08:24:11.161Z</time></trkpt><trkpt lat="43.4331027" lon="11.6607161"><ele>256.0</ele><time>2026-05-03T08:24:12.162Z</time></trkpt><trkpt lat="43.4332621" lon="11.6606636"><ele>256.3333333333333</ele><time>2026-05-03T08:24:13.161Z</time></trkpt><trkpt lat="43.4334217" lon="11.6606098"><ele>256.6666666666667</ele><time>2026-05-03T08:24:14.162Z</time></trkpt><trkpt lat="43.4335792" lon="11.660554"><ele>257.0</ele><time>2026-05-03T08:24:15.162Z</time></trkpt><trkpt lat="43.4337365" lon="11.6605032"><ele>258.0</ele><time>2026-05-03T08:24:16.161Z</time></trkpt><trkpt lat="43.4338959" lon="11.6604499"><ele>259.0</ele><time>2026-05-03T08:24:17.161Z</time></trkpt><trkpt lat="43.4340517" lon="11.660392"><ele>260.0</ele><time>2026-05-03T08:24:18.162Z</time></trkpt><trkpt lat="43.4342078" lon="11.6603325"><ele>258.33333333333337</ele><time>2026-05-03T08:24:19.162Z</time></trkpt><trkpt lat="43.4343621" lon="11.6602723"><ele>256.6666666666667</ele><time>2026-05-03T08:24:20.161Z</time></trkpt><trkpt lat="43.4345162" lon="11.6602088"><ele>255.0</ele><time>2026-05-03T08:24:21.161Z</time></trkpt><trkpt lat="43.4346702" lon="11.6601465"><ele>255.0</ele><time>2026-05-03T08:24:22.16Z</time></trkpt><trkpt lat="43.4348251" lon="11.6600848"><ele>255.0</ele><time>2026-05-03T08:24:23.16Z</time></trkpt><trkpt lat="43.434981" lon="11.6600229"><ele>255.0</ele><time>2026-05-03T08:24:24.161Z</time></trkpt><trkpt lat="43.4351369" lon="11.659961"><ele>255.0</ele><time>2026-05-03T08:24:25.162Z</time></trkpt><trkpt lat="43.4352931" lon="11.6598979"><ele>255.0</ele><time>2026-05-03T08:24:26.161Z</time></trkpt><trkpt lat="43.4354474" lon="11.6598312"><ele>255.0</ele><time>2026-05-03T08:24:27.161Z</time></trkpt><trkpt lat="43.435602" lon="11.6597684"><ele>254.5</ele><time>2026-05-03T08:24:28.162Z</time></trkpt><trkpt lat="43.4357514" lon="11.6597106"><ele>254.0</ele><time>2026-05-03T08:24:29.161Z</time></trkpt><trkpt lat="43.4358904" lon="11.6596612"><ele>253.5</ele><time>2026-05-03T08:24:30.162Z</time></trkpt><trkpt lat="43.4360222" lon="11.6596226"><ele>253.0</ele><time>2026-05-03T08:24:31.161Z</time></trkpt><trkpt lat="43.4361462" lon="11.6595994"><ele>253.0</ele><time>2026-05-03T08:24:32.162Z</time></trkpt><trkpt lat="43.4362626" lon="11.6595899"><ele>253.0</ele><time>2026-05-03T08:24:33.161Z</time></trkpt><trkpt lat="43.4363718" lon="11.6595893"><ele>253.0</ele><time>2026-05-03T08:24:34.161Z</time></trkpt><trkpt lat="43.4364729" lon="11.6595931"><ele>253.0</ele><time>2026-05-03T08:24:35.162Z</time></trkpt><trkpt lat="43.4365634" lon="11.6595984"><ele>253.0</ele><time>2026-05-03T08:24:36.162Z</time></trkpt><trkpt lat="43.4366419" lon="11.6596129"><ele>253.33333333333331</ele><time>2026-05-03T08:24:37.161Z</time></trkpt><trkpt lat="43.4366995" lon="11.6596593"><ele>253.66666666666666</ele><time>2026-05-03T08:24:38.162Z</time></trkpt><trkpt lat="43.4367364" lon="11.659738"><ele>254.0</ele><time>2026-05-03T08:24:39.162Z</time></trkpt><trkpt lat="43.4367742" lon="11.6598479"><ele>254.33333333333331</ele><time>2026-05-03T08:24:40.162Z</time></trkpt><trkpt lat="43.436806" lon="11.6599828"><ele>254.66666666666666</ele><time>2026-05-03T08:24:41.162Z</time></trkpt><trkpt lat="43.436837" lon="11.6601268"><ele>255.0</ele><time>2026-05-03T08:24:42.161Z</time></trkpt><trkpt lat="43.4368734" lon="11.6602806"><ele>255.25</ele><time>2026-05-03T08:24:43.161Z</time></trkpt><trkpt lat="43.436916" lon="11.6604447"><ele>255.5</ele><time>2026-05-03T08:24:44.162Z</time></trkpt><trkpt lat="43.4369576" lon="11.6606055"><ele>255.75</ele><time>2026-05-03T08:24:45.161Z</time></trkpt><trkpt lat="43.4370051" lon="11.660771"><ele>256.0</ele><time>2026-05-03T08:24:46.162Z</time></trkpt><trkpt lat="43.4370508" lon="11.6609356"><ele>256.0</ele><time>2026-05-03T08:24:47.162Z</time></trkpt><trkpt lat="43.4370932" lon="11.6611013"><ele>256.0</ele><time>2026-05-03T08:24:48.162Z</time></trkpt><trkpt lat="43.4371387" lon="11.6612664"><ele>256.0</ele><time>2026-05-03T08:24:49.162Z</time></trkpt><trkpt lat="43.4371816" lon="11.6614331"><ele>256.0</ele><time>2026-05-03T08:24:50.161Z</time></trkpt><trkpt lat="43.4372287" lon="11.6615964"><ele>258.5</ele><time>2026-05-03T08:24:51.161Z</time></trkpt><trkpt lat="43.4372724" lon="11.6617659"><ele>261.0</ele><time>2026-05-03T08:24:52.161Z</time></trkpt><trkpt lat="43.4373152" lon="11.6619298"><ele>263.5</ele><time>2026-05-03T08:24:53.161Z</time></trkpt><trkpt lat="43.4373597" lon="11.662086"><ele>266.0</ele><time>2026-05-03T08:24:54.161Z</time></trkpt><trkpt lat="43.4374036" lon="11.6622417"><ele>268.0</ele><time>2026-05-03T08:24:55.161Z</time></trkpt><trkpt lat="43.4374424" lon="11.6623974"><ele>270.0</ele><time>2026-05-03T08:24:56.162Z</time></trkpt><trkpt lat="43.4374739" lon="11.6625516"><ele>272.0</ele><time>2026-05-03T08:24:57.161Z</time></trkpt><trkpt lat="43.4375115" lon="11.6627094"><ele>274.0</ele><time>2026-05-03T08:24:58.162Z</time></trkpt><trkpt lat="43.4375448" lon="11.6628661"><ele>276.75</ele><time>2026-05-03T08:24:59.161Z</time></trkpt><trkpt lat="43.437592" lon="11.6630191"><ele>279.5</ele><time>2026-05-03T08:25:00.162Z</time></trkpt><trkpt lat="43.4376263" lon="11.6631668"><ele>282.25</ele><time>2026-05-03T08:25:01.161Z</time></trkpt><trkpt lat="43.4376656" lon="11.6633153"><ele>285.0</ele><time>2026-05-03T08:25:02.161Z</time></trkpt><trkpt lat="43.4377222" lon="11.6634627"><ele>286.4</ele><time>2026-05-03T08:25:03.16Z</time></trkpt><trkpt lat="43.4377619" lon="11.6636197"><ele>287.8</ele><time>2026-05-03T08:25:04.162Z</time></trkpt><trkpt lat="43.4377952" lon="11.6637777"><ele>289.2</ele><time>2026-05-03T08:25:05.162Z</time></trkpt><trkpt lat="43.4378293" lon="11.6639045"><ele>290.6</ele><time>2026-05-03T08:25:06.162Z</time></trkpt><trkpt lat="43.4378583" lon="11.66401"><ele>292.0</ele><time>2026-05-03T08:25:07.162Z</time></trkpt><trkpt lat="43.4379196" lon="11.6641105"><ele>292.2</ele><time>2026-05-03T08:25:09.161Z</time></trkpt><trkpt lat="43.4379989" lon="11.6640249"><ele>292.4</ele><time>2026-05-03T08:25:12.162Z</time></trkpt><trkpt lat="43.4381131" lon="11.6639078"><ele>292.6</ele><time>2026-05-03T08:25:14.161Z</time></trkpt><trkpt lat="43.4382081" lon="11.6638687"><ele>292.8</ele><time>2026-05-03T08:25:15.161Z</time></trkpt><trkpt lat="43.4383072" lon="11.6638437"><ele>293.0</ele><time>2026-05-03T08:25:16.162Z</time></trkpt><trkpt lat="43.4383975" lon="11.6638271"><ele>293.0</ele><time>2026-05-03T08:25:17.161Z</time></trkpt><trkpt lat="43.4384772" lon="11.6638086"><ele>293.0</ele><time>2026-05-03T08:25:18.161Z</time></trkpt><trkpt lat="43.4385478" lon="11.6638056"><ele>293.0</ele><time>2026-05-03T08:25:19.161Z</time></trkpt><trkpt lat="43.4386651" lon="11.663819"><ele>293.0</ele><time>2026-05-03T08:25:21.161Z</time></trkpt><trkpt lat="43.4387684" lon="11.6638662"><ele>293.0</ele><time>2026-05-03T08:25:23.162Z</time></trkpt><trkpt lat="43.4388442" lon="11.6639324"><ele>292.8</ele><time>2026-05-03T08:25:25.162Z</time></trkpt><trkpt lat="43.438928" lon="11.6640329"><ele>292.6</ele><time>2026-05-03T08:25:27.162Z</time></trkpt><trkpt lat="43.4390172" lon="11.6641059"><ele>292.4</ele><time>2026-05-03T08:25:29.162Z</time></trkpt><trkpt lat="43.4391177" lon="11.6640848"><ele>292.2</ele><time>2026-05-03T08:25:31.162Z</time></trkpt><trkpt lat="43.4392129" lon="11.6640602"><ele>292.0</ele><time>2026-05-03T08:25:33.162Z</time></trkpt><trkpt lat="43.4393014" lon="11.6640771"><ele>292.0</ele><time>2026-05-03T08:25:35.161Z</time></trkpt><trkpt lat="43.4393988" lon="11.6641284"><ele>292.0</ele><time>2026-05-03T08:25:37.162Z</time></trkpt><trkpt lat="43.4394991" lon="11.664104"><ele>292.0</ele><time>2026-05-03T08:25:39.162Z</time></trkpt><trkpt lat="43.4395853" lon="11.6639763"><ele>292.0</ele><time>2026-05-03T08:25:41.162Z</time></trkpt><trkpt lat="43.439634" lon="11.6638839"><ele>292.0</ele><time>2026-05-03T08:25:42.162Z</time></trkpt><trkpt lat="43.4396789" lon="11.6638138"><ele>292.0</ele><time>2026-05-03T08:25:43.161Z</time></trkpt><trkpt lat="43.4397288" lon="11.6637444"><ele>292.0</ele><time>2026-05-03T08:25:44.161Z</time></trkpt><trkpt lat="43.4397822" lon="11.6636848"><ele>292.0</ele><time>2026-05-03T08:25:45.161Z</time></trkpt><trkpt lat="43.4398878" lon="11.6635674"><ele>292.0</ele><time>2026-05-03T08:25:47.161Z</time></trkpt><trkpt lat="43.4400026" lon="11.6635266"><ele>292.0</ele><time>2026-05-03T08:25:49.161Z</time></trkpt><trkpt lat="43.4400683" lon="11.6635178"><ele>292.16666666666663</ele><time>2026-05-03T08:25:50.161Z</time></trkpt><trkpt lat="43.4401426" lon="11.6635118"><ele>292.3333333333333</ele><time>2026-05-03T08:25:51.162Z</time></trkpt><trkpt lat="43.4402205" lon="11.663519"><ele>292.5</ele><time>2026-05-03T08:25:52.161Z</time></trkpt><trkpt lat="43.4402858" lon="11.6635384"><ele>292.6666666666667</ele><time>2026-05-03T08:25:53.162Z</time></trkpt><trkpt lat="43.440356" lon="11.6635722"><ele>292.83333333333337</ele><time>2026-05-03T08:25:54.161Z</time></trkpt><trkpt lat="43.4404762" lon="11.6636346"><ele>293.0</ele><time>2026-05-03T08:25:56.161Z</time></trkpt><trkpt lat="43.4405507" lon="11.6636443"><ele>293.0</ele><time>2026-05-03T08:25:57.161Z</time></trkpt><trkpt lat="43.4406492" lon="11.6636463"><ele>293.0</ele><time>2026-05-03T08:25:59.162Z</time></trkpt><trkpt lat="43.4407311" lon="11.6636629"><ele>293.0</ele><time>2026-05-03T08:26:01.162Z</time></trkpt><trkpt lat="43.4407909" lon="11.663692"><ele>293.0</ele><time>2026-05-03T08:26:03.162Z</time></trkpt><trkpt lat="43.4408725" lon="11.6637283"><ele>293.0</ele><time>2026-05-03T08:26:05.162Z</time></trkpt><trkpt lat="43.4409899" lon="11.6638033"><ele>293.0</ele><time>2026-05-03T08:26:07.161Z</time></trkpt><trkpt lat="43.4410629" lon="11.6638645"><ele>293.0</ele><time>2026-05-03T08:26:08.161Z</time></trkpt><trkpt lat="43.4411363" lon="11.6639404"><ele>293.0</ele><time>2026-05-03T08:26:09.161Z</time></trkpt><trkpt lat="43.4412116" lon="11.6640099"><ele>293.0</ele><time>2026-05-03T08:26:10.161Z</time></trkpt><trkpt lat="43.4412877" lon="11.664073"><ele>293.0</ele><time>2026-05-03T08:26:11.161Z</time></trkpt><trkpt lat="43.4413613" lon="11.6641417"><ele>293.0</ele><time>2026-05-03T08:26:12.162Z</time></trkpt><trkpt lat="43.441441" lon="11.6641773"><ele>292.4</ele><time>2026-05-03T08:26:13.162Z</time></trkpt><trkpt lat="43.441508" lon="11.6642164"><ele>291.8</ele><time>2026-05-03T08:26:14.161Z</time></trkpt><trkpt lat="43.4416296" lon="11.6642005"><ele>291.2</ele><time>2026-05-03T08:26:15.162Z</time></trkpt><trkpt lat="43.4417152" lon="11.6642094"><ele>290.6</ele><time>2026-05-03T08:26:16.161Z</time></trkpt><trkpt lat="43.4417964" lon="11.664249"><ele>290.0</ele><time>2026-05-03T08:26:17.162Z</time></trkpt><trkpt lat="43.4418854" lon="11.6642849"><ele>290.0</ele><time>2026-05-03T08:26:18.161Z</time></trkpt><trkpt lat="43.4419617" lon="11.6643439"><ele>290.0</ele><time>2026-05-03T08:26:19.161Z</time></trkpt><trkpt lat="43.4420379" lon="11.6644095"><ele>290.0</ele><time>2026-05-03T08:26:20.162Z</time></trkpt><trkpt lat="43.442118" lon="11.6644778"><ele>290.0</ele><time>2026-05-03T08:26:21.161Z</time></trkpt><trkpt lat="43.4421732" lon="11.6645278"><ele>290.0</ele><time>2026-05-03T08:26:22.162Z</time></trkpt><trkpt lat="43.4422802" lon="11.664567"><ele>290.0</ele><time>2026-05-03T08:26:24.162Z</time></trkpt><trkpt lat="43.4423602" lon="11.6645433"><ele>290.5</ele><time>2026-05-03T08:26:25.162Z</time></trkpt><trkpt lat="43.4424372" lon="11.6645521"><ele>291.0</ele><time>2026-05-03T08:26:26.16Z</time></trkpt><trkpt lat="43.4425171" lon="11.6645648"><ele>291.5</ele><time>2026-05-03T08:26:27.161Z</time></trkpt><trkpt lat="43.4425855" lon="11.6645791"><ele>292.0</ele><time>2026-05-03T08:26:28.161Z</time></trkpt><trkpt lat="43.4426893" lon="11.6646054"><ele>292.5</ele><time>2026-05-03T08:26:30.161Z</time></trkpt><trkpt lat="43.4427529" lon="11.6646334"><ele>293.0</ele><time>2026-05-03T08:26:32.161Z</time></trkpt><trkpt lat="43.4428172" lon="11.664696"><ele>293.0</ele><time>2026-05-03T08:26:34.161Z</time></trkpt><trkpt lat="43.4428609" lon="11.664773"><ele>293.0</ele><time>2026-05-03T08:26:35.162Z</time></trkpt><trkpt lat="43.4429176" lon="11.6648548"><ele>293.0</ele><time>2026-05-03T08:26:36.161Z</time></trkpt><trkpt lat="43.4429774" lon="11.6649554"><ele>293.0</ele><time>2026-05-03T08:26:37.162Z</time></trkpt><trkpt lat="43.4430447" lon="11.6650671"><ele>293.0</ele><time>2026-05-03T08:26:38.162Z</time></trkpt><trkpt lat="43.443114" lon="11.6651827"><ele>290.5</ele><time>2026-05-03T08:26:39.162Z</time></trkpt><trkpt lat="43.4431893" lon="11.6653031"><ele>288.0</ele><time>2026-05-03T08:26:40.162Z</time></trkpt><trkpt lat="43.4432655" lon="11.6654294"><ele>285.5</ele><time>2026-05-03T08:26:41.162Z</time></trkpt><trkpt lat="43.4433408" lon="11.6655608"><ele>283.0</ele><time>2026-05-03T08:26:42.162Z</time></trkpt><trkpt lat="43.4434239" lon="11.665691"><ele>283.0</ele><time>2026-05-03T08:26:43.162Z</time></trkpt><trkpt lat="43.443505" lon="11.6658204"><ele>283.0</ele><time>2026-05-03T08:26:44.162Z</time></trkpt><trkpt lat="43.4435971" lon="11.6659409"><ele>283.0</ele><time>2026-05-03T08:26:45.161Z</time></trkpt><trkpt lat="43.443694" lon="11.6660533"><ele>283.0</ele><time>2026-05-03T08:26:46.161Z</time></trkpt><trkpt lat="43.4437993" lon="11.6661625"><ele>282.25</ele><time>2026-05-03T08:26:47.162Z</time></trkpt><trkpt lat="43.4439024" lon="11.666271"><ele>281.5</ele><time>2026-05-03T08:26:48.162Z</time></trkpt><trkpt lat="43.4440094" lon="11.6663768"><ele>280.75</ele><time>2026-05-03T08:26:49.161Z</time></trkpt><trkpt lat="43.4441172" lon="11.6664852"><ele>280.0</ele><time>2026-05-03T08:26:50.161Z</time></trkpt><trkpt lat="43.4442239" lon="11.6666012"><ele>280.0</ele><time>2026-05-03T08:26:51.16Z</time></trkpt><trkpt lat="43.4443297" lon="11.6667157"><ele>280.0</ele><time>2026-05-03T08:26:52.162Z</time></trkpt><trkpt lat="43.4444401" lon="11.6668331"><ele>280.0</ele><time>2026-05-03T08:26:53.162Z</time></trkpt><trkpt lat="43.444552" lon="11.6669472"><ele>280.0</ele><time>2026-05-03T08:26:54.161Z</time></trkpt><trkpt lat="43.4446679" lon="11.6670581"><ele>280.0</ele><time>2026-05-03T08:26:55.161Z</time></trkpt><trkpt lat="43.4447873" lon="11.6671631"><ele>280.0</ele><time>2026-05-03T08:26:56.162Z</time></trkpt><trkpt lat="43.4449014" lon="11.6672523"><ele>280.0</ele><time>2026-05-03T08:26:57.162Z</time></trkpt><trkpt lat="43.4450142" lon="11.6673301"><ele>280.0</ele><time>2026-05-03T08:26:58.162Z</time></trkpt><trkpt lat="43.4451361" lon="11.6673954"><ele>280.0</ele><time>2026-05-03T08:26:59.162Z</time></trkpt><trkpt lat="43.445264" lon="11.6674447"><ele>280.0</ele><time>2026-05-03T08:27:00.16Z</time></trkpt><trkpt lat="43.4453967" lon="11.6674868"><ele>280.0</ele><time>2026-05-03T08:27:01.162Z</time></trkpt><trkpt lat="43.4455322" lon="11.6675221"><ele>280.0</ele><time>2026-05-03T08:27:02.162Z</time></trkpt><trkpt lat="43.4456728" lon="11.6675441"><ele>280.0</ele><time>2026-05-03T08:27:03.161Z</time></trkpt><trkpt lat="43.445814" lon="11.6675573"><ele>280.0</ele><time>2026-05-03T08:27:04.162Z</time></trkpt><trkpt lat="43.4459572" lon="11.6675695"><ele>280.0</ele><time>2026-05-03T08:27:05.162Z</time></trkpt><trkpt lat="43.4461007" lon="11.6675858"><ele>280.0</ele><time>2026-05-03T08:27:06.162Z</time></trkpt><trkpt lat="43.4462402" lon="11.6676041"><ele>280.5</ele><time>2026-05-03T08:27:07.162Z</time></trkpt><trkpt lat="43.446367" lon="11.6676238"><ele>281.0</ele><time>2026-05-03T08:27:08.162Z</time></trkpt><trkpt lat="43.4464859" lon="11.6676433"><ele>281.5</ele><time>2026-05-03T08:27:09.162Z</time></trkpt><trkpt lat="43.4466029" lon="11.6676759"><ele>282.0</ele><time>2026-05-03T08:27:10.162Z</time></trkpt><trkpt lat="43.4467141" lon="11.6677328"><ele>282.25</ele><time>2026-05-03T08:27:11.162Z</time></trkpt><trkpt lat="43.4468207" lon="11.6678147"><ele>282.5</ele><time>2026-05-03T08:27:12.161Z</time></trkpt><trkpt lat="43.4469254" lon="11.6679117"><ele>282.75</ele><time>2026-05-03T08:27:13.161Z</time></trkpt><trkpt lat="43.447034" lon="11.6680107"><ele>283.0</ele><time>2026-05-03T08:27:14.162Z</time></trkpt><trkpt lat="43.4471455" lon="11.66811"><ele>284.0</ele><time>2026-05-03T08:27:15.162Z</time></trkpt><trkpt lat="43.447258" lon="11.6682102"><ele>285.0</ele><time>2026-05-03T08:27:16.162Z</time></trkpt><trkpt lat="43.4473715" lon="11.6683137"><ele>286.0</ele><time>2026-05-03T08:27:17.162Z</time></trkpt><trkpt lat="43.4474839" lon="11.6684228"><ele>287.0</ele><time>2026-05-03T08:27:18.162Z</time></trkpt><trkpt lat="43.4475947" lon="11.6685367"><ele>287.5</ele><time>2026-05-03T08:27:19.162Z</time></trkpt><trkpt lat="43.4477031" lon="11.6686602"><ele>288.0</ele><time>2026-05-03T08:27:20.162Z</time></trkpt><trkpt lat="43.4478061" lon="11.6687948"><ele>288.5</ele><time>2026-05-03T08:27:21.161Z</time></trkpt><trkpt lat="43.4479061" lon="11.6689405"><ele>289.0</ele><time>2026-05-03T08:27:22.161Z</time></trkpt><trkpt lat="43.4480065" lon="11.6690834"><ele>289.5</ele><time>2026-05-03T08:27:23.162Z</time></trkpt><trkpt lat="43.4481125" lon="11.6692235"><ele>290.0</ele><time>2026-05-03T08:27:24.161Z</time></trkpt><trkpt lat="43.4482219" lon="11.6693604"><ele>290.5</ele><time>2026-05-03T08:27:25.162Z</time></trkpt><trkpt lat="43.4483361" lon="11.6694893"><ele>291.0</ele><time>2026-05-03T08:27:26.162Z</time></trkpt><trkpt lat="43.4484633" lon="11.6695914"><ele>292.0</ele><time>2026-05-03T08:27:27.162Z</time></trkpt><trkpt lat="43.4485969" lon="11.6696617"><ele>293.0</ele><time>2026-05-03T08:27:28.16Z</time></trkpt><trkpt lat="43.4487189" lon="11.66973"><ele>294.0</ele><time>2026-05-03T08:27:29.162Z</time></trkpt><trkpt lat="43.4488188" lon="11.669805"><ele>295.0</ele><time>2026-05-03T08:27:30.162Z</time></trkpt><trkpt lat="43.4488954" lon="11.6698988"><ele>297.25</ele><time>2026-05-03T08:27:31.162Z</time></trkpt><trkpt lat="43.4489565" lon="11.670016"><ele>299.5</ele><time>2026-05-03T08:27:32.161Z</time></trkpt><trkpt lat="43.4490017" lon="11.6701586"><ele>301.75</ele><time>2026-05-03T08:27:33.162Z</time></trkpt><trkpt lat="43.4490388" lon="11.670316"><ele>304.0</ele><time>2026-05-03T08:27:34.162Z</time></trkpt><trkpt lat="43.4491554" lon="11.6708196"><ele>306.0</ele><time>2026-05-03T08:27:37.162Z</time></trkpt><trkpt lat="43.4492022" lon="11.6709876"><ele>308.0</ele><time>2026-05-03T08:27:38.161Z</time></trkpt><trkpt lat="43.4492408" lon="11.6711438"><ele>310.0</ele><time>2026-05-03T08:27:39.162Z</time></trkpt><trkpt lat="43.4492675" lon="11.6712949"><ele>312.0</ele><time>2026-05-03T08:27:40.161Z</time></trkpt><trkpt lat="43.44928" lon="11.6714444"><ele>312.0</ele><time>2026-05-03T08:27:41.161Z</time></trkpt><trkpt lat="43.4492866" lon="11.6715756"><ele>312.0</ele><time>2026-05-03T08:27:42.161Z</time></trkpt><trkpt lat="43.4492914" lon="11.6716847"><ele>312.0</ele><time>2026-05-03T08:27:43.161Z</time></trkpt><trkpt lat="43.4493142" lon="11.6717865"><ele>312.0</ele><time>2026-05-03T08:27:44.161Z</time></trkpt><trkpt lat="43.4494247" lon="11.6719005"><ele>312.0</ele><time>2026-05-03T08:27:46.162Z</time></trkpt><trkpt lat="43.4495093" lon="11.671928"><ele>311.25</ele><time>2026-05-03T08:27:47.161Z</time></trkpt><trkpt lat="43.4496087" lon="11.6719666"><ele>310.5</ele><time>2026-05-03T08:27:48.162Z</time></trkpt><trkpt lat="43.4497108" lon="11.6720126"><ele>309.75</ele><time>2026-05-03T08:27:49.162Z</time></trkpt><trkpt lat="43.449821" lon="11.6720709"><ele>309.0</ele><time>2026-05-03T08:27:50.161Z</time></trkpt><trkpt lat="43.4499329" lon="11.6721434"><ele>311.0</ele><time>2026-05-03T08:27:51.161Z</time></trkpt><trkpt lat="43.4500468" lon="11.6722253"><ele>313.0</ele><time>2026-05-03T08:27:52.161Z</time></trkpt><trkpt lat="43.4501627" lon="11.67231"><ele>315.0</ele><time>2026-05-03T08:27:53.161Z</time></trkpt><trkpt lat="43.4502846" lon="11.6723909"><ele>317.0</ele><time>2026-05-03T08:27:54.162Z</time></trkpt><trkpt lat="43.450408" lon="11.6724726"><ele>319.25</ele><time>2026-05-03T08:27:55.162Z</time></trkpt><trkpt lat="43.4505316" lon="11.6725469"><ele>321.5</ele><time>2026-05-03T08:27:56.162Z</time></trkpt><trkpt lat="43.4506406" lon="11.6726117"><ele>323.75</ele><time>2026-05-03T08:27:57.161Z</time></trkpt><trkpt lat="43.4507394" lon="11.6726724"><ele>326.0</ele><time>2026-05-03T08:27:58.162Z</time></trkpt><trkpt lat="43.4508282" lon="11.6727223"><ele>326.0</ele><time>2026-05-03T08:27:59.161Z</time></trkpt><trkpt lat="43.4509109" lon="11.6727559"><ele>326.0</ele><time>2026-05-03T08:28:00.162Z</time></trkpt><trkpt lat="43.4509961" lon="11.6727348"><ele>326.0</ele><time>2026-05-03T08:28:01.162Z</time></trkpt><trkpt lat="43.4510706" lon="11.6726962"><ele>326.0</ele><time>2026-05-03T08:28:02.162Z</time></trkpt><trkpt lat="43.451132" lon="11.6726671"><ele>326.0</ele><time>2026-05-03T08:28:03.162Z</time></trkpt><trkpt lat="43.4512332" lon="11.6726905"><ele>326.0</ele><time>2026-05-03T08:28:05.16Z</time></trkpt><trkpt lat="43.4512705" lon="11.6727606"><ele>327.4</ele><time>2026-05-03T08:28:06.162Z</time></trkpt><trkpt lat="43.4513021" lon="11.6728635"><ele>328.8</ele><time>2026-05-03T08:28:07.162Z</time></trkpt><trkpt lat="43.4513377" lon="11.672985"><ele>330.2</ele><time>2026-05-03T08:28:08.161Z</time></trkpt><trkpt lat="43.4513766" lon="11.6731164"><ele>331.59999999999997</ele><time>2026-05-03T08:28:09.161Z</time></trkpt><trkpt lat="43.4514189" lon="11.673238"><ele>333.0</ele><time>2026-05-03T08:28:10.161Z</time></trkpt><trkpt lat="43.451462" lon="11.673344"><ele>333.0</ele><time>2026-05-03T08:28:11.162Z</time></trkpt><trkpt lat="43.4515118" lon="11.6734494"><ele>333.0</ele><time>2026-05-03T08:28:12.162Z</time></trkpt><trkpt lat="43.4515704" lon="11.67355"><ele>333.0</ele><time>2026-05-03T08:28:13.161Z</time></trkpt><trkpt lat="43.4516257" lon="11.6736507"><ele>333.0</ele><time>2026-05-03T08:28:14.162Z</time></trkpt><trkpt lat="43.4516886" lon="11.6737495"><ele>333.0</ele><time>2026-05-03T08:28:15.161Z</time></trkpt><trkpt lat="43.4517529" lon="11.6738461"><ele>333.4</ele><time>2026-05-03T08:28:16.161Z</time></trkpt><trkpt lat="43.4518109" lon="11.6739483"><ele>333.79999999999995</ele><time>2026-05-03T08:28:17.161Z</time></trkpt><trkpt lat="43.451854" lon="11.6740636"><ele>334.2</ele><time>2026-05-03T08:28:18.162Z</time></trkpt><trkpt lat="43.4518836" lon="11.6741846"><ele>334.6</ele><time>2026-05-03T08:28:19.161Z</time></trkpt><trkpt lat="43.4519239" lon="11.674318"><ele>335.0</ele><time>2026-05-03T08:28:20.161Z</time></trkpt><trkpt lat="43.4519633" lon="11.674445"><ele>336.2</ele><time>2026-05-03T08:28:21.161Z</time></trkpt><trkpt lat="43.4520092" lon="11.6745764"><ele>337.4</ele><time>2026-05-03T08:28:22.161Z</time></trkpt><trkpt lat="43.4520533" lon="11.6747006"><ele>338.6</ele><time>2026-05-03T08:28:23.161Z</time></trkpt><trkpt lat="43.452091" lon="11.6748157"><ele>339.8</ele><time>2026-05-03T08:28:24.161Z</time></trkpt><trkpt lat="43.4521459" lon="11.6749277"><ele>341.0</ele><time>2026-05-03T08:28:25.162Z</time></trkpt><trkpt lat="43.4521935" lon="11.6750373"><ele>344.20000000000005</ele><time>2026-05-03T08:28:26.161Z</time></trkpt><trkpt lat="43.4522445" lon="11.6751545"><ele>347.40000000000003</ele><time>2026-05-03T08:28:27.162Z</time></trkpt><trkpt lat="43.4522978" lon="11.6752717"><ele>350.6</ele><time>2026-05-03T08:28:28.162Z</time></trkpt><trkpt lat="43.4523504" lon="11.6753865"><ele>353.8</ele><time>2026-05-03T08:28:29.162Z</time></trkpt><trkpt lat="43.4523807" lon="11.6754737"><ele>357.0</ele><time>2026-05-03T08:28:30.16Z</time></trkpt><trkpt lat="43.4524549" lon="11.6755732"><ele>358.0</ele><time>2026-05-03T08:28:32.161Z</time></trkpt><trkpt lat="43.4525195" lon="11.6756259"><ele>359.0</ele><time>2026-05-03T08:28:33.162Z</time></trkpt><trkpt lat="43.4525885" lon="11.6756632"><ele>360.0</ele><time>2026-05-03T08:28:34.161Z</time></trkpt><trkpt lat="43.4526682" lon="11.6756838"><ele>361.0</ele><time>2026-05-03T08:28:35.16Z</time></trkpt><trkpt lat="43.4527453" lon="11.6757118"><ele>362.0</ele><time>2026-05-03T08:28:36.162Z</time></trkpt><trkpt lat="43.4528045" lon="11.6757521"><ele>363.0</ele><time>2026-05-03T08:28:37.162Z</time></trkpt><trkpt lat="43.4528626" lon="11.6758527"><ele>363.0</ele><time>2026-05-03T08:28:39.161Z</time></trkpt><trkpt lat="43.4528939" lon="11.6759466"><ele>363.0</ele><time>2026-05-03T08:28:40.162Z</time></trkpt><trkpt lat="43.4529143" lon="11.6760621"><ele>363.0</ele><time>2026-05-03T08:28:41.162Z</time></trkpt><trkpt lat="43.4529385" lon="11.6761856"><ele>363.0</ele><time>2026-05-03T08:28:42.161Z</time></trkpt><trkpt lat="43.4529658" lon="11.6763253"><ele>363.0</ele><time>2026-05-03T08:28:43.162Z</time></trkpt><trkpt lat="43.4529973" lon="11.6764706"><ele>364.75</ele><time>2026-05-03T08:28:44.162Z</time></trkpt><trkpt lat="43.4530309" lon="11.6766272"><ele>366.5</ele><time>2026-05-03T08:28:45.161Z</time></trkpt><trkpt lat="43.4530665" lon="11.676782"><ele>368.25</ele><time>2026-05-03T08:28:46.161Z</time></trkpt><trkpt lat="43.453102" lon="11.6769429"><ele>370.0</ele><time>2026-05-03T08:28:47.161Z</time></trkpt><trkpt lat="43.4531353" lon="11.6770986"><ele>371.75</ele><time>2026-05-03T08:28:48.161Z</time></trkpt><trkpt lat="43.4531697" lon="11.6772546"><ele>373.5</ele><time>2026-05-03T08:28:49.162Z</time></trkpt><trkpt lat="43.4531991" lon="11.6774115"><ele>375.25</ele><time>2026-05-03T08:28:50.162Z</time></trkpt><trkpt lat="43.4532211" lon="11.6775717"><ele>377.0</ele><time>2026-05-03T08:28:51.161Z</time></trkpt><trkpt lat="43.4532442" lon="11.6777302"><ele>378.40000000000003</ele><time>2026-05-03T08:28:52.161Z</time></trkpt><trkpt lat="43.4532722" lon="11.6778831"><ele>379.8</ele><time>2026-05-03T08:28:53.162Z</time></trkpt><trkpt lat="43.4533125" lon="11.6780375"><ele>381.2</ele><time>2026-05-03T08:28:54.162Z</time></trkpt><trkpt lat="43.453348" lon="11.678175"><ele>382.6</ele><time>2026-05-03T08:28:55.162Z</time></trkpt><trkpt lat="43.4533799" lon="11.6783012"><ele>384.0</ele><time>2026-05-03T08:28:56.16Z</time></trkpt><trkpt lat="43.4534109" lon="11.678408"><ele>384.0</ele><time>2026-05-03T08:28:57.162Z</time></trkpt><trkpt lat="43.4534435" lon="11.6785194"><ele>384.0</ele><time>2026-05-03T08:28:58.162Z</time></trkpt><trkpt lat="43.4534787" lon="11.6786355"><ele>384.0</ele><time>2026-05-03T08:28:59.161Z</time></trkpt><trkpt lat="43.4535097" lon="11.6787567"><ele>384.0</ele><time>2026-05-03T08:29:00.161Z</time></trkpt><trkpt lat="43.4535364" lon="11.6788541"><ele>384.0</ele><time>2026-05-03T08:29:01.161Z</time></trkpt><trkpt lat="43.4535895" lon="11.6789883"><ele>385.4</ele><time>2026-05-03T08:29:03.161Z</time></trkpt><trkpt lat="43.4536294" lon="11.6791039"><ele>386.79999999999995</ele><time>2026-05-03T08:29:05.161Z</time></trkpt><trkpt lat="43.4536743" lon="11.6792516"><ele>388.20000000000005</ele><time>2026-05-03T08:29:07.162Z</time></trkpt><trkpt lat="43.453709" lon="11.6793426"><ele>389.6</ele><time>2026-05-03T08:29:08.162Z</time></trkpt><trkpt lat="43.4537479" lon="11.6794408"><ele>391.0</ele><time>2026-05-03T08:29:09.161Z</time></trkpt><trkpt lat="43.4537887" lon="11.6795519"><ele>391.00000000000006</ele><time>2026-05-03T08:29:10.162Z</time></trkpt><trkpt lat="43.453832" lon="11.6796683"><ele>391.0</ele><time>2026-05-03T08:29:11.161Z</time></trkpt><trkpt lat="43.4538734" lon="11.6797812"><ele>391.0</ele><time>2026-05-03T08:29:12.16Z</time></trkpt><trkpt lat="43.4539107" lon="11.6798758"><ele>391.0</ele><time>2026-05-03T08:29:13.161Z</time></trkpt><trkpt lat="43.45396" lon="11.6799577"><ele>391.00000000000006</ele><time>2026-05-03T08:29:14.162Z</time></trkpt><trkpt lat="43.4540345" lon="11.6800426"><ele>391.0</ele><time>2026-05-03T08:29:15.161Z</time></trkpt><trkpt lat="43.4541086" lon="11.6801131"><ele>391.0</ele><time>2026-05-03T08:29:16.162Z</time></trkpt><trkpt lat="43.4541824" lon="11.6802029"><ele>391.0</ele><time>2026-05-03T08:29:17.162Z</time></trkpt><trkpt lat="43.4542529" lon="11.6802916"><ele>391.0</ele><time>2026-05-03T08:29:18.162Z</time></trkpt><trkpt lat="43.4543328" lon="11.6803772"><ele>391.0</ele><time>2026-05-03T08:29:19.162Z</time></trkpt><trkpt lat="43.454419" lon="11.6804531"><ele>391.0</ele><time>2026-05-03T08:29:20.161Z</time></trkpt><trkpt lat="43.4545098" lon="11.6805292"><ele>392.33333333333337</ele><time>2026-05-03T08:29:21.161Z</time></trkpt><trkpt lat="43.4545951" lon="11.6805991"><ele>393.6666666666667</ele><time>2026-05-03T08:29:22.162Z</time></trkpt><trkpt lat="43.4546795" lon="11.6806467"><ele>395.0</ele><time>2026-05-03T08:29:23.161Z</time></trkpt><trkpt lat="43.4547509" lon="11.6807129"><ele>396.33333333333337</ele><time>2026-05-03T08:29:24.162Z</time></trkpt><trkpt lat="43.4548234" lon="11.6807734"><ele>397.6666666666667</ele><time>2026-05-03T08:29:25.162Z</time></trkpt><trkpt lat="43.4548915" lon="11.6808425"><ele>399.0</ele><time>2026-05-03T08:29:26.162Z</time></trkpt><trkpt lat="43.4549624" lon="11.6809003"><ele>399.0</ele><time>2026-05-03T08:29:27.162Z</time></trkpt><trkpt lat="43.4550286" lon="11.6809512"><ele>399.0</ele><time>2026-05-03T08:29:28.161Z</time></trkpt><trkpt lat="43.4550993" lon="11.6810628"><ele>399.0</ele><time>2026-05-03T08:29:30.162Z</time></trkpt><trkpt lat="43.4551579" lon="11.6811145"><ele>399.0</ele><time>2026-05-03T08:29:31.161Z</time></trkpt><trkpt lat="43.4552216" lon="11.6811626"><ele>399.0</ele><time>2026-05-03T08:29:32.16Z</time></trkpt><trkpt lat="43.4553137" lon="11.6812104"><ele>399.0</ele><time>2026-05-03T08:29:34.162Z</time></trkpt><trkpt lat="43.4553766" lon="11.6812457"><ele>401.5</ele><time>2026-05-03T08:29:35.162Z</time></trkpt><trkpt lat="43.4554362" lon="11.6812934"><ele>404.0</ele><time>2026-05-03T08:29:36.162Z</time></trkpt><trkpt lat="43.4554962" lon="11.6813515"><ele>406.5</ele><time>2026-05-03T08:29:37.162Z</time></trkpt><trkpt lat="43.4555642" lon="11.6814196"><ele>409.0</ele><time>2026-05-03T08:29:38.161Z</time></trkpt><trkpt lat="43.4556329" lon="11.6814685"><ele>411.5</ele><time>2026-05-03T08:29:39.16Z</time></trkpt><trkpt lat="43.4557009" lon="11.6815142"><ele>414.0</ele><time>2026-05-03T08:29:40.162Z</time></trkpt><trkpt lat="43.4557774" lon="11.6815458"><ele>414.0</ele><time>2026-05-03T08:29:41.162Z</time></trkpt><trkpt lat="43.4558497" lon="11.681577"><ele>414.0</ele><time>2026-05-03T08:29:42.162Z</time></trkpt><trkpt lat="43.455925" lon="11.6816313"><ele>414.0</ele><time>2026-05-03T08:29:43.162Z</time></trkpt><trkpt lat="43.4560073" lon="11.6816891"><ele>414.0</ele><time>2026-05-03T08:29:44.162Z</time></trkpt><trkpt lat="43.4560685" lon="11.6817377"><ele>414.0</ele><time>2026-05-03T08:29:45.162Z</time></trkpt><trkpt lat="43.4561347" lon="11.681754"><ele>414.0</ele><time>2026-05-03T08:29:46.161Z</time></trkpt><trkpt lat="43.4562061" lon="11.6817679"><ele>414.0</ele><time>2026-05-03T08:29:47.16Z</time></trkpt><trkpt lat="43.4562693" lon="11.6817712"><ele>414.0</ele><time>2026-05-03T08:29:48.161Z</time></trkpt><trkpt lat="43.4563464" lon="11.6817667"><ele>414.0</ele><time>2026-05-03T08:29:49.162Z</time></trkpt><trkpt lat="43.4564293" lon="11.6817876"><ele>414.0</ele><time>2026-05-03T08:29:50.161Z</time></trkpt><trkpt lat="43.4565168" lon="11.6818012"><ele>414.0</ele><time>2026-05-03T08:29:51.161Z</time></trkpt><trkpt lat="43.4565969" lon="11.6818045"><ele>414.0</ele><time>2026-05-03T08:29:52.161Z</time></trkpt><trkpt lat="43.456662" lon="11.681816"><ele>414.4</ele><time>2026-05-03T08:29:53.162Z</time></trkpt><trkpt lat="43.4567148" lon="11.6817129"><ele>414.79999999999995</ele><time>2026-05-03T08:29:54.161Z</time></trkpt><trkpt lat="43.4567738" lon="11.6816607"><ele>415.20000000000005</ele><time>2026-05-03T08:29:55.162Z</time></trkpt><trkpt lat="43.4568692" lon="11.681648"><ele>415.6</ele><time>2026-05-03T08:29:57.161Z</time></trkpt><trkpt lat="43.4569881" lon="11.6816584"><ele>416.0</ele><time>2026-05-03T08:29:59.162Z</time></trkpt><trkpt lat="43.4570628" lon="11.6816627"><ele>416.66666666666663</ele><time>2026-05-03T08:30:00.162Z</time></trkpt><trkpt lat="43.4571388" lon="11.6816646"><ele>417.3333333333333</ele><time>2026-05-03T08:30:01.161Z</time></trkpt><trkpt lat="43.4572142" lon="11.6816769"><ele>418.0</ele><time>2026-05-03T08:30:02.162Z</time></trkpt><trkpt lat="43.4572759" lon="11.6817007"><ele>418.66666666666663</ele><time>2026-05-03T08:30:03.162Z</time></trkpt><trkpt lat="43.4573748" lon="11.6817764"><ele>419.3333333333333</ele><time>2026-05-03T08:30:05.162Z</time></trkpt><trkpt lat="43.4574232" lon="11.6818613"><ele>420.0</ele><time>2026-05-03T08:30:07.162Z</time></trkpt><trkpt lat="43.4574602" lon="11.6819643"><ele>420.8333333333333</ele><time>2026-05-03T08:30:10.162Z</time></trkpt><trkpt lat="43.4574811" lon="11.6821159"><ele>421.66666666666663</ele><time>2026-05-03T08:30:13.162Z</time></trkpt><trkpt lat="43.4574822" lon="11.6822046"><ele>422.5</ele><time>2026-05-03T08:30:14.161Z</time></trkpt><trkpt lat="43.4575069" lon="11.6823152"><ele>423.3333333333333</ele><time>2026-05-03T08:30:15.161Z</time></trkpt><trkpt lat="43.4575058" lon="11.6824195"><ele>424.16666666666663</ele><time>2026-05-03T08:30:16.161Z</time></trkpt><trkpt lat="43.4575158" lon="11.6825282"><ele>425.0</ele><time>2026-05-03T08:30:17.162Z</time></trkpt><trkpt lat="43.457571" lon="11.6826456"><ele>424.99999999999994</ele><time>2026-05-03T08:30:18.161Z</time></trkpt><trkpt lat="43.4576035" lon="11.6827471"><ele>425.0</ele><time>2026-05-03T08:30:19.161Z</time></trkpt><trkpt lat="43.4576269" lon="11.682868"><ele>425.0</ele><time>2026-05-03T08:30:20.161Z</time></trkpt><trkpt lat="43.457647" lon="11.6829894"><ele>425.0</ele><time>2026-05-03T08:30:21.161Z</time></trkpt><trkpt lat="43.4576621" lon="11.6831171"><ele>424.99999999999994</ele><time>2026-05-03T08:30:22.162Z</time></trkpt><trkpt lat="43.4576562" lon="11.6832086"><ele>425.0</ele><time>2026-05-03T08:30:23.162Z</time></trkpt><trkpt lat="43.4576467" lon="11.6833245"><ele>425.49999999999994</ele><time>2026-05-03T08:30:24.162Z</time></trkpt><trkpt lat="43.457614" lon="11.6834215"><ele>426.0</ele><time>2026-05-03T08:30:25.161Z</time></trkpt><trkpt lat="43.4575871" lon="11.683518"><ele>426.5</ele><time>2026-05-03T08:30:26.162Z</time></trkpt><trkpt lat="43.4575702" lon="11.6836068"><ele>427.0</ele><time>2026-05-03T08:30:27.161Z</time></trkpt><trkpt lat="43.4575593" lon="11.6837086"><ele>427.49999999999994</ele><time>2026-05-03T08:30:28.161Z</time></trkpt><trkpt lat="43.4575883" lon="11.6838163"><ele>428.0</ele><time>2026-05-03T08:30:29.162Z</time></trkpt><trkpt lat="43.4575999" lon="11.6839349"><ele>430.0</ele><time>2026-05-03T08:30:30.162Z</time></trkpt><trkpt lat="43.4576706" lon="11.6840758"><ele>432.0</ele><time>2026-05-03T08:30:31.162Z</time></trkpt><trkpt lat="43.4577734" lon="11.684197"><ele>434.0</ele><time>2026-05-03T08:30:32.161Z</time></trkpt><trkpt lat="43.4578264" lon="11.6843088"><ele>436.0</ele><time>2026-05-03T08:30:33.162Z</time></trkpt><trkpt lat="43.4578873" lon="11.6844296"><ele>438.20000000000005</ele><time>2026-05-03T08:30:34.162Z</time></trkpt><trkpt lat="43.4579472" lon="11.6845498"><ele>440.40000000000003</ele><time>2026-05-03T08:30:35.162Z</time></trkpt><trkpt lat="43.4580125" lon="11.6846588"><ele>442.6</ele><time>2026-05-03T08:30:36.162Z</time></trkpt><trkpt lat="43.4580619" lon="11.6847462"><ele>444.8</ele><time>2026-05-03T08:30:37.162Z</time></trkpt><trkpt lat="43.4581291" lon="11.6848236"><ele>447.0</ele><time>2026-05-03T08:30:38.162Z</time></trkpt><trkpt lat="43.4582182" lon="11.6848819"><ele>442.20000000000005</ele><time>2026-05-03T08:30:39.162Z</time></trkpt><trkpt lat="43.4583096" lon="11.684923"><ele>437.40000000000003</ele><time>2026-05-03T08:30:40.162Z</time></trkpt><trkpt lat="43.4583832" lon="11.685001"><ele>432.6</ele><time>2026-05-03T08:30:41.16Z</time></trkpt><trkpt lat="43.4584665" lon="11.6850711"><ele>427.79999999999995</ele><time>2026-05-03T08:30:42.162Z</time></trkpt><trkpt lat="43.4585403" lon="11.6851339"><ele>423.0</ele><time>2026-05-03T08:30:43.161Z</time></trkpt><trkpt lat="43.4586256" lon="11.6851813"><ele>423.0</ele><time>2026-05-03T08:30:44.162Z</time></trkpt><trkpt lat="43.4587152" lon="11.6851713"><ele>423.0</ele><time>2026-05-03T08:30:45.162Z</time></trkpt><trkpt lat="43.4587887" lon="11.6852139"><ele>423.0</ele><time>2026-05-03T08:30:46.162Z</time></trkpt><trkpt lat="43.458864" lon="11.6852618"><ele>423.0</ele><time>2026-05-03T08:30:48.162Z</time></trkpt><trkpt lat="43.4589779" lon="11.6853105"><ele>423.0</ele><time>2026-05-03T08:30:50.162Z</time></trkpt><trkpt lat="43.4590514" lon="11.6853492"><ele>423.0</ele><time>2026-05-03T08:30:51.162Z</time></trkpt><trkpt lat="43.4591298" lon="11.6854131"><ele>423.0</ele><time>2026-05-03T08:30:52.162Z</time></trkpt><trkpt lat="43.459217" lon="11.6854661"><ele>423.0</ele><time>2026-05-03T08:30:53.161Z</time></trkpt><trkpt lat="43.4593013" lon="11.6855278"><ele>423.0</ele><time>2026-05-03T08:30:54.161Z</time></trkpt><trkpt lat="43.4593675" lon="11.6855943"><ele>423.0</ele><time>2026-05-03T08:30:55.161Z</time></trkpt><trkpt lat="43.4594385" lon="11.6856654"><ele>423.0</ele><time>2026-05-03T08:30:56.162Z</time></trkpt><trkpt lat="43.4595098" lon="11.6857434"><ele>423.0</ele><time>2026-05-03T08:30:57.162Z</time></trkpt><trkpt lat="43.459584" lon="11.685804"><ele>423.0</ele><time>2026-05-03T08:30:58.161Z</time></trkpt><trkpt lat="43.459647" lon="11.6859042"><ele>423.0</ele><time>2026-05-03T08:30:59.161Z</time></trkpt><trkpt lat="43.4597041" lon="11.686035"><ele>423.0</ele><time>2026-05-03T08:31:00.162Z</time></trkpt><trkpt lat="43.459759" lon="11.6861551"><ele>422.4</ele><time>2026-05-03T08:31:01.162Z</time></trkpt><trkpt lat="43.4598128" lon="11.6862372"><ele>421.79999999999995</ele><time>2026-05-03T08:31:02.162Z</time></trkpt><trkpt lat="43.4598623" lon="11.6863046"><ele>421.2</ele><time>2026-05-03T08:31:03.162Z</time></trkpt><trkpt lat="43.4599203" lon="11.6863558"><ele>420.6</ele><time>2026-05-03T08:31:04.162Z</time></trkpt><trkpt lat="43.460045" lon="11.6862941"><ele>420.0</ele><time>2026-05-03T08:31:05.161Z</time></trkpt><trkpt lat="43.460148" lon="11.6862816"><ele>420.0</ele><time>2026-05-03T08:31:06.162Z</time></trkpt><trkpt lat="43.4602365" lon="11.6862895"><ele>420.0</ele><time>2026-05-03T08:31:07.162Z</time></trkpt><trkpt lat="43.4603146" lon="11.6863192"><ele>420.0</ele><time>2026-05-03T08:31:08.162Z</time></trkpt><trkpt lat="43.460383" lon="11.6863483"><ele>420.0</ele><time>2026-05-03T08:31:09.162Z</time></trkpt><trkpt lat="43.460484" lon="11.6864417"><ele>420.0</ele><time>2026-05-03T08:31:11.162Z</time></trkpt><trkpt lat="43.4605374" lon="11.6864878"><ele>420.0</ele><time>2026-05-03T08:31:12.161Z</time></trkpt><trkpt lat="43.460595" lon="11.6865419"><ele>418.0</ele><time>2026-05-03T08:31:13.161Z</time></trkpt><trkpt lat="43.4606663" lon="11.686601"><ele>416.0</ele><time>2026-05-03T08:31:14.162Z</time></trkpt><trkpt lat="43.4607519" lon="11.6866589"><ele>414.0</ele><time>2026-05-03T08:31:15.162Z</time></trkpt><trkpt lat="43.4608411" lon="11.6867122"><ele>412.0</ele><time>2026-05-03T08:31:16.162Z</time></trkpt><trkpt lat="43.4609328" lon="11.6867616"><ele>410.0</ele><time>2026-05-03T08:31:17.161Z</time></trkpt><trkpt lat="43.4610225" lon="11.6868077"><ele>410.0</ele><time>2026-05-03T08:31:18.161Z</time></trkpt><trkpt lat="43.4611104" lon="11.6868479"><ele>410.0</ele><time>2026-05-03T08:31:19.161Z</time></trkpt><trkpt lat="43.4612039" lon="11.6868774"><ele>410.0</ele><time>2026-05-03T08:31:20.162Z</time></trkpt><trkpt lat="43.461295" lon="11.6869013"><ele>410.0</ele><time>2026-05-03T08:31:21.162Z</time></trkpt><trkpt lat="43.4613871" lon="11.6869197"><ele>410.0</ele><time>2026-05-03T08:31:22.162Z</time></trkpt><trkpt lat="43.4614787" lon="11.6869208"><ele>407.6</ele><time>2026-05-03T08:31:23.161Z</time></trkpt><trkpt lat="43.4615662" lon="11.686908"><ele>405.2</ele><time>2026-05-03T08:31:24.162Z</time></trkpt><trkpt lat="43.4616571" lon="11.6868678"><ele>402.79999999999995</ele><time>2026-05-03T08:31:25.162Z</time></trkpt><trkpt lat="43.4617409" lon="11.6868235"><ele>400.4</ele><time>2026-05-03T08:31:26.162Z</time></trkpt><trkpt lat="43.4618277" lon="11.6867754"><ele>398.0</ele><time>2026-05-03T08:31:27.162Z</time></trkpt><trkpt lat="43.4619164" lon="11.6867338"><ele>398.0</ele><time>2026-05-03T08:31:28.161Z</time></trkpt><trkpt lat="43.4620067" lon="11.686695"><ele>398.0</ele><time>2026-05-03T08:31:29.16Z</time></trkpt><trkpt lat="43.4620933" lon="11.6866534"><ele>398.0</ele><time>2026-05-03T08:31:30.161Z</time></trkpt><trkpt lat="43.4621802" lon="11.68661"><ele>398.0</ele><time>2026-05-03T08:31:31.162Z</time></trkpt><trkpt lat="43.4622626" lon="11.6865669"><ele>398.0</ele><time>2026-05-03T08:31:32.162Z</time></trkpt><trkpt lat="43.4623442" lon="11.6865231"><ele>396.0</ele><time>2026-05-03T08:31:33.162Z</time></trkpt><trkpt lat="43.4624313" lon="11.6864775"><ele>394.0</ele><time>2026-05-03T08:31:34.162Z</time></trkpt><trkpt lat="43.4625221" lon="11.6864305"><ele>392.0</ele><time>2026-05-03T08:31:35.161Z</time></trkpt><trkpt lat="43.462613" lon="11.686391"><ele>390.0</ele><time>2026-05-03T08:31:36.162Z</time></trkpt><trkpt lat="43.4627291" lon="11.6863582"><ele>388.0</ele><time>2026-05-03T08:31:37.162Z</time></trkpt><trkpt lat="43.4628469" lon="11.6863396"><ele>386.0</ele><time>2026-05-03T08:31:38.162Z</time></trkpt><trkpt lat="43.4629599" lon="11.6863346"><ele>384.0</ele><time>2026-05-03T08:31:39.162Z</time></trkpt><trkpt lat="43.463073" lon="11.686331"><ele>382.0</ele><time>2026-05-03T08:31:40.162Z</time></trkpt><trkpt lat="43.4631847" lon="11.6863372"><ele>380.0</ele><time>2026-05-03T08:31:41.161Z</time></trkpt><trkpt lat="43.4632948" lon="11.6863367"><ele>378.0</ele><time>2026-05-03T08:31:42.162Z</time></trkpt><trkpt lat="43.463405" lon="11.6863331"><ele>378.0</ele><time>2026-05-03T08:31:43.162Z</time></trkpt><trkpt lat="43.4635127" lon="11.6863212"><ele>378.0</ele><time>2026-05-03T08:31:44.162Z</time></trkpt><trkpt lat="43.4636176" lon="11.6863074"><ele>378.0</ele><time>2026-05-03T08:31:45.161Z</time></trkpt><trkpt lat="43.4637234" lon="11.6862885"><ele>378.0</ele><time>2026-05-03T08:31:46.162Z</time></trkpt><trkpt lat="43.4638209" lon="11.6862465"><ele>378.0</ele><time>2026-05-03T08:31:47.162Z</time></trkpt><trkpt lat="43.4639303" lon="11.6861975"><ele>377.0</ele><time>2026-05-03T08:31:48.162Z</time></trkpt><trkpt lat="43.4640413" lon="11.686146"><ele>376.0</ele><time>2026-05-03T08:31:49.161Z</time></trkpt><trkpt lat="43.4641584" lon="11.6860745"><ele>375.0</ele><time>2026-05-03T08:31:50.162Z</time></trkpt><trkpt lat="43.4642819" lon="11.6860082"><ele>374.0</ele><time>2026-05-03T08:31:51.162Z</time></trkpt><trkpt lat="43.4644116" lon="11.6859723"><ele>374.0</ele><time>2026-05-03T08:31:52.161Z</time></trkpt><trkpt lat="43.4645436" lon="11.6859336"><ele>374.0</ele><time>2026-05-03T08:31:53.161Z</time></trkpt><trkpt lat="43.4646779" lon="11.6859099"><ele>374.0</ele><time>2026-05-03T08:31:54.16Z</time></trkpt><trkpt lat="43.4648088" lon="11.6858897"><ele>374.0</ele><time>2026-05-03T08:31:55.161Z</time></trkpt><trkpt lat="43.4649327" lon="11.6858804"><ele>372.5</ele><time>2026-05-03T08:31:56.161Z</time></trkpt><trkpt lat="43.4650534" lon="11.6858699"><ele>371.0</ele><time>2026-05-03T08:31:57.162Z</time></trkpt><trkpt lat="43.4651729" lon="11.6858572"><ele>369.5</ele><time>2026-05-03T08:31:58.161Z</time></trkpt><trkpt lat="43.4652885" lon="11.6858464"><ele>368.0</ele><time>2026-05-03T08:31:59.162Z</time></trkpt><trkpt lat="43.4654031" lon="11.6858294"><ele>368.79999999999995</ele><time>2026-05-03T08:32:00.161Z</time></trkpt><trkpt lat="43.4655133" lon="11.6858175"><ele>369.6</ele><time>2026-05-03T08:32:01.162Z</time></trkpt><trkpt lat="43.4656238" lon="11.6858077"><ele>370.4</ele><time>2026-05-03T08:32:02.162Z</time></trkpt><trkpt lat="43.4657325" lon="11.6857979"><ele>371.20000000000005</ele><time>2026-05-03T08:32:03.161Z</time></trkpt><trkpt lat="43.4658356" lon="11.6857875"><ele>372.0</ele><time>2026-05-03T08:32:04.161Z</time></trkpt><trkpt lat="43.4659392" lon="11.6857724"><ele>372.0</ele><time>2026-05-03T08:32:05.161Z</time></trkpt><trkpt lat="43.466043" lon="11.6857645"><ele>372.0</ele><time>2026-05-03T08:32:06.162Z</time></trkpt><trkpt lat="43.4661468" lon="11.6857517"><ele>372.0</ele><time>2026-05-03T08:32:07.162Z</time></trkpt><trkpt lat="43.4662511" lon="11.6857406"><ele>372.0</ele><time>2026-05-03T08:32:08.162Z</time></trkpt><trkpt lat="43.4663578" lon="11.6857266"><ele>372.0</ele><time>2026-05-03T08:32:09.162Z</time></trkpt><trkpt lat="43.4664568" lon="11.6857079"><ele>372.6</ele><time>2026-05-03T08:32:10.162Z</time></trkpt><trkpt lat="43.4665615" lon="11.6856858"><ele>373.20000000000005</ele><time>2026-05-03T08:32:11.161Z</time></trkpt><trkpt lat="43.4666573" lon="11.685663"><ele>373.8</ele><time>2026-05-03T08:32:12.162Z</time></trkpt><trkpt lat="43.4667505" lon="11.6856351"><ele>374.4</ele><time>2026-05-03T08:32:13.16Z</time></trkpt><trkpt lat="43.4668494" lon="11.6856025"><ele>375.0</ele><time>2026-05-03T08:32:14.162Z</time></trkpt><trkpt lat="43.4669539" lon="11.6855715"><ele>375.0</ele><time>2026-05-03T08:32:15.162Z</time></trkpt><trkpt lat="43.4670615" lon="11.6855383"><ele>375.0</ele><time>2026-05-03T08:32:16.162Z</time></trkpt><trkpt lat="43.4671751" lon="11.685498"><ele>375.0</ele><time>2026-05-03T08:32:17.162Z</time></trkpt><trkpt lat="43.4672822" lon="11.6854577"><ele>375.0</ele><time>2026-05-03T08:32:18.161Z</time></trkpt><trkpt lat="43.467386" lon="11.6854186"><ele>375.0</ele><time>2026-05-03T08:32:19.162Z</time></trkpt><trkpt lat="43.467487" lon="11.6853813"><ele>374.2</ele><time>2026-05-03T08:32:20.162Z</time></trkpt><trkpt lat="43.4675832" lon="11.6853441"><ele>373.4</ele><time>2026-05-03T08:32:21.161Z</time></trkpt><trkpt lat="43.4676762" lon="11.6853102"><ele>372.6</ele><time>2026-05-03T08:32:22.162Z</time></trkpt><trkpt lat="43.4677634" lon="11.6852783"><ele>371.8</ele><time>2026-05-03T08:32:23.161Z</time></trkpt><trkpt lat="43.4678466" lon="11.6852427"><ele>371.0</ele><time>2026-05-03T08:32:24.162Z</time></trkpt><trkpt lat="43.4679261" lon="11.6852095"><ele>369.8</ele><time>2026-05-03T08:32:25.16Z</time></trkpt><trkpt lat="43.467998" lon="11.6851779"><ele>368.6</ele><time>2026-05-03T08:32:26.161Z</time></trkpt><trkpt lat="43.4680636" lon="11.6851518"><ele>367.4</ele><time>2026-05-03T08:32:27.161Z</time></trkpt><trkpt lat="43.4681741" lon="11.6851056"><ele>366.2</ele><time>2026-05-03T08:32:29.162Z</time></trkpt><trkpt lat="43.4682661" lon="11.6850741"><ele>365.0</ele><time>2026-05-03T08:32:31.161Z</time></trkpt><trkpt lat="43.468374" lon="11.6850673"><ele>365.0</ele><time>2026-05-03T08:32:33.162Z</time></trkpt><trkpt lat="43.468496" lon="11.6850845"><ele>365.0</ele><time>2026-05-03T08:32:35.162Z</time></trkpt><trkpt lat="43.4685633" lon="11.6851019"><ele>365.0</ele><time>2026-05-03T08:32:36.162Z</time></trkpt><trkpt lat="43.4686328" lon="11.6851279"><ele>365.0</ele><time>2026-05-03T08:32:37.161Z</time></trkpt><trkpt lat="43.4687023" lon="11.6851677"><ele>365.0</ele><time>2026-05-03T08:32:38.16Z</time></trkpt><trkpt lat="43.4687726" lon="11.685212"><ele>365.0</ele><time>2026-05-03T08:32:39.16Z</time></trkpt><trkpt lat="43.4688469" lon="11.6852543"><ele>365.1666666666667</ele><time>2026-05-03T08:32:40.162Z</time></trkpt><trkpt lat="43.4689262" lon="11.6852973"><ele>365.33333333333337</ele><time>2026-05-03T08:32:41.161Z</time></trkpt><trkpt lat="43.4690074" lon="11.6853472"><ele>365.5</ele><time>2026-05-03T08:32:42.161Z</time></trkpt><trkpt lat="43.4690844" lon="11.6853948"><ele>365.6666666666667</ele><time>2026-05-03T08:32:43.162Z</time></trkpt><trkpt lat="43.4691564" lon="11.6854421"><ele>365.8333333333333</ele><time>2026-05-03T08:32:44.161Z</time></trkpt><trkpt lat="43.4692286" lon="11.6854879"><ele>366.0</ele><time>2026-05-03T08:32:45.161Z</time></trkpt><trkpt lat="43.4692955" lon="11.6855333"><ele>366.0</ele><time>2026-05-03T08:32:46.162Z</time></trkpt><trkpt lat="43.4693575" lon="11.6855757"><ele>366.0</ele><time>2026-05-03T08:32:47.161Z</time></trkpt><trkpt lat="43.4694147" lon="11.6856158"><ele>366.0</ele><time>2026-05-03T08:32:48.162Z</time></trkpt><trkpt lat="43.4695285" lon="11.6856886"><ele>366.0</ele><time>2026-05-03T08:32:50.162Z</time></trkpt><trkpt lat="43.4695826" lon="11.6857368"><ele>366.0</ele><time>2026-05-03T08:32:51.162Z</time></trkpt><trkpt lat="43.4696876" lon="11.6858362"><ele>366.4</ele><time>2026-05-03T08:32:53.162Z</time></trkpt><trkpt lat="43.469744" lon="11.6858815"><ele>366.8</ele><time>2026-05-03T08:32:54.162Z</time></trkpt><trkpt lat="43.4698238" lon="11.6859905"><ele>367.2</ele><time>2026-05-03T08:32:56.162Z</time></trkpt><trkpt lat="43.4699119" lon="11.6860734"><ele>367.59999999999997</ele><time>2026-05-03T08:32:58.162Z</time></trkpt><trkpt lat="43.4700073" lon="11.6861615"><ele>368.0</ele><time>2026-05-03T08:33:00.161Z</time></trkpt><trkpt lat="43.4700987" lon="11.6862399"><ele>367.0</ele><time>2026-05-03T08:33:02.161Z</time></trkpt><trkpt lat="43.4701656" lon="11.6862148"><ele>366.0</ele><time>2026-05-03T08:33:03.161Z</time></trkpt><trkpt lat="43.4702337" lon="11.6862127"><ele>365.0</ele><time>2026-05-03T08:33:04.161Z</time></trkpt><trkpt lat="43.4702973" lon="11.6862049"><ele>364.0</ele><time>2026-05-03T08:33:05.162Z</time></trkpt><trkpt lat="43.4703649" lon="11.6861109"><ele>363.0</ele><time>2026-05-03T08:33:07.161Z</time></trkpt><trkpt lat="43.4704464" lon="11.6860509"><ele>362.0</ele><time>2026-05-03T08:33:09.162Z</time></trkpt><trkpt lat="43.4705138" lon="11.6859843"><ele>362.0</ele><time>2026-05-03T08:33:11.162Z</time></trkpt><trkpt lat="43.4705743" lon="11.685909"><ele>362.0</ele><time>2026-05-03T08:33:13.162Z</time></trkpt><trkpt lat="43.4706678" lon="11.6858799"><ele>362.0</ele><time>2026-05-03T08:33:15.162Z</time></trkpt><trkpt lat="43.4707376" lon="11.685866"><ele>362.0</ele><time>2026-05-03T08:33:16.161Z</time></trkpt><trkpt lat="43.4708104" lon="11.6858462"><ele>362.0</ele><time>2026-05-03T08:33:17.16Z</time></trkpt><trkpt lat="43.4708851" lon="11.6858191"><ele>362.0</ele><time>2026-05-03T08:33:18.161Z</time></trkpt><trkpt lat="43.4709629" lon="11.6857922"><ele>362.0</ele><time>2026-05-03T08:33:19.161Z</time></trkpt><trkpt lat="43.4710535" lon="11.6857599"><ele>362.0</ele><time>2026-05-03T08:33:20.161Z</time></trkpt><trkpt lat="43.4711441" lon="11.6857292"><ele>362.0</ele><time>2026-05-03T08:33:21.161Z</time></trkpt><trkpt lat="43.471235" lon="11.6857001"><ele>362.0</ele><time>2026-05-03T08:33:22.161Z</time></trkpt><trkpt lat="43.471326" lon="11.6856876"><ele>362.0</ele><time>2026-05-03T08:33:23.161Z</time></trkpt><trkpt lat="43.4714232" lon="11.6857099"><ele>359.8</ele><time>2026-05-03T08:33:24.161Z</time></trkpt><trkpt lat="43.4715265" lon="11.6857706"><ele>357.6</ele><time>2026-05-03T08:33:25.162Z</time></trkpt><trkpt lat="43.4716228" lon="11.6858532"><ele>355.40000000000003</ele><time>2026-05-03T08:33:26.162Z</time></trkpt><trkpt lat="43.4717041" lon="11.6859562"><ele>353.20000000000005</ele><time>2026-05-03T08:33:27.162Z</time></trkpt><trkpt lat="43.4717795" lon="11.6860639"><ele>351.0</ele><time>2026-05-03T08:33:28.162Z</time></trkpt><trkpt lat="43.4718493" lon="11.6861838"><ele>350.20000000000005</ele><time>2026-05-03T08:33:29.161Z</time></trkpt><trkpt lat="43.4719072" lon="11.6863109"><ele>349.40000000000003</ele><time>2026-05-03T08:33:30.161Z</time></trkpt><trkpt lat="43.4719578" lon="11.6864414"><ele>348.6</ele><time>2026-05-03T08:33:31.162Z</time></trkpt><trkpt lat="43.4719946" lon="11.6865776"><ele>347.8</ele><time>2026-05-03T08:33:32.161Z</time></trkpt><trkpt lat="43.4720257" lon="11.6867276"><ele>347.0</ele><time>2026-05-03T08:33:33.161Z</time></trkpt><trkpt lat="43.4720642" lon="11.6868869"><ele>344.5</ele><time>2026-05-03T08:33:34.16Z</time></trkpt><trkpt lat="43.4721285" lon="11.6870361"><ele>342.0</ele><time>2026-05-03T08:33:35.161Z</time></trkpt><trkpt lat="43.4722075" lon="11.6871687"><ele>339.5</ele><time>2026-05-03T08:33:36.161Z</time></trkpt><trkpt lat="43.4722844" lon="11.6872877"><ele>337.0</ele><time>2026-05-03T08:33:37.161Z</time></trkpt><trkpt lat="43.4723506" lon="11.6874161"><ele>337.0</ele><time>2026-05-03T08:33:38.161Z</time></trkpt><trkpt lat="43.4724054" lon="11.6875516"><ele>337.0</ele><time>2026-05-03T08:33:39.161Z</time></trkpt><trkpt lat="43.4724565" lon="11.6876881"><ele>337.0</ele><time>2026-05-03T08:33:40.162Z</time></trkpt><trkpt lat="43.4725185" lon="11.6878152"><ele>337.0</ele><time>2026-05-03T08:33:41.161Z</time></trkpt><trkpt lat="43.4725824" lon="11.6879299"><ele>337.0</ele><time>2026-05-03T08:33:42.162Z</time></trkpt><trkpt lat="43.47266" lon="11.6880441"><ele>336.75</ele><time>2026-05-03T08:33:43.161Z</time></trkpt><trkpt lat="43.4727411" lon="11.6881597"><ele>336.5</ele><time>2026-05-03T08:33:44.161Z</time></trkpt><trkpt lat="43.4728086" lon="11.6882875"><ele>336.25</ele><time>2026-05-03T08:33:45.162Z</time></trkpt><trkpt lat="43.472858" lon="11.6884359"><ele>336.0</ele><time>2026-05-03T08:33:46.161Z</time></trkpt><trkpt lat="43.4728982" lon="11.6886"><ele>334.75</ele><time>2026-05-03T08:33:47.161Z</time></trkpt><trkpt lat="43.4729311" lon="11.6887594"><ele>333.5</ele><time>2026-05-03T08:33:48.161Z</time></trkpt><trkpt lat="43.4729696" lon="11.6889135"><ele>332.25</ele><time>2026-05-03T08:33:49.162Z</time></trkpt><trkpt lat="43.4730269" lon="11.6890638"><ele>331.0</ele><time>2026-05-03T08:33:50.161Z</time></trkpt><trkpt lat="43.473109" lon="11.6892011"><ele>331.0</ele><time>2026-05-03T08:33:51.161Z</time></trkpt><trkpt lat="43.4732159" lon="11.689318"><ele>331.0</ele><time>2026-05-03T08:33:52.162Z</time></trkpt><trkpt lat="43.4733325" lon="11.6894235"><ele>331.0</ele><time>2026-05-03T08:33:53.162Z</time></trkpt><trkpt lat="43.4734503" lon="11.6895389"><ele>331.0</ele><time>2026-05-03T08:33:54.161Z</time></trkpt><trkpt lat="43.4735641" lon="11.6896637"><ele>329.0</ele><time>2026-05-03T08:33:55.161Z</time></trkpt><trkpt lat="43.4736742" lon="11.6897975"><ele>327.0</ele><time>2026-05-03T08:33:56.161Z</time></trkpt><trkpt lat="43.4737725" lon="11.6899341"><ele>325.0</ele><time>2026-05-03T08:33:57.161Z</time></trkpt><trkpt lat="43.473862" lon="11.6900749"><ele>323.0</ele><time>2026-05-03T08:33:58.16Z</time></trkpt><trkpt lat="43.4739442" lon="11.6902132"><ele>322.5</ele><time>2026-05-03T08:33:59.161Z</time></trkpt><trkpt lat="43.4740208" lon="11.6903503"><ele>322.0</ele><time>2026-05-03T08:34:00.162Z</time></trkpt><trkpt lat="43.4740936" lon="11.6904822"><ele>321.5</ele><time>2026-05-03T08:34:01.161Z</time></trkpt><trkpt lat="43.4741572" lon="11.6906149"><ele>321.0</ele><time>2026-05-03T08:34:02.161Z</time></trkpt><trkpt lat="43.4742154" lon="11.6907532"><ele>321.0</ele><time>2026-05-03T08:34:03.161Z</time></trkpt><trkpt lat="43.4742733" lon="11.6908718"><ele>321.0</ele><time>2026-05-03T08:34:04.161Z</time></trkpt><trkpt lat="43.4743413" lon="11.6909759"><ele>321.0</ele><time>2026-05-03T08:34:05.161Z</time></trkpt><trkpt lat="43.4744522" lon="11.6910337"><ele>321.0</ele><time>2026-05-03T08:34:06.161Z</time></trkpt><trkpt lat="43.4745543" lon="11.6911024"><ele>321.0</ele><time>2026-05-03T08:34:07.162Z</time></trkpt><trkpt lat="43.4746624" lon="11.6911541"><ele>318.0</ele><time>2026-05-03T08:34:08.161Z</time></trkpt><trkpt lat="43.474775" lon="11.6912095"><ele>315.0</ele><time>2026-05-03T08:34:09.161Z</time></trkpt><trkpt lat="43.4748843" lon="11.6912903"><ele>312.0</ele><time>2026-05-03T08:34:10.161Z</time></trkpt><trkpt lat="43.4749786" lon="11.691404"><ele>309.0</ele><time>2026-05-03T08:34:11.162Z</time></trkpt><trkpt lat="43.4750608" lon="11.6915447"><ele>309.0</ele><time>2026-05-03T08:34:12.162Z</time></trkpt><trkpt lat="43.4751344" lon="11.6917052"><ele>309.0</ele><time>2026-05-03T08:34:13.162Z</time></trkpt><trkpt lat="43.4752241" lon="11.6918554"><ele>309.0</ele><time>2026-05-03T08:34:14.161Z</time></trkpt><trkpt lat="43.4753447" lon="11.6919759"><ele>309.0</ele><time>2026-05-03T08:34:15.162Z</time></trkpt><trkpt lat="43.4754859" lon="11.6920633"><ele>306.0</ele><time>2026-05-03T08:34:16.162Z</time></trkpt><trkpt lat="43.4756367" lon="11.6921453"><ele>303.0</ele><time>2026-05-03T08:34:17.16Z</time></trkpt><trkpt lat="43.4757856" lon="11.6922213"><ele>300.0</ele><time>2026-05-03T08:34:18.162Z</time></trkpt><trkpt lat="43.4759301" lon="11.6922923"><ele>300.0</ele><time>2026-05-03T08:34:19.162Z</time></trkpt><trkpt lat="43.4760735" lon="11.6923613"><ele>300.0</ele><time>2026-05-03T08:34:20.161Z</time></trkpt><trkpt lat="43.4762112" lon="11.6924254"><ele>300.0</ele><time>2026-05-03T08:34:21.161Z</time></trkpt><trkpt lat="43.4763417" lon="11.6924867"><ele>300.0</ele><time>2026-05-03T08:34:22.162Z</time></trkpt><trkpt lat="43.4764719" lon="11.6925454"><ele>298.25</ele><time>2026-05-03T08:34:23.162Z</time></trkpt><trkpt lat="43.4766042" lon="11.6926068"><ele>296.5</ele><time>2026-05-03T08:34:24.162Z</time></trkpt><trkpt lat="43.4767333" lon="11.6926708"><ele>294.75</ele><time>2026-05-03T08:34:25.162Z</time></trkpt><trkpt lat="43.476856" lon="11.6927426"><ele>293.0</ele><time>2026-05-03T08:34:26.162Z</time></trkpt><trkpt lat="43.4769793" lon="11.6928224"><ele>290.0</ele><time>2026-05-03T08:34:27.161Z</time></trkpt><trkpt lat="43.4771034" lon="11.6929149"><ele>287.0</ele><time>2026-05-03T08:34:28.162Z</time></trkpt><trkpt lat="43.4772239" lon="11.693015"><ele>284.0</ele><time>2026-05-03T08:34:29.161Z</time></trkpt><trkpt lat="43.4773426" lon="11.6931251"><ele>281.0</ele><time>2026-05-03T08:34:30.161Z</time></trkpt><trkpt lat="43.4774589" lon="11.6932414"><ele>281.0</ele><time>2026-05-03T08:34:31.162Z</time></trkpt><trkpt lat="43.4775712" lon="11.6933651"><ele>281.0</ele><time>2026-05-03T08:34:32.162Z</time></trkpt><trkpt lat="43.4776796" lon="11.6934961"><ele>281.0</ele><time>2026-05-03T08:34:33.161Z</time></trkpt><trkpt lat="43.4777851" lon="11.6936313"><ele>281.0</ele><time>2026-05-03T08:34:34.161Z</time></trkpt><trkpt lat="43.4778926" lon="11.6937654"><ele>277.5</ele><time>2026-05-03T08:34:35.161Z</time></trkpt><trkpt lat="43.4779997" lon="11.6938968"><ele>274.0</ele><time>2026-05-03T08:34:36.161Z</time></trkpt><trkpt lat="43.4781075" lon="11.6940294"><ele>270.5</ele><time>2026-05-03T08:34:37.161Z</time></trkpt><trkpt lat="43.4782133" lon="11.6941591"><ele>267.0</ele><time>2026-05-03T08:34:38.162Z</time></trkpt><trkpt lat="43.4783156" lon="11.6942841"><ele>267.0</ele><time>2026-05-03T08:34:39.161Z</time></trkpt><trkpt lat="43.4784079" lon="11.6944053"><ele>267.0</ele><time>2026-05-03T08:34:40.16Z</time></trkpt><trkpt lat="43.4784891" lon="11.6945346"><ele>267.0</ele><time>2026-05-03T08:34:41.161Z</time></trkpt><trkpt lat="43.4785541" lon="11.6946833"><ele>267.0</ele><time>2026-05-03T08:34:42.162Z</time></trkpt><trkpt lat="43.4786026" lon="11.6948513"><ele>265.5</ele><time>2026-05-03T08:34:43.162Z</time></trkpt><trkpt lat="43.4786496" lon="11.6950292"><ele>264.0</ele><time>2026-05-03T08:34:44.162Z</time></trkpt><trkpt lat="43.4787172" lon="11.6952097"><ele>262.5</ele><time>2026-05-03T08:34:45.162Z</time></trkpt><trkpt lat="43.4788212" lon="11.6953665"><ele>261.0</ele><time>2026-05-03T08:34:46.162Z</time></trkpt><trkpt lat="43.4789434" lon="11.6954912"><ele>259.25</ele><time>2026-05-03T08:34:47.162Z</time></trkpt><trkpt lat="43.479075" lon="11.6955733"><ele>257.5</ele><time>2026-05-03T08:34:48.162Z</time></trkpt><trkpt lat="43.4792199" lon="11.6955977"><ele>255.75</ele><time>2026-05-03T08:34:49.162Z</time></trkpt><trkpt lat="43.4793689" lon="11.6956007"><ele>254.0</ele><time>2026-05-03T08:34:50.161Z</time></trkpt><trkpt lat="43.4795105" lon="11.6956058"><ele>254.0</ele><time>2026-05-03T08:34:51.162Z</time></trkpt><trkpt lat="43.4796428" lon="11.6956069"><ele>254.0</ele><time>2026-05-03T08:34:52.161Z</time></trkpt><trkpt lat="43.4797731" lon="11.6956091"><ele>254.0</ele><time>2026-05-03T08:34:53.162Z</time></trkpt><trkpt lat="43.4799029" lon="11.6956061"><ele>254.0</ele><time>2026-05-03T08:34:54.16Z</time></trkpt><trkpt lat="43.4800335" lon="11.6955816"><ele>254.0</ele><time>2026-05-03T08:34:55.161Z</time></trkpt><trkpt lat="43.4801649" lon="11.6955296"><ele>254.0</ele><time>2026-05-03T08:34:56.162Z</time></trkpt><trkpt lat="43.4802917" lon="11.6954531"><ele>254.0</ele><time>2026-05-03T08:34:57.161Z</time></trkpt><trkpt lat="43.480413" lon="11.6953563"><ele>254.0</ele><time>2026-05-03T08:34:58.161Z</time></trkpt><trkpt lat="43.4805271" lon="11.6952566"><ele>254.75</ele><time>2026-05-03T08:34:59.162Z</time></trkpt><trkpt lat="43.4806385" lon="11.6951659"><ele>255.5</ele><time>2026-05-03T08:35:00.162Z</time></trkpt><trkpt lat="43.4807503" lon="11.6950771"><ele>256.25</ele><time>2026-05-03T08:35:01.161Z</time></trkpt><trkpt lat="43.4808605" lon="11.6949993"><ele>257.0</ele><time>2026-05-03T08:35:02.161Z</time></trkpt><trkpt lat="43.4809668" lon="11.6949431"><ele>257.0</ele><time>2026-05-03T08:35:03.161Z</time></trkpt><trkpt lat="43.4810642" lon="11.694908"><ele>257.0</ele><time>2026-05-03T08:35:04.162Z</time></trkpt><trkpt lat="43.4811402" lon="11.6948956"><ele>257.0</ele><time>2026-05-03T08:35:05.161Z</time></trkpt><trkpt lat="43.4812239" lon="11.6948877"><ele>257.0</ele><time>2026-05-03T08:35:07.161Z</time></trkpt><trkpt lat="43.4812741" lon="11.6948288"><ele>257.0</ele><time>2026-05-03T08:35:09.16Z</time></trkpt><trkpt lat="43.4813008" lon="11.6946786"><ele>257.0</ele><time>2026-05-03T08:35:11.162Z</time></trkpt><trkpt lat="43.4813853" lon="11.6945628"><ele>257.8</ele><time>2026-05-03T08:35:13.16Z</time></trkpt><trkpt lat="43.4814637" lon="11.6945332"><ele>258.6</ele><time>2026-05-03T08:35:14.162Z</time></trkpt><trkpt lat="43.4815601" lon="11.6945222"><ele>259.40000000000003</ele><time>2026-05-03T08:35:15.162Z</time></trkpt><trkpt lat="43.4816652" lon="11.6945098"><ele>260.2</ele><time>2026-05-03T08:35:16.161Z</time></trkpt><trkpt lat="43.4817758" lon="11.6944845"><ele>261.0</ele><time>2026-05-03T08:35:17.162Z</time></trkpt><trkpt lat="43.4818992" lon="11.6944625"><ele>261.0</ele><time>2026-05-03T08:35:18.162Z</time></trkpt><trkpt lat="43.482024" lon="11.6944501"><ele>261.0</ele><time>2026-05-03T08:35:19.161Z</time></trkpt><trkpt lat="43.4821453" lon="11.6944586"><ele>261.0</ele><time>2026-05-03T08:35:20.161Z</time></trkpt><trkpt lat="43.482254" lon="11.6944834"><ele>261.0</ele><time>2026-05-03T08:35:21.161Z</time></trkpt><trkpt lat="43.4823575" lon="11.6944988"><ele>260.6666666666667</ele><time>2026-05-03T08:35:22.162Z</time></trkpt><trkpt lat="43.4824587" lon="11.694522"><ele>260.3333333333333</ele><time>2026-05-03T08:35:23.161Z</time></trkpt><trkpt lat="43.4825523" lon="11.6945436"><ele>260.0</ele><time>2026-05-03T08:35:24.162Z</time></trkpt><trkpt lat="43.4826396" lon="11.6945642"><ele>259.66666666666663</ele><time>2026-05-03T08:35:25.161Z</time></trkpt><trkpt lat="43.4827217" lon="11.6945799"><ele>259.3333333333333</ele><time>2026-05-03T08:35:26.161Z</time></trkpt><trkpt lat="43.4828002" lon="11.6945974"><ele>259.0</ele><time>2026-05-03T08:35:27.162Z</time></trkpt><trkpt lat="43.4828747" lon="11.6946141"><ele>258.66666666666663</ele><time>2026-05-03T08:35:28.162Z</time></trkpt><trkpt lat="43.4829506" lon="11.694628"><ele>258.3333333333333</ele><time>2026-05-03T08:35:29.162Z</time></trkpt><trkpt lat="43.483021" lon="11.6946422"><ele>258.0</ele><time>2026-05-03T08:35:30.162Z</time></trkpt><trkpt lat="43.4830859" lon="11.6946567"><ele>257.6666666666667</ele><time>2026-05-03T08:35:31.162Z</time></trkpt><trkpt lat="43.4831488" lon="11.6946704"><ele>257.33333333333337</ele><time>2026-05-03T08:35:32.162Z</time></trkpt><trkpt lat="43.4832665" lon="11.6946982"><ele>257.0</ele><time>2026-05-03T08:35:34.161Z</time></trkpt><trkpt lat="43.4833283" lon="11.6947248"><ele>257.0</ele><time>2026-05-03T08:35:35.162Z</time></trkpt><trkpt lat="43.4833888" lon="11.6947523"><ele>257.0</ele><time>2026-05-03T08:35:36.162Z</time></trkpt><trkpt lat="43.4834575" lon="11.6947783"><ele>257.0</ele><time>2026-05-03T08:35:37.16Z</time></trkpt><trkpt lat="43.4835192" lon="11.6948062"><ele>257.0</ele><time>2026-05-03T08:35:38.162Z</time></trkpt><trkpt lat="43.4836383" lon="11.694855"><ele>257.0</ele><time>2026-05-03T08:35:40.162Z</time></trkpt><trkpt lat="43.4837112" lon="11.6948949"><ele>257.0</ele><time>2026-05-03T08:35:41.162Z</time></trkpt><trkpt lat="43.4837912" lon="11.6949397"><ele>256.7142857142857</ele><time>2026-05-03T08:35:42.162Z</time></trkpt><trkpt lat="43.4838657" lon="11.6949827"><ele>256.42857142857144</ele><time>2026-05-03T08:35:43.16Z</time></trkpt><trkpt lat="43.483937" lon="11.6950222"><ele>256.14285714285717</ele><time>2026-05-03T08:35:44.162Z</time></trkpt><trkpt lat="43.4840057" lon="11.6950569"><ele>255.85714285714286</ele><time>2026-05-03T08:35:45.161Z</time></trkpt><trkpt lat="43.4840717" lon="11.6950755"><ele>255.5714285714286</ele><time>2026-05-03T08:35:46.161Z</time></trkpt><trkpt lat="43.4841401" lon="11.6950658"><ele>255.2857142857143</ele><time>2026-05-03T08:35:47.162Z</time></trkpt><trkpt lat="43.4842123" lon="11.6950252"><ele>255.0</ele><time>2026-05-03T08:35:48.161Z</time></trkpt><trkpt lat="43.4842871" lon="11.6949578"><ele>255.0</ele><time>2026-05-03T08:35:49.162Z</time></trkpt><trkpt lat="43.4843635" lon="11.694874"><ele>255.0</ele><time>2026-05-03T08:35:50.161Z</time></trkpt><trkpt lat="43.484452" lon="11.6947907"><ele>255.0</ele><time>2026-05-03T08:35:51.162Z</time></trkpt><trkpt lat="43.484544" lon="11.6947041"><ele>255.0</ele><time>2026-05-03T08:35:52.162Z</time></trkpt><trkpt lat="43.4846314" lon="11.6946291"><ele>255.0</ele><time>2026-05-03T08:35:53.162Z</time></trkpt><trkpt lat="43.4847263" lon="11.6945669"><ele>254.5</ele><time>2026-05-03T08:35:54.161Z</time></trkpt><trkpt lat="43.4848339" lon="11.6945182"><ele>254.0</ele><time>2026-05-03T08:35:55.161Z</time></trkpt><trkpt lat="43.4849477" lon="11.694483"><ele>253.5</ele><time>2026-05-03T08:35:56.161Z</time></trkpt><trkpt lat="43.4850642" lon="11.6944573"><ele>253.0</ele><time>2026-05-03T08:35:57.161Z</time></trkpt><trkpt lat="43.4851766" lon="11.6944282"><ele>253.2</ele><time>2026-05-03T08:35:58.162Z</time></trkpt><trkpt lat="43.4852731" lon="11.6943911"><ele>253.4</ele><time>2026-05-03T08:35:59.161Z</time></trkpt><trkpt lat="43.4853611" lon="11.694343"><ele>253.59999999999997</ele><time>2026-05-03T08:36:00.161Z</time></trkpt><trkpt lat="43.4854499" lon="11.6942712"><ele>253.79999999999998</ele><time>2026-05-03T08:36:01.162Z</time></trkpt><trkpt lat="43.4855256" lon="11.6941845"><ele>254.0</ele><time>2026-05-03T08:36:02.16Z</time></trkpt><trkpt lat="43.4856003" lon="11.6940922"><ele>254.0</ele><time>2026-05-03T08:36:03.162Z</time></trkpt><trkpt lat="43.4856833" lon="11.6939981"><ele>253.99999999999997</ele><time>2026-05-03T08:36:04.16Z</time></trkpt><trkpt lat="43.4857795" lon="11.6939242"><ele>253.99999999999997</ele><time>2026-05-03T08:36:05.161Z</time></trkpt><trkpt lat="43.4858814" lon="11.6938697"><ele>254.0</ele><time>2026-05-03T08:36:06.161Z</time></trkpt><trkpt lat="43.4859848" lon="11.6938366"><ele>254.0</ele><time>2026-05-03T08:36:07.16Z</time></trkpt><trkpt lat="43.4860908" lon="11.6938207"><ele>254.0</ele><time>2026-05-03T08:36:08.161Z</time></trkpt><trkpt lat="43.4861996" lon="11.6938261"><ele>253.99999999999997</ele><time>2026-05-03T08:36:09.162Z</time></trkpt><trkpt lat="43.4863026" lon="11.6938391"><ele>253.99999999999997</ele><time>2026-05-03T08:36:10.162Z</time></trkpt><trkpt lat="43.4863987" lon="11.693856"><ele>254.0</ele><time>2026-05-03T08:36:11.162Z</time></trkpt><trkpt lat="43.4864993" lon="11.6938706"><ele>254.0</ele><time>2026-05-03T08:36:12.162Z</time></trkpt><trkpt lat="43.4865992" lon="11.6938901"><ele>253.33333333333334</ele><time>2026-05-03T08:36:13.161Z</time></trkpt><trkpt lat="43.4866964" lon="11.6939219"><ele>252.66666666666669</ele><time>2026-05-03T08:36:14.162Z</time></trkpt><trkpt lat="43.4867843" lon="11.6939644"><ele>252.0</ele><time>2026-05-03T08:36:15.162Z</time></trkpt><trkpt lat="43.4868571" lon="11.6940181"><ele>251.33333333333331</ele><time>2026-05-03T08:36:16.162Z</time></trkpt><trkpt lat="43.4869216" lon="11.6940702"><ele>250.66666666666666</ele><time>2026-05-03T08:36:17.162Z</time></trkpt><trkpt lat="43.4869909" lon="11.6941104"><ele>250.0</ele><time>2026-05-03T08:36:18.161Z</time></trkpt><trkpt lat="43.4870687" lon="11.6941408"><ele>249.83333333333331</ele><time>2026-05-03T08:36:19.161Z</time></trkpt><trkpt lat="43.4871473" lon="11.6941772"><ele>249.66666666666666</ele><time>2026-05-03T08:36:20.161Z</time></trkpt><trkpt lat="43.487222" lon="11.694206"><ele>249.5</ele><time>2026-05-03T08:36:21.162Z</time></trkpt><trkpt lat="43.487292" lon="11.6942332"><ele>249.33333333333331</ele><time>2026-05-03T08:36:22.16Z</time></trkpt><trkpt lat="43.4873695" lon="11.6942619"><ele>249.16666666666666</ele><time>2026-05-03T08:36:23.162Z</time></trkpt><trkpt lat="43.4874526" lon="11.6942936"><ele>249.0</ele><time>2026-05-03T08:36:24.162Z</time></trkpt><trkpt lat="43.487529" lon="11.6943361"><ele>249.0</ele><time>2026-05-03T08:36:25.161Z</time></trkpt><trkpt lat="43.4876132" lon="11.6943748"><ele>248.99999999999997</ele><time>2026-05-03T08:36:26.162Z</time></trkpt><trkpt lat="43.4877052" lon="11.6944138"><ele>248.99999999999997</ele><time>2026-05-03T08:36:27.162Z</time></trkpt><trkpt lat="43.4877997" lon="11.6944481"><ele>249.0</ele><time>2026-05-03T08:36:28.161Z</time></trkpt><trkpt lat="43.4878946" lon="11.694485"><ele>249.0</ele><time>2026-05-03T08:36:29.162Z</time></trkpt><trkpt lat="43.4879952" lon="11.6945256"><ele>248.79999999999998</ele><time>2026-05-03T08:36:30.161Z</time></trkpt><trkpt lat="43.4880933" lon="11.6945708"><ele>248.59999999999997</ele><time>2026-05-03T08:36:31.162Z</time></trkpt><trkpt lat="43.4881886" lon="11.6946288"><ele>248.4</ele><time>2026-05-03T08:36:32.162Z</time></trkpt><trkpt lat="43.488281" lon="11.6947043"><ele>248.2</ele><time>2026-05-03T08:36:33.161Z</time></trkpt><trkpt lat="43.4883676" lon="11.6947976"><ele>248.0</ele><time>2026-05-03T08:36:34.162Z</time></trkpt><trkpt lat="43.4884513" lon="11.6948934"><ele>248.0</ele><time>2026-05-03T08:36:35.161Z</time></trkpt><trkpt lat="43.4885417" lon="11.6949844"><ele>248.0</ele><time>2026-05-03T08:36:36.162Z</time></trkpt><trkpt lat="43.4886392" lon="11.6950502"><ele>248.0</ele><time>2026-05-03T08:36:37.162Z</time></trkpt><trkpt lat="43.4887464" lon="11.6950915"><ele>248.0</ele><time>2026-05-03T08:36:38.162Z</time></trkpt><trkpt lat="43.4888582" lon="11.6951133"><ele>248.0</ele><time>2026-05-03T08:36:39.162Z</time></trkpt><trkpt lat="43.4889731" lon="11.6951193"><ele>247.4</ele><time>2026-05-03T08:36:40.161Z</time></trkpt><trkpt lat="43.4890792" lon="11.6951262"><ele>246.8</ele><time>2026-05-03T08:36:41.162Z</time></trkpt><trkpt lat="43.4891838" lon="11.6951465"><ele>246.2</ele><time>2026-05-03T08:36:42.162Z</time></trkpt><trkpt lat="43.489288" lon="11.6951897"><ele>245.6</ele><time>2026-05-03T08:36:43.162Z</time></trkpt><trkpt lat="43.4893897" lon="11.6952567"><ele>245.0</ele><time>2026-05-03T08:36:44.162Z</time></trkpt><trkpt lat="43.4894853" lon="11.6953436"><ele>244.6</ele><time>2026-05-03T08:36:45.161Z</time></trkpt><trkpt lat="43.4895748" lon="11.6954289"><ele>244.2</ele><time>2026-05-03T08:36:46.162Z</time></trkpt><trkpt lat="43.4896687" lon="11.6954943"><ele>243.8</ele><time>2026-05-03T08:36:47.16Z</time></trkpt><trkpt lat="43.4897687" lon="11.6955282"><ele>243.4</ele><time>2026-05-03T08:36:48.161Z</time></trkpt><trkpt lat="43.489876" lon="11.6955321"><ele>243.0</ele><time>2026-05-03T08:36:49.162Z</time></trkpt><trkpt lat="43.4899846" lon="11.6955111"><ele>242.75</ele><time>2026-05-03T08:36:50.162Z</time></trkpt><trkpt lat="43.4900976" lon="11.6954841"><ele>242.5</ele><time>2026-05-03T08:36:51.161Z</time></trkpt><trkpt lat="43.4902104" lon="11.6954582"><ele>242.25</ele><time>2026-05-03T08:36:52.162Z</time></trkpt><trkpt lat="43.4903247" lon="11.6954313"><ele>242.0</ele><time>2026-05-03T08:36:53.162Z</time></trkpt><trkpt lat="43.4904418" lon="11.6953998"><ele>241.0</ele><time>2026-05-03T08:36:54.16Z</time></trkpt><trkpt lat="43.4905502" lon="11.6953714"><ele>240.0</ele><time>2026-05-03T08:36:55.161Z</time></trkpt><trkpt lat="43.4906635" lon="11.6953579"><ele>239.0</ele><time>2026-05-03T08:36:56.161Z</time></trkpt><trkpt lat="43.4907797" lon="11.6953608"><ele>238.0</ele><time>2026-05-03T08:36:57.162Z</time></trkpt><trkpt lat="43.4908987" lon="11.6953781"><ele>238.0</ele><time>2026-05-03T08:36:58.162Z</time></trkpt><trkpt lat="43.4910171" lon="11.6954064"><ele>238.0</ele><time>2026-05-03T08:36:59.161Z</time></trkpt><trkpt lat="43.4911323" lon="11.695438"><ele>238.0</ele><time>2026-05-03T08:37:00.161Z</time></trkpt><trkpt lat="43.4912499" lon="11.6954725"><ele>238.0</ele><time>2026-05-03T08:37:01.162Z</time></trkpt><trkpt lat="43.491356" lon="11.6955108"><ele>237.4</ele><time>2026-05-03T08:37:02.162Z</time></trkpt><trkpt lat="43.4914566" lon="11.6955534"><ele>236.8</ele><time>2026-05-03T08:37:03.162Z</time></trkpt><trkpt lat="43.4915519" lon="11.6956051"><ele>236.2</ele><time>2026-05-03T08:37:04.161Z</time></trkpt><trkpt lat="43.4916486" lon="11.6956791"><ele>235.6</ele><time>2026-05-03T08:37:05.162Z</time></trkpt><trkpt lat="43.4917473" lon="11.6957715"><ele>235.0</ele><time>2026-05-03T08:37:06.162Z</time></trkpt><trkpt lat="43.4918468" lon="11.6958712"><ele>235.0</ele><time>2026-05-03T08:37:07.162Z</time></trkpt><trkpt lat="43.4919411" lon="11.6959713"><ele>235.0</ele><time>2026-05-03T08:37:08.16Z</time></trkpt><trkpt lat="43.4920353" lon="11.6960661"><ele>235.0</ele><time>2026-05-03T08:37:09.161Z</time></trkpt><trkpt lat="43.49213" lon="11.6961579"><ele>235.0</ele><time>2026-05-03T08:37:10.162Z</time></trkpt><trkpt lat="43.4922195" lon="11.6962464"><ele>233.2</ele><time>2026-05-03T08:37:11.162Z</time></trkpt><trkpt lat="43.4922991" lon="11.696342"><ele>231.4</ele><time>2026-05-03T08:37:12.162Z</time></trkpt><trkpt lat="43.4923661" lon="11.6964522"><ele>229.60000000000002</ele><time>2026-05-03T08:37:13.16Z</time></trkpt><trkpt lat="43.4924207" lon="11.6965683"><ele>227.8</ele><time>2026-05-03T08:37:14.162Z</time></trkpt><trkpt lat="43.4924692" lon="11.696666"><ele>226.0</ele><time>2026-05-03T08:37:15.161Z</time></trkpt><trkpt lat="43.4925205" lon="11.6967442"><ele>225.99999999999997</ele><time>2026-05-03T08:37:16.161Z</time></trkpt><trkpt lat="43.4925807" lon="11.696794"><ele>226.0</ele><time>2026-05-03T08:37:17.162Z</time></trkpt><trkpt lat="43.4926474" lon="11.6968226"><ele>226.0</ele><time>2026-05-03T08:37:18.162Z</time></trkpt><trkpt lat="43.4927311" lon="11.6968322"><ele>226.0</ele><time>2026-05-03T08:37:19.162Z</time></trkpt><trkpt lat="43.4928304" lon="11.6968285"><ele>225.99999999999997</ele><time>2026-05-03T08:37:20.162Z</time></trkpt><trkpt lat="43.4929372" lon="11.6968311"><ele>226.0</ele><time>2026-05-03T08:37:21.161Z</time></trkpt><trkpt lat="43.4930437" lon="11.6968396"><ele>224.83333333333331</ele><time>2026-05-03T08:37:22.161Z</time></trkpt><trkpt lat="43.4931416" lon="11.6968506"><ele>223.66666666666666</ele><time>2026-05-03T08:37:23.161Z</time></trkpt><trkpt lat="43.4932325" lon="11.6968605"><ele>222.5</ele><time>2026-05-03T08:37:24.162Z</time></trkpt><trkpt lat="43.4933123" lon="11.696877"><ele>221.33333333333331</ele><time>2026-05-03T08:37:25.161Z</time></trkpt><trkpt lat="43.4933865" lon="11.6968847"><ele>220.16666666666666</ele><time>2026-05-03T08:37:26.162Z</time></trkpt><trkpt lat="43.4934492" lon="11.6968729"><ele>219.0</ele><time>2026-05-03T08:37:27.162Z</time></trkpt><trkpt lat="43.4935532" lon="11.6967893"><ele>219.0</ele><time>2026-05-03T08:37:29.162Z</time></trkpt><trkpt lat="43.493586" lon="11.6967152"><ele>219.0</ele><time>2026-05-03T08:37:30.162Z</time></trkpt><trkpt lat="43.4936126" lon="11.6966255"><ele>219.0</ele><time>2026-05-03T08:37:31.161Z</time></trkpt><trkpt lat="43.4936373" lon="11.6965387"><ele>219.0</ele><time>2026-05-03T08:37:32.162Z</time></trkpt><trkpt lat="43.4936729" lon="11.6964633"><ele>219.0</ele><time>2026-05-03T08:37:33.162Z</time></trkpt><trkpt lat="43.4937324" lon="11.6964117"><ele>219.0</ele><time>2026-05-03T08:37:34.161Z</time></trkpt><trkpt lat="43.4937998" lon="11.6963887"><ele>219.0</ele><time>2026-05-03T08:37:35.162Z</time></trkpt><trkpt lat="43.4938767" lon="11.696402"><ele>214.39999999999998</ele><time>2026-05-03T08:37:36.162Z</time></trkpt><trkpt lat="43.4939471" lon="11.6964553"><ele>209.79999999999998</ele><time>2026-05-03T08:37:37.162Z</time></trkpt><trkpt lat="43.4940079" lon="11.6965429"><ele>205.2</ele><time>2026-05-03T08:37:38.162Z</time></trkpt><trkpt lat="43.4940714" lon="11.6966451"><ele>200.60000000000002</ele><time>2026-05-03T08:37:39.161Z</time></trkpt><trkpt lat="43.4941512" lon="11.6967373"><ele>196.0</ele><time>2026-05-03T08:37:40.161Z</time></trkpt><trkpt lat="43.494238" lon="11.6968108"><ele>196.0</ele><time>2026-05-03T08:37:41.161Z</time></trkpt><trkpt lat="43.4943247" lon="11.6968884"><ele>196.0</ele><time>2026-05-03T08:37:42.161Z</time></trkpt><trkpt lat="43.4944055" lon="11.6969841"><ele>196.0</ele><time>2026-05-03T08:37:43.162Z</time></trkpt><trkpt lat="43.494468" lon="11.6970996"><ele>196.0</ele><time>2026-05-03T08:37:44.162Z</time></trkpt><trkpt lat="43.4945143" lon="11.6972195"><ele>196.0</ele><time>2026-05-03T08:37:45.161Z</time></trkpt><trkpt lat="43.4945615" lon="11.6973295"><ele>193.60000000000002</ele><time>2026-05-03T08:37:46.161Z</time></trkpt><trkpt lat="43.4946249" lon="11.6974352"><ele>191.2</ele><time>2026-05-03T08:37:47.16Z</time></trkpt><trkpt lat="43.4947087" lon="11.6975333"><ele>188.8</ele><time>2026-05-03T08:37:48.162Z</time></trkpt><trkpt lat="43.49479" lon="11.6976265"><ele>186.39999999999998</ele><time>2026-05-03T08:37:49.162Z</time></trkpt><trkpt lat="43.4948656" lon="11.6977169"><ele>184.0</ele><time>2026-05-03T08:37:50.162Z</time></trkpt><trkpt lat="43.4949393" lon="11.6978009"><ele>184.0</ele><time>2026-05-03T08:37:51.162Z</time></trkpt><trkpt lat="43.4949996" lon="11.6978641"><ele>184.0</ele><time>2026-05-03T08:37:52.161Z</time></trkpt><trkpt lat="43.4950539" lon="11.6979204"><ele>184.0</ele><time>2026-05-03T08:37:53.162Z</time></trkpt><trkpt lat="43.4951169" lon="11.6979106"><ele>184.0</ele><time>2026-05-03T08:37:56.161Z</time></trkpt><trkpt lat="43.4950746" lon="11.6978296"><ele>184.0</ele><time>2026-05-03T08:37:58.162Z</time></trkpt><trkpt lat="43.4950253" lon="11.6977187"><ele>184.0</ele><time>2026-05-03T08:38:00.162Z</time></trkpt><trkpt lat="43.4949913" lon="11.6976288"><ele>184.0</ele><time>2026-05-03T08:38:01.162Z</time></trkpt><trkpt lat="43.494953" lon="11.6975427"><ele>183.0</ele><time>2026-05-03T08:38:02.16Z</time></trkpt><trkpt lat="43.4949222" lon="11.6974452"><ele>182.0</ele><time>2026-05-03T08:38:03.161Z</time></trkpt><trkpt lat="43.4949052" lon="11.6973245"><ele>181.0</ele><time>2026-05-03T08:38:04.161Z</time></trkpt><trkpt lat="43.4948885" lon="11.6971978"><ele>180.0</ele><time>2026-05-03T08:38:05.161Z</time></trkpt><trkpt lat="43.4948896" lon="11.6970569"><ele>179.0</ele><time>2026-05-03T08:38:06.162Z</time></trkpt><trkpt lat="43.4948874" lon="11.6969354"><ele>177.75</ele><time>2026-05-03T08:38:07.162Z</time></trkpt><trkpt lat="43.4949308" lon="11.6967863"><ele>176.5</ele><time>2026-05-03T08:38:08.162Z</time></trkpt><trkpt lat="43.4949661" lon="11.6966353"><ele>175.25</ele><time>2026-05-03T08:38:09.162Z</time></trkpt><trkpt lat="43.4949942" lon="11.6964926"><ele>174.0</ele><time>2026-05-03T08:38:10.161Z</time></trkpt><trkpt lat="43.4950365" lon="11.6963372"><ele>174.0</ele><time>2026-05-03T08:38:11.162Z</time></trkpt><trkpt lat="43.495083" lon="11.6961785"><ele>174.0</ele><time>2026-05-03T08:38:12.162Z</time></trkpt><trkpt lat="43.4951303" lon="11.6960181"><ele>174.0</ele><time>2026-05-03T08:38:13.161Z</time></trkpt><trkpt lat="43.495173" lon="11.6958532"><ele>174.0</ele><time>2026-05-03T08:38:14.162Z</time></trkpt><trkpt lat="43.4952149" lon="11.6956851"><ele>173.75</ele><time>2026-05-03T08:38:15.162Z</time></trkpt><trkpt lat="43.4952549" lon="11.6955194"><ele>173.5</ele><time>2026-05-03T08:38:16.162Z</time></trkpt><trkpt lat="43.4952942" lon="11.6953535"><ele>173.25</ele><time>2026-05-03T08:38:17.162Z</time></trkpt><trkpt lat="43.4953354" lon="11.6951896"><ele>173.0</ele><time>2026-05-03T08:38:18.162Z</time></trkpt><trkpt lat="43.4953751" lon="11.695023"><ele>173.5</ele><time>2026-05-03T08:38:19.162Z</time></trkpt><trkpt lat="43.4954184" lon="11.6948513"><ele>174.0</ele><time>2026-05-03T08:38:20.162Z</time></trkpt><trkpt lat="43.4954526" lon="11.6946798"><ele>174.5</ele><time>2026-05-03T08:38:21.161Z</time></trkpt><trkpt lat="43.4954888" lon="11.6945046"><ele>175.0</ele><time>2026-05-03T08:38:22.161Z</time></trkpt><trkpt lat="43.495521" lon="11.6943301"><ele>174.0</ele><time>2026-05-03T08:38:23.161Z</time></trkpt><trkpt lat="43.4955418" lon="11.6941549"><ele>173.0</ele><time>2026-05-03T08:38:24.162Z</time></trkpt><trkpt lat="43.4955554" lon="11.6939776"><ele>172.0</ele><time>2026-05-03T08:38:25.162Z</time></trkpt><trkpt lat="43.4955568" lon="11.6937985"><ele>171.0</ele><time>2026-05-03T08:38:26.162Z</time></trkpt><trkpt lat="43.4955537" lon="11.6936191"><ele>170.75</ele><time>2026-05-03T08:38:27.162Z</time></trkpt><trkpt lat="43.4955502" lon="11.6934379"><ele>170.5</ele><time>2026-05-03T08:38:28.162Z</time></trkpt><trkpt lat="43.4955461" lon="11.6932559"><ele>170.25</ele><time>2026-05-03T08:38:29.162Z</time></trkpt><trkpt lat="43.4955399" lon="11.693075"><ele>170.0</ele><time>2026-05-03T08:38:30.161Z</time></trkpt><trkpt lat="43.4955356" lon="11.6928953"><ele>169.75</ele><time>2026-05-03T08:38:31.161Z</time></trkpt><trkpt lat="43.4955305" lon="11.6927132"><ele>169.5</ele><time>2026-05-03T08:38:32.162Z</time></trkpt><trkpt lat="43.4955266" lon="11.6925302"><ele>169.25</ele><time>2026-05-03T08:38:33.161Z</time></trkpt><trkpt lat="43.4955225" lon="11.6923471"><ele>169.0</ele><time>2026-05-03T08:38:34.162Z</time></trkpt><trkpt lat="43.4955196" lon="11.692166"><ele>169.0</ele><time>2026-05-03T08:38:35.161Z</time></trkpt><trkpt lat="43.4955178" lon="11.6919845"><ele>169.0</ele><time>2026-05-03T08:38:36.161Z</time></trkpt><trkpt lat="43.4955168" lon="11.6918024"><ele>169.0</ele><time>2026-05-03T08:38:37.162Z</time></trkpt><trkpt lat="43.4955146" lon="11.6916278"><ele>169.0</ele><time>2026-05-03T08:38:38.162Z</time></trkpt><trkpt lat="43.4955149" lon="11.6914461"><ele>169.0</ele><time>2026-05-03T08:38:39.162Z</time></trkpt><trkpt lat="43.495525" lon="11.6912722"><ele>169.0</ele><time>2026-05-03T08:38:40.162Z</time></trkpt><trkpt lat="43.4955357" lon="11.6910959"><ele>169.0</ele><time>2026-05-03T08:38:41.161Z</time></trkpt><trkpt lat="43.4955456" lon="11.6909198"><ele>169.0</ele><time>2026-05-03T08:38:42.161Z</time></trkpt><trkpt lat="43.4955504" lon="11.6907425"><ele>169.0</ele><time>2026-05-03T08:38:43.162Z</time></trkpt><trkpt lat="43.4955586" lon="11.6905739"><ele>169.0</ele><time>2026-05-03T08:38:44.161Z</time></trkpt><trkpt lat="43.4955681" lon="11.6904007"><ele>169.0</ele><time>2026-05-03T08:38:45.16Z</time></trkpt><trkpt lat="43.4955806" lon="11.6902317"><ele>169.0</ele><time>2026-05-03T08:38:46.161Z</time></trkpt><trkpt lat="43.4956091" lon="11.690063"><ele>169.0</ele><time>2026-05-03T08:38:47.161Z</time></trkpt><trkpt lat="43.4956429" lon="11.6899061"><ele>169.0</ele><time>2026-05-03T08:38:48.161Z</time></trkpt><trkpt lat="43.4956802" lon="11.6897278"><ele>169.0</ele><time>2026-05-03T08:38:49.162Z</time></trkpt><trkpt lat="43.4957243" lon="11.6895659"><ele>169.0</ele><time>2026-05-03T08:38:50.161Z</time></trkpt><trkpt lat="43.4957714" lon="11.6894078"><ele>170.25</ele><time>2026-05-03T08:38:51.162Z</time></trkpt><trkpt lat="43.4958139" lon="11.6892579"><ele>171.5</ele><time>2026-05-03T08:38:52.16Z</time></trkpt><trkpt lat="43.4958457" lon="11.689096"><ele>172.75</ele><time>2026-05-03T08:38:53.16Z</time></trkpt><trkpt lat="43.4958596" lon="11.688931"><ele>174.0</ele><time>2026-05-03T08:38:54.161Z</time></trkpt><trkpt lat="43.495865" lon="11.6887603"><ele>174.0</ele><time>2026-05-03T08:38:55.161Z</time></trkpt><trkpt lat="43.4958739" lon="11.688613"><ele>174.0</ele><time>2026-05-03T08:38:56.161Z</time></trkpt><trkpt lat="43.4958691" lon="11.6884604"><ele>174.0</ele><time>2026-05-03T08:38:57.162Z</time></trkpt><trkpt lat="43.4958477" lon="11.6883297"><ele>174.0</ele><time>2026-05-03T08:38:58.162Z</time></trkpt><trkpt lat="43.4958614" lon="11.6881981"><ele>174.0</ele><time>2026-05-03T08:38:59.161Z</time></trkpt><trkpt lat="43.4958649" lon="11.6880723"><ele>175.2</ele><time>2026-05-03T08:39:00.162Z</time></trkpt><trkpt lat="43.495873" lon="11.687965"><ele>176.39999999999998</ele><time>2026-05-03T08:39:01.162Z</time></trkpt><trkpt lat="43.4958852" lon="11.6878795"><ele>177.6</ele><time>2026-05-03T08:39:02.162Z</time></trkpt><trkpt lat="43.4959033" lon="11.6877579"><ele>178.8</ele><time>2026-05-03T08:39:03.161Z</time></trkpt><trkpt lat="43.4959098" lon="11.6876039"><ele>180.0</ele><time>2026-05-03T08:39:04.16Z</time></trkpt><trkpt lat="43.4959389" lon="11.6874599"><ele>181.6</ele><time>2026-05-03T08:39:05.162Z</time></trkpt><trkpt lat="43.4959759" lon="11.6873117"><ele>183.2</ele><time>2026-05-03T08:39:06.161Z</time></trkpt><trkpt lat="43.4960056" lon="11.6871751"><ele>184.8</ele><time>2026-05-03T08:39:07.161Z</time></trkpt><trkpt lat="43.4960295" lon="11.6870335"><ele>186.4</ele><time>2026-05-03T08:39:08.162Z</time></trkpt><trkpt lat="43.496072" lon="11.6869123"><ele>188.0</ele><time>2026-05-03T08:39:09.162Z</time></trkpt><trkpt lat="43.496087" lon="11.6867937"><ele>188.66666666666666</ele><time>2026-05-03T08:39:10.162Z</time></trkpt><trkpt lat="43.4960981" lon="11.6866821"><ele>189.33333333333331</ele><time>2026-05-03T08:39:12.161Z</time></trkpt><trkpt lat="43.4960972" lon="11.6865916"><ele>190.0</ele><time>2026-05-03T08:39:13.162Z</time></trkpt><trkpt lat="43.496133" lon="11.6864748"><ele>190.66666666666666</ele><time>2026-05-03T08:39:15.161Z</time></trkpt><trkpt lat="43.4962344" lon="11.686385"><ele>191.33333333333334</ele><time>2026-05-03T08:39:17.162Z</time></trkpt><trkpt lat="43.4962982" lon="11.6863295"><ele>192.0</ele><time>2026-05-03T08:39:18.162Z</time></trkpt><trkpt lat="43.4963684" lon="11.6862298"><ele>190.39999999999998</ele><time>2026-05-03T08:39:19.162Z</time></trkpt><trkpt lat="43.4964507" lon="11.6861481"><ele>188.79999999999998</ele><time>2026-05-03T08:39:20.16Z</time></trkpt><trkpt lat="43.4965245" lon="11.6860301"><ele>187.2</ele><time>2026-05-03T08:39:21.162Z</time></trkpt><trkpt lat="43.4966073" lon="11.685926"><ele>185.6</ele><time>2026-05-03T08:39:22.161Z</time></trkpt><trkpt lat="43.4966887" lon="11.6858236"><ele>184.0</ele><time>2026-05-03T08:39:23.162Z</time></trkpt><trkpt lat="43.4967687" lon="11.6857007"><ele>184.0</ele><time>2026-05-03T08:39:24.162Z</time></trkpt><trkpt lat="43.4968601" lon="11.6855816"><ele>184.0</ele><time>2026-05-03T08:39:25.161Z</time></trkpt><trkpt lat="43.4969359" lon="11.6854642"><ele>184.0</ele><time>2026-05-03T08:39:26.162Z</time></trkpt><trkpt lat="43.4970044" lon="11.6853308"><ele>184.0</ele><time>2026-05-03T08:39:27.162Z</time></trkpt><trkpt lat="43.4970794" lon="11.6852186"><ele>181.5</ele><time>2026-05-03T08:39:28.162Z</time></trkpt><trkpt lat="43.4971466" lon="11.6850896"><ele>179.0</ele><time>2026-05-03T08:39:29.161Z</time></trkpt><trkpt lat="43.4972228" lon="11.6849728"><ele>176.5</ele><time>2026-05-03T08:39:30.161Z</time></trkpt><trkpt lat="43.4973156" lon="11.6848532"><ele>174.0</ele><time>2026-05-03T08:39:31.161Z</time></trkpt><trkpt lat="43.4974036" lon="11.6847382"><ele>174.0</ele><time>2026-05-03T08:39:32.162Z</time></trkpt><trkpt lat="43.4974855" lon="11.6846295"><ele>174.0</ele><time>2026-05-03T08:39:33.162Z</time></trkpt><trkpt lat="43.4975398" lon="11.6845385"><ele>174.0</ele><time>2026-05-03T08:39:34.161Z</time></trkpt><trkpt lat="43.4975903" lon="11.6844315"><ele>174.0</ele><time>2026-05-03T08:39:35.162Z</time></trkpt><trkpt lat="43.4976159" lon="11.68433"><ele>174.0</ele><time>2026-05-03T08:39:36.162Z</time></trkpt><trkpt lat="43.4976559" lon="11.6842213"><ele>173.6</ele><time>2026-05-03T08:39:37.161Z</time></trkpt><trkpt lat="43.4977006" lon="11.6840919"><ele>173.2</ele><time>2026-05-03T08:39:38.16Z</time></trkpt><trkpt lat="43.4977631" lon="11.6839722"><ele>172.79999999999998</ele><time>2026-05-03T08:39:39.161Z</time></trkpt><trkpt lat="43.4978341" lon="11.6838568"><ele>172.39999999999998</ele><time>2026-05-03T08:39:40.161Z</time></trkpt><trkpt lat="43.4978947" lon="11.6837301"><ele>172.0</ele><time>2026-05-03T08:39:41.162Z</time></trkpt><trkpt lat="43.4979522" lon="11.6835935"><ele>172.0</ele><time>2026-05-03T08:39:42.161Z</time></trkpt><trkpt lat="43.4980033" lon="11.6834582"><ele>172.0</ele><time>2026-05-03T08:39:43.162Z</time></trkpt><trkpt lat="43.4980484" lon="11.6833124"><ele>172.0</ele><time>2026-05-03T08:39:44.162Z</time></trkpt><trkpt lat="43.4980801" lon="11.6831778"><ele>172.0</ele><time>2026-05-03T08:39:45.161Z</time></trkpt><trkpt lat="43.4981284" lon="11.6830495"><ele>172.0</ele><time>2026-05-03T08:39:46.16Z</time></trkpt><trkpt lat="43.4981702" lon="11.6829101"><ele>172.0</ele><time>2026-05-03T08:39:47.16Z</time></trkpt><trkpt lat="43.4982047" lon="11.6827675"><ele>172.0</ele><time>2026-05-03T08:39:48.162Z</time></trkpt><trkpt lat="43.4982421" lon="11.6826259"><ele>172.0</ele><time>2026-05-03T08:39:49.162Z</time></trkpt><trkpt lat="43.4982756" lon="11.6824861"><ele>172.0</ele><time>2026-05-03T08:39:50.162Z</time></trkpt><trkpt lat="43.4982876" lon="11.6823549"><ele>172.0</ele><time>2026-05-03T08:39:51.161Z</time></trkpt><trkpt lat="43.4982944" lon="11.6822069"><ele>173.25</ele><time>2026-05-03T08:39:52.16Z</time></trkpt><trkpt lat="43.4982771" lon="11.6820269"><ele>174.5</ele><time>2026-05-03T08:39:53.162Z</time></trkpt><trkpt lat="43.4983034" lon="11.6818844"><ele>175.75</ele><time>2026-05-03T08:39:54.162Z</time></trkpt><trkpt lat="43.4983324" lon="11.6817366"><ele>177.0</ele><time>2026-05-03T08:39:55.162Z</time></trkpt><trkpt lat="43.4983625" lon="11.6815989"><ele>177.39999999999998</ele><time>2026-05-03T08:39:56.161Z</time></trkpt><trkpt lat="43.4983806" lon="11.6814766"><ele>177.79999999999998</ele><time>2026-05-03T08:39:57.161Z</time></trkpt><trkpt lat="43.4984011" lon="11.6813501"><ele>178.2</ele><time>2026-05-03T08:39:58.162Z</time></trkpt><trkpt lat="43.4983903" lon="11.6811943"><ele>178.6</ele><time>2026-05-03T08:39:59.161Z</time></trkpt><trkpt lat="43.498407" lon="11.6810605"><ele>179.0</ele><time>2026-05-03T08:40:00.161Z</time></trkpt><trkpt lat="43.4984438" lon="11.6809193"><ele>179.75</ele><time>2026-05-03T08:40:01.162Z</time></trkpt><trkpt lat="43.4984814" lon="11.6807794"><ele>180.5</ele><time>2026-05-03T08:40:02.161Z</time></trkpt><trkpt lat="43.4985144" lon="11.6806233"><ele>181.25</ele><time>2026-05-03T08:40:03.162Z</time></trkpt><trkpt lat="43.4985452" lon="11.6804656"><ele>182.0</ele><time>2026-05-03T08:40:04.16Z</time></trkpt><trkpt lat="43.4985739" lon="11.6803124"><ele>182.2</ele><time>2026-05-03T08:40:05.161Z</time></trkpt><trkpt lat="43.4986036" lon="11.6801605"><ele>182.39999999999998</ele><time>2026-05-03T08:40:06.161Z</time></trkpt><trkpt lat="43.4986327" lon="11.6800249"><ele>182.60000000000002</ele><time>2026-05-03T08:40:07.162Z</time></trkpt><trkpt lat="43.4986554" lon="11.6798821"><ele>182.8</ele><time>2026-05-03T08:40:08.162Z</time></trkpt><trkpt lat="43.4986877" lon="11.6797781"><ele>183.0</ele><time>2026-05-03T08:40:09.161Z</time></trkpt><trkpt lat="43.4986945" lon="11.6796677"><ele>183.0</ele><time>2026-05-03T08:40:10.161Z</time></trkpt><trkpt lat="43.4987092" lon="11.6795616"><ele>183.0</ele><time>2026-05-03T08:40:11.162Z</time></trkpt><trkpt lat="43.4987149" lon="11.6794331"><ele>183.0</ele><time>2026-05-03T08:40:12.162Z</time></trkpt><trkpt lat="43.4986577" lon="11.6793074"><ele>183.0</ele><time>2026-05-03T08:40:13.161Z</time></trkpt><trkpt lat="43.498675" lon="11.6791848"><ele>183.0</ele><time>2026-05-03T08:40:15.162Z</time></trkpt><trkpt lat="43.4987275" lon="11.6791212"><ele>183.0</ele><time>2026-05-03T08:40:16.161Z</time></trkpt><trkpt lat="43.498789" lon="11.6790403"><ele>182.4</ele><time>2026-05-03T08:40:17.16Z</time></trkpt><trkpt lat="43.4988407" lon="11.6789496"><ele>181.8</ele><time>2026-05-03T08:40:18.162Z</time></trkpt><trkpt lat="43.4989018" lon="11.6788556"><ele>181.2</ele><time>2026-05-03T08:40:19.161Z</time></trkpt><trkpt lat="43.4989684" lon="11.6787655"><ele>180.6</ele><time>2026-05-03T08:40:20.161Z</time></trkpt><trkpt lat="43.4989929" lon="11.6786313"><ele>180.0</ele><time>2026-05-03T08:40:21.16Z</time></trkpt><trkpt lat="43.4990443" lon="11.6784871"><ele>180.0</ele><time>2026-05-03T08:40:22.161Z</time></trkpt><trkpt lat="43.4990804" lon="11.6783694"><ele>180.0</ele><time>2026-05-03T08:40:23.16Z</time></trkpt><trkpt lat="43.4991266" lon="11.678265"><ele>180.0</ele><time>2026-05-03T08:40:24.162Z</time></trkpt><trkpt lat="43.4991707" lon="11.6781727"><ele>180.0</ele><time>2026-05-03T08:40:25.162Z</time></trkpt><trkpt lat="43.4992597" lon="11.6781122"><ele>180.0</ele><time>2026-05-03T08:40:26.161Z</time></trkpt><trkpt lat="43.4993257" lon="11.67801"><ele>180.0</ele><time>2026-05-03T08:40:27.161Z</time></trkpt><trkpt lat="43.4994198" lon="11.6779319"><ele>180.0</ele><time>2026-05-03T08:40:28.162Z</time></trkpt><trkpt lat="43.4995069" lon="11.6778502"><ele>180.0</ele><time>2026-05-03T08:40:29.162Z</time></trkpt><trkpt lat="43.4995963" lon="11.6777788"><ele>180.0</ele><time>2026-05-03T08:40:30.162Z</time></trkpt><trkpt lat="43.4997081" lon="11.677701"><ele>180.0</ele><time>2026-05-03T08:40:31.161Z</time></trkpt><trkpt lat="43.4998073" lon="11.677654"><ele>179.0</ele><time>2026-05-03T08:40:32.161Z</time></trkpt><trkpt lat="43.4999256" lon="11.6775767"><ele>178.0</ele><time>2026-05-03T08:40:33.161Z</time></trkpt><trkpt lat="43.5000139" lon="11.6774893"><ele>177.0</ele><time>2026-05-03T08:40:34.162Z</time></trkpt><trkpt lat="43.5001188" lon="11.6774117"><ele>176.0</ele><time>2026-05-03T08:40:35.161Z</time></trkpt><trkpt lat="43.5002108" lon="11.6773199"><ele>176.0</ele><time>2026-05-03T08:40:36.161Z</time></trkpt><trkpt lat="43.5003063" lon="11.6772302"><ele>176.0</ele><time>2026-05-03T08:40:37.162Z</time></trkpt><trkpt lat="43.5003912" lon="11.6771355"><ele>176.0</ele><time>2026-05-03T08:40:38.161Z</time></trkpt><trkpt lat="43.5004847" lon="11.6770495"><ele>176.0</ele><time>2026-05-03T08:40:39.161Z</time></trkpt><trkpt lat="43.5005518" lon="11.6769794"><ele>176.0</ele><time>2026-05-03T08:40:40.162Z</time></trkpt><trkpt lat="43.5006268" lon="11.6769073"><ele>175.5</ele><time>2026-05-03T08:40:41.161Z</time></trkpt><trkpt lat="43.5006579" lon="11.6768229"><ele>175.0</ele><time>2026-05-03T08:40:42.161Z</time></trkpt><trkpt lat="43.500617" lon="11.6766967"><ele>174.5</ele><time>2026-05-03T08:40:43.162Z</time></trkpt><trkpt lat="43.5006165" lon="11.6765856"><ele>174.0</ele><time>2026-05-03T08:40:44.161Z</time></trkpt><trkpt lat="43.5006022" lon="11.6764981"><ele>173.5</ele><time>2026-05-03T08:40:45.16Z</time></trkpt><trkpt lat="43.500597" lon="11.676406"><ele>173.0</ele><time>2026-05-03T08:40:46.162Z</time></trkpt><trkpt lat="43.500565" lon="11.6763231"><ele>173.0</ele><time>2026-05-03T08:40:47.162Z</time></trkpt><trkpt lat="43.5005263" lon="11.676245"><ele>173.0</ele><time>2026-05-03T08:40:48.162Z</time></trkpt><trkpt lat="43.5004896" lon="11.6760806"><ele>173.0</ele><time>2026-05-03T08:40:50.162Z</time></trkpt><trkpt lat="43.5004715" lon="11.6759443"><ele>173.0</ele><time>2026-05-03T08:40:52.162Z</time></trkpt><trkpt lat="43.5004941" lon="11.6758577"><ele>173.0</ele><time>2026-05-03T08:40:56.162Z</time></trkpt><trkpt lat="43.5005491" lon="11.6757913"><ele>173.0</ele><time>2026-05-03T08:40:59.162Z</time></trkpt><trkpt lat="43.5006302" lon="11.6757228"><ele>173.2</ele><time>2026-05-03T08:41:01.162Z</time></trkpt><trkpt lat="43.5007146" lon="11.6755933"><ele>173.4</ele><time>2026-05-03T08:41:03.161Z</time></trkpt><trkpt lat="43.5007752" lon="11.6755167"><ele>173.6</ele><time>2026-05-03T08:41:04.162Z</time></trkpt><trkpt lat="43.500831" lon="11.6754454"><ele>173.79999999999998</ele><time>2026-05-03T08:41:05.162Z</time></trkpt><trkpt lat="43.5009007" lon="11.6753751"><ele>174.0</ele><time>2026-05-03T08:41:06.162Z</time></trkpt><trkpt lat="43.5009749" lon="11.675303"><ele>176.0</ele><time>2026-05-03T08:41:07.162Z</time></trkpt><trkpt lat="43.5010441" lon="11.6752311"><ele>178.0</ele><time>2026-05-03T08:41:08.162Z</time></trkpt><trkpt lat="43.5011083" lon="11.6751612"><ele>180.0</ele><time>2026-05-03T08:41:09.162Z</time></trkpt><trkpt lat="43.5011621" lon="11.6750782"><ele>182.0</ele><time>2026-05-03T08:41:10.162Z</time></trkpt><trkpt lat="43.5011946" lon="11.6749473"><ele>184.0</ele><time>2026-05-03T08:41:11.162Z</time></trkpt><trkpt lat="43.5012084" lon="11.6748251"><ele>186.0</ele><time>2026-05-03T08:41:12.162Z</time></trkpt><trkpt lat="43.5012183" lon="11.6746895"><ele>186.0</ele><time>2026-05-03T08:41:13.162Z</time></trkpt><trkpt lat="43.5012241" lon="11.6745403"><ele>186.0</ele><time>2026-05-03T08:41:14.161Z</time></trkpt><trkpt lat="43.5012267" lon="11.6743893"><ele>186.0</ele><time>2026-05-03T08:41:15.161Z</time></trkpt><trkpt lat="43.5012348" lon="11.6742511"><ele>186.0</ele><time>2026-05-03T08:41:16.162Z</time></trkpt><trkpt lat="43.5012454" lon="11.6741281"><ele>186.0</ele><time>2026-05-03T08:41:17.16Z</time></trkpt><trkpt lat="43.50126" lon="11.6740168"><ele>183.60000000000002</ele><time>2026-05-03T08:41:18.161Z</time></trkpt><trkpt lat="43.5012806" lon="11.6739235"><ele>181.2</ele><time>2026-05-03T08:41:19.161Z</time></trkpt><trkpt lat="43.5013136" lon="11.6738461"><ele>178.8</ele><time>2026-05-03T08:41:20.162Z</time></trkpt><trkpt lat="43.5013979" lon="11.6737623"><ele>176.39999999999998</ele><time>2026-05-03T08:41:22.162Z</time></trkpt><trkpt lat="43.5014895" lon="11.6737857"><ele>174.0</ele><time>2026-05-03T08:41:24.162Z</time></trkpt><trkpt lat="43.5015714" lon="11.6739391"><ele>174.0</ele><time>2026-05-03T08:41:26.161Z</time></trkpt><trkpt lat="43.5016135" lon="11.6740473"><ele>174.0</ele><time>2026-05-03T08:41:27.162Z</time></trkpt><trkpt lat="43.5016616" lon="11.6741684"><ele>174.0</ele><time>2026-05-03T08:41:28.161Z</time></trkpt><trkpt lat="43.5017121" lon="11.6743052"><ele>174.0</ele><time>2026-05-03T08:41:29.162Z</time></trkpt><trkpt lat="43.5017643" lon="11.67445"><ele>174.0</ele><time>2026-05-03T08:41:30.161Z</time></trkpt><trkpt lat="43.5018201" lon="11.6745984"><ele>173.5</ele><time>2026-05-03T08:41:31.162Z</time></trkpt><trkpt lat="43.5018823" lon="11.6747535"><ele>173.0</ele><time>2026-05-03T08:41:32.161Z</time></trkpt><trkpt lat="43.50195" lon="11.6749093"><ele>172.5</ele><time>2026-05-03T08:41:33.161Z</time></trkpt><trkpt lat="43.5020286" lon="11.6750614"><ele>172.0</ele><time>2026-05-03T08:41:34.161Z</time></trkpt><trkpt lat="43.5021209" lon="11.675208"><ele>172.0</ele><time>2026-05-03T08:41:35.162Z</time></trkpt><trkpt lat="43.5022212" lon="11.6753485"><ele>172.0</ele><time>2026-05-03T08:41:36.162Z</time></trkpt><trkpt lat="43.5023271" lon="11.675486"><ele>172.0</ele><time>2026-05-03T08:41:37.162Z</time></trkpt><trkpt lat="43.5024294" lon="11.6756156"><ele>172.0</ele><time>2026-05-03T08:41:38.161Z</time></trkpt><trkpt lat="43.5025301" lon="11.6757492"><ele>172.0</ele><time>2026-05-03T08:41:39.162Z</time></trkpt><trkpt lat="43.5026117" lon="11.6758891"><ele>172.0</ele><time>2026-05-03T08:41:40.162Z</time></trkpt><trkpt lat="43.5026475" lon="11.6760476"><ele>172.0</ele><time>2026-05-03T08:41:41.162Z</time></trkpt><trkpt lat="43.5026523" lon="11.6762096"><ele>172.0</ele><time>2026-05-03T08:41:42.162Z</time></trkpt><trkpt lat="43.5026282" lon="11.6763681"><ele>173.2</ele><time>2026-05-03T08:41:43.162Z</time></trkpt><trkpt lat="43.5025836" lon="11.6765218"><ele>174.39999999999998</ele><time>2026-05-03T08:41:44.162Z</time></trkpt><trkpt lat="43.5025346" lon="11.6766671"><ele>175.60000000000002</ele><time>2026-05-03T08:41:45.162Z</time></trkpt><trkpt lat="43.5024923" lon="11.6767969"><ele>176.8</ele><time>2026-05-03T08:41:46.162Z</time></trkpt><trkpt lat="43.5024567" lon="11.6769149"><ele>178.0</ele><time>2026-05-03T08:41:47.161Z</time></trkpt><trkpt lat="43.5024315" lon="11.6770163"><ele>178.0</ele><time>2026-05-03T08:41:48.161Z</time></trkpt><trkpt lat="43.5024292" lon="11.677104"><ele>178.0</ele><time>2026-05-03T08:41:49.162Z</time></trkpt><trkpt lat="43.5025046" lon="11.6771911"><ele>178.0</ele><time>2026-05-03T08:41:51.162Z</time></trkpt><trkpt lat="43.502582" lon="11.6770976"><ele>178.0</ele><time>2026-05-03T08:41:53.162Z</time></trkpt><trkpt lat="43.5026084" lon="11.6769946"><ele>178.0</ele><time>2026-05-03T08:41:54.161Z</time></trkpt><trkpt lat="43.5026315" lon="11.6768673"><ele>178.0</ele><time>2026-05-03T08:41:55.161Z</time></trkpt><trkpt lat="43.5026633" lon="11.676732"><ele>178.0</ele><time>2026-05-03T08:41:56.161Z</time></trkpt><trkpt lat="43.5027071" lon="11.6765926"><ele>178.0</ele><time>2026-05-03T08:41:57.16Z</time></trkpt><trkpt lat="43.5027637" lon="11.6764528"><ele>178.0</ele><time>2026-05-03T08:41:58.162Z</time></trkpt><trkpt lat="43.502839" lon="11.6763252"><ele>178.0</ele><time>2026-05-03T08:41:59.162Z</time></trkpt><trkpt lat="43.502926" lon="11.676209"><ele>180.75</ele><time>2026-05-03T08:42:00.162Z</time></trkpt><trkpt lat="43.503022" lon="11.6761056"><ele>183.5</ele><time>2026-05-03T08:42:01.161Z</time></trkpt><trkpt lat="43.5031269" lon="11.6760131"><ele>186.25</ele><time>2026-05-03T08:42:02.161Z</time></trkpt><trkpt lat="43.5032394" lon="11.6759318"><ele>189.0</ele><time>2026-05-03T08:42:03.162Z</time></trkpt><trkpt lat="43.5033528" lon="11.6758537"><ele>189.0</ele><time>2026-05-03T08:42:04.161Z</time></trkpt><trkpt lat="43.5034702" lon="11.675784"><ele>189.0</ele><time>2026-05-03T08:42:05.161Z</time></trkpt><trkpt lat="43.5035927" lon="11.6757108"><ele>189.0</ele><time>2026-05-03T08:42:06.162Z</time></trkpt><trkpt lat="43.5037071" lon="11.675624"><ele>189.0</ele><time>2026-05-03T08:42:07.162Z</time></trkpt><trkpt lat="43.5038009" lon="11.6755056"><ele>192.5</ele><time>2026-05-03T08:42:08.161Z</time></trkpt><trkpt lat="43.5038944" lon="11.6753887"><ele>196.0</ele><time>2026-05-03T08:42:09.162Z</time></trkpt><trkpt lat="43.5039336" lon="11.675194"><ele>199.5</ele><time>2026-05-03T08:42:10.162Z</time></trkpt><trkpt lat="43.5040042" lon="11.675056"><ele>203.0</ele><time>2026-05-03T08:42:11.162Z</time></trkpt><trkpt lat="43.5040845" lon="11.6749317"><ele>203.0</ele><time>2026-05-03T08:42:12.162Z</time></trkpt><trkpt lat="43.5041884" lon="11.6748479"><ele>203.0</ele><time>2026-05-03T08:42:13.162Z</time></trkpt><trkpt lat="43.5043052" lon="11.6747992"><ele>203.0</ele><time>2026-05-03T08:42:14.162Z</time></trkpt><trkpt lat="43.5044333" lon="11.6747956"><ele>203.0</ele><time>2026-05-03T08:42:15.161Z</time></trkpt><trkpt lat="43.5045476" lon="11.6748237"><ele>205.4</ele><time>2026-05-03T08:42:16.16Z</time></trkpt><trkpt lat="43.5046416" lon="11.6748432"><ele>207.8</ele><time>2026-05-03T08:42:17.162Z</time></trkpt><trkpt lat="43.5047325" lon="11.6748661"><ele>210.2</ele><time>2026-05-03T08:42:18.162Z</time></trkpt><trkpt lat="43.5048193" lon="11.6748143"><ele>212.6</ele><time>2026-05-03T08:42:19.162Z</time></trkpt><trkpt lat="43.5048759" lon="11.6747662"><ele>215.0</ele><time>2026-05-03T08:42:20.162Z</time></trkpt><trkpt lat="43.5048469" lon="11.6745543"><ele>214.5</ele><time>2026-05-03T08:42:21.161Z</time></trkpt><trkpt lat="43.5047632" lon="11.6743559"><ele>214.0</ele><time>2026-05-03T08:42:22.161Z</time></trkpt><trkpt lat="43.5047732" lon="11.6742023"><ele>213.5</ele><time>2026-05-03T08:42:23.161Z</time></trkpt><trkpt lat="43.5047973" lon="11.6740537"><ele>213.0</ele><time>2026-05-03T08:42:24.162Z</time></trkpt><trkpt lat="43.5048331" lon="11.6738935"><ele>213.0</ele><time>2026-05-03T08:42:25.162Z</time></trkpt><trkpt lat="43.5048698" lon="11.6737283"><ele>213.0</ele><time>2026-05-03T08:42:26.161Z</time></trkpt><trkpt lat="43.5049084" lon="11.6735596"><ele>213.0</ele><time>2026-05-03T08:42:27.162Z</time></trkpt><trkpt lat="43.5049405" lon="11.6733832"><ele>213.0</ele><time>2026-05-03T08:42:28.162Z</time></trkpt><trkpt lat="43.5049676" lon="11.6732083"><ele>213.4</ele><time>2026-05-03T08:42:29.162Z</time></trkpt><trkpt lat="43.504995" lon="11.6730374"><ele>213.8</ele><time>2026-05-03T08:42:30.161Z</time></trkpt><trkpt lat="43.5050185" lon="11.672897"><ele>214.2</ele><time>2026-05-03T08:42:31.162Z</time></trkpt><trkpt lat="43.5050428" lon="11.6727678"><ele>214.6</ele><time>2026-05-03T08:42:32.162Z</time></trkpt><trkpt lat="43.5050674" lon="11.6726507"><ele>215.0</ele><time>2026-05-03T08:42:33.161Z</time></trkpt><trkpt lat="43.5050875" lon="11.6725339"><ele>215.2</ele><time>2026-05-03T08:42:34.161Z</time></trkpt><trkpt lat="43.5051102" lon="11.6724013"><ele>215.4</ele><time>2026-05-03T08:42:35.162Z</time></trkpt><trkpt lat="43.5051338" lon="11.6722605"><ele>215.60000000000002</ele><time>2026-05-03T08:42:36.162Z</time></trkpt><trkpt lat="43.5051557" lon="11.6721251"><ele>215.8</ele><time>2026-05-03T08:42:37.162Z</time></trkpt><trkpt lat="43.5051728" lon="11.672003"><ele>216.0</ele><time>2026-05-03T08:42:38.162Z</time></trkpt><trkpt lat="43.5052216" lon="11.6719093"><ele>216.0</ele><time>2026-05-03T08:42:39.162Z</time></trkpt><trkpt lat="43.5052791" lon="11.6718321"><ele>216.00000000000003</ele><time>2026-05-03T08:42:40.162Z</time></trkpt><trkpt lat="43.5053708" lon="11.6718604"><ele>216.00000000000003</ele><time>2026-05-03T08:42:41.162Z</time></trkpt><trkpt lat="43.5054574" lon="11.6718591"><ele>216.0</ele><time>2026-05-03T08:42:42.162Z</time></trkpt><trkpt lat="43.5055599" lon="11.6719254"><ele>216.0</ele><time>2026-05-03T08:42:43.16Z</time></trkpt><trkpt lat="43.5055456" lon="11.672154"><ele>216.75</ele><time>2026-05-03T08:42:44.161Z</time></trkpt><trkpt lat="43.5055601" lon="11.6723031"><ele>217.5</ele><time>2026-05-03T08:42:45.162Z</time></trkpt><trkpt lat="43.5055728" lon="11.6724592"><ele>218.25</ele><time>2026-05-03T08:42:46.16Z</time></trkpt><trkpt lat="43.5056277" lon="11.6726438"><ele>219.0</ele><time>2026-05-03T08:42:47.16Z</time></trkpt><trkpt lat="43.5057034" lon="11.6728041"><ele>219.0</ele><time>2026-05-03T08:42:48.162Z</time></trkpt><trkpt lat="43.5058408" lon="11.6729243"><ele>219.0</ele><time>2026-05-03T08:42:49.162Z</time></trkpt><trkpt lat="43.5059388" lon="11.6730685"><ele>219.0</ele><time>2026-05-03T08:42:50.162Z</time></trkpt><trkpt lat="43.5060481" lon="11.6731879"><ele>219.0</ele><time>2026-05-03T08:42:51.162Z</time></trkpt><trkpt lat="43.5061738" lon="11.6733019"><ele>216.25</ele><time>2026-05-03T08:42:52.162Z</time></trkpt><trkpt lat="43.5063057" lon="11.6733576"><ele>213.5</ele><time>2026-05-03T08:42:53.162Z</time></trkpt><trkpt lat="43.5064183" lon="11.6734418"><ele>210.75</ele><time>2026-05-03T08:42:54.162Z</time></trkpt><trkpt lat="43.5065218" lon="11.673505"><ele>208.0</ele><time>2026-05-03T08:42:55.162Z</time></trkpt><trkpt lat="43.5066158" lon="11.6735295"><ele>208.0</ele><time>2026-05-03T08:42:56.162Z</time></trkpt><trkpt lat="43.5067112" lon="11.6735077"><ele>208.0</ele><time>2026-05-03T08:42:57.161Z</time></trkpt><trkpt lat="43.5067948" lon="11.6734767"><ele>208.0</ele><time>2026-05-03T08:42:58.16Z</time></trkpt><trkpt lat="43.5068864" lon="11.6734419"><ele>208.0</ele><time>2026-05-03T08:42:59.161Z</time></trkpt><trkpt lat="43.5069756" lon="11.6732564"><ele>208.0</ele><time>2026-05-03T08:43:00.162Z</time></trkpt><trkpt lat="43.5070628" lon="11.6731161"><ele>209.25</ele><time>2026-05-03T08:43:01.161Z</time></trkpt><trkpt lat="43.507178" lon="11.673011"><ele>210.5</ele><time>2026-05-03T08:43:02.162Z</time></trkpt><trkpt lat="43.5073065" lon="11.6729578"><ele>211.75</ele><time>2026-05-03T08:43:03.161Z</time></trkpt><trkpt lat="43.5074329" lon="11.6729151"><ele>213.0</ele><time>2026-05-03T08:43:04.162Z</time></trkpt><trkpt lat="43.5075722" lon="11.672913"><ele>213.0</ele><time>2026-05-03T08:43:05.162Z</time></trkpt><trkpt lat="43.5077089" lon="11.6729218"><ele>213.0</ele><time>2026-05-03T08:43:06.162Z</time></trkpt><trkpt lat="43.5078426" lon="11.6729599"><ele>213.0</ele><time>2026-05-03T08:43:07.161Z</time></trkpt><trkpt lat="43.5079725" lon="11.6730181"><ele>213.0</ele><time>2026-05-03T08:43:08.162Z</time></trkpt><trkpt lat="43.5080958" lon="11.6730943"><ele>212.0</ele><time>2026-05-03T08:43:09.161Z</time></trkpt><trkpt lat="43.5082082" lon="11.6731902"><ele>211.0</ele><time>2026-05-03T08:43:10.161Z</time></trkpt><trkpt lat="43.5083193" lon="11.6732895"><ele>210.0</ele><time>2026-05-03T08:43:11.161Z</time></trkpt><trkpt lat="43.5084284" lon="11.6733824"><ele>209.0</ele><time>2026-05-03T08:43:12.162Z</time></trkpt><trkpt lat="43.5085426" lon="11.673472"><ele>209.0</ele><time>2026-05-03T08:43:13.162Z</time></trkpt><trkpt lat="43.5086651" lon="11.673554"><ele>209.0</ele><time>2026-05-03T08:43:14.161Z</time></trkpt><trkpt lat="43.5087852" lon="11.6736431"><ele>209.0</ele><time>2026-05-03T08:43:15.16Z</time></trkpt><trkpt lat="43.5089066" lon="11.6737314"><ele>209.0</ele><time>2026-05-03T08:43:16.161Z</time></trkpt><trkpt lat="43.5090178" lon="11.6738245"><ele>208.75</ele><time>2026-05-03T08:43:17.161Z</time></trkpt><trkpt lat="43.5091147" lon="11.6739278"><ele>208.5</ele><time>2026-05-03T08:43:18.161Z</time></trkpt><trkpt lat="43.5092034" lon="11.6740553"><ele>208.25</ele><time>2026-05-03T08:43:19.162Z</time></trkpt><trkpt lat="43.5092903" lon="11.6741805"><ele>208.0</ele><time>2026-05-03T08:43:20.162Z</time></trkpt><trkpt lat="43.509398" lon="11.6742865"><ele>208.0</ele><time>2026-05-03T08:43:21.162Z</time></trkpt><trkpt lat="43.5095255" lon="11.6743582"><ele>208.0</ele><time>2026-05-03T08:43:22.16Z</time></trkpt><trkpt lat="43.5096579" lon="11.6744171"><ele>208.0</ele><time>2026-05-03T08:43:23.161Z</time></trkpt><trkpt lat="43.5097912" lon="11.674437"><ele>208.0</ele><time>2026-05-03T08:43:24.162Z</time></trkpt><trkpt lat="43.509932" lon="11.6744779"><ele>207.0</ele><time>2026-05-03T08:43:25.161Z</time></trkpt><trkpt lat="43.5100683" lon="11.6745354"><ele>206.0</ele><time>2026-05-03T08:43:26.162Z</time></trkpt><trkpt lat="43.5102044" lon="11.6745976"><ele>205.0</ele><time>2026-05-03T08:43:27.161Z</time></trkpt><trkpt lat="43.5103415" lon="11.6746503"><ele>204.0</ele><time>2026-05-03T08:43:28.161Z</time></trkpt><trkpt lat="43.5104769" lon="11.6746973"><ele>199.25</ele><time>2026-05-03T08:43:29.162Z</time></trkpt><trkpt lat="43.5106183" lon="11.6747042"><ele>194.5</ele><time>2026-05-03T08:43:30.161Z</time></trkpt><trkpt lat="43.5107559" lon="11.6747433"><ele>189.75</ele><time>2026-05-03T08:43:31.162Z</time></trkpt><trkpt lat="43.5108856" lon="11.674793"><ele>185.0</ele><time>2026-05-03T08:43:32.161Z</time></trkpt><trkpt lat="43.5110218" lon="11.6748382"><ele>185.0</ele><time>2026-05-03T08:43:33.162Z</time></trkpt><trkpt lat="43.5111545" lon="11.6748953"><ele>185.0</ele><time>2026-05-03T08:43:34.161Z</time></trkpt><trkpt lat="43.5112902" lon="11.6749638"><ele>185.0</ele><time>2026-05-03T08:43:35.161Z</time></trkpt><trkpt lat="43.511412" lon="11.6750745"><ele>185.0</ele><time>2026-05-03T08:43:36.162Z</time></trkpt><trkpt lat="43.5115406" lon="11.6751777"><ele>185.33333333333331</ele><time>2026-05-03T08:43:37.161Z</time></trkpt><trkpt lat="43.5116725" lon="11.6752815"><ele>185.66666666666666</ele><time>2026-05-03T08:43:38.162Z</time></trkpt><trkpt lat="43.5118064" lon="11.6753718"><ele>186.0</ele><time>2026-05-03T08:43:39.162Z</time></trkpt><trkpt lat="43.5119459" lon="11.6754559"><ele>184.75</ele><time>2026-05-03T08:43:40.161Z</time></trkpt><trkpt lat="43.5120796" lon="11.6755172"><ele>183.5</ele><time>2026-05-03T08:43:41.161Z</time></trkpt><trkpt lat="43.5122108" lon="11.6755704"><ele>182.25</ele><time>2026-05-03T08:43:42.16Z</time></trkpt><trkpt lat="43.512342" lon="11.6756218"><ele>181.0</ele><time>2026-05-03T08:43:43.162Z</time></trkpt><trkpt lat="43.5124636" lon="11.6756579"><ele>181.0</ele><time>2026-05-03T08:43:44.162Z</time></trkpt><trkpt lat="43.5125858" lon="11.67568"><ele>181.0</ele><time>2026-05-03T08:43:45.161Z</time></trkpt><trkpt lat="43.5127161" lon="11.6756746"><ele>181.0</ele><time>2026-05-03T08:43:46.161Z</time></trkpt><trkpt lat="43.5128472" lon="11.6756614"><ele>181.0</ele><time>2026-05-03T08:43:47.162Z</time></trkpt><trkpt lat="43.5129776" lon="11.6756449"><ele>181.5</ele><time>2026-05-03T08:43:48.162Z</time></trkpt><trkpt lat="43.5131069" lon="11.6756139"><ele>182.0</ele><time>2026-05-03T08:43:49.161Z</time></trkpt><trkpt lat="43.5132395" lon="11.6755642"><ele>182.5</ele><time>2026-05-03T08:43:50.162Z</time></trkpt><trkpt lat="43.5133743" lon="11.6755212"><ele>183.0</ele><time>2026-05-03T08:43:51.162Z</time></trkpt><trkpt lat="43.5135058" lon="11.6754727"><ele>183.0</ele><time>2026-05-03T08:43:52.162Z</time></trkpt><trkpt lat="43.5136363" lon="11.6754215"><ele>183.0</ele><time>2026-05-03T08:43:53.161Z</time></trkpt><trkpt lat="43.5137557" lon="11.6753667"><ele>183.0</ele><time>2026-05-03T08:43:54.162Z</time></trkpt><trkpt lat="43.5138767" lon="11.6753158"><ele>183.0</ele><time>2026-05-03T08:43:55.161Z</time></trkpt><trkpt lat="43.5139942" lon="11.6752737"><ele>183.4</ele><time>2026-05-03T08:43:56.162Z</time></trkpt><trkpt lat="43.5140874" lon="11.6752188"><ele>183.8</ele><time>2026-05-03T08:43:57.161Z</time></trkpt><trkpt lat="43.5141847" lon="11.6751732"><ele>184.2</ele><time>2026-05-03T08:43:58.162Z</time></trkpt><trkpt lat="43.5142682" lon="11.6751351"><ele>184.6</ele><time>2026-05-03T08:43:59.161Z</time></trkpt><trkpt lat="43.514367" lon="11.6750956"><ele>185.0</ele><time>2026-05-03T08:44:00.161Z</time></trkpt><trkpt lat="43.5144708" lon="11.6750694"><ele>184.8</ele><time>2026-05-03T08:44:01.162Z</time></trkpt><trkpt lat="43.5145781" lon="11.6750464"><ele>184.6</ele><time>2026-05-03T08:44:02.162Z</time></trkpt><trkpt lat="43.5146862" lon="11.6750334"><ele>184.39999999999998</ele><time>2026-05-03T08:44:03.162Z</time></trkpt><trkpt lat="43.5147904" lon="11.6750437"><ele>184.2</ele><time>2026-05-03T08:44:04.162Z</time></trkpt><trkpt lat="43.5148954" lon="11.6750869"><ele>184.0</ele><time>2026-05-03T08:44:05.161Z</time></trkpt><trkpt lat="43.5149953" lon="11.6751642"><ele>184.0</ele><time>2026-05-03T08:44:06.16Z</time></trkpt><trkpt lat="43.5150899" lon="11.6752764"><ele>184.0</ele><time>2026-05-03T08:44:07.162Z</time></trkpt><trkpt lat="43.5151873" lon="11.6754048"><ele>184.0</ele><time>2026-05-03T08:44:08.162Z</time></trkpt><trkpt lat="43.5152951" lon="11.6755408"><ele>184.0</ele><time>2026-05-03T08:44:09.161Z</time></trkpt><trkpt lat="43.515425" lon="11.6756942"><ele>184.0</ele><time>2026-05-03T08:44:10.162Z</time></trkpt><trkpt lat="43.5155458" lon="11.6758265"><ele>184.0</ele><time>2026-05-03T08:44:11.162Z</time></trkpt><trkpt lat="43.5156593" lon="11.6759516"><ele>184.0</ele><time>2026-05-03T08:44:12.161Z</time></trkpt><trkpt lat="43.5157653" lon="11.6760684"><ele>184.0</ele><time>2026-05-03T08:44:13.161Z</time></trkpt><trkpt lat="43.5158668" lon="11.6761705"><ele>183.79999999999998</ele><time>2026-05-03T08:44:14.162Z</time></trkpt><trkpt lat="43.5159624" lon="11.6762595"><ele>183.6</ele><time>2026-05-03T08:44:15.162Z</time></trkpt><trkpt lat="43.5160536" lon="11.6763424"><ele>183.4</ele><time>2026-05-03T08:44:16.162Z</time></trkpt><trkpt lat="43.5161371" lon="11.6764182"><ele>183.2</ele><time>2026-05-03T08:44:17.162Z</time></trkpt><trkpt lat="43.5162124" lon="11.6764983"><ele>183.0</ele><time>2026-05-03T08:44:18.161Z</time></trkpt><trkpt lat="43.5162975" lon="11.6765885"><ele>183.0</ele><time>2026-05-03T08:44:19.162Z</time></trkpt><trkpt lat="43.5163895" lon="11.6766795"><ele>183.0</ele><time>2026-05-03T08:44:20.162Z</time></trkpt><trkpt lat="43.5164946" lon="11.6767712"><ele>183.0</ele><time>2026-05-03T08:44:21.161Z</time></trkpt><trkpt lat="43.5166075" lon="11.6768649"><ele>183.0</ele><time>2026-05-03T08:44:22.162Z</time></trkpt><trkpt lat="43.5167285" lon="11.6769728"><ele>184.0</ele><time>2026-05-03T08:44:23.161Z</time></trkpt><trkpt lat="43.5168732" lon="11.6771112"><ele>185.0</ele><time>2026-05-03T08:44:24.162Z</time></trkpt><trkpt lat="43.5170265" lon="11.6772635"><ele>186.0</ele><time>2026-05-03T08:44:25.16Z</time></trkpt><trkpt lat="43.5171576" lon="11.6774233"><ele>186.0</ele><time>2026-05-03T08:44:26.162Z</time></trkpt><trkpt lat="43.5172867" lon="11.6775651"><ele>186.0</ele><time>2026-05-03T08:44:27.161Z</time></trkpt><trkpt lat="43.5174347" lon="11.6776796"><ele>186.0</ele><time>2026-05-03T08:44:28.161Z</time></trkpt><trkpt lat="43.5176081" lon="11.6777808"><ele>186.33333333333334</ele><time>2026-05-03T08:44:29.161Z</time></trkpt><trkpt lat="43.517793" lon="11.6778943"><ele>186.66666666666669</ele><time>2026-05-03T08:44:30.162Z</time></trkpt><trkpt lat="43.5179709" lon="11.6780362"><ele>187.0</ele><time>2026-05-03T08:44:31.161Z</time></trkpt><trkpt lat="43.5181387" lon="11.678158"><ele>187.0</ele><time>2026-05-03T08:44:32.162Z</time></trkpt><trkpt lat="43.5182975" lon="11.6782671"><ele>187.0</ele><time>2026-05-03T08:44:33.162Z</time></trkpt><trkpt lat="43.518453" lon="11.6783624"><ele>187.0</ele><time>2026-05-03T08:44:34.162Z</time></trkpt><trkpt lat="43.5186099" lon="11.6784434"><ele>187.33333333333334</ele><time>2026-05-03T08:44:35.161Z</time></trkpt><trkpt lat="43.5187708" lon="11.6785191"><ele>187.66666666666666</ele><time>2026-05-03T08:44:36.161Z</time></trkpt><trkpt lat="43.5189312" lon="11.6785913"><ele>188.0</ele><time>2026-05-03T08:44:37.161Z</time></trkpt><trkpt lat="43.5190911" lon="11.6786646"><ele>189.33333333333331</ele><time>2026-05-03T08:44:38.162Z</time></trkpt><trkpt lat="43.5192497" lon="11.6787401"><ele>190.66666666666666</ele><time>2026-05-03T08:44:39.161Z</time></trkpt><trkpt lat="43.5194061" lon="11.6788228"><ele>192.0</ele><time>2026-05-03T08:44:40.162Z</time></trkpt><trkpt lat="43.5195573" lon="11.6789088"><ele>191.66666666666666</ele><time>2026-05-03T08:44:41.161Z</time></trkpt><trkpt lat="43.5197056" lon="11.6789936"><ele>191.33333333333331</ele><time>2026-05-03T08:44:42.162Z</time></trkpt><trkpt lat="43.5198499" lon="11.6790839"><ele>191.0</ele><time>2026-05-03T08:44:43.161Z</time></trkpt><trkpt lat="43.519991" lon="11.6791796"><ele>191.0</ele><time>2026-05-03T08:44:44.162Z</time></trkpt><trkpt lat="43.5201254" lon="11.6792881"><ele>191.0</ele><time>2026-05-03T08:44:45.16Z</time></trkpt><trkpt lat="43.520252" lon="11.6794081"><ele>191.0</ele><time>2026-05-03T08:44:46.162Z</time></trkpt><trkpt lat="43.5203714" lon="11.6795445"><ele>192.66666666666666</ele><time>2026-05-03T08:44:47.162Z</time></trkpt><trkpt lat="43.5204871" lon="11.6796877"><ele>194.33333333333331</ele><time>2026-05-03T08:44:48.161Z</time></trkpt><trkpt lat="43.5206071" lon="11.679831"><ele>196.0</ele><time>2026-05-03T08:44:49.161Z</time></trkpt><trkpt lat="43.520734" lon="11.6799633"><ele>196.0</ele><time>2026-05-03T08:44:50.162Z</time></trkpt><trkpt lat="43.5208622" lon="11.6800987"><ele>196.0</ele><time>2026-05-03T08:44:51.162Z</time></trkpt><trkpt lat="43.5209942" lon="11.680229"><ele>196.0</ele><time>2026-05-03T08:44:52.162Z</time></trkpt><trkpt lat="43.5211315" lon="11.680357"><ele>194.66666666666666</ele><time>2026-05-03T08:44:53.162Z</time></trkpt><trkpt lat="43.521269" lon="11.6804844"><ele>193.33333333333331</ele><time>2026-05-03T08:44:54.161Z</time></trkpt><trkpt lat="43.5214056" lon="11.6806136"><ele>192.0</ele><time>2026-05-03T08:44:55.162Z</time></trkpt><trkpt lat="43.5215383" lon="11.6807498"><ele>192.0</ele><time>2026-05-03T08:44:56.162Z</time></trkpt><trkpt lat="43.521669" lon="11.6808914"><ele>192.0</ele><time>2026-05-03T08:44:57.162Z</time></trkpt><trkpt lat="43.5217967" lon="11.6810421"><ele>192.0</ele><time>2026-05-03T08:44:58.161Z</time></trkpt><trkpt lat="43.521919" lon="11.6811984"><ele>192.33333333333331</ele><time>2026-05-03T08:44:59.161Z</time></trkpt><trkpt lat="43.5220366" lon="11.6813633"><ele>192.66666666666666</ele><time>2026-05-03T08:45:00.162Z</time></trkpt><trkpt lat="43.5221558" lon="11.681531"><ele>193.0</ele><time>2026-05-03T08:45:01.161Z</time></trkpt><trkpt lat="43.5222721" lon="11.6817"><ele>193.0</ele><time>2026-05-03T08:45:02.161Z</time></trkpt><trkpt lat="43.5223811" lon="11.6818754"><ele>193.0</ele><time>2026-05-03T08:45:03.161Z</time></trkpt><trkpt lat="43.5224848" lon="11.6820575"><ele>193.0</ele><time>2026-05-03T08:45:04.161Z</time></trkpt><trkpt lat="43.522589" lon="11.6822378"><ele>193.33333333333331</ele><time>2026-05-03T08:45:05.162Z</time></trkpt><trkpt lat="43.5226947" lon="11.6824168"><ele>193.66666666666669</ele><time>2026-05-03T08:45:06.162Z</time></trkpt><trkpt lat="43.5228075" lon="11.6825861"><ele>194.0</ele><time>2026-05-03T08:45:07.162Z</time></trkpt><trkpt lat="43.5229232" lon="11.6827451"><ele>194.75</ele><time>2026-05-03T08:45:08.162Z</time></trkpt><trkpt lat="43.5230328" lon="11.6828836"><ele>195.5</ele><time>2026-05-03T08:45:09.16Z</time></trkpt><trkpt lat="43.5231399" lon="11.6830103"><ele>196.25</ele><time>2026-05-03T08:45:10.161Z</time></trkpt><trkpt lat="43.5232418" lon="11.6831218"><ele>197.0</ele><time>2026-05-03T08:45:11.162Z</time></trkpt><trkpt lat="43.5233368" lon="11.6832205"><ele>197.00000000000003</ele><time>2026-05-03T08:45:12.161Z</time></trkpt><trkpt lat="43.523419" lon="11.6832925"><ele>197.0</ele><time>2026-05-03T08:45:13.162Z</time></trkpt><trkpt lat="43.5234846" lon="11.6833362"><ele>197.0</ele><time>2026-05-03T08:45:14.16Z</time></trkpt><trkpt lat="43.5235459" lon="11.6833891"><ele>197.0</ele><time>2026-05-03T08:45:17.162Z</time></trkpt><trkpt lat="43.5236049" lon="11.6833029"><ele>197.00000000000003</ele><time>2026-05-03T08:45:21.162Z</time></trkpt><trkpt lat="43.5236668" lon="11.6831802"><ele>197.0</ele><time>2026-05-03T08:45:23.162Z</time></trkpt><trkpt lat="43.5237229" lon="11.6831003"><ele>197.0</ele><time>2026-05-03T08:45:24.162Z</time></trkpt><trkpt lat="43.5237956" lon="11.6830053"><ele>197.0</ele><time>2026-05-03T08:45:25.161Z</time></trkpt><trkpt lat="43.5238772" lon="11.6829092"><ele>197.0</ele><time>2026-05-03T08:45:26.161Z</time></trkpt><trkpt lat="43.5239551" lon="11.6828171"><ele>197.0</ele><time>2026-05-03T08:45:27.162Z</time></trkpt><trkpt lat="43.5240233" lon="11.6827339"><ele>197.0</ele><time>2026-05-03T08:45:28.162Z</time></trkpt><trkpt lat="43.5240879" lon="11.682656"><ele>197.00000000000003</ele><time>2026-05-03T08:45:29.162Z</time></trkpt><trkpt lat="43.5241432" lon="11.6825875"><ele>197.0</ele><time>2026-05-03T08:45:30.16Z</time></trkpt><trkpt lat="43.5241941" lon="11.6825285"><ele>197.0</ele><time>2026-05-03T08:45:31.162Z</time></trkpt><trkpt lat="43.524274" lon="11.6824299"><ele>197.0</ele><time>2026-05-03T08:45:33.161Z</time></trkpt><trkpt lat="43.5243716" lon="11.6824605"><ele>197.00000000000003</ele><time>2026-05-03T08:45:35.162Z</time></trkpt><trkpt lat="43.5244377" lon="11.6825404"><ele>197.0</ele><time>2026-05-03T08:45:37.161Z</time></trkpt><trkpt lat="43.5245141" lon="11.6826394"><ele>197.50000000000003</ele><time>2026-05-03T08:45:39.162Z</time></trkpt><trkpt lat="43.5245954" lon="11.6827456"><ele>198.0</ele><time>2026-05-03T08:45:41.162Z</time></trkpt><trkpt lat="43.5246422" lon="11.6828048"><ele>198.5</ele><time>2026-05-03T08:45:42.162Z</time></trkpt><trkpt lat="43.5246931" lon="11.6828699"><ele>199.0</ele><time>2026-05-03T08:45:43.162Z</time></trkpt><trkpt lat="43.524748" lon="11.6829443"><ele>199.50000000000003</ele><time>2026-05-03T08:45:44.161Z</time></trkpt><trkpt lat="43.5248091" lon="11.6830229"><ele>200.0</ele><time>2026-05-03T08:45:45.161Z</time></trkpt><trkpt lat="43.5248714" lon="11.6831035"><ele>200.0</ele><time>2026-05-03T08:45:46.162Z</time></trkpt><trkpt lat="43.5249362" lon="11.6831887"><ele>200.0</ele><time>2026-05-03T08:45:47.161Z</time></trkpt><trkpt lat="43.5250058" lon="11.6832794"><ele>200.0</ele><time>2026-05-03T08:45:48.162Z</time></trkpt><trkpt lat="43.525078" lon="11.6833734"><ele>200.0</ele><time>2026-05-03T08:45:49.161Z</time></trkpt><trkpt lat="43.5251484" lon="11.6834707"><ele>200.0</ele><time>2026-05-03T08:45:50.162Z</time></trkpt><trkpt lat="43.5252256" lon="11.6835714"><ele>200.25</ele><time>2026-05-03T08:45:51.162Z</time></trkpt><trkpt lat="43.5253099" lon="11.6836774"><ele>200.5</ele><time>2026-05-03T08:45:52.162Z</time></trkpt><trkpt lat="43.5253941" lon="11.6837873"><ele>200.75</ele><time>2026-05-03T08:45:53.162Z</time></trkpt><trkpt lat="43.5254814" lon="11.6839006"><ele>201.0</ele><time>2026-05-03T08:45:54.162Z</time></trkpt><trkpt lat="43.5255687" lon="11.6840161"><ele>201.0</ele><time>2026-05-03T08:45:55.16Z</time></trkpt><trkpt lat="43.5256598" lon="11.6841314"><ele>201.0</ele><time>2026-05-03T08:45:56.162Z</time></trkpt><trkpt lat="43.5257526" lon="11.6842534"><ele>201.0</ele><time>2026-05-03T08:45:57.162Z</time></trkpt><trkpt lat="43.5258473" lon="11.6843761"><ele>201.0</ele><time>2026-05-03T08:45:58.161Z</time></trkpt><trkpt lat="43.5259423" lon="11.6845011"><ele>200.5</ele><time>2026-05-03T08:45:59.162Z</time></trkpt><trkpt lat="43.5260355" lon="11.684629"><ele>200.0</ele><time>2026-05-03T08:46:00.16Z</time></trkpt><trkpt lat="43.5261341" lon="11.6847534"><ele>199.5</ele><time>2026-05-03T08:46:01.161Z</time></trkpt><trkpt lat="43.5262273" lon="11.6848806"><ele>199.0</ele><time>2026-05-03T08:46:02.161Z</time></trkpt><trkpt lat="43.5263164" lon="11.6850047"><ele>199.0</ele><time>2026-05-03T08:46:03.162Z</time></trkpt><trkpt lat="43.5263984" lon="11.6851154"><ele>199.0</ele><time>2026-05-03T08:46:04.16Z</time></trkpt><trkpt lat="43.5264821" lon="11.6852173"><ele>199.0</ele><time>2026-05-03T08:46:05.162Z</time></trkpt><trkpt lat="43.5265745" lon="11.6852984"><ele>199.0</ele><time>2026-05-03T08:46:06.161Z</time></trkpt><trkpt lat="43.5266736" lon="11.6853513"><ele>199.0</ele><time>2026-05-03T08:46:07.16Z</time></trkpt><trkpt lat="43.5267833" lon="11.6853755"><ele>199.25</ele><time>2026-05-03T08:46:08.161Z</time></trkpt><trkpt lat="43.5268985" lon="11.6853828"><ele>199.5</ele><time>2026-05-03T08:46:09.162Z</time></trkpt><trkpt lat="43.5270131" lon="11.685414"><ele>199.75</ele><time>2026-05-03T08:46:10.162Z</time></trkpt><trkpt lat="43.5271201" lon="11.6854681"><ele>200.0</ele><time>2026-05-03T08:46:11.162Z</time></trkpt><trkpt lat="43.5272239" lon="11.6855289"><ele>200.5</ele><time>2026-05-03T08:46:12.161Z</time></trkpt><trkpt lat="43.5273302" lon="11.6855899"><ele>201.0</ele><time>2026-05-03T08:46:13.161Z</time></trkpt><trkpt lat="43.5274359" lon="11.6856565"><ele>201.5</ele><time>2026-05-03T08:46:14.161Z</time></trkpt><trkpt lat="43.5275429" lon="11.6857308"><ele>202.0</ele><time>2026-05-03T08:46:15.16Z</time></trkpt><trkpt lat="43.5276473" lon="11.6858165"><ele>202.0</ele><time>2026-05-03T08:46:16.161Z</time></trkpt><trkpt lat="43.5277495" lon="11.6859094"><ele>202.0</ele><time>2026-05-03T08:46:17.162Z</time></trkpt><trkpt lat="43.5278474" lon="11.6860078"><ele>202.0</ele><time>2026-05-03T08:46:18.161Z</time></trkpt><trkpt lat="43.5279412" lon="11.6861118"><ele>202.0</ele><time>2026-05-03T08:46:19.161Z</time></trkpt><trkpt lat="43.5280327" lon="11.6862158"><ele>202.5</ele><time>2026-05-03T08:46:20.161Z</time></trkpt><trkpt lat="43.5281254" lon="11.6863219"><ele>203.0</ele><time>2026-05-03T08:46:21.162Z</time></trkpt><trkpt lat="43.5282211" lon="11.6864262"><ele>203.5</ele><time>2026-05-03T08:46:22.161Z</time></trkpt><trkpt lat="43.5283169" lon="11.6865332"><ele>204.0</ele><time>2026-05-03T08:46:23.162Z</time></trkpt><trkpt lat="43.5284159" lon="11.6866352"><ele>204.0</ele><time>2026-05-03T08:46:24.161Z</time></trkpt><trkpt lat="43.528515" lon="11.6867276"><ele>204.0</ele><time>2026-05-03T08:46:25.161Z</time></trkpt><trkpt lat="43.528616" lon="11.6868167"><ele>204.0</ele><time>2026-05-03T08:46:26.162Z</time></trkpt><trkpt lat="43.5287234" lon="11.6868936"><ele>204.0</ele><time>2026-05-03T08:46:27.161Z</time></trkpt><trkpt lat="43.5288277" lon="11.6869752"><ele>205.0</ele><time>2026-05-03T08:46:28.162Z</time></trkpt><trkpt lat="43.528913" lon="11.6870858"><ele>206.0</ele><time>2026-05-03T08:46:29.162Z</time></trkpt><trkpt lat="43.529013" lon="11.6871749"><ele>207.0</ele><time>2026-05-03T08:46:30.162Z</time></trkpt><trkpt lat="43.5291173" lon="11.6872455"><ele>208.0</ele><time>2026-05-03T08:46:31.162Z</time></trkpt><trkpt lat="43.529227" lon="11.687299"><ele>208.0</ele><time>2026-05-03T08:46:32.161Z</time></trkpt><trkpt lat="43.5293511" lon="11.6873094"><ele>208.0</ele><time>2026-05-03T08:46:33.161Z</time></trkpt><trkpt lat="43.5294615" lon="11.6873642"><ele>208.0</ele><time>2026-05-03T08:46:34.162Z</time></trkpt><trkpt lat="43.5295717" lon="11.687432"><ele>208.0</ele><time>2026-05-03T08:46:35.162Z</time></trkpt><trkpt lat="43.5296796" lon="11.6875012"><ele>208.0</ele><time>2026-05-03T08:46:36.162Z</time></trkpt><trkpt lat="43.5297808" lon="11.6875798"><ele>208.0</ele><time>2026-05-03T08:46:37.162Z</time></trkpt><trkpt lat="43.5298806" lon="11.6876682"><ele>208.0</ele><time>2026-05-03T08:46:38.162Z</time></trkpt><trkpt lat="43.529978" lon="11.6877651"><ele>208.0</ele><time>2026-05-03T08:46:39.162Z</time></trkpt><trkpt lat="43.5300635" lon="11.6878805"><ele>208.5</ele><time>2026-05-03T08:46:40.162Z</time></trkpt><trkpt lat="43.530144" lon="11.6880065"><ele>209.0</ele><time>2026-05-03T08:46:41.162Z</time></trkpt><trkpt lat="43.5302167" lon="11.6881349"><ele>209.5</ele><time>2026-05-03T08:46:42.161Z</time></trkpt><trkpt lat="43.5302919" lon="11.6882652"><ele>210.0</ele><time>2026-05-03T08:46:43.162Z</time></trkpt><trkpt lat="43.5303644" lon="11.6883975"><ele>209.75</ele><time>2026-05-03T08:46:44.162Z</time></trkpt><trkpt lat="43.530438" lon="11.6885247"><ele>209.5</ele><time>2026-05-03T08:46:45.162Z</time></trkpt><trkpt lat="43.5305123" lon="11.6886565"><ele>209.25</ele><time>2026-05-03T08:46:46.162Z</time></trkpt><trkpt lat="43.5305875" lon="11.6887847"><ele>209.0</ele><time>2026-05-03T08:46:47.162Z</time></trkpt><trkpt lat="43.530666" lon="11.6889128"><ele>209.5</ele><time>2026-05-03T08:46:48.162Z</time></trkpt><trkpt lat="43.5307489" lon="11.689035"><ele>210.0</ele><time>2026-05-03T08:46:49.162Z</time></trkpt><trkpt lat="43.5308316" lon="11.6891588"><ele>210.5</ele><time>2026-05-03T08:46:50.16Z</time></trkpt><trkpt lat="43.5309125" lon="11.6892794"><ele>211.0</ele><time>2026-05-03T08:46:51.161Z</time></trkpt><trkpt lat="43.530998" lon="11.6893961"><ele>210.75</ele><time>2026-05-03T08:46:52.161Z</time></trkpt><trkpt lat="43.5310801" lon="11.6895135"><ele>210.5</ele><time>2026-05-03T08:46:53.161Z</time></trkpt><trkpt lat="43.5311568" lon="11.6896435"><ele>210.25</ele><time>2026-05-03T08:46:54.162Z</time></trkpt><trkpt lat="43.5312318" lon="11.6897753"><ele>210.0</ele><time>2026-05-03T08:46:55.162Z</time></trkpt><trkpt lat="43.5313058" lon="11.689906"><ele>210.0</ele><time>2026-05-03T08:46:56.162Z</time></trkpt><trkpt lat="43.531376" lon="11.6900426"><ele>210.0</ele><time>2026-05-03T08:46:57.162Z</time></trkpt><trkpt lat="43.531449" lon="11.6901786"><ele>210.0</ele><time>2026-05-03T08:46:58.161Z</time></trkpt><trkpt lat="43.5315231" lon="11.6903136"><ele>210.0</ele><time>2026-05-03T08:46:59.162Z</time></trkpt><trkpt lat="43.5315995" lon="11.6904422"><ele>211.0</ele><time>2026-05-03T08:47:00.162Z</time></trkpt><trkpt lat="43.5316877" lon="11.6905641"><ele>212.0</ele><time>2026-05-03T08:47:01.162Z</time></trkpt><trkpt lat="43.5317751" lon="11.6906808"><ele>213.0</ele><time>2026-05-03T08:47:02.161Z</time></trkpt><trkpt lat="43.5318697" lon="11.6907891"><ele>214.0</ele><time>2026-05-03T08:47:03.16Z</time></trkpt><trkpt lat="43.5319635" lon="11.6908957"><ele>214.0</ele><time>2026-05-03T08:47:04.162Z</time></trkpt><trkpt lat="43.5320527" lon="11.691008"><ele>214.0</ele><time>2026-05-03T08:47:05.161Z</time></trkpt><trkpt lat="43.5321367" lon="11.6911258"><ele>214.0</ele><time>2026-05-03T08:47:06.162Z</time></trkpt><trkpt lat="43.5322147" lon="11.6912492"><ele>214.0</ele><time>2026-05-03T08:47:07.161Z</time></trkpt><trkpt lat="43.5322886" lon="11.6913775"><ele>214.25</ele><time>2026-05-03T08:47:08.162Z</time></trkpt><trkpt lat="43.5323667" lon="11.6914964"><ele>214.5</ele><time>2026-05-03T08:47:09.16Z</time></trkpt><trkpt lat="43.5324507" lon="11.6916093"><ele>214.75</ele><time>2026-05-03T08:47:10.161Z</time></trkpt><trkpt lat="43.5325353" lon="11.6917214"><ele>215.0</ele><time>2026-05-03T08:47:11.161Z</time></trkpt><trkpt lat="43.5326228" lon="11.6918281"><ele>215.5</ele><time>2026-05-03T08:47:12.161Z</time></trkpt><trkpt lat="43.5327153" lon="11.691934"><ele>216.0</ele><time>2026-05-03T08:47:13.161Z</time></trkpt><trkpt lat="43.5327925" lon="11.6920593"><ele>216.5</ele><time>2026-05-03T08:47:14.162Z</time></trkpt><trkpt lat="43.5328647" lon="11.6921849"><ele>217.0</ele><time>2026-05-03T08:47:15.161Z</time></trkpt><trkpt lat="43.5329447" lon="11.6923033"><ele>217.0</ele><time>2026-05-03T08:47:16.162Z</time></trkpt><trkpt lat="43.5330311" lon="11.6924143"><ele>217.0</ele><time>2026-05-03T08:47:17.161Z</time></trkpt><trkpt lat="43.5331176" lon="11.6925268"><ele>217.0</ele><time>2026-05-03T08:47:18.162Z</time></trkpt><trkpt lat="43.5331932" lon="11.6926458"><ele>217.0</ele><time>2026-05-03T08:47:19.16Z</time></trkpt><trkpt lat="43.5332678" lon="11.6927681"><ele>218.5</ele><time>2026-05-03T08:47:20.162Z</time></trkpt><trkpt lat="43.5333536" lon="11.6928802"><ele>220.0</ele><time>2026-05-03T08:47:21.162Z</time></trkpt><trkpt lat="43.5334492" lon="11.6929784"><ele>221.5</ele><time>2026-05-03T08:47:22.162Z</time></trkpt><trkpt lat="43.5335491" lon="11.6930744"><ele>223.0</ele><time>2026-05-03T08:47:23.161Z</time></trkpt><trkpt lat="43.5336537" lon="11.693158"><ele>222.25</ele><time>2026-05-03T08:47:24.162Z</time></trkpt><trkpt lat="43.533759" lon="11.6932404"><ele>221.5</ele><time>2026-05-03T08:47:25.161Z</time></trkpt><trkpt lat="43.5338592" lon="11.6933283"><ele>220.75</ele><time>2026-05-03T08:47:26.161Z</time></trkpt><trkpt lat="43.5339561" lon="11.6934146"><ele>220.0</ele><time>2026-05-03T08:47:27.161Z</time></trkpt><trkpt lat="43.5340565" lon="11.6934985"><ele>221.25</ele><time>2026-05-03T08:47:28.16Z</time></trkpt><trkpt lat="43.5341497" lon="11.6935941"><ele>222.5</ele><time>2026-05-03T08:47:29.16Z</time></trkpt><trkpt lat="43.5342338" lon="11.6937062"><ele>223.75</ele><time>2026-05-03T08:47:30.161Z</time></trkpt><trkpt lat="43.5343195" lon="11.6938226"><ele>225.0</ele><time>2026-05-03T08:47:31.161Z</time></trkpt><trkpt lat="43.5344025" lon="11.6939455"><ele>225.0</ele><time>2026-05-03T08:47:32.161Z</time></trkpt><trkpt lat="43.5344804" lon="11.6940723"><ele>225.0</ele><time>2026-05-03T08:47:33.162Z</time></trkpt><trkpt lat="43.5345497" lon="11.6942091"><ele>225.0</ele><time>2026-05-03T08:47:34.161Z</time></trkpt><trkpt lat="43.5346131" lon="11.6943537"><ele>225.0</ele><time>2026-05-03T08:47:35.162Z</time></trkpt><trkpt lat="43.5346722" lon="11.694503"><ele>224.25</ele><time>2026-05-03T08:47:36.162Z</time></trkpt><trkpt lat="43.5347315" lon="11.6946523"><ele>223.5</ele><time>2026-05-03T08:47:37.161Z</time></trkpt><trkpt lat="43.534788" lon="11.6948032"><ele>222.75</ele><time>2026-05-03T08:47:38.162Z</time></trkpt><trkpt lat="43.5348421" lon="11.694947"><ele>222.0</ele><time>2026-05-03T08:47:39.161Z</time></trkpt><trkpt lat="43.5348987" lon="11.6950891"><ele>222.0</ele><time>2026-05-03T08:47:40.162Z</time></trkpt><trkpt lat="43.5349545" lon="11.6952308"><ele>222.0</ele><time>2026-05-03T08:47:41.161Z</time></trkpt><trkpt lat="43.5350125" lon="11.6953652"><ele>222.0</ele><time>2026-05-03T08:47:42.161Z</time></trkpt><trkpt lat="43.5350604" lon="11.6954826"><ele>222.0</ele><time>2026-05-03T08:47:43.162Z</time></trkpt><trkpt lat="43.5351094" lon="11.6955839"><ele>222.0</ele><time>2026-05-03T08:47:44.162Z</time></trkpt><trkpt lat="43.5351626" lon="11.695657"><ele>222.33333333333334</ele><time>2026-05-03T08:47:45.162Z</time></trkpt><trkpt lat="43.535224" lon="11.6957019"><ele>222.66666666666669</ele><time>2026-05-03T08:47:46.161Z</time></trkpt><trkpt lat="43.5352998" lon="11.6957173"><ele>223.0</ele><time>2026-05-03T08:47:47.161Z</time></trkpt><trkpt lat="43.535389" lon="11.6957169"><ele>223.33333333333334</ele><time>2026-05-03T08:47:48.162Z</time></trkpt><trkpt lat="43.5354869" lon="11.6957175"><ele>223.66666666666669</ele><time>2026-05-03T08:47:49.162Z</time></trkpt><trkpt lat="43.5355957" lon="11.6957171"><ele>224.0</ele><time>2026-05-03T08:47:50.162Z</time></trkpt><trkpt lat="43.5357039" lon="11.6957107"><ele>224.39999999999998</ele><time>2026-05-03T08:47:51.161Z</time></trkpt><trkpt lat="43.5358133" lon="11.695707"><ele>224.79999999999998</ele><time>2026-05-03T08:47:52.161Z</time></trkpt><trkpt lat="43.5359212" lon="11.6957081"><ele>225.20000000000002</ele><time>2026-05-03T08:47:53.161Z</time></trkpt><trkpt lat="43.5360288" lon="11.6957072"><ele>225.60000000000002</ele><time>2026-05-03T08:47:54.162Z</time></trkpt><trkpt lat="43.5361372" lon="11.6957062"><ele>226.0</ele><time>2026-05-03T08:47:55.161Z</time></trkpt><trkpt lat="43.5362471" lon="11.6957104"><ele>229.0</ele><time>2026-05-03T08:47:56.162Z</time></trkpt><trkpt lat="43.5363579" lon="11.6957172"><ele>232.00000000000003</ele><time>2026-05-03T08:47:57.162Z</time></trkpt><trkpt lat="43.5364624" lon="11.6957461"><ele>235.00000000000003</ele><time>2026-05-03T08:47:58.162Z</time></trkpt><trkpt lat="43.5365589" lon="11.6958042"><ele>238.0</ele><time>2026-05-03T08:47:59.162Z</time></trkpt><trkpt lat="43.5366438" lon="11.6958833"><ele>241.0</ele><time>2026-05-03T08:48:00.162Z</time></trkpt><trkpt lat="43.5367205" lon="11.6959599"><ele>240.99999999999997</ele><time>2026-05-03T08:48:01.162Z</time></trkpt><trkpt lat="43.5368029" lon="11.6960467"><ele>241.0</ele><time>2026-05-03T08:48:02.161Z</time></trkpt><trkpt lat="43.5368786" lon="11.6961223"><ele>241.0</ele><time>2026-05-03T08:48:03.162Z</time></trkpt><trkpt lat="43.5369354" lon="11.6962067"><ele>241.0</ele><time>2026-05-03T08:48:04.162Z</time></trkpt><trkpt lat="43.5369806" lon="11.6963008"><ele>240.99999999999997</ele><time>2026-05-03T08:48:05.162Z</time></trkpt><trkpt lat="43.5370049" lon="11.6963873"><ele>241.0</ele><time>2026-05-03T08:48:06.162Z</time></trkpt><trkpt lat="43.5370654" lon="11.6964821"><ele>242.8</ele><time>2026-05-03T08:48:08.162Z</time></trkpt><trkpt lat="43.5371278" lon="11.6964374"><ele>244.60000000000002</ele><time>2026-05-03T08:48:10.162Z</time></trkpt><trkpt lat="43.5371519" lon="11.6962675"><ele>246.4</ele><time>2026-05-03T08:48:12.162Z</time></trkpt><trkpt lat="43.5371907" lon="11.6961822"><ele>248.2</ele><time>2026-05-03T08:48:13.16Z</time></trkpt><trkpt lat="43.5372937" lon="11.6961394"><ele>250.0</ele><time>2026-05-03T08:48:15.161Z</time></trkpt><trkpt lat="43.5373674" lon="11.6961887"><ele>250.0</ele><time>2026-05-03T08:48:17.161Z</time></trkpt><trkpt lat="43.5374648" lon="11.6963049"><ele>250.0</ele><time>2026-05-03T08:48:19.162Z</time></trkpt><trkpt lat="43.5375329" lon="11.6963173"><ele>250.0</ele><time>2026-05-03T08:48:20.162Z</time></trkpt><trkpt lat="43.5376695" lon="11.6962313"><ele>250.0</ele><time>2026-05-03T08:48:22.161Z</time></trkpt><trkpt lat="43.5377394" lon="11.6961327"><ele>250.0</ele><time>2026-05-03T08:48:23.161Z</time></trkpt><trkpt lat="43.5378147" lon="11.6960344"><ele>250.75</ele><time>2026-05-03T08:48:24.161Z</time></trkpt><trkpt lat="43.5378993" lon="11.695931"><ele>251.5</ele><time>2026-05-03T08:48:25.162Z</time></trkpt><trkpt lat="43.5379826" lon="11.6958303"><ele>252.25</ele><time>2026-05-03T08:48:26.162Z</time></trkpt><trkpt lat="43.5380665" lon="11.6957162"><ele>253.0</ele><time>2026-05-03T08:48:27.16Z</time></trkpt><trkpt lat="43.5381532" lon="11.6956028"><ele>253.0</ele><time>2026-05-03T08:48:28.161Z</time></trkpt><trkpt lat="43.5382405" lon="11.695493"><ele>253.0</ele><time>2026-05-03T08:48:29.161Z</time></trkpt><trkpt lat="43.5383324" lon="11.6953781"><ele>253.0</ele><time>2026-05-03T08:48:30.161Z</time></trkpt><trkpt lat="43.5384238" lon="11.6952668"><ele>253.0</ele><time>2026-05-03T08:48:31.161Z</time></trkpt><trkpt lat="43.5385172" lon="11.6951607"><ele>253.0</ele><time>2026-05-03T08:48:32.16Z</time></trkpt><trkpt lat="43.5385997" lon="11.6950583"><ele>253.0</ele><time>2026-05-03T08:48:33.161Z</time></trkpt><trkpt lat="43.5386735" lon="11.6949645"><ele>253.0</ele><time>2026-05-03T08:48:34.162Z</time></trkpt><trkpt lat="43.5387435" lon="11.6948883"><ele>253.0</ele><time>2026-05-03T08:48:35.162Z</time></trkpt><trkpt lat="43.5388101" lon="11.6948264"><ele>253.0</ele><time>2026-05-03T08:48:36.161Z</time></trkpt><trkpt lat="43.5389233" lon="11.6948449"><ele>253.2</ele><time>2026-05-03T08:48:38.161Z</time></trkpt><trkpt lat="43.5389826" lon="11.6949208"><ele>253.4</ele><time>2026-05-03T08:48:39.161Z</time></trkpt><trkpt lat="43.5390397" lon="11.6950224"><ele>253.59999999999997</ele><time>2026-05-03T08:48:40.161Z</time></trkpt><trkpt lat="43.5391033" lon="11.6951261"><ele>253.79999999999998</ele><time>2026-05-03T08:48:41.161Z</time></trkpt><trkpt lat="43.5391758" lon="11.6952396"><ele>254.0</ele><time>2026-05-03T08:48:42.162Z</time></trkpt><trkpt lat="43.5392512" lon="11.6953581"><ele>254.0</ele><time>2026-05-03T08:48:43.161Z</time></trkpt><trkpt lat="43.5393327" lon="11.6954795"><ele>254.0</ele><time>2026-05-03T08:48:44.162Z</time></trkpt><trkpt lat="43.5394151" lon="11.6956084"><ele>254.0</ele><time>2026-05-03T08:48:45.16Z</time></trkpt><trkpt lat="43.5394989" lon="11.6957363"><ele>254.0</ele><time>2026-05-03T08:48:46.161Z</time></trkpt><trkpt lat="43.5395873" lon="11.6958645"><ele>254.75</ele><time>2026-05-03T08:48:47.162Z</time></trkpt><trkpt lat="43.5396718" lon="11.6959961"><ele>255.5</ele><time>2026-05-03T08:48:48.16Z</time></trkpt><trkpt lat="43.5397529" lon="11.6961259"><ele>256.25</ele><time>2026-05-03T08:48:49.161Z</time></trkpt><trkpt lat="43.5398303" lon="11.6962469"><ele>257.0</ele><time>2026-05-03T08:48:50.162Z</time></trkpt><trkpt lat="43.5399034" lon="11.6963559"><ele>257.0</ele><time>2026-05-03T08:48:51.162Z</time></trkpt><trkpt lat="43.5399737" lon="11.6964594"><ele>257.0</ele><time>2026-05-03T08:48:52.161Z</time></trkpt><trkpt lat="43.5400423" lon="11.696567"><ele>257.0</ele><time>2026-05-03T08:48:53.161Z</time></trkpt><trkpt lat="43.5401127" lon="11.6966733"><ele>257.0</ele><time>2026-05-03T08:48:54.161Z</time></trkpt><trkpt lat="43.5401843" lon="11.6967834"><ele>257.0</ele><time>2026-05-03T08:48:55.16Z</time></trkpt><trkpt lat="43.5402584" lon="11.6968965"><ele>257.25</ele><time>2026-05-03T08:48:56.162Z</time></trkpt><trkpt lat="43.5403275" lon="11.6970057"><ele>257.5</ele><time>2026-05-03T08:48:57.162Z</time></trkpt><trkpt lat="43.5404065" lon="11.6971237"><ele>257.75</ele><time>2026-05-03T08:48:58.162Z</time></trkpt><trkpt lat="43.5404865" lon="11.6972481"><ele>258.0</ele><time>2026-05-03T08:48:59.162Z</time></trkpt><trkpt lat="43.5405692" lon="11.6973733"><ele>258.75</ele><time>2026-05-03T08:49:00.162Z</time></trkpt><trkpt lat="43.5406557" lon="11.6975082"><ele>259.5</ele><time>2026-05-03T08:49:01.161Z</time></trkpt><trkpt lat="43.5407434" lon="11.697644"><ele>260.25</ele><time>2026-05-03T08:49:02.161Z</time></trkpt><trkpt lat="43.5408338" lon="11.6977833"><ele>261.0</ele><time>2026-05-03T08:49:03.162Z</time></trkpt><trkpt lat="43.5409231" lon="11.697922"><ele>261.0</ele><time>2026-05-03T08:49:04.161Z</time></trkpt><trkpt lat="43.5410158" lon="11.6980669"><ele>261.0</ele><time>2026-05-03T08:49:05.162Z</time></trkpt><trkpt lat="43.5411104" lon="11.6982121"><ele>261.0</ele><time>2026-05-03T08:49:06.162Z</time></trkpt><trkpt lat="43.5412036" lon="11.6983569"><ele>261.0</ele><time>2026-05-03T08:49:07.162Z</time></trkpt><trkpt lat="43.5412979" lon="11.6985036"><ele>261.5</ele><time>2026-05-03T08:49:08.161Z</time></trkpt><trkpt lat="43.5413917" lon="11.6986526"><ele>262.0</ele><time>2026-05-03T08:49:09.162Z</time></trkpt><trkpt lat="43.5414866" lon="11.6987999"><ele>262.5</ele><time>2026-05-03T08:49:10.162Z</time></trkpt><trkpt lat="43.5415842" lon="11.6989452"><ele>263.0</ele><time>2026-05-03T08:49:11.162Z</time></trkpt><trkpt lat="43.5416845" lon="11.6990796"><ele>263.0</ele><time>2026-05-03T08:49:12.161Z</time></trkpt><trkpt lat="43.5417837" lon="11.6992067"><ele>263.0</ele><time>2026-05-03T08:49:13.161Z</time></trkpt><trkpt lat="43.5418773" lon="11.6993274"><ele>263.0</ele><time>2026-05-03T08:49:14.161Z</time></trkpt><trkpt lat="43.5419799" lon="11.6994521"><ele>263.0</ele><time>2026-05-03T08:49:15.161Z</time></trkpt><trkpt lat="43.54208" lon="11.6995761"><ele>264.0</ele><time>2026-05-03T08:49:16.162Z</time></trkpt><trkpt lat="43.5421847" lon="11.6996997"><ele>265.0</ele><time>2026-05-03T08:49:17.162Z</time></trkpt><trkpt lat="43.5422898" lon="11.6998318"><ele>266.0</ele><time>2026-05-03T08:49:18.162Z</time></trkpt><trkpt lat="43.5423939" lon="11.6999651"><ele>267.0</ele><time>2026-05-03T08:49:19.161Z</time></trkpt><trkpt lat="43.5424888" lon="11.7000922"><ele>267.0</ele><time>2026-05-03T08:49:20.161Z</time></trkpt><trkpt lat="43.5425794" lon="11.7002273"><ele>267.0</ele><time>2026-05-03T08:49:21.161Z</time></trkpt><trkpt lat="43.5426723" lon="11.7003476"><ele>267.0</ele><time>2026-05-03T08:49:22.16Z</time></trkpt><trkpt lat="43.542759" lon="11.7004534"><ele>267.0</ele><time>2026-05-03T08:49:23.162Z</time></trkpt><trkpt lat="43.5428392" lon="11.7005517"><ele>267.8</ele><time>2026-05-03T08:49:24.161Z</time></trkpt><trkpt lat="43.5429069" lon="11.7006484"><ele>268.6</ele><time>2026-05-03T08:49:25.16Z</time></trkpt><trkpt lat="43.5429726" lon="11.7007467"><ele>269.40000000000003</ele><time>2026-05-03T08:49:26.161Z</time></trkpt><trkpt lat="43.5430452" lon="11.7008439"><ele>270.2</ele><time>2026-05-03T08:49:27.161Z</time></trkpt><trkpt lat="43.5431213" lon="11.7009362"><ele>271.0</ele><time>2026-05-03T08:49:28.162Z</time></trkpt><trkpt lat="43.5431907" lon="11.7010189"><ele>271.40000000000003</ele><time>2026-05-03T08:49:29.161Z</time></trkpt><trkpt lat="43.5432645" lon="11.7011001"><ele>271.8</ele><time>2026-05-03T08:49:30.161Z</time></trkpt><trkpt lat="43.5433411" lon="11.7011917"><ele>272.20000000000005</ele><time>2026-05-03T08:49:31.161Z</time></trkpt><trkpt lat="43.543421" lon="11.701286"><ele>272.6</ele><time>2026-05-03T08:49:32.162Z</time></trkpt><trkpt lat="43.5435033" lon="11.7013872"><ele>273.0</ele><time>2026-05-03T08:49:33.162Z</time></trkpt><trkpt lat="43.543587" lon="11.7014879"><ele>273.0</ele><time>2026-05-03T08:49:34.162Z</time></trkpt><trkpt lat="43.5436703" lon="11.7015926"><ele>273.0</ele><time>2026-05-03T08:49:35.162Z</time></trkpt><trkpt lat="43.5437502" lon="11.7016966"><ele>273.0</ele><time>2026-05-03T08:49:36.161Z</time></trkpt><trkpt lat="43.543823" lon="11.7017812"><ele>273.0</ele><time>2026-05-03T08:49:37.161Z</time></trkpt><trkpt lat="43.543889" lon="11.7018548"><ele>273.0</ele><time>2026-05-03T08:49:38.161Z</time></trkpt><trkpt lat="43.5439434" lon="11.7019253"><ele>273.8333333333333</ele><time>2026-05-03T08:49:39.162Z</time></trkpt><trkpt lat="43.5439945" lon="11.7020189"><ele>274.6666666666667</ele><time>2026-05-03T08:49:41.161Z</time></trkpt><trkpt lat="43.544058" lon="11.7020057"><ele>275.5</ele><time>2026-05-03T08:49:57.161Z</time></trkpt><trkpt lat="43.5440882" lon="11.7018869"><ele>276.33333333333337</ele><time>2026-05-03T08:51:06.161Z</time></trkpt><trkpt lat="43.5441287" lon="11.7018123"><ele>277.1666666666667</ele><time>2026-05-03T08:51:07.161Z</time></trkpt><trkpt lat="43.5441845" lon="11.7017409"><ele>278.0</ele><time>2026-05-03T08:51:08.161Z</time></trkpt><trkpt lat="43.5442423" lon="11.7016575"><ele>278.0</ele><time>2026-05-03T08:51:09.16Z</time></trkpt><trkpt lat="43.544284" lon="11.7015694"><ele>278.0</ele><time>2026-05-03T08:51:10.16Z</time></trkpt><trkpt lat="43.5443218" lon="11.7014657"><ele>278.0</ele><time>2026-05-03T08:51:11.161Z</time></trkpt><trkpt lat="43.5443529" lon="11.7013672"><ele>278.0</ele><time>2026-05-03T08:51:12.159Z</time></trkpt><trkpt lat="43.5443955" lon="11.701272"><ele>278.0</ele><time>2026-05-03T08:51:13.16Z</time></trkpt><trkpt lat="43.54445" lon="11.7011894"><ele>278.0</ele><time>2026-05-03T08:51:14.161Z</time></trkpt><trkpt lat="43.5445078" lon="11.7011158"><ele>277.83333333333337</ele><time>2026-05-03T08:51:15.161Z</time></trkpt><trkpt lat="43.5445623" lon="11.7010372"><ele>277.6666666666667</ele><time>2026-05-03T08:51:16.159Z</time></trkpt><trkpt lat="43.5446097" lon="11.7009672"><ele>277.5</ele><time>2026-05-03T08:51:17.161Z</time></trkpt><trkpt lat="43.5446828" lon="11.7009053"><ele>277.3333333333333</ele><time>2026-05-03T08:51:19.161Z</time></trkpt><trkpt lat="43.5447612" lon="11.7008904"><ele>277.16666666666663</ele><time>2026-05-03T08:51:21.16Z</time></trkpt><trkpt lat="43.544832" lon="11.7008428"><ele>277.0</ele><time>2026-05-03T08:51:23.161Z</time></trkpt><trkpt lat="43.5449393" lon="11.700755"><ele>277.0</ele><time>2026-05-03T08:51:25.16Z</time></trkpt><trkpt lat="43.5450094" lon="11.7007237"><ele>277.0</ele><time>2026-05-03T08:51:26.161Z</time></trkpt><trkpt lat="43.5451053" lon="11.7006178"><ele>277.0</ele><time>2026-05-03T08:51:28.161Z</time></trkpt><trkpt lat="43.5451478" lon="11.7005499"><ele>277.0</ele><time>2026-05-03T08:51:29.161Z</time></trkpt><trkpt lat="43.5452011" lon="11.700498"><ele>277.0</ele><time>2026-05-03T08:51:30.16Z</time></trkpt><trkpt lat="43.5452516" lon="11.7004453"><ele>277.0</ele><time>2026-05-03T08:51:31.161Z</time></trkpt><trkpt lat="43.5453627" lon="11.7004044"><ele>277.66666666666663</ele><time>2026-05-03T08:51:33.161Z</time></trkpt><trkpt lat="43.5454399" lon="11.7003997"><ele>278.3333333333333</ele><time>2026-05-03T08:51:34.16Z</time></trkpt><trkpt lat="43.5455147" lon="11.7004128"><ele>279.0</ele><time>2026-05-03T08:51:35.16Z</time></trkpt><trkpt lat="43.5455867" lon="11.7004322"><ele>279.6666666666667</ele><time>2026-05-03T08:51:36.161Z</time></trkpt><trkpt lat="43.5456703" lon="11.7004366"><ele>280.33333333333337</ele><time>2026-05-03T08:51:37.161Z</time></trkpt><trkpt lat="43.5457583" lon="11.7004306"><ele>281.0</ele><time>2026-05-03T08:51:38.16Z</time></trkpt><trkpt lat="43.5458401" lon="11.7004298"><ele>281.0</ele><time>2026-05-03T08:51:39.16Z</time></trkpt><trkpt lat="43.5459118" lon="11.7004484"><ele>281.0</ele><time>2026-05-03T08:51:40.161Z</time></trkpt><trkpt lat="43.5460272" lon="11.7004336"><ele>281.0</ele><time>2026-05-03T08:51:42.16Z</time></trkpt><trkpt lat="43.5461218" lon="11.7004377"><ele>281.0</ele><time>2026-05-03T08:51:44.161Z</time></trkpt><trkpt lat="43.5462075" lon="11.700388"><ele>281.0</ele><time>2026-05-03T08:51:46.16Z</time></trkpt><trkpt lat="43.5463212" lon="11.7003798"><ele>281.0</ele><time>2026-05-03T08:51:48.161Z</time></trkpt><trkpt lat="43.546409" lon="11.7004562"><ele>281.0</ele><time>2026-05-03T08:51:50.16Z</time></trkpt><trkpt lat="43.5464816" lon="11.7005454"><ele>281.0</ele><time>2026-05-03T08:51:52.16Z</time></trkpt><trkpt lat="43.5465779" lon="11.7005713"><ele>281.0</ele><time>2026-05-03T08:51:54.161Z</time></trkpt><trkpt lat="43.5466533" lon="11.7005798"><ele>281.0</ele><time>2026-05-03T08:51:55.16Z</time></trkpt><trkpt lat="43.5467352" lon="11.7005814"><ele>281.0</ele><time>2026-05-03T08:51:56.159Z</time></trkpt><trkpt lat="43.5468343" lon="11.7005883"><ele>281.0</ele><time>2026-05-03T08:51:58.16Z</time></trkpt><trkpt lat="43.5469057" lon="11.7004994"><ele>281.0</ele><time>2026-05-03T08:52:00.16Z</time></trkpt><trkpt lat="43.5469451" lon="11.7004255"><ele>281.0</ele><time>2026-05-03T08:52:01.161Z</time></trkpt><trkpt lat="43.5469479" lon="11.7003263"><ele>281.0</ele><time>2026-05-03T08:52:02.161Z</time></trkpt><trkpt lat="43.5469605" lon="11.7002149"><ele>281.0</ele><time>2026-05-03T08:52:03.161Z</time></trkpt><trkpt lat="43.5469653" lon="11.7001051"><ele>280.6666666666667</ele><time>2026-05-03T08:52:04.161Z</time></trkpt><trkpt lat="43.5469703" lon="11.6999963"><ele>280.33333333333337</ele><time>2026-05-03T08:52:05.16Z</time></trkpt><trkpt lat="43.5469874" lon="11.6999124"><ele>280.0</ele><time>2026-05-03T08:52:06.161Z</time></trkpt><trkpt lat="43.546993" lon="11.6998016"><ele>279.6666666666667</ele><time>2026-05-03T08:52:07.161Z</time></trkpt><trkpt lat="43.546957" lon="11.6996497"><ele>279.3333333333333</ele><time>2026-05-03T08:52:09.161Z</time></trkpt><trkpt lat="43.5469621" lon="11.6995511"><ele>279.0</ele><time>2026-05-03T08:52:11.161Z</time></trkpt><trkpt lat="43.5470432" lon="11.6995215"><ele>280.8333333333333</ele><time>2026-05-03T08:52:13.161Z</time></trkpt><trkpt lat="43.5471162" lon="11.6995192"><ele>282.6666666666667</ele><time>2026-05-03T08:52:14.161Z</time></trkpt><trkpt lat="43.5472027" lon="11.6995225"><ele>284.5</ele><time>2026-05-03T08:52:15.161Z</time></trkpt><trkpt lat="43.5472867" lon="11.6995104"><ele>286.33333333333337</ele><time>2026-05-03T08:52:16.161Z</time></trkpt><trkpt lat="43.5473639" lon="11.6994704"><ele>288.1666666666667</ele><time>2026-05-03T08:52:17.16Z</time></trkpt><trkpt lat="43.5474305" lon="11.699394"><ele>290.0</ele><time>2026-05-03T08:52:18.16Z</time></trkpt><trkpt lat="43.5474772" lon="11.6993351"><ele>290.0</ele><time>2026-05-03T08:52:19.161Z</time></trkpt><trkpt lat="43.5475157" lon="11.6991981"><ele>290.0</ele><time>2026-05-03T08:52:21.159Z</time></trkpt><trkpt lat="43.5474991" lon="11.699108"><ele>290.0</ele><time>2026-05-03T08:52:22.161Z</time></trkpt><trkpt lat="43.5474608" lon="11.698927"><ele>290.0</ele><time>2026-05-03T08:52:24.16Z</time></trkpt><trkpt lat="43.5474441" lon="11.6988209"><ele>290.0</ele><time>2026-05-03T08:52:25.161Z</time></trkpt><trkpt lat="43.5474329" lon="11.6987212"><ele>290.0</ele><time>2026-05-03T08:52:26.161Z</time></trkpt><trkpt lat="43.5474201" lon="11.6986243"><ele>290.0</ele><time>2026-05-03T08:52:27.161Z</time></trkpt><trkpt lat="43.5474069" lon="11.6985351"><ele>290.0</ele><time>2026-05-03T08:52:28.159Z</time></trkpt><trkpt lat="43.547413" lon="11.6984172"><ele>290.0</ele><time>2026-05-03T08:52:30.16Z</time></trkpt><trkpt lat="43.5474802" lon="11.6983865"><ele>290.0</ele><time>2026-05-03T08:52:32.16Z</time></trkpt><trkpt lat="43.5475895" lon="11.6984545"><ele>290.0</ele><time>2026-05-03T08:52:34.161Z</time></trkpt><trkpt lat="43.5476626" lon="11.6985136"><ele>290.0</ele><time>2026-05-03T08:52:35.161Z</time></trkpt><trkpt lat="43.547746" lon="11.698572"><ele>290.0</ele><time>2026-05-03T08:52:36.161Z</time></trkpt><trkpt lat="43.5478388" lon="11.6986207"><ele>290.0</ele><time>2026-05-03T08:52:37.161Z</time></trkpt><trkpt lat="43.5479436" lon="11.6986646"><ele>290.0</ele><time>2026-05-03T08:52:38.159Z</time></trkpt><trkpt lat="43.5480502" lon="11.6987189"><ele>290.0</ele><time>2026-05-03T08:52:39.16Z</time></trkpt><trkpt lat="43.5481574" lon="11.6987772"><ele>291.25</ele><time>2026-05-03T08:52:40.16Z</time></trkpt><trkpt lat="43.5482692" lon="11.6988296"><ele>292.5</ele><time>2026-05-03T08:52:41.16Z</time></trkpt><trkpt lat="43.5483804" lon="11.6988797"><ele>293.75</ele><time>2026-05-03T08:52:42.159Z</time></trkpt><trkpt lat="43.5484883" lon="11.6989349"><ele>295.0</ele><time>2026-05-03T08:52:43.161Z</time></trkpt><trkpt lat="43.5485915" lon="11.6989869"><ele>295.0</ele><time>2026-05-03T08:52:44.16Z</time></trkpt><trkpt lat="43.5486909" lon="11.6990473"><ele>295.0</ele><time>2026-05-03T08:52:45.16Z</time></trkpt><trkpt lat="43.5487743" lon="11.6991074"><ele>295.0</ele><time>2026-05-03T08:52:46.161Z</time></trkpt><trkpt lat="43.5488491" lon="11.6991462"><ele>295.0</ele><time>2026-05-03T08:52:47.161Z</time></trkpt><trkpt lat="43.548911" lon="11.6991627"><ele>295.0</ele><time>2026-05-03T08:52:48.16Z</time></trkpt><trkpt lat="43.5490226" lon="11.6991019"><ele>296.16666666666663</ele><time>2026-05-03T08:52:50.16Z</time></trkpt><trkpt lat="43.5490488" lon="11.6990111"><ele>297.3333333333333</ele><time>2026-05-03T08:52:51.161Z</time></trkpt><trkpt lat="43.5490679" lon="11.6989198"><ele>298.5</ele><time>2026-05-03T08:52:52.16Z</time></trkpt><trkpt lat="43.5490611" lon="11.6987515"><ele>299.6666666666667</ele><time>2026-05-03T08:52:54.16Z</time></trkpt><trkpt lat="43.5490311" lon="11.6986566"><ele>300.83333333333337</ele><time>2026-05-03T08:52:55.161Z</time></trkpt><trkpt lat="43.5490015" lon="11.6985585"><ele>302.0</ele><time>2026-05-03T08:52:56.161Z</time></trkpt><trkpt lat="43.5489725" lon="11.6984551"><ele>302.00000000000006</ele><time>2026-05-03T08:52:57.16Z</time></trkpt><trkpt lat="43.5489536" lon="11.6983648"><ele>302.0</ele><time>2026-05-03T08:52:58.16Z</time></trkpt><trkpt lat="43.54894" lon="11.6982787"><ele>302.0</ele><time>2026-05-03T08:52:59.161Z</time></trkpt><trkpt lat="43.5489069" lon="11.6981615"><ele>302.0</ele><time>2026-05-03T08:53:01.161Z</time></trkpt><trkpt lat="43.5489425" lon="11.6982492"><ele>302.0</ele><time>2026-05-03T08:53:29.161Z</time></trkpt><trkpt lat="43.5489498" lon="11.6983491"><ele>302.00000000000006</ele><time>2026-05-03T08:53:32.16Z</time></trkpt><trkpt lat="43.5488831" lon="11.6983715"><ele>302.0</ele><time>2026-05-03T08:53:35.16Z</time></trkpt><trkpt lat="43.5489512" lon="11.6983373"><ele>302.0</ele><time>2026-05-03T08:53:41.161Z</time></trkpt><trkpt lat="43.5489401" lon="11.6982201"><ele>302.0</ele><time>2026-05-03T08:53:45.161Z</time></trkpt><trkpt lat="43.5489035" lon="11.6981296"><ele>302.0</ele><time>2026-05-03T08:53:47.161Z</time></trkpt><trkpt lat="43.5489674" lon="11.6981065"><ele>302.0</ele><time>2026-05-03T08:53:51.16Z</time></trkpt><trkpt lat="43.5490035" lon="11.6982554"><ele>302.0</ele><time>2026-05-03T08:53:53.16Z</time></trkpt><trkpt lat="43.5490242" lon="11.6983412"><ele>302.0</ele><time>2026-05-03T08:53:54.159Z</time></trkpt><trkpt lat="43.5490488" lon="11.6984287"><ele>302.0</ele><time>2026-05-03T08:53:55.16Z</time></trkpt><trkpt lat="43.5490735" lon="11.6985168"><ele>302.0</ele><time>2026-05-03T08:53:56.161Z</time></trkpt><trkpt lat="43.5491021" lon="11.6986125"><ele>302.0</ele><time>2026-05-03T08:53:57.161Z</time></trkpt><trkpt lat="43.5491331" lon="11.698708"><ele>302.0</ele><time>2026-05-03T08:53:58.16Z</time></trkpt><trkpt lat="43.5491646" lon="11.6988103"><ele>302.0</ele><time>2026-05-03T08:53:59.161Z</time></trkpt><trkpt lat="43.5491825" lon="11.6989221"><ele>302.0</ele><time>2026-05-03T08:54:00.16Z</time></trkpt><trkpt lat="43.5491638" lon="11.6990305"><ele>302.0</ele><time>2026-05-03T08:54:01.161Z</time></trkpt><trkpt lat="43.5491526" lon="11.6991251"><ele>302.0</ele><time>2026-05-03T08:54:02.16Z</time></trkpt><trkpt lat="43.5491793" lon="11.6992669"><ele>302.0</ele><time>2026-05-03T08:54:04.161Z</time></trkpt><trkpt lat="43.5492257" lon="11.6993421"><ele>302.0</ele><time>2026-05-03T08:58:33.16Z</time></trkpt><trkpt lat="43.5491727" lon="11.6992743"><ele>302.0</ele><time>2026-05-03T09:03:54.16Z</time></trkpt><trkpt lat="43.5491224" lon="11.6993388"><ele>302.0</ele><time>2026-05-03T09:03:57.159Z</time></trkpt><trkpt lat="43.5491654" lon="11.6994349"><ele>302.2</ele><time>2026-05-03T09:03:59.16Z</time></trkpt><trkpt lat="43.5492713" lon="11.6994578"><ele>302.4</ele><time>2026-05-03T09:04:01.159Z</time></trkpt><trkpt lat="43.549353" lon="11.699498"><ele>302.6</ele><time>2026-05-03T09:04:03.159Z</time></trkpt><trkpt lat="43.5494072" lon="11.6996261"><ele>302.8</ele><time>2026-05-03T09:04:05.159Z</time></trkpt><trkpt lat="43.5494362" lon="11.6997228"><ele>303.0</ele><time>2026-05-03T09:04:06.16Z</time></trkpt><trkpt lat="43.5494628" lon="11.6998275"><ele>303.0</ele><time>2026-05-03T09:04:07.159Z</time></trkpt><trkpt lat="43.5494924" lon="11.6999383"><ele>303.0</ele><time>2026-05-03T09:04:08.16Z</time></trkpt><trkpt lat="43.5495229" lon="11.7000493"><ele>303.0</ele><time>2026-05-03T09:04:09.16Z</time></trkpt><trkpt lat="43.5495571" lon="11.7001667"><ele>303.0</ele><time>2026-05-03T09:04:10.159Z</time></trkpt><trkpt lat="43.5495927" lon="11.7002816"><ele>303.0</ele><time>2026-05-03T09:04:11.16Z</time></trkpt><trkpt lat="43.5496275" lon="11.7003888"><ele>303.0</ele><time>2026-05-03T09:04:12.16Z</time></trkpt><trkpt lat="43.5496607" lon="11.7004979"><ele>303.0</ele><time>2026-05-03T09:04:13.159Z</time></trkpt><trkpt lat="43.5496933" lon="11.7006051"><ele>303.0</ele><time>2026-05-03T09:04:14.16Z</time></trkpt><trkpt lat="43.5497245" lon="11.7007141"><ele>303.0</ele><time>2026-05-03T09:04:15.16Z</time></trkpt><trkpt lat="43.5497548" lon="11.7008209"><ele>303.0</ele><time>2026-05-03T09:04:16.16Z</time></trkpt><trkpt lat="43.5497826" lon="11.7009287"><ele>303.0</ele><time>2026-05-03T09:04:17.16Z</time></trkpt><trkpt lat="43.5498125" lon="11.701042"><ele>303.0</ele><time>2026-05-03T09:04:18.16Z</time></trkpt><trkpt lat="43.5498474" lon="11.7011528"><ele>303.0</ele><time>2026-05-03T09:04:19.16Z</time></trkpt><trkpt lat="43.5498847" lon="11.7012685"><ele>303.0</ele><time>2026-05-03T09:04:20.16Z</time></trkpt><trkpt lat="43.5499207" lon="11.7013895"><ele>303.0</ele><time>2026-05-03T09:04:21.159Z</time></trkpt><trkpt lat="43.5499561" lon="11.7015142"><ele>303.0</ele><time>2026-05-03T09:04:22.16Z</time></trkpt><trkpt lat="43.549995" lon="11.7016372"><ele>303.0</ele><time>2026-05-03T09:04:23.159Z</time></trkpt><trkpt lat="43.5500373" lon="11.7017583"><ele>303.0</ele><time>2026-05-03T09:04:24.16Z</time></trkpt><trkpt lat="43.5500775" lon="11.7018771"><ele>303.0</ele><time>2026-05-03T09:04:25.16Z</time></trkpt><trkpt lat="43.550122" lon="11.7019936"><ele>303.0</ele><time>2026-05-03T09:04:26.159Z</time></trkpt><trkpt lat="43.5501687" lon="11.7021083"><ele>303.0</ele><time>2026-05-03T09:04:27.16Z</time></trkpt><trkpt lat="43.5502159" lon="11.7022248"><ele>303.0</ele><time>2026-05-03T09:04:28.16Z</time></trkpt><trkpt lat="43.5502649" lon="11.7023404"><ele>302.6</ele><time>2026-05-03T09:04:29.159Z</time></trkpt><trkpt lat="43.5503103" lon="11.7024586"><ele>302.20000000000005</ele><time>2026-05-03T09:04:30.159Z</time></trkpt><trkpt lat="43.5503548" lon="11.7025794"><ele>301.8</ele><time>2026-05-03T09:04:31.159Z</time></trkpt><trkpt lat="43.5504007" lon="11.7026981"><ele>301.40000000000003</ele><time>2026-05-03T09:04:32.16Z</time></trkpt><trkpt lat="43.5504537" lon="11.7028121"><ele>301.0</ele><time>2026-05-03T09:04:33.159Z</time></trkpt><trkpt lat="43.5505035" lon="11.7029229"><ele>302.0</ele><time>2026-05-03T09:04:34.159Z</time></trkpt><trkpt lat="43.5505548" lon="11.7030378"><ele>303.0</ele><time>2026-05-03T09:04:35.159Z</time></trkpt><trkpt lat="43.5506104" lon="11.7031519"><ele>304.0</ele><time>2026-05-03T09:04:36.16Z</time></trkpt><trkpt lat="43.550666" lon="11.7032703"><ele>305.0</ele><time>2026-05-03T09:04:37.159Z</time></trkpt><trkpt lat="43.5507215" lon="11.703383"><ele>306.0</ele><time>2026-05-03T09:04:38.16Z</time></trkpt><trkpt lat="43.5507788" lon="11.7034886"><ele>305.6</ele><time>2026-05-03T09:04:39.16Z</time></trkpt><trkpt lat="43.5508367" lon="11.7035934"><ele>305.20000000000005</ele><time>2026-05-03T09:04:40.158Z</time></trkpt><trkpt lat="43.5508959" lon="11.7036997"><ele>304.79999999999995</ele><time>2026-05-03T09:04:41.16Z</time></trkpt><trkpt lat="43.5509575" lon="11.7038042"><ele>304.4</ele><time>2026-05-03T09:04:42.16Z</time></trkpt><trkpt lat="43.5510184" lon="11.7039068"><ele>304.0</ele><time>2026-05-03T09:04:43.16Z</time></trkpt><trkpt lat="43.5510834" lon="11.7040044"><ele>304.0</ele><time>2026-05-03T09:04:44.16Z</time></trkpt><trkpt lat="43.5511491" lon="11.7041001"><ele>304.0</ele><time>2026-05-03T09:04:45.159Z</time></trkpt><trkpt lat="43.5512178" lon="11.7041918"><ele>304.0</ele><time>2026-05-03T09:04:46.158Z</time></trkpt><trkpt lat="43.5512925" lon="11.7042741"><ele>304.0</ele><time>2026-05-03T09:04:47.16Z</time></trkpt><trkpt lat="43.5513788" lon="11.7043364"><ele>304.0</ele><time>2026-05-03T09:04:48.16Z</time></trkpt><trkpt lat="43.5514728" lon="11.7043823"><ele>302.8</ele><time>2026-05-03T09:04:49.158Z</time></trkpt><trkpt lat="43.5515722" lon="11.7044167"><ele>301.59999999999997</ele><time>2026-05-03T09:04:50.159Z</time></trkpt><trkpt lat="43.5516686" lon="11.7044486"><ele>300.4</ele><time>2026-05-03T09:04:51.16Z</time></trkpt><trkpt lat="43.5517639" lon="11.7044838"><ele>299.2</ele><time>2026-05-03T09:04:52.16Z</time></trkpt><trkpt lat="43.5518548" lon="11.7045288"><ele>298.0</ele><time>2026-05-03T09:04:53.16Z</time></trkpt><trkpt lat="43.5519446" lon="11.7045928"><ele>298.0</ele><time>2026-05-03T09:04:54.16Z</time></trkpt><trkpt lat="43.5520223" lon="11.7046752"><ele>298.0</ele><time>2026-05-03T09:04:55.16Z</time></trkpt><trkpt lat="43.5520806" lon="11.704784"><ele>298.0</ele><time>2026-05-03T09:04:56.16Z</time></trkpt><trkpt lat="43.5521249" lon="11.7049119"><ele>298.0</ele><time>2026-05-03T09:04:57.16Z</time></trkpt><trkpt lat="43.5521539" lon="11.7050535"><ele>298.0</ele><time>2026-05-03T09:04:58.158Z</time></trkpt><trkpt lat="43.5521807" lon="11.7051885"><ele>298.5</ele><time>2026-05-03T09:04:59.16Z</time></trkpt><trkpt lat="43.5522061" lon="11.7053131"><ele>299.0</ele><time>2026-05-03T09:05:00.159Z</time></trkpt><trkpt lat="43.5522288" lon="11.7054279"><ele>299.5</ele><time>2026-05-03T09:05:01.16Z</time></trkpt><trkpt lat="43.5522509" lon="11.705535"><ele>300.0</ele><time>2026-05-03T09:05:02.16Z</time></trkpt><trkpt lat="43.5522728" lon="11.7056369"><ele>300.5</ele><time>2026-05-03T09:05:03.16Z</time></trkpt><trkpt lat="43.5522946" lon="11.7057424"><ele>301.0</ele><time>2026-05-03T09:05:04.158Z</time></trkpt><trkpt lat="43.5523181" lon="11.7058496"><ele>301.0</ele><time>2026-05-03T09:05:05.158Z</time></trkpt><trkpt lat="43.5523417" lon="11.7059617"><ele>301.0</ele><time>2026-05-03T09:05:06.159Z</time></trkpt><trkpt lat="43.5523704" lon="11.7060742"><ele>301.0</ele><time>2026-05-03T09:05:07.16Z</time></trkpt><trkpt lat="43.5523918" lon="11.7061915"><ele>301.0</ele><time>2026-05-03T09:05:08.16Z</time></trkpt><trkpt lat="43.5524157" lon="11.7063132"><ele>301.0</ele><time>2026-05-03T09:05:09.159Z</time></trkpt><trkpt lat="43.5524434" lon="11.7064387"><ele>301.0</ele><time>2026-05-03T09:05:10.16Z</time></trkpt><trkpt lat="43.5524752" lon="11.706556"><ele>301.40000000000003</ele><time>2026-05-03T09:05:11.16Z</time></trkpt><trkpt lat="43.5525116" lon="11.7066722"><ele>301.8</ele><time>2026-05-03T09:05:12.16Z</time></trkpt><trkpt lat="43.5525581" lon="11.7067868"><ele>302.20000000000005</ele><time>2026-05-03T09:05:13.159Z</time></trkpt><trkpt lat="43.5526067" lon="11.7069026"><ele>302.6</ele><time>2026-05-03T09:05:14.16Z</time></trkpt><trkpt lat="43.5526644" lon="11.7070141"><ele>303.0</ele><time>2026-05-03T09:05:15.16Z</time></trkpt><trkpt lat="43.5527247" lon="11.707126"><ele>303.6</ele><time>2026-05-03T09:05:16.16Z</time></trkpt><trkpt lat="43.5527839" lon="11.7072384"><ele>304.20000000000005</ele><time>2026-05-03T09:05:17.159Z</time></trkpt><trkpt lat="43.5528381" lon="11.7073448"><ele>304.8</ele><time>2026-05-03T09:05:18.158Z</time></trkpt><trkpt lat="43.5528893" lon="11.7074435"><ele>305.40000000000003</ele><time>2026-05-03T09:05:19.159Z</time></trkpt><trkpt lat="43.5529388" lon="11.7075423"><ele>306.0</ele><time>2026-05-03T09:05:20.159Z</time></trkpt><trkpt lat="43.5529872" lon="11.707639"><ele>306.3333333333333</ele><time>2026-05-03T09:05:21.16Z</time></trkpt><trkpt lat="43.5530317" lon="11.7077323"><ele>306.6666666666667</ele><time>2026-05-03T09:05:22.159Z</time></trkpt><trkpt lat="43.553075" lon="11.7078235"><ele>307.0</ele><time>2026-05-03T09:05:23.16Z</time></trkpt><trkpt lat="43.5531121" lon="11.7079179"><ele>307.33333333333337</ele><time>2026-05-03T09:05:24.16Z</time></trkpt><trkpt lat="43.5531385" lon="11.708022"><ele>307.6666666666667</ele><time>2026-05-03T09:05:25.16Z</time></trkpt><trkpt lat="43.5531539" lon="11.708138"><ele>308.0</ele><time>2026-05-03T09:05:26.159Z</time></trkpt><trkpt lat="43.5531631" lon="11.7082588"><ele>308.0</ele><time>2026-05-03T09:05:27.16Z</time></trkpt><trkpt lat="43.5531671" lon="11.7083771"><ele>308.0</ele><time>2026-05-03T09:05:28.16Z</time></trkpt><trkpt lat="43.5531648" lon="11.7084972"><ele>308.0</ele><time>2026-05-03T09:05:29.158Z</time></trkpt><trkpt lat="43.55316" lon="11.7086166"><ele>308.0</ele><time>2026-05-03T09:05:30.159Z</time></trkpt><trkpt lat="43.5531582" lon="11.7087291"><ele>308.0</ele><time>2026-05-03T09:05:31.16Z</time></trkpt><trkpt lat="43.5531583" lon="11.7088385"><ele>308.0</ele><time>2026-05-03T09:05:32.158Z</time></trkpt><trkpt lat="43.5531572" lon="11.7089487"><ele>308.0</ele><time>2026-05-03T09:05:33.159Z</time></trkpt><trkpt lat="43.5531535" lon="11.7090604"><ele>308.0</ele><time>2026-05-03T09:05:34.16Z</time></trkpt><trkpt lat="43.5531508" lon="11.7091743"><ele>308.0</ele><time>2026-05-03T09:05:35.16Z</time></trkpt><trkpt lat="43.5531491" lon="11.7092946"><ele>308.0</ele><time>2026-05-03T09:05:36.16Z</time></trkpt><trkpt lat="43.5531518" lon="11.7094105"><ele>308.0</ele><time>2026-05-03T09:05:37.16Z</time></trkpt><trkpt lat="43.553154" lon="11.7095256"><ele>308.0</ele><time>2026-05-03T09:05:38.16Z</time></trkpt><trkpt lat="43.5531569" lon="11.7096436"><ele>307.83333333333337</ele><time>2026-05-03T09:05:39.159Z</time></trkpt><trkpt lat="43.5531584" lon="11.7097572"><ele>307.6666666666667</ele><time>2026-05-03T09:05:40.16Z</time></trkpt><trkpt lat="43.5531655" lon="11.7098624"><ele>307.5</ele><time>2026-05-03T09:05:41.16Z</time></trkpt><trkpt lat="43.5531749" lon="11.709958"><ele>307.3333333333333</ele><time>2026-05-03T09:05:42.158Z</time></trkpt><trkpt lat="43.5532069" lon="11.7101105"><ele>307.16666666666663</ele><time>2026-05-03T09:05:44.159Z</time></trkpt><trkpt lat="43.5532804" lon="11.7101762"><ele>307.0</ele><time>2026-05-03T09:05:46.16Z</time></trkpt><trkpt lat="43.5533511" lon="11.710158"><ele>307.0</ele><time>2026-05-03T09:05:48.16Z</time></trkpt><trkpt lat="43.5534648" lon="11.710138"><ele>307.0</ele><time>2026-05-03T09:05:50.16Z</time></trkpt><trkpt lat="43.5535383" lon="11.7101384"><ele>307.0</ele><time>2026-05-03T09:05:51.159Z</time></trkpt><trkpt lat="43.5536147" lon="11.710147"><ele>307.0</ele><time>2026-05-03T09:05:52.159Z</time></trkpt><trkpt lat="43.5536993" lon="11.7101554"><ele>307.0</ele><time>2026-05-03T09:05:53.16Z</time></trkpt><trkpt lat="43.5537861" lon="11.7101599"><ele>307.0</ele><time>2026-05-03T09:05:54.16Z</time></trkpt><trkpt lat="43.5538747" lon="11.7101659"><ele>307.2</ele><time>2026-05-03T09:05:55.16Z</time></trkpt><trkpt lat="43.5539666" lon="11.7101672"><ele>307.4</ele><time>2026-05-03T09:05:56.159Z</time></trkpt><trkpt lat="43.5540593" lon="11.7101736"><ele>307.6</ele><time>2026-05-03T09:05:57.159Z</time></trkpt><trkpt lat="43.5541391" lon="11.710178"><ele>307.8</ele><time>2026-05-03T09:05:58.159Z</time></trkpt><trkpt lat="43.5542378" lon="11.7102418"><ele>308.0</ele><time>2026-05-03T09:06:00.16Z</time></trkpt><trkpt lat="43.5542545" lon="11.7103641"><ele>307.6666666666667</ele><time>2026-05-03T09:06:02.159Z</time></trkpt><trkpt lat="43.5542369" lon="11.7104799"><ele>307.33333333333337</ele><time>2026-05-03T09:06:04.16Z</time></trkpt><trkpt lat="43.5542243" lon="11.7106111"><ele>307.0</ele><time>2026-05-03T09:06:06.159Z</time></trkpt><trkpt lat="43.5542347" lon="11.7107143"><ele>306.6666666666667</ele><time>2026-05-03T09:06:08.159Z</time></trkpt><trkpt lat="43.5542977" lon="11.7107904"><ele>306.3333333333333</ele><time>2026-05-03T09:06:12.16Z</time></trkpt><trkpt lat="43.5543785" lon="11.7107587"><ele>306.0</ele><time>2026-05-03T09:35:12.155Z</time></trkpt><trkpt lat="43.5544582" lon="11.7107364"><ele>306.1666666666667</ele><time>2026-05-03T09:35:16.156Z</time></trkpt><trkpt lat="43.5545398" lon="11.710776"><ele>306.3333333333333</ele><time>2026-05-03T09:35:18.156Z</time></trkpt><trkpt lat="43.5546246" lon="11.7108755"><ele>306.5</ele><time>2026-05-03T09:35:20.155Z</time></trkpt><trkpt lat="43.5546568" lon="11.7109598"><ele>306.66666666666663</ele><time>2026-05-03T09:35:21.155Z</time></trkpt><trkpt lat="43.5546764" lon="11.7110543"><ele>306.8333333333333</ele><time>2026-05-03T09:35:22.156Z</time></trkpt><trkpt lat="43.5546905" lon="11.711159"><ele>307.0</ele><time>2026-05-03T09:35:23.156Z</time></trkpt><trkpt lat="43.5547038" lon="11.7112724"><ele>306.66666666666663</ele><time>2026-05-03T09:35:24.154Z</time></trkpt><trkpt lat="43.5547183" lon="11.7113918"><ele>306.3333333333333</ele><time>2026-05-03T09:35:25.156Z</time></trkpt><trkpt lat="43.5547321" lon="11.7115131"><ele>306.0</ele><time>2026-05-03T09:35:26.155Z</time></trkpt><trkpt lat="43.5547447" lon="11.7116238"><ele>305.6666666666667</ele><time>2026-05-03T09:35:27.155Z</time></trkpt><trkpt lat="43.5547576" lon="11.7117223"><ele>305.33333333333337</ele><time>2026-05-03T09:35:28.156Z</time></trkpt><trkpt lat="43.5547703" lon="11.7118172"><ele>305.0</ele><time>2026-05-03T09:35:29.155Z</time></trkpt><trkpt lat="43.5548035" lon="11.7118911"><ele>304.83333333333337</ele><time>2026-05-03T09:35:30.156Z</time></trkpt><trkpt lat="43.5548655" lon="11.7119356"><ele>304.6666666666667</ele><time>2026-05-03T09:35:31.155Z</time></trkpt><trkpt lat="43.5549432" lon="11.7119514"><ele>304.5</ele><time>2026-05-03T09:35:32.155Z</time></trkpt><trkpt lat="43.5550326" lon="11.7119447"><ele>304.3333333333333</ele><time>2026-05-03T09:35:33.156Z</time></trkpt><trkpt lat="43.5551269" lon="11.7119342"><ele>304.16666666666663</ele><time>2026-05-03T09:35:34.156Z</time></trkpt><trkpt lat="43.555221" lon="11.7119306"><ele>304.0</ele><time>2026-05-03T09:35:35.155Z</time></trkpt><trkpt lat="43.5553065" lon="11.7119272"><ele>305.16666666666663</ele><time>2026-05-03T09:35:36.156Z</time></trkpt><trkpt lat="43.5553809" lon="11.7119241"><ele>306.3333333333333</ele><time>2026-05-03T09:35:37.156Z</time></trkpt><trkpt lat="43.5554761" lon="11.7119623"><ele>307.5</ele><time>2026-05-03T09:35:39.155Z</time></trkpt><trkpt lat="43.5555276" lon="11.7120774"><ele>308.6666666666667</ele><time>2026-05-03T09:35:41.155Z</time></trkpt><trkpt lat="43.555535" lon="11.7121766"><ele>309.83333333333337</ele><time>2026-05-03T09:35:42.155Z</time></trkpt><trkpt lat="43.5555476" lon="11.7122933"><ele>311.0</ele><time>2026-05-03T09:35:43.156Z</time></trkpt><trkpt lat="43.555565" lon="11.7124124"><ele>311.0</ele><time>2026-05-03T09:35:44.155Z</time></trkpt><trkpt lat="43.5555805" lon="11.7125312"><ele>311.0</ele><time>2026-05-03T09:35:45.155Z</time></trkpt><trkpt lat="43.5555966" lon="11.7126593"><ele>311.0</ele><time>2026-05-03T09:35:46.155Z</time></trkpt><trkpt lat="43.5556106" lon="11.7127948"><ele>311.0</ele><time>2026-05-03T09:35:47.156Z</time></trkpt><trkpt lat="43.5556257" lon="11.7129362"><ele>311.0</ele><time>2026-05-03T09:35:48.155Z</time></trkpt><trkpt lat="43.5556469" lon="11.7130833"><ele>311.25</ele><time>2026-05-03T09:35:49.155Z</time></trkpt><trkpt lat="43.5556743" lon="11.7132334"><ele>311.5</ele><time>2026-05-03T09:35:50.156Z</time></trkpt><trkpt lat="43.5557089" lon="11.7133829"><ele>311.75</ele><time>2026-05-03T09:35:51.155Z</time></trkpt><trkpt lat="43.5557566" lon="11.7135303"><ele>312.0</ele><time>2026-05-03T09:35:52.155Z</time></trkpt><trkpt lat="43.5558104" lon="11.7136791"><ele>312.5</ele><time>2026-05-03T09:35:53.154Z</time></trkpt><trkpt lat="43.5558619" lon="11.7138315"><ele>313.0</ele><time>2026-05-03T09:35:54.154Z</time></trkpt><trkpt lat="43.5559113" lon="11.7139865"><ele>313.5</ele><time>2026-05-03T09:35:55.156Z</time></trkpt><trkpt lat="43.5559597" lon="11.7141406"><ele>314.0</ele><time>2026-05-03T09:35:56.156Z</time></trkpt><trkpt lat="43.5560009" lon="11.7142936"><ele>314.25</ele><time>2026-05-03T09:35:57.156Z</time></trkpt><trkpt lat="43.5560229" lon="11.7144537"><ele>314.5</ele><time>2026-05-03T09:35:58.156Z</time></trkpt><trkpt lat="43.5560262" lon="11.7146184"><ele>314.75</ele><time>2026-05-03T09:35:59.156Z</time></trkpt><trkpt lat="43.5560084" lon="11.7147827"><ele>315.0</ele><time>2026-05-03T09:36:00.156Z</time></trkpt><trkpt lat="43.5559724" lon="11.7149409"><ele>315.0</ele><time>2026-05-03T09:36:01.156Z</time></trkpt><trkpt lat="43.5559245" lon="11.7150945"><ele>315.0</ele><time>2026-05-03T09:36:02.155Z</time></trkpt><trkpt lat="43.5558754" lon="11.7152493"><ele>315.0</ele><time>2026-05-03T09:36:03.154Z</time></trkpt><trkpt lat="43.5558273" lon="11.7154043"><ele>315.0</ele><time>2026-05-03T09:36:04.155Z</time></trkpt><trkpt lat="43.555779" lon="11.7155554"><ele>315.6</ele><time>2026-05-03T09:36:05.156Z</time></trkpt><trkpt lat="43.5557336" lon="11.7156969"><ele>316.2</ele><time>2026-05-03T09:36:06.156Z</time></trkpt><trkpt lat="43.5556954" lon="11.7158248"><ele>316.8</ele><time>2026-05-03T09:36:07.156Z</time></trkpt><trkpt lat="43.5556589" lon="11.7159405"><ele>317.4</ele><time>2026-05-03T09:36:08.156Z</time></trkpt><trkpt lat="43.5556263" lon="11.7160439"><ele>318.0</ele><time>2026-05-03T09:36:09.155Z</time></trkpt><trkpt lat="43.5556128" lon="11.7161375"><ele>318.6666666666667</ele><time>2026-05-03T09:36:10.154Z</time></trkpt><trkpt lat="43.5556578" lon="11.7162462"><ele>319.3333333333333</ele><time>2026-05-03T09:36:12.156Z</time></trkpt><trkpt lat="43.5557334" lon="11.7162729"><ele>320.0</ele><time>2026-05-03T09:36:26.155Z</time></trkpt><trkpt lat="43.5558014" lon="11.7163222"><ele>320.66666666666663</ele><time>2026-05-03T09:36:29.155Z</time></trkpt><trkpt lat="43.5557147" lon="11.7162954"><ele>321.3333333333333</ele><time>2026-05-03T09:36:47.154Z</time></trkpt><trkpt lat="43.5556378" lon="11.7162755"><ele>322.0</ele><time>2026-05-03T09:36:49.156Z</time></trkpt><trkpt lat="43.5555657" lon="11.7163268"><ele>322.0</ele><time>2026-05-03T09:36:52.155Z</time></trkpt><trkpt lat="43.5555198" lon="11.7164502"><ele>322.0</ele><time>2026-05-03T09:36:54.155Z</time></trkpt><trkpt lat="43.5554912" lon="11.7165333"><ele>322.0</ele><time>2026-05-03T09:36:55.156Z</time></trkpt><trkpt lat="43.5554688" lon="11.7166247"><ele>322.0</ele><time>2026-05-03T09:36:56.156Z</time></trkpt><trkpt lat="43.5554518" lon="11.7167199"><ele>322.0</ele><time>2026-05-03T09:36:57.156Z</time></trkpt><trkpt lat="43.5554411" lon="11.7168125"><ele>322.0</ele><time>2026-05-03T09:36:58.155Z</time></trkpt><trkpt lat="43.5554373" lon="11.7169017"><ele>322.0</ele><time>2026-05-03T09:36:59.156Z</time></trkpt><trkpt lat="43.5554619" lon="11.7170485"><ele>322.0</ele><time>2026-05-03T09:37:01.156Z</time></trkpt><trkpt lat="43.5555524" lon="11.7171341"><ele>322.0</ele><time>2026-05-03T09:37:03.156Z</time></trkpt><trkpt lat="43.5556203" lon="11.7171655"><ele>322.0</ele><time>2026-05-03T09:37:04.155Z</time></trkpt><trkpt lat="43.555693" lon="11.7172032"><ele>322.0</ele><time>2026-05-03T09:37:05.156Z</time></trkpt><trkpt lat="43.5557778" lon="11.7172464"><ele>322.0</ele><time>2026-05-03T09:37:06.155Z</time></trkpt><trkpt lat="43.5558663" lon="11.7172873"><ele>322.0</ele><time>2026-05-03T09:37:07.156Z</time></trkpt><trkpt lat="43.55596" lon="11.7173273"><ele>322.0</ele><time>2026-05-03T09:37:08.155Z</time></trkpt><trkpt lat="43.5560577" lon="11.7173708"><ele>322.0</ele><time>2026-05-03T09:37:09.156Z</time></trkpt><trkpt lat="43.5561524" lon="11.7174168"><ele>322.0</ele><time>2026-05-03T09:37:10.154Z</time></trkpt><trkpt lat="43.5562536" lon="11.717463"><ele>322.0</ele><time>2026-05-03T09:37:11.155Z</time></trkpt><trkpt lat="43.5563553" lon="11.7175078"><ele>322.0</ele><time>2026-05-03T09:37:12.156Z</time></trkpt><trkpt lat="43.5564586" lon="11.7175557"><ele>323.0</ele><time>2026-05-03T09:37:13.155Z</time></trkpt><trkpt lat="43.5565637" lon="11.7176039"><ele>324.0</ele><time>2026-05-03T09:37:14.156Z</time></trkpt><trkpt lat="43.5566697" lon="11.7176509"><ele>325.0</ele><time>2026-05-03T09:37:15.155Z</time></trkpt><trkpt lat="43.5567736" lon="11.7177015"><ele>326.0</ele><time>2026-05-03T09:37:16.156Z</time></trkpt><trkpt lat="43.5568789" lon="11.7177571"><ele>327.0</ele><time>2026-05-03T09:37:17.156Z</time></trkpt><trkpt lat="43.5569823" lon="11.7178076"><ele>328.8</ele><time>2026-05-03T09:37:18.156Z</time></trkpt><trkpt lat="43.5570867" lon="11.7178546"><ele>330.6</ele><time>2026-05-03T09:37:19.156Z</time></trkpt><trkpt lat="43.5571877" lon="11.717909"><ele>332.40000000000003</ele><time>2026-05-03T09:37:20.155Z</time></trkpt><trkpt lat="43.5572892" lon="11.7179644"><ele>334.20000000000005</ele><time>2026-05-03T09:37:21.156Z</time></trkpt><trkpt lat="43.5573914" lon="11.7180073"><ele>336.0</ele><time>2026-05-03T09:37:22.156Z</time></trkpt><trkpt lat="43.5574953" lon="11.71805"><ele>336.0</ele><time>2026-05-03T09:37:23.156Z</time></trkpt><trkpt lat="43.5575999" lon="11.718102"><ele>336.0</ele><time>2026-05-03T09:37:24.156Z</time></trkpt><trkpt lat="43.5577066" lon="11.7181568"><ele>336.0</ele><time>2026-05-03T09:37:25.155Z</time></trkpt><trkpt lat="43.5578138" lon="11.7182105"><ele>336.0</ele><time>2026-05-03T09:37:26.155Z</time></trkpt><trkpt lat="43.5579183" lon="11.7182661"><ele>338.6</ele><time>2026-05-03T09:37:27.155Z</time></trkpt><trkpt lat="43.5580243" lon="11.71832"><ele>341.20000000000005</ele><time>2026-05-03T09:37:28.156Z</time></trkpt><trkpt lat="43.5581293" lon="11.7183748"><ele>343.79999999999995</ele><time>2026-05-03T09:37:29.155Z</time></trkpt><trkpt lat="43.5582363" lon="11.718421"><ele>346.4</ele><time>2026-05-03T09:37:30.156Z</time></trkpt><trkpt lat="43.558343" lon="11.718462"><ele>349.0</ele><time>2026-05-03T09:37:31.155Z</time></trkpt><trkpt lat="43.5584445" lon="11.7185029"><ele>349.0</ele><time>2026-05-03T09:37:32.156Z</time></trkpt><trkpt lat="43.5585149" lon="11.7185239"><ele>349.0</ele><time>2026-05-03T09:37:33.155Z</time></trkpt><trkpt lat="43.5586171" lon="11.718606"><ele>349.0</ele><time>2026-05-03T09:37:35.156Z</time></trkpt><trkpt lat="43.5586608" lon="11.7186726"><ele>349.0</ele><time>2026-05-03T09:37:36.155Z</time></trkpt><trkpt lat="43.5587136" lon="11.7187465"><ele>349.0</ele><time>2026-05-03T09:37:37.156Z</time></trkpt><trkpt lat="43.5587636" lon="11.7188095"><ele>349.0</ele><time>2026-05-03T09:37:38.156Z</time></trkpt><trkpt lat="43.5588044" lon="11.7188821"><ele>352.3333333333333</ele><time>2026-05-03T09:37:39.156Z</time></trkpt><trkpt lat="43.5588447" lon="11.7189853"><ele>355.66666666666663</ele><time>2026-05-03T09:37:40.156Z</time></trkpt><trkpt lat="43.558872" lon="11.7190847"><ele>359.0</ele><time>2026-05-03T09:37:41.156Z</time></trkpt><trkpt lat="43.5588937" lon="11.7191763"><ele>362.3333333333333</ele><time>2026-05-03T09:37:42.155Z</time></trkpt><trkpt lat="43.5589146" lon="11.7192598"><ele>365.6666666666667</ele><time>2026-05-03T09:37:43.156Z</time></trkpt><trkpt lat="43.5589304" lon="11.7194388"><ele>369.0</ele><time>2026-05-03T09:37:45.156Z</time></trkpt><trkpt lat="43.5589187" lon="11.7195246"><ele>369.4</ele><time>2026-05-03T09:37:46.155Z</time></trkpt><trkpt lat="43.5588223" lon="11.7196351"><ele>369.79999999999995</ele><time>2026-05-03T09:37:48.155Z</time></trkpt><trkpt lat="43.5587486" lon="11.719664"><ele>370.20000000000005</ele><time>2026-05-03T09:37:49.155Z</time></trkpt><trkpt lat="43.5586584" lon="11.7196794"><ele>370.6</ele><time>2026-05-03T09:37:50.156Z</time></trkpt><trkpt lat="43.5585624" lon="11.7196983"><ele>371.0</ele><time>2026-05-03T09:37:51.155Z</time></trkpt><trkpt lat="43.5584639" lon="11.719713"><ele>370.0</ele><time>2026-05-03T09:37:52.156Z</time></trkpt><trkpt lat="43.5583409" lon="11.7197415"><ele>369.0</ele><time>2026-05-03T09:37:53.156Z</time></trkpt><trkpt lat="43.558231" lon="11.7197681"><ele>368.0</ele><time>2026-05-03T09:37:54.156Z</time></trkpt><trkpt lat="43.5581188" lon="11.7197891"><ele>367.0</ele><time>2026-05-03T09:37:55.155Z</time></trkpt><trkpt lat="43.5580077" lon="11.7198018"><ele>367.0</ele><time>2026-05-03T09:37:56.154Z</time></trkpt><trkpt lat="43.5579013" lon="11.7198222"><ele>367.0</ele><time>2026-05-03T09:37:57.155Z</time></trkpt><trkpt lat="43.5577853" lon="11.7198865"><ele>367.0</ele><time>2026-05-03T09:37:58.154Z</time></trkpt><trkpt lat="43.5576977" lon="11.7199328"><ele>367.0</ele><time>2026-05-03T09:37:59.155Z</time></trkpt><trkpt lat="43.5576115" lon="11.7200638"><ele>368.40000000000003</ele><time>2026-05-03T09:38:00.155Z</time></trkpt><trkpt lat="43.5575117" lon="11.7201456"><ele>369.8</ele><time>2026-05-03T09:38:01.156Z</time></trkpt><trkpt lat="43.5574157" lon="11.7202175"><ele>371.2</ele><time>2026-05-03T09:38:02.156Z</time></trkpt><trkpt lat="43.5573276" lon="11.7202924"><ele>372.6</ele><time>2026-05-03T09:38:03.154Z</time></trkpt><trkpt lat="43.557256" lon="11.72038"><ele>374.0</ele><time>2026-05-03T09:38:04.156Z</time></trkpt><trkpt lat="43.5571984" lon="11.7204836"><ele>374.0</ele><time>2026-05-03T09:38:05.156Z</time></trkpt><trkpt lat="43.557155" lon="11.7205747"><ele>374.0</ele><time>2026-05-03T09:38:06.155Z</time></trkpt><trkpt lat="43.5571108" lon="11.7207198"><ele>374.0</ele><time>2026-05-03T09:38:07.155Z</time></trkpt><trkpt lat="43.5570587" lon="11.7208538"><ele>374.0</ele><time>2026-05-03T09:38:08.156Z</time></trkpt><trkpt lat="43.5570121" lon="11.7209569"><ele>374.0</ele><time>2026-05-03T09:38:09.156Z</time></trkpt><trkpt lat="43.5569779" lon="11.721053"><ele>374.0</ele><time>2026-05-03T09:38:10.156Z</time></trkpt><trkpt lat="43.5570513" lon="11.721127"><ele>374.0</ele><time>2026-05-03T09:38:12.155Z</time></trkpt><trkpt lat="43.5571068" lon="11.7210682"><ele>374.0</ele><time>2026-05-03T09:38:14.156Z</time></trkpt><trkpt lat="43.5571458" lon="11.7209991"><ele>374.0</ele><time>2026-05-03T09:38:15.156Z</time></trkpt><trkpt lat="43.5571979" lon="11.7209333"><ele>374.0</ele><time>2026-05-03T09:38:16.155Z</time></trkpt><trkpt lat="43.5572526" lon="11.7208713"><ele>374.0</ele><time>2026-05-03T09:38:17.156Z</time></trkpt><trkpt lat="43.5573236" lon="11.72081"><ele>374.0</ele><time>2026-05-03T09:38:18.156Z</time></trkpt><trkpt lat="43.5574047" lon="11.7207555"><ele>374.0</ele><time>2026-05-03T09:38:19.156Z</time></trkpt><trkpt lat="43.5574936" lon="11.7207074"><ele>374.0</ele><time>2026-05-03T09:38:20.155Z</time></trkpt><trkpt lat="43.5575844" lon="11.7206805"><ele>374.0</ele><time>2026-05-03T09:38:21.156Z</time></trkpt><trkpt lat="43.5576804" lon="11.7206801"><ele>374.0</ele><time>2026-05-03T09:38:22.155Z</time></trkpt><trkpt lat="43.5577807" lon="11.7206879"><ele>374.0</ele><time>2026-05-03T09:38:23.156Z</time></trkpt><trkpt lat="43.5578805" lon="11.7206939"><ele>378.4</ele><time>2026-05-03T09:38:24.156Z</time></trkpt><trkpt lat="43.5579872" lon="11.7206612"><ele>382.79999999999995</ele><time>2026-05-03T09:38:25.155Z</time></trkpt><trkpt lat="43.5580929" lon="11.7206434"><ele>387.20000000000005</ele><time>2026-05-03T09:38:26.156Z</time></trkpt><trkpt lat="43.5581977" lon="11.7206327"><ele>391.6</ele><time>2026-05-03T09:38:27.156Z</time></trkpt><trkpt lat="43.5583" lon="11.7206284"><ele>396.0</ele><time>2026-05-03T09:38:28.155Z</time></trkpt><trkpt lat="43.5584104" lon="11.7206176"><ele>396.0</ele><time>2026-05-03T09:38:29.156Z</time></trkpt><trkpt lat="43.5584755" lon="11.7206561"><ele>396.0</ele><time>2026-05-03T09:38:30.155Z</time></trkpt><trkpt lat="43.5585592" lon="11.7207821"><ele>396.0</ele><time>2026-05-03T09:38:31.155Z</time></trkpt><trkpt lat="43.558638" lon="11.7208688"><ele>396.0</ele><time>2026-05-03T09:38:32.156Z</time></trkpt><trkpt lat="43.5587135" lon="11.7209735"><ele>396.0</ele><time>2026-05-03T09:38:33.156Z</time></trkpt><trkpt lat="43.5587804" lon="11.7210958"><ele>399.0</ele><time>2026-05-03T09:38:34.156Z</time></trkpt><trkpt lat="43.558857" lon="11.7212142"><ele>402.0</ele><time>2026-05-03T09:38:35.155Z</time></trkpt><trkpt lat="43.5589248" lon="11.7213305"><ele>405.0</ele><time>2026-05-03T09:38:36.155Z</time></trkpt><trkpt lat="43.5589996" lon="11.7214399"><ele>408.0</ele><time>2026-05-03T09:38:37.155Z</time></trkpt><trkpt lat="43.5590699" lon="11.7215544"><ele>411.0</ele><time>2026-05-03T09:38:38.156Z</time></trkpt><trkpt lat="43.5591491" lon="11.7216658"><ele>411.0</ele><time>2026-05-03T09:38:39.155Z</time></trkpt><trkpt lat="43.5592107" lon="11.7217524"><ele>411.0</ele><time>2026-05-03T09:38:40.156Z</time></trkpt><trkpt lat="43.5592709" lon="11.7218329"><ele>411.0</ele><time>2026-05-03T09:38:41.156Z</time></trkpt><trkpt lat="43.5593202" lon="11.7219056"><ele>411.0</ele><time>2026-05-03T09:38:42.155Z</time></trkpt><trkpt lat="43.5593086" lon="11.7220219"><ele>411.0</ele><time>2026-05-03T09:38:44.155Z</time></trkpt><trkpt lat="43.5592346" lon="11.7220326"><ele>411.0</ele><time>2026-05-03T09:38:46.156Z</time></trkpt><trkpt lat="43.5591157" lon="11.7219559"><ele>411.0</ele><time>2026-05-03T09:38:48.156Z</time></trkpt><trkpt lat="43.5590437" lon="11.7219162"><ele>411.0</ele><time>2026-05-03T09:38:49.155Z</time></trkpt><trkpt lat="43.5589688" lon="11.7218858"><ele>411.0</ele><time>2026-05-03T09:38:50.156Z</time></trkpt><trkpt lat="43.5588497" lon="11.7219183"><ele>411.0</ele><time>2026-05-03T09:38:51.156Z</time></trkpt><trkpt lat="43.5587824" lon="11.7219186"><ele>411.0</ele><time>2026-05-03T09:38:52.156Z</time></trkpt><trkpt lat="43.5586905" lon="11.7219422"><ele>411.0</ele><time>2026-05-03T09:38:53.156Z</time></trkpt><trkpt lat="43.5586483" lon="11.7220247"><ele>412.25</ele><time>2026-05-03T09:38:54.154Z</time></trkpt><trkpt lat="43.5586045" lon="11.7222336"><ele>413.5</ele><time>2026-05-03T09:38:55.154Z</time></trkpt><trkpt lat="43.5585822" lon="11.7223443"><ele>414.75</ele><time>2026-05-03T09:38:56.155Z</time></trkpt><trkpt lat="43.5586635" lon="11.722448"><ele>416.0</ele><time>2026-05-03T09:38:58.155Z</time></trkpt><trkpt lat="43.5588161" lon="11.7224398"><ele>418.3333333333333</ele><time>2026-05-03T09:39:00.155Z</time></trkpt><trkpt lat="43.5589005" lon="11.7224666"><ele>420.66666666666663</ele><time>2026-05-03T09:39:01.156Z</time></trkpt><trkpt lat="43.558987" lon="11.7225215"><ele>423.0</ele><time>2026-05-03T09:39:02.156Z</time></trkpt><trkpt lat="43.5590501" lon="11.722581"><ele>425.33333333333337</ele><time>2026-05-03T09:39:03.155Z</time></trkpt><trkpt lat="43.559141" lon="11.7226454"><ele>427.6666666666667</ele><time>2026-05-03T09:39:04.155Z</time></trkpt><trkpt lat="43.5592137" lon="11.7227136"><ele>430.0</ele><time>2026-05-03T09:39:05.156Z</time></trkpt><trkpt lat="43.559271" lon="11.7227819"><ele>432.6666666666667</ele><time>2026-05-03T09:39:06.156Z</time></trkpt><trkpt lat="43.5592754" lon="11.7229038"><ele>435.33333333333337</ele><time>2026-05-03T09:39:08.155Z</time></trkpt><trkpt lat="43.5591856" lon="11.7229399"><ele>438.0</ele><time>2026-05-03T09:39:10.155Z</time></trkpt><trkpt lat="43.5591224" lon="11.723018"><ele>440.66666666666663</ele><time>2026-05-03T09:39:12.155Z</time></trkpt><trkpt lat="43.5591383" lon="11.7231021"><ele>443.3333333333333</ele><time>2026-05-03T09:39:13.155Z</time></trkpt><trkpt lat="43.559139" lon="11.723197"><ele>446.0</ele><time>2026-05-03T09:39:14.155Z</time></trkpt><trkpt lat="43.559126" lon="11.7232872"><ele>445.99999999999994</ele><time>2026-05-03T09:39:15.155Z</time></trkpt><trkpt lat="43.5591974" lon="11.7233863"><ele>446.0</ele><time>2026-05-03T09:39:17.156Z</time></trkpt><trkpt lat="43.5592655" lon="11.7233876"><ele>446.0</ele><time>2026-05-03T09:39:18.155Z</time></trkpt><trkpt lat="43.5593427" lon="11.7234132"><ele>446.0</ele><time>2026-05-03T09:39:19.156Z</time></trkpt><trkpt lat="43.5594112" lon="11.7234474"><ele>445.99999999999994</ele><time>2026-05-03T09:39:20.155Z</time></trkpt><trkpt lat="43.5594953" lon="11.7235066"><ele>446.0</ele><time>2026-05-03T09:39:21.156Z</time></trkpt><trkpt lat="43.5595553" lon="11.7235844"><ele>450.16666666666663</ele><time>2026-05-03T09:39:22.156Z</time></trkpt><trkpt lat="43.5595911" lon="11.7236816"><ele>454.3333333333333</ele><time>2026-05-03T09:39:23.155Z</time></trkpt><trkpt lat="43.5595933" lon="11.7237848"><ele>458.5</ele><time>2026-05-03T09:39:24.156Z</time></trkpt><trkpt lat="43.5595671" lon="11.7238892"><ele>462.66666666666663</ele><time>2026-05-03T09:39:25.154Z</time></trkpt><trkpt lat="43.5595577" lon="11.7239877"><ele>466.8333333333333</ele><time>2026-05-03T09:39:26.155Z</time></trkpt><trkpt lat="43.5595983" lon="11.7240876"><ele>471.0</ele><time>2026-05-03T09:39:28.156Z</time></trkpt><trkpt lat="43.5597614" lon="11.7240377"><ele>471.0</ele><time>2026-05-03T09:39:30.155Z</time></trkpt><trkpt lat="43.5598421" lon="11.7240536"><ele>471.0</ele><time>2026-05-03T09:39:31.156Z</time></trkpt><trkpt lat="43.5599285" lon="11.7240948"><ele>471.0</ele><time>2026-05-03T09:39:32.156Z</time></trkpt><trkpt lat="43.5599851" lon="11.7241525"><ele>471.0</ele><time>2026-05-03T09:39:33.156Z</time></trkpt><trkpt lat="43.5600251" lon="11.7242342"><ele>471.0</ele><time>2026-05-03T09:39:34.155Z</time></trkpt><trkpt lat="43.5600413" lon="11.7243333"><ele>471.0</ele><time>2026-05-03T09:39:35.155Z</time></trkpt><trkpt lat="43.5600665" lon="11.7244271"><ele>473.5</ele><time>2026-05-03T09:39:36.156Z</time></trkpt><trkpt lat="43.5601211" lon="11.7244999"><ele>476.0</ele><time>2026-05-03T09:39:37.155Z</time></trkpt><trkpt lat="43.5601917" lon="11.7245381"><ele>478.5</ele><time>2026-05-03T09:39:38.156Z</time></trkpt><trkpt lat="43.5602719" lon="11.7245716"><ele>481.0</ele><time>2026-05-03T09:39:39.156Z</time></trkpt><trkpt lat="43.5603439" lon="11.7246338"><ele>483.5</ele><time>2026-05-03T09:39:40.156Z</time></trkpt><trkpt lat="43.5604119" lon="11.7247191"><ele>486.0</ele><time>2026-05-03T09:39:41.156Z</time></trkpt><trkpt lat="43.5604737" lon="11.724813"><ele>487.6666666666667</ele><time>2026-05-03T09:39:42.156Z</time></trkpt><trkpt lat="43.5605382" lon="11.7248985"><ele>489.33333333333337</ele><time>2026-05-03T09:39:43.156Z</time></trkpt><trkpt lat="43.5605777" lon="11.7249704"><ele>491.0</ele><time>2026-05-03T09:39:44.154Z</time></trkpt><trkpt lat="43.5605487" lon="11.7250558"><ele>492.6666666666667</ele><time>2026-05-03T09:39:45.155Z</time></trkpt><trkpt lat="43.5604924" lon="11.7251728"><ele>494.33333333333337</ele><time>2026-05-03T09:39:47.156Z</time></trkpt><trkpt lat="43.5604412" lon="11.725234"><ele>496.0</ele><time>2026-05-03T09:39:48.155Z</time></trkpt><trkpt lat="43.5604488" lon="11.7253315"><ele>499.33333333333337</ele><time>2026-05-03T09:39:50.156Z</time></trkpt><trkpt lat="43.5605149" lon="11.7253621"><ele>502.6666666666667</ele><time>2026-05-03T09:39:52.155Z</time></trkpt><trkpt lat="43.5605499" lon="11.725457"><ele>506.0</ele><time>2026-05-03T09:39:55.156Z</time></trkpt><trkpt lat="43.5604865" lon="11.7255693"><ele>509.33333333333337</ele><time>2026-05-03T09:39:57.155Z</time></trkpt><trkpt lat="43.5604221" lon="11.7256694"><ele>512.6666666666666</ele><time>2026-05-03T09:39:59.155Z</time></trkpt><trkpt lat="43.5603938" lon="11.7257499"><ele>516.0</ele><time>2026-05-03T09:40:07.156Z</time></trkpt><trkpt lat="43.5604235" lon="11.725648"><ele>516.0</ele><time>2026-05-03T09:40:21.154Z</time></trkpt><trkpt lat="43.5604768" lon="11.7255538"><ele>516.0</ele><time>2026-05-03T09:40:23.156Z</time></trkpt><trkpt lat="43.5605327" lon="11.7254638"><ele>516.0</ele><time>2026-05-03T09:40:26.155Z</time></trkpt><trkpt lat="43.5606095" lon="11.7254052"><ele>516.0</ele><time>2026-05-03T09:40:30.156Z</time></trkpt><trkpt lat="43.5607092" lon="11.7254013"><ele>516.0</ele><time>2026-05-03T09:40:33.155Z</time></trkpt><trkpt lat="43.5607823" lon="11.7254327"><ele>516.0</ele><time>2026-05-03T09:40:35.156Z</time></trkpt><trkpt lat="43.5608036" lon="11.725517"><ele>516.0</ele><time>2026-05-03T09:40:49.155Z</time></trkpt><trkpt lat="43.5607833" lon="11.7256115"><ele>516.0</ele><time>2026-05-03T09:40:51.156Z</time></trkpt><trkpt lat="43.5607978" lon="11.7257069"><ele>516.0</ele><time>2026-05-03T09:41:04.155Z</time></trkpt><trkpt lat="43.5608948" lon="11.7257186"><ele>516.0</ele><time>2026-05-03T09:41:08.155Z</time></trkpt><trkpt lat="43.5609797" lon="11.7257162"><ele>516.0</ele><time>2026-05-03T09:41:10.156Z</time></trkpt><trkpt lat="43.5610538" lon="11.7257603"><ele>516.0</ele><time>2026-05-03T09:41:12.156Z</time></trkpt><trkpt lat="43.5611052" lon="11.7258174"><ele>516.0</ele><time>2026-05-03T09:41:14.154Z</time></trkpt><trkpt lat="43.5611772" lon="11.7258962"><ele>516.0</ele><time>2026-05-03T09:41:16.156Z</time></trkpt><trkpt lat="43.5612833" lon="11.72598"><ele>516.0</ele><time>2026-05-03T09:41:18.156Z</time></trkpt><trkpt lat="43.561378" lon="11.7260718"><ele>516.0</ele><time>2026-05-03T09:41:20.155Z</time></trkpt><trkpt lat="43.5614797" lon="11.7261596"><ele>520.8333333333334</ele><time>2026-05-03T09:41:22.156Z</time></trkpt><trkpt lat="43.5615331" lon="11.7262132"><ele>525.6666666666666</ele><time>2026-05-03T09:41:23.155Z</time></trkpt><trkpt lat="43.5616213" lon="11.7263144"><ele>530.5</ele><time>2026-05-03T09:41:25.156Z</time></trkpt><trkpt lat="43.5616697" lon="11.7263709"><ele>535.3333333333333</ele><time>2026-05-03T09:41:26.156Z</time></trkpt><trkpt lat="43.5617701" lon="11.7264516"><ele>540.1666666666666</ele><time>2026-05-03T09:41:28.156Z</time></trkpt><trkpt lat="43.5618279" lon="11.7264953"><ele>545.0</ele><time>2026-05-03T09:41:29.155Z</time></trkpt><trkpt lat="43.5618845" lon="11.7265414"><ele>545.0</ele><time>2026-05-03T09:41:30.155Z</time></trkpt><trkpt lat="43.5619938" lon="11.7266286"><ele>545.0</ele><time>2026-05-03T09:41:32.156Z</time></trkpt><trkpt lat="43.5620563" lon="11.726667"><ele>545.0</ele><time>2026-05-03T09:41:33.156Z</time></trkpt><trkpt lat="43.5621141" lon="11.7267094"><ele>545.0</ele><time>2026-05-03T09:41:34.156Z</time></trkpt><trkpt lat="43.5621687" lon="11.7267582"><ele>545.0</ele><time>2026-05-03T09:41:35.156Z</time></trkpt><trkpt lat="43.5622246" lon="11.726821"><ele>545.0</ele><time>2026-05-03T09:41:36.156Z</time></trkpt><trkpt lat="43.5622777" lon="11.7268907"><ele>548.8333333333333</ele><time>2026-05-03T09:41:37.155Z</time></trkpt><trkpt lat="43.5623221" lon="11.7269726"><ele>552.6666666666666</ele><time>2026-05-03T09:41:38.156Z</time></trkpt><trkpt lat="43.5623618" lon="11.7270469"><ele>556.5</ele><time>2026-05-03T09:41:39.156Z</time></trkpt><trkpt lat="43.5624488" lon="11.7271665"><ele>560.3333333333334</ele><time>2026-05-03T09:41:41.155Z</time></trkpt><trkpt lat="43.5624998" lon="11.7272189"><ele>564.1666666666667</ele><time>2026-05-03T09:41:42.156Z</time></trkpt><trkpt lat="43.5625499" lon="11.7272834"><ele>568.0</ele><time>2026-05-03T09:41:43.155Z</time></trkpt><trkpt lat="43.5625964" lon="11.7273491"><ele>568.0</ele><time>2026-05-03T09:41:44.156Z</time></trkpt><trkpt lat="43.5626626" lon="11.7274437"><ele>568.0</ele><time>2026-05-03T09:41:46.155Z</time></trkpt><trkpt lat="43.5627523" lon="11.7275496"><ele>568.0</ele><time>2026-05-03T09:41:48.155Z</time></trkpt><trkpt lat="43.5628325" lon="11.727665"><ele>568.0</ele><time>2026-05-03T09:41:50.156Z</time></trkpt><trkpt lat="43.5628997" lon="11.7278159"><ele>570.1428571428571</ele><time>2026-05-03T09:41:52.156Z</time></trkpt><trkpt lat="43.5629431" lon="11.7278963"><ele>572.2857142857142</ele><time>2026-05-03T09:41:53.155Z</time></trkpt><trkpt lat="43.5629854" lon="11.7279708"><ele>574.4285714285714</ele><time>2026-05-03T09:41:54.154Z</time></trkpt><trkpt lat="43.5630204" lon="11.7280501"><ele>576.5714285714286</ele><time>2026-05-03T09:41:55.156Z</time></trkpt><trkpt lat="43.5630528" lon="11.7281406"><ele>578.7142857142858</ele><time>2026-05-03T09:41:56.156Z</time></trkpt><trkpt lat="43.5630889" lon="11.7282176"><ele>580.8571428571429</ele><time>2026-05-03T09:41:57.155Z</time></trkpt><trkpt lat="43.5631296" lon="11.7282926"><ele>583.0</ele><time>2026-05-03T09:41:58.156Z</time></trkpt><trkpt lat="43.5631691" lon="11.7283657"><ele>583.0</ele><time>2026-05-03T09:41:59.156Z</time></trkpt><trkpt lat="43.5632112" lon="11.728442"><ele>583.0</ele><time>2026-05-03T09:42:00.154Z</time></trkpt><trkpt lat="43.5632706" lon="11.728514"><ele>583.0</ele><time>2026-05-03T09:42:01.156Z</time></trkpt><trkpt lat="43.5633153" lon="11.728588"><ele>583.0</ele><time>2026-05-03T09:42:02.156Z</time></trkpt><trkpt lat="43.5633835" lon="11.7286938"><ele>583.0</ele><time>2026-05-03T09:42:04.155Z</time></trkpt><trkpt lat="43.5634351" lon="11.728788"><ele>583.0</ele><time>2026-05-03T09:42:06.155Z</time></trkpt><trkpt lat="43.5635031" lon="11.7288937"><ele>585.6666666666667</ele><time>2026-05-03T09:42:08.156Z</time></trkpt><trkpt lat="43.5635749" lon="11.7290207"><ele>588.3333333333334</ele><time>2026-05-03T09:42:10.156Z</time></trkpt><trkpt lat="43.563612" lon="11.7290939"><ele>591.0</ele><time>2026-05-03T09:42:11.156Z</time></trkpt><trkpt lat="43.563652" lon="11.7291671"><ele>593.6666666666666</ele><time>2026-05-03T09:42:12.156Z</time></trkpt><trkpt lat="43.5637045" lon="11.7292587"><ele>596.3333333333333</ele><time>2026-05-03T09:42:14.155Z</time></trkpt><trkpt lat="43.5637225" lon="11.7293474"><ele>599.0</ele><time>2026-05-03T09:42:28.155Z</time></trkpt><trkpt lat="43.5637483" lon="11.729465"><ele>602.4</ele><time>2026-05-03T09:42:30.156Z</time></trkpt><trkpt lat="43.5637919" lon="11.7295924"><ele>605.8</ele><time>2026-05-03T09:42:32.156Z</time></trkpt><trkpt lat="43.5638628" lon="11.7296672"><ele>609.2</ele><time>2026-05-03T09:42:34.156Z</time></trkpt><trkpt lat="43.5639516" lon="11.7297807"><ele>612.6</ele><time>2026-05-03T09:42:36.155Z</time></trkpt><trkpt lat="43.564017" lon="11.7298874"><ele>616.0</ele><time>2026-05-03T09:42:38.155Z</time></trkpt><trkpt lat="43.5641206" lon="11.7299588"><ele>616.0</ele><time>2026-05-03T09:42:40.155Z</time></trkpt><trkpt lat="43.5642284" lon="11.7299762"><ele>616.0</ele><time>2026-05-03T09:42:42.155Z</time></trkpt><trkpt lat="43.5642832" lon="11.7300423"><ele>616.0</ele><time>2026-05-03T09:42:44.155Z</time></trkpt><trkpt lat="43.5643533" lon="11.7301505"><ele>616.0</ele><time>2026-05-03T09:42:46.155Z</time></trkpt><trkpt lat="43.5644074" lon="11.7302107"><ele>616.0</ele><time>2026-05-03T09:42:47.154Z</time></trkpt><trkpt lat="43.5645291" lon="11.7302579"><ele>618.1428571428571</ele><time>2026-05-03T09:42:49.155Z</time></trkpt><trkpt lat="43.5645971" lon="11.730277"><ele>620.2857142857142</ele><time>2026-05-03T09:42:50.155Z</time></trkpt><trkpt lat="43.5646626" lon="11.7303024"><ele>622.4285714285714</ele><time>2026-05-03T09:42:51.155Z</time></trkpt><trkpt lat="43.5647374" lon="11.7303368"><ele>624.5714285714286</ele><time>2026-05-03T09:42:52.156Z</time></trkpt><trkpt lat="43.5647985" lon="11.7303727"><ele>626.7142857142857</ele><time>2026-05-03T09:42:53.156Z</time></trkpt><trkpt lat="43.5648674" lon="11.7303995"><ele>628.8571428571429</ele><time>2026-05-03T09:42:54.155Z</time></trkpt><trkpt lat="43.5649348" lon="11.7304198"><ele>631.0</ele><time>2026-05-03T09:42:55.155Z</time></trkpt><trkpt lat="43.5650269" lon="11.7304465"><ele>631.0</ele><time>2026-05-03T09:42:57.154Z</time></trkpt><trkpt lat="43.565096" lon="11.7304802"><ele>631.0</ele><time>2026-05-03T09:42:59.156Z</time></trkpt><trkpt lat="43.5651756" lon="11.7305724"><ele>631.0</ele><time>2026-05-03T09:43:01.156Z</time></trkpt><trkpt lat="43.5652255" lon="11.7306348"><ele>631.0</ele><time>2026-05-03T09:43:02.156Z</time></trkpt><trkpt lat="43.5652831" lon="11.7307019"><ele>631.0</ele><time>2026-05-03T09:43:03.155Z</time></trkpt><trkpt lat="43.5653452" lon="11.7307675"><ele>631.0</ele><time>2026-05-03T09:43:04.156Z</time></trkpt><trkpt lat="43.5654063" lon="11.7308339"><ele>631.8333333333334</ele><time>2026-05-03T09:43:05.155Z</time></trkpt><trkpt lat="43.565471" lon="11.7309005"><ele>632.6666666666667</ele><time>2026-05-03T09:43:06.155Z</time></trkpt><trkpt lat="43.5655355" lon="11.7309687"><ele>633.5</ele><time>2026-05-03T09:43:07.156Z</time></trkpt><trkpt lat="43.5655877" lon="11.7310208"><ele>634.3333333333334</ele><time>2026-05-03T09:43:08.156Z</time></trkpt><trkpt lat="43.5656755" lon="11.7310576"><ele>635.1666666666666</ele><time>2026-05-03T09:43:10.155Z</time></trkpt><trkpt lat="43.5657587" lon="11.7310141"><ele>636.0</ele><time>2026-05-03T09:43:12.155Z</time></trkpt><trkpt lat="43.5658502" lon="11.7309768"><ele>636.0</ele><time>2026-05-03T09:43:14.155Z</time></trkpt><trkpt lat="43.5659035" lon="11.7309189"><ele>636.0</ele><time>2026-05-03T09:43:17.155Z</time></trkpt><trkpt lat="43.5658895" lon="11.7310307"><ele>636.0</ele><time>2026-05-03T09:43:31.155Z</time></trkpt><trkpt lat="43.5658723" lon="11.7311228"><ele>636.0</ele><time>2026-05-03T09:43:33.156Z</time></trkpt><trkpt lat="43.565891" lon="11.7312086"><ele>636.0</ele><time>2026-05-03T09:43:37.156Z</time></trkpt><trkpt lat="43.565939" lon="11.7312763"><ele>636.0</ele><time>2026-05-03T09:43:45.153Z</time></trkpt><trkpt lat="43.5659902" lon="11.7313623"><ele>636.0</ele><time>2026-05-03T09:43:49.154Z</time></trkpt><trkpt lat="43.5660792" lon="11.731427"><ele>636.0</ele><time>2026-05-03T09:43:51.154Z</time></trkpt><trkpt lat="43.5661793" lon="11.7314989"><ele>636.0</ele><time>2026-05-03T09:43:53.155Z</time></trkpt><trkpt lat="43.5662456" lon="11.7315383"><ele>636.0</ele><time>2026-05-03T09:43:54.154Z</time></trkpt><trkpt lat="43.5663106" lon="11.7315683"><ele>636.0</ele><time>2026-05-03T09:43:55.154Z</time></trkpt><trkpt lat="43.5663876" lon="11.7315869"><ele>636.0</ele><time>2026-05-03T09:43:56.154Z</time></trkpt><trkpt lat="43.5664581" lon="11.73161"><ele>636.0</ele><time>2026-05-03T09:43:57.154Z</time></trkpt><trkpt lat="43.5665308" lon="11.7316417"><ele>637.3333333333334</ele><time>2026-05-03T09:43:58.154Z</time></trkpt><trkpt lat="43.5666062" lon="11.7316961"><ele>638.6666666666666</ele><time>2026-05-03T09:43:59.155Z</time></trkpt><trkpt lat="43.5666868" lon="11.7317431"><ele>640.0</ele><time>2026-05-03T09:44:00.154Z</time></trkpt><trkpt lat="43.5667745" lon="11.7317713"><ele>641.3333333333333</ele><time>2026-05-03T09:44:01.154Z</time></trkpt><trkpt lat="43.5668541" lon="11.7317882"><ele>642.6666666666666</ele><time>2026-05-03T09:44:02.155Z</time></trkpt><trkpt lat="43.5669379" lon="11.731808"><ele>644.0</ele><time>2026-05-03T09:44:03.154Z</time></trkpt><trkpt lat="43.5670205" lon="11.7318331"><ele>644.5</ele><time>2026-05-03T09:44:04.155Z</time></trkpt><trkpt lat="43.5671039" lon="11.7318724"><ele>645.0</ele><time>2026-05-03T09:44:05.155Z</time></trkpt><trkpt lat="43.5671803" lon="11.7318911"><ele>645.5</ele><time>2026-05-03T09:44:06.155Z</time></trkpt><trkpt lat="43.5672537" lon="11.7318891"><ele>646.0</ele><time>2026-05-03T09:44:07.155Z</time></trkpt><trkpt lat="43.5673327" lon="11.7318666"><ele>646.5</ele><time>2026-05-03T09:44:08.155Z</time></trkpt><trkpt lat="43.5674135" lon="11.7318151"><ele>647.0</ele><time>2026-05-03T09:44:09.154Z</time></trkpt><trkpt lat="43.5674846" lon="11.7317511"><ele>647.0</ele><time>2026-05-03T09:44:10.154Z</time></trkpt><trkpt lat="43.5675631" lon="11.731694"><ele>647.0</ele><time>2026-05-03T09:44:11.154Z</time></trkpt><trkpt lat="43.5676445" lon="11.7316347"><ele>647.0</ele><time>2026-05-03T09:44:12.154Z</time></trkpt><trkpt lat="43.5677249" lon="11.7315671"><ele>647.0</ele><time>2026-05-03T09:44:13.155Z</time></trkpt><trkpt lat="43.5677938" lon="11.7314851"><ele>647.0</ele><time>2026-05-03T09:44:14.155Z</time></trkpt><trkpt lat="43.5678577" lon="11.7313904"><ele>647.6</ele><time>2026-05-03T09:44:15.155Z</time></trkpt><trkpt lat="43.5679057" lon="11.7312813"><ele>648.2</ele><time>2026-05-03T09:44:16.154Z</time></trkpt><trkpt lat="43.5679439" lon="11.7311614"><ele>648.8</ele><time>2026-05-03T09:44:17.154Z</time></trkpt><trkpt lat="43.5679915" lon="11.7310476"><ele>649.4</ele><time>2026-05-03T09:44:18.154Z</time></trkpt><trkpt lat="43.5680557" lon="11.7309457"><ele>650.0</ele><time>2026-05-03T09:44:19.155Z</time></trkpt><trkpt lat="43.5681261" lon="11.7308546"><ele>650.0</ele><time>2026-05-03T09:44:20.155Z</time></trkpt><trkpt lat="43.5681899" lon="11.7307603"><ele>650.0</ele><time>2026-05-03T09:44:21.154Z</time></trkpt><trkpt lat="43.5682374" lon="11.7306534"><ele>650.0</ele><time>2026-05-03T09:44:22.153Z</time></trkpt><trkpt lat="43.5682691" lon="11.73053"><ele>650.0</ele><time>2026-05-03T09:44:23.155Z</time></trkpt><trkpt lat="43.5682825" lon="11.7304065"><ele>650.0</ele><time>2026-05-03T09:44:24.155Z</time></trkpt><trkpt lat="43.5682921" lon="11.7302794"><ele>650.6666666666666</ele><time>2026-05-03T09:44:25.154Z</time></trkpt><trkpt lat="43.5683078" lon="11.7301609"><ele>651.3333333333333</ele><time>2026-05-03T09:44:26.155Z</time></trkpt><trkpt lat="43.5683334" lon="11.7300592"><ele>652.0</ele><time>2026-05-03T09:44:27.154Z</time></trkpt><trkpt lat="43.5683711" lon="11.729963"><ele>652.6666666666666</ele><time>2026-05-03T09:44:28.153Z</time></trkpt><trkpt lat="43.5684249" lon="11.729891"><ele>653.3333333333334</ele><time>2026-05-03T09:44:29.154Z</time></trkpt><trkpt lat="43.5684835" lon="11.7298498"><ele>654.0</ele><time>2026-05-03T09:44:30.154Z</time></trkpt><trkpt lat="43.568549" lon="11.7298332"><ele>654.0</ele><time>2026-05-03T09:44:31.155Z</time></trkpt><trkpt lat="43.5686721" lon="11.729878"><ele>654.0</ele><time>2026-05-03T09:44:33.154Z</time></trkpt><trkpt lat="43.5687384" lon="11.7299232"><ele>654.0</ele><time>2026-05-03T09:44:34.154Z</time></trkpt><trkpt lat="43.5688132" lon="11.729958"><ele>654.0</ele><time>2026-05-03T09:44:35.154Z</time></trkpt><trkpt lat="43.5688932" lon="11.729983"><ele>654.0</ele><time>2026-05-03T09:44:36.155Z</time></trkpt><trkpt lat="43.5689762" lon="11.7300079"><ele>654.0</ele><time>2026-05-03T09:44:37.155Z</time></trkpt><trkpt lat="43.5690593" lon="11.7300421"><ele>655.6</ele><time>2026-05-03T09:44:38.155Z</time></trkpt><trkpt lat="43.5691359" lon="11.7300818"><ele>657.2</ele><time>2026-05-03T09:44:39.155Z</time></trkpt><trkpt lat="43.5692351" lon="11.7301156"><ele>658.8000000000001</ele><time>2026-05-03T09:44:41.154Z</time></trkpt><trkpt lat="43.569279" lon="11.730029"><ele>660.4000000000001</ele><time>2026-05-03T09:44:44.155Z</time></trkpt><trkpt lat="43.5692488" lon="11.7298648"><ele>662.0</ele><time>2026-05-03T09:44:46.155Z</time></trkpt><trkpt lat="43.5692304" lon="11.7297757"><ele>662.0</ele><time>2026-05-03T09:44:47.155Z</time></trkpt><trkpt lat="43.5692139" lon="11.7296773"><ele>662.0</ele><time>2026-05-03T09:44:48.154Z</time></trkpt><trkpt lat="43.5691933" lon="11.729568"><ele>662.0</ele><time>2026-05-03T09:44:49.155Z</time></trkpt><trkpt lat="43.5691667" lon="11.7294533"><ele>662.0</ele><time>2026-05-03T09:44:50.155Z</time></trkpt><trkpt lat="43.5691401" lon="11.72933"><ele>662.0</ele><time>2026-05-03T09:44:51.154Z</time></trkpt><trkpt lat="43.569113" lon="11.7292012"><ele>662.0</ele><time>2026-05-03T09:44:52.155Z</time></trkpt><trkpt lat="43.5690845" lon="11.7290677"><ele>663.8</ele><time>2026-05-03T09:44:53.155Z</time></trkpt><trkpt lat="43.5690615" lon="11.7289346"><ele>665.6</ele><time>2026-05-03T09:44:54.154Z</time></trkpt><trkpt lat="43.5690411" lon="11.7287933"><ele>667.4</ele><time>2026-05-03T09:44:55.154Z</time></trkpt><trkpt lat="43.5690309" lon="11.7286482"><ele>669.1999999999999</ele><time>2026-05-03T09:44:56.155Z</time></trkpt><trkpt lat="43.5690335" lon="11.7284991"><ele>671.0</ele><time>2026-05-03T09:44:57.154Z</time></trkpt><trkpt lat="43.5690501" lon="11.7283489"><ele>673.0</ele><time>2026-05-03T09:44:58.155Z</time></trkpt><trkpt lat="43.5690754" lon="11.7281991"><ele>675.0</ele><time>2026-05-03T09:44:59.154Z</time></trkpt><trkpt lat="43.569106" lon="11.7280483"><ele>677.0</ele><time>2026-05-03T09:45:00.155Z</time></trkpt><trkpt lat="43.5691383" lon="11.7278927"><ele>679.0</ele><time>2026-05-03T09:45:01.154Z</time></trkpt><trkpt lat="43.56917" lon="11.7277336"><ele>679.5</ele><time>2026-05-03T09:45:02.153Z</time></trkpt><trkpt lat="43.569201" lon="11.7275723"><ele>680.0</ele><time>2026-05-03T09:45:03.155Z</time></trkpt><trkpt lat="43.569234" lon="11.7274091"><ele>680.5</ele><time>2026-05-03T09:45:04.155Z</time></trkpt><trkpt lat="43.5692662" lon="11.7272447"><ele>681.0</ele><time>2026-05-03T09:45:05.154Z</time></trkpt><trkpt lat="43.5692967" lon="11.7270752"><ele>681.0</ele><time>2026-05-03T09:45:06.155Z</time></trkpt><trkpt lat="43.5693289" lon="11.7269106"><ele>681.0</ele><time>2026-05-03T09:45:07.155Z</time></trkpt><trkpt lat="43.5693698" lon="11.7267756"><ele>681.0</ele><time>2026-05-03T09:45:08.155Z</time></trkpt><trkpt lat="43.5694236" lon="11.7266619"><ele>681.0</ele><time>2026-05-03T09:45:09.155Z</time></trkpt><trkpt lat="43.5694936" lon="11.7265632"><ele>681.0</ele><time>2026-05-03T09:45:10.154Z</time></trkpt><trkpt lat="43.5695849" lon="11.7265055"><ele>683.0</ele><time>2026-05-03T09:45:11.154Z</time></trkpt><trkpt lat="43.569693" lon="11.7264771"><ele>685.0</ele><time>2026-05-03T09:45:12.155Z</time></trkpt><trkpt lat="43.5698074" lon="11.7264621"><ele>687.0</ele><time>2026-05-03T09:45:13.153Z</time></trkpt><trkpt lat="43.5699309" lon="11.7264481"><ele>689.0</ele><time>2026-05-03T09:45:14.155Z</time></trkpt><trkpt lat="43.5700634" lon="11.7264265"><ele>689.0</ele><time>2026-05-03T09:45:15.155Z</time></trkpt><trkpt lat="43.5701882" lon="11.7263983"><ele>689.0</ele><time>2026-05-03T09:45:16.155Z</time></trkpt><trkpt lat="43.5702987" lon="11.7263553"><ele>689.0</ele><time>2026-05-03T09:45:17.154Z</time></trkpt><trkpt lat="43.5703823" lon="11.7262815"><ele>689.0</ele><time>2026-05-03T09:45:18.155Z</time></trkpt><trkpt lat="43.5704512" lon="11.7261806"><ele>689.0</ele><time>2026-05-03T09:45:19.154Z</time></trkpt><trkpt lat="43.5704921" lon="11.7260524"><ele>689.0</ele><time>2026-05-03T09:45:20.155Z</time></trkpt><trkpt lat="43.5705032" lon="11.7259115"><ele>689.0</ele><time>2026-05-03T09:45:21.155Z</time></trkpt><trkpt lat="43.5704821" lon="11.7257653"><ele>689.0</ele><time>2026-05-03T09:45:22.155Z</time></trkpt><trkpt lat="43.5704391" lon="11.7256271"><ele>689.0</ele><time>2026-05-03T09:45:23.154Z</time></trkpt><trkpt lat="43.5703809" lon="11.7254921"><ele>689.0</ele><time>2026-05-03T09:45:24.154Z</time></trkpt><trkpt lat="43.5703161" lon="11.7253513"><ele>690.5</ele><time>2026-05-03T09:45:25.155Z</time></trkpt><trkpt lat="43.5702479" lon="11.7252124"><ele>692.0</ele><time>2026-05-03T09:45:26.155Z</time></trkpt><trkpt lat="43.5701834" lon="11.7250717"><ele>693.5</ele><time>2026-05-03T09:45:27.154Z</time></trkpt><trkpt lat="43.5701202" lon="11.7249332"><ele>695.0</ele><time>2026-05-03T09:45:28.154Z</time></trkpt><trkpt lat="43.5700508" lon="11.7247932"><ele>695.0</ele><time>2026-05-03T09:45:29.154Z</time></trkpt><trkpt lat="43.5699775" lon="11.7246574"><ele>695.0</ele><time>2026-05-03T09:45:30.154Z</time></trkpt><trkpt lat="43.5699045" lon="11.7245229"><ele>695.0</ele><time>2026-05-03T09:45:31.154Z</time></trkpt><trkpt lat="43.5698332" lon="11.7243886"><ele>695.0</ele><time>2026-05-03T09:45:32.155Z</time></trkpt><trkpt lat="43.5697778" lon="11.7242431"><ele>697.0</ele><time>2026-05-03T09:45:33.154Z</time></trkpt><trkpt lat="43.5697351" lon="11.7240852"><ele>699.0</ele><time>2026-05-03T09:45:34.155Z</time></trkpt><trkpt lat="43.5697025" lon="11.7239205"><ele>701.0</ele><time>2026-05-03T09:45:35.155Z</time></trkpt><trkpt lat="43.5696821" lon="11.7237488"><ele>703.0</ele><time>2026-05-03T09:45:36.155Z</time></trkpt><trkpt lat="43.5696746" lon="11.7235713"><ele>705.5</ele><time>2026-05-03T09:45:37.154Z</time></trkpt><trkpt lat="43.5696782" lon="11.7233934"><ele>708.0</ele><time>2026-05-03T09:45:38.154Z</time></trkpt><trkpt lat="43.5696841" lon="11.7232156"><ele>710.5</ele><time>2026-05-03T09:45:39.155Z</time></trkpt><trkpt lat="43.5696634" lon="11.7230449"><ele>713.0</ele><time>2026-05-03T09:45:40.154Z</time></trkpt><trkpt lat="43.5696212" lon="11.722872"><ele>710.25</ele><time>2026-05-03T09:45:41.155Z</time></trkpt><trkpt lat="43.5695566" lon="11.7227204"><ele>707.5</ele><time>2026-05-03T09:45:42.154Z</time></trkpt><trkpt lat="43.5695012" lon="11.7225563"><ele>704.75</ele><time>2026-05-03T09:45:43.155Z</time></trkpt><trkpt lat="43.5694539" lon="11.7223863"><ele>702.0</ele><time>2026-05-03T09:45:44.155Z</time></trkpt><trkpt lat="43.5694171" lon="11.7222149"><ele>702.0</ele><time>2026-05-03T09:45:45.155Z</time></trkpt><trkpt lat="43.569383" lon="11.7220383"><ele>702.0</ele><time>2026-05-03T09:45:46.155Z</time></trkpt><trkpt lat="43.5693539" lon="11.7218542"><ele>702.0</ele><time>2026-05-03T09:45:47.155Z</time></trkpt><trkpt lat="43.5693281" lon="11.7216718"><ele>702.0</ele><time>2026-05-03T09:45:48.154Z</time></trkpt><trkpt lat="43.5692868" lon="11.7215052"><ele>704.0</ele><time>2026-05-03T09:45:49.154Z</time></trkpt><trkpt lat="43.569255" lon="11.721336"><ele>706.0</ele><time>2026-05-03T09:45:50.155Z</time></trkpt><trkpt lat="43.5692308" lon="11.7211768"><ele>708.0</ele><time>2026-05-03T09:45:51.155Z</time></trkpt><trkpt lat="43.5692235" lon="11.7210277"><ele>710.0</ele><time>2026-05-03T09:45:52.155Z</time></trkpt><trkpt lat="43.5692487" lon="11.720885"><ele>710.8</ele><time>2026-05-03T09:45:53.154Z</time></trkpt><trkpt lat="43.5692915" lon="11.7207518"><ele>711.6</ele><time>2026-05-03T09:45:54.154Z</time></trkpt><trkpt lat="43.5693485" lon="11.720647"><ele>712.4000000000001</ele><time>2026-05-03T09:45:55.154Z</time></trkpt><trkpt lat="43.5694002" lon="11.7205664"><ele>713.2</ele><time>2026-05-03T09:45:56.154Z</time></trkpt><trkpt lat="43.5694534" lon="11.7204865"><ele>714.0</ele><time>2026-05-03T09:45:58.155Z</time></trkpt><trkpt lat="43.5695175" lon="11.720375"><ele>716.8000000000001</ele><time>2026-05-03T09:48:20.155Z</time></trkpt><trkpt lat="43.5695676" lon="11.7202976"><ele>719.6</ele><time>2026-05-03T09:48:22.113Z</time></trkpt><trkpt lat="43.5696274" lon="11.7202195"><ele>722.4</ele><time>2026-05-03T09:48:23.155Z</time></trkpt><trkpt lat="43.5697269" lon="11.7201036"><ele>725.2</ele><time>2026-05-03T09:48:25.155Z</time></trkpt><trkpt lat="43.5697884" lon="11.720033"><ele>728.0</ele><time>2026-05-03T09:48:26.155Z</time></trkpt><trkpt lat="43.5698567" lon="11.7199549"><ele>728.0</ele><time>2026-05-03T09:48:27.155Z</time></trkpt><trkpt lat="43.569911" lon="11.7198884"><ele>728.0</ele><time>2026-05-03T09:48:28.154Z</time></trkpt><trkpt lat="43.5699755" lon="11.7198021"><ele>728.0</ele><time>2026-05-03T09:48:29.154Z</time></trkpt><trkpt lat="43.5700458" lon="11.7197119"><ele>728.0</ele><time>2026-05-03T09:48:30.153Z</time></trkpt><trkpt lat="43.5701208" lon="11.7196155"><ele>728.0</ele><time>2026-05-03T09:48:31.154Z</time></trkpt><trkpt lat="43.570203" lon="11.7195192"><ele>728.0</ele><time>2026-05-03T09:48:32.155Z</time></trkpt><trkpt lat="43.5702869" lon="11.7194251"><ele>728.0</ele><time>2026-05-03T09:48:33.154Z</time></trkpt><trkpt lat="43.5703764" lon="11.7193304"><ele>728.0</ele><time>2026-05-03T09:48:34.155Z</time></trkpt><trkpt lat="43.5704745" lon="11.7192472"><ele>728.0</ele><time>2026-05-03T09:48:35.155Z</time></trkpt><trkpt lat="43.5705782" lon="11.7191771"><ele>730.0</ele><time>2026-05-03T09:48:36.155Z</time></trkpt><trkpt lat="43.570683" lon="11.719135"><ele>732.0</ele><time>2026-05-03T09:48:37.155Z</time></trkpt><trkpt lat="43.5707825" lon="11.7191299"><ele>734.0</ele><time>2026-05-03T09:48:38.154Z</time></trkpt><trkpt lat="43.570888" lon="11.7191587"><ele>736.0</ele><time>2026-05-03T09:48:39.155Z</time></trkpt><trkpt lat="43.5709891" lon="11.7192086"><ele>738.0</ele><time>2026-05-03T09:48:40.155Z</time></trkpt><trkpt lat="43.5710892" lon="11.7192383"><ele>738.0</ele><time>2026-05-03T09:48:41.155Z</time></trkpt><trkpt lat="43.5711894" lon="11.719249"><ele>738.0</ele><time>2026-05-03T09:48:42.154Z</time></trkpt><trkpt lat="43.5712979" lon="11.71925"><ele>738.0</ele><time>2026-05-03T09:48:43.155Z</time></trkpt><trkpt lat="43.571352" lon="11.7191068"><ele>738.0</ele><time>2026-05-03T09:48:44.154Z</time></trkpt><trkpt lat="43.5713676" lon="11.7189725"><ele>738.0</ele><time>2026-05-03T09:48:45.155Z</time></trkpt><trkpt lat="43.5714043" lon="11.7188428"><ele>738.75</ele><time>2026-05-03T09:48:46.155Z</time></trkpt><trkpt lat="43.5714298" lon="11.7186631"><ele>739.5</ele><time>2026-05-03T09:48:47.154Z</time></trkpt><trkpt lat="43.5714842" lon="11.7185352"><ele>740.25</ele><time>2026-05-03T09:48:48.155Z</time></trkpt><trkpt lat="43.5715603" lon="11.7184317"><ele>741.0</ele><time>2026-05-03T09:48:49.155Z</time></trkpt><trkpt lat="43.5716517" lon="11.7183528"><ele>741.0</ele><time>2026-05-03T09:48:50.155Z</time></trkpt><trkpt lat="43.5717558" lon="11.718294"><ele>741.0</ele><time>2026-05-03T09:48:51.155Z</time></trkpt><trkpt lat="43.5718684" lon="11.7182498"><ele>741.0</ele><time>2026-05-03T09:48:52.155Z</time></trkpt><trkpt lat="43.571986" lon="11.7182078"><ele>741.0</ele><time>2026-05-03T09:48:53.155Z</time></trkpt><trkpt lat="43.5721041" lon="11.7181704"><ele>745.25</ele><time>2026-05-03T09:48:54.155Z</time></trkpt><trkpt lat="43.5722259" lon="11.7181296"><ele>749.5</ele><time>2026-05-03T09:48:55.154Z</time></trkpt><trkpt lat="43.5723483" lon="11.7180892"><ele>753.75</ele><time>2026-05-03T09:48:56.153Z</time></trkpt><trkpt lat="43.5724742" lon="11.7180489"><ele>758.0</ele><time>2026-05-03T09:48:57.155Z</time></trkpt><trkpt lat="43.5725991" lon="11.7180112"><ele>758.0</ele><time>2026-05-03T09:48:58.155Z</time></trkpt><trkpt lat="43.5727275" lon="11.7179896"><ele>758.0</ele><time>2026-05-03T09:48:59.155Z</time></trkpt><trkpt lat="43.5728592" lon="11.7179809"><ele>758.0</ele><time>2026-05-03T09:49:00.155Z</time></trkpt><trkpt lat="43.5729899" lon="11.7179748"><ele>758.0</ele><time>2026-05-03T09:49:01.155Z</time></trkpt><trkpt lat="43.57312" lon="11.7179546"><ele>755.5</ele><time>2026-05-03T09:49:02.155Z</time></trkpt><trkpt lat="43.5732409" lon="11.7178969"><ele>753.0</ele><time>2026-05-03T09:49:03.154Z</time></trkpt><trkpt lat="43.5733486" lon="11.717811"><ele>750.5</ele><time>2026-05-03T09:49:04.154Z</time></trkpt><trkpt lat="43.5734554" lon="11.7177275"><ele>748.0</ele><time>2026-05-03T09:49:05.154Z</time></trkpt><trkpt lat="43.57357" lon="11.7176716"><ele>749.25</ele><time>2026-05-03T09:49:06.155Z</time></trkpt><trkpt lat="43.57369" lon="11.7176513"><ele>750.5</ele><time>2026-05-03T09:49:07.155Z</time></trkpt><trkpt lat="43.573808" lon="11.7176668"><ele>751.75</ele><time>2026-05-03T09:49:08.155Z</time></trkpt><trkpt lat="43.5739239" lon="11.717711"><ele>753.0</ele><time>2026-05-03T09:49:09.154Z</time></trkpt><trkpt lat="43.5740381" lon="11.7177706"><ele>759.0</ele><time>2026-05-03T09:49:10.154Z</time></trkpt><trkpt lat="43.5741512" lon="11.7178416"><ele>765.0</ele><time>2026-05-03T09:49:11.155Z</time></trkpt><trkpt lat="43.5742654" lon="11.7179255"><ele>771.0</ele><time>2026-05-03T09:49:12.154Z</time></trkpt><trkpt lat="43.574377" lon="11.7180164"><ele>777.0</ele><time>2026-05-03T09:49:13.154Z</time></trkpt><trkpt lat="43.5744881" lon="11.718105"><ele>773.5</ele><time>2026-05-03T09:49:14.153Z</time></trkpt><trkpt lat="43.574596" lon="11.7181987"><ele>770.0</ele><time>2026-05-03T09:49:15.154Z</time></trkpt><trkpt lat="43.574698" lon="11.718296"><ele>766.5</ele><time>2026-05-03T09:49:16.155Z</time></trkpt><trkpt lat="43.5747865" lon="11.7184047"><ele>763.0</ele><time>2026-05-03T09:49:17.154Z</time></trkpt><trkpt lat="43.5748543" lon="11.7185249"><ele>766.75</ele><time>2026-05-03T09:49:18.155Z</time></trkpt><trkpt lat="43.5749041" lon="11.7186636"><ele>770.5</ele><time>2026-05-03T09:49:19.155Z</time></trkpt><trkpt lat="43.5749348" lon="11.7188171"><ele>774.25</ele><time>2026-05-03T09:49:20.155Z</time></trkpt><trkpt lat="43.5749476" lon="11.7189787"><ele>778.0</ele><time>2026-05-03T09:49:21.154Z</time></trkpt><trkpt lat="43.5749697" lon="11.7191378"><ele>778.0</ele><time>2026-05-03T09:49:22.154Z</time></trkpt><trkpt lat="43.5750448" lon="11.7192727"><ele>778.0</ele><time>2026-05-03T09:49:23.155Z</time></trkpt><trkpt lat="43.5751067" lon="11.7194186"><ele>778.0</ele><time>2026-05-03T09:49:24.155Z</time></trkpt><trkpt lat="43.5752319" lon="11.7194768"><ele>778.0</ele><time>2026-05-03T09:49:25.155Z</time></trkpt><trkpt lat="43.5753329" lon="11.7195593"><ele>779.25</ele><time>2026-05-03T09:49:26.154Z</time></trkpt><trkpt lat="43.5754373" lon="11.719647"><ele>780.5</ele><time>2026-05-03T09:49:27.154Z</time></trkpt><trkpt lat="43.5755479" lon="11.7197329"><ele>781.75</ele><time>2026-05-03T09:49:28.154Z</time></trkpt><trkpt lat="43.5756582" lon="11.7198122"><ele>783.0</ele><time>2026-05-03T09:49:29.155Z</time></trkpt><trkpt lat="43.5757756" lon="11.7198856"><ele>783.0</ele><time>2026-05-03T09:49:30.154Z</time></trkpt><trkpt lat="43.5758981" lon="11.7199474"><ele>783.0</ele><time>2026-05-03T09:49:31.154Z</time></trkpt><trkpt lat="43.5760206" lon="11.7200053"><ele>783.0</ele><time>2026-05-03T09:49:32.153Z</time></trkpt><trkpt lat="43.5761419" lon="11.7200649"><ele>783.0</ele><time>2026-05-03T09:49:33.154Z</time></trkpt><trkpt lat="43.5762643" lon="11.7201295"><ele>783.5</ele><time>2026-05-03T09:49:34.155Z</time></trkpt><trkpt lat="43.5763833" lon="11.7201914"><ele>784.0</ele><time>2026-05-03T09:49:35.154Z</time></trkpt><trkpt lat="43.5765019" lon="11.7202515"><ele>784.5</ele><time>2026-05-03T09:49:36.155Z</time></trkpt><trkpt lat="43.5766238" lon="11.7203052"><ele>785.0</ele><time>2026-05-03T09:49:37.153Z</time></trkpt><trkpt lat="43.5767437" lon="11.72035"><ele>787.75</ele><time>2026-05-03T09:49:38.154Z</time></trkpt><trkpt lat="43.5768677" lon="11.7203751"><ele>790.5</ele><time>2026-05-03T09:49:39.155Z</time></trkpt><trkpt lat="43.5769845" lon="11.7203589"><ele>793.25</ele><time>2026-05-03T09:49:40.154Z</time></trkpt><trkpt lat="43.5770955" lon="11.7203047"><ele>796.0</ele><time>2026-05-03T09:49:41.155Z</time></trkpt><trkpt lat="43.5771932" lon="11.7201956"><ele>796.75</ele><time>2026-05-03T09:49:42.154Z</time></trkpt><trkpt lat="43.5773049" lon="11.7201122"><ele>797.5</ele><time>2026-05-03T09:49:43.154Z</time></trkpt><trkpt lat="43.5774133" lon="11.7200258"><ele>798.25</ele><time>2026-05-03T09:49:44.155Z</time></trkpt><trkpt lat="43.5775316" lon="11.7199388"><ele>799.0</ele><time>2026-05-03T09:49:45.155Z</time></trkpt><trkpt lat="43.5776476" lon="11.7198455"><ele>799.0</ele><time>2026-05-03T09:49:46.154Z</time></trkpt><trkpt lat="43.5777641" lon="11.7197565"><ele>799.0</ele><time>2026-05-03T09:49:47.154Z</time></trkpt><trkpt lat="43.5778832" lon="11.7196721"><ele>799.0</ele><time>2026-05-03T09:49:48.154Z</time></trkpt><trkpt lat="43.5780005" lon="11.7195786"><ele>799.0</ele><time>2026-05-03T09:49:49.155Z</time></trkpt><trkpt lat="43.5781183" lon="11.7194908"><ele>801.2</ele><time>2026-05-03T09:49:50.155Z</time></trkpt><trkpt lat="43.5782252" lon="11.7194188"><ele>803.4000000000001</ele><time>2026-05-03T09:49:51.155Z</time></trkpt><trkpt lat="43.5783246" lon="11.7193452"><ele>805.6</ele><time>2026-05-03T09:49:52.155Z</time></trkpt><trkpt lat="43.5784051" lon="11.7192594"><ele>807.8</ele><time>2026-05-03T09:49:53.155Z</time></trkpt><trkpt lat="43.5784579" lon="11.7191507"><ele>810.0</ele><time>2026-05-03T09:49:54.154Z</time></trkpt><trkpt lat="43.5785138" lon="11.7190482"><ele>810.0</ele><time>2026-05-03T09:49:55.155Z</time></trkpt><trkpt lat="43.5784828" lon="11.7188877"><ele>810.0</ele><time>2026-05-03T09:49:56.155Z</time></trkpt><trkpt lat="43.5784811" lon="11.7187533"><ele>810.0</ele><time>2026-05-03T09:49:57.155Z</time></trkpt><trkpt lat="43.5783861" lon="11.718667"><ele>810.0</ele><time>2026-05-03T09:49:58.155Z</time></trkpt><trkpt lat="43.5782781" lon="11.7185693"><ele>810.6</ele><time>2026-05-03T09:49:59.155Z</time></trkpt><trkpt lat="43.5782074" lon="11.7184723"><ele>811.2</ele><time>2026-05-03T09:50:00.155Z</time></trkpt><trkpt lat="43.5781776" lon="11.7183557"><ele>811.8</ele><time>2026-05-03T09:50:01.154Z</time></trkpt><trkpt lat="43.5781721" lon="11.7182235"><ele>812.4</ele><time>2026-05-03T09:50:02.155Z</time></trkpt><trkpt lat="43.5781879" lon="11.7180804"><ele>813.0</ele><time>2026-05-03T09:50:03.155Z</time></trkpt><trkpt lat="43.5782122" lon="11.717932"><ele>813.0</ele><time>2026-05-03T09:50:04.154Z</time></trkpt><trkpt lat="43.5782382" lon="11.7177743"><ele>813.0</ele><time>2026-05-03T09:50:05.154Z</time></trkpt><trkpt lat="43.5782615" lon="11.7176171"><ele>813.0</ele><time>2026-05-03T09:50:06.155Z</time></trkpt><trkpt lat="43.5782866" lon="11.7174603"><ele>813.0</ele><time>2026-05-03T09:50:07.154Z</time></trkpt><trkpt lat="43.5783206" lon="11.7173118"><ele>813.2</ele><time>2026-05-03T09:50:08.154Z</time></trkpt><trkpt lat="43.5783711" lon="11.7171806"><ele>813.4</ele><time>2026-05-03T09:50:09.154Z</time></trkpt><trkpt lat="43.5784483" lon="11.7170795"><ele>813.6</ele><time>2026-05-03T09:50:10.153Z</time></trkpt><trkpt lat="43.5785402" lon="11.7169945"><ele>813.8000000000001</ele><time>2026-05-03T09:50:11.154Z</time></trkpt><trkpt lat="43.5786379" lon="11.7169069"><ele>814.0</ele><time>2026-05-03T09:50:12.154Z</time></trkpt><trkpt lat="43.5787413" lon="11.716816"><ele>816.5</ele><time>2026-05-03T09:50:13.154Z</time></trkpt><trkpt lat="43.5788473" lon="11.7167266"><ele>819.0</ele><time>2026-05-03T09:50:14.155Z</time></trkpt><trkpt lat="43.5789532" lon="11.7166368"><ele>821.5</ele><time>2026-05-03T09:50:15.155Z</time></trkpt><trkpt lat="43.5790579" lon="11.7165442"><ele>824.0</ele><time>2026-05-03T09:50:16.154Z</time></trkpt><trkpt lat="43.5791656" lon="11.7164565"><ele>824.0</ele><time>2026-05-03T09:50:17.155Z</time></trkpt><trkpt lat="43.5792789" lon="11.7163813"><ele>824.0</ele><time>2026-05-03T09:50:18.154Z</time></trkpt><trkpt lat="43.5793993" lon="11.7163253"><ele>824.0</ele><time>2026-05-03T09:50:19.155Z</time></trkpt><trkpt lat="43.579523" lon="11.7162891"><ele>824.0</ele><time>2026-05-03T09:50:20.155Z</time></trkpt><trkpt lat="43.5796487" lon="11.7162758"><ele>827.5</ele><time>2026-05-03T09:50:21.155Z</time></trkpt><trkpt lat="43.5797766" lon="11.7162836"><ele>831.0</ele><time>2026-05-03T09:50:22.155Z</time></trkpt><trkpt lat="43.5799011" lon="11.7162995"><ele>834.5</ele><time>2026-05-03T09:50:23.154Z</time></trkpt><trkpt lat="43.580026" lon="11.7163332"><ele>838.0</ele><time>2026-05-03T09:50:24.155Z</time></trkpt><trkpt lat="43.5801511" lon="11.7163724"><ele>838.0</ele><time>2026-05-03T09:50:25.154Z</time></trkpt><trkpt lat="43.5802785" lon="11.7164196"><ele>838.0</ele><time>2026-05-03T09:50:26.154Z</time></trkpt><trkpt lat="43.5804049" lon="11.7164694"><ele>838.0</ele><time>2026-05-03T09:50:27.154Z</time></trkpt><trkpt lat="43.5805274" lon="11.7165313"><ele>838.0</ele><time>2026-05-03T09:50:28.155Z</time></trkpt><trkpt lat="43.5806505" lon="11.7166015"><ele>837.0</ele><time>2026-05-03T09:50:29.155Z</time></trkpt><trkpt lat="43.5807713" lon="11.7166683"><ele>836.0</ele><time>2026-05-03T09:50:30.153Z</time></trkpt><trkpt lat="43.5808918" lon="11.7167306"><ele>835.0</ele><time>2026-05-03T09:50:31.153Z</time></trkpt><trkpt lat="43.5810101" lon="11.7167759"><ele>834.0</ele><time>2026-05-03T09:50:32.154Z</time></trkpt><trkpt lat="43.5811203" lon="11.7167946"><ele>837.0</ele><time>2026-05-03T09:50:33.155Z</time></trkpt><trkpt lat="43.5812301" lon="11.7167984"><ele>840.0</ele><time>2026-05-03T09:50:34.154Z</time></trkpt><trkpt lat="43.5813322" lon="11.7167686"><ele>843.0</ele><time>2026-05-03T09:50:35.155Z</time></trkpt><trkpt lat="43.5814371" lon="11.7167358"><ele>846.0</ele><time>2026-05-03T09:50:36.154Z</time></trkpt><trkpt lat="43.5814961" lon="11.7166204"><ele>849.0</ele><time>2026-05-03T09:50:37.155Z</time></trkpt><trkpt lat="43.5815187" lon="11.7164929"><ele>849.0</ele><time>2026-05-03T09:50:38.155Z</time></trkpt><trkpt lat="43.5815271" lon="11.7163644"><ele>849.0</ele><time>2026-05-03T09:50:39.155Z</time></trkpt><trkpt lat="43.5814901" lon="11.7162035"><ele>849.0</ele><time>2026-05-03T09:50:40.154Z</time></trkpt><trkpt lat="43.5814664" lon="11.716059"><ele>849.0</ele><time>2026-05-03T09:50:41.155Z</time></trkpt><trkpt lat="43.5814349" lon="11.715906"><ele>849.0</ele><time>2026-05-03T09:50:42.154Z</time></trkpt><trkpt lat="43.5814008" lon="11.71575"><ele>850.75</ele><time>2026-05-03T09:50:43.154Z</time></trkpt><trkpt lat="43.5813687" lon="11.7155933"><ele>852.5</ele><time>2026-05-03T09:50:44.154Z</time></trkpt><trkpt lat="43.581336" lon="11.7154331"><ele>854.25</ele><time>2026-05-03T09:50:45.154Z</time></trkpt><trkpt lat="43.5813007" lon="11.7152707"><ele>856.0</ele><time>2026-05-03T09:50:46.155Z</time></trkpt><trkpt lat="43.5812673" lon="11.7151013"><ele>859.25</ele><time>2026-05-03T09:50:47.154Z</time></trkpt><trkpt lat="43.5812373" lon="11.7149283"><ele>862.5</ele><time>2026-05-03T09:50:48.155Z</time></trkpt><trkpt lat="43.5812079" lon="11.7147512"><ele>865.75</ele><time>2026-05-03T09:50:49.154Z</time></trkpt><trkpt lat="43.5811768" lon="11.7145729"><ele>869.0</ele><time>2026-05-03T09:50:50.155Z</time></trkpt><trkpt lat="43.5811469" lon="11.7143936"><ele>860.75</ele><time>2026-05-03T09:50:51.154Z</time></trkpt><trkpt lat="43.5811212" lon="11.7142179"><ele>852.5</ele><time>2026-05-03T09:50:52.154Z</time></trkpt><trkpt lat="43.58111" lon="11.7140386"><ele>844.25</ele><time>2026-05-03T09:50:53.154Z</time></trkpt><trkpt lat="43.5811183" lon="11.7138605"><ele>836.0</ele><time>2026-05-03T09:50:54.155Z</time></trkpt><trkpt lat="43.5811282" lon="11.7136833"><ele>837.5</ele><time>2026-05-03T09:50:55.154Z</time></trkpt><trkpt lat="43.5811268" lon="11.713502"><ele>839.0</ele><time>2026-05-03T09:50:56.154Z</time></trkpt><trkpt lat="43.581105" lon="11.7133253"><ele>840.5</ele><time>2026-05-03T09:50:57.155Z</time></trkpt><trkpt lat="43.5810781" lon="11.713152"><ele>842.0</ele><time>2026-05-03T09:50:58.154Z</time></trkpt><trkpt lat="43.5810485" lon="11.7129788"><ele>842.0</ele><time>2026-05-03T09:50:59.154Z</time></trkpt><trkpt lat="43.5810422" lon="11.7128172"><ele>842.0</ele><time>2026-05-03T09:51:00.154Z</time></trkpt><trkpt lat="43.5810612" lon="11.7126627"><ele>842.0</ele><time>2026-05-03T09:51:01.155Z</time></trkpt><trkpt lat="43.5811049" lon="11.7125171"><ele>842.0</ele><time>2026-05-03T09:51:02.155Z</time></trkpt><trkpt lat="43.5811896" lon="11.7124073"><ele>849.5</ele><time>2026-05-03T09:51:03.155Z</time></trkpt><trkpt lat="43.5812777" lon="11.7123132"><ele>857.0</ele><time>2026-05-03T09:51:04.154Z</time></trkpt><trkpt lat="43.5813807" lon="11.712261"><ele>864.5</ele><time>2026-05-03T09:51:05.154Z</time></trkpt><trkpt lat="43.5814974" lon="11.712267"><ele>872.0</ele><time>2026-05-03T09:51:06.155Z</time></trkpt><trkpt lat="43.5816141" lon="11.7122685"><ele>872.0</ele><time>2026-05-03T09:51:07.154Z</time></trkpt><trkpt lat="43.5817271" lon="11.712287"><ele>872.0</ele><time>2026-05-03T09:51:08.155Z</time></trkpt><trkpt lat="43.5818445" lon="11.7123213"><ele>872.0</ele><time>2026-05-03T09:51:09.155Z</time></trkpt><trkpt lat="43.5819616" lon="11.7123572"><ele>872.0</ele><time>2026-05-03T09:51:10.154Z</time></trkpt><trkpt lat="43.5820786" lon="11.7123966"><ele>871.0</ele><time>2026-05-03T09:51:11.155Z</time></trkpt><trkpt lat="43.5821969" lon="11.7124567"><ele>870.0</ele><time>2026-05-03T09:51:12.154Z</time></trkpt><trkpt lat="43.582303" lon="11.7125341"><ele>869.0</ele><time>2026-05-03T09:51:13.154Z</time></trkpt><trkpt lat="43.5824132" lon="11.7126172"><ele>868.0</ele><time>2026-05-03T09:51:14.154Z</time></trkpt><trkpt lat="43.5824959" lon="11.7127301"><ele>872.75</ele><time>2026-05-03T09:51:15.155Z</time></trkpt><trkpt lat="43.5825872" lon="11.7128392"><ele>877.5</ele><time>2026-05-03T09:51:16.155Z</time></trkpt><trkpt lat="43.5826707" lon="11.7129522"><ele>882.25</ele><time>2026-05-03T09:51:17.154Z</time></trkpt><trkpt lat="43.5827605" lon="11.713066"><ele>887.0</ele><time>2026-05-03T09:51:18.155Z</time></trkpt><trkpt lat="43.5828562" lon="11.713166"><ele>887.0</ele><time>2026-05-03T09:51:19.154Z</time></trkpt><trkpt lat="43.5829668" lon="11.7132448"><ele>887.0</ele><time>2026-05-03T09:51:20.155Z</time></trkpt><trkpt lat="43.5830849" lon="11.7132766"><ele>887.0</ele><time>2026-05-03T09:51:21.154Z</time></trkpt><trkpt lat="43.583207" lon="11.7132611"><ele>887.0</ele><time>2026-05-03T09:51:22.155Z</time></trkpt><trkpt lat="43.5833281" lon="11.7132238"><ele>887.0</ele><time>2026-05-03T09:51:23.155Z</time></trkpt><trkpt lat="43.5834532" lon="11.7131883"><ele>887.0</ele><time>2026-05-03T09:51:24.154Z</time></trkpt><trkpt lat="43.5835783" lon="11.7131841"><ele>887.0</ele><time>2026-05-03T09:51:25.154Z</time></trkpt><trkpt lat="43.583698" lon="11.7132231"><ele>887.0</ele><time>2026-05-03T09:51:26.155Z</time></trkpt><trkpt lat="43.583813" lon="11.7132867"><ele>887.5</ele><time>2026-05-03T09:51:27.154Z</time></trkpt><trkpt lat="43.5839247" lon="11.7133715"><ele>888.0</ele><time>2026-05-03T09:51:28.155Z</time></trkpt><trkpt lat="43.5840436" lon="11.7134468"><ele>888.5</ele><time>2026-05-03T09:51:29.155Z</time></trkpt><trkpt lat="43.5841637" lon="11.7135021"><ele>889.0</ele><time>2026-05-03T09:51:30.154Z</time></trkpt><trkpt lat="43.5842849" lon="11.7135513"><ele>893.25</ele><time>2026-05-03T09:51:31.154Z</time></trkpt><trkpt lat="43.5844061" lon="11.7135902"><ele>897.5</ele><time>2026-05-03T09:51:32.155Z</time></trkpt><trkpt lat="43.5845297" lon="11.7136232"><ele>901.75</ele><time>2026-05-03T09:51:33.155Z</time></trkpt><trkpt lat="43.5846525" lon="11.7136549"><ele>906.0</ele><time>2026-05-03T09:51:34.154Z</time></trkpt><trkpt lat="43.5847753" lon="11.7136768"><ele>906.0</ele><time>2026-05-03T09:51:35.154Z</time></trkpt><trkpt lat="43.5848993" lon="11.7136807"><ele>906.0</ele><time>2026-05-03T09:51:36.154Z</time></trkpt><trkpt lat="43.5850255" lon="11.7136617"><ele>906.0</ele><time>2026-05-03T09:51:37.154Z</time></trkpt><trkpt lat="43.5851507" lon="11.7136316"><ele>906.0</ele><time>2026-05-03T09:51:38.155Z</time></trkpt><trkpt lat="43.5852738" lon="11.7135919"><ele>904.5</ele><time>2026-05-03T09:51:39.154Z</time></trkpt><trkpt lat="43.5853978" lon="11.7135496"><ele>903.0</ele><time>2026-05-03T09:51:40.155Z</time></trkpt><trkpt lat="43.5855198" lon="11.7135085"><ele>901.5</ele><time>2026-05-03T09:51:41.155Z</time></trkpt><trkpt lat="43.5856405" lon="11.7134672"><ele>900.0</ele><time>2026-05-03T09:51:42.155Z</time></trkpt><trkpt lat="43.5857603" lon="11.7134301"><ele>900.0</ele><time>2026-05-03T09:51:43.155Z</time></trkpt><trkpt lat="43.5858787" lon="11.7133902"><ele>900.0</ele><time>2026-05-03T09:51:44.155Z</time></trkpt><trkpt lat="43.5859973" lon="11.7133498"><ele>900.0</ele><time>2026-05-03T09:51:45.155Z</time></trkpt><trkpt lat="43.5861133" lon="11.7132898"><ele>900.0</ele><time>2026-05-03T09:51:46.155Z</time></trkpt><trkpt lat="43.5862264" lon="11.7132126"><ele>904.0</ele><time>2026-05-03T09:51:47.155Z</time></trkpt><trkpt lat="43.5863333" lon="11.7131269"><ele>908.0</ele><time>2026-05-03T09:51:48.154Z</time></trkpt><trkpt lat="43.5864479" lon="11.7130518"><ele>912.0</ele><time>2026-05-03T09:51:49.153Z</time></trkpt><trkpt lat="43.5865557" lon="11.7129975"><ele>916.0</ele><time>2026-05-03T09:51:50.154Z</time></trkpt><trkpt lat="43.5866607" lon="11.7129638"><ele>916.0</ele><time>2026-05-03T09:51:51.153Z</time></trkpt><trkpt lat="43.5867715" lon="11.7129393"><ele>916.0</ele><time>2026-05-03T09:51:52.154Z</time></trkpt><trkpt lat="43.5868833" lon="11.7129053"><ele>916.0</ele><time>2026-05-03T09:51:53.154Z</time></trkpt><trkpt lat="43.5869597" lon="11.7128096"><ele>916.0</ele><time>2026-05-03T09:51:54.154Z</time></trkpt><trkpt lat="43.5870711" lon="11.7127293"><ele>918.25</ele><time>2026-05-03T09:51:55.153Z</time></trkpt><trkpt lat="43.5871168" lon="11.7125765"><ele>920.5</ele><time>2026-05-03T09:51:56.154Z</time></trkpt><trkpt lat="43.5871746" lon="11.7124281"><ele>922.75</ele><time>2026-05-03T09:51:57.153Z</time></trkpt><trkpt lat="43.587232" lon="11.7122867"><ele>925.0</ele><time>2026-05-03T09:51:58.154Z</time></trkpt><trkpt lat="43.5872912" lon="11.7121473"><ele>925.0</ele><time>2026-05-03T09:51:59.155Z</time></trkpt><trkpt lat="43.5873546" lon="11.7120109"><ele>925.0</ele><time>2026-05-03T09:52:00.155Z</time></trkpt><trkpt lat="43.5874228" lon="11.7118708"><ele>925.0</ele><time>2026-05-03T09:52:01.153Z</time></trkpt><trkpt lat="43.587502" lon="11.7117417"><ele>925.0</ele><time>2026-05-03T09:52:02.155Z</time></trkpt><trkpt lat="43.5875904" lon="11.7116267"><ele>922.5</ele><time>2026-05-03T09:52:03.154Z</time></trkpt><trkpt lat="43.5876848" lon="11.7115257"><ele>920.0</ele><time>2026-05-03T09:52:04.155Z</time></trkpt><trkpt lat="43.5877784" lon="11.7114237"><ele>917.5</ele><time>2026-05-03T09:52:05.155Z</time></trkpt><trkpt lat="43.5878785" lon="11.7113348"><ele>915.0</ele><time>2026-05-03T09:52:06.155Z</time></trkpt><trkpt lat="43.5879841" lon="11.7112564"><ele>916.75</ele><time>2026-05-03T09:52:07.154Z</time></trkpt><trkpt lat="43.5880945" lon="11.7111824"><ele>918.5</ele><time>2026-05-03T09:52:08.154Z</time></trkpt><trkpt lat="43.5882063" lon="11.7111158"><ele>920.25</ele><time>2026-05-03T09:52:09.155Z</time></trkpt><trkpt lat="43.588317" lon="11.7110496"><ele>922.0</ele><time>2026-05-03T09:52:10.154Z</time></trkpt><trkpt lat="43.5884295" lon="11.7109883"><ele>922.0</ele><time>2026-05-03T09:52:11.154Z</time></trkpt><trkpt lat="43.58854" lon="11.7109199"><ele>922.0</ele><time>2026-05-03T09:52:12.155Z</time></trkpt><trkpt lat="43.5886525" lon="11.7108588"><ele>922.0</ele><time>2026-05-03T09:52:13.154Z</time></trkpt><trkpt lat="43.588765" lon="11.7107986"><ele>922.0</ele><time>2026-05-03T09:52:14.155Z</time></trkpt><trkpt lat="43.5888766" lon="11.7107359"><ele>927.75</ele><time>2026-05-03T09:52:15.155Z</time></trkpt><trkpt lat="43.5889894" lon="11.710677"><ele>933.5</ele><time>2026-05-03T09:52:16.155Z</time></trkpt><trkpt lat="43.5891025" lon="11.7106168"><ele>939.25</ele><time>2026-05-03T09:52:17.153Z</time></trkpt><trkpt lat="43.5892117" lon="11.7105377"><ele>945.0</ele><time>2026-05-03T09:52:18.154Z</time></trkpt><trkpt lat="43.5893171" lon="11.7104438"><ele>945.0</ele><time>2026-05-03T09:52:19.154Z</time></trkpt><trkpt lat="43.5894123" lon="11.71033"><ele>945.0</ele><time>2026-05-03T09:52:20.155Z</time></trkpt><trkpt lat="43.5895032" lon="11.7102088"><ele>945.0</ele><time>2026-05-03T09:52:21.155Z</time></trkpt><trkpt lat="43.5895945" lon="11.7100842"><ele>945.0</ele><time>2026-05-03T09:52:22.155Z</time></trkpt><trkpt lat="43.589697" lon="11.7099841"><ele>945.5</ele><time>2026-05-03T09:52:23.155Z</time></trkpt><trkpt lat="43.5898089" lon="11.7099051"><ele>946.0</ele><time>2026-05-03T09:52:24.154Z</time></trkpt><trkpt lat="43.5899273" lon="11.7098495"><ele>946.5</ele><time>2026-05-03T09:52:25.155Z</time></trkpt><trkpt lat="43.5900479" lon="11.7098012"><ele>947.0</ele><time>2026-05-03T09:52:26.154Z</time></trkpt><trkpt lat="43.5901695" lon="11.7097531"><ele>947.0</ele><time>2026-05-03T09:52:27.154Z</time></trkpt><trkpt lat="43.5902888" lon="11.709696"><ele>947.0</ele><time>2026-05-03T09:52:28.154Z</time></trkpt><trkpt lat="43.5903979" lon="11.7096118"><ele>947.0</ele><time>2026-05-03T09:52:29.155Z</time></trkpt><trkpt lat="43.590487" lon="11.7094899"><ele>947.0</ele><time>2026-05-03T09:52:30.154Z</time></trkpt><trkpt lat="43.5905493" lon="11.7093438"><ele>948.8</ele><time>2026-05-03T09:52:31.155Z</time></trkpt><trkpt lat="43.5905964" lon="11.7091849"><ele>950.6</ele><time>2026-05-03T09:52:32.155Z</time></trkpt><trkpt lat="43.5906552" lon="11.7090364"><ele>952.3999999999999</ele><time>2026-05-03T09:52:33.155Z</time></trkpt><trkpt lat="43.590725" lon="11.7089283"><ele>954.1999999999999</ele><time>2026-05-03T09:52:34.153Z</time></trkpt><trkpt lat="43.590813" lon="11.7088943"><ele>956.0</ele><time>2026-05-03T09:52:35.155Z</time></trkpt><trkpt lat="43.5909016" lon="11.7089134"><ele>956.0</ele><time>2026-05-03T09:52:36.153Z</time></trkpt><trkpt lat="43.5909909" lon="11.7089687"><ele>955.9999999999999</ele><time>2026-05-03T09:52:37.155Z</time></trkpt><trkpt lat="43.5910896" lon="11.7090369"><ele>955.9999999999999</ele><time>2026-05-03T09:52:38.154Z</time></trkpt><trkpt lat="43.5911942" lon="11.7090964"><ele>956.0</ele><time>2026-05-03T09:52:39.154Z</time></trkpt><trkpt lat="43.5913027" lon="11.7091606"><ele>956.0</ele><time>2026-05-03T09:52:40.154Z</time></trkpt><trkpt lat="43.591406" lon="11.7092241"><ele>958.0</ele><time>2026-05-03T09:52:41.155Z</time></trkpt><trkpt lat="43.5915212" lon="11.7092778"><ele>960.0</ele><time>2026-05-03T09:52:42.155Z</time></trkpt><trkpt lat="43.5916439" lon="11.7092937"><ele>962.0</ele><time>2026-05-03T09:52:43.154Z</time></trkpt><trkpt lat="43.5917602" lon="11.7093082"><ele>964.0</ele><time>2026-05-03T09:52:44.155Z</time></trkpt><trkpt lat="43.5918818" lon="11.7092117"><ele>965.0</ele><time>2026-05-03T09:52:45.155Z</time></trkpt><trkpt lat="43.5920088" lon="11.7091776"><ele>966.0</ele><time>2026-05-03T09:52:46.155Z</time></trkpt><trkpt lat="43.5921433" lon="11.7091656"><ele>967.0</ele><time>2026-05-03T09:52:47.155Z</time></trkpt><trkpt lat="43.5922712" lon="11.7091747"><ele>968.0</ele><time>2026-05-03T09:52:48.155Z</time></trkpt><trkpt lat="43.5924005" lon="11.7092012"><ele>968.0</ele><time>2026-05-03T09:52:49.155Z</time></trkpt><trkpt lat="43.592529" lon="11.7092369"><ele>968.0</ele><time>2026-05-03T09:52:50.155Z</time></trkpt><trkpt lat="43.5926551" lon="11.7092782"><ele>968.0</ele><time>2026-05-03T09:52:51.155Z</time></trkpt><trkpt lat="43.5927728" lon="11.7092948"><ele>968.0</ele><time>2026-05-03T09:52:52.155Z</time></trkpt><trkpt lat="43.5928848" lon="11.7092612"><ele>974.25</ele><time>2026-05-03T09:52:53.155Z</time></trkpt><trkpt lat="43.5929884" lon="11.709182"><ele>980.5</ele><time>2026-05-03T09:52:54.155Z</time></trkpt><trkpt lat="43.5930907" lon="11.7090823"><ele>986.75</ele><time>2026-05-03T09:52:55.155Z</time></trkpt><trkpt lat="43.593122" lon="11.7088978"><ele>993.0</ele><time>2026-05-03T09:52:56.154Z</time></trkpt><trkpt lat="43.5931981" lon="11.7087557"><ele>993.0</ele><time>2026-05-03T09:52:57.155Z</time></trkpt><trkpt lat="43.5932869" lon="11.7086505"><ele>993.0</ele><time>2026-05-03T09:52:58.155Z</time></trkpt><trkpt lat="43.593386" lon="11.7086042"><ele>993.0</ele><time>2026-05-03T09:52:59.154Z</time></trkpt><trkpt lat="43.5934941" lon="11.7086138"><ele>993.0</ele><time>2026-05-03T09:53:00.155Z</time></trkpt><trkpt lat="43.5935994" lon="11.7086572"><ele>993.0</ele><time>2026-05-03T09:53:01.154Z</time></trkpt><trkpt lat="43.5937089" lon="11.7087178"><ele>997.0</ele><time>2026-05-03T09:53:02.154Z</time></trkpt><trkpt lat="43.5938236" lon="11.7087719"><ele>1001.0</ele><time>2026-05-03T09:53:03.154Z</time></trkpt><trkpt lat="43.5939422" lon="11.7088109"><ele>1005.0</ele><time>2026-05-03T09:53:04.154Z</time></trkpt><trkpt lat="43.594062" lon="11.708833"><ele>1009.0</ele><time>2026-05-03T09:53:05.154Z</time></trkpt><trkpt lat="43.5941918" lon="11.7088251"><ele>1009.0</ele><time>2026-05-03T09:53:06.155Z</time></trkpt><trkpt lat="43.5943189" lon="11.7087654"><ele>1009.0</ele><time>2026-05-03T09:53:07.154Z</time></trkpt><trkpt lat="43.5943823" lon="11.7085693"><ele>1009.0</ele><time>2026-05-03T09:53:08.155Z</time></trkpt><trkpt lat="43.5945056" lon="11.7085229"><ele>1009.0</ele><time>2026-05-03T09:53:09.155Z</time></trkpt><trkpt lat="43.5946259" lon="11.7085175"><ele>1011.75</ele><time>2026-05-03T09:53:10.155Z</time></trkpt><trkpt lat="43.5947504" lon="11.7085471"><ele>1014.5</ele><time>2026-05-03T09:53:11.154Z</time></trkpt><trkpt lat="43.5948732" lon="11.7085823"><ele>1017.25</ele><time>2026-05-03T09:53:12.155Z</time></trkpt><trkpt lat="43.5949969" lon="11.7086161"><ele>1020.0</ele><time>2026-05-03T09:53:13.155Z</time></trkpt><trkpt lat="43.5951092" lon="11.708628"><ele>1020.0</ele><time>2026-05-03T09:53:14.153Z</time></trkpt><trkpt lat="43.5952149" lon="11.7086125"><ele>1020.0</ele><time>2026-05-03T09:53:15.155Z</time></trkpt><trkpt lat="43.5952967" lon="11.7085501"><ele>1020.0</ele><time>2026-05-03T09:53:16.155Z</time></trkpt><trkpt lat="43.5953657" lon="11.7084495"><ele>1020.0</ele><time>2026-05-03T09:53:17.155Z</time></trkpt><trkpt lat="43.5954267" lon="11.7083466"><ele>1020.0</ele><time>2026-05-03T09:53:18.155Z</time></trkpt><trkpt lat="43.5954104" lon="11.7081707"><ele>1021.25</ele><time>2026-05-03T09:53:19.155Z</time></trkpt><trkpt lat="43.5954177" lon="11.7080175"><ele>1022.5</ele><time>2026-05-03T09:53:20.154Z</time></trkpt><trkpt lat="43.5954236" lon="11.7078541"><ele>1023.75</ele><time>2026-05-03T09:53:21.154Z</time></trkpt><trkpt lat="43.5954484" lon="11.7076888"><ele>1025.0</ele><time>2026-05-03T09:53:22.153Z</time></trkpt><trkpt lat="43.5954936" lon="11.7075248"><ele>1022.25</ele><time>2026-05-03T09:53:23.155Z</time></trkpt><trkpt lat="43.5955535" lon="11.7073708"><ele>1019.5</ele><time>2026-05-03T09:53:24.155Z</time></trkpt><trkpt lat="43.5956234" lon="11.7072198"><ele>1016.75</ele><time>2026-05-03T09:53:25.154Z</time></trkpt><trkpt lat="43.595701" lon="11.707074"><ele>1014.0</ele><time>2026-05-03T09:53:26.155Z</time></trkpt><trkpt lat="43.5957823" lon="11.7069338"><ele>1008.5</ele><time>2026-05-03T09:53:27.155Z</time></trkpt><trkpt lat="43.595863" lon="11.7067902"><ele>1003.0</ele><time>2026-05-03T09:53:28.154Z</time></trkpt><trkpt lat="43.5959525" lon="11.7066586"><ele>997.5</ele><time>2026-05-03T09:53:29.154Z</time></trkpt><trkpt lat="43.5960302" lon="11.7065372"><ele>992.0</ele><time>2026-05-03T09:53:30.154Z</time></trkpt><trkpt lat="43.5960814" lon="11.7064105"><ele>992.0</ele><time>2026-05-03T09:53:31.155Z</time></trkpt><trkpt lat="43.5960984" lon="11.7062731"><ele>992.0</ele><time>2026-05-03T09:53:32.154Z</time></trkpt><trkpt lat="43.5960451" lon="11.7061389"><ele>992.0</ele><time>2026-05-03T09:53:33.155Z</time></trkpt><trkpt lat="43.5959994" lon="11.7060042"><ele>992.0</ele><time>2026-05-03T09:53:34.155Z</time></trkpt><trkpt lat="43.5958923" lon="11.7059155"><ele>992.0</ele><time>2026-05-03T09:53:35.155Z</time></trkpt><trkpt lat="43.5958045" lon="11.7058038"><ele>994.5</ele><time>2026-05-03T09:53:36.155Z</time></trkpt><trkpt lat="43.5957351" lon="11.7056819"><ele>997.0</ele><time>2026-05-03T09:53:37.155Z</time></trkpt><trkpt lat="43.5956923" lon="11.7055251"><ele>999.5</ele><time>2026-05-03T09:53:38.155Z</time></trkpt><trkpt lat="43.5956638" lon="11.7053552"><ele>1002.0</ele><time>2026-05-03T09:53:39.154Z</time></trkpt><trkpt lat="43.5956394" lon="11.705179"><ele>1003.4000000000001</ele><time>2026-05-03T09:53:40.155Z</time></trkpt><trkpt lat="43.5956127" lon="11.7050087"><ele>1004.8000000000001</ele><time>2026-05-03T09:53:41.155Z</time></trkpt><trkpt lat="43.5956063" lon="11.7048635"><ele>1006.2</ele><time>2026-05-03T09:53:42.154Z</time></trkpt><trkpt lat="43.5956322" lon="11.7047382"><ele>1007.6</ele><time>2026-05-03T09:53:43.155Z</time></trkpt><trkpt lat="43.5956909" lon="11.704637"><ele>1009.0</ele><time>2026-05-03T09:53:44.155Z</time></trkpt><trkpt lat="43.5957827" lon="11.7045745"><ele>1009.0</ele><time>2026-05-03T09:53:45.155Z</time></trkpt><trkpt lat="43.5958789" lon="11.7045245"><ele>1009.0000000000001</ele><time>2026-05-03T09:53:46.154Z</time></trkpt><trkpt lat="43.595991" lon="11.7044874"><ele>1009.0000000000001</ele><time>2026-05-03T09:53:47.155Z</time></trkpt><trkpt lat="43.5960984" lon="11.7044433"><ele>1009.0</ele><time>2026-05-03T09:53:48.154Z</time></trkpt><trkpt lat="43.5962066" lon="11.7044028"><ele>1009.0</ele><time>2026-05-03T09:53:49.154Z</time></trkpt><trkpt lat="43.5963195" lon="11.7043617"><ele>1009.75</ele><time>2026-05-03T09:53:50.155Z</time></trkpt><trkpt lat="43.5964349" lon="11.7043117"><ele>1010.5</ele><time>2026-05-03T09:53:51.154Z</time></trkpt><trkpt lat="43.596557" lon="11.7042695"><ele>1011.25</ele><time>2026-05-03T09:53:52.155Z</time></trkpt><trkpt lat="43.5966757" lon="11.7042078"><ele>1012.0</ele><time>2026-05-03T09:53:53.155Z</time></trkpt><trkpt lat="43.5967887" lon="11.7041314"><ele>1012.0</ele><time>2026-05-03T09:53:54.154Z</time></trkpt><trkpt lat="43.5968987" lon="11.7040388"><ele>1012.0</ele><time>2026-05-03T09:53:55.155Z</time></trkpt><trkpt lat="43.5970108" lon="11.7039468"><ele>1012.0</ele><time>2026-05-03T09:53:56.155Z</time></trkpt><trkpt lat="43.5971207" lon="11.7038579"><ele>1012.0</ele><time>2026-05-03T09:53:57.155Z</time></trkpt><trkpt lat="43.5972296" lon="11.703766"><ele>1013.25</ele><time>2026-05-03T09:53:58.155Z</time></trkpt><trkpt lat="43.5973373" lon="11.7036709"><ele>1014.5</ele><time>2026-05-03T09:53:59.154Z</time></trkpt><trkpt lat="43.5974386" lon="11.7035677"><ele>1015.75</ele><time>2026-05-03T09:54:00.154Z</time></trkpt><trkpt lat="43.5975195" lon="11.7034409"><ele>1017.0</ele><time>2026-05-03T09:54:01.153Z</time></trkpt><trkpt lat="43.597589" lon="11.7033016"><ele>1017.0</ele><time>2026-05-03T09:54:02.154Z</time></trkpt><trkpt lat="43.5976615" lon="11.7031646"><ele>1017.0</ele><time>2026-05-03T09:54:03.155Z</time></trkpt><trkpt lat="43.5977512" lon="11.7030436"><ele>1017.0</ele><time>2026-05-03T09:54:04.155Z</time></trkpt><trkpt lat="43.5978478" lon="11.7029341"><ele>1017.0</ele><time>2026-05-03T09:54:05.154Z</time></trkpt><trkpt lat="43.5979503" lon="11.7028303"><ele>1020.25</ele><time>2026-05-03T09:54:06.155Z</time></trkpt><trkpt lat="43.5980529" lon="11.7027297"><ele>1023.5</ele><time>2026-05-03T09:54:07.155Z</time></trkpt><trkpt lat="43.5981554" lon="11.7026285"><ele>1026.75</ele><time>2026-05-03T09:54:08.154Z</time></trkpt><trkpt lat="43.5982591" lon="11.7025259"><ele>1030.0</ele><time>2026-05-03T09:54:09.154Z</time></trkpt><trkpt lat="43.5983636" lon="11.7024244"><ele>1030.0</ele><time>2026-05-03T09:54:10.155Z</time></trkpt><trkpt lat="43.5984672" lon="11.7023253"><ele>1030.0</ele><time>2026-05-03T09:54:11.154Z</time></trkpt><trkpt lat="43.5985677" lon="11.702228"><ele>1030.0</ele><time>2026-05-03T09:54:12.154Z</time></trkpt><trkpt lat="43.598674" lon="11.7021398"><ele>1030.0</ele><time>2026-05-03T09:54:13.154Z</time></trkpt><trkpt lat="43.5987741" lon="11.7020615"><ele>1030.8</ele><time>2026-05-03T09:54:14.154Z</time></trkpt><trkpt lat="43.5988704" lon="11.7019997"><ele>1031.6</ele><time>2026-05-03T09:54:15.154Z</time></trkpt><trkpt lat="43.5989801" lon="11.7019631"><ele>1032.4</ele><time>2026-05-03T09:54:16.155Z</time></trkpt><trkpt lat="43.5990815" lon="11.7019124"><ele>1033.2</ele><time>2026-05-03T09:54:17.155Z</time></trkpt><trkpt lat="43.5992008" lon="11.7018763"><ele>1034.0</ele><time>2026-05-03T09:54:18.154Z</time></trkpt><trkpt lat="43.5993286" lon="11.7018793"><ele>1034.0</ele><time>2026-05-03T09:54:19.154Z</time></trkpt><trkpt lat="43.5994444" lon="11.7018728"><ele>1034.0</ele><time>2026-05-03T09:54:20.155Z</time></trkpt><trkpt lat="43.5995923" lon="11.7018984"><ele>1034.0</ele><time>2026-05-03T09:54:21.155Z</time></trkpt><trkpt lat="43.5997146" lon="11.7019128"><ele>1034.0</ele><time>2026-05-03T09:54:22.154Z</time></trkpt><trkpt lat="43.5998322" lon="11.7019171"><ele>1034.0</ele><time>2026-05-03T09:54:23.154Z</time></trkpt><trkpt lat="43.5999542" lon="11.7019273"><ele>1034.0</ele><time>2026-05-03T09:54:24.155Z</time></trkpt><trkpt lat="43.6000826" lon="11.7019408"><ele>1034.0</ele><time>2026-05-03T09:54:25.155Z</time></trkpt><trkpt lat="43.6001904" lon="11.7018185"><ele>1034.0</ele><time>2026-05-03T09:54:26.155Z</time></trkpt><trkpt lat="43.600312" lon="11.7017474"><ele>1039.75</ele><time>2026-05-03T09:54:27.154Z</time></trkpt><trkpt lat="43.6004275" lon="11.7016685"><ele>1045.5</ele><time>2026-05-03T09:54:28.155Z</time></trkpt><trkpt lat="43.6005437" lon="11.701587"><ele>1051.25</ele><time>2026-05-03T09:54:29.153Z</time></trkpt><trkpt lat="43.6006685" lon="11.7015248"><ele>1057.0</ele><time>2026-05-03T09:54:30.154Z</time></trkpt><trkpt lat="43.6007835" lon="11.7014526"><ele>1057.0</ele><time>2026-05-03T09:54:31.154Z</time></trkpt><trkpt lat="43.6008904" lon="11.7013783"><ele>1057.0</ele><time>2026-05-03T09:54:32.154Z</time></trkpt><trkpt lat="43.6009909" lon="11.7012756"><ele>1057.0</ele><time>2026-05-03T09:54:33.155Z</time></trkpt><trkpt lat="43.6010663" lon="11.7011811"><ele>1057.0</ele><time>2026-05-03T09:54:34.155Z</time></trkpt><trkpt lat="43.6009585" lon="11.7009434"><ele>1057.0</ele><time>2026-05-03T09:54:35.154Z</time></trkpt><trkpt lat="43.6009769" lon="11.7008064"><ele>1057.0</ele><time>2026-05-03T09:54:36.155Z</time></trkpt><trkpt lat="43.6010144" lon="11.7006728"><ele>1057.0</ele><time>2026-05-03T09:54:37.155Z</time></trkpt><trkpt lat="43.6010786" lon="11.700559"><ele>1057.0</ele><time>2026-05-03T09:54:38.155Z</time></trkpt><trkpt lat="43.6011698" lon="11.7004682"><ele>1057.0</ele><time>2026-05-03T09:54:39.155Z</time></trkpt><trkpt lat="43.6012732" lon="11.700384"><ele>1057.0</ele><time>2026-05-03T09:54:40.155Z</time></trkpt><trkpt lat="43.6013671" lon="11.7003018"><ele>1057.0</ele><time>2026-05-03T09:54:41.154Z</time></trkpt><trkpt lat="43.6014666" lon="11.7002554"><ele>1057.0</ele><time>2026-05-03T09:54:42.154Z</time></trkpt><trkpt lat="43.601574" lon="11.7002301"><ele>1057.0</ele><time>2026-05-03T09:54:43.155Z</time></trkpt><trkpt lat="43.6016848" lon="11.700209"><ele>1057.0</ele><time>2026-05-03T09:54:44.154Z</time></trkpt><trkpt lat="43.6017989" lon="11.7001845"><ele>1052.5</ele><time>2026-05-03T09:54:45.154Z</time></trkpt><trkpt lat="43.6019203" lon="11.7001645"><ele>1048.0</ele><time>2026-05-03T09:54:46.155Z</time></trkpt><trkpt lat="43.6020469" lon="11.7001475"><ele>1043.5</ele><time>2026-05-03T09:54:47.155Z</time></trkpt><trkpt lat="43.6021552" lon="11.7001525"><ele>1039.0</ele><time>2026-05-03T09:54:48.155Z</time></trkpt><trkpt lat="43.6022661" lon="11.7001872"><ele>1039.0</ele><time>2026-05-03T09:54:49.155Z</time></trkpt><trkpt lat="43.6023755" lon="11.7002455"><ele>1039.0</ele><time>2026-05-03T09:54:50.154Z</time></trkpt><trkpt lat="43.6024926" lon="11.7003063"><ele>1039.0</ele><time>2026-05-03T09:54:51.153Z</time></trkpt><trkpt lat="43.6026022" lon="11.7003548"><ele>1039.0</ele><time>2026-05-03T09:54:52.154Z</time></trkpt><trkpt lat="43.6027094" lon="11.7003816"><ele>1045.6000000000001</ele><time>2026-05-03T09:54:53.154Z</time></trkpt><trkpt lat="43.6028128" lon="11.7003684"><ele>1052.2</ele><time>2026-05-03T09:54:54.155Z</time></trkpt><trkpt lat="43.6028883" lon="11.7002806"><ele>1058.8000000000002</ele><time>2026-05-03T09:54:55.153Z</time></trkpt><trkpt lat="43.6029721" lon="11.7002221"><ele>1065.4</ele><time>2026-05-03T09:54:56.155Z</time></trkpt><trkpt lat="43.6030268" lon="11.7001288"><ele>1072.0</ele><time>2026-05-03T09:54:57.153Z</time></trkpt><trkpt lat="43.6030553" lon="11.6999688"><ele>1072.0</ele><time>2026-05-03T09:54:58.154Z</time></trkpt><trkpt lat="43.6030027" lon="11.6997816"><ele>1072.0</ele><time>2026-05-03T09:54:59.154Z</time></trkpt><trkpt lat="43.6030059" lon="11.699624"><ele>1072.0</ele><time>2026-05-03T09:55:00.154Z</time></trkpt><trkpt lat="43.6030066" lon="11.6994547"><ele>1072.0</ele><time>2026-05-03T09:55:01.155Z</time></trkpt><trkpt lat="43.6030178" lon="11.6992953"><ele>1070.2</ele><time>2026-05-03T09:55:02.155Z</time></trkpt><trkpt lat="43.6030442" lon="11.6991714"><ele>1068.4</ele><time>2026-05-03T09:55:03.154Z</time></trkpt><trkpt lat="43.6031182" lon="11.6990814"><ele>1066.6</ele><time>2026-05-03T09:55:04.154Z</time></trkpt><trkpt lat="43.6032073" lon="11.699023"><ele>1064.8</ele><time>2026-05-03T09:55:05.155Z</time></trkpt><trkpt lat="43.6033072" lon="11.6989924"><ele>1063.0</ele><time>2026-05-03T09:55:06.154Z</time></trkpt><trkpt lat="43.6034133" lon="11.6989686"><ele>1063.0</ele><time>2026-05-03T09:55:07.155Z</time></trkpt><trkpt lat="43.6035247" lon="11.6989298"><ele>1063.0</ele><time>2026-05-03T09:55:08.153Z</time></trkpt><trkpt lat="43.6036365" lon="11.6988668"><ele>1063.0</ele><time>2026-05-03T09:55:09.154Z</time></trkpt><trkpt lat="43.6037123" lon="11.6987432"><ele>1063.0</ele><time>2026-05-03T09:55:10.155Z</time></trkpt><trkpt lat="43.6038025" lon="11.6986341"><ele>1068.0</ele><time>2026-05-03T09:55:11.154Z</time></trkpt><trkpt lat="43.60389" lon="11.6985198"><ele>1073.0</ele><time>2026-05-03T09:55:12.154Z</time></trkpt><trkpt lat="43.6039725" lon="11.6984029"><ele>1078.0</ele><time>2026-05-03T09:55:13.154Z</time></trkpt><trkpt lat="43.6040427" lon="11.698288"><ele>1083.0</ele><time>2026-05-03T09:55:14.154Z</time></trkpt><trkpt lat="43.604083" lon="11.6981636"><ele>1088.0</ele><time>2026-05-03T09:55:15.155Z</time></trkpt><trkpt lat="43.6040105" lon="11.6980006"><ele>1088.0</ele><time>2026-05-03T09:55:16.153Z</time></trkpt><trkpt lat="43.6039727" lon="11.6978541"><ele>1088.0</ele><time>2026-05-03T09:55:17.155Z</time></trkpt><trkpt lat="43.6038699" lon="11.6977586"><ele>1088.0</ele><time>2026-05-03T09:55:18.154Z</time></trkpt><trkpt lat="43.6038088" lon="11.6976212"><ele>1088.0</ele><time>2026-05-03T09:55:19.155Z</time></trkpt><trkpt lat="43.6037617" lon="11.6974709"><ele>1090.5</ele><time>2026-05-03T09:55:20.155Z</time></trkpt><trkpt lat="43.6037291" lon="11.6973147"><ele>1093.0</ele><time>2026-05-03T09:55:21.155Z</time></trkpt><trkpt lat="43.6036969" lon="11.6971559"><ele>1095.5</ele><time>2026-05-03T09:55:22.154Z</time></trkpt><trkpt lat="43.6036835" lon="11.6969904"><ele>1098.0</ele><time>2026-05-03T09:55:23.154Z</time></trkpt><trkpt lat="43.603685" lon="11.6968405"><ele>1100.0</ele><time>2026-05-03T09:55:24.154Z</time></trkpt><trkpt lat="43.603697" lon="11.6967167"><ele>1102.0</ele><time>2026-05-03T09:55:25.153Z</time></trkpt><trkpt lat="43.6037411" lon="11.6966281"><ele>1104.0</ele><time>2026-05-03T09:55:26.153Z</time></trkpt><trkpt lat="43.6038075" lon="11.6965988"><ele>1106.0</ele><time>2026-05-03T09:55:27.155Z</time></trkpt><trkpt lat="43.6038683" lon="11.6966324"><ele>1108.0</ele><time>2026-05-03T09:55:28.155Z</time></trkpt><trkpt lat="43.603908" lon="11.69671"><ele>1110.0</ele><time>2026-05-03T09:55:29.154Z</time></trkpt><trkpt lat="43.6039016" lon="11.6968261"><ele>1107.6</ele><time>2026-05-03T09:55:30.155Z</time></trkpt><trkpt lat="43.6038738" lon="11.6969378"><ele>1105.2</ele><time>2026-05-03T09:55:31.155Z</time></trkpt><trkpt lat="43.6038666" lon="11.6970707"><ele>1102.8</ele><time>2026-05-03T09:55:32.155Z</time></trkpt><trkpt lat="43.6038968" lon="11.6972072"><ele>1100.4</ele><time>2026-05-03T09:55:33.155Z</time></trkpt><trkpt lat="43.6039627" lon="11.6973276"><ele>1098.0</ele><time>2026-05-03T09:55:34.155Z</time></trkpt><trkpt lat="43.6040515" lon="11.6974249"><ele>1098.0</ele><time>2026-05-03T09:55:35.155Z</time></trkpt><trkpt lat="43.604156" lon="11.6975088"><ele>1098.0</ele><time>2026-05-03T09:55:36.155Z</time></trkpt><trkpt lat="43.6042715" lon="11.6975944"><ele>1098.0</ele><time>2026-05-03T09:55:37.155Z</time></trkpt><trkpt lat="43.6043753" lon="11.6976977"><ele>1098.0</ele><time>2026-05-03T09:55:38.155Z</time></trkpt><trkpt lat="43.6044492" lon="11.6978372"><ele>1095.5</ele><time>2026-05-03T09:55:39.154Z</time></trkpt><trkpt lat="43.6044929" lon="11.6980087"><ele>1093.0</ele><time>2026-05-03T09:55:40.155Z</time></trkpt><trkpt lat="43.6044925" lon="11.6981908"><ele>1090.5</ele><time>2026-05-03T09:55:41.155Z</time></trkpt><trkpt lat="43.6044619" lon="11.6983631"><ele>1088.0</ele><time>2026-05-03T09:55:42.154Z</time></trkpt><trkpt lat="43.6044023" lon="11.6985339"><ele>1093.0</ele><time>2026-05-03T09:55:43.155Z</time></trkpt><trkpt lat="43.604329" lon="11.6987004"><ele>1098.0</ele><time>2026-05-03T09:55:44.155Z</time></trkpt><trkpt lat="43.6042522" lon="11.6988602"><ele>1103.0</ele><time>2026-05-03T09:55:45.155Z</time></trkpt><trkpt lat="43.6041874" lon="11.699031"><ele>1108.0</ele><time>2026-05-03T09:55:46.155Z</time></trkpt><trkpt lat="43.6041242" lon="11.699209"><ele>1108.0</ele><time>2026-05-03T09:55:47.154Z</time></trkpt><trkpt lat="43.6040644" lon="11.6993876"><ele>1108.0</ele><time>2026-05-03T09:55:48.155Z</time></trkpt><trkpt lat="43.6040448" lon="11.6995621"><ele>1108.0</ele><time>2026-05-03T09:55:49.153Z</time></trkpt><trkpt lat="43.604062" lon="11.6997331"><ele>1108.0</ele><time>2026-05-03T09:55:50.155Z</time></trkpt><trkpt lat="43.6041109" lon="11.6998847"><ele>1111.0</ele><time>2026-05-03T09:55:51.155Z</time></trkpt><trkpt lat="43.6041906" lon="11.7000116"><ele>1114.0</ele><time>2026-05-03T09:55:52.155Z</time></trkpt><trkpt lat="43.6042667" lon="11.7001395"><ele>1117.0</ele><time>2026-05-03T09:55:53.154Z</time></trkpt><trkpt lat="43.604357" lon="11.7002671"><ele>1120.0</ele><time>2026-05-03T09:55:54.154Z</time></trkpt><trkpt lat="43.6043882" lon="11.7004301"><ele>1120.5</ele><time>2026-05-03T09:55:55.155Z</time></trkpt><trkpt lat="43.6043934" lon="11.7005961"><ele>1121.0</ele><time>2026-05-03T09:55:56.155Z</time></trkpt><trkpt lat="43.6043665" lon="11.7007647"><ele>1121.5</ele><time>2026-05-03T09:55:57.155Z</time></trkpt><trkpt lat="43.6043151" lon="11.7009302"><ele>1122.0</ele><time>2026-05-03T09:55:58.154Z</time></trkpt><trkpt lat="43.6042612" lon="11.701096"><ele>1124.75</ele><time>2026-05-03T09:55:59.154Z</time></trkpt><trkpt lat="43.6042284" lon="11.7012637"><ele>1127.5</ele><time>2026-05-03T09:56:00.155Z</time></trkpt><trkpt lat="43.604212" lon="11.7014543"><ele>1130.25</ele><time>2026-05-03T09:56:01.154Z</time></trkpt><trkpt lat="43.604194" lon="11.7016327"><ele>1133.0</ele><time>2026-05-03T09:56:02.155Z</time></trkpt><trkpt lat="43.6041503" lon="11.7018086"><ele>1136.5</ele><time>2026-05-03T09:56:03.155Z</time></trkpt><trkpt lat="43.6040684" lon="11.7019495"><ele>1140.0</ele><time>2026-05-03T09:56:04.152Z</time></trkpt><trkpt lat="43.603984" lon="11.7020926"><ele>1143.5</ele><time>2026-05-03T09:56:05.154Z</time></trkpt><trkpt lat="43.6038561" lon="11.7021656"><ele>1147.0</ele><time>2026-05-03T09:56:06.154Z</time></trkpt><trkpt lat="43.603741" lon="11.7022696"><ele>1145.5</ele><time>2026-05-03T09:56:07.153Z</time></trkpt><trkpt lat="43.6036359" lon="11.7023855"><ele>1144.0</ele><time>2026-05-03T09:56:08.153Z</time></trkpt><trkpt lat="43.6035463" lon="11.7025093"><ele>1142.5</ele><time>2026-05-03T09:56:09.154Z</time></trkpt><trkpt lat="43.6034649" lon="11.7026426"><ele>1141.0</ele><time>2026-05-03T09:56:10.153Z</time></trkpt><trkpt lat="43.6034033" lon="11.7027715"><ele>1141.0</ele><time>2026-05-03T09:56:11.154Z</time></trkpt><trkpt lat="43.6033574" lon="11.7028939"><ele>1141.0</ele><time>2026-05-03T09:56:12.154Z</time></trkpt><trkpt lat="43.6033327" lon="11.7030083"><ele>1141.0</ele><time>2026-05-03T09:56:13.154Z</time></trkpt><trkpt lat="43.6033347" lon="11.7031141"><ele>1141.0</ele><time>2026-05-03T09:56:14.154Z</time></trkpt><trkpt lat="43.6033677" lon="11.7032034"><ele>1141.0</ele><time>2026-05-03T09:56:15.153Z</time></trkpt><trkpt lat="43.6034146" lon="11.7032625"><ele>1141.0</ele><time>2026-05-03T09:56:16.154Z</time></trkpt><trkpt lat="43.6035106" lon="11.7033031"><ele>1141.0</ele><time>2026-05-03T09:56:18.153Z</time></trkpt><trkpt lat="43.603626" lon="11.7032783"><ele>1141.0</ele><time>2026-05-03T09:56:20.154Z</time></trkpt><trkpt lat="43.6036954" lon="11.703261"><ele>1141.0</ele><time>2026-05-03T09:56:21.153Z</time></trkpt><trkpt lat="43.6037703" lon="11.7032513"><ele>1141.0</ele><time>2026-05-03T09:56:22.154Z</time></trkpt><trkpt lat="43.6038512" lon="11.7032405"><ele>1141.0</ele><time>2026-05-03T09:56:23.153Z</time></trkpt><trkpt lat="43.6039298" lon="11.7032305"><ele>1141.0</ele><time>2026-05-03T09:56:24.153Z</time></trkpt><trkpt lat="43.6040002" lon="11.7032195"><ele>1142.8333333333333</ele><time>2026-05-03T09:56:25.153Z</time></trkpt><trkpt lat="43.604072" lon="11.703209"><ele>1144.6666666666665</ele><time>2026-05-03T09:56:26.154Z</time></trkpt><trkpt lat="43.604137" lon="11.7031986"><ele>1146.5</ele><time>2026-05-03T09:56:27.153Z</time></trkpt><trkpt lat="43.6042045" lon="11.7032018"><ele>1148.3333333333333</ele><time>2026-05-03T09:56:28.153Z</time></trkpt><trkpt lat="43.6043098" lon="11.7031901"><ele>1150.1666666666667</ele><time>2026-05-03T09:56:30.154Z</time></trkpt><trkpt lat="43.6043729" lon="11.7031778"><ele>1152.0</ele><time>2026-05-03T09:56:32.153Z</time></trkpt><trkpt lat="43.6042844" lon="11.703164"><ele>1152.0</ele><time>2026-05-03T09:56:45.153Z</time></trkpt><trkpt lat="43.6041844" lon="11.7031845"><ele>1152.0</ele><time>2026-05-03T09:56:47.154Z</time></trkpt><trkpt lat="43.6040985" lon="11.7031949"><ele>1152.0</ele><time>2026-05-03T09:56:49.154Z</time></trkpt><trkpt lat="43.60404" lon="11.7031526"><ele>1152.0</ele><time>2026-05-03T09:56:51.152Z</time></trkpt><trkpt lat="43.6040362" lon="11.703032"><ele>1152.0</ele><time>2026-05-03T09:56:54.154Z</time></trkpt><trkpt lat="43.6041339" lon="11.702958"><ele>1152.0</ele><time>2026-05-03T09:56:56.153Z</time></trkpt><trkpt lat="43.6042036" lon="11.7029014"><ele>1152.0</ele><time>2026-05-03T09:56:57.152Z</time></trkpt><trkpt lat="43.6042694" lon="11.7028521"><ele>1152.0</ele><time>2026-05-03T09:56:58.154Z</time></trkpt><trkpt lat="43.6043394" lon="11.7028091"><ele>1152.0</ele><time>2026-05-03T09:56:59.153Z</time></trkpt><trkpt lat="43.6044108" lon="11.7027488"><ele>1152.0</ele><time>2026-05-03T09:57:00.154Z</time></trkpt><trkpt lat="43.6044859" lon="11.7026986"><ele>1152.0</ele><time>2026-05-03T09:57:01.154Z</time></trkpt><trkpt lat="43.6045687" lon="11.7026189"><ele>1156.2</ele><time>2026-05-03T09:57:02.153Z</time></trkpt><trkpt lat="43.6046356" lon="11.7025255"><ele>1160.4</ele><time>2026-05-03T09:57:03.154Z</time></trkpt><trkpt lat="43.6046988" lon="11.7024296"><ele>1164.6</ele><time>2026-05-03T09:57:04.154Z</time></trkpt><trkpt lat="43.604753" lon="11.7023293"><ele>1168.8</ele><time>2026-05-03T09:57:05.152Z</time></trkpt><trkpt lat="43.6048481" lon="11.7022743"><ele>1173.0</ele><time>2026-05-03T09:57:06.153Z</time></trkpt><trkpt lat="43.6049113" lon="11.7021973"><ele>1173.0</ele><time>2026-05-03T09:57:07.154Z</time></trkpt><trkpt lat="43.604979" lon="11.7021128"><ele>1173.0</ele><time>2026-05-03T09:57:08.154Z</time></trkpt><trkpt lat="43.6050476" lon="11.7020214"><ele>1173.0</ele><time>2026-05-03T09:57:09.154Z</time></trkpt><trkpt lat="43.6051171" lon="11.7019169"><ele>1173.0</ele><time>2026-05-03T09:57:10.153Z</time></trkpt><trkpt lat="43.6051869" lon="11.7018088"><ele>1173.0</ele><time>2026-05-03T09:57:11.153Z</time></trkpt><trkpt lat="43.6052434" lon="11.7016929"><ele>1173.6666666666667</ele><time>2026-05-03T09:57:12.153Z</time></trkpt><trkpt lat="43.6052931" lon="11.701632"><ele>1174.3333333333333</ele><time>2026-05-03T09:57:13.153Z</time></trkpt><trkpt lat="43.6053852" lon="11.7015365"><ele>1175.0</ele><time>2026-05-03T09:57:15.154Z</time></trkpt><trkpt lat="43.6054538" lon="11.7015349"><ele>1175.6666666666665</ele><time>2026-05-03T09:57:16.154Z</time></trkpt><trkpt lat="43.6055311" lon="11.7015179"><ele>1176.3333333333333</ele><time>2026-05-03T09:57:17.154Z</time></trkpt><trkpt lat="43.6056188" lon="11.7015005"><ele>1177.0</ele><time>2026-05-03T09:57:18.154Z</time></trkpt><trkpt lat="43.6057008" lon="11.7014011"><ele>1181.6</ele><time>2026-05-03T09:57:19.153Z</time></trkpt><trkpt lat="43.6057864" lon="11.7013305"><ele>1186.2</ele><time>2026-05-03T09:57:20.153Z</time></trkpt><trkpt lat="43.6058444" lon="11.7012355"><ele>1190.8</ele><time>2026-05-03T09:57:21.154Z</time></trkpt><trkpt lat="43.6059139" lon="11.70113"><ele>1195.4</ele><time>2026-05-03T09:57:22.154Z</time></trkpt><trkpt lat="43.60601" lon="11.7010806"><ele>1200.0</ele><time>2026-05-03T09:57:23.154Z</time></trkpt><trkpt lat="43.6061045" lon="11.7010242"><ele>1205.4</ele><time>2026-05-03T09:57:24.153Z</time></trkpt><trkpt lat="43.6062064" lon="11.7009654"><ele>1210.8</ele><time>2026-05-03T09:57:25.154Z</time></trkpt><trkpt lat="43.6062931" lon="11.7009154"><ele>1216.2</ele><time>2026-05-03T09:57:26.154Z</time></trkpt><trkpt lat="43.6063938" lon="11.700869"><ele>1221.6</ele><time>2026-05-03T09:57:27.154Z</time></trkpt><trkpt lat="43.6064853" lon="11.7008114"><ele>1227.0</ele><time>2026-05-03T09:57:28.153Z</time></trkpt><trkpt lat="43.6065658" lon="11.7007444"><ele>1227.0</ele><time>2026-05-03T09:57:29.154Z</time></trkpt><trkpt lat="43.60663" lon="11.7007129"><ele>1227.0</ele><time>2026-05-03T09:57:30.154Z</time></trkpt><trkpt lat="43.6067039" lon="11.7006969"><ele>1227.0</ele><time>2026-05-03T09:57:31.154Z</time></trkpt><trkpt lat="43.6068046" lon="11.7006741"><ele>1227.0</ele><time>2026-05-03T09:57:33.153Z</time></trkpt><trkpt lat="43.6068949" lon="11.70067"><ele>1227.0</ele><time>2026-05-03T09:57:34.154Z</time></trkpt><trkpt lat="43.6069461" lon="11.700581"><ele>1227.0</ele><time>2026-05-03T09:57:35.154Z</time></trkpt><trkpt lat="43.6070091" lon="11.7005216"><ele>1228.5</ele><time>2026-05-03T09:57:36.154Z</time></trkpt><trkpt lat="43.6070552" lon="11.7004279"><ele>1230.0</ele><time>2026-05-03T09:57:37.154Z</time></trkpt><trkpt lat="43.6070896" lon="11.7003024"><ele>1231.5</ele><time>2026-05-03T09:57:38.154Z</time></trkpt><trkpt lat="43.6071285" lon="11.7002217"><ele>1233.0</ele><time>2026-05-03T09:57:39.154Z</time></trkpt><trkpt lat="43.6071896" lon="11.7001838"><ele>1234.5</ele><time>2026-05-03T09:57:40.152Z</time></trkpt><trkpt lat="43.6072396" lon="11.7001107"><ele>1236.0</ele><time>2026-05-03T09:57:41.154Z</time></trkpt><trkpt lat="43.607295" lon="11.7000272"><ele>1236.0</ele><time>2026-05-03T09:57:42.153Z</time></trkpt><trkpt lat="43.6073564" lon="11.6999562"><ele>1236.0</ele><time>2026-05-03T09:57:43.154Z</time></trkpt><trkpt lat="43.6074347" lon="11.6998882"><ele>1236.0</ele><time>2026-05-03T09:57:44.153Z</time></trkpt><trkpt lat="43.6074884" lon="11.6997494"><ele>1236.0</ele><time>2026-05-03T09:57:46.154Z</time></trkpt><trkpt lat="43.60748" lon="11.6996564"><ele>1236.0</ele><time>2026-05-03T09:57:47.154Z</time></trkpt><trkpt lat="43.6074686" lon="11.6995502"><ele>1236.0</ele><time>2026-05-03T09:57:48.153Z</time></trkpt><trkpt lat="43.6074292" lon="11.6993863"><ele>1236.6666666666667</ele><time>2026-05-03T09:57:50.154Z</time></trkpt><trkpt lat="43.6074299" lon="11.6992875"><ele>1237.3333333333333</ele><time>2026-05-03T09:57:52.154Z</time></trkpt><trkpt lat="43.6074275" lon="11.6991912"><ele>1238.0</ele><time>2026-05-03T09:57:59.153Z</time></trkpt><trkpt lat="43.60744" lon="11.6990618"><ele>1238.6666666666665</ele><time>2026-05-03T09:58:01.153Z</time></trkpt><trkpt lat="43.6074084" lon="11.6989643"><ele>1239.3333333333333</ele><time>2026-05-03T09:58:04.154Z</time></trkpt><trkpt lat="43.6074229" lon="11.6988306"><ele>1240.0</ele><time>2026-05-03T09:58:06.153Z</time></trkpt><trkpt lat="43.6074399" lon="11.6986451"><ele>1240.5714285714287</ele><time>2026-05-03T09:58:08.154Z</time></trkpt><trkpt lat="43.6074465" lon="11.6985473"><ele>1241.142857142857</ele><time>2026-05-03T09:58:09.153Z</time></trkpt><trkpt lat="43.6074583" lon="11.6984525"><ele>1241.7142857142858</ele><time>2026-05-03T09:58:10.154Z</time></trkpt><trkpt lat="43.6074683" lon="11.6983483"><ele>1242.2857142857142</ele><time>2026-05-03T09:58:11.154Z</time></trkpt><trkpt lat="43.6074729" lon="11.6982478"><ele>1242.857142857143</ele><time>2026-05-03T09:58:12.153Z</time></trkpt><trkpt lat="43.6074696" lon="11.6981573"><ele>1243.4285714285713</ele><time>2026-05-03T09:58:13.153Z</time></trkpt><trkpt lat="43.6074861" lon="11.6980534"><ele>1244.0</ele><time>2026-05-03T09:58:14.154Z</time></trkpt><trkpt lat="43.6074996" lon="11.6979556"><ele>1244.0</ele><time>2026-05-03T09:58:15.154Z</time></trkpt><trkpt lat="43.607514" lon="11.6978089"><ele>1244.0</ele><time>2026-05-03T09:58:17.154Z</time></trkpt><trkpt lat="43.6075118" lon="11.6977085"><ele>1244.0</ele><time>2026-05-03T09:58:19.152Z</time></trkpt><trkpt lat="43.6075292" lon="11.6975933"><ele>1244.0</ele><time>2026-05-03T09:58:22.154Z</time></trkpt><trkpt lat="43.6075891" lon="11.6975341"><ele>1244.0</ele><time>2026-05-03T09:58:24.153Z</time></trkpt><trkpt lat="43.6076525" lon="11.6974371"><ele>1244.0</ele><time>2026-05-03T09:58:26.154Z</time></trkpt><trkpt lat="43.6077199" lon="11.6973312"><ele>1242.4</ele><time>2026-05-03T09:58:28.154Z</time></trkpt><trkpt lat="43.6077868" lon="11.6972305"><ele>1240.8000000000002</ele><time>2026-05-03T09:58:30.153Z</time></trkpt><trkpt lat="43.6078441" lon="11.6971231"><ele>1239.1999999999998</ele><time>2026-05-03T09:58:32.153Z</time></trkpt><trkpt lat="43.6078849" lon="11.6970095"><ele>1237.6</ele><time>2026-05-03T09:58:34.153Z</time></trkpt><trkpt lat="43.6079204" lon="11.696901"><ele>1236.0</ele><time>2026-05-03T09:58:36.154Z</time></trkpt><trkpt lat="43.6079614" lon="11.6967952"><ele>1234.2</ele><time>2026-05-03T09:58:38.154Z</time></trkpt><trkpt lat="43.6080125" lon="11.6966887"><ele>1232.3999999999999</ele><time>2026-05-03T09:58:40.153Z</time></trkpt><trkpt lat="43.6080563" lon="11.6965883"><ele>1230.6</ele><time>2026-05-03T09:58:42.154Z</time></trkpt><trkpt lat="43.6080858" lon="11.6964839"><ele>1228.8</ele><time>2026-05-03T09:58:44.153Z</time></trkpt><trkpt lat="43.6081439" lon="11.6963701"><ele>1227.0</ele><time>2026-05-03T09:58:46.154Z</time></trkpt><trkpt lat="43.6081919" lon="11.6962584"><ele>1227.0</ele><time>2026-05-03T09:58:48.153Z</time></trkpt><trkpt lat="43.6082249" lon="11.6961789"><ele>1227.0</ele><time>2026-05-03T09:59:36.154Z</time></trkpt><trkpt lat="43.6082915" lon="11.6961496"><ele>1227.0</ele><time>2026-05-03T10:00:22.154Z</time></trkpt><trkpt lat="43.6083576" lon="11.696088"><ele>1227.0</ele><time>2026-05-03T10:00:24.153Z</time></trkpt><trkpt lat="43.6084306" lon="11.6960345"><ele>1227.0</ele><time>2026-05-03T10:00:26.153Z</time></trkpt><trkpt lat="43.6084923" lon="11.6959695"><ele>1227.0</ele><time>2026-05-03T10:00:28.154Z</time></trkpt><trkpt lat="43.6085338" lon="11.6958674"><ele>1226.5</ele><time>2026-05-03T10:00:30.152Z</time></trkpt><trkpt lat="43.6085659" lon="11.6957599"><ele>1226.0</ele><time>2026-05-03T10:00:32.154Z</time></trkpt><trkpt lat="43.6086112" lon="11.6956788"><ele>1225.5</ele><time>2026-05-03T10:00:37.153Z</time></trkpt><trkpt lat="43.6086426" lon="11.6956024"><ele>1225.0</ele><time>2026-05-03T10:00:44.154Z</time></trkpt><trkpt lat="43.6086693" lon="11.6954898"><ele>1224.5</ele><time>2026-05-03T10:00:46.153Z</time></trkpt><trkpt lat="43.6087019" lon="11.695355"><ele>1224.0</ele><time>2026-05-03T10:00:48.154Z</time></trkpt><trkpt lat="43.6087349" lon="11.6952054"><ele>1224.0</ele><time>2026-05-03T10:00:50.154Z</time></trkpt><trkpt lat="43.608763" lon="11.6950283"><ele>1224.0</ele><time>2026-05-03T10:00:52.153Z</time></trkpt><trkpt lat="43.6087918" lon="11.6949265"><ele>1224.0</ele><time>2026-05-03T10:00:53.154Z</time></trkpt><trkpt lat="43.6088272" lon="11.6948206"><ele>1224.0</ele><time>2026-05-03T10:00:54.154Z</time></trkpt><trkpt lat="43.6088593" lon="11.6947156"><ele>1224.0</ele><time>2026-05-03T10:00:55.153Z</time></trkpt><trkpt lat="43.6088895" lon="11.6946108"><ele>1224.0</ele><time>2026-05-03T10:00:56.154Z</time></trkpt><trkpt lat="43.6089174" lon="11.6945113"><ele>1224.0</ele><time>2026-05-03T10:00:57.152Z</time></trkpt><trkpt lat="43.6089535" lon="11.6944185"><ele>1224.0</ele><time>2026-05-03T10:00:58.154Z</time></trkpt><trkpt lat="43.6089923" lon="11.6943303"><ele>1224.0</ele><time>2026-05-03T10:00:59.153Z</time></trkpt><trkpt lat="43.6090324" lon="11.6942402"><ele>1224.0</ele><time>2026-05-03T10:01:00.154Z</time></trkpt><trkpt lat="43.6090721" lon="11.694149"><ele>1224.0</ele><time>2026-05-03T10:01:01.153Z</time></trkpt><trkpt lat="43.6091122" lon="11.6940567"><ele>1225.3333333333333</ele><time>2026-05-03T10:01:02.153Z</time></trkpt><trkpt lat="43.6091548" lon="11.6939652"><ele>1226.6666666666667</ele><time>2026-05-03T10:01:03.154Z</time></trkpt><trkpt lat="43.6092078" lon="11.6938853"><ele>1228.0</ele><time>2026-05-03T10:01:04.153Z</time></trkpt><trkpt lat="43.609265" lon="11.6938139"><ele>1229.3333333333335</ele><time>2026-05-03T10:01:05.153Z</time></trkpt><trkpt lat="43.6093254" lon="11.6937488"><ele>1230.6666666666667</ele><time>2026-05-03T10:01:06.153Z</time></trkpt><trkpt lat="43.6093866" lon="11.6937029"><ele>1232.0</ele><time>2026-05-03T10:01:07.153Z</time></trkpt><trkpt lat="43.6094545" lon="11.6936728"><ele>1233.142857142857</ele><time>2026-05-03T10:01:08.154Z</time></trkpt><trkpt lat="43.6095241" lon="11.6936508"><ele>1234.2857142857142</ele><time>2026-05-03T10:01:09.153Z</time></trkpt><trkpt lat="43.6095997" lon="11.6936307"><ele>1235.4285714285716</ele><time>2026-05-03T10:01:10.154Z</time></trkpt><trkpt lat="43.609673" lon="11.6935923"><ele>1236.5714285714284</ele><time>2026-05-03T10:01:11.154Z</time></trkpt><trkpt lat="43.609748" lon="11.6935694"><ele>1237.7142857142858</ele><time>2026-05-03T10:01:12.153Z</time></trkpt><trkpt lat="43.6098132" lon="11.6935423"><ele>1238.857142857143</ele><time>2026-05-03T10:01:13.154Z</time></trkpt><trkpt lat="43.6098836" lon="11.6935158"><ele>1240.0</ele><time>2026-05-03T10:01:14.154Z</time></trkpt><trkpt lat="43.6099648" lon="11.6934675"><ele>1242.1666666666665</ele><time>2026-05-03T10:01:15.153Z</time></trkpt><trkpt lat="43.6100223" lon="11.6934219"><ele>1244.3333333333333</ele><time>2026-05-03T10:01:16.153Z</time></trkpt><trkpt lat="43.6100956" lon="11.6933658"><ele>1246.5</ele><time>2026-05-03T10:01:17.153Z</time></trkpt><trkpt lat="43.6101631" lon="11.6933096"><ele>1248.6666666666667</ele><time>2026-05-03T10:01:18.154Z</time></trkpt><trkpt lat="43.6102189" lon="11.6932477"><ele>1250.8333333333335</ele><time>2026-05-03T10:01:19.154Z</time></trkpt><trkpt lat="43.6102664" lon="11.6931215"><ele>1253.0</ele><time>2026-05-03T10:01:20.153Z</time></trkpt><trkpt lat="43.6103212" lon="11.6930418"><ele>1256.0</ele><time>2026-05-03T10:01:21.154Z</time></trkpt><trkpt lat="43.6103772" lon="11.6929676"><ele>1259.0</ele><time>2026-05-03T10:01:22.153Z</time></trkpt><trkpt lat="43.6104342" lon="11.6929002"><ele>1262.0</ele><time>2026-05-03T10:01:23.154Z</time></trkpt><trkpt lat="43.6104962" lon="11.6928366"><ele>1265.0</ele><time>2026-05-03T10:01:24.153Z</time></trkpt><trkpt lat="43.6105401" lon="11.6927398"><ele>1268.0</ele><time>2026-05-03T10:01:25.154Z</time></trkpt><trkpt lat="43.6105876" lon="11.6926505"><ele>1271.0</ele><time>2026-05-03T10:01:26.153Z</time></trkpt><trkpt lat="43.610637" lon="11.6925411"><ele>1272.5</ele><time>2026-05-03T10:01:27.153Z</time></trkpt><trkpt lat="43.6107456" lon="11.6924318"><ele>1274.0</ele><time>2026-05-03T10:01:29.154Z</time></trkpt><trkpt lat="43.6108131" lon="11.6923927"><ele>1275.5</ele><time>2026-05-03T10:01:30.154Z</time></trkpt><trkpt lat="43.6108996" lon="11.6923524"><ele>1277.0</ele><time>2026-05-03T10:01:31.154Z</time></trkpt><trkpt lat="43.6109645" lon="11.6923115"><ele>1278.5</ele><time>2026-05-03T10:01:32.153Z</time></trkpt><trkpt lat="43.6109907" lon="11.6922254"><ele>1280.0</ele><time>2026-05-03T10:01:33.153Z</time></trkpt><trkpt lat="43.6110386" lon="11.6921468"><ele>1280.0</ele><time>2026-05-03T10:01:34.154Z</time></trkpt><trkpt lat="43.6110878" lon="11.6920711"><ele>1280.0</ele><time>2026-05-03T10:01:35.154Z</time></trkpt><trkpt lat="43.6111417" lon="11.6920026"><ele>1280.0</ele><time>2026-05-03T10:01:36.153Z</time></trkpt><trkpt lat="43.6111848" lon="11.6919316"><ele>1280.0</ele><time>2026-05-03T10:01:37.154Z</time></trkpt><trkpt lat="43.6112355" lon="11.6918557"><ele>1280.0</ele><time>2026-05-03T10:01:38.153Z</time></trkpt><trkpt lat="43.6112899" lon="11.6918051"><ele>1280.0</ele><time>2026-05-03T10:01:39.154Z</time></trkpt><trkpt lat="43.6113442" lon="11.6917491"><ele>1280.0</ele><time>2026-05-03T10:01:40.153Z</time></trkpt><trkpt lat="43.6114005" lon="11.6915772"><ele>1286.8</ele><time>2026-05-03T10:01:42.154Z</time></trkpt><trkpt lat="43.6114944" lon="11.6914299"><ele>1293.6</ele><time>2026-05-03T10:01:44.154Z</time></trkpt><trkpt lat="43.6115439" lon="11.6913757"><ele>1300.4</ele><time>2026-05-03T10:01:45.153Z</time></trkpt><trkpt lat="43.6116379" lon="11.6913029"><ele>1307.2</ele><time>2026-05-03T10:01:47.154Z</time></trkpt><trkpt lat="43.6116999" lon="11.6912868"><ele>1314.0</ele><time>2026-05-03T10:01:48.153Z</time></trkpt><trkpt lat="43.6117726" lon="11.6913881"><ele>1314.0</ele><time>2026-05-03T10:01:50.154Z</time></trkpt><trkpt lat="43.6118646" lon="11.6914858"><ele>1314.0</ele><time>2026-05-03T10:01:52.154Z</time></trkpt><trkpt lat="43.6119774" lon="11.6915734"><ele>1314.0</ele><time>2026-05-03T10:01:54.153Z</time></trkpt><trkpt lat="43.6120551" lon="11.6916671"><ele>1314.0</ele><time>2026-05-03T10:01:56.153Z</time></trkpt><trkpt lat="43.612149" lon="11.6916822"><ele>1314.0</ele><time>2026-05-03T10:01:59.152Z</time></trkpt><trkpt lat="43.6122414" lon="11.6917204"><ele>1314.3333333333333</ele><time>2026-05-03T10:02:01.153Z</time></trkpt><trkpt lat="43.6123172" lon="11.6917697"><ele>1314.6666666666667</ele><time>2026-05-03T10:02:03.153Z</time></trkpt><trkpt lat="43.6123766" lon="11.6918078"><ele>1315.0</ele><time>2026-05-03T10:02:05.153Z</time></trkpt><trkpt lat="43.6124481" lon="11.6918531"><ele>1315.3333333333335</ele><time>2026-05-03T10:02:07.154Z</time></trkpt><trkpt lat="43.6125208" lon="11.6919032"><ele>1315.6666666666667</ele><time>2026-05-03T10:02:09.153Z</time></trkpt><trkpt lat="43.6125929" lon="11.6919591"><ele>1316.0</ele><time>2026-05-03T10:02:11.154Z</time></trkpt><trkpt lat="43.6126524" lon="11.6920051"><ele>1318.0</ele><time>2026-05-03T10:02:13.154Z</time></trkpt><trkpt lat="43.6127258" lon="11.6920755"><ele>1320.0</ele><time>2026-05-03T10:02:16.154Z</time></trkpt><trkpt lat="43.6127715" lon="11.6921627"><ele>1322.0</ele><time>2026-05-03T10:02:18.153Z</time></trkpt><trkpt lat="43.6128245" lon="11.6922893"><ele>1324.0</ele><time>2026-05-03T10:02:20.153Z</time></trkpt><trkpt lat="43.6128953" lon="11.6924368"><ele>1326.0</ele><time>2026-05-03T10:02:22.153Z</time></trkpt><trkpt lat="43.6129605" lon="11.6925037"><ele>1326.5</ele><time>2026-05-03T10:02:23.153Z</time></trkpt><trkpt lat="43.6130242" lon="11.6925689"><ele>1327.0</ele><time>2026-05-03T10:02:24.154Z</time></trkpt><trkpt lat="43.6130888" lon="11.6926129"><ele>1327.5</ele><time>2026-05-03T10:02:25.153Z</time></trkpt><trkpt lat="43.6131628" lon="11.6926797"><ele>1328.0</ele><time>2026-05-03T10:02:26.154Z</time></trkpt><trkpt lat="43.613242" lon="11.6927447"><ele>1328.5</ele><time>2026-05-03T10:02:27.154Z</time></trkpt><trkpt lat="43.6133279" lon="11.6927673"><ele>1329.0</ele><time>2026-05-03T10:02:28.152Z</time></trkpt><trkpt lat="43.6134066" lon="11.6927791"><ele>1329.5</ele><time>2026-05-03T10:02:29.153Z</time></trkpt><trkpt lat="43.613486" lon="11.69281"><ele>1330.0</ele><time>2026-05-03T10:02:30.153Z</time></trkpt><trkpt lat="43.6135583" lon="11.6928549"><ele>1330.5</ele><time>2026-05-03T10:02:31.154Z</time></trkpt><trkpt lat="43.6136383" lon="11.6928978"><ele>1331.0</ele><time>2026-05-03T10:02:32.154Z</time></trkpt><trkpt lat="43.6137126" lon="11.6929275"><ele>1331.5</ele><time>2026-05-03T10:02:33.153Z</time></trkpt><trkpt lat="43.61382" lon="11.6929862"><ele>1332.0</ele><time>2026-05-03T10:02:35.153Z</time></trkpt><trkpt lat="43.6138913" lon="11.6930315"><ele>1333.0</ele><time>2026-05-03T10:02:36.154Z</time></trkpt><trkpt lat="43.6139749" lon="11.6930764"><ele>1334.0</ele><time>2026-05-03T10:02:37.154Z</time></trkpt><trkpt lat="43.6140535" lon="11.6931145"><ele>1335.0</ele><time>2026-05-03T10:02:38.154Z</time></trkpt><trkpt lat="43.614134" lon="11.6931729"><ele>1336.0</ele><time>2026-05-03T10:02:39.154Z</time></trkpt><trkpt lat="43.6142031" lon="11.6932398"><ele>1337.0</ele><time>2026-05-03T10:02:40.154Z</time></trkpt><trkpt lat="43.6142774" lon="11.6933055"><ele>1338.0</ele><time>2026-05-03T10:02:41.154Z</time></trkpt><trkpt lat="43.6143302" lon="11.6933541"><ele>1338.0</ele><time>2026-05-03T10:02:42.153Z</time></trkpt><trkpt lat="43.6144175" lon="11.6933842"><ele>1338.0</ele><time>2026-05-03T10:02:43.154Z</time></trkpt><trkpt lat="43.6144828" lon="11.6934227"><ele>1338.0</ele><time>2026-05-03T10:02:44.154Z</time></trkpt><trkpt lat="43.6145531" lon="11.6934534"><ele>1338.0</ele><time>2026-05-03T10:02:45.153Z</time></trkpt><trkpt lat="43.6146376" lon="11.693461"><ele>1338.0</ele><time>2026-05-03T10:02:46.154Z</time></trkpt><trkpt lat="43.6147148" lon="11.6934924"><ele>1338.0</ele><time>2026-05-03T10:02:47.152Z</time></trkpt><trkpt lat="43.6147879" lon="11.693523"><ele>1335.8000000000002</ele><time>2026-05-03T10:02:48.152Z</time></trkpt><trkpt lat="43.6148724" lon="11.693558"><ele>1333.6</ele><time>2026-05-03T10:02:49.153Z</time></trkpt><trkpt lat="43.6149442" lon="11.6935773"><ele>1331.4</ele><time>2026-05-03T10:02:50.154Z</time></trkpt><trkpt lat="43.6150581" lon="11.6934673"><ele>1329.1999999999998</ele><time>2026-05-03T10:02:51.154Z</time></trkpt><trkpt lat="43.615164" lon="11.693446"><ele>1327.0</ele><time>2026-05-03T10:02:52.154Z</time></trkpt><trkpt lat="43.6152741" lon="11.6934146"><ele>1326.6</ele><time>2026-05-03T10:02:53.152Z</time></trkpt><trkpt lat="43.6153786" lon="11.6933868"><ele>1326.1999999999998</ele><time>2026-05-03T10:02:54.154Z</time></trkpt><trkpt lat="43.6154807" lon="11.6933504"><ele>1325.8</ele><time>2026-05-03T10:02:55.154Z</time></trkpt><trkpt lat="43.6155726" lon="11.6932938"><ele>1325.4</ele><time>2026-05-03T10:02:56.153Z</time></trkpt><trkpt lat="43.6156788" lon="11.6932302"><ele>1325.0</ele><time>2026-05-03T10:02:57.152Z</time></trkpt><trkpt lat="43.6157269" lon="11.6931116"><ele>1325.0</ele><time>2026-05-03T10:02:58.153Z</time></trkpt><trkpt lat="43.6157922" lon="11.6930407"><ele>1325.0</ele><time>2026-05-03T10:02:59.153Z</time></trkpt><trkpt lat="43.6158701" lon="11.6929766"><ele>1325.0</ele><time>2026-05-03T10:03:00.154Z</time></trkpt><trkpt lat="43.6159552" lon="11.6929057"><ele>1325.0</ele><time>2026-05-03T10:03:01.153Z</time></trkpt><trkpt lat="43.6160455" lon="11.6928242"><ele>1325.0</ele><time>2026-05-03T10:03:02.154Z</time></trkpt><trkpt lat="43.6161383" lon="11.6927359"><ele>1323.4</ele><time>2026-05-03T10:03:03.153Z</time></trkpt><trkpt lat="43.6162326" lon="11.6926434"><ele>1321.8</ele><time>2026-05-03T10:03:04.153Z</time></trkpt><trkpt lat="43.6163262" lon="11.6925715"><ele>1320.1999999999998</ele><time>2026-05-03T10:03:05.154Z</time></trkpt><trkpt lat="43.6164153" lon="11.692514"><ele>1318.6</ele><time>2026-05-03T10:03:06.154Z</time></trkpt><trkpt lat="43.6164867" lon="11.6924562"><ele>1317.0</ele><time>2026-05-03T10:03:07.154Z</time></trkpt><trkpt lat="43.6165656" lon="11.6923784"><ele>1317.0</ele><time>2026-05-03T10:03:08.154Z</time></trkpt><trkpt lat="43.6166487" lon="11.6922955"><ele>1317.0</ele><time>2026-05-03T10:03:09.154Z</time></trkpt><trkpt lat="43.6167287" lon="11.6922093"><ele>1317.0</ele><time>2026-05-03T10:03:10.154Z</time></trkpt><trkpt lat="43.6168123" lon="11.6921324"><ele>1317.0</ele><time>2026-05-03T10:03:11.154Z</time></trkpt><trkpt lat="43.6169004" lon="11.6920655"><ele>1317.0</ele><time>2026-05-03T10:03:12.154Z</time></trkpt><trkpt lat="43.6169879" lon="11.6919952"><ele>1315.3999999999999</ele><time>2026-05-03T10:03:13.154Z</time></trkpt><trkpt lat="43.6170774" lon="11.6919425"><ele>1313.8</ele><time>2026-05-03T10:03:14.154Z</time></trkpt><trkpt lat="43.6171804" lon="11.6919142"><ele>1312.2</ele><time>2026-05-03T10:03:15.153Z</time></trkpt><trkpt lat="43.6172862" lon="11.6918805"><ele>1310.6</ele><time>2026-05-03T10:03:16.154Z</time></trkpt><trkpt lat="43.617387" lon="11.6918301"><ele>1309.0</ele><time>2026-05-03T10:03:17.154Z</time></trkpt><trkpt lat="43.6174918" lon="11.6917814"><ele>1309.0</ele><time>2026-05-03T10:03:18.153Z</time></trkpt><trkpt lat="43.6175973" lon="11.6917354"><ele>1309.0</ele><time>2026-05-03T10:03:19.153Z</time></trkpt><trkpt lat="43.6177037" lon="11.6916778"><ele>1309.0</ele><time>2026-05-03T10:03:20.153Z</time></trkpt><trkpt lat="43.6178087" lon="11.6916378"><ele>1309.0</ele><time>2026-05-03T10:03:21.153Z</time></trkpt><trkpt lat="43.6179179" lon="11.6915983"><ele>1309.0</ele><time>2026-05-03T10:03:22.153Z</time></trkpt><trkpt lat="43.6180228" lon="11.6915703"><ele>1308.4</ele><time>2026-05-03T10:03:23.154Z</time></trkpt><trkpt lat="43.6181315" lon="11.6915596"><ele>1307.8000000000002</ele><time>2026-05-03T10:03:24.154Z</time></trkpt><trkpt lat="43.6182376" lon="11.6915644"><ele>1307.1999999999998</ele><time>2026-05-03T10:03:25.153Z</time></trkpt><trkpt lat="43.6183387" lon="11.6915706"><ele>1306.6</ele><time>2026-05-03T10:03:26.154Z</time></trkpt><trkpt lat="43.6184268" lon="11.6915999"><ele>1306.0</ele><time>2026-05-03T10:03:27.154Z</time></trkpt><trkpt lat="43.6185123" lon="11.691623"><ele>1306.0</ele><time>2026-05-03T10:03:28.154Z</time></trkpt><trkpt lat="43.6185985" lon="11.6916507"><ele>1306.0</ele><time>2026-05-03T10:03:29.154Z</time></trkpt><trkpt lat="43.6186695" lon="11.6917176"><ele>1306.0</ele><time>2026-05-03T10:03:30.154Z</time></trkpt><trkpt lat="43.6187682" lon="11.6917755"><ele>1306.0</ele><time>2026-05-03T10:03:31.154Z</time></trkpt><trkpt lat="43.6188464" lon="11.6918097"><ele>1306.0</ele><time>2026-05-03T10:03:32.153Z</time></trkpt><trkpt lat="43.6189437" lon="11.6918594"><ele>1305.3333333333333</ele><time>2026-05-03T10:03:33.154Z</time></trkpt><trkpt lat="43.6190337" lon="11.6919058"><ele>1304.6666666666665</ele><time>2026-05-03T10:03:34.154Z</time></trkpt><trkpt lat="43.6191089" lon="11.6919234"><ele>1304.0</ele><time>2026-05-03T10:03:35.154Z</time></trkpt><trkpt lat="43.6191855" lon="11.6919002"><ele>1303.3333333333333</ele><time>2026-05-03T10:03:36.154Z</time></trkpt><trkpt lat="43.6192855" lon="11.6918834"><ele>1302.6666666666667</ele><time>2026-05-03T10:03:38.153Z</time></trkpt><trkpt lat="43.6193783" lon="11.6918771"><ele>1302.0</ele><time>2026-05-03T10:03:40.153Z</time></trkpt><trkpt lat="43.6194733" lon="11.6918642"><ele>1303.8</ele><time>2026-05-03T10:03:42.154Z</time></trkpt><trkpt lat="43.6196032" lon="11.6918493"><ele>1305.6</ele><time>2026-05-03T10:03:44.154Z</time></trkpt><trkpt lat="43.6196861" lon="11.6918354"><ele>1307.3999999999999</ele><time>2026-05-03T10:03:45.153Z</time></trkpt><trkpt lat="43.6197702" lon="11.691818"><ele>1309.1999999999998</ele><time>2026-05-03T10:03:46.153Z</time></trkpt><trkpt lat="43.6198661" lon="11.6918076"><ele>1311.0</ele><time>2026-05-03T10:03:47.154Z</time></trkpt><trkpt lat="43.619951" lon="11.6918017"><ele>1311.0</ele><time>2026-05-03T10:03:48.154Z</time></trkpt><trkpt lat="43.6200628" lon="11.6918224"><ele>1311.0</ele><time>2026-05-03T10:03:49.153Z</time></trkpt><trkpt lat="43.6201729" lon="11.6918519"><ele>1311.0</ele><time>2026-05-03T10:03:50.154Z</time></trkpt><trkpt lat="43.6202744" lon="11.6918119"><ele>1311.0</ele><time>2026-05-03T10:03:51.153Z</time></trkpt><trkpt lat="43.6203728" lon="11.6917793"><ele>1311.0</ele><time>2026-05-03T10:03:52.153Z</time></trkpt><trkpt lat="43.620449" lon="11.6917308"><ele>1311.1666666666667</ele><time>2026-05-03T10:03:53.154Z</time></trkpt><trkpt lat="43.6205407" lon="11.6916993"><ele>1311.3333333333333</ele><time>2026-05-03T10:03:54.153Z</time></trkpt><trkpt lat="43.6206118" lon="11.6916762"><ele>1311.5</ele><time>2026-05-03T10:03:55.154Z</time></trkpt><trkpt lat="43.6206954" lon="11.6916633"><ele>1311.6666666666665</ele><time>2026-05-03T10:03:56.153Z</time></trkpt><trkpt lat="43.6207787" lon="11.6916048"><ele>1311.8333333333333</ele><time>2026-05-03T10:03:57.154Z</time></trkpt><trkpt lat="43.620865" lon="11.6915382"><ele>1312.0</ele><time>2026-05-03T10:03:58.153Z</time></trkpt><trkpt lat="43.6209535" lon="11.691462"><ele>1312.0</ele><time>2026-05-03T10:03:59.154Z</time></trkpt><trkpt lat="43.6210578" lon="11.6913951"><ele>1312.0</ele><time>2026-05-03T10:04:00.154Z</time></trkpt><trkpt lat="43.6211392" lon="11.6913379"><ele>1312.0</ele><time>2026-05-03T10:04:01.154Z</time></trkpt><trkpt lat="43.6212448" lon="11.6912499"><ele>1312.0</ele><time>2026-05-03T10:04:02.154Z</time></trkpt><trkpt lat="43.6213335" lon="11.6911777"><ele>1312.0</ele><time>2026-05-03T10:04:03.154Z</time></trkpt><trkpt lat="43.6214463" lon="11.6911023"><ele>1310.6</ele><time>2026-05-03T10:04:04.153Z</time></trkpt><trkpt lat="43.6215489" lon="11.6910602"><ele>1309.1999999999998</ele><time>2026-05-03T10:04:05.153Z</time></trkpt><trkpt lat="43.6216606" lon="11.6910453"><ele>1307.8</ele><time>2026-05-03T10:04:06.154Z</time></trkpt><trkpt lat="43.6217645" lon="11.6910594"><ele>1306.4</ele><time>2026-05-03T10:04:07.154Z</time></trkpt><trkpt lat="43.6218517" lon="11.691117"><ele>1305.0</ele><time>2026-05-03T10:04:08.154Z</time></trkpt><trkpt lat="43.6219371" lon="11.6911872"><ele>1304.2</ele><time>2026-05-03T10:04:09.154Z</time></trkpt><trkpt lat="43.622035" lon="11.6912174"><ele>1303.4</ele><time>2026-05-03T10:04:10.154Z</time></trkpt><trkpt lat="43.6221387" lon="11.6912333"><ele>1302.6</ele><time>2026-05-03T10:04:11.153Z</time></trkpt><trkpt lat="43.622237" lon="11.6912396"><ele>1301.8</ele><time>2026-05-03T10:04:12.154Z</time></trkpt><trkpt lat="43.6223343" lon="11.6912353"><ele>1301.0</ele><time>2026-05-03T10:04:13.153Z</time></trkpt><trkpt lat="43.6224321" lon="11.6912214"><ele>1301.0</ele><time>2026-05-03T10:04:14.153Z</time></trkpt><trkpt lat="43.6225265" lon="11.6912085"><ele>1301.0</ele><time>2026-05-03T10:04:15.153Z</time></trkpt><trkpt lat="43.6225916" lon="11.6912085"><ele>1301.0</ele><time>2026-05-03T10:04:16.153Z</time></trkpt><trkpt lat="43.6226669" lon="11.6912407"><ele>1301.0</ele><time>2026-05-03T10:04:18.153Z</time></trkpt><trkpt lat="43.6227261" lon="11.691332"><ele>1301.0</ele><time>2026-05-03T10:04:20.153Z</time></trkpt><trkpt lat="43.6228313" lon="11.6913987"><ele>1301.0</ele><time>2026-05-03T10:04:22.154Z</time></trkpt><trkpt lat="43.6229084" lon="11.6914722"><ele>1303.5714285714284</ele><time>2026-05-03T10:04:24.154Z</time></trkpt><trkpt lat="43.6229775" lon="11.691466"><ele>1306.142857142857</ele><time>2026-05-03T10:04:25.153Z</time></trkpt><trkpt lat="43.6230659" lon="11.6914405"><ele>1308.7142857142858</ele><time>2026-05-03T10:04:26.153Z</time></trkpt><trkpt lat="43.6231389" lon="11.691425"><ele>1311.2857142857142</ele><time>2026-05-03T10:04:27.154Z</time></trkpt><trkpt lat="43.6232061" lon="11.6914219"><ele>1313.857142857143</ele><time>2026-05-03T10:04:28.153Z</time></trkpt><trkpt lat="43.6232789" lon="11.6914095"><ele>1316.4285714285713</ele><time>2026-05-03T10:04:29.154Z</time></trkpt><trkpt lat="43.6233469" lon="11.6913881"><ele>1319.0</ele><time>2026-05-03T10:04:30.154Z</time></trkpt><trkpt lat="43.6234193" lon="11.6913583"><ele>1319.0</ele><time>2026-05-03T10:04:31.153Z</time></trkpt><trkpt lat="43.6234864" lon="11.6913285"><ele>1319.0</ele><time>2026-05-03T10:04:32.153Z</time></trkpt><trkpt lat="43.6235522" lon="11.691298"><ele>1319.0</ele><time>2026-05-03T10:04:33.154Z</time></trkpt><trkpt lat="43.6236177" lon="11.6912775"><ele>1319.0</ele><time>2026-05-03T10:04:34.154Z</time></trkpt><trkpt lat="43.6236814" lon="11.691267"><ele>1319.0</ele><time>2026-05-03T10:04:35.154Z</time></trkpt><trkpt lat="43.6237456" lon="11.6912566"><ele>1319.0</ele><time>2026-05-03T10:04:36.153Z</time></trkpt><trkpt lat="43.6238633" lon="11.6912324"><ele>1323.0</ele><time>2026-05-03T10:04:38.153Z</time></trkpt><trkpt lat="43.6239263" lon="11.6912306"><ele>1327.0</ele><time>2026-05-03T10:04:39.153Z</time></trkpt><trkpt lat="43.6239896" lon="11.6912303"><ele>1331.0</ele><time>2026-05-03T10:04:40.154Z</time></trkpt><trkpt lat="43.6241135" lon="11.6912438"><ele>1335.0</ele><time>2026-05-03T10:04:42.153Z</time></trkpt><trkpt lat="43.6242272" lon="11.691276"><ele>1339.0</ele><time>2026-05-03T10:04:44.153Z</time></trkpt><trkpt lat="43.6243401" lon="11.691323"><ele>1339.0</ele><time>2026-05-03T10:04:46.152Z</time></trkpt><trkpt lat="43.6244613" lon="11.6913467"><ele>1339.0</ele><time>2026-05-03T10:04:48.152Z</time></trkpt><trkpt lat="43.6245249" lon="11.6913582"><ele>1339.0</ele><time>2026-05-03T10:04:49.153Z</time></trkpt><trkpt lat="43.6246322" lon="11.6913689"><ele>1339.0</ele><time>2026-05-03T10:04:51.154Z</time></trkpt><trkpt lat="43.6247031" lon="11.6913883"><ele>1339.0</ele><time>2026-05-03T10:04:53.153Z</time></trkpt><trkpt lat="43.6247706" lon="11.691435"><ele>1339.0</ele><time>2026-05-03T10:04:56.154Z</time></trkpt><trkpt lat="43.6248313" lon="11.6914882"><ele>1337.2</ele><time>2026-05-03T10:05:05.154Z</time></trkpt><trkpt lat="43.6248948" lon="11.691475"><ele>1335.4</ele><time>2026-05-03T10:05:24.153Z</time></trkpt><trkpt lat="43.6249617" lon="11.6914403"><ele>1333.6</ele><time>2026-05-03T10:05:26.153Z</time></trkpt><trkpt lat="43.6250709" lon="11.6913815"><ele>1331.8</ele><time>2026-05-03T10:05:28.153Z</time></trkpt><trkpt lat="43.6252437" lon="11.6913091"><ele>1330.0</ele><time>2026-05-03T10:05:31.073Z</time></trkpt><trkpt lat="43.6253618" lon="11.6912306"><ele>1330.0</ele><time>2026-05-03T10:05:32.153Z</time></trkpt><trkpt lat="43.6254427" lon="11.6911735"><ele>1330.0</ele><time>2026-05-03T10:05:33.154Z</time></trkpt><trkpt lat="43.6255292" lon="11.6911106"><ele>1330.0</ele><time>2026-05-03T10:05:34.153Z</time></trkpt><trkpt lat="43.6256115" lon="11.6910557"><ele>1330.0</ele><time>2026-05-03T10:05:35.153Z</time></trkpt><trkpt lat="43.625694" lon="11.6909964"><ele>1330.0</ele><time>2026-05-03T10:05:36.153Z</time></trkpt><trkpt lat="43.6257762" lon="11.6909407"><ele>1329.6</ele><time>2026-05-03T10:05:37.152Z</time></trkpt><trkpt lat="43.6258609" lon="11.6908739"><ele>1329.2</ele><time>2026-05-03T10:05:38.153Z</time></trkpt><trkpt lat="43.6259552" lon="11.6908084"><ele>1328.8000000000002</ele><time>2026-05-03T10:05:39.154Z</time></trkpt><trkpt lat="43.6260402" lon="11.6907318"><ele>1328.4</ele><time>2026-05-03T10:05:40.154Z</time></trkpt><trkpt lat="43.6261267" lon="11.6906565"><ele>1328.0</ele><time>2026-05-03T10:05:41.153Z</time></trkpt><trkpt lat="43.6262116" lon="11.6905781"><ele>1328.0</ele><time>2026-05-03T10:05:42.154Z</time></trkpt><trkpt lat="43.6263009" lon="11.6904954"><ele>1328.0</ele><time>2026-05-03T10:05:43.153Z</time></trkpt><trkpt lat="43.6263885" lon="11.6904182"><ele>1328.0</ele><time>2026-05-03T10:05:44.153Z</time></trkpt><trkpt lat="43.6264796" lon="11.6903407"><ele>1328.0</ele><time>2026-05-03T10:05:45.153Z</time></trkpt><trkpt lat="43.6265683" lon="11.6902577"><ele>1328.0</ele><time>2026-05-03T10:05:46.154Z</time></trkpt><trkpt lat="43.6266518" lon="11.6901707"><ele>1329.0</ele><time>2026-05-03T10:05:47.153Z</time></trkpt><trkpt lat="43.6267264" lon="11.6900754"><ele>1330.0</ele><time>2026-05-03T10:05:48.153Z</time></trkpt><trkpt lat="43.6267912" lon="11.6899717"><ele>1331.0</ele><time>2026-05-03T10:05:49.154Z</time></trkpt><trkpt lat="43.6268602" lon="11.6898616"><ele>1332.0</ele><time>2026-05-03T10:05:50.154Z</time></trkpt><trkpt lat="43.6269303" lon="11.6897502"><ele>1333.0</ele><time>2026-05-03T10:05:51.153Z</time></trkpt><trkpt lat="43.626999" lon="11.6896327"><ele>1333.6000000000001</ele><time>2026-05-03T10:05:52.154Z</time></trkpt><trkpt lat="43.6270628" lon="11.6895102"><ele>1334.2</ele><time>2026-05-03T10:05:53.153Z</time></trkpt><trkpt lat="43.6271129" lon="11.6893868"><ele>1334.8</ele><time>2026-05-03T10:05:54.154Z</time></trkpt><trkpt lat="43.627155" lon="11.6892592"><ele>1335.4</ele><time>2026-05-03T10:05:55.153Z</time></trkpt><trkpt lat="43.6272016" lon="11.6891403"><ele>1336.0</ele><time>2026-05-03T10:05:56.154Z</time></trkpt><trkpt lat="43.6272444" lon="11.6890238"><ele>1338.1666666666665</ele><time>2026-05-03T10:05:57.153Z</time></trkpt><trkpt lat="43.6272858" lon="11.6889198"><ele>1340.3333333333333</ele><time>2026-05-03T10:05:58.154Z</time></trkpt><trkpt lat="43.6273323" lon="11.6888156"><ele>1342.5</ele><time>2026-05-03T10:05:59.153Z</time></trkpt><trkpt lat="43.6273798" lon="11.6887196"><ele>1344.6666666666667</ele><time>2026-05-03T10:06:00.152Z</time></trkpt><trkpt lat="43.6274241" lon="11.6886214"><ele>1346.8333333333335</ele><time>2026-05-03T10:06:01.154Z</time></trkpt><trkpt lat="43.6274693" lon="11.6885213"><ele>1349.0</ele><time>2026-05-03T10:06:02.153Z</time></trkpt><trkpt lat="43.6275167" lon="11.6884117"><ele>1350.3333333333335</ele><time>2026-05-03T10:06:03.154Z</time></trkpt><trkpt lat="43.627562" lon="11.6883077"><ele>1351.6666666666667</ele><time>2026-05-03T10:06:04.153Z</time></trkpt><trkpt lat="43.6276119" lon="11.6881845"><ele>1353.0</ele><time>2026-05-03T10:06:05.154Z</time></trkpt><trkpt lat="43.6276526" lon="11.6880877"><ele>1354.3333333333333</ele><time>2026-05-03T10:06:06.154Z</time></trkpt><trkpt lat="43.6277013" lon="11.6879985"><ele>1355.6666666666665</ele><time>2026-05-03T10:06:07.154Z</time></trkpt><trkpt lat="43.6277583" lon="11.6879407"><ele>1357.0</ele><time>2026-05-03T10:06:08.152Z</time></trkpt><trkpt lat="43.6278312" lon="11.6879037"><ele>1357.8333333333333</ele><time>2026-05-03T10:06:09.152Z</time></trkpt><trkpt lat="43.6279142" lon="11.6878806"><ele>1358.6666666666665</ele><time>2026-05-03T10:06:10.154Z</time></trkpt><trkpt lat="43.6279966" lon="11.6878527"><ele>1359.5</ele><time>2026-05-03T10:06:11.154Z</time></trkpt><trkpt lat="43.6280692" lon="11.687828"><ele>1360.3333333333333</ele><time>2026-05-03T10:06:12.153Z</time></trkpt><trkpt lat="43.6281545" lon="11.6878116"><ele>1361.1666666666667</ele><time>2026-05-03T10:06:13.154Z</time></trkpt><trkpt lat="43.6282392" lon="11.6877976"><ele>1362.0</ele><time>2026-05-03T10:06:14.154Z</time></trkpt><trkpt lat="43.6283234" lon="11.687793"><ele>1362.0</ele><time>2026-05-03T10:06:15.153Z</time></trkpt><trkpt lat="43.6283951" lon="11.6877884"><ele>1362.0</ele><time>2026-05-03T10:06:16.154Z</time></trkpt><trkpt lat="43.628468" lon="11.6877857"><ele>1362.0</ele><time>2026-05-03T10:06:17.154Z</time></trkpt><trkpt lat="43.6285367" lon="11.687788"><ele>1362.0</ele><time>2026-05-03T10:06:18.154Z</time></trkpt><trkpt lat="43.6286038" lon="11.687787"><ele>1362.0</ele><time>2026-05-03T10:06:19.153Z</time></trkpt><trkpt lat="43.6287388" lon="11.6877852"><ele>1362.0</ele><time>2026-05-03T10:06:21.153Z</time></trkpt><trkpt lat="43.6288178" lon="11.6877816"><ele>1362.6666666666667</ele><time>2026-05-03T10:06:22.152Z</time></trkpt><trkpt lat="43.6289013" lon="11.6877734"><ele>1363.3333333333333</ele><time>2026-05-03T10:06:23.154Z</time></trkpt><trkpt lat="43.6289887" lon="11.6877677"><ele>1364.0</ele><time>2026-05-03T10:06:24.153Z</time></trkpt><trkpt lat="43.6290802" lon="11.6877736"><ele>1364.6666666666665</ele><time>2026-05-03T10:06:25.153Z</time></trkpt><trkpt lat="43.6291728" lon="11.687792"><ele>1365.3333333333333</ele><time>2026-05-03T10:06:26.153Z</time></trkpt><trkpt lat="43.6292632" lon="11.6878197"><ele>1366.0</ele><time>2026-05-03T10:06:27.152Z</time></trkpt><trkpt lat="43.6293474" lon="11.6878576"><ele>1366.0</ele><time>2026-05-03T10:06:28.154Z</time></trkpt><trkpt lat="43.6294367" lon="11.6878862"><ele>1366.0</ele><time>2026-05-03T10:06:29.154Z</time></trkpt><trkpt lat="43.6295315" lon="11.687891"><ele>1366.0</ele><time>2026-05-03T10:06:30.153Z</time></trkpt><trkpt lat="43.6296219" lon="11.6879002"><ele>1366.0</ele><time>2026-05-03T10:06:31.154Z</time></trkpt><trkpt lat="43.6297182" lon="11.6879002"><ele>1366.0</ele><time>2026-05-03T10:06:32.154Z</time></trkpt><trkpt lat="43.6298128" lon="11.6879032"><ele>1367.8</ele><time>2026-05-03T10:06:33.153Z</time></trkpt><trkpt lat="43.6299038" lon="11.687893"><ele>1369.6</ele><time>2026-05-03T10:06:34.154Z</time></trkpt><trkpt lat="43.6299937" lon="11.6878697"><ele>1371.4</ele><time>2026-05-03T10:06:35.153Z</time></trkpt><trkpt lat="43.6300774" lon="11.6878398"><ele>1373.2</ele><time>2026-05-03T10:06:36.153Z</time></trkpt><trkpt lat="43.6301618" lon="11.6877827"><ele>1375.0</ele><time>2026-05-03T10:06:37.154Z</time></trkpt><trkpt lat="43.6302429" lon="11.687718"><ele>1377.0</ele><time>2026-05-03T10:06:38.154Z</time></trkpt><trkpt lat="43.6303207" lon="11.6876515"><ele>1379.0</ele><time>2026-05-03T10:06:39.153Z</time></trkpt><trkpt lat="43.630406" lon="11.6875836"><ele>1381.0</ele><time>2026-05-03T10:06:40.153Z</time></trkpt><trkpt lat="43.6304837" lon="11.6875056"><ele>1383.0</ele><time>2026-05-03T10:06:41.154Z</time></trkpt><trkpt lat="43.6305624" lon="11.6874353"><ele>1385.0</ele><time>2026-05-03T10:06:42.154Z</time></trkpt><trkpt lat="43.6306391" lon="11.687367"><ele>1385.0</ele><time>2026-05-03T10:06:43.154Z</time></trkpt><trkpt lat="43.6307058" lon="11.6872946"><ele>1385.0</ele><time>2026-05-03T10:06:44.154Z</time></trkpt><trkpt lat="43.6307504" lon="11.6872058"><ele>1385.0</ele><time>2026-05-03T10:06:45.154Z</time></trkpt><trkpt lat="43.6307869" lon="11.6870903"><ele>1385.0</ele><time>2026-05-03T10:06:46.154Z</time></trkpt><trkpt lat="43.6308296" lon="11.6869695"><ele>1385.0</ele><time>2026-05-03T10:06:47.153Z</time></trkpt><trkpt lat="43.6308735" lon="11.6868439"><ele>1384.4</ele><time>2026-05-03T10:06:48.154Z</time></trkpt><trkpt lat="43.630917" lon="11.6867159"><ele>1383.8</ele><time>2026-05-03T10:06:49.154Z</time></trkpt><trkpt lat="43.6309669" lon="11.6865887"><ele>1383.1999999999998</ele><time>2026-05-03T10:06:50.154Z</time></trkpt><trkpt lat="43.6310109" lon="11.6864559"><ele>1382.6</ele><time>2026-05-03T10:06:51.153Z</time></trkpt><trkpt lat="43.6310543" lon="11.6863282"><ele>1382.0</ele><time>2026-05-03T10:06:52.154Z</time></trkpt><trkpt lat="43.631102" lon="11.6862023"><ele>1386.3999999999999</ele><time>2026-05-03T10:06:53.154Z</time></trkpt><trkpt lat="43.6311523" lon="11.6860825"><ele>1390.8</ele><time>2026-05-03T10:06:54.153Z</time></trkpt><trkpt lat="43.6312031" lon="11.6859584"><ele>1395.2</ele><time>2026-05-03T10:06:55.154Z</time></trkpt><trkpt lat="43.6312621" lon="11.685844"><ele>1399.6</ele><time>2026-05-03T10:06:56.154Z</time></trkpt><trkpt lat="43.6313258" lon="11.6857429"><ele>1404.0</ele><time>2026-05-03T10:06:57.153Z</time></trkpt><trkpt lat="43.6313758" lon="11.6856519"><ele>1404.0</ele><time>2026-05-03T10:06:58.154Z</time></trkpt><trkpt lat="43.6314208" lon="11.6855351"><ele>1404.0</ele><time>2026-05-03T10:06:59.154Z</time></trkpt><trkpt lat="43.6314696" lon="11.6854151"><ele>1404.0</ele><time>2026-05-03T10:07:00.154Z</time></trkpt><trkpt lat="43.6315198" lon="11.6852947"><ele>1404.0</ele><time>2026-05-03T10:07:01.153Z</time></trkpt><trkpt lat="43.6315607" lon="11.6851732"><ele>1404.0</ele><time>2026-05-03T10:07:02.154Z</time></trkpt><trkpt lat="43.6315927" lon="11.6850517"><ele>1403.0</ele><time>2026-05-03T10:07:03.154Z</time></trkpt><trkpt lat="43.6316065" lon="11.6849222"><ele>1402.0</ele><time>2026-05-03T10:07:04.153Z</time></trkpt><trkpt lat="43.6316092" lon="11.6847891"><ele>1401.0</ele><time>2026-05-03T10:07:05.154Z</time></trkpt><trkpt lat="43.6316062" lon="11.684651"><ele>1400.0</ele><time>2026-05-03T10:07:06.153Z</time></trkpt><trkpt lat="43.6315892" lon="11.6845212"><ele>1399.0</ele><time>2026-05-03T10:07:07.153Z</time></trkpt><trkpt lat="43.6315668" lon="11.6843863"><ele>1399.0</ele><time>2026-05-03T10:07:08.154Z</time></trkpt><trkpt lat="43.6315462" lon="11.6842508"><ele>1399.0</ele><time>2026-05-03T10:07:09.153Z</time></trkpt><trkpt lat="43.6315196" lon="11.6841182"><ele>1399.0</ele><time>2026-05-03T10:07:10.154Z</time></trkpt><trkpt lat="43.6314953" lon="11.6839834"><ele>1399.0</ele><time>2026-05-03T10:07:11.154Z</time></trkpt><trkpt lat="43.6314693" lon="11.683848"><ele>1399.0</ele><time>2026-05-03T10:07:12.153Z</time></trkpt><trkpt lat="43.6314501" lon="11.6837112"><ele>1398.3333333333333</ele><time>2026-05-03T10:07:13.152Z</time></trkpt><trkpt lat="43.6314329" lon="11.683589"><ele>1397.6666666666665</ele><time>2026-05-03T10:07:14.154Z</time></trkpt><trkpt lat="43.6314167" lon="11.6834758"><ele>1397.0</ele><time>2026-05-03T10:07:15.152Z</time></trkpt><trkpt lat="43.6314183" lon="11.6833677"><ele>1396.3333333333333</ele><time>2026-05-03T10:07:16.154Z</time></trkpt><trkpt lat="43.6314272" lon="11.6832725"><ele>1395.6666666666667</ele><time>2026-05-03T10:07:17.154Z</time></trkpt><trkpt lat="43.6314449" lon="11.6831233"><ele>1395.0</ele><time>2026-05-03T10:07:19.154Z</time></trkpt><trkpt lat="43.6314652" lon="11.6830275"><ele>1395.0</ele><time>2026-05-03T10:07:21.153Z</time></trkpt><trkpt lat="43.631534" lon="11.6829726"><ele>1395.0</ele><time>2026-05-03T10:07:24.154Z</time></trkpt><trkpt lat="43.6316108" lon="11.6829888"><ele>1395.0</ele><time>2026-05-03T10:07:27.154Z</time></trkpt><trkpt lat="43.6316896" lon="11.6829474"><ele>1395.0</ele><time>2026-05-03T10:07:30.153Z</time></trkpt><trkpt lat="43.6316809" lon="11.6828515"><ele>1395.0</ele><time>2026-05-03T10:07:32.154Z</time></trkpt><trkpt lat="43.6316645" lon="11.6827377"><ele>1395.0</ele><time>2026-05-03T10:07:34.154Z</time></trkpt><trkpt lat="43.6316624" lon="11.6826428"><ele>1393.5</ele><time>2026-05-03T10:07:36.154Z</time></trkpt><trkpt lat="43.631671" lon="11.6825395"><ele>1392.0</ele><time>2026-05-03T10:07:39.154Z</time></trkpt><trkpt lat="43.6316628" lon="11.6824226"><ele>1390.5</ele><time>2026-05-03T10:07:42.154Z</time></trkpt><trkpt lat="43.6316498" lon="11.6823142"><ele>1389.0</ele><time>2026-05-03T10:07:44.153Z</time></trkpt><trkpt lat="43.6316102" lon="11.6822437"><ele>1387.5</ele><time>2026-05-03T10:07:47.154Z</time></trkpt><trkpt lat="43.6316556" lon="11.6823337"><ele>1386.0</ele><time>2026-05-03T10:07:56.153Z</time></trkpt><trkpt lat="43.6316603" lon="11.6824713"><ele>1386.0</ele><time>2026-05-03T10:07:58.154Z</time></trkpt><trkpt lat="43.6316512" lon="11.6825832"><ele>1386.0</ele><time>2026-05-03T10:08:02.154Z</time></trkpt><trkpt lat="43.6316741" lon="11.6826688"><ele>1386.0</ele><time>2026-05-03T10:08:04.153Z</time></trkpt><trkpt lat="43.6316741" lon="11.6827831"><ele>1386.0</ele><time>2026-05-03T10:08:06.154Z</time></trkpt><trkpt lat="43.6316972" lon="11.6829137"><ele>1386.0</ele><time>2026-05-03T10:08:08.152Z</time></trkpt><trkpt lat="43.6317186" lon="11.6830252"><ele>1386.0</ele><time>2026-05-03T10:08:10.154Z</time></trkpt><trkpt lat="43.6317219" lon="11.6831274"><ele>1387.5</ele><time>2026-05-03T10:08:12.153Z</time></trkpt><trkpt lat="43.6317099" lon="11.6832784"><ele>1389.0</ele><time>2026-05-03T10:08:14.153Z</time></trkpt><trkpt lat="43.6317352" lon="11.6834364"><ele>1390.5</ele><time>2026-05-03T10:08:16.154Z</time></trkpt><trkpt lat="43.6317695" lon="11.6835192"><ele>1392.0</ele><time>2026-05-03T10:08:17.152Z</time></trkpt><trkpt lat="43.6318174" lon="11.6835958"><ele>1393.5</ele><time>2026-05-03T10:08:18.153Z</time></trkpt><trkpt lat="43.6318746" lon="11.6836648"><ele>1395.0</ele><time>2026-05-03T10:08:19.153Z</time></trkpt><trkpt lat="43.6319361" lon="11.6837259"><ele>1399.4285714285716</ele><time>2026-05-03T10:08:20.154Z</time></trkpt><trkpt lat="43.6319951" lon="11.683784"><ele>1403.8571428571427</ele><time>2026-05-03T10:08:21.153Z</time></trkpt><trkpt lat="43.6320521" lon="11.6838485"><ele>1408.2857142857142</ele><time>2026-05-03T10:08:22.153Z</time></trkpt><trkpt lat="43.6321107" lon="11.6839111"><ele>1412.7142857142858</ele><time>2026-05-03T10:08:23.154Z</time></trkpt><trkpt lat="43.63217" lon="11.6839666"><ele>1417.1428571428573</ele><time>2026-05-03T10:08:24.154Z</time></trkpt><trkpt lat="43.6322341" lon="11.6839991"><ele>1421.5714285714284</ele><time>2026-05-03T10:08:25.153Z</time></trkpt><trkpt lat="43.632297" lon="11.6840041"><ele>1426.0</ele><time>2026-05-03T10:08:26.154Z</time></trkpt><trkpt lat="43.6323661" lon="11.6839825"><ele>1426.0</ele><time>2026-05-03T10:08:27.154Z</time></trkpt><trkpt lat="43.6324412" lon="11.6839307"><ele>1426.0</ele><time>2026-05-03T10:08:28.154Z</time></trkpt><trkpt lat="43.6325176" lon="11.6838681"><ele>1426.0</ele><time>2026-05-03T10:08:29.153Z</time></trkpt><trkpt lat="43.6325782" lon="11.6838284"><ele>1426.0</ele><time>2026-05-03T10:08:30.153Z</time></trkpt><trkpt lat="43.6326471" lon="11.6837815"><ele>1426.0</ele><time>2026-05-03T10:08:32.154Z</time></trkpt><trkpt lat="43.6327388" lon="11.683778"><ele>1426.0</ele><time>2026-05-03T10:08:34.154Z</time></trkpt><trkpt lat="43.6328085" lon="11.6837574"><ele>1426.5</ele><time>2026-05-03T10:08:35.153Z</time></trkpt><trkpt lat="43.6328888" lon="11.6837299"><ele>1427.0</ele><time>2026-05-03T10:08:36.152Z</time></trkpt><trkpt lat="43.6329725" lon="11.6836952"><ele>1427.5</ele><time>2026-05-03T10:08:37.154Z</time></trkpt><trkpt lat="43.6330547" lon="11.6836435"><ele>1428.0</ele><time>2026-05-03T10:08:38.154Z</time></trkpt><trkpt lat="43.6331215" lon="11.6835638"><ele>1428.5</ele><time>2026-05-03T10:08:39.154Z</time></trkpt><trkpt lat="43.6331824" lon="11.6834824"><ele>1429.0</ele><time>2026-05-03T10:08:40.152Z</time></trkpt><trkpt lat="43.6332494" lon="11.6834127"><ele>1429.0</ele><time>2026-05-03T10:08:41.154Z</time></trkpt><trkpt lat="43.6333099" lon="11.6833548"><ele>1429.0</ele><time>2026-05-03T10:08:42.154Z</time></trkpt><trkpt lat="43.6333704" lon="11.6832861"><ele>1429.0</ele><time>2026-05-03T10:08:44.153Z</time></trkpt><trkpt lat="43.6334404" lon="11.6832198"><ele>1429.0</ele><time>2026-05-03T10:08:46.154Z</time></trkpt><trkpt lat="43.6335223" lon="11.6831664"><ele>1429.0</ele><time>2026-05-03T10:08:48.154Z</time></trkpt><trkpt lat="43.6336272" lon="11.6831328"><ele>1429.0</ele><time>2026-05-03T10:08:50.154Z</time></trkpt><trkpt lat="43.6337318" lon="11.6831002"><ele>1431.0</ele><time>2026-05-03T10:08:52.153Z</time></trkpt><trkpt lat="43.6338313" lon="11.6830752"><ele>1433.0</ele><time>2026-05-03T10:08:54.154Z</time></trkpt><trkpt lat="43.6339395" lon="11.6830503"><ele>1435.0</ele><time>2026-05-03T10:08:56.153Z</time></trkpt><trkpt lat="43.6340534" lon="11.6830369"><ele>1437.0</ele><time>2026-05-03T10:08:58.153Z</time></trkpt><trkpt lat="43.6341785" lon="11.6830564"><ele>1437.0</ele><time>2026-05-03T10:09:00.154Z</time></trkpt><trkpt lat="43.6342435" lon="11.6830675"><ele>1437.0</ele><time>2026-05-03T10:09:01.154Z</time></trkpt><trkpt lat="43.6343086" lon="11.6830681"><ele>1437.0</ele><time>2026-05-03T10:09:02.154Z</time></trkpt><trkpt lat="43.6343748" lon="11.6830644"><ele>1437.0</ele><time>2026-05-03T10:09:03.153Z</time></trkpt><trkpt lat="43.6344428" lon="11.6830559"><ele>1437.0</ele><time>2026-05-03T10:09:04.154Z</time></trkpt><trkpt lat="43.6345067" lon="11.6830432"><ele>1437.0</ele><time>2026-05-03T10:09:05.153Z</time></trkpt><trkpt lat="43.6346092" lon="11.6829993"><ele>1437.0</ele><time>2026-05-03T10:09:07.154Z</time></trkpt><trkpt lat="43.6346891" lon="11.682933"><ele>1437.3999999999999</ele><time>2026-05-03T10:09:09.154Z</time></trkpt><trkpt lat="43.6347692" lon="11.6828566"><ele>1437.8</ele><time>2026-05-03T10:09:11.152Z</time></trkpt><trkpt lat="43.6348542" lon="11.6827801"><ele>1438.2</ele><time>2026-05-03T10:09:13.153Z</time></trkpt><trkpt lat="43.6349331" lon="11.6827066"><ele>1438.6</ele><time>2026-05-03T10:09:15.154Z</time></trkpt><trkpt lat="43.635007" lon="11.6826306"><ele>1439.0</ele><time>2026-05-03T10:09:17.154Z</time></trkpt><trkpt lat="43.635084" lon="11.6825373"><ele>1439.6</ele><time>2026-05-03T10:09:19.154Z</time></trkpt><trkpt lat="43.6351752" lon="11.6824371"><ele>1440.2</ele><time>2026-05-03T10:09:21.153Z</time></trkpt><trkpt lat="43.6352273" lon="11.6823864"><ele>1440.8</ele><time>2026-05-03T10:09:22.153Z</time></trkpt><trkpt lat="43.6353337" lon="11.6823198"><ele>1441.3999999999999</ele><time>2026-05-03T10:09:24.153Z</time></trkpt><trkpt lat="43.6354533" lon="11.6822741"><ele>1442.0</ele><time>2026-05-03T10:09:26.154Z</time></trkpt><trkpt lat="43.6355218" lon="11.6822501"><ele>1444.3333333333335</ele><time>2026-05-03T10:09:27.153Z</time></trkpt><trkpt lat="43.6355926" lon="11.6822277"><ele>1446.6666666666667</ele><time>2026-05-03T10:09:28.154Z</time></trkpt><trkpt lat="43.6356604" lon="11.6821942"><ele>1449.0</ele><time>2026-05-03T10:09:29.153Z</time></trkpt><trkpt lat="43.6357315" lon="11.682145"><ele>1451.3333333333333</ele><time>2026-05-03T10:09:30.153Z</time></trkpt><trkpt lat="43.6358069" lon="11.6820863"><ele>1453.6666666666665</ele><time>2026-05-03T10:09:31.152Z</time></trkpt><trkpt lat="43.6358838" lon="11.6820246"><ele>1456.0</ele><time>2026-05-03T10:09:32.154Z</time></trkpt><trkpt lat="43.6359491" lon="11.681965"><ele>1457.0</ele><time>2026-05-03T10:09:33.153Z</time></trkpt><trkpt lat="43.6360555" lon="11.6818763"><ele>1458.0</ele><time>2026-05-03T10:09:35.154Z</time></trkpt><trkpt lat="43.6361557" lon="11.6817933"><ele>1459.0</ele><time>2026-05-03T10:09:37.153Z</time></trkpt><trkpt lat="43.6362649" lon="11.6817364"><ele>1460.0</ele><time>2026-05-03T10:09:39.154Z</time></trkpt><trkpt lat="43.6363829" lon="11.681689"><ele>1464.0</ele><time>2026-05-03T10:09:41.154Z</time></trkpt><trkpt lat="43.6364454" lon="11.6816509"><ele>1468.0</ele><time>2026-05-03T10:09:42.154Z</time></trkpt><trkpt lat="43.6365102" lon="11.6816095"><ele>1472.0</ele><time>2026-05-03T10:09:43.154Z</time></trkpt><trkpt lat="43.636574" lon="11.6815795"><ele>1476.0</ele><time>2026-05-03T10:09:44.153Z</time></trkpt><trkpt lat="43.6366391" lon="11.6815571"><ele>1480.0</ele><time>2026-05-03T10:09:45.154Z</time></trkpt><trkpt lat="43.6367632" lon="11.6815307"><ele>1484.0</ele><time>2026-05-03T10:09:47.152Z</time></trkpt><trkpt lat="43.6368664" lon="11.6814895"><ele>1484.0</ele><time>2026-05-03T10:09:49.153Z</time></trkpt><trkpt lat="43.6369635" lon="11.6814374"><ele>1484.0</ele><time>2026-05-03T10:09:51.154Z</time></trkpt><trkpt lat="43.6370835" lon="11.6813532"><ele>1484.0</ele><time>2026-05-03T10:09:53.153Z</time></trkpt><trkpt lat="43.6371497" lon="11.6813056"><ele>1484.0</ele><time>2026-05-03T10:09:54.152Z</time></trkpt><trkpt lat="43.637217" lon="11.6812629"><ele>1484.0</ele><time>2026-05-03T10:09:55.154Z</time></trkpt><trkpt lat="43.6372918" lon="11.6812172"><ele>1483.3333333333335</ele><time>2026-05-03T10:09:56.154Z</time></trkpt><trkpt lat="43.6373617" lon="11.6811703"><ele>1482.6666666666667</ele><time>2026-05-03T10:09:57.154Z</time></trkpt><trkpt lat="43.637427" lon="11.681115"><ele>1482.0</ele><time>2026-05-03T10:09:58.154Z</time></trkpt><trkpt lat="43.6375022" lon="11.6810625"><ele>1481.3333333333333</ele><time>2026-05-03T10:09:59.153Z</time></trkpt><trkpt lat="43.6375838" lon="11.6810252"><ele>1480.6666666666665</ele><time>2026-05-03T10:10:00.153Z</time></trkpt><trkpt lat="43.637662" lon="11.6809951"><ele>1480.0</ele><time>2026-05-03T10:10:01.154Z</time></trkpt><trkpt lat="43.6377466" lon="11.680965"><ele>1480.6</ele><time>2026-05-03T10:10:02.153Z</time></trkpt><trkpt lat="43.6378385" lon="11.6809381"><ele>1481.2</ele><time>2026-05-03T10:10:03.154Z</time></trkpt><trkpt lat="43.637931" lon="11.6809101"><ele>1481.8000000000002</ele><time>2026-05-03T10:10:04.154Z</time></trkpt><trkpt lat="43.638027" lon="11.6808832"><ele>1482.4</ele><time>2026-05-03T10:10:05.154Z</time></trkpt><trkpt lat="43.6381288" lon="11.6808577"><ele>1483.0</ele><time>2026-05-03T10:10:06.154Z</time></trkpt><trkpt lat="43.6382317" lon="11.6808241"><ele>1483.0</ele><time>2026-05-03T10:10:07.154Z</time></trkpt><trkpt lat="43.6383273" lon="11.6807874"><ele>1483.0</ele><time>2026-05-03T10:10:08.154Z</time></trkpt><trkpt lat="43.6384085" lon="11.6807567"><ele>1483.0</ele><time>2026-05-03T10:10:09.154Z</time></trkpt><trkpt lat="43.6384752" lon="11.6807207"><ele>1483.0</ele><time>2026-05-03T10:10:10.154Z</time></trkpt><trkpt lat="43.6385525" lon="11.6806754"><ele>1483.0</ele><time>2026-05-03T10:10:11.153Z</time></trkpt><trkpt lat="43.6386378" lon="11.6806346"><ele>1483.0</ele><time>2026-05-03T10:10:12.153Z</time></trkpt><trkpt lat="43.6387166" lon="11.6805905"><ele>1481.6000000000001</ele><time>2026-05-03T10:10:13.154Z</time></trkpt><trkpt lat="43.6388007" lon="11.6805318"><ele>1480.2</ele><time>2026-05-03T10:10:14.153Z</time></trkpt><trkpt lat="43.6388801" lon="11.6804704"><ele>1478.8</ele><time>2026-05-03T10:10:15.154Z</time></trkpt><trkpt lat="43.6389656" lon="11.6804081"><ele>1477.4</ele><time>2026-05-03T10:10:16.154Z</time></trkpt><trkpt lat="43.6390561" lon="11.6803398"><ele>1476.0</ele><time>2026-05-03T10:10:17.154Z</time></trkpt><trkpt lat="43.6391529" lon="11.6802766"><ele>1476.0</ele><time>2026-05-03T10:10:18.153Z</time></trkpt><trkpt lat="43.6392536" lon="11.6802191"><ele>1476.0</ele><time>2026-05-03T10:10:19.154Z</time></trkpt><trkpt lat="43.6393564" lon="11.6801654"><ele>1476.0</ele><time>2026-05-03T10:10:20.153Z</time></trkpt><trkpt lat="43.6394562" lon="11.6801161"><ele>1476.0</ele><time>2026-05-03T10:10:21.153Z</time></trkpt><trkpt lat="43.6395345" lon="11.6800442"><ele>1476.0</ele><time>2026-05-03T10:10:22.154Z</time></trkpt><trkpt lat="43.6396099" lon="11.6799955"><ele>1477.5</ele><time>2026-05-03T10:10:23.154Z</time></trkpt><trkpt lat="43.6396896" lon="11.6799569"><ele>1479.0</ele><time>2026-05-03T10:10:24.154Z</time></trkpt><trkpt lat="43.6397626" lon="11.6799085"><ele>1480.5</ele><time>2026-05-03T10:10:25.154Z</time></trkpt><trkpt lat="43.6398265" lon="11.679852"><ele>1482.0</ele><time>2026-05-03T10:10:26.154Z</time></trkpt><trkpt lat="43.6398923" lon="11.6798013"><ele>1483.5</ele><time>2026-05-03T10:10:27.152Z</time></trkpt><trkpt lat="43.6399616" lon="11.6797716"><ele>1485.0</ele><time>2026-05-03T10:10:28.154Z</time></trkpt><trkpt lat="43.6400365" lon="11.6797459"><ele>1485.0</ele><time>2026-05-03T10:10:29.154Z</time></trkpt><trkpt lat="43.640115" lon="11.6797198"><ele>1485.0</ele><time>2026-05-03T10:10:30.153Z</time></trkpt><trkpt lat="43.640197" lon="11.6797057"><ele>1485.0</ele><time>2026-05-03T10:10:31.154Z</time></trkpt><trkpt lat="43.6402805" lon="11.6797031"><ele>1485.0</ele><time>2026-05-03T10:10:32.153Z</time></trkpt><trkpt lat="43.6403598" lon="11.6797006"><ele>1485.0</ele><time>2026-05-03T10:10:33.154Z</time></trkpt><trkpt lat="43.640438" lon="11.6796784"><ele>1485.0</ele><time>2026-05-03T10:10:34.153Z</time></trkpt><trkpt lat="43.6405163" lon="11.6796512"><ele>1485.8333333333333</ele><time>2026-05-03T10:10:35.154Z</time></trkpt><trkpt lat="43.6405901" lon="11.679616"><ele>1486.6666666666667</ele><time>2026-05-03T10:10:36.154Z</time></trkpt><trkpt lat="43.6406675" lon="11.6795817"><ele>1487.5</ele><time>2026-05-03T10:10:37.153Z</time></trkpt><trkpt lat="43.6407448" lon="11.6795513"><ele>1488.3333333333335</ele><time>2026-05-03T10:10:38.154Z</time></trkpt><trkpt lat="43.640831" lon="11.679521"><ele>1489.1666666666667</ele><time>2026-05-03T10:10:39.154Z</time></trkpt><trkpt lat="43.6409247" lon="11.6794963"><ele>1490.0</ele><time>2026-05-03T10:10:40.153Z</time></trkpt><trkpt lat="43.6410201" lon="11.6794782"><ele>1490.0</ele><time>2026-05-03T10:10:41.154Z</time></trkpt><trkpt lat="43.641117" lon="11.6794618"><ele>1490.0</ele><time>2026-05-03T10:10:42.154Z</time></trkpt><trkpt lat="43.6412143" lon="11.6794428"><ele>1490.0</ele><time>2026-05-03T10:10:43.153Z</time></trkpt><trkpt lat="43.6413084" lon="11.6794249"><ele>1490.0</ele><time>2026-05-03T10:10:44.154Z</time></trkpt><trkpt lat="43.6413991" lon="11.6794048"><ele>1490.0</ele><time>2026-05-03T10:10:45.152Z</time></trkpt><trkpt lat="43.6414838" lon="11.6793813"><ele>1491.4</ele><time>2026-05-03T10:10:46.152Z</time></trkpt><trkpt lat="43.6415687" lon="11.6793618"><ele>1492.8</ele><time>2026-05-03T10:10:47.153Z</time></trkpt><trkpt lat="43.6416607" lon="11.679345"><ele>1494.1999999999998</ele><time>2026-05-03T10:10:48.154Z</time></trkpt><trkpt lat="43.6417509" lon="11.6793388"><ele>1495.6</ele><time>2026-05-03T10:10:49.154Z</time></trkpt><trkpt lat="43.641842" lon="11.6793428"><ele>1497.0</ele><time>2026-05-03T10:10:50.153Z</time></trkpt><trkpt lat="43.6419322" lon="11.6793529"><ele>1497.5</ele><time>2026-05-03T10:10:51.154Z</time></trkpt><trkpt lat="43.642017" lon="11.6793428"><ele>1498.0</ele><time>2026-05-03T10:10:52.154Z</time></trkpt><trkpt lat="43.6420933" lon="11.6793386"><ele>1498.5</ele><time>2026-05-03T10:10:53.153Z</time></trkpt><trkpt lat="43.6421706" lon="11.6793416"><ele>1499.0</ele><time>2026-05-03T10:10:54.153Z</time></trkpt><trkpt lat="43.6422497" lon="11.6793513"><ele>1499.5</ele><time>2026-05-03T10:10:55.154Z</time></trkpt><trkpt lat="43.6423224" lon="11.6793663"><ele>1500.0</ele><time>2026-05-03T10:10:56.153Z</time></trkpt><trkpt lat="43.6423993" lon="11.679375"><ele>1500.0</ele><time>2026-05-03T10:10:57.153Z</time></trkpt><trkpt lat="43.6424771" lon="11.6793819"><ele>1500.0</ele><time>2026-05-03T10:10:58.153Z</time></trkpt><trkpt lat="43.6425447" lon="11.6793879"><ele>1500.0</ele><time>2026-05-03T10:10:59.154Z</time></trkpt><trkpt lat="43.6426797" lon="11.679419"><ele>1500.0</ele><time>2026-05-03T10:11:01.154Z</time></trkpt><trkpt lat="43.6427557" lon="11.679443"><ele>1500.0</ele><time>2026-05-03T10:11:02.154Z</time></trkpt><trkpt lat="43.6428381" lon="11.6794696"><ele>1500.0</ele><time>2026-05-03T10:11:03.154Z</time></trkpt><trkpt lat="43.6429211" lon="11.6795036"><ele>1503.0</ele><time>2026-05-03T10:11:04.153Z</time></trkpt><trkpt lat="43.643014" lon="11.6795345"><ele>1506.0</ele><time>2026-05-03T10:11:05.154Z</time></trkpt><trkpt lat="43.6431177" lon="11.6795481"><ele>1509.0</ele><time>2026-05-03T10:11:06.153Z</time></trkpt><trkpt lat="43.6432155" lon="11.6795466"><ele>1512.0</ele><time>2026-05-03T10:11:07.154Z</time></trkpt><trkpt lat="43.6433156" lon="11.6795428"><ele>1515.0</ele><time>2026-05-03T10:11:08.154Z</time></trkpt><trkpt lat="43.6434053" lon="11.6795438"><ele>1515.0</ele><time>2026-05-03T10:11:09.154Z</time></trkpt><trkpt lat="43.6435057" lon="11.6795409"><ele>1515.0</ele><time>2026-05-03T10:11:10.153Z</time></trkpt><trkpt lat="43.6436028" lon="11.6795402"><ele>1515.0</ele><time>2026-05-03T10:11:11.152Z</time></trkpt><trkpt lat="43.6437031" lon="11.679546"><ele>1515.0</ele><time>2026-05-03T10:11:12.154Z</time></trkpt><trkpt lat="43.6438011" lon="11.6795571"><ele>1515.0</ele><time>2026-05-03T10:11:13.154Z</time></trkpt><trkpt lat="43.6438955" lon="11.6795779"><ele>1515.6666666666667</ele><time>2026-05-03T10:11:14.154Z</time></trkpt><trkpt lat="43.6439874" lon="11.6795968"><ele>1516.3333333333333</ele><time>2026-05-03T10:11:15.154Z</time></trkpt><trkpt lat="43.6440773" lon="11.6796085"><ele>1517.0</ele><time>2026-05-03T10:11:16.154Z</time></trkpt><trkpt lat="43.6441546" lon="11.6796158"><ele>1517.6666666666665</ele><time>2026-05-03T10:11:17.153Z</time></trkpt><trkpt lat="43.6442231" lon="11.6796264"><ele>1518.3333333333333</ele><time>2026-05-03T10:11:18.154Z</time></trkpt><trkpt lat="43.644286" lon="11.6796318"><ele>1519.0</ele><time>2026-05-03T10:11:19.153Z</time></trkpt><trkpt lat="43.6443744" lon="11.679605"><ele>1519.0</ele><time>2026-05-03T10:11:21.154Z</time></trkpt><trkpt lat="43.6444172" lon="11.679515"><ele>1519.0</ele><time>2026-05-03T10:12:37.154Z</time></trkpt><trkpt lat="43.6444605" lon="11.6793855"><ele>1519.0</ele><time>2026-05-03T10:12:39.154Z</time></trkpt><trkpt lat="43.6444989" lon="11.6792198"><ele>1519.0</ele><time>2026-05-03T10:12:41.154Z</time></trkpt><trkpt lat="43.6445255" lon="11.6791312"><ele>1519.0</ele><time>2026-05-03T10:12:42.154Z</time></trkpt><trkpt lat="43.6445477" lon="11.679032"><ele>1518.25</ele><time>2026-05-03T10:12:43.153Z</time></trkpt><trkpt lat="43.6445755" lon="11.6789041"><ele>1517.5</ele><time>2026-05-03T10:12:44.154Z</time></trkpt><trkpt lat="43.6446133" lon="11.6787539"><ele>1516.75</ele><time>2026-05-03T10:12:45.152Z</time></trkpt><trkpt lat="43.6446574" lon="11.67859"><ele>1516.0</ele><time>2026-05-03T10:12:46.154Z</time></trkpt><trkpt lat="43.6446993" lon="11.6784155"><ele>1514.25</ele><time>2026-05-03T10:12:47.154Z</time></trkpt><trkpt lat="43.6447361" lon="11.6782454"><ele>1512.5</ele><time>2026-05-03T10:12:48.153Z</time></trkpt><trkpt lat="43.6447726" lon="11.6780827"><ele>1510.75</ele><time>2026-05-03T10:12:49.154Z</time></trkpt><trkpt lat="43.6448023" lon="11.6779359"><ele>1509.0</ele><time>2026-05-03T10:12:50.154Z</time></trkpt><trkpt lat="43.644828" lon="11.6778045"><ele>1508.3333333333333</ele><time>2026-05-03T10:12:51.154Z</time></trkpt><trkpt lat="43.6448524" lon="11.6776816"><ele>1507.6666666666667</ele><time>2026-05-03T10:12:52.153Z</time></trkpt><trkpt lat="43.6448773" lon="11.6775733"><ele>1507.0</ele><time>2026-05-03T10:12:53.154Z</time></trkpt><trkpt lat="43.6448926" lon="11.6774819"><ele>1506.3333333333335</ele><time>2026-05-03T10:12:54.154Z</time></trkpt><trkpt lat="43.6449137" lon="11.6773968"><ele>1505.6666666666667</ele><time>2026-05-03T10:12:55.154Z</time></trkpt><trkpt lat="43.644945" lon="11.6773122"><ele>1505.0</ele><time>2026-05-03T10:12:56.153Z</time></trkpt><trkpt lat="43.6449709" lon="11.6772084"><ele>1505.0</ele><time>2026-05-03T10:12:57.154Z</time></trkpt><trkpt lat="43.6450009" lon="11.6770915"><ele>1505.0</ele><time>2026-05-03T10:12:58.153Z</time></trkpt><trkpt lat="43.6450318" lon="11.6769618"><ele>1505.0</ele><time>2026-05-03T10:12:59.153Z</time></trkpt><trkpt lat="43.6450632" lon="11.6768307"><ele>1505.0</ele><time>2026-05-03T10:13:00.154Z</time></trkpt><trkpt lat="43.6450907" lon="11.6766964"><ele>1505.0</ele><time>2026-05-03T10:13:01.154Z</time></trkpt><trkpt lat="43.6451183" lon="11.6765651"><ele>1504.5</ele><time>2026-05-03T10:13:02.153Z</time></trkpt><trkpt lat="43.6451509" lon="11.6764429"><ele>1504.0</ele><time>2026-05-03T10:13:03.152Z</time></trkpt><trkpt lat="43.6451928" lon="11.6763349"><ele>1503.5</ele><time>2026-05-03T10:13:04.154Z</time></trkpt><trkpt lat="43.645244" lon="11.6762345"><ele>1503.0</ele><time>2026-05-03T10:13:05.154Z</time></trkpt><trkpt lat="43.6453055" lon="11.6761494"><ele>1502.5</ele><time>2026-05-03T10:13:06.153Z</time></trkpt><trkpt lat="43.6453711" lon="11.6760631"><ele>1502.0</ele><time>2026-05-03T10:13:07.153Z</time></trkpt><trkpt lat="43.6454299" lon="11.6759697"><ele>1504.6666666666667</ele><time>2026-05-03T10:13:08.152Z</time></trkpt><trkpt lat="43.6454856" lon="11.6758708"><ele>1507.3333333333335</ele><time>2026-05-03T10:13:09.154Z</time></trkpt><trkpt lat="43.6455318" lon="11.6757627"><ele>1510.0</ele><time>2026-05-03T10:13:10.154Z</time></trkpt><trkpt lat="43.6455716" lon="11.6756569"><ele>1512.6666666666667</ele><time>2026-05-03T10:13:11.153Z</time></trkpt><trkpt lat="43.6456169" lon="11.6755636"><ele>1515.3333333333333</ele><time>2026-05-03T10:13:12.153Z</time></trkpt><trkpt lat="43.6456529" lon="11.6754671"><ele>1518.0</ele><time>2026-05-03T10:13:13.153Z</time></trkpt><trkpt lat="43.6456863" lon="11.6753665"><ele>1520.2</ele><time>2026-05-03T10:13:14.154Z</time></trkpt><trkpt lat="43.6457194" lon="11.6752578"><ele>1522.4</ele><time>2026-05-03T10:13:15.154Z</time></trkpt><trkpt lat="43.64575" lon="11.6751375"><ele>1524.6000000000001</ele><time>2026-05-03T10:13:16.152Z</time></trkpt><trkpt lat="43.6457782" lon="11.6750093"><ele>1526.8000000000002</ele><time>2026-05-03T10:13:17.152Z</time></trkpt><trkpt lat="43.6458031" lon="11.6748811"><ele>1529.0</ele><time>2026-05-03T10:13:18.153Z</time></trkpt><trkpt lat="43.6458188" lon="11.6747507"><ele>1529.0</ele><time>2026-05-03T10:13:19.153Z</time></trkpt><trkpt lat="43.6458293" lon="11.6746212"><ele>1529.0</ele><time>2026-05-03T10:13:20.154Z</time></trkpt><trkpt lat="43.6458374" lon="11.6745025"><ele>1529.0</ele><time>2026-05-03T10:13:21.152Z</time></trkpt><trkpt lat="43.6458559" lon="11.674383"><ele>1529.0</ele><time>2026-05-03T10:13:22.153Z</time></trkpt><trkpt lat="43.6458917" lon="11.6742935"><ele>1529.0</ele><time>2026-05-03T10:13:23.154Z</time></trkpt><trkpt lat="43.6459399" lon="11.6742213"><ele>1529.0</ele><time>2026-05-03T10:13:24.153Z</time></trkpt><trkpt lat="43.6459948" lon="11.674164"><ele>1529.1666666666667</ele><time>2026-05-03T10:13:25.154Z</time></trkpt><trkpt lat="43.6460535" lon="11.6741093"><ele>1529.3333333333335</ele><time>2026-05-03T10:13:26.154Z</time></trkpt><trkpt lat="43.6461118" lon="11.6740502"><ele>1529.5</ele><time>2026-05-03T10:13:27.153Z</time></trkpt><trkpt lat="43.6461763" lon="11.6739926"><ele>1529.6666666666667</ele><time>2026-05-03T10:13:28.153Z</time></trkpt><trkpt lat="43.6462481" lon="11.6739409"><ele>1529.8333333333333</ele><time>2026-05-03T10:13:29.153Z</time></trkpt><trkpt lat="43.6463245" lon="11.6738985"><ele>1530.0</ele><time>2026-05-03T10:13:30.153Z</time></trkpt><trkpt lat="43.6464056" lon="11.6738702"><ele>1530.0</ele><time>2026-05-03T10:13:31.153Z</time></trkpt><trkpt lat="43.6464852" lon="11.6738442"><ele>1530.0</ele><time>2026-05-03T10:13:32.154Z</time></trkpt><trkpt lat="43.6465653" lon="11.6738168"><ele>1530.0</ele><time>2026-05-03T10:13:33.154Z</time></trkpt><trkpt lat="43.646643" lon="11.6737893"><ele>1530.0</ele><time>2026-05-03T10:13:34.153Z</time></trkpt><trkpt lat="43.6467211" lon="11.6737572"><ele>1530.0</ele><time>2026-05-03T10:13:35.154Z</time></trkpt><trkpt lat="43.6467964" lon="11.6737198"><ele>1530.0</ele><time>2026-05-03T10:13:36.154Z</time></trkpt><trkpt lat="43.6468764" lon="11.6736834"><ele>1530.0</ele><time>2026-05-03T10:13:37.153Z</time></trkpt><trkpt lat="43.64696" lon="11.6736604"><ele>1530.0</ele><time>2026-05-03T10:13:38.153Z</time></trkpt><trkpt lat="43.6470447" lon="11.6736339"><ele>1530.0</ele><time>2026-05-03T10:13:39.154Z</time></trkpt><trkpt lat="43.6471305" lon="11.6735928"><ele>1530.0</ele><time>2026-05-03T10:13:40.154Z</time></trkpt><trkpt lat="43.6472125" lon="11.6735421"><ele>1530.0</ele><time>2026-05-03T10:13:41.152Z</time></trkpt><trkpt lat="43.6472957" lon="11.6734561"><ele>1527.2</ele><time>2026-05-03T10:13:42.153Z</time></trkpt><trkpt lat="43.6473741" lon="11.6733517"><ele>1524.4</ele><time>2026-05-03T10:13:43.154Z</time></trkpt><trkpt lat="43.6474497" lon="11.6732353"><ele>1521.6</ele><time>2026-05-03T10:13:44.153Z</time></trkpt><trkpt lat="43.6475232" lon="11.6731297"><ele>1518.8</ele><time>2026-05-03T10:13:45.154Z</time></trkpt><trkpt lat="43.6476066" lon="11.6730147"><ele>1516.0</ele><time>2026-05-03T10:13:46.153Z</time></trkpt><trkpt lat="43.6476914" lon="11.6728999"><ele>1516.0</ele><time>2026-05-03T10:13:47.154Z</time></trkpt><trkpt lat="43.6477769" lon="11.6727821"><ele>1516.0</ele><time>2026-05-03T10:13:48.153Z</time></trkpt><trkpt lat="43.6478658" lon="11.6726597"><ele>1516.0</ele><time>2026-05-03T10:13:49.153Z</time></trkpt><trkpt lat="43.6479571" lon="11.6725469"><ele>1516.0</ele><time>2026-05-03T10:13:50.153Z</time></trkpt><trkpt lat="43.6480521" lon="11.6724344"><ele>1513.75</ele><time>2026-05-03T10:13:51.153Z</time></trkpt><trkpt lat="43.6481421" lon="11.6723177"><ele>1511.5</ele><time>2026-05-03T10:13:52.153Z</time></trkpt><trkpt lat="43.6482274" lon="11.6721977"><ele>1509.25</ele><time>2026-05-03T10:13:53.154Z</time></trkpt><trkpt lat="43.6483149" lon="11.6720805"><ele>1507.0</ele><time>2026-05-03T10:13:54.154Z</time></trkpt><trkpt lat="43.6484056" lon="11.6719782"><ele>1506.1999999999998</ele><time>2026-05-03T10:13:55.154Z</time></trkpt><trkpt lat="43.6484803" lon="11.6718693"><ele>1505.4</ele><time>2026-05-03T10:13:56.154Z</time></trkpt><trkpt lat="43.6485454" lon="11.6717635"><ele>1504.6</ele><time>2026-05-03T10:13:57.154Z</time></trkpt><trkpt lat="43.6486155" lon="11.6716632"><ele>1503.8000000000002</ele><time>2026-05-03T10:13:58.153Z</time></trkpt><trkpt lat="43.6486865" lon="11.6715643"><ele>1503.0</ele><time>2026-05-03T10:13:59.153Z</time></trkpt><trkpt lat="43.6487512" lon="11.6714568"><ele>1504.8000000000002</ele><time>2026-05-03T10:14:00.153Z</time></trkpt><trkpt lat="43.6488057" lon="11.6713447"><ele>1506.6</ele><time>2026-05-03T10:14:01.154Z</time></trkpt><trkpt lat="43.648855" lon="11.6712262"><ele>1508.4</ele><time>2026-05-03T10:14:02.154Z</time></trkpt><trkpt lat="43.6488947" lon="11.671103"><ele>1510.1999999999998</ele><time>2026-05-03T10:14:03.154Z</time></trkpt><trkpt lat="43.6489219" lon="11.6709749"><ele>1512.0</ele><time>2026-05-03T10:14:04.154Z</time></trkpt><trkpt lat="43.6489588" lon="11.6708551"><ele>1513.0</ele><time>2026-05-03T10:14:05.154Z</time></trkpt><trkpt lat="43.6489971" lon="11.6707382"><ele>1514.0</ele><time>2026-05-03T10:14:06.154Z</time></trkpt><trkpt lat="43.6490416" lon="11.6706298"><ele>1515.0</ele><time>2026-05-03T10:14:07.153Z</time></trkpt><trkpt lat="43.6490815" lon="11.6705287"><ele>1516.0</ele><time>2026-05-03T10:14:08.153Z</time></trkpt><trkpt lat="43.6491351" lon="11.6704391"><ele>1517.0</ele><time>2026-05-03T10:14:09.153Z</time></trkpt><trkpt lat="43.6492002" lon="11.6703629"><ele>1518.0</ele><time>2026-05-03T10:14:10.154Z</time></trkpt><trkpt lat="43.6492723" lon="11.6702894"><ele>1518.1666666666667</ele><time>2026-05-03T10:14:11.153Z</time></trkpt><trkpt lat="43.6493407" lon="11.6702094"><ele>1518.3333333333333</ele><time>2026-05-03T10:14:12.154Z</time></trkpt><trkpt lat="43.6493965" lon="11.6701264"><ele>1518.5</ele><time>2026-05-03T10:14:13.154Z</time></trkpt><trkpt lat="43.6494521" lon="11.6700273"><ele>1518.6666666666665</ele><time>2026-05-03T10:14:14.153Z</time></trkpt><trkpt lat="43.6495091" lon="11.6699444"><ele>1518.8333333333333</ele><time>2026-05-03T10:14:15.154Z</time></trkpt><trkpt lat="43.6495703" lon="11.6698646"><ele>1519.0</ele><time>2026-05-03T10:14:16.153Z</time></trkpt><trkpt lat="43.6496217" lon="11.6697884"><ele>1519.0</ele><time>2026-05-03T10:14:17.154Z</time></trkpt><trkpt lat="43.6496758" lon="11.6697053"><ele>1519.0</ele><time>2026-05-03T10:14:18.154Z</time></trkpt><trkpt lat="43.6497286" lon="11.6696312"><ele>1519.0</ele><time>2026-05-03T10:14:19.153Z</time></trkpt><trkpt lat="43.649766" lon="11.669536"><ele>1519.0</ele><time>2026-05-03T10:14:20.153Z</time></trkpt><trkpt lat="43.6498029" lon="11.6694282"><ele>1519.0</ele><time>2026-05-03T10:14:21.154Z</time></trkpt><trkpt lat="43.6498517" lon="11.6693155"><ele>1519.0</ele><time>2026-05-03T10:14:22.153Z</time></trkpt><trkpt lat="43.6498999" lon="11.6691864"><ele>1519.0</ele><time>2026-05-03T10:14:23.153Z</time></trkpt><trkpt lat="43.6499517" lon="11.6690535"><ele>1519.0</ele><time>2026-05-03T10:14:24.154Z</time></trkpt><trkpt lat="43.6500135" lon="11.6689249"><ele>1519.0</ele><time>2026-05-03T10:14:25.153Z</time></trkpt><trkpt lat="43.6500791" lon="11.6687979"><ele>1519.0</ele><time>2026-05-03T10:14:26.152Z</time></trkpt><trkpt lat="43.6501406" lon="11.6686727"><ele>1519.0</ele><time>2026-05-03T10:14:27.153Z</time></trkpt><trkpt lat="43.6501995" lon="11.6685493"><ele>1519.0</ele><time>2026-05-03T10:14:28.153Z</time></trkpt><trkpt lat="43.6502554" lon="11.6684352"><ele>1519.0</ele><time>2026-05-03T10:14:29.154Z</time></trkpt><trkpt lat="43.6503115" lon="11.6683212"><ele>1519.0</ele><time>2026-05-03T10:14:30.154Z</time></trkpt><trkpt lat="43.6503742" lon="11.6682058"><ele>1519.0</ele><time>2026-05-03T10:14:31.153Z</time></trkpt><trkpt lat="43.650423" lon="11.6681026"><ele>1519.0</ele><time>2026-05-03T10:14:32.154Z</time></trkpt><trkpt lat="43.6504693" lon="11.6680017"><ele>1519.2</ele><time>2026-05-03T10:14:33.154Z</time></trkpt><trkpt lat="43.6505182" lon="11.6679068"><ele>1519.4</ele><time>2026-05-03T10:14:34.154Z</time></trkpt><trkpt lat="43.6505674" lon="11.6678187"><ele>1519.6</ele><time>2026-05-03T10:14:35.154Z</time></trkpt><trkpt lat="43.650608" lon="11.6677426"><ele>1519.8</ele><time>2026-05-03T10:14:36.154Z</time></trkpt><trkpt lat="43.6506686" lon="11.6676135"><ele>1520.0</ele><time>2026-05-03T10:14:38.154Z</time></trkpt><trkpt lat="43.6507189" lon="11.6674838"><ele>1518.6</ele><time>2026-05-03T10:14:40.153Z</time></trkpt><trkpt lat="43.6507809" lon="11.6673446"><ele>1517.2</ele><time>2026-05-03T10:14:42.154Z</time></trkpt><trkpt lat="43.6508395" lon="11.6672275"><ele>1515.8000000000002</ele><time>2026-05-03T10:14:44.153Z</time></trkpt><trkpt lat="43.6508842" lon="11.6671314"><ele>1514.4</ele><time>2026-05-03T10:14:46.153Z</time></trkpt><trkpt lat="43.6509242" lon="11.6670139"><ele>1513.0</ele><time>2026-05-03T10:14:48.154Z</time></trkpt><trkpt lat="43.6509645" lon="11.6668814"><ele>1509.25</ele><time>2026-05-03T10:14:50.153Z</time></trkpt><trkpt lat="43.6510058" lon="11.6667424"><ele>1505.5</ele><time>2026-05-03T10:14:52.154Z</time></trkpt><trkpt lat="43.6510578" lon="11.6665913"><ele>1501.75</ele><time>2026-05-03T10:14:54.153Z</time></trkpt><trkpt lat="43.6511036" lon="11.6664387"><ele>1498.0</ele><time>2026-05-03T10:14:56.154Z</time></trkpt><trkpt lat="43.6511555" lon="11.6662954"><ele>1495.6000000000001</ele><time>2026-05-03T10:14:58.154Z</time></trkpt><trkpt lat="43.6512026" lon="11.6661488"><ele>1493.2</ele><time>2026-05-03T10:15:00.153Z</time></trkpt><trkpt lat="43.6512443" lon="11.6659807"><ele>1490.8</ele><time>2026-05-03T10:15:02.154Z</time></trkpt><trkpt lat="43.6512622" lon="11.6658824"><ele>1488.4</ele><time>2026-05-03T10:15:03.154Z</time></trkpt><trkpt lat="43.651281" lon="11.6657859"><ele>1486.0</ele><time>2026-05-03T10:15:04.154Z</time></trkpt><trkpt lat="43.6513018" lon="11.6656912"><ele>1484.6666666666665</ele><time>2026-05-03T10:15:05.154Z</time></trkpt><trkpt lat="43.6513235" lon="11.6656002"><ele>1483.3333333333333</ele><time>2026-05-03T10:15:06.154Z</time></trkpt><trkpt lat="43.6513485" lon="11.6655139"><ele>1482.0</ele><time>2026-05-03T10:15:07.153Z</time></trkpt><trkpt lat="43.6501406" lon="11.6686727"><ele>1489.3999999999999</ele><time>2026-05-03T10:14:27.153Z</time></trkpt><trkpt lat="43.6501995" lon="11.6685493"><ele>1496.8</ele><time>2026-05-03T10:14:28.153Z</time></trkpt><trkpt lat="43.6502554" lon="11.6684352"><ele>1504.2</ele><time>2026-05-03T10:14:29.154Z</time></trkpt><trkpt lat="43.6503115" lon="11.6683212"><ele>1511.6</ele><time>2026-05-03T10:14:30.154Z</time></trkpt><trkpt lat="43.6503742" lon="11.6682058"><ele>1519.0</ele><time>2026-05-03T10:14:31.153Z</time></trkpt><trkpt lat="43.650423" lon="11.6681026"><ele>1519.1666666666665</ele><time>2026-05-03T10:14:32.154Z</time></trkpt><trkpt lat="43.6504693" lon="11.6680017"><ele>1519.3333333333333</ele><time>2026-05-03T10:14:33.154Z</time></trkpt><trkpt lat="43.6505182" lon="11.6679068"><ele>1519.5</ele><time>2026-05-03T10:14:34.154Z</time></trkpt><trkpt lat="43.6505674" lon="11.6678187"><ele>1519.6666666666667</ele><time>2026-05-03T10:14:35.154Z</time></trkpt><trkpt lat="43.650608" lon="11.6677426"><ele>1519.8333333333335</ele><time>2026-05-03T10:14:36.154Z</time></trkpt><trkpt lat="43.6506686" lon="11.6676135"><ele>1520.0</ele><time>2026-05-03T10:14:38.154Z</time></trkpt><trkpt lat="43.6507189" lon="11.6674838"><ele>1518.6</ele><time>2026-05-03T10:14:40.153Z</time></trkpt><trkpt lat="43.6507809" lon="11.6673446"><ele>1517.2</ele><time>2026-05-03T10:14:42.154Z</time></trkpt><trkpt lat="43.6508395" lon="11.6672275"><ele>1515.8000000000002</ele><time>2026-05-03T10:14:44.153Z</time></trkpt><trkpt lat="43.6508842" lon="11.6671314"><ele>1514.4</ele><time>2026-05-03T10:14:46.153Z</time></trkpt><trkpt lat="43.6509242" lon="11.6670139"><ele>1513.0</ele><time>2026-05-03T10:14:48.154Z</time></trkpt><trkpt lat="43.6509645" lon="11.6668814"><ele>1509.25</ele><time>2026-05-03T10:14:50.153Z</time></trkpt><trkpt lat="43.6510058" lon="11.6667424"><ele>1505.5</ele><time>2026-05-03T10:14:52.154Z</time></trkpt><trkpt lat="43.6510578" lon="11.6665913"><ele>1501.75</ele><time>2026-05-03T10:14:54.153Z</time></trkpt><trkpt lat="43.6511036" lon="11.6664387"><ele>1498.0</ele><time>2026-05-03T10:14:56.154Z</time></trkpt><trkpt lat="43.6511555" lon="11.6662954"><ele>1495.6000000000001</ele><time>2026-05-03T10:14:58.154Z</time></trkpt><trkpt lat="43.6512026" lon="11.6661488"><ele>1493.2</ele><time>2026-05-03T10:15:00.153Z</time></trkpt><trkpt lat="43.6512443" lon="11.6659807"><ele>1490.8</ele><time>2026-05-03T10:15:02.154Z</time></trkpt><trkpt lat="43.6512622" lon="11.6658824"><ele>1488.4</ele><time>2026-05-03T10:15:03.154Z</time></trkpt><trkpt lat="43.651281" lon="11.6657859"><ele>1486.0</ele><time>2026-05-03T10:15:04.154Z</time></trkpt><trkpt lat="43.6513018" lon="11.6656912"><ele>1485.3333333333333</ele><time>2026-05-03T10:15:05.154Z</time></trkpt><trkpt lat="43.6513235" lon="11.6656002"><ele>1484.6666666666665</ele><time>2026-05-03T10:15:06.154Z</time></trkpt><trkpt lat="43.6513485" lon="11.6655139"><ele>1484.0</ele><time>2026-05-03T10:15:07.153Z</time></trkpt><trkpt lat="43.6513709" lon="11.6654317"><ele>1483.3333333333333</ele><time>2026-05-03T10:15:08.153Z</time></trkpt><trkpt lat="43.6514039" lon="11.6652745"><ele>1482.6666666666667</ele><time>2026-05-03T10:15:10.154Z</time></trkpt><trkpt lat="43.6514189" lon="11.6651382"><ele>1482.0</ele><time>2026-05-03T10:15:12.153Z</time></trkpt><trkpt lat="43.6514586" lon="11.6649986"><ele>1481.1666666666667</ele><time>2026-05-03T10:15:14.153Z</time></trkpt><trkpt lat="43.6514953" lon="11.6648298"><ele>1480.3333333333333</ele><time>2026-05-03T10:15:16.153Z</time></trkpt><trkpt lat="43.6515134" lon="11.664737"><ele>1479.5</ele><time>2026-05-03T10:15:17.153Z</time></trkpt><trkpt lat="43.6515324" lon="11.664647"><ele>1478.6666666666665</ele><time>2026-05-03T10:15:18.153Z</time></trkpt><trkpt lat="43.6515509" lon="11.6645406"><ele>1477.8333333333333</ele><time>2026-05-03T10:15:19.154Z</time></trkpt><trkpt lat="43.6515724" lon="11.6644275"><ele>1477.0</ele><time>2026-05-03T10:15:20.154Z</time></trkpt><trkpt lat="43.6515974" lon="11.664303"><ele>1476.3999999999999</ele><time>2026-05-03T10:15:21.154Z</time></trkpt><trkpt lat="43.651626" lon="11.664175"><ele>1475.8</ele><time>2026-05-03T10:15:22.153Z</time></trkpt><trkpt lat="43.6516611" lon="11.6640408"><ele>1475.2</ele><time>2026-05-03T10:15:23.154Z</time></trkpt><trkpt lat="43.6516985" lon="11.6639107"><ele>1474.6</ele><time>2026-05-03T10:15:24.154Z</time></trkpt><trkpt lat="43.6517242" lon="11.6637805"><ele>1474.0</ele><time>2026-05-03T10:15:25.153Z</time></trkpt><trkpt lat="43.6517357" lon="11.6636565"><ele>1475.1666666666665</ele><time>2026-05-03T10:15:26.153Z</time></trkpt><trkpt lat="43.6517598" lon="11.6635416"><ele>1476.3333333333333</ele><time>2026-05-03T10:15:27.154Z</time></trkpt><trkpt lat="43.651788" lon="11.6634303"><ele>1477.5</ele><time>2026-05-03T10:15:28.153Z</time></trkpt><trkpt lat="43.65181" lon="11.66333"><ele>1478.6666666666667</ele><time>2026-05-03T10:15:29.154Z</time></trkpt><trkpt lat="43.6518275" lon="11.6632256"><ele>1479.8333333333335</ele><time>2026-05-03T10:15:30.154Z</time></trkpt><trkpt lat="43.6518531" lon="11.6631233"><ele>1481.0</ele><time>2026-05-03T10:15:31.154Z</time></trkpt><trkpt lat="43.651884" lon="11.6630159"><ele>1481.0</ele><time>2026-05-03T10:15:32.154Z</time></trkpt><trkpt lat="43.6519175" lon="11.6629043"><ele>1481.0</ele><time>2026-05-03T10:15:33.153Z</time></trkpt><trkpt lat="43.6519577" lon="11.6627918"><ele>1481.0</ele><time>2026-05-03T10:15:34.154Z</time></trkpt><trkpt lat="43.6520009" lon="11.6626776"><ele>1481.0</ele><time>2026-05-03T10:15:35.153Z</time></trkpt><trkpt lat="43.6520395" lon="11.6625816"><ele>1481.0</ele><time>2026-05-03T10:15:36.153Z</time></trkpt><trkpt lat="43.6520753" lon="11.662471"><ele>1481.0</ele><time>2026-05-03T10:15:37.154Z</time></trkpt><trkpt lat="43.6521062" lon="11.6623464"><ele>1481.4</ele><time>2026-05-03T10:15:38.152Z</time></trkpt><trkpt lat="43.6521347" lon="11.6622227"><ele>1481.8</ele><time>2026-05-03T10:15:39.153Z</time></trkpt><trkpt lat="43.6521637" lon="11.6620969"><ele>1482.2</ele><time>2026-05-03T10:15:40.153Z</time></trkpt><trkpt lat="43.6521911" lon="11.661967"><ele>1482.6000000000001</ele><time>2026-05-03T10:15:41.153Z</time></trkpt><trkpt lat="43.6522185" lon="11.661841"><ele>1483.0</ele><time>2026-05-03T10:15:42.152Z</time></trkpt><trkpt lat="43.6522509" lon="11.6617221"><ele>1483.3333333333333</ele><time>2026-05-03T10:15:43.152Z</time></trkpt><trkpt lat="43.652285" lon="11.6616109"><ele>1483.6666666666665</ele><time>2026-05-03T10:15:44.153Z</time></trkpt><trkpt lat="43.6523217" lon="11.6615079"><ele>1484.0</ele><time>2026-05-03T10:15:45.154Z</time></trkpt><trkpt lat="43.6523621" lon="11.6614133"><ele>1484.3333333333333</ele><time>2026-05-03T10:15:46.153Z</time></trkpt><trkpt lat="43.6523996" lon="11.6613105"><ele>1484.6666666666667</ele><time>2026-05-03T10:15:47.154Z</time></trkpt><trkpt lat="43.6524399" lon="11.661213"><ele>1485.0</ele><time>2026-05-03T10:15:48.153Z</time></trkpt><trkpt lat="43.6524818" lon="11.6611183"><ele>1484.6</ele><time>2026-05-03T10:15:49.153Z</time></trkpt><trkpt lat="43.6525179" lon="11.6610451"><ele>1484.2</ele><time>2026-05-03T10:15:50.153Z</time></trkpt><trkpt lat="43.6525988" lon="11.6609729"><ele>1483.8000000000002</ele><time>2026-05-03T10:15:52.154Z</time></trkpt><trkpt lat="43.6526795" lon="11.6609948"><ele>1483.4</ele><time>2026-05-03T10:15:54.154Z</time></trkpt><trkpt lat="43.6527768" lon="11.6610633"><ele>1483.0</ele><time>2026-05-03T10:15:56.154Z</time></trkpt><trkpt lat="43.6528865" lon="11.6611196"><ele>1483.0</ele><time>2026-05-03T10:15:58.153Z</time></trkpt><trkpt lat="43.6529538" lon="11.6611995"><ele>1483.0</ele><time>2026-05-03T10:16:00.153Z</time></trkpt><trkpt lat="43.6530185" lon="11.661282"><ele>1483.0</ele><time>2026-05-03T10:16:02.154Z</time></trkpt><trkpt lat="43.6530822" lon="11.6613012"><ele>1483.0</ele><time>2026-05-03T10:16:06.154Z</time></trkpt><trkpt lat="43.6531621" lon="11.6612504"><ele>1483.0</ele><time>2026-05-03T10:16:09.154Z</time></trkpt><trkpt lat="43.6532373" lon="11.6611833"><ele>1483.0</ele><time>2026-05-03T10:16:11.154Z</time></trkpt><trkpt lat="43.6533408" lon="11.6610911"><ele>1482.8333333333333</ele><time>2026-05-03T10:16:13.154Z</time></trkpt><trkpt lat="43.6534063" lon="11.6610614"><ele>1482.6666666666665</ele><time>2026-05-03T10:16:14.154Z</time></trkpt><trkpt lat="43.6534668" lon="11.6610359"><ele>1482.5</ele><time>2026-05-03T10:16:15.153Z</time></trkpt><trkpt lat="43.6535763" lon="11.6609578"><ele>1482.3333333333333</ele><time>2026-05-03T10:16:17.152Z</time></trkpt><trkpt lat="43.65365" lon="11.6608793"><ele>1482.1666666666667</ele><time>2026-05-03T10:16:19.154Z</time></trkpt><trkpt lat="43.6536856" lon="11.6607855"><ele>1482.0</ele><time>2026-05-03T10:16:21.153Z</time></trkpt><trkpt lat="43.6537303" lon="11.6606461"><ele>1482.0</ele><time>2026-05-03T10:16:23.154Z</time></trkpt><trkpt lat="43.6537558" lon="11.6605623"><ele>1482.0</ele><time>2026-05-03T10:16:24.154Z</time></trkpt><trkpt lat="43.6538007" lon="11.6604199"><ele>1482.0</ele><time>2026-05-03T10:16:26.153Z</time></trkpt><trkpt lat="43.6538027" lon="11.6602817"><ele>1482.0</ele><time>2026-05-03T10:16:28.154Z</time></trkpt><trkpt lat="43.6538387" lon="11.6601948"><ele>1482.0</ele><time>2026-05-03T10:16:30.154Z</time></trkpt><trkpt lat="43.6539036" lon="11.6600908"><ele>1483.1666666666667</ele><time>2026-05-03T10:16:32.154Z</time></trkpt><trkpt lat="43.6539228" lon="11.6599986"><ele>1484.3333333333333</ele><time>2026-05-03T10:16:34.152Z</time></trkpt><trkpt lat="43.653963" lon="11.659904"><ele>1485.5</ele><time>2026-05-03T10:16:37.154Z</time></trkpt><trkpt lat="43.6539984" lon="11.6597866"><ele>1486.6666666666665</ele><time>2026-05-03T10:16:39.154Z</time></trkpt><trkpt lat="43.6540294" lon="11.6597105"><ele>1487.8333333333333</ele><time>2026-05-03T10:16:40.154Z</time></trkpt><trkpt lat="43.6540694" lon="11.6596424"><ele>1489.0</ele><time>2026-05-03T10:16:41.153Z</time></trkpt><trkpt lat="43.6541116" lon="11.6595285"><ele>1489.8333333333333</ele><time>2026-05-03T10:16:43.154Z</time></trkpt><trkpt lat="43.6541435" lon="11.6594499"><ele>1490.6666666666665</ele><time>2026-05-03T10:16:45.153Z</time></trkpt><trkpt lat="43.6541614" lon="11.6593226"><ele>1491.5</ele><time>2026-05-03T10:16:47.152Z</time></trkpt><trkpt lat="43.6541792" lon="11.6592096"><ele>1492.3333333333333</ele><time>2026-05-03T10:16:49.153Z</time></trkpt><trkpt lat="43.6541918" lon="11.6591119"><ele>1493.1666666666667</ele><time>2026-05-03T10:16:51.153Z</time></trkpt><trkpt lat="43.6542121" lon="11.6589868"><ele>1494.0</ele><time>2026-05-03T10:16:53.154Z</time></trkpt><trkpt lat="43.6542273" lon="11.6588602"><ele>1494.0</ele><time>2026-05-03T10:16:55.153Z</time></trkpt><trkpt lat="43.6542285" lon="11.6587359"><ele>1494.0</ele><time>2026-05-03T10:16:57.154Z</time></trkpt><trkpt lat="43.6542285" lon="11.6586439"><ele>1494.0</ele><time>2026-05-03T10:16:59.154Z</time></trkpt><trkpt lat="43.6542371" lon="11.6585337"><ele>1494.0</ele><time>2026-05-03T10:17:02.154Z</time></trkpt><trkpt lat="43.6542424" lon="11.6584422"><ele>1494.0</ele><time>2026-05-03T10:17:04.154Z</time></trkpt><trkpt lat="43.6542521" lon="11.6582751"><ele>1494.0</ele><time>2026-05-03T10:17:06.153Z</time></trkpt><trkpt lat="43.6542494" lon="11.6581848"><ele>1494.0</ele><time>2026-05-03T10:17:07.154Z</time></trkpt><trkpt lat="43.6542433" lon="11.658046"><ele>1494.0</ele><time>2026-05-03T10:17:09.153Z</time></trkpt><trkpt lat="43.6542403" lon="11.6579256"><ele>1494.0</ele><time>2026-05-03T10:17:11.154Z</time></trkpt><trkpt lat="43.6542408" lon="11.6578149"><ele>1494.0</ele><time>2026-05-03T10:17:13.152Z</time></trkpt><trkpt lat="43.6542378" lon="11.6577002"><ele>1494.0</ele><time>2026-05-03T10:17:15.153Z</time></trkpt><trkpt lat="43.6542047" lon="11.6576183"><ele>1494.0</ele><time>2026-05-03T10:17:17.153Z</time></trkpt><trkpt lat="43.6542022" lon="11.6575089"><ele>1494.1666666666667</ele><time>2026-05-03T10:17:21.154Z</time></trkpt><trkpt lat="43.6542621" lon="11.6574558"><ele>1494.3333333333333</ele><time>2026-05-03T10:17:29.154Z</time></trkpt><trkpt lat="43.6543054" lon="11.6573909"><ele>1494.5</ele><time>2026-05-03T10:17:30.154Z</time></trkpt><trkpt lat="43.6543901" lon="11.6572752"><ele>1494.6666666666665</ele><time>2026-05-03T10:17:32.154Z</time></trkpt><trkpt lat="43.6544511" lon="11.657187"><ele>1494.8333333333333</ele><time>2026-05-03T10:17:34.154Z</time></trkpt><trkpt lat="43.6544931" lon="11.657111"><ele>1495.0</ele><time>2026-05-03T10:17:36.154Z</time></trkpt><trkpt lat="43.6545403" lon="11.6570256"><ele>1491.857142857143</ele><time>2026-05-03T10:17:39.153Z</time></trkpt><trkpt lat="43.6545804" lon="11.656931"><ele>1488.7142857142858</ele><time>2026-05-03T10:17:43.153Z</time></trkpt><trkpt lat="43.6546182" lon="11.656851"><ele>1485.5714285714284</ele><time>2026-05-03T10:17:48.154Z</time></trkpt><trkpt lat="43.6546679" lon="11.6567945"><ele>1482.4285714285716</ele><time>2026-05-03T10:28:41.153Z</time></trkpt><trkpt lat="43.6547166" lon="11.6567352"><ele>1479.2857142857142</ele><time>2026-05-03T10:28:45.153Z</time></trkpt><trkpt lat="43.6547765" lon="11.6566792"><ele>1476.142857142857</ele><time>2026-05-03T10:28:49.152Z</time></trkpt><trkpt lat="43.6548356" lon="11.6566286"><ele>1473.0</ele><time>2026-05-03T10:28:53.153Z</time></trkpt><trkpt lat="43.654897" lon="11.6566043"><ele>1472.9999999999998</ele><time>2026-05-03T10:28:56.152Z</time></trkpt><trkpt lat="43.6549544" lon="11.6565482"><ele>1473.0</ele><time>2026-05-03T10:29:02.152Z</time></trkpt><trkpt lat="43.6549964" lon="11.6564726"><ele>1473.0</ele><time>2026-05-03T10:29:05.153Z</time></trkpt><trkpt lat="43.6550495" lon="11.656411"><ele>1473.0</ele><time>2026-05-03T10:29:07.152Z</time></trkpt><trkpt lat="43.6551266" lon="11.6563464"><ele>1473.0</ele><time>2026-05-03T10:29:09.153Z</time></trkpt><trkpt lat="43.6551787" lon="11.6562963"><ele>1472.9999999999998</ele><time>2026-05-03T10:29:10.152Z</time></trkpt><trkpt lat="43.6552331" lon="11.6562373"><ele>1473.0</ele><time>2026-05-03T10:29:11.153Z</time></trkpt><trkpt lat="43.6552836" lon="11.6561804"><ele>1471.0</ele><time>2026-05-03T10:29:12.153Z</time></trkpt><trkpt lat="43.6553313" lon="11.656118"><ele>1469.0</ele><time>2026-05-03T10:29:13.153Z</time></trkpt><trkpt lat="43.6554031" lon="11.6559899"><ele>1467.0</ele><time>2026-05-03T10:29:15.153Z</time></trkpt><trkpt lat="43.6554485" lon="11.6558768"><ele>1465.0</ele><time>2026-05-03T10:29:17.153Z</time></trkpt><trkpt lat="43.6554885" lon="11.6557846"><ele>1463.0</ele><time>2026-05-03T10:29:19.152Z</time></trkpt><trkpt lat="43.6555283" lon="11.6556965"><ele>1461.0</ele><time>2026-05-03T10:29:21.152Z</time></trkpt><trkpt lat="43.6555799" lon="11.6555803"><ele>1461.0</ele><time>2026-05-03T10:29:23.152Z</time></trkpt><trkpt lat="43.6556439" lon="11.6554997"><ele>1461.0</ele><time>2026-05-03T10:29:25.153Z</time></trkpt><trkpt lat="43.655709" lon="11.6554484"><ele>1461.0</ele><time>2026-05-03T10:29:27.153Z</time></trkpt><trkpt lat="43.6557589" lon="11.6553701"><ele>1461.0</ele><time>2026-05-03T10:29:30.153Z</time></trkpt><trkpt lat="43.6558033" lon="11.6552994"><ele>1461.0</ele><time>2026-05-03T10:29:37.153Z</time></trkpt><trkpt lat="43.6558671" lon="11.6552718"><ele>1461.0</ele><time>2026-05-03T10:29:51.152Z</time></trkpt><trkpt lat="43.6559259" lon="11.6552247"><ele>1461.0</ele><time>2026-05-03T10:29:53.152Z</time></trkpt><trkpt lat="43.6559496" lon="11.6550971"><ele>1460.5</ele><time>2026-05-03T10:29:56.152Z</time></trkpt><trkpt lat="43.6559545" lon="11.6550066"><ele>1460.0</ele><time>2026-05-03T10:30:05.152Z</time></trkpt><trkpt lat="43.6560169" lon="11.65497"><ele>1459.5</ele><time>2026-05-03T10:30:08.152Z</time></trkpt><trkpt lat="43.6560956" lon="11.6550138"><ele>1459.0</ele><time>2026-05-03T10:30:10.152Z</time></trkpt><trkpt lat="43.6561823" lon="11.6549903"><ele>1458.5</ele><time>2026-05-03T10:30:12.152Z</time></trkpt><trkpt lat="43.6562672" lon="11.6549375"><ele>1458.0</ele><time>2026-05-03T10:30:14.153Z</time></trkpt><trkpt lat="43.6563791" lon="11.6548772"><ele>1458.0</ele><time>2026-05-03T10:30:16.153Z</time></trkpt><trkpt lat="43.6564513" lon="11.6548137"><ele>1458.0</ele><time>2026-05-03T10:30:18.153Z</time></trkpt><trkpt lat="43.6565326" lon="11.6547344"><ele>1458.0</ele><time>2026-05-03T10:30:20.153Z</time></trkpt><trkpt lat="43.6566254" lon="11.6546859"><ele>1458.0</ele><time>2026-05-03T10:30:22.153Z</time></trkpt><trkpt lat="43.6566925" lon="11.6546351"><ele>1458.0</ele><time>2026-05-03T10:30:24.153Z</time></trkpt><trkpt lat="43.6567731" lon="11.6545599"><ele>1458.0</ele><time>2026-05-03T10:30:27.152Z</time></trkpt><trkpt lat="43.6568319" lon="11.6544929"><ele>1458.0</ele><time>2026-05-03T10:30:29.152Z</time></trkpt><trkpt lat="43.6569056" lon="11.654441"><ele>1458.0</ele><time>2026-05-03T10:30:33.153Z</time></trkpt><trkpt lat="43.6569853" lon="11.6543747"><ele>1458.0</ele><time>2026-05-03T10:30:36.153Z</time></trkpt><trkpt lat="43.6570392" lon="11.6543244"><ele>1458.0</ele><time>2026-05-03T10:30:38.153Z</time></trkpt><trkpt lat="43.657076" lon="11.6542532"><ele>1458.0</ele><time>2026-05-03T10:30:40.153Z</time></trkpt><trkpt lat="43.657129" lon="11.6541844"><ele>1458.3333333333333</ele><time>2026-05-03T10:30:42.153Z</time></trkpt><trkpt lat="43.6571943" lon="11.6540901"><ele>1458.6666666666667</ele><time>2026-05-03T10:30:44.153Z</time></trkpt><trkpt lat="43.6572597" lon="11.654001"><ele>1459.0</ele><time>2026-05-03T10:30:46.152Z</time></trkpt><trkpt lat="43.6573141" lon="11.6539288"><ele>1459.3333333333335</ele><time>2026-05-03T10:30:48.152Z</time></trkpt><trkpt lat="43.6573756" lon="11.6538752"><ele>1459.6666666666667</ele><time>2026-05-03T10:30:50.152Z</time></trkpt><trkpt lat="43.6574445" lon="11.6538369"><ele>1460.0</ele><time>2026-05-03T10:30:52.153Z</time></trkpt><trkpt lat="43.6575011" lon="11.6537818"><ele>1460.0000000000002</ele><time>2026-05-03T10:32:40.153Z</time></trkpt><trkpt lat="43.6575772" lon="11.6537996"><ele>1460.0</ele><time>2026-05-03T10:32:49.152Z</time></trkpt><trkpt lat="43.6576302" lon="11.6538558"><ele>1460.0</ele><time>2026-05-03T10:32:55.153Z</time></trkpt><trkpt lat="43.657659" lon="11.6539397"><ele>1460.0</ele><time>2026-05-03T10:33:01.15Z</time></trkpt><trkpt lat="43.6577251" lon="11.6540111"><ele>1460.0</ele><time>2026-05-03T10:33:06.152Z</time></trkpt><trkpt lat="43.6577853" lon="11.6540552"><ele>1460.0000000000002</ele><time>2026-05-03T10:33:08.152Z</time></trkpt><trkpt lat="43.6578452" lon="11.6541072"><ele>1460.0</ele><time>2026-05-03T10:33:15.152Z</time></trkpt><trkpt lat="43.6578832" lon="11.6541886"><ele>1458.0000000000002</ele><time>2026-05-03T10:33:19.152Z</time></trkpt><trkpt lat="43.6579205" lon="11.6542616"><ele>1456.0</ele><time>2026-05-03T10:33:23.151Z</time></trkpt><trkpt lat="43.6579783" lon="11.6543381"><ele>1454.0</ele><time>2026-05-03T10:33:26.152Z</time></trkpt><trkpt lat="43.6580276" lon="11.6544053"><ele>1452.0</ele><time>2026-05-03T10:33:28.151Z</time></trkpt><trkpt lat="43.6580875" lon="11.6544633"><ele>1450.0</ele><time>2026-05-03T10:33:31.151Z</time></trkpt><trkpt lat="43.658149" lon="11.6544956"><ele>1448.0000000000002</ele><time>2026-05-03T10:33:41.151Z</time></trkpt><trkpt lat="43.6582128" lon="11.6545523"><ele>1446.0</ele><time>2026-05-03T10:33:45.152Z</time></trkpt><trkpt lat="43.6582716" lon="11.654647"><ele>1444.1666666666667</ele><time>2026-05-03T10:33:49.152Z</time></trkpt><trkpt lat="43.6583395" lon="11.6547226"><ele>1442.3333333333333</ele><time>2026-05-03T10:33:52.151Z</time></trkpt><trkpt lat="43.6584192" lon="11.6548352"><ele>1440.5</ele><time>2026-05-03T10:33:56.152Z</time></trkpt><trkpt lat="43.6584776" lon="11.6549083"><ele>1438.6666666666665</ele><time>2026-05-03T10:33:59.151Z</time></trkpt><trkpt lat="43.6585474" lon="11.6549601"><ele>1436.8333333333333</ele><time>2026-05-03T10:34:11.152Z</time></trkpt><trkpt lat="43.6585588" lon="11.6550726"><ele>1435.0</ele><time>2026-05-03T10:34:15.151Z</time></trkpt><trkpt lat="43.6585399" lon="11.6551719"><ele>1435.0</ele><time>2026-05-03T10:34:18.15Z</time></trkpt><trkpt lat="43.6584904" lon="11.6552537"><ele>1435.0</ele><time>2026-05-03T10:34:22.152Z</time></trkpt><trkpt lat="43.6584648" lon="11.6553644"><ele>1435.0</ele><time>2026-05-03T10:34:26.151Z</time></trkpt><trkpt lat="43.658426" lon="11.6554483"><ele>1435.0</ele><time>2026-05-03T10:34:40.152Z</time></trkpt><trkpt lat="43.658364" lon="11.6554264"><ele>1435.0</ele><time>2026-05-03T10:34:42.151Z</time></trkpt><trkpt lat="43.6583" lon="11.6554587"><ele>1435.0</ele><time>2026-05-03T10:34:44.151Z</time></trkpt><trkpt lat="43.658239" lon="11.6555517"><ele>1432.7142857142858</ele><time>2026-05-03T10:34:48.151Z</time></trkpt><trkpt lat="43.6582006" lon="11.6556405"><ele>1430.4285714285716</ele><time>2026-05-03T10:34:51.151Z</time></trkpt><trkpt lat="43.6581947" lon="11.6557306"><ele>1428.142857142857</ele><time>2026-05-03T10:34:53.151Z</time></trkpt><trkpt lat="43.6581719" lon="11.6558257"><ele>1425.857142857143</ele><time>2026-05-03T10:34:55.151Z</time></trkpt><trkpt lat="43.6581387" lon="11.6559188"><ele>1423.5714285714287</ele><time>2026-05-03T10:34:57.151Z</time></trkpt><trkpt lat="43.6581228" lon="11.6560298"><ele>1421.2857142857142</ele><time>2026-05-03T10:34:59.151Z</time></trkpt><trkpt lat="43.6580937" lon="11.6561094"><ele>1419.0</ele><time>2026-05-03T10:35:00.151Z</time></trkpt><trkpt lat="43.65806" lon="11.6562409"><ele>1416.3333333333333</ele><time>2026-05-03T10:35:02.151Z</time></trkpt><trkpt lat="43.6580023" lon="11.656299"><ele>1413.6666666666667</ele><time>2026-05-03T10:35:03.151Z</time></trkpt><trkpt lat="43.6579553" lon="11.6563952"><ele>1411.0</ele><time>2026-05-03T10:35:05.152Z</time></trkpt><trkpt lat="43.6579518" lon="11.6565056"><ele>1408.3333333333335</ele><time>2026-05-03T10:35:07.152Z</time></trkpt><trkpt lat="43.6579514" lon="11.6566249"><ele>1405.6666666666667</ele><time>2026-05-03T10:35:09.152Z</time></trkpt><trkpt lat="43.657936" lon="11.6567717"><ele>1403.0</ele><time>2026-05-03T10:35:11.152Z</time></trkpt><trkpt lat="43.6579228" lon="11.6569011"><ele>1403.4</ele><time>2026-05-03T10:35:13.152Z</time></trkpt><trkpt lat="43.6578778" lon="11.6570576"><ele>1403.8000000000002</ele><time>2026-05-03T10:35:15.151Z</time></trkpt><trkpt lat="43.6578221" lon="11.6572122"><ele>1404.2</ele><time>2026-05-03T10:35:17.151Z</time></trkpt><trkpt lat="43.6577601" lon="11.6573407"><ele>1404.6</ele><time>2026-05-03T10:35:19.152Z</time></trkpt><trkpt lat="43.6577132" lon="11.6574024"><ele>1405.0</ele><time>2026-05-03T10:35:20.152Z</time></trkpt><trkpt lat="43.6576385" lon="11.6574684"><ele>1405.0</ele><time>2026-05-03T10:35:21.15Z</time></trkpt><trkpt lat="43.6575649" lon="11.6575493"><ele>1405.0</ele><time>2026-05-03T10:35:23.151Z</time></trkpt><trkpt lat="43.6574796" lon="11.657642"><ele>1405.0</ele><time>2026-05-03T10:35:25.151Z</time></trkpt><trkpt lat="43.6573778" lon="11.6577475"><ele>1405.0</ele><time>2026-05-03T10:35:27.151Z</time></trkpt><trkpt lat="43.6572613" lon="11.657819"><ele>1401.4</ele><time>2026-05-03T10:35:29.152Z</time></trkpt><trkpt lat="43.6571647" lon="11.6578286"><ele>1397.8</ele><time>2026-05-03T10:35:31.151Z</time></trkpt><trkpt lat="43.6571031" lon="11.6578932"><ele>1394.1999999999998</ele><time>2026-05-03T10:35:35.152Z</time></trkpt><trkpt lat="43.6571135" lon="11.6580323"><ele>1390.6</ele><time>2026-05-03T10:35:40.151Z</time></trkpt><trkpt lat="43.6571364" lon="11.6581856"><ele>1387.0</ele><time>2026-05-03T10:35:42.151Z</time></trkpt><trkpt lat="43.6571366" lon="11.6583475"><ele>1387.0</ele><time>2026-05-03T10:35:44.152Z</time></trkpt><trkpt lat="43.6570559" lon="11.6584856"><ele>1387.0</ele><time>2026-05-03T10:35:46.152Z</time></trkpt><trkpt lat="43.6569833" lon="11.6585819"><ele>1387.0</ele><time>2026-05-03T10:35:48.152Z</time></trkpt><trkpt lat="43.6569025" lon="11.6586551"><ele>1387.0</ele><time>2026-05-03T10:35:50.152Z</time></trkpt><trkpt lat="43.656841" lon="11.6586775"><ele>1387.0</ele><time>2026-05-03T10:35:51.152Z</time></trkpt><trkpt lat="43.656745" lon="11.6587292"><ele>1388.8333333333333</ele><time>2026-05-03T10:35:53.15Z</time></trkpt><trkpt lat="43.6567283" lon="11.6588536"><ele>1390.6666666666665</ele><time>2026-05-03T10:35:56.152Z</time></trkpt><trkpt lat="43.6567559" lon="11.6589515"><ele>1392.5</ele><time>2026-05-03T10:35:58.151Z</time></trkpt><trkpt lat="43.656815" lon="11.6590547"><ele>1394.3333333333333</ele><time>2026-05-03T10:36:00.151Z</time></trkpt><trkpt lat="43.6568569" lon="11.6591893"><ele>1396.1666666666667</ele><time>2026-05-03T10:36:02.152Z</time></trkpt><trkpt lat="43.6568827" lon="11.6592801"><ele>1398.0</ele><time>2026-05-03T10:36:03.152Z</time></trkpt><trkpt lat="43.6569064" lon="11.6593726"><ele>1397.0</ele><time>2026-05-03T10:36:04.152Z</time></trkpt><trkpt lat="43.6569412" lon="11.6594673"><ele>1396.0</ele><time>2026-05-03T10:36:05.151Z</time></trkpt><trkpt lat="43.6569742" lon="11.6595539"><ele>1395.0</ele><time>2026-05-03T10:36:06.151Z</time></trkpt><trkpt lat="43.6570238" lon="11.6596829"><ele>1394.0</ele><time>2026-05-03T10:36:08.15Z</time></trkpt><trkpt lat="43.65708" lon="11.6597853"><ele>1393.0</ele><time>2026-05-03T10:36:10.152Z</time></trkpt><trkpt lat="43.6571459" lon="11.6598946"><ele>1392.0</ele><time>2026-05-03T10:36:12.151Z</time></trkpt><trkpt lat="43.6572005" lon="11.6600026"><ele>1386.3999999999999</ele><time>2026-05-03T10:36:14.151Z</time></trkpt><trkpt lat="43.6572158" lon="11.6601243"><ele>1380.8</ele><time>2026-05-03T10:36:16.152Z</time></trkpt><trkpt lat="43.6571891" lon="11.6602533"><ele>1375.2</ele><time>2026-05-03T10:36:18.151Z</time></trkpt><trkpt lat="43.6571575" lon="11.6604263"><ele>1369.6</ele><time>2026-05-03T10:36:20.152Z</time></trkpt><trkpt lat="43.6571313" lon="11.6605153"><ele>1364.0</ele><time>2026-05-03T10:36:21.152Z</time></trkpt><trkpt lat="43.6571081" lon="11.6606002"><ele>1365.0</ele><time>2026-05-03T10:36:22.151Z</time></trkpt><trkpt lat="43.6570822" lon="11.6606985"><ele>1366.0</ele><time>2026-05-03T10:36:23.152Z</time></trkpt><trkpt lat="43.6570556" lon="11.6608089"><ele>1367.0</ele><time>2026-05-03T10:36:24.15Z</time></trkpt><trkpt lat="43.657032" lon="11.6609483"><ele>1368.0</ele><time>2026-05-03T10:36:25.152Z</time></trkpt><trkpt lat="43.6570153" lon="11.6610379"><ele>1369.0</ele><time>2026-05-03T10:36:26.152Z</time></trkpt><trkpt lat="43.6569805" lon="11.6611914"><ele>1370.0</ele><time>2026-05-03T10:36:28.152Z</time></trkpt><trkpt lat="43.6569355" lon="11.661326"><ele>1370.0</ele><time>2026-05-03T10:36:30.151Z</time></trkpt><trkpt lat="43.6568803" lon="11.6614222"><ele>1370.0</ele><time>2026-05-03T10:36:32.152Z</time></trkpt><trkpt lat="43.656888" lon="11.6615232"><ele>1370.0</ele><time>2026-05-03T10:36:35.151Z</time></trkpt><trkpt lat="43.6569546" lon="11.6616385"><ele>1370.0</ele><time>2026-05-03T10:36:39.152Z</time></trkpt><trkpt lat="43.6569959" lon="11.6617706"><ele>1370.0</ele><time>2026-05-03T10:36:41.151Z</time></trkpt><trkpt lat="43.6570398" lon="11.6618458"><ele>1370.0</ele><time>2026-05-03T10:36:42.151Z</time></trkpt><trkpt lat="43.6570727" lon="11.6619249"><ele>1365.2</ele><time>2026-05-03T10:36:43.151Z</time></trkpt><trkpt lat="43.6571433" lon="11.661957"><ele>1360.4</ele><time>2026-05-03T10:36:45.15Z</time></trkpt><trkpt lat="43.6572278" lon="11.6619391"><ele>1355.6</ele><time>2026-05-03T10:36:48.152Z</time></trkpt><trkpt lat="43.6573198" lon="11.6619954"><ele>1350.8</ele><time>2026-05-03T10:36:50.152Z</time></trkpt><trkpt lat="43.6573923" lon="11.6620881"><ele>1346.0</ele><time>2026-05-03T10:36:52.151Z</time></trkpt><trkpt lat="43.6574504" lon="11.6622214"><ele>1345.8333333333335</ele><time>2026-05-03T10:36:54.152Z</time></trkpt><trkpt lat="43.6574774" lon="11.6623011"><ele>1345.6666666666667</ele><time>2026-05-03T10:36:55.152Z</time></trkpt><trkpt lat="43.657525" lon="11.6624239"><ele>1345.5</ele><time>2026-05-03T10:36:57.152Z</time></trkpt><trkpt lat="43.6576166" lon="11.6625458"><ele>1345.3333333333333</ele><time>2026-05-03T10:36:59.152Z</time></trkpt><trkpt lat="43.6576629" lon="11.6626118"><ele>1345.1666666666665</ele><time>2026-05-03T10:37:00.152Z</time></trkpt><trkpt lat="43.6577153" lon="11.6626644"><ele>1345.0</ele><time>2026-05-03T10:37:01.152Z</time></trkpt><trkpt lat="43.657799" lon="11.6627675"><ele>1341.1666666666665</ele><time>2026-05-03T10:37:03.152Z</time></trkpt><trkpt lat="43.6578727" lon="11.6628626"><ele>1337.3333333333333</ele><time>2026-05-03T10:37:04.152Z</time></trkpt><trkpt lat="43.657923" lon="11.6629334"><ele>1333.5</ele><time>2026-05-03T10:37:05.152Z</time></trkpt><trkpt lat="43.6579675" lon="11.6630261"><ele>1329.6666666666667</ele><time>2026-05-03T10:37:06.152Z</time></trkpt><trkpt lat="43.658004" lon="11.6631089"><ele>1325.8333333333335</ele><time>2026-05-03T10:37:07.152Z</time></trkpt><trkpt lat="43.6580639" lon="11.6631995"><ele>1322.0</ele><time>2026-05-03T10:37:08.151Z</time></trkpt><trkpt lat="43.6580575" lon="11.6632908"><ele>1322.0</ele><time>2026-05-03T10:37:09.15Z</time></trkpt><trkpt lat="43.6580792" lon="11.6633765"><ele>1322.0</ele><time>2026-05-03T10:37:10.151Z</time></trkpt><trkpt lat="43.6580704" lon="11.6635269"><ele>1322.0</ele><time>2026-05-03T10:37:12.152Z</time></trkpt><trkpt lat="43.6580797" lon="11.6636412"><ele>1322.0</ele><time>2026-05-03T10:37:14.151Z</time></trkpt><trkpt lat="43.6581495" lon="11.6636787"><ele>1322.0</ele><time>2026-05-03T10:37:16.152Z</time></trkpt><trkpt lat="43.6582054" lon="11.6636126"><ele>1322.0</ele><time>2026-05-03T10:37:17.151Z</time></trkpt><trkpt lat="43.6582792" lon="11.6635558"><ele>1322.0</ele><time>2026-05-03T10:37:19.151Z</time></trkpt><trkpt lat="43.6583539" lon="11.6634792"><ele>1322.0</ele><time>2026-05-03T10:37:21.152Z</time></trkpt><trkpt lat="43.6584145" lon="11.6633808"><ele>1322.0</ele><time>2026-05-03T10:37:23.151Z</time></trkpt><trkpt lat="43.6584308" lon="11.6632589"><ele>1322.0</ele><time>2026-05-03T10:37:25.151Z</time></trkpt><trkpt lat="43.6584289" lon="11.6631341"><ele>1322.0</ele><time>2026-05-03T10:37:27.152Z</time></trkpt><trkpt lat="43.6584484" lon="11.6629692"><ele>1322.0</ele><time>2026-05-03T10:37:29.152Z</time></trkpt><trkpt lat="43.6584769" lon="11.6628833"><ele>1322.0</ele><time>2026-05-03T10:37:30.151Z</time></trkpt><trkpt lat="43.6585397" lon="11.6627374"><ele>1322.0</ele><time>2026-05-03T10:37:32.152Z</time></trkpt><trkpt lat="43.6585787" lon="11.6625849"><ele>1322.0</ele><time>2026-05-03T10:37:34.152Z</time></trkpt><trkpt lat="43.6586051" lon="11.6625019"><ele>1322.0</ele><time>2026-05-03T10:37:35.152Z</time></trkpt><trkpt lat="43.658605" lon="11.6624118"><ele>1322.0</ele><time>2026-05-03T10:37:36.152Z</time></trkpt><trkpt lat="43.6585979" lon="11.6623182"><ele>1322.3333333333335</ele><time>2026-05-03T10:37:37.15Z</time></trkpt><trkpt lat="43.6585612" lon="11.6622396"><ele>1322.6666666666667</ele><time>2026-05-03T10:37:38.151Z</time></trkpt><trkpt lat="43.6585503" lon="11.6621538"><ele>1323.0</ele><time>2026-05-03T10:37:39.15Z</time></trkpt><trkpt lat="43.6585777" lon="11.6620239"><ele>1323.3333333333333</ele><time>2026-05-03T10:37:41.152Z</time></trkpt><trkpt lat="43.6586545" lon="11.6619957"><ele>1323.6666666666665</ele><time>2026-05-03T10:37:43.152Z</time></trkpt><trkpt lat="43.6587269" lon="11.6620708"><ele>1324.0</ele><time>2026-05-03T10:37:44.152Z</time></trkpt><trkpt lat="43.6588188" lon="11.6620995"><ele>1320.8000000000002</ele><time>2026-05-03T10:37:46.151Z</time></trkpt><trkpt lat="43.6589137" lon="11.6620996"><ele>1317.6000000000001</ele><time>2026-05-03T10:37:48.152Z</time></trkpt><trkpt lat="43.6590221" lon="11.6621043"><ele>1314.4</ele><time>2026-05-03T10:37:50.152Z</time></trkpt><trkpt lat="43.6591297" lon="11.6620943"><ele>1311.2</ele><time>2026-05-03T10:37:52.152Z</time></trkpt><trkpt lat="43.659234" lon="11.6621111"><ele>1308.0</ele><time>2026-05-03T10:37:54.151Z</time></trkpt><trkpt lat="43.6593121" lon="11.6621175"><ele>1308.0</ele><time>2026-05-03T10:37:55.151Z</time></trkpt><trkpt lat="43.6594069" lon="11.6621693"><ele>1308.0</ele><time>2026-05-03T10:37:57.152Z</time></trkpt><trkpt lat="43.659475" lon="11.6621953"><ele>1308.0</ele><time>2026-05-03T10:37:58.151Z</time></trkpt><trkpt lat="43.6595826" lon="11.662202"><ele>1308.0</ele><time>2026-05-03T10:38:00.151Z</time></trkpt><trkpt lat="43.6596876" lon="11.6622143"><ele>1308.0</ele><time>2026-05-03T10:38:02.152Z</time></trkpt><trkpt lat="43.6597947" lon="11.662175"><ele>1307.4</ele><time>2026-05-03T10:38:04.152Z</time></trkpt><trkpt lat="43.6598615" lon="11.6620933"><ele>1306.8000000000002</ele><time>2026-05-03T10:38:06.151Z</time></trkpt><trkpt lat="43.6599409" lon="11.6620279"><ele>1306.2</ele><time>2026-05-03T10:38:08.152Z</time></trkpt><trkpt lat="43.6600272" lon="11.6619617"><ele>1305.6</ele><time>2026-05-03T10:38:10.152Z</time></trkpt><trkpt lat="43.6601002" lon="11.6618827"><ele>1305.0</ele><time>2026-05-03T10:38:12.152Z</time></trkpt><trkpt lat="43.6601684" lon="11.6617913"><ele>1305.0</ele><time>2026-05-03T10:38:14.152Z</time></trkpt><trkpt lat="43.6602002" lon="11.6616576"><ele>1305.0</ele><time>2026-05-03T10:38:16.152Z</time></trkpt><trkpt lat="43.6602281" lon="11.6615417"><ele>1305.0</ele><time>2026-05-03T10:38:18.15Z</time></trkpt><trkpt lat="43.6602691" lon="11.661417"><ele>1305.0</ele><time>2026-05-03T10:38:20.152Z</time></trkpt><trkpt lat="43.6602782" lon="11.6612945"><ele>1305.0</ele><time>2026-05-03T10:38:22.151Z</time></trkpt><trkpt lat="43.6602887" lon="11.6611532"><ele>1304.5</ele><time>2026-05-03T10:38:24.152Z</time></trkpt><trkpt lat="43.6602544" lon="11.6610388"><ele>1304.0</ele><time>2026-05-03T10:38:26.152Z</time></trkpt><trkpt lat="43.6602468" lon="11.6609165"><ele>1303.5</ele><time>2026-05-03T10:38:28.152Z</time></trkpt><trkpt lat="43.6602244" lon="11.6608043"><ele>1303.0</ele><time>2026-05-03T10:38:30.152Z</time></trkpt><trkpt lat="43.6601873" lon="11.6606964"><ele>1302.5</ele><time>2026-05-03T10:38:32.152Z</time></trkpt><trkpt lat="43.6601637" lon="11.6605992"><ele>1302.0</ele><time>2026-05-03T10:38:34.15Z</time></trkpt><trkpt lat="43.6601346" lon="11.6604948"><ele>1302.0</ele><time>2026-05-03T10:38:36.15Z</time></trkpt><trkpt lat="43.6600878" lon="11.6604054"><ele>1302.0</ele><time>2026-05-03T10:38:38.151Z</time></trkpt><trkpt lat="43.660041" lon="11.6603081"><ele>1302.0</ele><time>2026-05-03T10:38:41.152Z</time></trkpt><trkpt lat="43.6599802" lon="11.6602177"><ele>1302.0</ele><time>2026-05-03T10:38:44.151Z</time></trkpt><trkpt lat="43.6599205" lon="11.6601368"><ele>1302.0</ele><time>2026-05-03T10:38:47.152Z</time></trkpt><trkpt lat="43.6598619" lon="11.6600577"><ele>1302.0</ele><time>2026-05-03T10:38:50.151Z</time></trkpt><trkpt lat="43.6598153" lon="11.6599667"><ele>1301.0</ele><time>2026-05-03T10:38:53.151Z</time></trkpt><trkpt lat="43.6598257" lon="11.6598728"><ele>1300.0</ele><time>2026-05-03T10:38:55.151Z</time></trkpt><trkpt lat="43.6598593" lon="11.6597827"><ele>1299.0</ele><time>2026-05-03T10:38:59.152Z</time></trkpt><trkpt lat="43.6599129" lon="11.6597274"><ele>1298.0</ele><time>2026-05-03T10:39:05.151Z</time></trkpt><trkpt lat="43.6599683" lon="11.6596704"><ele>1297.0</ele><time>2026-05-03T10:39:13.152Z</time></trkpt><trkpt lat="43.6600152" lon="11.6595719"><ele>1296.0</ele><time>2026-05-03T10:39:17.151Z</time></trkpt><trkpt lat="43.6600746" lon="11.6594775"><ele>1297.5</ele><time>2026-05-03T10:39:20.152Z</time></trkpt><trkpt lat="43.6601207" lon="11.6593884"><ele>1299.0</ele><time>2026-05-03T10:39:22.151Z</time></trkpt><trkpt lat="43.660175" lon="11.6593138"><ele>1300.5</ele><time>2026-05-03T10:39:24.151Z</time></trkpt><trkpt lat="43.6602259" lon="11.659233"><ele>1302.0</ele><time>2026-05-03T10:39:26.152Z</time></trkpt><trkpt lat="43.6602912" lon="11.6591688"><ele>1303.5</ele><time>2026-05-03T10:39:28.151Z</time></trkpt><trkpt lat="43.6603514" lon="11.6590597"><ele>1305.0</ele><time>2026-05-03T10:39:30.152Z</time></trkpt><trkpt lat="43.660421" lon="11.6590618"><ele>1300.25</ele><time>2026-05-03T10:39:31.152Z</time></trkpt><trkpt lat="43.6605057" lon="11.6589858"><ele>1295.5</ele><time>2026-05-03T10:39:33.152Z</time></trkpt><trkpt lat="43.6606105" lon="11.6589327"><ele>1290.75</ele><time>2026-05-03T10:39:35.152Z</time></trkpt><trkpt lat="43.6607082" lon="11.6588625"><ele>1286.0</ele><time>2026-05-03T10:39:37.152Z</time></trkpt><trkpt lat="43.6608299" lon="11.6587799"><ele>1286.0</ele><time>2026-05-03T10:39:39.152Z</time></trkpt><trkpt lat="43.6609345" lon="11.6587451"><ele>1286.0</ele><time>2026-05-03T10:39:41.152Z</time></trkpt><trkpt lat="43.6610054" lon="11.6587079"><ele>1286.0</ele><time>2026-05-03T10:39:42.151Z</time></trkpt><trkpt lat="43.6611174" lon="11.6586505"><ele>1286.0</ele><time>2026-05-03T10:39:44.151Z</time></trkpt><trkpt lat="43.6611954" lon="11.6586197"><ele>1286.0</ele><time>2026-05-03T10:39:45.152Z</time></trkpt><trkpt lat="43.6612824" lon="11.6585433"><ele>1285.6</ele><time>2026-05-03T10:39:47.152Z</time></trkpt><trkpt lat="43.6613638" lon="11.6584748"><ele>1285.1999999999998</ele><time>2026-05-03T10:39:49.152Z</time></trkpt><trkpt lat="43.6614491" lon="11.6583857"><ele>1284.8000000000002</ele><time>2026-05-03T10:39:51.152Z</time></trkpt><trkpt lat="43.6615238" lon="11.6582977"><ele>1284.4</ele><time>2026-05-03T10:39:53.151Z</time></trkpt><trkpt lat="43.6615979" lon="11.6582129"><ele>1284.0</ele><time>2026-05-03T10:39:55.151Z</time></trkpt><trkpt lat="43.6616905" lon="11.6581304"><ele>1284.0</ele><time>2026-05-03T10:39:57.151Z</time></trkpt><trkpt lat="43.6617795" lon="11.658046"><ele>1284.0</ele><time>2026-05-03T10:39:59.151Z</time></trkpt><trkpt lat="43.6618529" lon="11.6579325"><ele>1284.0</ele><time>2026-05-03T10:40:01.152Z</time></trkpt><trkpt lat="43.6619374" lon="11.6578331"><ele>1284.0</ele><time>2026-05-03T10:40:03.152Z</time></trkpt><trkpt lat="43.6620296" lon="11.6577479"><ele>1284.0</ele><time>2026-05-03T10:40:05.151Z</time></trkpt><trkpt lat="43.6621483" lon="11.65776"><ele>1283.0</ele><time>2026-05-03T10:40:07.151Z</time></trkpt><trkpt lat="43.6622167" lon="11.6578295"><ele>1282.0</ele><time>2026-05-03T10:40:09.152Z</time></trkpt><trkpt lat="43.6622496" lon="11.6579972"><ele>1281.0</ele><time>2026-05-03T10:40:11.152Z</time></trkpt><trkpt lat="43.6622691" lon="11.6581096"><ele>1280.0</ele><time>2026-05-03T10:40:12.152Z</time></trkpt><trkpt lat="43.662298" lon="11.6582241"><ele>1279.0</ele><time>2026-05-03T10:40:13.152Z</time></trkpt><trkpt lat="43.662339" lon="11.6583415"><ele>1279.0</ele><time>2026-05-03T10:40:14.151Z</time></trkpt><trkpt lat="43.6623973" lon="11.6584494"><ele>1279.0</ele><time>2026-05-03T10:40:15.152Z</time></trkpt><trkpt lat="43.6624527" lon="11.6585536"><ele>1279.0</ele><time>2026-05-03T10:40:16.152Z</time></trkpt><trkpt lat="43.662512" lon="11.658644"><ele>1279.0</ele><time>2026-05-03T10:40:17.152Z</time></trkpt><trkpt lat="43.662651" lon="11.6586306"><ele>1279.0</ele><time>2026-05-03T10:40:18.152Z</time></trkpt><trkpt lat="43.6627913" lon="11.6586808"><ele>1277.0</ele><time>2026-05-03T10:40:20.152Z</time></trkpt><trkpt lat="43.6628726" lon="11.658666"><ele>1275.0</ele><time>2026-05-03T10:40:21.152Z</time></trkpt><trkpt lat="43.6629787" lon="11.658651"><ele>1273.0</ele><time>2026-05-03T10:40:22.152Z</time></trkpt><trkpt lat="43.6630831" lon="11.6586002"><ele>1271.0</ele><time>2026-05-03T10:40:23.151Z</time></trkpt><trkpt lat="43.6631835" lon="11.6585702"><ele>1269.0</ele><time>2026-05-03T10:40:24.152Z</time></trkpt><trkpt lat="43.6632847" lon="11.6585448"><ele>1269.0</ele><time>2026-05-03T10:40:25.151Z</time></trkpt><trkpt lat="43.6633611" lon="11.6585883"><ele>1269.0</ele><time>2026-05-03T10:40:26.151Z</time></trkpt><trkpt lat="43.6634282" lon="11.6586118"><ele>1269.0</ele><time>2026-05-03T10:40:27.151Z</time></trkpt><trkpt lat="43.6635195" lon="11.6586733"><ele>1269.0</ele><time>2026-05-03T10:40:28.152Z</time></trkpt><trkpt lat="43.6635656" lon="11.65878"><ele>1269.0</ele><time>2026-05-03T10:40:29.152Z</time></trkpt><trkpt lat="43.663617" lon="11.6588712"><ele>1269.0</ele><time>2026-05-03T10:40:30.151Z</time></trkpt><trkpt lat="43.6636306" lon="11.6590115"><ele>1268.4</ele><time>2026-05-03T10:40:31.152Z</time></trkpt><trkpt lat="43.6636804" lon="11.6591275"><ele>1267.8000000000002</ele><time>2026-05-03T10:40:32.152Z</time></trkpt><trkpt lat="43.6637342" lon="11.6592282"><ele>1267.1999999999998</ele><time>2026-05-03T10:40:33.15Z</time></trkpt><trkpt lat="43.6638004" lon="11.6593157"><ele>1266.6</ele><time>2026-05-03T10:40:34.151Z</time></trkpt><trkpt lat="43.663884" lon="11.659388"><ele>1266.0</ele><time>2026-05-03T10:40:35.152Z</time></trkpt><trkpt lat="43.6639647" lon="11.6594642"><ele>1266.0</ele><time>2026-05-03T10:40:36.152Z</time></trkpt><trkpt lat="43.6640215" lon="11.659526"><ele>1266.0</ele><time>2026-05-03T10:40:37.152Z</time></trkpt><trkpt lat="43.6640822" lon="11.6595923"><ele>1266.0</ele><time>2026-05-03T10:40:38.152Z</time></trkpt><trkpt lat="43.6641413" lon="11.6596283"><ele>1266.0</ele><time>2026-05-03T10:40:39.152Z</time></trkpt><trkpt lat="43.6642607" lon="11.6596734"><ele>1266.0</ele><time>2026-05-03T10:40:41.152Z</time></trkpt><trkpt lat="43.6643283" lon="11.6596463"><ele>1266.0</ele><time>2026-05-03T10:41:49.151Z</time></trkpt><trkpt lat="43.664409" lon="11.6595661"><ele>1268.8</ele><time>2026-05-03T10:41:51.152Z</time></trkpt><trkpt lat="43.6645213" lon="11.6594613"><ele>1271.6</ele><time>2026-05-03T10:41:53.152Z</time></trkpt><trkpt lat="43.6646123" lon="11.6594098"><ele>1274.4</ele><time>2026-05-03T10:41:54.152Z</time></trkpt><trkpt lat="43.66469" lon="11.6593526"><ele>1277.2</ele><time>2026-05-03T10:41:55.151Z</time></trkpt><trkpt lat="43.6647777" lon="11.6593037"><ele>1280.0</ele><time>2026-05-03T10:41:56.152Z</time></trkpt><trkpt lat="43.664859" lon="11.6592427"><ele>1283.8</ele><time>2026-05-03T10:41:57.152Z</time></trkpt><trkpt lat="43.66499" lon="11.6592328"><ele>1287.6</ele><time>2026-05-03T10:41:58.152Z</time></trkpt><trkpt lat="43.6650871" lon="11.6591963"><ele>1291.4</ele><time>2026-05-03T10:41:59.152Z</time></trkpt><trkpt lat="43.6651864" lon="11.6591943"><ele>1295.2</ele><time>2026-05-03T10:42:00.152Z</time></trkpt><trkpt lat="43.6652756" lon="11.6591847"><ele>1299.0</ele><time>2026-05-03T10:42:01.151Z</time></trkpt><trkpt lat="43.6653545" lon="11.6592585"><ele>1299.6666666666667</ele><time>2026-05-03T10:42:02.15Z</time></trkpt><trkpt lat="43.6654258" lon="11.6593033"><ele>1300.3333333333333</ele><time>2026-05-03T10:42:03.151Z</time></trkpt><trkpt lat="43.6655128" lon="11.6593411"><ele>1301.0</ele><time>2026-05-03T10:42:04.152Z</time></trkpt><trkpt lat="43.6655667" lon="11.6593951"><ele>1301.6666666666665</ele><time>2026-05-03T10:42:05.152Z</time></trkpt><trkpt lat="43.6656298" lon="11.6594485"><ele>1302.3333333333333</ele><time>2026-05-03T10:42:06.151Z</time></trkpt><trkpt lat="43.665717" lon="11.6594347"><ele>1303.0</ele><time>2026-05-03T10:42:07.152Z</time></trkpt><trkpt lat="43.6657804" lon="11.6594625"><ele>1303.0</ele><time>2026-05-03T10:42:08.151Z</time></trkpt><trkpt lat="43.6658705" lon="11.6594351"><ele>1303.0</ele><time>2026-05-03T10:42:09.152Z</time></trkpt><trkpt lat="43.6659856" lon="11.6595182"><ele>1303.0</ele><time>2026-05-03T10:42:10.152Z</time></trkpt><trkpt lat="43.6660731" lon="11.6594907"><ele>1303.0</ele><time>2026-05-03T10:42:11.151Z</time></trkpt><trkpt lat="43.6661748" lon="11.6595372"><ele>1303.0</ele><time>2026-05-03T10:42:12.152Z</time></trkpt><trkpt lat="43.6662451" lon="11.6595585"><ele>1300.5</ele><time>2026-05-03T10:42:13.152Z</time></trkpt><trkpt lat="43.6663133" lon="11.659525"><ele>1298.0</ele><time>2026-05-03T10:42:14.152Z</time></trkpt><trkpt lat="43.6663841" lon="11.6595195"><ele>1295.5</ele><time>2026-05-03T10:42:15.152Z</time></trkpt><trkpt lat="43.6664626" lon="11.6594747"><ele>1293.0</ele><time>2026-05-03T10:42:16.151Z</time></trkpt><trkpt lat="43.6665935" lon="11.6594704"><ele>1290.5</ele><time>2026-05-03T10:42:18.152Z</time></trkpt><trkpt lat="43.6666555" lon="11.6595451"><ele>1288.0</ele><time>2026-05-03T10:42:19.152Z</time></trkpt><trkpt lat="43.6667285" lon="11.6595921"><ele>1288.0</ele><time>2026-05-03T10:42:20.152Z</time></trkpt><trkpt lat="43.6668248" lon="11.6596674"><ele>1288.0</ele><time>2026-05-03T10:42:21.152Z</time></trkpt><trkpt lat="43.6669192" lon="11.6597279"><ele>1288.0</ele><time>2026-05-03T10:42:22.152Z</time></trkpt><trkpt lat="43.6669936" lon="11.6598202"><ele>1288.0</ele><time>2026-05-03T10:42:23.152Z</time></trkpt><trkpt lat="43.6670664" lon="11.6599254"><ele>1288.0</ele><time>2026-05-03T10:42:24.152Z</time></trkpt><trkpt lat="43.6671365" lon="11.6600143"><ele>1292.2</ele><time>2026-05-03T10:42:25.152Z</time></trkpt><trkpt lat="43.6672145" lon="11.6600816"><ele>1296.4</ele><time>2026-05-03T10:42:26.152Z</time></trkpt><trkpt lat="43.6672933" lon="11.660138"><ele>1300.6000000000001</ele><time>2026-05-03T10:42:27.152Z</time></trkpt><trkpt lat="43.6673685" lon="11.6601812"><ele>1304.8000000000002</ele><time>2026-05-03T10:42:28.152Z</time></trkpt><trkpt lat="43.6674505" lon="11.6602262"><ele>1309.0</ele><time>2026-05-03T10:42:29.152Z</time></trkpt><trkpt lat="43.6675986" lon="11.6602609"><ele>1305.75</ele><time>2026-05-03T10:42:30.151Z</time></trkpt><trkpt lat="43.6677" lon="11.6603059"><ele>1302.5</ele><time>2026-05-03T10:42:31.151Z</time></trkpt><trkpt lat="43.6678184" lon="11.6603607"><ele>1299.25</ele><time>2026-05-03T10:42:32.151Z</time></trkpt><trkpt lat="43.6679256" lon="11.6604363"><ele>1296.0</ele><time>2026-05-03T10:42:33.151Z</time></trkpt><trkpt lat="43.668019" lon="11.6605383"><ele>1296.0</ele><time>2026-05-03T10:42:34.152Z</time></trkpt><trkpt lat="43.6681193" lon="11.6606441"><ele>1296.0</ele><time>2026-05-03T10:42:35.152Z</time></trkpt><trkpt lat="43.6682195" lon="11.6607419"><ele>1296.0</ele><time>2026-05-03T10:42:36.152Z</time></trkpt><trkpt lat="43.6683173" lon="11.6608294"><ele>1296.0</ele><time>2026-05-03T10:42:37.15Z</time></trkpt><trkpt lat="43.6684262" lon="11.6609337"><ele>1296.0</ele><time>2026-05-03T10:42:38.152Z</time></trkpt><trkpt lat="43.6685081" lon="11.6610526"><ele>1296.0</ele><time>2026-05-03T10:42:39.151Z</time></trkpt><trkpt lat="43.6685907" lon="11.6611764"><ele>1296.0</ele><time>2026-05-03T10:42:40.152Z</time></trkpt><trkpt lat="43.6686389" lon="11.6613335"><ele>1296.0</ele><time>2026-05-03T10:42:41.152Z</time></trkpt><trkpt lat="43.6687133" lon="11.661476"><ele>1295.75</ele><time>2026-05-03T10:42:42.152Z</time></trkpt><trkpt lat="43.6687895" lon="11.6616057"><ele>1295.5</ele><time>2026-05-03T10:42:43.151Z</time></trkpt><trkpt lat="43.6688651" lon="11.661726"><ele>1295.25</ele><time>2026-05-03T10:42:44.152Z</time></trkpt><trkpt lat="43.6689474" lon="11.6618278"><ele>1295.0</ele><time>2026-05-03T10:42:45.151Z</time></trkpt><trkpt lat="43.6690326" lon="11.6619129"><ele>1295.0</ele><time>2026-05-03T10:42:46.15Z</time></trkpt><trkpt lat="43.6691022" lon="11.6619782"><ele>1295.0</ele><time>2026-05-03T10:42:47.152Z</time></trkpt><trkpt lat="43.669168" lon="11.6620257"><ele>1295.0</ele><time>2026-05-03T10:42:48.152Z</time></trkpt><trkpt lat="43.6692697" lon="11.6620144"><ele>1295.0</ele><time>2026-05-03T10:42:50.152Z</time></trkpt><trkpt lat="43.6692758" lon="11.661874"><ele>1295.0</ele><time>2026-05-03T10:42:52.152Z</time></trkpt><trkpt lat="43.6692514" lon="11.6617846"><ele>1295.0</ele><time>2026-05-03T10:42:53.152Z</time></trkpt><trkpt lat="43.6692113" lon="11.6616773"><ele>1295.0</ele><time>2026-05-03T10:42:54.152Z</time></trkpt><trkpt lat="43.6691729" lon="11.6615423"><ele>1295.0</ele><time>2026-05-03T10:42:55.151Z</time></trkpt><trkpt lat="43.6691358" lon="11.6613973"><ele>1295.0</ele><time>2026-05-03T10:42:56.151Z</time></trkpt><trkpt lat="43.6690915" lon="11.6612591"><ele>1295.0</ele><time>2026-05-03T10:42:57.152Z</time></trkpt><trkpt lat="43.669044" lon="11.6611081"><ele>1295.0</ele><time>2026-05-03T10:42:58.152Z</time></trkpt><trkpt lat="43.6690095" lon="11.6609456"><ele>1296.2</ele><time>2026-05-03T10:42:59.152Z</time></trkpt><trkpt lat="43.6689753" lon="11.6607891"><ele>1297.4</ele><time>2026-05-03T10:43:00.151Z</time></trkpt><trkpt lat="43.6689387" lon="11.6606374"><ele>1298.6</ele><time>2026-05-03T10:43:01.15Z</time></trkpt><trkpt lat="43.6689234" lon="11.6605097"><ele>1299.8</ele><time>2026-05-03T10:43:02.151Z</time></trkpt><trkpt lat="43.6688937" lon="11.6603791"><ele>1301.0</ele><time>2026-05-03T10:43:03.152Z</time></trkpt><trkpt lat="43.6688663" lon="11.6602514"><ele>1302.75</ele><time>2026-05-03T10:43:04.152Z</time></trkpt><trkpt lat="43.6688488" lon="11.6600897"><ele>1304.5</ele><time>2026-05-03T10:43:05.152Z</time></trkpt><trkpt lat="43.6688347" lon="11.6599449"><ele>1306.25</ele><time>2026-05-03T10:43:06.152Z</time></trkpt><trkpt lat="43.6688207" lon="11.6597888"><ele>1308.0</ele><time>2026-05-03T10:43:07.151Z</time></trkpt><trkpt lat="43.6687973" lon="11.6596324"><ele>1308.0</ele><time>2026-05-03T10:43:08.151Z</time></trkpt><trkpt lat="43.6687753" lon="11.6594632"><ele>1308.0</ele><time>2026-05-03T10:43:09.151Z</time></trkpt><trkpt lat="43.6687732" lon="11.6593152"><ele>1308.0</ele><time>2026-05-03T10:43:10.15Z</time></trkpt><trkpt lat="43.6687606" lon="11.65919"><ele>1308.0</ele><time>2026-05-03T10:43:11.151Z</time></trkpt><trkpt lat="43.6687552" lon="11.6590719"><ele>1308.0</ele><time>2026-05-03T10:43:12.152Z</time></trkpt><trkpt lat="43.6687523" lon="11.6589561"><ele>1309.6666666666667</ele><time>2026-05-03T10:43:13.152Z</time></trkpt><trkpt lat="43.6688475" lon="11.6589146"><ele>1311.3333333333333</ele><time>2026-05-03T10:43:15.15Z</time></trkpt><trkpt lat="43.6689167" lon="11.6589561"><ele>1313.0</ele><time>2026-05-03T10:43:17.151Z</time></trkpt><trkpt lat="43.6689671" lon="11.6590104"><ele>1314.6666666666665</ele><time>2026-05-03T10:43:18.151Z</time></trkpt><trkpt lat="43.6690194" lon="11.6590955"><ele>1316.3333333333333</ele><time>2026-05-03T10:43:19.151Z</time></trkpt><trkpt lat="43.6691011" lon="11.659222"><ele>1318.0</ele><time>2026-05-03T10:43:20.151Z</time></trkpt><trkpt lat="43.6691947" lon="11.6593123"><ele>1318.0</ele><time>2026-05-03T10:43:21.152Z</time></trkpt><trkpt lat="43.6692703" lon="11.6594144"><ele>1318.0</ele><time>2026-05-03T10:43:22.151Z</time></trkpt><trkpt lat="43.6693536" lon="11.6595106"><ele>1318.0</ele><time>2026-05-03T10:43:23.151Z</time></trkpt><trkpt lat="43.6694307" lon="11.6595942"><ele>1318.0</ele><time>2026-05-03T10:43:24.152Z</time></trkpt><trkpt lat="43.6694956" lon="11.6596589"><ele>1318.0</ele><time>2026-05-03T10:43:25.152Z</time></trkpt><trkpt lat="43.6695923" lon="11.6596528"><ele>1317.0</ele><time>2026-05-03T10:43:26.152Z</time></trkpt><trkpt lat="43.6696838" lon="11.6596233"><ele>1316.0</ele><time>2026-05-03T10:43:28.151Z</time></trkpt><trkpt lat="43.6697993" lon="11.6596189"><ele>1315.0</ele><time>2026-05-03T10:43:30.151Z</time></trkpt><trkpt lat="43.6698604" lon="11.6597273"><ele>1314.0</ele><time>2026-05-03T10:43:32.152Z</time></trkpt><trkpt lat="43.6698842" lon="11.659878"><ele>1313.0</ele><time>2026-05-03T10:43:34.151Z</time></trkpt><trkpt lat="43.6699435" lon="11.6600762"><ele>1313.0</ele><time>2026-05-03T10:43:36.151Z</time></trkpt><trkpt lat="43.670012" lon="11.6601573"><ele>1313.0</ele><time>2026-05-03T10:43:37.152Z</time></trkpt><trkpt lat="43.6700698" lon="11.6602696"><ele>1313.0</ele><time>2026-05-03T10:43:38.152Z</time></trkpt><trkpt lat="43.6701534" lon="11.6603614"><ele>1313.0</ele><time>2026-05-03T10:43:39.152Z</time></trkpt><trkpt lat="43.6702619" lon="11.6604098"><ele>1313.0</ele><time>2026-05-03T10:43:40.151Z</time></trkpt><trkpt lat="43.6703392" lon="11.6604507"><ele>1311.3333333333335</ele><time>2026-05-03T10:43:41.152Z</time></trkpt><trkpt lat="43.6704005" lon="11.6605021"><ele>1309.6666666666667</ele><time>2026-05-03T10:43:42.152Z</time></trkpt><trkpt lat="43.6704838" lon="11.660505"><ele>1308.0</ele><time>2026-05-03T10:43:43.152Z</time></trkpt><trkpt lat="43.6705752" lon="11.66052"><ele>1306.3333333333333</ele><time>2026-05-03T10:43:44.152Z</time></trkpt><trkpt lat="43.6706562" lon="11.6605135"><ele>1304.6666666666665</ele><time>2026-05-03T10:43:45.151Z</time></trkpt><trkpt lat="43.6707333" lon="11.6604028"><ele>1303.0</ele><time>2026-05-03T10:43:46.151Z</time></trkpt><trkpt lat="43.670811" lon="11.6603522"><ele>1303.0</ele><time>2026-05-03T10:43:47.152Z</time></trkpt><trkpt lat="43.6708769" lon="11.6602821"><ele>1303.0</ele><time>2026-05-03T10:43:48.151Z</time></trkpt><trkpt lat="43.6709305" lon="11.6602329"><ele>1303.0</ele><time>2026-05-03T10:43:49.152Z</time></trkpt><trkpt lat="43.6709693" lon="11.6603032"><ele>1303.0</ele><time>2026-05-03T10:43:50.152Z</time></trkpt><trkpt lat="43.6710792" lon="11.6604185"><ele>1303.0</ele><time>2026-05-03T10:43:52.152Z</time></trkpt><trkpt lat="43.6710765" lon="11.6605336"><ele>1303.0</ele><time>2026-05-03T10:43:53.152Z</time></trkpt><trkpt lat="43.6711227" lon="11.6606719"><ele>1304.8000000000002</ele><time>2026-05-03T10:43:55.152Z</time></trkpt><trkpt lat="43.6711598" lon="11.6607992"><ele>1306.6</ele><time>2026-05-03T10:43:57.152Z</time></trkpt><trkpt lat="43.6712037" lon="11.6609706"><ele>1308.4</ele><time>2026-05-03T10:43:59.152Z</time></trkpt><trkpt lat="43.6712315" lon="11.661067"><ele>1310.1999999999998</ele><time>2026-05-03T10:44:00.152Z</time></trkpt><trkpt lat="43.6712616" lon="11.6611716"><ele>1312.0</ele><time>2026-05-03T10:44:01.151Z</time></trkpt><trkpt lat="43.6712953" lon="11.6612795"><ele>1312.0</ele><time>2026-05-03T10:44:02.151Z</time></trkpt><trkpt lat="43.6713216" lon="11.6613746"><ele>1312.0</ele><time>2026-05-03T10:44:03.151Z</time></trkpt><trkpt lat="43.6713579" lon="11.6614618"><ele>1312.0</ele><time>2026-05-03T10:44:04.152Z</time></trkpt><trkpt lat="43.6714217" lon="11.6615489"><ele>1312.0</ele><time>2026-05-03T10:44:05.151Z</time></trkpt><trkpt lat="43.6714931" lon="11.6616321"><ele>1312.0</ele><time>2026-05-03T10:44:06.151Z</time></trkpt><trkpt lat="43.6715512" lon="11.6617105"><ele>1312.0</ele><time>2026-05-03T10:44:07.152Z</time></trkpt><trkpt lat="43.6716193" lon="11.6617942"><ele>1312.0</ele><time>2026-05-03T10:44:08.152Z</time></trkpt><trkpt lat="43.6716845" lon="11.6618861"><ele>1312.0</ele><time>2026-05-03T10:44:09.151Z</time></trkpt><trkpt lat="43.6717749" lon="11.6619692"><ele>1312.0</ele><time>2026-05-03T10:44:10.152Z</time></trkpt><trkpt lat="43.6718582" lon="11.6620211"><ele>1312.0</ele><time>2026-05-03T10:44:11.152Z</time></trkpt><trkpt lat="43.671956" lon="11.6620768"><ele>1312.0</ele><time>2026-05-03T10:44:12.151Z</time></trkpt><trkpt lat="43.6720417" lon="11.6621194"><ele>1309.8</ele><time>2026-05-03T10:44:13.151Z</time></trkpt><trkpt lat="43.6721459" lon="11.6621527"><ele>1307.6</ele><time>2026-05-03T10:44:14.151Z</time></trkpt><trkpt lat="43.6722401" lon="11.6621427"><ele>1305.3999999999999</ele><time>2026-05-03T10:44:15.15Z</time></trkpt><trkpt lat="43.6723321" lon="11.6621649"><ele>1303.1999999999998</ele><time>2026-05-03T10:44:16.152Z</time></trkpt><trkpt lat="43.6724144" lon="11.6621831"><ele>1301.0</ele><time>2026-05-03T10:44:17.152Z</time></trkpt><trkpt lat="43.672497" lon="11.6621916"><ele>1301.0</ele><time>2026-05-03T10:44:18.152Z</time></trkpt><trkpt lat="43.6724737" lon="11.6619971"><ele>1301.0</ele><time>2026-05-03T10:44:19.152Z</time></trkpt><trkpt lat="43.6725252" lon="11.6619382"><ele>1301.0</ele><time>2026-05-03T10:44:20.151Z</time></trkpt><trkpt lat="43.6725855" lon="11.6618164"><ele>1301.0</ele><time>2026-05-03T10:44:21.152Z</time></trkpt><trkpt lat="43.6726437" lon="11.6617159"><ele>1301.0</ele><time>2026-05-03T10:44:22.152Z</time></trkpt><trkpt lat="43.6726957" lon="11.6616124"><ele>1303.0</ele><time>2026-05-03T10:44:23.151Z</time></trkpt><trkpt lat="43.6727364" lon="11.661506"><ele>1305.0</ele><time>2026-05-03T10:44:24.152Z</time></trkpt><trkpt lat="43.67277" lon="11.6613527"><ele>1307.0</ele><time>2026-05-03T10:44:25.152Z</time></trkpt><trkpt lat="43.6728124" lon="11.6612601"><ele>1309.0</ele><time>2026-05-03T10:44:26.152Z</time></trkpt><trkpt lat="43.6729136" lon="11.6611663"><ele>1311.0</ele><time>2026-05-03T10:44:28.151Z</time></trkpt><trkpt lat="43.6730069" lon="11.6611845"><ele>1311.0</ele><time>2026-05-03T10:44:29.151Z</time></trkpt><trkpt lat="43.6730864" lon="11.6611933"><ele>1311.0</ele><time>2026-05-03T10:44:30.152Z</time></trkpt><trkpt lat="43.6731548" lon="11.6612745"><ele>1311.0</ele><time>2026-05-03T10:44:31.152Z</time></trkpt><trkpt lat="43.6732245" lon="11.6613532"><ele>1311.0</ele><time>2026-05-03T10:44:32.152Z</time></trkpt><trkpt lat="43.673302" lon="11.6614361"><ele>1311.0</ele><time>2026-05-03T10:44:33.152Z</time></trkpt><trkpt lat="43.6733837" lon="11.6614951"><ele>1311.0</ele><time>2026-05-03T10:44:34.152Z</time></trkpt><trkpt lat="43.6734662" lon="11.6615569"><ele>1311.0</ele><time>2026-05-03T10:44:35.152Z</time></trkpt><trkpt lat="43.673537" lon="11.6615995"><ele>1311.0</ele><time>2026-05-03T10:44:36.152Z</time></trkpt><trkpt lat="43.6736314" lon="11.661591"><ele>1311.0</ele><time>2026-05-03T10:44:37.152Z</time></trkpt><trkpt lat="43.6737217" lon="11.661587"><ele>1311.0</ele><time>2026-05-03T10:44:38.152Z</time></trkpt><trkpt lat="43.6737965" lon="11.6615035"><ele>1309.6</ele><time>2026-05-03T10:44:39.152Z</time></trkpt><trkpt lat="43.6738696" lon="11.6614627"><ele>1308.1999999999998</ele><time>2026-05-03T10:44:40.151Z</time></trkpt><trkpt lat="43.6739439" lon="11.6613722"><ele>1306.8000000000002</ele><time>2026-05-03T10:44:41.151Z</time></trkpt><trkpt lat="43.6740074" lon="11.6612644"><ele>1305.4</ele><time>2026-05-03T10:44:42.152Z</time></trkpt><trkpt lat="43.6740668" lon="11.6611598"><ele>1304.0</ele><time>2026-05-03T10:44:43.152Z</time></trkpt><trkpt lat="43.6741374" lon="11.6610615"><ele>1306.0</ele><time>2026-05-03T10:44:44.15Z</time></trkpt><trkpt lat="43.6742007" lon="11.6609804"><ele>1308.0</ele><time>2026-05-03T10:44:45.151Z</time></trkpt><trkpt lat="43.6742858" lon="11.6609227"><ele>1310.0</ele><time>2026-05-03T10:44:46.151Z</time></trkpt><trkpt lat="43.6743669" lon="11.6608866"><ele>1312.0</ele><time>2026-05-03T10:44:47.152Z</time></trkpt><trkpt lat="43.6744661" lon="11.6608289"><ele>1314.0</ele><time>2026-05-03T10:44:48.152Z</time></trkpt><trkpt lat="43.6745384" lon="11.6608347"><ele>1316.0</ele><time>2026-05-03T10:44:49.152Z</time></trkpt><trkpt lat="43.6746145" lon="11.6608939"><ele>1316.0</ele><time>2026-05-03T10:44:50.152Z</time></trkpt><trkpt lat="43.6746587" lon="11.660974"><ele>1316.0</ele><time>2026-05-03T10:44:51.152Z</time></trkpt><trkpt lat="43.674723" lon="11.6610124"><ele>1316.0</ele><time>2026-05-03T10:44:52.151Z</time></trkpt><trkpt lat="43.6748077" lon="11.6610457"><ele>1316.0</ele><time>2026-05-03T10:44:56.152Z</time></trkpt><trkpt lat="43.6749352" lon="11.6610739"><ele>1316.0</ele><time>2026-05-03T10:44:58.152Z</time></trkpt><trkpt lat="43.6750094" lon="11.6610873"><ele>1316.0</ele><time>2026-05-03T10:44:59.152Z</time></trkpt><trkpt lat="43.6750786" lon="11.6610951"><ele>1316.0</ele><time>2026-05-03T10:45:00.15Z</time></trkpt><trkpt lat="43.6751435" lon="11.6611002"><ele>1316.0</ele><time>2026-05-03T10:45:01.151Z</time></trkpt><trkpt lat="43.6752383" lon="11.6610766"><ele>1316.0</ele><time>2026-05-03T10:45:03.151Z</time></trkpt><trkpt lat="43.6752974" lon="11.6610297"><ele>1316.0</ele><time>2026-05-03T10:45:05.15Z</time></trkpt><trkpt lat="43.6753177" lon="11.66093"><ele>1316.0</ele><time>2026-05-03T10:45:08.152Z</time></trkpt><trkpt lat="43.6752651" lon="11.6608529"><ele>1316.0</ele><time>2026-05-03T10:45:11.151Z</time></trkpt><trkpt lat="43.6751775" lon="11.6607948"><ele>1316.0</ele><time>2026-05-03T10:45:18.152Z</time></trkpt><trkpt lat="43.6750929" lon="11.6607397"><ele>1316.0</ele><time>2026-05-03T10:45:20.152Z</time></trkpt><trkpt lat="43.6750015" lon="11.66066"><ele>1316.0</ele><time>2026-05-03T10:45:22.152Z</time></trkpt><trkpt lat="43.6748255" lon="11.6604902"><ele>1316.0</ele><time>2026-05-03T10:45:26.073Z</time></trkpt><trkpt lat="43.6747201" lon="11.6604014"><ele>1316.0</ele><time>2026-05-03T10:45:27.152Z</time></trkpt><trkpt lat="43.6746561" lon="11.660342"><ele>1316.0</ele><time>2026-05-03T10:45:28.151Z</time></trkpt><trkpt lat="43.6745888" lon="11.6602722"><ele>1316.0</ele><time>2026-05-03T10:45:29.15Z</time></trkpt><trkpt lat="43.6745238" lon="11.6601886"><ele>1316.0</ele><time>2026-05-03T10:45:30.151Z</time></trkpt><trkpt lat="43.6744563" lon="11.6601037"><ele>1316.0</ele><time>2026-05-03T10:45:31.152Z</time></trkpt><trkpt lat="43.6743864" lon="11.6600178"><ele>1316.0</ele><time>2026-05-03T10:45:32.152Z</time></trkpt><trkpt lat="43.6743128" lon="11.6599277"><ele>1319.4</ele><time>2026-05-03T10:45:33.151Z</time></trkpt><trkpt lat="43.6742404" lon="11.6598387"><ele>1322.8</ele><time>2026-05-03T10:45:34.152Z</time></trkpt><trkpt lat="43.6741599" lon="11.6597491"><ele>1326.2</ele><time>2026-05-03T10:45:35.152Z</time></trkpt><trkpt lat="43.6740779" lon="11.6596638"><ele>1329.6000000000001</ele><time>2026-05-03T10:45:36.152Z</time></trkpt><trkpt lat="43.6739952" lon="11.6595886"><ele>1333.0</ele><time>2026-05-03T10:45:37.152Z</time></trkpt><trkpt lat="43.6739073" lon="11.65951"><ele>1334.6000000000001</ele><time>2026-05-03T10:45:38.152Z</time></trkpt><trkpt lat="43.6738189" lon="11.6594348"><ele>1336.2</ele><time>2026-05-03T10:45:39.151Z</time></trkpt><trkpt lat="43.6737231" lon="11.6593619"><ele>1337.8</ele><time>2026-05-03T10:45:40.152Z</time></trkpt><trkpt lat="43.6736174" lon="11.6592962"><ele>1339.4</ele><time>2026-05-03T10:45:41.152Z</time></trkpt><trkpt lat="43.6735184" lon="11.6592275"><ele>1341.0</ele><time>2026-05-03T10:45:42.152Z</time></trkpt><trkpt lat="43.673412" lon="11.6591616"><ele>1341.0</ele><time>2026-05-03T10:45:43.152Z</time></trkpt><trkpt lat="43.6733063" lon="11.659098"><ele>1341.0</ele><time>2026-05-03T10:45:44.151Z</time></trkpt><trkpt lat="43.6731955" lon="11.6590392"><ele>1341.0</ele><time>2026-05-03T10:45:45.152Z</time></trkpt><trkpt lat="43.6730851" lon="11.6589864"><ele>1341.0</ele><time>2026-05-03T10:45:46.152Z</time></trkpt><trkpt lat="43.6729731" lon="11.6589322"><ele>1341.0</ele><time>2026-05-03T10:45:47.152Z</time></trkpt><trkpt lat="43.6728555" lon="11.6588798"><ele>1341.0</ele><time>2026-05-03T10:45:48.152Z</time></trkpt><trkpt lat="43.6727458" lon="11.6588099"><ele>1341.0</ele><time>2026-05-03T10:45:49.151Z</time></trkpt><trkpt lat="43.6726427" lon="11.6587194"><ele>1341.0</ele><time>2026-05-03T10:45:50.152Z</time></trkpt><trkpt lat="43.6725426" lon="11.6586247"><ele>1342.0</ele><time>2026-05-03T10:45:51.152Z</time></trkpt><trkpt lat="43.6724442" lon="11.6585202"><ele>1343.0</ele><time>2026-05-03T10:45:52.152Z</time></trkpt><trkpt lat="43.6723506" lon="11.6584147"><ele>1344.0</ele><time>2026-05-03T10:45:53.152Z</time></trkpt><trkpt lat="43.6722605" lon="11.658305"><ele>1345.0</ele><time>2026-05-03T10:45:54.152Z</time></trkpt><trkpt lat="43.6721722" lon="11.6581945"><ele>1345.0</ele><time>2026-05-03T10:45:55.152Z</time></trkpt><trkpt lat="43.6720879" lon="11.6580843"><ele>1345.0</ele><time>2026-05-03T10:45:56.152Z</time></trkpt><trkpt lat="43.6719979" lon="11.6579817"><ele>1345.0</ele><time>2026-05-03T10:45:57.151Z</time></trkpt><trkpt lat="43.6719085" lon="11.6578791"><ele>1345.0</ele><time>2026-05-03T10:45:58.151Z</time></trkpt><trkpt lat="43.6718132" lon="11.6577726"><ele>1348.25</ele><time>2026-05-03T10:45:59.152Z</time></trkpt><trkpt lat="43.6717217" lon="11.6576778"><ele>1351.5</ele><time>2026-05-03T10:46:00.152Z</time></trkpt><trkpt lat="43.6716268" lon="11.6575795"><ele>1354.75</ele><time>2026-05-03T10:46:01.151Z</time></trkpt><trkpt lat="43.6715288" lon="11.6574901"><ele>1358.0</ele><time>2026-05-03T10:46:02.151Z</time></trkpt><trkpt lat="43.6714324" lon="11.6573993"><ele>1358.0</ele><time>2026-05-03T10:46:03.152Z</time></trkpt><trkpt lat="43.671338" lon="11.6573009"><ele>1358.0</ele><time>2026-05-03T10:46:04.152Z</time></trkpt><trkpt lat="43.6712518" lon="11.6571886"><ele>1358.0</ele><time>2026-05-03T10:46:05.152Z</time></trkpt><trkpt lat="43.6711803" lon="11.6570579"><ele>1358.0</ele><time>2026-05-03T10:46:06.151Z</time></trkpt><trkpt lat="43.6711151" lon="11.6569269"><ele>1361.5</ele><time>2026-05-03T10:46:07.152Z</time></trkpt><trkpt lat="43.6710478" lon="11.6567952"><ele>1365.0</ele><time>2026-05-03T10:46:08.151Z</time></trkpt><trkpt lat="43.6709741" lon="11.65667"><ele>1368.5</ele><time>2026-05-03T10:46:09.151Z</time></trkpt><trkpt lat="43.6708918" lon="11.6565562"><ele>1372.0</ele><time>2026-05-03T10:46:10.152Z</time></trkpt><trkpt lat="43.6708019" lon="11.6564461"><ele>1372.0</ele><time>2026-05-03T10:46:11.151Z</time></trkpt><trkpt lat="43.670712" lon="11.6563453"><ele>1372.0</ele><time>2026-05-03T10:46:12.152Z</time></trkpt><trkpt lat="43.6706164" lon="11.6562589"><ele>1372.0</ele><time>2026-05-03T10:46:13.152Z</time></trkpt><trkpt lat="43.6705223" lon="11.6561614"><ele>1372.0</ele><time>2026-05-03T10:46:14.152Z</time></trkpt><trkpt lat="43.6704297" lon="11.6560924"><ele>1370.0</ele><time>2026-05-03T10:46:15.152Z</time></trkpt><trkpt lat="43.6703415" lon="11.6560101"><ele>1368.0</ele><time>2026-05-03T10:46:16.151Z</time></trkpt><trkpt lat="43.6702683" lon="11.6559255"><ele>1366.0</ele><time>2026-05-03T10:46:17.151Z</time></trkpt><trkpt lat="43.670209" lon="11.65583"><ele>1364.0</ele><time>2026-05-03T10:46:18.152Z</time></trkpt><trkpt lat="43.6701679" lon="11.6557267"><ele>1362.0</ele><time>2026-05-03T10:46:19.152Z</time></trkpt><trkpt lat="43.6701287" lon="11.6556275"><ele>1365.3333333333333</ele><time>2026-05-03T10:46:20.152Z</time></trkpt><trkpt lat="43.6701308" lon="11.6555191"><ele>1368.6666666666667</ele><time>2026-05-03T10:46:21.152Z</time></trkpt><trkpt lat="43.6701531" lon="11.6554083"><ele>1372.0</ele><time>2026-05-03T10:46:22.152Z</time></trkpt><trkpt lat="43.6701761" lon="11.6552906"><ele>1375.3333333333335</ele><time>2026-05-03T10:46:23.152Z</time></trkpt><trkpt lat="43.6701922" lon="11.6551698"><ele>1378.6666666666667</ele><time>2026-05-03T10:46:24.151Z</time></trkpt><trkpt lat="43.6702099" lon="11.6550432"><ele>1382.0</ele><time>2026-05-03T10:46:25.152Z</time></trkpt><trkpt lat="43.6702226" lon="11.6549198"><ele>1381.0</ele><time>2026-05-03T10:46:26.152Z</time></trkpt><trkpt lat="43.6702125" lon="11.6547849"><ele>1380.0</ele><time>2026-05-03T10:46:27.152Z</time></trkpt><trkpt lat="43.6701861" lon="11.6546628"><ele>1379.0</ele><time>2026-05-03T10:46:28.151Z</time></trkpt><trkpt lat="43.6701295" lon="11.6545651"><ele>1378.0</ele><time>2026-05-03T10:46:29.152Z</time></trkpt><trkpt lat="43.6700474" lon="11.6544859"><ele>1377.0</ele><time>2026-05-03T10:46:30.152Z</time></trkpt><trkpt lat="43.6699646" lon="11.6544213"><ele>1377.0</ele><time>2026-05-03T10:46:31.152Z</time></trkpt><trkpt lat="43.6698633" lon="11.6543746"><ele>1377.0</ele><time>2026-05-03T10:46:32.152Z</time></trkpt><trkpt lat="43.669755" lon="11.6543593"><ele>1377.0</ele><time>2026-05-03T10:46:33.151Z</time></trkpt><trkpt lat="43.6696572" lon="11.6543553"><ele>1377.0</ele><time>2026-05-03T10:46:34.151Z</time></trkpt><trkpt lat="43.6695601" lon="11.6543713"><ele>1377.0</ele><time>2026-05-03T10:46:35.152Z</time></trkpt><trkpt lat="43.6694735" lon="11.654436"><ele>1380.5</ele><time>2026-05-03T10:46:36.152Z</time></trkpt><trkpt lat="43.6693909" lon="11.6545236"><ele>1384.0</ele><time>2026-05-03T10:46:37.152Z</time></trkpt><trkpt lat="43.6693119" lon="11.6545974"><ele>1387.5</ele><time>2026-05-03T10:46:38.152Z</time></trkpt><trkpt lat="43.6692286" lon="11.6546553"><ele>1391.0</ele><time>2026-05-03T10:46:39.152Z</time></trkpt><trkpt lat="43.6691647" lon="11.6546716"><ele>1394.5</ele><time>2026-05-03T10:46:40.152Z</time></trkpt><trkpt lat="43.6690911" lon="11.6546746"><ele>1398.0</ele><time>2026-05-03T10:46:41.152Z</time></trkpt><trkpt lat="43.6690146" lon="11.6546478"><ele>1398.0</ele><time>2026-05-03T10:46:42.151Z</time></trkpt><trkpt lat="43.668934" lon="11.6546035"><ele>1398.0</ele><time>2026-05-03T10:46:43.152Z</time></trkpt><trkpt lat="43.6688536" lon="11.6545512"><ele>1398.0</ele><time>2026-05-03T10:46:44.15Z</time></trkpt><trkpt lat="43.6687692" lon="11.6545"><ele>1398.0</ele><time>2026-05-03T10:46:45.152Z</time></trkpt><trkpt lat="43.6686757" lon="11.6544593"><ele>1398.0</ele><time>2026-05-03T10:46:46.151Z</time></trkpt><trkpt lat="43.6685819" lon="11.6544159"><ele>1399.2</ele><time>2026-05-03T10:46:47.152Z</time></trkpt><trkpt lat="43.6684823" lon="11.6543848"><ele>1400.4</ele><time>2026-05-03T10:46:48.151Z</time></trkpt><trkpt lat="43.6683817" lon="11.6543535"><ele>1401.6000000000001</ele><time>2026-05-03T10:46:49.151Z</time></trkpt><trkpt lat="43.6682746" lon="11.6543203"><ele>1402.8000000000002</ele><time>2026-05-03T10:46:50.152Z</time></trkpt><trkpt lat="43.6681767" lon="11.6542549"><ele>1404.0</ele><time>2026-05-03T10:46:51.151Z</time></trkpt><trkpt lat="43.6680715" lon="11.6541767"><ele>1404.0</ele><time>2026-05-03T10:46:52.151Z</time></trkpt><trkpt lat="43.6679807" lon="11.6540646"><ele>1404.0</ele><time>2026-05-03T10:46:53.152Z</time></trkpt><trkpt lat="43.6678889" lon="11.6539589"><ele>1404.0</ele><time>2026-05-03T10:46:54.152Z</time></trkpt><trkpt lat="43.6677888" lon="11.6538717"><ele>1404.0</ele><time>2026-05-03T10:46:55.151Z</time></trkpt><trkpt lat="43.6676862" lon="11.6537986"><ele>1407.2</ele><time>2026-05-03T10:46:56.152Z</time></trkpt><trkpt lat="43.6675884" lon="11.6537189"><ele>1410.4</ele><time>2026-05-03T10:46:57.152Z</time></trkpt><trkpt lat="43.6675191" lon="11.6536184"><ele>1413.6</ele><time>2026-05-03T10:46:58.152Z</time></trkpt><trkpt lat="43.667474" lon="11.6534851"><ele>1416.8</ele><time>2026-05-03T10:46:59.151Z</time></trkpt><trkpt lat="43.6674536" lon="11.6533485"><ele>1420.0</ele><time>2026-05-03T10:47:00.151Z</time></trkpt><trkpt lat="43.6674489" lon="11.6532013"><ele>1420.0</ele><time>2026-05-03T10:47:01.152Z</time></trkpt><trkpt lat="43.6674388" lon="11.6530553"><ele>1420.0</ele><time>2026-05-03T10:47:02.152Z</time></trkpt><trkpt lat="43.6674208" lon="11.6529046"><ele>1420.0</ele><time>2026-05-03T10:47:03.152Z</time></trkpt><trkpt lat="43.6673932" lon="11.652741"><ele>1420.0</ele><time>2026-05-03T10:47:04.152Z</time></trkpt><trkpt lat="43.6673644" lon="11.6525858"><ele>1420.0</ele><time>2026-05-03T10:47:05.152Z</time></trkpt><trkpt lat="43.6673635" lon="11.6524247"><ele>1420.0</ele><time>2026-05-03T10:47:06.15Z</time></trkpt><trkpt lat="43.6673722" lon="11.652267"><ele>1420.0</ele><time>2026-05-03T10:47:07.151Z</time></trkpt><trkpt lat="43.6674147" lon="11.6521216"><ele>1420.0</ele><time>2026-05-03T10:47:08.152Z</time></trkpt><trkpt lat="43.6674685" lon="11.6519895"><ele>1421.0</ele><time>2026-05-03T10:47:09.151Z</time></trkpt><trkpt lat="43.6675328" lon="11.6518649"><ele>1422.0</ele><time>2026-05-03T10:47:10.15Z</time></trkpt><trkpt lat="43.6675838" lon="11.6517541"><ele>1423.0</ele><time>2026-05-03T10:47:11.152Z</time></trkpt><trkpt lat="43.667626" lon="11.6516437"><ele>1424.0</ele><time>2026-05-03T10:47:12.151Z</time></trkpt><trkpt lat="43.6676536" lon="11.6515298"><ele>1425.0</ele><time>2026-05-03T10:47:13.151Z</time></trkpt><trkpt lat="43.6676634" lon="11.6513987"><ele>1425.0</ele><time>2026-05-03T10:47:14.152Z</time></trkpt><trkpt lat="43.66764" lon="11.6512661"><ele>1425.0</ele><time>2026-05-03T10:47:15.151Z</time></trkpt><trkpt lat="43.6675984" lon="11.6511309"><ele>1425.0</ele><time>2026-05-03T10:47:16.152Z</time></trkpt><trkpt lat="43.6675401" lon="11.6510013"><ele>1425.0</ele><time>2026-05-03T10:47:17.152Z</time></trkpt><trkpt lat="43.667473" lon="11.6508655"><ele>1425.0</ele><time>2026-05-03T10:47:18.152Z</time></trkpt><trkpt lat="43.6673937" lon="11.6507361"><ele>1424.5</ele><time>2026-05-03T10:47:19.152Z</time></trkpt><trkpt lat="43.6673076" lon="11.6506038"><ele>1424.0</ele><time>2026-05-03T10:47:20.152Z</time></trkpt><trkpt lat="43.6672199" lon="11.6504748"><ele>1423.5</ele><time>2026-05-03T10:47:21.152Z</time></trkpt><trkpt lat="43.6671188" lon="11.6503586"><ele>1423.0</ele><time>2026-05-03T10:47:22.151Z</time></trkpt><trkpt lat="43.6670125" lon="11.6502573"><ele>1426.5</ele><time>2026-05-03T10:47:23.151Z</time></trkpt><trkpt lat="43.6668924" lon="11.6501619"><ele>1430.0</ele><time>2026-05-03T10:47:24.151Z</time></trkpt><trkpt lat="43.6667821" lon="11.6500693"><ele>1433.5</ele><time>2026-05-03T10:47:25.151Z</time></trkpt><trkpt lat="43.6666868" lon="11.6499725"><ele>1437.0</ele><time>2026-05-03T10:47:26.151Z</time></trkpt><trkpt lat="43.666598" lon="11.6498668"><ele>1437.0</ele><time>2026-05-03T10:47:27.152Z</time></trkpt><trkpt lat="43.6665368" lon="11.6497213"><ele>1437.0</ele><time>2026-05-03T10:47:28.152Z</time></trkpt><trkpt lat="43.6664595" lon="11.6495925"><ele>1437.0</ele><time>2026-05-03T10:47:29.152Z</time></trkpt><trkpt lat="43.6663674" lon="11.6494803"><ele>1437.0</ele><time>2026-05-03T10:47:30.151Z</time></trkpt><trkpt lat="43.6662749" lon="11.6493673"><ele>1441.5</ele><time>2026-05-03T10:47:31.152Z</time></trkpt><trkpt lat="43.6661881" lon="11.6492483"><ele>1446.0</ele><time>2026-05-03T10:47:32.151Z</time></trkpt><trkpt lat="43.6661207" lon="11.6491042"><ele>1450.5</ele><time>2026-05-03T10:47:33.152Z</time></trkpt><trkpt lat="43.6660862" lon="11.6489478"><ele>1455.0</ele><time>2026-05-03T10:47:34.151Z</time></trkpt><trkpt lat="43.6660505" lon="11.6487907"><ele>1453.6</ele><time>2026-05-03T10:47:35.151Z</time></trkpt><trkpt lat="43.666041" lon="11.6486169"><ele>1452.2</ele><time>2026-05-03T10:47:36.15Z</time></trkpt><trkpt lat="43.6661051" lon="11.6484775"><ele>1450.8000000000002</ele><time>2026-05-03T10:47:37.152Z</time></trkpt><trkpt lat="43.6661266" lon="11.6483381"><ele>1449.4</ele><time>2026-05-03T10:47:38.152Z</time></trkpt><trkpt lat="43.6661252" lon="11.6482014"><ele>1448.0</ele><time>2026-05-03T10:47:39.152Z</time></trkpt><trkpt lat="43.6661344" lon="11.6480673"><ele>1448.0</ele><time>2026-05-03T10:47:40.152Z</time></trkpt><trkpt lat="43.6660587" lon="11.6479583"><ele>1448.0</ele><time>2026-05-03T10:47:41.151Z</time></trkpt><trkpt lat="43.6659874" lon="11.6478625"><ele>1448.0</ele><time>2026-05-03T10:47:42.152Z</time></trkpt><trkpt lat="43.6659132" lon="11.647768"><ele>1448.0</ele><time>2026-05-03T10:47:43.15Z</time></trkpt><trkpt lat="43.6658094" lon="11.6477139"><ele>1448.0</ele><time>2026-05-03T10:47:44.152Z</time></trkpt><trkpt lat="43.665705" lon="11.6476537"><ele>1450.4</ele><time>2026-05-03T10:47:45.151Z</time></trkpt><trkpt lat="43.6655983" lon="11.6476175"><ele>1452.8000000000002</ele><time>2026-05-03T10:47:46.152Z</time></trkpt><trkpt lat="43.6654859" lon="11.6475838"><ele>1455.2</ele><time>2026-05-03T10:47:47.152Z</time></trkpt><trkpt lat="43.6653773" lon="11.6475406"><ele>1457.6</ele><time>2026-05-03T10:47:48.151Z</time></trkpt><trkpt lat="43.6652756" lon="11.6474905"><ele>1460.0</ele><time>2026-05-03T10:47:49.152Z</time></trkpt><trkpt lat="43.6651889" lon="11.64742"><ele>1460.0</ele><time>2026-05-03T10:47:50.15Z</time></trkpt><trkpt lat="43.665125" lon="11.6473163"><ele>1460.0</ele><time>2026-05-03T10:47:51.152Z</time></trkpt><trkpt lat="43.6650851" lon="11.6471824"><ele>1460.0</ele><time>2026-05-03T10:47:52.152Z</time></trkpt><trkpt lat="43.6650592" lon="11.6470332"><ele>1460.0</ele><time>2026-05-03T10:47:53.152Z</time></trkpt><trkpt lat="43.6650287" lon="11.6468837"><ele>1460.0</ele><time>2026-05-03T10:47:54.152Z</time></trkpt><trkpt lat="43.6649796" lon="11.6467391"><ele>1455.0</ele><time>2026-05-03T10:47:55.151Z</time></trkpt><trkpt lat="43.6649128" lon="11.6466073"><ele>1450.0</ele><time>2026-05-03T10:47:56.151Z</time></trkpt><trkpt lat="43.6648324" lon="11.6464826"><ele>1445.0</ele><time>2026-05-03T10:47:57.151Z</time></trkpt><trkpt lat="43.6647566" lon="11.6463496"><ele>1440.0</ele><time>2026-05-03T10:47:58.152Z</time></trkpt><trkpt lat="43.6646848" lon="11.6462112"><ele>1443.0</ele><time>2026-05-03T10:47:59.151Z</time></trkpt><trkpt lat="43.6646138" lon="11.6460802"><ele>1446.0</ele><time>2026-05-03T10:48:00.151Z</time></trkpt><trkpt lat="43.6645281" lon="11.6459528"><ele>1449.0</ele><time>2026-05-03T10:48:01.152Z</time></trkpt><trkpt lat="43.6644371" lon="11.6458396"><ele>1452.0</ele><time>2026-05-03T10:48:02.152Z</time></trkpt><trkpt lat="43.6643372" lon="11.6457328"><ele>1452.0</ele><time>2026-05-03T10:48:03.151Z</time></trkpt><trkpt lat="43.6642368" lon="11.6456245"><ele>1452.0</ele><time>2026-05-03T10:48:04.151Z</time></trkpt><trkpt lat="43.6641374" lon="11.6455153"><ele>1452.0</ele><time>2026-05-03T10:48:05.151Z</time></trkpt><trkpt lat="43.6640381" lon="11.6454053"><ele>1452.0</ele><time>2026-05-03T10:48:06.152Z</time></trkpt><trkpt lat="43.6639443" lon="11.6452852"><ele>1447.75</ele><time>2026-05-03T10:48:07.152Z</time></trkpt><trkpt lat="43.6638608" lon="11.6451483"><ele>1443.5</ele><time>2026-05-03T10:48:08.152Z</time></trkpt><trkpt lat="43.6637933" lon="11.6449962"><ele>1439.25</ele><time>2026-05-03T10:48:09.152Z</time></trkpt><trkpt lat="43.6637418" lon="11.6448289"><ele>1435.0</ele><time>2026-05-03T10:48:10.151Z</time></trkpt><trkpt lat="43.6637088" lon="11.6446514"><ele>1435.0</ele><time>2026-05-03T10:48:11.152Z</time></trkpt><trkpt lat="43.6636958" lon="11.6444703"><ele>1435.0</ele><time>2026-05-03T10:48:12.152Z</time></trkpt><trkpt lat="43.663694" lon="11.6442882"><ele>1435.0</ele><time>2026-05-03T10:48:13.152Z</time></trkpt><trkpt lat="43.6636964" lon="11.6441057"><ele>1435.0</ele><time>2026-05-03T10:48:14.151Z</time></trkpt><trkpt lat="43.663697" lon="11.6439238"><ele>1432.75</ele><time>2026-05-03T10:48:15.151Z</time></trkpt><trkpt lat="43.6636957" lon="11.6437449"><ele>1430.5</ele><time>2026-05-03T10:48:16.152Z</time></trkpt><trkpt lat="43.6636935" lon="11.6435642"><ele>1428.25</ele><time>2026-05-03T10:48:17.151Z</time></trkpt><trkpt lat="43.6636911" lon="11.6433874"><ele>1426.0</ele><time>2026-05-03T10:48:18.152Z</time></trkpt><trkpt lat="43.6636922" lon="11.643209"><ele>1425.25</ele><time>2026-05-03T10:48:19.151Z</time></trkpt><trkpt lat="43.6637064" lon="11.6430301"><ele>1424.5</ele><time>2026-05-03T10:48:20.152Z</time></trkpt><trkpt lat="43.663732" lon="11.6428548"><ele>1423.75</ele><time>2026-05-03T10:48:21.152Z</time></trkpt><trkpt lat="43.663769" lon="11.6426816"><ele>1423.0</ele><time>2026-05-03T10:48:22.15Z</time></trkpt><trkpt lat="43.6638183" lon="11.6425108"><ele>1425.6000000000001</ele><time>2026-05-03T10:48:23.152Z</time></trkpt><trkpt lat="43.6638707" lon="11.6423606"><ele>1428.2</ele><time>2026-05-03T10:48:24.152Z</time></trkpt><trkpt lat="43.6639239" lon="11.6422247"><ele>1430.8</ele><time>2026-05-03T10:48:25.15Z</time></trkpt><trkpt lat="43.6639776" lon="11.6421025"><ele>1433.4</ele><time>2026-05-03T10:48:26.15Z</time></trkpt><trkpt lat="43.6640351" lon="11.6419968"><ele>1436.0</ele><time>2026-05-03T10:48:27.151Z</time></trkpt><trkpt lat="43.664092" lon="11.6418965"><ele>1438.1999999999998</ele><time>2026-05-03T10:48:28.152Z</time></trkpt><trkpt lat="43.6641507" lon="11.6418001"><ele>1440.3999999999999</ele><time>2026-05-03T10:48:29.151Z</time></trkpt><trkpt lat="43.6642187" lon="11.6417019"><ele>1442.6</ele><time>2026-05-03T10:48:30.152Z</time></trkpt><trkpt lat="43.664291" lon="11.6415971"><ele>1444.8</ele><time>2026-05-03T10:48:31.151Z</time></trkpt><trkpt lat="43.6643647" lon="11.6414848"><ele>1447.0</ele><time>2026-05-03T10:48:32.152Z</time></trkpt><trkpt lat="43.6644242" lon="11.6413595"><ele>1443.75</ele><time>2026-05-03T10:48:33.151Z</time></trkpt><trkpt lat="43.6644741" lon="11.6412199"><ele>1440.5</ele><time>2026-05-03T10:48:34.151Z</time></trkpt><trkpt lat="43.6645138" lon="11.641072"><ele>1437.25</ele><time>2026-05-03T10:48:35.152Z</time></trkpt><trkpt lat="43.6645589" lon="11.6409189"><ele>1434.0</ele><time>2026-05-03T10:48:36.152Z</time></trkpt><trkpt lat="43.6646131" lon="11.6407652"><ele>1434.0</ele><time>2026-05-03T10:48:37.152Z</time></trkpt><trkpt lat="43.6646773" lon="11.6406162"><ele>1434.0</ele><time>2026-05-03T10:48:38.15Z</time></trkpt><trkpt lat="43.6647513" lon="11.6404833"><ele>1434.0</ele><time>2026-05-03T10:48:39.151Z</time></trkpt><trkpt lat="43.6648353" lon="11.6403732"><ele>1434.0</ele><time>2026-05-03T10:48:40.152Z</time></trkpt><trkpt lat="43.6649246" lon="11.640288"><ele>1436.8000000000002</ele><time>2026-05-03T10:48:41.151Z</time></trkpt><trkpt lat="43.6650207" lon="11.6402222"><ele>1439.6000000000001</ele><time>2026-05-03T10:48:42.151Z</time></trkpt><trkpt lat="43.665126" lon="11.640183"><ele>1442.4</ele><time>2026-05-03T10:48:43.152Z</time></trkpt><trkpt lat="43.6652371" lon="11.640173"><ele>1445.2</ele><time>2026-05-03T10:48:44.152Z</time></trkpt><trkpt lat="43.6653551" lon="11.64019"><ele>1448.0</ele><time>2026-05-03T10:48:45.152Z</time></trkpt><trkpt lat="43.6654794" lon="11.6402117"><ele>1448.0</ele><time>2026-05-03T10:48:46.151Z</time></trkpt><trkpt lat="43.6656009" lon="11.6402503"><ele>1448.0</ele><time>2026-05-03T10:48:47.151Z</time></trkpt><trkpt lat="43.6657245" lon="11.6402815"><ele>1448.0</ele><time>2026-05-03T10:48:48.152Z</time></trkpt><trkpt lat="43.6658515" lon="11.6403182"><ele>1448.0</ele><time>2026-05-03T10:48:49.152Z</time></trkpt><trkpt lat="43.66598" lon="11.6403494"><ele>1446.5</ele><time>2026-05-03T10:48:50.152Z</time></trkpt><trkpt lat="43.6660957" lon="11.6403479"><ele>1445.0</ele><time>2026-05-03T10:48:51.152Z</time></trkpt><trkpt lat="43.666226" lon="11.6403201"><ele>1443.5</ele><time>2026-05-03T10:48:52.151Z</time></trkpt><trkpt lat="43.6663504" lon="11.640313"><ele>1442.0</ele><time>2026-05-03T10:48:53.152Z</time></trkpt><trkpt lat="43.6664774" lon="11.6402954"><ele>1442.0</ele><time>2026-05-03T10:48:54.152Z</time></trkpt><trkpt lat="43.6666038" lon="11.6402672"><ele>1442.0</ele><time>2026-05-03T10:48:55.152Z</time></trkpt><trkpt lat="43.6667302" lon="11.6402395"><ele>1442.0</ele><time>2026-05-03T10:48:56.151Z</time></trkpt><trkpt lat="43.666857" lon="11.640225"><ele>1442.0</ele><time>2026-05-03T10:48:57.151Z</time></trkpt><trkpt lat="43.6669833" lon="11.6402163"><ele>1438.5</ele><time>2026-05-03T10:48:58.151Z</time></trkpt><trkpt lat="43.6671057" lon="11.6402035"><ele>1435.0</ele><time>2026-05-03T10:48:59.152Z</time></trkpt><trkpt lat="43.6672227" lon="11.6401807"><ele>1431.5</ele><time>2026-05-03T10:49:00.151Z</time></trkpt><trkpt lat="43.6673367" lon="11.6401619"><ele>1428.0</ele><time>2026-05-03T10:49:01.152Z</time></trkpt><trkpt lat="43.6674456" lon="11.6401333"><ele>1428.0</ele><time>2026-05-03T10:49:02.152Z</time></trkpt><trkpt lat="43.6675577" lon="11.6400683"><ele>1428.0</ele><time>2026-05-03T10:49:03.152Z</time></trkpt><trkpt lat="43.6676573" lon="11.6399956"><ele>1428.0</ele><time>2026-05-03T10:49:04.151Z</time></trkpt><trkpt lat="43.6677403" lon="11.6399004"><ele>1428.0</ele><time>2026-05-03T10:49:05.152Z</time></trkpt><trkpt lat="43.6678183" lon="11.6397858"><ele>1423.2</ele><time>2026-05-03T10:49:06.151Z</time></trkpt><trkpt lat="43.6678805" lon="11.6396584"><ele>1418.4</ele><time>2026-05-03T10:49:07.151Z</time></trkpt><trkpt lat="43.6679432" lon="11.6395252"><ele>1413.6000000000001</ele><time>2026-05-03T10:49:08.152Z</time></trkpt><trkpt lat="43.6679955" lon="11.6393932"><ele>1408.8000000000002</ele><time>2026-05-03T10:49:09.152Z</time></trkpt><trkpt lat="43.6680185" lon="11.6392533"><ele>1404.0</ele><time>2026-05-03T10:49:10.152Z</time></trkpt><trkpt lat="43.6680298" lon="11.6390859"><ele>1403.5</ele><time>2026-05-03T10:49:11.152Z</time></trkpt><trkpt lat="43.6680491" lon="11.638921"><ele>1403.0</ele><time>2026-05-03T10:49:12.152Z</time></trkpt><trkpt lat="43.6680329" lon="11.6387404"><ele>1402.5</ele><time>2026-05-03T10:49:13.151Z</time></trkpt><trkpt lat="43.6680343" lon="11.6385751"><ele>1402.0</ele><time>2026-05-03T10:49:14.151Z</time></trkpt><trkpt lat="43.6680332" lon="11.6384108"><ele>1402.0</ele><time>2026-05-03T10:49:15.152Z</time></trkpt><trkpt lat="43.6680317" lon="11.6382563"><ele>1402.0</ele><time>2026-05-03T10:49:16.152Z</time></trkpt><trkpt lat="43.6680193" lon="11.6380982"><ele>1402.0</ele><time>2026-05-03T10:49:17.151Z</time></trkpt><trkpt lat="43.6680015" lon="11.6379405"><ele>1402.0</ele><time>2026-05-03T10:49:18.151Z</time></trkpt><trkpt lat="43.6679694" lon="11.6377865"><ele>1400.8</ele><time>2026-05-03T10:49:19.151Z</time></trkpt><trkpt lat="43.6679478" lon="11.6376281"><ele>1399.6</ele><time>2026-05-03T10:49:20.151Z</time></trkpt><trkpt lat="43.6679297" lon="11.6374887"><ele>1398.3999999999999</ele><time>2026-05-03T10:49:21.151Z</time></trkpt><trkpt lat="43.667864" lon="11.63737"><ele>1397.1999999999998</ele><time>2026-05-03T10:49:22.152Z</time></trkpt><trkpt lat="43.6678229" lon="11.6372422"><ele>1396.0</ele><time>2026-05-03T10:49:23.152Z</time></trkpt><trkpt lat="43.6678078" lon="11.6371022"><ele>1395.0</ele><time>2026-05-03T10:49:24.152Z</time></trkpt><trkpt lat="43.6678151" lon="11.6369448"><ele>1394.0</ele><time>2026-05-03T10:49:25.152Z</time></trkpt><trkpt lat="43.667866" lon="11.6368046"><ele>1393.0</ele><time>2026-05-03T10:49:26.151Z</time></trkpt><trkpt lat="43.6679243" lon="11.6366522"><ele>1392.0</ele><time>2026-05-03T10:49:27.152Z</time></trkpt><trkpt lat="43.6679971" lon="11.6365194"><ele>1392.0</ele><time>2026-05-03T10:49:28.151Z</time></trkpt><trkpt lat="43.6680653" lon="11.6363703"><ele>1392.0</ele><time>2026-05-03T10:49:29.152Z</time></trkpt><trkpt lat="43.6681421" lon="11.6362419"><ele>1392.0</ele><time>2026-05-03T10:49:30.152Z</time></trkpt><trkpt lat="43.6682063" lon="11.6361108"><ele>1392.0</ele><time>2026-05-03T10:49:31.152Z</time></trkpt><trkpt lat="43.6682489" lon="11.6359934"><ele>1391.8</ele><time>2026-05-03T10:49:32.152Z</time></trkpt><trkpt lat="43.6682927" lon="11.6358738"><ele>1391.6</ele><time>2026-05-03T10:49:33.152Z</time></trkpt><trkpt lat="43.6682872" lon="11.6357561"><ele>1391.3999999999999</ele><time>2026-05-03T10:49:34.152Z</time></trkpt><trkpt lat="43.6682658" lon="11.6356184"><ele>1391.1999999999998</ele><time>2026-05-03T10:49:35.15Z</time></trkpt><trkpt lat="43.668246" lon="11.6354739"><ele>1391.0</ele><time>2026-05-03T10:49:36.151Z</time></trkpt><trkpt lat="43.6682241" lon="11.6353289"><ele>1388.25</ele><time>2026-05-03T10:49:37.151Z</time></trkpt><trkpt lat="43.6681023" lon="11.6352069"><ele>1385.5</ele><time>2026-05-03T10:49:38.151Z</time></trkpt><trkpt lat="43.6680359" lon="11.6350744"><ele>1382.75</ele><time>2026-05-03T10:49:39.151Z</time></trkpt><trkpt lat="43.6679687" lon="11.6349556"><ele>1380.0</ele><time>2026-05-03T10:49:40.151Z</time></trkpt><trkpt lat="43.6679076" lon="11.6348522"><ele>1380.0</ele><time>2026-05-03T10:49:41.151Z</time></trkpt><trkpt lat="43.6678775" lon="11.6347476"><ele>1380.0</ele><time>2026-05-03T10:49:42.152Z</time></trkpt><trkpt lat="43.6678741" lon="11.6346298"><ele>1380.0</ele><time>2026-05-03T10:49:43.151Z</time></trkpt><trkpt lat="43.6678932" lon="11.6345035"><ele>1380.0</ele><time>2026-05-03T10:49:44.152Z</time></trkpt><trkpt lat="43.6679366" lon="11.6343741"><ele>1380.0</ele><time>2026-05-03T10:49:45.151Z</time></trkpt><trkpt lat="43.667988" lon="11.6342399"><ele>1378.75</ele><time>2026-05-03T10:49:46.151Z</time></trkpt><trkpt lat="43.6680324" lon="11.6340917"><ele>1377.5</ele><time>2026-05-03T10:49:47.152Z</time></trkpt><trkpt lat="43.6680818" lon="11.6339447"><ele>1376.25</ele><time>2026-05-03T10:49:48.152Z</time></trkpt><trkpt lat="43.6681126" lon="11.6337894"><ele>1375.0</ele><time>2026-05-03T10:49:49.152Z</time></trkpt><trkpt lat="43.6680884" lon="11.6336087"><ele>1374.4</ele><time>2026-05-03T10:49:50.152Z</time></trkpt><trkpt lat="43.6680839" lon="11.6334552"><ele>1373.8</ele><time>2026-05-03T10:49:51.151Z</time></trkpt><trkpt lat="43.6680873" lon="11.6333176"><ele>1373.1999999999998</ele><time>2026-05-03T10:49:52.152Z</time></trkpt><trkpt lat="43.6680877" lon="11.6331947"><ele>1372.6</ele><time>2026-05-03T10:49:53.15Z</time></trkpt><trkpt lat="43.6681686" lon="11.6330854"><ele>1372.0</ele><time>2026-05-03T10:49:54.151Z</time></trkpt><trkpt lat="43.6682201" lon="11.6329665"><ele>1372.0</ele><time>2026-05-03T10:49:55.152Z</time></trkpt><trkpt lat="43.6682743" lon="11.6328416"><ele>1372.0</ele><time>2026-05-03T10:49:56.151Z</time></trkpt><trkpt lat="43.6683736" lon="11.6327273"><ele>1372.0</ele><time>2026-05-03T10:49:57.152Z</time></trkpt><trkpt lat="43.6684544" lon="11.6326171"><ele>1372.0</ele><time>2026-05-03T10:49:58.151Z</time></trkpt><trkpt lat="43.6685564" lon="11.632504"><ele>1367.75</ele><time>2026-05-03T10:49:59.152Z</time></trkpt><trkpt lat="43.6686516" lon="11.6323849"><ele>1363.5</ele><time>2026-05-03T10:50:00.152Z</time></trkpt><trkpt lat="43.6687388" lon="11.6322825"><ele>1359.25</ele><time>2026-05-03T10:50:01.152Z</time></trkpt><trkpt lat="43.6688442" lon="11.6321848"><ele>1355.0</ele><time>2026-05-03T10:50:02.151Z</time></trkpt><trkpt lat="43.6689354" lon="11.6320816"><ele>1355.8</ele><time>2026-05-03T10:50:03.152Z</time></trkpt><trkpt lat="43.6690238" lon="11.6319654"><ele>1356.6</ele><time>2026-05-03T10:50:04.152Z</time></trkpt><trkpt lat="43.6690991" lon="11.6318615"><ele>1357.4</ele><time>2026-05-03T10:50:05.151Z</time></trkpt><trkpt lat="43.669187" lon="11.6317765"><ele>1358.2</ele><time>2026-05-03T10:50:06.151Z</time></trkpt><trkpt lat="43.6692873" lon="11.6317146"><ele>1359.0</ele><time>2026-05-03T10:50:07.152Z</time></trkpt><trkpt lat="43.6693986" lon="11.6316701"><ele>1358.0</ele><time>2026-05-03T10:50:08.151Z</time></trkpt><trkpt lat="43.6695183" lon="11.631648"><ele>1357.0</ele><time>2026-05-03T10:50:09.152Z</time></trkpt><trkpt lat="43.669643" lon="11.6316492"><ele>1356.0</ele><time>2026-05-03T10:50:10.152Z</time></trkpt><trkpt lat="43.6697732" lon="11.6316708"><ele>1355.0</ele><time>2026-05-03T10:50:11.151Z</time></trkpt><trkpt lat="43.6698975" lon="11.6317026"><ele>1355.0</ele><time>2026-05-03T10:50:12.152Z</time></trkpt><trkpt lat="43.6700146" lon="11.6317568"><ele>1355.0</ele><time>2026-05-03T10:50:13.152Z</time></trkpt><trkpt lat="43.6701327" lon="11.6318231"><ele>1355.0</ele><time>2026-05-03T10:50:14.15Z</time></trkpt><trkpt lat="43.6702479" lon="11.6319033"><ele>1355.0</ele><time>2026-05-03T10:50:15.151Z</time></trkpt><trkpt lat="43.670359" lon="11.6320052"><ele>1351.0</ele><time>2026-05-03T10:50:16.15Z</time></trkpt><trkpt lat="43.6704627" lon="11.632105"><ele>1347.0</ele><time>2026-05-03T10:50:17.151Z</time></trkpt><trkpt lat="43.6705659" lon="11.6321848"><ele>1343.0</ele><time>2026-05-03T10:50:18.151Z</time></trkpt><trkpt lat="43.6706685" lon="11.6322558"><ele>1339.0</ele><time>2026-05-03T10:50:19.152Z</time></trkpt><trkpt lat="43.6707948" lon="11.6322935"><ele>1339.0</ele><time>2026-05-03T10:50:20.152Z</time></trkpt><trkpt lat="43.6709221" lon="11.6323328"><ele>1339.0</ele><time>2026-05-03T10:50:21.152Z</time></trkpt><trkpt lat="43.6710342" lon="11.6323032"><ele>1339.0</ele><time>2026-05-03T10:50:22.152Z</time></trkpt><trkpt lat="43.6711373" lon="11.6321843"><ele>1339.0</ele><time>2026-05-03T10:50:23.152Z</time></trkpt><trkpt lat="43.6712839" lon="11.6321098"><ele>1338.25</ele><time>2026-05-03T10:50:24.151Z</time></trkpt><trkpt lat="43.6714083" lon="11.632029"><ele>1337.5</ele><time>2026-05-03T10:50:25.152Z</time></trkpt><trkpt lat="43.6715173" lon="11.6319285"><ele>1336.75</ele><time>2026-05-03T10:50:26.152Z</time></trkpt><trkpt lat="43.6716233" lon="11.6317911"><ele>1336.0</ele><time>2026-05-03T10:50:27.152Z</time></trkpt><trkpt lat="43.6717233" lon="11.6317067"><ele>1336.0</ele><time>2026-05-03T10:50:28.152Z</time></trkpt><trkpt lat="43.671822" lon="11.6316111"><ele>1336.0</ele><time>2026-05-03T10:50:29.152Z</time></trkpt><trkpt lat="43.6719122" lon="11.6315288"><ele>1336.0</ele><time>2026-05-03T10:50:30.151Z</time></trkpt><trkpt lat="43.6720015" lon="11.6314842"><ele>1336.0</ele><time>2026-05-03T10:50:31.151Z</time></trkpt><trkpt lat="43.6721008" lon="11.6314704"><ele>1336.0</ele><time>2026-05-03T10:50:32.15Z</time></trkpt><trkpt lat="43.6722134" lon="11.6314519"><ele>1332.4</ele><time>2026-05-03T10:50:33.151Z</time></trkpt><trkpt lat="43.6723204" lon="11.6314686"><ele>1328.8</ele><time>2026-05-03T10:50:34.152Z</time></trkpt><trkpt lat="43.6724202" lon="11.6314776"><ele>1325.2</ele><time>2026-05-03T10:50:35.151Z</time></trkpt><trkpt lat="43.6725355" lon="11.6314471"><ele>1321.6000000000001</ele><time>2026-05-03T10:50:36.152Z</time></trkpt><trkpt lat="43.6726331" lon="11.631417"><ele>1318.0</ele><time>2026-05-03T10:50:37.152Z</time></trkpt><trkpt lat="43.672739" lon="11.6313019"><ele>1313.5</ele><time>2026-05-03T10:50:38.152Z</time></trkpt><trkpt lat="43.6728528" lon="11.6311759"><ele>1309.0</ele><time>2026-05-03T10:50:39.151Z</time></trkpt><trkpt lat="43.6729131" lon="11.6310583"><ele>1304.5</ele><time>2026-05-03T10:50:40.152Z</time></trkpt><trkpt lat="43.6730033" lon="11.6309381"><ele>1300.0</ele><time>2026-05-03T10:50:41.152Z</time></trkpt><trkpt lat="43.6730231" lon="11.6308108"><ele>1300.0</ele><time>2026-05-03T10:50:42.15Z</time></trkpt><trkpt lat="43.6730709" lon="11.630679"><ele>1300.0</ele><time>2026-05-03T10:50:43.152Z</time></trkpt><trkpt lat="43.6730904" lon="11.6305457"><ele>1300.0</ele><time>2026-05-03T10:50:44.151Z</time></trkpt><trkpt lat="43.6730412" lon="11.6303955"><ele>1300.0</ele><time>2026-05-03T10:50:45.151Z</time></trkpt><trkpt lat="43.6730359" lon="11.6302428"><ele>1300.0</ele><time>2026-05-03T10:50:46.15Z</time></trkpt><trkpt lat="43.6730079" lon="11.630074"><ele>1299.5</ele><time>2026-05-03T10:50:47.152Z</time></trkpt><trkpt lat="43.6729927" lon="11.6299102"><ele>1299.0</ele><time>2026-05-03T10:50:48.151Z</time></trkpt><trkpt lat="43.6729735" lon="11.6297341"><ele>1298.5</ele><time>2026-05-03T10:50:49.152Z</time></trkpt><trkpt lat="43.6729759" lon="11.6295449"><ele>1298.0</ele><time>2026-05-03T10:50:50.15Z</time></trkpt><trkpt lat="43.6729921" lon="11.6293688"><ele>1299.75</ele><time>2026-05-03T10:50:51.152Z</time></trkpt><trkpt lat="43.6730525" lon="11.6291872"><ele>1301.5</ele><time>2026-05-03T10:50:52.151Z</time></trkpt><trkpt lat="43.6731287" lon="11.6290092"><ele>1303.25</ele><time>2026-05-03T10:50:53.151Z</time></trkpt><trkpt lat="43.6732382" lon="11.6288916"><ele>1305.0</ele><time>2026-05-03T10:50:54.152Z</time></trkpt><trkpt lat="43.6733602" lon="11.6287816"><ele>1305.0</ele><time>2026-05-03T10:50:55.15Z</time></trkpt><trkpt lat="43.6734481" lon="11.6286486"><ele>1305.0</ele><time>2026-05-03T10:50:56.151Z</time></trkpt><trkpt lat="43.6735163" lon="11.6285364"><ele>1305.0</ele><time>2026-05-03T10:50:57.152Z</time></trkpt><trkpt lat="43.6736122" lon="11.6284465"><ele>1305.0</ele><time>2026-05-03T10:50:58.152Z</time></trkpt><trkpt lat="43.6737061" lon="11.6283805"><ele>1304.25</ele><time>2026-05-03T10:50:59.151Z</time></trkpt><trkpt lat="43.6738058" lon="11.6283298"><ele>1303.5</ele><time>2026-05-03T10:51:00.152Z</time></trkpt><trkpt lat="43.6739268" lon="11.6283191"><ele>1302.75</ele><time>2026-05-03T10:51:01.151Z</time></trkpt><trkpt lat="43.6740564" lon="11.6283042"><ele>1302.0</ele><time>2026-05-03T10:51:02.152Z</time></trkpt><trkpt lat="43.6741856" lon="11.6283398"><ele>1302.0</ele><time>2026-05-03T10:51:03.152Z</time></trkpt><trkpt lat="43.6743227" lon="11.6283612"><ele>1302.0</ele><time>2026-05-03T10:51:04.151Z</time></trkpt><trkpt lat="43.6744642" lon="11.628397"><ele>1302.0</ele><time>2026-05-03T10:51:05.152Z</time></trkpt><trkpt lat="43.6746" lon="11.6284333"><ele>1302.0</ele><time>2026-05-03T10:51:06.152Z</time></trkpt><trkpt lat="43.6747412" lon="11.6284552"><ele>1300.0</ele><time>2026-05-03T10:51:07.151Z</time></trkpt><trkpt lat="43.674878" lon="11.6284815"><ele>1298.0</ele><time>2026-05-03T10:51:08.152Z</time></trkpt><trkpt lat="43.6750241" lon="11.62851"><ele>1296.0</ele><time>2026-05-03T10:51:09.151Z</time></trkpt><trkpt lat="43.6751664" lon="11.6285467"><ele>1294.0</ele><time>2026-05-03T10:51:10.152Z</time></trkpt><trkpt lat="43.6753058" lon="11.6285751"><ele>1291.75</ele><time>2026-05-03T10:51:11.152Z</time></trkpt><trkpt lat="43.675445" lon="11.6285962"><ele>1289.5</ele><time>2026-05-03T10:51:12.151Z</time></trkpt><trkpt lat="43.6755804" lon="11.6286234"><ele>1287.25</ele><time>2026-05-03T10:51:13.152Z</time></trkpt><trkpt lat="43.6757104" lon="11.6286497"><ele>1285.0</ele><time>2026-05-03T10:51:14.151Z</time></trkpt><trkpt lat="43.6758544" lon="11.628664"><ele>1282.5</ele><time>2026-05-03T10:51:15.151Z</time></trkpt><trkpt lat="43.6759912" lon="11.6286779"><ele>1280.0</ele><time>2026-05-03T10:51:16.152Z</time></trkpt><trkpt lat="43.6761347" lon="11.6286697"><ele>1277.5</ele><time>2026-05-03T10:51:17.152Z</time></trkpt><trkpt lat="43.6762767" lon="11.6286813"><ele>1275.0</ele><time>2026-05-03T10:51:18.152Z</time></trkpt><trkpt lat="43.6764307" lon="11.6286492"><ele>1275.3333333333333</ele><time>2026-05-03T10:51:19.152Z</time></trkpt><trkpt lat="43.6765759" lon="11.6285851"><ele>1275.6666666666665</ele><time>2026-05-03T10:51:20.152Z</time></trkpt><trkpt lat="43.6767196" lon="11.6285408"><ele>1276.0</ele><time>2026-05-03T10:51:21.152Z</time></trkpt><trkpt lat="43.6768679" lon="11.6284914"><ele>1273.25</ele><time>2026-05-03T10:51:22.151Z</time></trkpt><trkpt lat="43.6770217" lon="11.6284408"><ele>1270.5</ele><time>2026-05-03T10:51:23.15Z</time></trkpt><trkpt lat="43.6771614" lon="11.6283994"><ele>1267.75</ele><time>2026-05-03T10:51:24.152Z</time></trkpt><trkpt lat="43.6772883" lon="11.6283523"><ele>1265.0</ele><time>2026-05-03T10:51:25.151Z</time></trkpt><trkpt lat="43.6774175" lon="11.6283298"><ele>1265.0</ele><time>2026-05-03T10:51:26.151Z</time></trkpt><trkpt lat="43.6775605" lon="11.6283351"><ele>1265.0</ele><time>2026-05-03T10:51:27.152Z</time></trkpt><trkpt lat="43.6776992" lon="11.6283653"><ele>1265.0</ele><time>2026-05-03T10:51:28.151Z</time></trkpt><trkpt lat="43.6778241" lon="11.6283962"><ele>1265.0</ele><time>2026-05-03T10:51:29.151Z</time></trkpt><trkpt lat="43.6779526" lon="11.6284165"><ele>1262.75</ele><time>2026-05-03T10:51:30.151Z</time></trkpt><trkpt lat="43.6780795" lon="11.6284338"><ele>1260.5</ele><time>2026-05-03T10:51:31.15Z</time></trkpt><trkpt lat="43.6782027" lon="11.6284454"><ele>1258.25</ele><time>2026-05-03T10:51:32.151Z</time></trkpt><trkpt lat="43.6783204" lon="11.6283199"><ele>1256.0</ele><time>2026-05-03T10:51:33.151Z</time></trkpt><trkpt lat="43.6784298" lon="11.628184"><ele>1256.0</ele><time>2026-05-03T10:51:34.151Z</time></trkpt><trkpt lat="43.6785347" lon="11.6281056"><ele>1256.0</ele><time>2026-05-03T10:51:35.15Z</time></trkpt><trkpt lat="43.6786448" lon="11.6280436"><ele>1256.0</ele><time>2026-05-03T10:51:36.151Z</time></trkpt><trkpt lat="43.6787795" lon="11.6279805"><ele>1256.0</ele><time>2026-05-03T10:51:37.152Z</time></trkpt><trkpt lat="43.6789143" lon="11.6279818"><ele>1253.0</ele><time>2026-05-03T10:51:38.151Z</time></trkpt><trkpt lat="43.6790599" lon="11.627969"><ele>1250.0</ele><time>2026-05-03T10:51:39.152Z</time></trkpt><trkpt lat="43.6792013" lon="11.6279796"><ele>1247.0</ele><time>2026-05-03T10:51:40.152Z</time></trkpt><trkpt lat="43.6793428" lon="11.6279747"><ele>1244.0</ele><time>2026-05-03T10:51:41.152Z</time></trkpt><trkpt lat="43.6794725" lon="11.6279596"><ele>1242.25</ele><time>2026-05-03T10:51:42.152Z</time></trkpt><trkpt lat="43.6795992" lon="11.6279142"><ele>1240.5</ele><time>2026-05-03T10:51:43.152Z</time></trkpt><trkpt lat="43.6797328" lon="11.6278669"><ele>1238.75</ele><time>2026-05-03T10:51:44.152Z</time></trkpt><trkpt lat="43.6798217" lon="11.6277659"><ele>1237.0</ele><time>2026-05-03T10:51:45.152Z</time></trkpt><trkpt lat="43.6799345" lon="11.6276688"><ele>1237.0</ele><time>2026-05-03T10:51:46.152Z</time></trkpt><trkpt lat="43.6800128" lon="11.6275938"><ele>1237.0</ele><time>2026-05-03T10:51:47.151Z</time></trkpt><trkpt lat="43.6800194" lon="11.6274103"><ele>1237.0</ele><time>2026-05-03T10:51:48.152Z</time></trkpt><trkpt lat="43.6800238" lon="11.6272665"><ele>1237.0</ele><time>2026-05-03T10:51:49.152Z</time></trkpt><trkpt lat="43.6800467" lon="11.6270917"><ele>1235.6666666666665</ele><time>2026-05-03T10:51:50.152Z</time></trkpt><trkpt lat="43.6800544" lon="11.6269003"><ele>1234.3333333333333</ele><time>2026-05-03T10:51:51.152Z</time></trkpt><trkpt lat="43.6800361" lon="11.6266549"><ele>1233.0</ele><time>2026-05-03T10:51:52.152Z</time></trkpt><trkpt lat="43.679918" lon="11.6264351"><ele>1233.0</ele><time>2026-05-03T10:51:53.152Z</time></trkpt><trkpt lat="43.6798831" lon="11.6262108"><ele>1233.0</ele><time>2026-05-03T10:51:54.152Z</time></trkpt><trkpt lat="43.6798491" lon="11.626"><ele>1233.0</ele><time>2026-05-03T10:51:55.152Z</time></trkpt><trkpt lat="43.679799" lon="11.6258055"><ele>1230.75</ele><time>2026-05-03T10:51:56.152Z</time></trkpt><trkpt lat="43.6797606" lon="11.6256102"><ele>1228.5</ele><time>2026-05-03T10:51:57.151Z</time></trkpt><trkpt lat="43.6797324" lon="11.6254336"><ele>1226.25</ele><time>2026-05-03T10:51:58.151Z</time></trkpt><trkpt lat="43.6797135" lon="11.6252551"><ele>1224.0</ele><time>2026-05-03T10:51:59.152Z</time></trkpt><trkpt lat="43.6796863" lon="11.6250773"><ele>1222.25</ele><time>2026-05-03T10:52:00.152Z</time></trkpt><trkpt lat="43.679688" lon="11.624873"><ele>1220.5</ele><time>2026-05-03T10:52:01.152Z</time></trkpt><trkpt lat="43.67969" lon="11.6246635"><ele>1218.75</ele><time>2026-05-03T10:52:02.151Z</time></trkpt><trkpt lat="43.6797055" lon="11.6245276"><ele>1217.0</ele><time>2026-05-03T10:52:03.151Z</time></trkpt><trkpt lat="43.6797241" lon="11.6243409"><ele>1217.0</ele><time>2026-05-03T10:52:04.151Z</time></trkpt><trkpt lat="43.6797392" lon="11.6241585"><ele>1217.0</ele><time>2026-05-03T10:52:05.151Z</time></trkpt><trkpt lat="43.6797506" lon="11.6239925"><ele>1217.0</ele><time>2026-05-03T10:52:06.151Z</time></trkpt><trkpt lat="43.6797925" lon="11.6238433"><ele>1217.0</ele><time>2026-05-03T10:52:07.152Z</time></trkpt><trkpt lat="43.6798286" lon="11.6236862"><ele>1218.0</ele><time>2026-05-03T10:52:08.152Z</time></trkpt><trkpt lat="43.6798822" lon="11.623548"><ele>1219.0</ele><time>2026-05-03T10:52:09.152Z</time></trkpt><trkpt lat="43.6799554" lon="11.6234355"><ele>1220.0</ele><time>2026-05-03T10:52:10.15Z</time></trkpt><trkpt lat="43.6800468" lon="11.6233482"><ele>1221.0</ele><time>2026-05-03T10:52:11.152Z</time></trkpt><trkpt lat="43.6801798" lon="11.6232637"><ele>1217.3333333333333</ele><time>2026-05-03T10:52:12.152Z</time></trkpt><trkpt lat="43.6803449" lon="11.6231743"><ele>1213.6666666666665</ele><time>2026-05-03T10:52:13.151Z</time></trkpt><trkpt lat="43.6805306" lon="11.6230834"><ele>1210.0</ele><time>2026-05-03T10:52:14.152Z</time></trkpt><trkpt lat="43.6807235" lon="11.6229684"><ele>1210.0</ele><time>2026-05-03T10:52:15.152Z</time></trkpt><trkpt lat="43.6808983" lon="11.622858"><ele>1210.0</ele><time>2026-05-03T10:52:16.151Z</time></trkpt><trkpt lat="43.6810734" lon="11.6227585"><ele>1210.0</ele><time>2026-05-03T10:52:17.152Z</time></trkpt><trkpt lat="43.6812183" lon="11.622676"><ele>1211.25</ele><time>2026-05-03T10:52:18.151Z</time></trkpt><trkpt lat="43.6813554" lon="11.6225828"><ele>1212.5</ele><time>2026-05-03T10:52:19.151Z</time></trkpt><trkpt lat="43.681492" lon="11.6225505"><ele>1213.75</ele><time>2026-05-03T10:52:20.152Z</time></trkpt><trkpt lat="43.6816248" lon="11.6225292"><ele>1215.0</ele><time>2026-05-03T10:52:21.152Z</time></trkpt><trkpt lat="43.6817717" lon="11.6225121"><ele>1215.0</ele><time>2026-05-03T10:52:22.152Z</time></trkpt><trkpt lat="43.6819009" lon="11.6225467"><ele>1215.0</ele><time>2026-05-03T10:52:23.15Z</time></trkpt><trkpt lat="43.6820369" lon="11.6225839"><ele>1215.0</ele><time>2026-05-03T10:52:24.152Z</time></trkpt><trkpt lat="43.682182" lon="11.622598"><ele>1215.0</ele><time>2026-05-03T10:52:25.152Z</time></trkpt><trkpt lat="43.6823123" lon="11.6226276"><ele>1213.6666666666667</ele><time>2026-05-03T10:52:26.15Z</time></trkpt><trkpt lat="43.6824477" lon="11.6226158"><ele>1212.3333333333335</ele><time>2026-05-03T10:52:27.152Z</time></trkpt><trkpt lat="43.6826071" lon="11.6225144"><ele>1211.0</ele><time>2026-05-03T10:52:28.151Z</time></trkpt><trkpt lat="43.6827683" lon="11.6224486"><ele>1209.0</ele><time>2026-05-03T10:52:29.151Z</time></trkpt><trkpt lat="43.6829714" lon="11.6223588"><ele>1207.0</ele><time>2026-05-03T10:52:30.152Z</time></trkpt><trkpt lat="43.6831434" lon="11.6223094"><ele>1205.0</ele><time>2026-05-03T10:52:31.151Z</time></trkpt><trkpt lat="43.6833028" lon="11.6222532"><ele>1205.0</ele><time>2026-05-03T10:52:32.151Z</time></trkpt><trkpt lat="43.6834509" lon="11.622203"><ele>1205.0</ele><time>2026-05-03T10:52:33.152Z</time></trkpt><trkpt lat="43.683592" lon="11.6221597"><ele>1205.0</ele><time>2026-05-03T10:52:34.152Z</time></trkpt><trkpt lat="43.6837338" lon="11.6221275"><ele>1205.0</ele><time>2026-05-03T10:52:35.152Z</time></trkpt><trkpt lat="43.6838828" lon="11.6221144"><ele>1204.75</ele><time>2026-05-03T10:52:36.151Z</time></trkpt><trkpt lat="43.6840242" lon="11.6220978"><ele>1204.5</ele><time>2026-05-03T10:52:37.152Z</time></trkpt><trkpt lat="43.684155" lon="11.6221226"><ele>1204.25</ele><time>2026-05-03T10:52:38.15Z</time></trkpt><trkpt lat="43.6843101" lon="11.6221681"><ele>1204.0</ele><time>2026-05-03T10:52:39.151Z</time></trkpt><trkpt lat="43.6844517" lon="11.6221923"><ele>1204.0</ele><time>2026-05-03T10:52:40.152Z</time></trkpt><trkpt lat="43.6845921" lon="11.6222176"><ele>1204.0</ele><time>2026-05-03T10:52:41.152Z</time></trkpt><trkpt lat="43.6847297" lon="11.6222272"><ele>1204.0</ele><time>2026-05-03T10:52:42.151Z</time></trkpt><trkpt lat="43.6848613" lon="11.6222029"><ele>1204.0</ele><time>2026-05-03T10:52:43.151Z</time></trkpt><trkpt lat="43.6849618" lon="11.6221794"><ele>1204.0</ele><time>2026-05-03T10:52:44.152Z</time></trkpt><trkpt lat="43.6851124" lon="11.6220902"><ele>1204.0</ele><time>2026-05-03T10:52:45.151Z</time></trkpt><trkpt lat="43.6852401" lon="11.6220024"><ele>1204.0</ele><time>2026-05-03T10:52:46.152Z</time></trkpt><trkpt lat="43.6853747" lon="11.6218862"><ele>1206.3333333333333</ele><time>2026-05-03T10:52:47.152Z</time></trkpt><trkpt lat="43.6855289" lon="11.6217326"><ele>1208.6666666666667</ele><time>2026-05-03T10:52:48.152Z</time></trkpt><trkpt lat="43.6856761" lon="11.6215988"><ele>1211.0</ele><time>2026-05-03T10:52:49.152Z</time></trkpt><trkpt lat="43.6858019" lon="11.6214839"><ele>1211.0</ele><time>2026-05-03T10:52:50.152Z</time></trkpt><trkpt lat="43.6859212" lon="11.6213873"><ele>1211.0</ele><time>2026-05-03T10:52:51.152Z</time></trkpt><trkpt lat="43.6860305" lon="11.6213195"><ele>1211.0</ele><time>2026-05-03T10:52:52.151Z</time></trkpt><trkpt lat="43.6861391" lon="11.6212892"><ele>1211.0</ele><time>2026-05-03T10:52:53.151Z</time></trkpt><trkpt lat="43.6862512" lon="11.6212895"><ele>1212.0</ele><time>2026-05-03T10:52:54.15Z</time></trkpt><trkpt lat="43.686364" lon="11.6213209"><ele>1213.0</ele><time>2026-05-03T10:52:55.151Z</time></trkpt><trkpt lat="43.6864767" lon="11.6213876"><ele>1214.0</ele><time>2026-05-03T10:52:56.152Z</time></trkpt><trkpt lat="43.6865928" lon="11.6214844"><ele>1215.0</ele><time>2026-05-03T10:52:57.152Z</time></trkpt><trkpt lat="43.6867152" lon="11.6215944"><ele>1215.0</ele><time>2026-05-03T10:52:58.151Z</time></trkpt><trkpt lat="43.6868296" lon="11.6217182"><ele>1215.0</ele><time>2026-05-03T10:52:59.152Z</time></trkpt><trkpt lat="43.6869431" lon="11.6218138"><ele>1215.0</ele><time>2026-05-03T10:53:00.151Z</time></trkpt><trkpt lat="43.6870567" lon="11.6219169"><ele>1215.0</ele><time>2026-05-03T10:53:01.15Z</time></trkpt><trkpt lat="43.6871688" lon="11.6219573"><ele>1218.6666666666667</ele><time>2026-05-03T10:53:02.151Z</time></trkpt><trkpt lat="43.6873015" lon="11.6219454"><ele>1222.3333333333335</ele><time>2026-05-03T10:53:03.151Z</time></trkpt><trkpt lat="43.6874563" lon="11.6219495"><ele>1226.0</ele><time>2026-05-03T10:53:04.151Z</time></trkpt><trkpt lat="43.6876254" lon="11.6219574"><ele>1226.3333333333335</ele><time>2026-05-03T10:53:05.152Z</time></trkpt><trkpt lat="43.6877991" lon="11.6219594"><ele>1226.6666666666667</ele><time>2026-05-03T10:53:06.152Z</time></trkpt><trkpt lat="43.688041" lon="11.6218844"><ele>1227.0</ele><time>2026-05-03T10:53:07.152Z</time></trkpt><trkpt lat="43.6882547" lon="11.6218704"><ele>1227.0</ele><time>2026-05-03T10:53:08.151Z</time></trkpt><trkpt lat="43.6884625" lon="11.6218542"><ele>1227.0</ele><time>2026-05-03T10:53:09.152Z</time></trkpt><trkpt lat="43.6886534" lon="11.6218343"><ele>1227.0</ele><time>2026-05-03T10:53:10.152Z</time></trkpt><trkpt lat="43.6888282" lon="11.6218213"><ele>1227.5</ele><time>2026-05-03T10:53:11.152Z</time></trkpt><trkpt lat="43.6889827" lon="11.621807"><ele>1228.0</ele><time>2026-05-03T10:53:12.152Z</time></trkpt><trkpt lat="43.6891112" lon="11.6218102"><ele>1228.5</ele><time>2026-05-03T10:53:13.152Z</time></trkpt><trkpt lat="43.6892269" lon="11.621834"><ele>1229.0</ele><time>2026-05-03T10:53:14.152Z</time></trkpt><trkpt lat="43.6893287" lon="11.6218934"><ele>1229.0</ele><time>2026-05-03T10:53:15.151Z</time></trkpt><trkpt lat="43.6894242" lon="11.6219713"><ele>1229.0</ele><time>2026-05-03T10:53:16.152Z</time></trkpt><trkpt lat="43.6895251" lon="11.6220631"><ele>1229.0</ele><time>2026-05-03T10:53:17.15Z</time></trkpt><trkpt lat="43.6895997" lon="11.6221786"><ele>1229.0</ele><time>2026-05-03T10:53:18.152Z</time></trkpt><trkpt lat="43.6896886" lon="11.6222592"><ele>1227.6000000000001</ele><time>2026-05-03T10:53:19.152Z</time></trkpt><trkpt lat="43.6897738" lon="11.6223058"><ele>1226.2</ele><time>2026-05-03T10:53:20.152Z</time></trkpt><trkpt lat="43.689868" lon="11.6223194"><ele>1224.8000000000002</ele><time>2026-05-03T10:53:21.151Z</time></trkpt><trkpt lat="43.6899503" lon="11.622333"><ele>1223.4</ele><time>2026-05-03T10:53:22.151Z</time></trkpt><trkpt lat="43.690032" lon="11.6223118"><ele>1222.0</ele><time>2026-05-03T10:53:23.15Z</time></trkpt><trkpt lat="43.6901234" lon="11.6222256"><ele>1222.0</ele><time>2026-05-03T10:53:24.152Z</time></trkpt><trkpt lat="43.6902179" lon="11.6221674"><ele>1222.0</ele><time>2026-05-03T10:53:25.152Z</time></trkpt><trkpt lat="43.690319" lon="11.6221239"><ele>1222.0</ele><time>2026-05-03T10:53:26.151Z</time></trkpt><trkpt lat="43.6904228" lon="11.6220708"><ele>1222.0</ele><time>2026-05-03T10:53:27.151Z</time></trkpt><trkpt lat="43.6905224" lon="11.6220141"><ele>1222.0</ele><time>2026-05-03T10:53:28.15Z</time></trkpt><trkpt lat="43.6906193" lon="11.6219371"><ele>1224.6</ele><time>2026-05-03T10:53:29.151Z</time></trkpt><trkpt lat="43.6907044" lon="11.6218479"><ele>1227.2</ele><time>2026-05-03T10:53:30.151Z</time></trkpt><trkpt lat="43.6907708" lon="11.6217398"><ele>1229.8</ele><time>2026-05-03T10:53:31.15Z</time></trkpt><trkpt lat="43.6908245" lon="11.621631"><ele>1232.4</ele><time>2026-05-03T10:53:32.151Z</time></trkpt><trkpt lat="43.6908812" lon="11.6214971"><ele>1235.0</ele><time>2026-05-03T10:53:33.152Z</time></trkpt><trkpt lat="43.6909369" lon="11.6213616"><ele>1235.0</ele><time>2026-05-03T10:53:34.152Z</time></trkpt><trkpt lat="43.6909899" lon="11.6212203"><ele>1235.0</ele><time>2026-05-03T10:53:35.151Z</time></trkpt><trkpt lat="43.6910499" lon="11.6210864"><ele>1235.0</ele><time>2026-05-03T10:53:36.151Z</time></trkpt><trkpt lat="43.691117" lon="11.6209654"><ele>1235.0</ele><time>2026-05-03T10:53:37.152Z</time></trkpt><trkpt lat="43.6911827" lon="11.6208403"><ele>1234.25</ele><time>2026-05-03T10:53:38.15Z</time></trkpt><trkpt lat="43.6912501" lon="11.6207102"><ele>1233.5</ele><time>2026-05-03T10:53:39.151Z</time></trkpt><trkpt lat="43.6913201" lon="11.6205823"><ele>1232.75</ele><time>2026-05-03T10:53:40.152Z</time></trkpt><trkpt lat="43.6914029" lon="11.620452"><ele>1232.0</ele><time>2026-05-03T10:53:41.151Z</time></trkpt><trkpt lat="43.6914965" lon="11.6203207"><ele>1237.0</ele><time>2026-05-03T10:53:42.152Z</time></trkpt><trkpt lat="43.6916048" lon="11.6201893"><ele>1242.0</ele><time>2026-05-03T10:53:43.151Z</time></trkpt><trkpt lat="43.691709" lon="11.6200611"><ele>1247.0</ele><time>2026-05-03T10:53:44.151Z</time></trkpt><trkpt lat="43.6918055" lon="11.6199378"><ele>1252.0</ele><time>2026-05-03T10:53:45.152Z</time></trkpt><trkpt lat="43.6919035" lon="11.6198178"><ele>1249.0</ele><time>2026-05-03T10:53:46.152Z</time></trkpt><trkpt lat="43.6920091" lon="11.6196982"><ele>1246.0</ele><time>2026-05-03T10:53:47.152Z</time></trkpt><trkpt lat="43.6921238" lon="11.6195934"><ele>1243.0</ele><time>2026-05-03T10:53:48.152Z</time></trkpt><trkpt lat="43.6922437" lon="11.6194882"><ele>1240.0</ele><time>2026-05-03T10:53:49.152Z</time></trkpt><trkpt lat="43.6923742" lon="11.6193796"><ele>1245.6666666666665</ele><time>2026-05-03T10:53:50.152Z</time></trkpt><trkpt lat="43.6925153" lon="11.6192758"><ele>1251.3333333333333</ele><time>2026-05-03T10:53:51.152Z</time></trkpt><trkpt lat="43.6926649" lon="11.6191793"><ele>1257.0</ele><time>2026-05-03T10:53:52.152Z</time></trkpt><trkpt lat="43.6928191" lon="11.6190762"><ele>1257.0</ele><time>2026-05-03T10:53:53.152Z</time></trkpt><trkpt lat="43.6929689" lon="11.6189746"><ele>1257.0</ele><time>2026-05-03T10:53:54.152Z</time></trkpt><trkpt lat="43.6931172" lon="11.6188732"><ele>1257.0</ele><time>2026-05-03T10:53:55.151Z</time></trkpt><trkpt lat="43.6932744" lon="11.6187314"><ele>1262.6666666666667</ele><time>2026-05-03T10:53:56.151Z</time></trkpt><trkpt lat="43.6934341" lon="11.618608"><ele>1268.3333333333335</ele><time>2026-05-03T10:53:57.151Z</time></trkpt><trkpt lat="43.6935808" lon="11.6185023"><ele>1274.0</ele><time>2026-05-03T10:53:58.151Z</time></trkpt><trkpt lat="43.6937164" lon="11.6184053"><ele>1274.0</ele><time>2026-05-03T10:53:59.152Z</time></trkpt><trkpt lat="43.6938362" lon="11.6183038"><ele>1274.0</ele><time>2026-05-03T10:54:00.152Z</time></trkpt><trkpt lat="43.6939541" lon="11.6182079"><ele>1274.0</ele><time>2026-05-03T10:54:01.152Z</time></trkpt><trkpt lat="43.6940677" lon="11.6181335"><ele>1274.0</ele><time>2026-05-03T10:54:02.152Z</time></trkpt><trkpt lat="43.6941767" lon="11.6180868"><ele>1274.0</ele><time>2026-05-03T10:54:03.151Z</time></trkpt><trkpt lat="43.6942872" lon="11.6180601"><ele>1274.0</ele><time>2026-05-03T10:54:04.152Z</time></trkpt><trkpt lat="43.6943869" lon="11.6180459"><ele>1274.0</ele><time>2026-05-03T10:54:05.152Z</time></trkpt><trkpt lat="43.6944849" lon="11.618042"><ele>1274.0</ele><time>2026-05-03T10:54:06.151Z</time></trkpt><trkpt lat="43.6945595" lon="11.6181291"><ele>1274.0</ele><time>2026-05-03T10:54:07.152Z</time></trkpt><trkpt lat="43.6946415" lon="11.6182181"><ele>1273.75</ele><time>2026-05-03T10:54:08.151Z</time></trkpt><trkpt lat="43.6947378" lon="11.6183364"><ele>1273.5</ele><time>2026-05-03T10:54:09.152Z</time></trkpt><trkpt lat="43.6948461" lon="11.6184787"><ele>1273.25</ele><time>2026-05-03T10:54:10.152Z</time></trkpt><trkpt lat="43.6949701" lon="11.6186213"><ele>1273.0</ele><time>2026-05-03T10:54:11.152Z</time></trkpt><trkpt lat="43.6951034" lon="11.6187656"><ele>1273.0</ele><time>2026-05-03T10:54:12.151Z</time></trkpt><trkpt lat="43.6952227" lon="11.6189159"><ele>1273.0</ele><time>2026-05-03T10:54:13.151Z</time></trkpt><trkpt lat="43.6953332" lon="11.6190629"><ele>1273.0</ele><time>2026-05-03T10:54:14.152Z</time></trkpt><trkpt lat="43.6954205" lon="11.6192091"><ele>1274.8</ele><time>2026-05-03T10:54:15.151Z</time></trkpt><trkpt lat="43.6954913" lon="11.6193484"><ele>1276.6</ele><time>2026-05-03T10:54:16.151Z</time></trkpt><trkpt lat="43.6955658" lon="11.619471"><ele>1278.3999999999999</ele><time>2026-05-03T10:54:17.151Z</time></trkpt><trkpt lat="43.6956216" lon="11.6195499"><ele>1280.1999999999998</ele><time>2026-05-03T10:54:18.152Z</time></trkpt><trkpt lat="43.6956952" lon="11.6196333"><ele>1282.0</ele><time>2026-05-03T10:54:19.151Z</time></trkpt><trkpt lat="43.6958226" lon="11.6196667"><ele>1282.0</ele><time>2026-05-03T10:54:20.152Z</time></trkpt><trkpt lat="43.6959422" lon="11.6196874"><ele>1282.0</ele><time>2026-05-03T10:54:21.151Z</time></trkpt><trkpt lat="43.6961205" lon="11.6196184"><ele>1282.0</ele><time>2026-05-03T10:54:22.151Z</time></trkpt><trkpt lat="43.6962585" lon="11.6195915"><ele>1282.0</ele><time>2026-05-03T10:54:23.152Z</time></trkpt><trkpt lat="43.6963776" lon="11.6195827"><ele>1285.25</ele><time>2026-05-03T10:54:24.151Z</time></trkpt><trkpt lat="43.6965009" lon="11.619593"><ele>1288.5</ele><time>2026-05-03T10:54:25.152Z</time></trkpt><trkpt lat="43.6966093" lon="11.6196597"><ele>1291.75</ele><time>2026-05-03T10:54:26.152Z</time></trkpt><trkpt lat="43.6966975" lon="11.6197506"><ele>1295.0</ele><time>2026-05-03T10:54:27.151Z</time></trkpt><trkpt lat="43.6967805" lon="11.6198673"><ele>1295.0</ele><time>2026-05-03T10:54:28.152Z</time></trkpt><trkpt lat="43.6968633" lon="11.6200321"><ele>1295.0</ele><time>2026-05-03T10:54:29.152Z</time></trkpt><trkpt lat="43.696948" lon="11.6202174"><ele>1295.0</ele><time>2026-05-03T10:54:30.151Z</time></trkpt><trkpt lat="43.6970308" lon="11.6204243"><ele>1296.25</ele><time>2026-05-03T10:54:31.151Z</time></trkpt><trkpt lat="43.6971088" lon="11.6206239"><ele>1297.5</ele><time>2026-05-03T10:54:32.152Z</time></trkpt><trkpt lat="43.6971805" lon="11.6207854"><ele>1298.75</ele><time>2026-05-03T10:54:33.152Z</time></trkpt><trkpt lat="43.6972508" lon="11.6209152"><ele>1300.0</ele><time>2026-05-03T10:54:34.152Z</time></trkpt><trkpt lat="43.6973403" lon="11.6210193"><ele>1300.0</ele><time>2026-05-03T10:54:35.151Z</time></trkpt><trkpt lat="43.6974426" lon="11.6210878"><ele>1300.0</ele><time>2026-05-03T10:54:36.152Z</time></trkpt><trkpt lat="43.6975463" lon="11.6211212"><ele>1300.0</ele><time>2026-05-03T10:54:37.151Z</time></trkpt><trkpt lat="43.6976514" lon="11.6211219"><ele>1300.0</ele><time>2026-05-03T10:54:38.15Z</time></trkpt><trkpt lat="43.6977511" lon="11.6210804"><ele>1300.0</ele><time>2026-05-03T10:54:39.152Z</time></trkpt><trkpt lat="43.6978369" lon="11.6210022"><ele>1297.75</ele><time>2026-05-03T10:54:40.151Z</time></trkpt><trkpt lat="43.6979023" lon="11.6208957"><ele>1295.5</ele><time>2026-05-03T10:54:41.151Z</time></trkpt><trkpt lat="43.6979443" lon="11.620756"><ele>1293.25</ele><time>2026-05-03T10:54:42.151Z</time></trkpt><trkpt lat="43.6979685" lon="11.6205804"><ele>1291.0</ele><time>2026-05-03T10:54:43.151Z</time></trkpt><trkpt lat="43.6979929" lon="11.6204059"><ele>1295.75</ele><time>2026-05-03T10:54:44.151Z</time></trkpt><trkpt lat="43.6980366" lon="11.6202653"><ele>1300.5</ele><time>2026-05-03T10:54:45.152Z</time></trkpt><trkpt lat="43.6981007" lon="11.6201441"><ele>1305.25</ele><time>2026-05-03T10:54:46.152Z</time></trkpt><trkpt lat="43.6981913" lon="11.6200381"><ele>1310.0</ele><time>2026-05-03T10:54:47.152Z</time></trkpt><trkpt lat="43.6983159" lon="11.6199393"><ele>1310.0</ele><time>2026-05-03T10:54:48.152Z</time></trkpt><trkpt lat="43.698483" lon="11.6198427"><ele>1310.0</ele><time>2026-05-03T10:54:49.152Z</time></trkpt><trkpt lat="43.6986436" lon="11.619751"><ele>1310.0</ele><time>2026-05-03T10:54:50.152Z</time></trkpt><trkpt lat="43.6988396" lon="11.619647"><ele>1314.0</ele><time>2026-05-03T10:54:51.15Z</time></trkpt><trkpt lat="43.6991014" lon="11.6195109"><ele>1318.0</ele><time>2026-05-03T10:54:52.152Z</time></trkpt><trkpt lat="43.69934" lon="11.6193907"><ele>1312.0</ele><time>2026-05-03T10:54:53.151Z</time></trkpt><trkpt lat="43.6995691" lon="11.6192711"><ele>1306.0</ele><time>2026-05-03T10:54:54.151Z</time></trkpt><trkpt lat="43.6997992" lon="11.6191567"><ele>1306.0</ele><time>2026-05-03T10:54:55.151Z</time></trkpt><trkpt lat="43.7000083" lon="11.6190774"><ele>1306.0</ele><time>2026-05-03T10:54:56.152Z</time></trkpt><trkpt lat="43.7002174" lon="11.6189628"><ele>1306.0</ele><time>2026-05-03T10:54:57.152Z</time></trkpt><trkpt lat="43.7003429" lon="11.6188977"><ele>1304.0</ele><time>2026-05-03T10:54:58.152Z</time></trkpt><trkpt lat="43.7004852" lon="11.6188458"><ele>1302.0</ele><time>2026-05-03T10:54:59.151Z</time></trkpt><trkpt lat="43.7006184" lon="11.6188212"><ele>1300.0</ele><time>2026-05-03T10:55:00.152Z</time></trkpt><trkpt lat="43.7007444" lon="11.6188318"><ele>1298.0</ele><time>2026-05-03T10:55:01.151Z</time></trkpt><trkpt lat="43.7009064" lon="11.6188615"><ele>1298.0</ele><time>2026-05-03T10:55:02.151Z</time></trkpt><trkpt lat="43.7010423" lon="11.6189423"><ele>1298.0</ele><time>2026-05-03T10:55:03.152Z</time></trkpt><trkpt lat="43.7011565" lon="11.6189748"><ele>1298.0</ele><time>2026-05-03T10:55:04.152Z</time></trkpt><trkpt lat="43.7012591" lon="11.6189869"><ele>1298.0</ele><time>2026-05-03T10:55:05.151Z</time></trkpt><trkpt lat="43.7013634" lon="11.6189583"><ele>1297.25</ele><time>2026-05-03T10:55:06.151Z</time></trkpt><trkpt lat="43.7014696" lon="11.6188913"><ele>1296.5</ele><time>2026-05-03T10:55:07.152Z</time></trkpt><trkpt lat="43.7015524" lon="11.6187935"><ele>1295.75</ele><time>2026-05-03T10:55:08.152Z</time></trkpt><trkpt lat="43.7016232" lon="11.6186654"><ele>1295.0</ele><time>2026-05-03T10:55:09.152Z</time></trkpt><trkpt lat="43.7016836" lon="11.6185353"><ele>1295.0</ele><time>2026-05-03T10:55:10.151Z</time></trkpt><trkpt lat="43.7016818" lon="11.6183813"><ele>1295.0</ele><time>2026-05-03T10:55:11.151Z</time></trkpt><trkpt lat="43.701663" lon="11.6182377"><ele>1295.0</ele><time>2026-05-03T10:55:12.152Z</time></trkpt><trkpt lat="43.7016438" lon="11.6180826"><ele>1295.0</ele><time>2026-05-03T10:55:13.152Z</time></trkpt><trkpt lat="43.7015115" lon="11.6179413"><ele>1292.0</ele><time>2026-05-03T10:55:14.151Z</time></trkpt><trkpt lat="43.7014281" lon="11.6177764"><ele>1289.0</ele><time>2026-05-03T10:55:15.151Z</time></trkpt><trkpt lat="43.7013689" lon="11.6175597"><ele>1286.0</ele><time>2026-05-03T10:55:16.152Z</time></trkpt><trkpt lat="43.701316" lon="11.6173708"><ele>1286.0</ele><time>2026-05-03T10:55:17.152Z</time></trkpt><trkpt lat="43.7012627" lon="11.6171888"><ele>1286.0</ele><time>2026-05-03T10:55:18.152Z</time></trkpt><trkpt lat="43.7011956" lon="11.6170393"><ele>1286.0</ele><time>2026-05-03T10:55:19.152Z</time></trkpt><trkpt lat="43.701128" lon="11.6169032"><ele>1286.0</ele><time>2026-05-03T10:55:20.152Z</time></trkpt><trkpt lat="43.7009805" lon="11.6168159"><ele>1291.0</ele><time>2026-05-03T10:55:21.152Z</time></trkpt><trkpt lat="43.7008563" lon="11.6167216"><ele>1296.0</ele><time>2026-05-03T10:55:22.152Z</time></trkpt><trkpt lat="43.7007143" lon="11.6166229"><ele>1301.0</ele><time>2026-05-03T10:55:23.152Z</time></trkpt><trkpt lat="43.700565" lon="11.6164915"><ele>1301.0</ele><time>2026-05-03T10:55:24.151Z</time></trkpt><trkpt lat="43.7004244" lon="11.6163536"><ele>1301.0</ele><time>2026-05-03T10:55:25.151Z</time></trkpt><trkpt lat="43.7002782" lon="11.6162042"><ele>1301.0</ele><time>2026-05-03T10:55:26.152Z</time></trkpt><trkpt lat="43.7001645" lon="11.6160849"><ele>1303.75</ele><time>2026-05-03T10:55:27.151Z</time></trkpt><trkpt lat="43.7000664" lon="11.6159685"><ele>1306.5</ele><time>2026-05-03T10:55:28.152Z</time></trkpt><trkpt lat="43.6999808" lon="11.6158409"><ele>1309.25</ele><time>2026-05-03T10:55:29.152Z</time></trkpt><trkpt lat="43.699918" lon="11.6156975"><ele>1312.0</ele><time>2026-05-03T10:55:30.151Z</time></trkpt><trkpt lat="43.6998718" lon="11.6155139"><ele>1309.25</ele><time>2026-05-03T10:55:31.152Z</time></trkpt><trkpt lat="43.6998323" lon="11.6153143"><ele>1306.5</ele><time>2026-05-03T10:55:32.152Z</time></trkpt><trkpt lat="43.6998045" lon="11.6151378"><ele>1303.75</ele><time>2026-05-03T10:55:33.152Z</time></trkpt><trkpt lat="43.6997714" lon="11.614956"><ele>1301.0</ele><time>2026-05-03T10:55:34.152Z</time></trkpt><trkpt lat="43.6997113" lon="11.6148196"><ele>1301.0</ele><time>2026-05-03T10:55:35.152Z</time></trkpt><trkpt lat="43.6996237" lon="11.6146828"><ele>1301.0</ele><time>2026-05-03T10:55:36.152Z</time></trkpt><trkpt lat="43.6995118" lon="11.6145589"><ele>1301.0</ele><time>2026-05-03T10:55:37.152Z</time></trkpt><trkpt lat="43.6993726" lon="11.6144254"><ele>1301.0</ele><time>2026-05-03T10:55:38.152Z</time></trkpt><trkpt lat="43.6992197" lon="11.6143271"><ele>1306.0</ele><time>2026-05-03T10:55:39.151Z</time></trkpt><trkpt lat="43.6990939" lon="11.6142591"><ele>1311.0</ele><time>2026-05-03T10:55:40.152Z</time></trkpt><trkpt lat="43.6989926" lon="11.6141799"><ele>1316.0</ele><time>2026-05-03T10:55:41.152Z</time></trkpt><trkpt lat="43.6989134" lon="11.6140727"><ele>1321.0</ele><time>2026-05-03T10:55:42.151Z</time></trkpt><trkpt lat="43.6988451" lon="11.6139491"><ele>1321.0</ele><time>2026-05-03T10:55:43.152Z</time></trkpt><trkpt lat="43.6988055" lon="11.6138121"><ele>1321.0</ele><time>2026-05-03T10:55:44.152Z</time></trkpt><trkpt lat="43.6987973" lon="11.6136651"><ele>1321.0</ele><time>2026-05-03T10:55:45.152Z</time></trkpt><trkpt lat="43.6988295" lon="11.6135118"><ele>1321.0</ele><time>2026-05-03T10:55:46.152Z</time></trkpt><trkpt lat="43.6988952" lon="11.6133397"><ele>1319.75</ele><time>2026-05-03T10:55:47.151Z</time></trkpt><trkpt lat="43.6989573" lon="11.6131676"><ele>1318.5</ele><time>2026-05-03T10:55:48.151Z</time></trkpt><trkpt lat="43.6990052" lon="11.6130137"><ele>1317.25</ele><time>2026-05-03T10:55:49.152Z</time></trkpt><trkpt lat="43.6990601" lon="11.6128633"><ele>1316.0</ele><time>2026-05-03T10:55:50.152Z</time></trkpt><trkpt lat="43.6990536" lon="11.6127037"><ele>1315.25</ele><time>2026-05-03T10:55:51.15Z</time></trkpt><trkpt lat="43.6990513" lon="11.6125309"><ele>1314.5</ele><time>2026-05-03T10:55:52.151Z</time></trkpt><trkpt lat="43.6989637" lon="11.6123782"><ele>1313.75</ele><time>2026-05-03T10:55:53.15Z</time></trkpt><trkpt lat="43.6988521" lon="11.6122015"><ele>1313.0</ele><time>2026-05-03T10:55:54.151Z</time></trkpt><trkpt lat="43.6987825" lon="11.6120411"><ele>1313.0</ele><time>2026-05-03T10:55:55.151Z</time></trkpt><trkpt lat="43.6986455" lon="11.6120013"><ele>1313.0</ele><time>2026-05-03T10:55:56.152Z</time></trkpt><trkpt lat="43.6986516" lon="11.61183"><ele>1313.0</ele><time>2026-05-03T10:55:57.152Z</time></trkpt><trkpt lat="43.6985796" lon="11.6116772"><ele>1313.0</ele><time>2026-05-03T10:55:58.152Z</time></trkpt><trkpt lat="43.6985355" lon="11.6114347"><ele>1324.3333333333335</ele><time>2026-05-03T10:55:59.152Z</time></trkpt><trkpt lat="43.6984943" lon="11.6111657"><ele>1335.6666666666667</ele><time>2026-05-03T10:56:00.152Z</time></trkpt><trkpt lat="43.6984631" lon="11.61096"><ele>1347.0</ele><time>2026-05-03T10:56:01.151Z</time></trkpt><trkpt lat="43.6984203" lon="11.6108013"><ele>1347.0</ele><time>2026-05-03T10:56:02.151Z</time></trkpt><trkpt lat="43.6983944" lon="11.6106393"><ele>1347.0</ele><time>2026-05-03T10:56:03.151Z</time></trkpt><trkpt lat="43.6983727" lon="11.610478"><ele>1347.0</ele><time>2026-05-03T10:56:04.151Z</time></trkpt><trkpt lat="43.6983628" lon="11.6103135"><ele>1347.0</ele><time>2026-05-03T10:56:05.152Z</time></trkpt><trkpt lat="43.6985432" lon="11.6101821"><ele>1344.5</ele><time>2026-05-03T10:56:06.152Z</time></trkpt><trkpt lat="43.6986105" lon="11.6100674"><ele>1342.0</ele><time>2026-05-03T10:56:07.152Z</time></trkpt><trkpt lat="43.6987382" lon="11.6100097"><ele>1339.5</ele><time>2026-05-03T10:56:08.152Z</time></trkpt><trkpt lat="43.6988448" lon="11.6099264"><ele>1337.0</ele><time>2026-05-03T10:56:09.151Z</time></trkpt><trkpt lat="43.6990008" lon="11.6098978"><ele>1337.0</ele><time>2026-05-03T10:56:10.151Z</time></trkpt><trkpt lat="43.6991494" lon="11.6098527"><ele>1337.0</ele><time>2026-05-03T10:56:11.152Z</time></trkpt><trkpt lat="43.6992884" lon="11.6098075"><ele>1337.0</ele><time>2026-05-03T10:56:12.152Z</time></trkpt><trkpt lat="43.6993918" lon="11.6097336"><ele>1337.0</ele><time>2026-05-03T10:56:13.152Z</time></trkpt><trkpt lat="43.6995014" lon="11.6096599"><ele>1336.6666666666667</ele><time>2026-05-03T10:56:14.152Z</time></trkpt><trkpt lat="43.6995398" lon="11.6094733"><ele>1336.3333333333333</ele><time>2026-05-03T10:56:15.151Z</time></trkpt><trkpt lat="43.6996373" lon="11.6092866"><ele>1336.0</ele><time>2026-05-03T10:56:16.152Z</time></trkpt><trkpt lat="43.6997297" lon="11.6090455"><ele>1336.0</ele><time>2026-05-03T10:56:17.152Z</time></trkpt><trkpt lat="43.6998377" lon="11.6087799"><ele>1336.0</ele><time>2026-05-03T10:56:18.152Z</time></trkpt><trkpt lat="43.6999613" lon="11.6084841"><ele>1336.5</ele><time>2026-05-03T10:56:19.152Z</time></trkpt><trkpt lat="43.7000974" lon="11.6081705"><ele>1337.0</ele><time>2026-05-03T10:56:20.151Z</time></trkpt><trkpt lat="43.7002371" lon="11.607844"><ele>1331.0</ele><time>2026-05-03T10:56:21.152Z</time></trkpt><trkpt lat="43.7003828" lon="11.6074975"><ele>1325.0</ele><time>2026-05-03T10:56:22.152Z</time></trkpt><trkpt lat="43.7005201" lon="11.607172"><ele>1327.0</ele><time>2026-05-03T10:56:23.151Z</time></trkpt><trkpt lat="43.7006463" lon="11.6068717"><ele>1329.0</ele><time>2026-05-03T10:56:24.152Z</time></trkpt><trkpt lat="43.7007706" lon="11.6065727"><ele>1329.0</ele><time>2026-05-03T10:56:25.151Z</time></trkpt><trkpt lat="43.7008988" lon="11.6062816"><ele>1329.0</ele><time>2026-05-03T10:56:26.15Z</time></trkpt><trkpt lat="43.701033" lon="11.6059791"><ele>1324.0</ele><time>2026-05-03T10:56:27.151Z</time></trkpt><trkpt lat="43.7011645" lon="11.6056772"><ele>1319.0</ele><time>2026-05-03T10:56:28.152Z</time></trkpt><trkpt lat="43.7012843" lon="11.6053986"><ele>1322.3333333333335</ele><time>2026-05-03T10:56:29.152Z</time></trkpt><trkpt lat="43.7013934" lon="11.6051482"><ele>1325.6666666666667</ele><time>2026-05-03T10:56:30.152Z</time></trkpt><trkpt lat="43.7014932" lon="11.6049295"><ele>1329.0</ele><time>2026-05-03T10:56:31.151Z</time></trkpt><trkpt lat="43.7015906" lon="11.6047382"><ele>1329.0</ele><time>2026-05-03T10:56:32.152Z</time></trkpt><trkpt lat="43.7016938" lon="11.6045751"><ele>1329.0</ele><time>2026-05-03T10:56:33.152Z</time></trkpt><trkpt lat="43.7018005" lon="11.6044307"><ele>1329.0</ele><time>2026-05-03T10:56:34.151Z</time></trkpt><trkpt lat="43.7019153" lon="11.6043158"><ele>1329.0</ele><time>2026-05-03T10:56:35.152Z</time></trkpt><trkpt lat="43.7020479" lon="11.6042178"><ele>1330.3333333333333</ele><time>2026-05-03T10:56:36.152Z</time></trkpt><trkpt lat="43.7021936" lon="11.604139"><ele>1331.6666666666665</ele><time>2026-05-03T10:56:37.151Z</time></trkpt><trkpt lat="43.7023561" lon="11.6040928"><ele>1333.0</ele><time>2026-05-03T10:56:38.152Z</time></trkpt><trkpt lat="43.70251" lon="11.6040691"><ele>1333.0</ele><time>2026-05-03T10:56:39.152Z</time></trkpt><trkpt lat="43.7026547" lon="11.6040752"><ele>1333.0</ele><time>2026-05-03T10:56:40.152Z</time></trkpt><trkpt lat="43.7028152" lon="11.604123"><ele>1333.0</ele><time>2026-05-03T10:56:41.15Z</time></trkpt><trkpt lat="43.7029828" lon="11.6041842"><ele>1333.6666666666665</ele><time>2026-05-03T10:56:42.152Z</time></trkpt><trkpt lat="43.7031604" lon="11.6042544"><ele>1334.3333333333333</ele><time>2026-05-03T10:56:43.152Z</time></trkpt><trkpt lat="43.7033474" lon="11.6043219"><ele>1335.0</ele><time>2026-05-03T10:56:44.152Z</time></trkpt><trkpt lat="43.7035245" lon="11.6043887"><ele>1335.3333333333333</ele><time>2026-05-03T10:56:45.152Z</time></trkpt><trkpt lat="43.7036965" lon="11.6044422"><ele>1335.6666666666665</ele><time>2026-05-03T10:56:46.152Z</time></trkpt><trkpt lat="43.7038419" lon="11.6044874"><ele>1336.0</ele><time>2026-05-03T10:56:47.152Z</time></trkpt><trkpt lat="43.7039756" lon="11.6045162"><ele>1336.0</ele><time>2026-05-03T10:56:48.151Z</time></trkpt><trkpt lat="43.7041052" lon="11.6045265"><ele>1336.0</ele><time>2026-05-03T10:56:49.152Z</time></trkpt><trkpt lat="43.7042406" lon="11.6044812"><ele>1336.0</ele><time>2026-05-03T10:56:50.151Z</time></trkpt><trkpt lat="43.7043954" lon="11.6044039"><ele>1336.0</ele><time>2026-05-03T10:56:51.152Z</time></trkpt><trkpt lat="43.7045619" lon="11.6043005"><ele>1333.3333333333333</ele><time>2026-05-03T10:56:52.152Z</time></trkpt><trkpt lat="43.7047302" lon="11.6041658"><ele>1330.6666666666667</ele><time>2026-05-03T10:56:53.151Z</time></trkpt><trkpt lat="43.704919" lon="11.6040279"><ele>1328.0</ele><time>2026-05-03T10:56:54.151Z</time></trkpt><trkpt lat="43.7050887" lon="11.6039066"><ele>1330.0</ele><time>2026-05-03T10:56:55.151Z</time></trkpt><trkpt lat="43.7052518" lon="11.6037858"><ele>1332.0</ele><time>2026-05-03T10:56:56.151Z</time></trkpt><trkpt lat="43.705395" lon="11.6036286"><ele>1334.0</ele><time>2026-05-03T10:56:57.152Z</time></trkpt><trkpt lat="43.7055542" lon="11.6034413"><ele>1334.0</ele><time>2026-05-03T10:56:58.152Z</time></trkpt><trkpt lat="43.7057146" lon="11.6032373"><ele>1334.0</ele><time>2026-05-03T10:56:59.152Z</time></trkpt><trkpt lat="43.7058797" lon="11.6030089"><ele>1334.0</ele><time>2026-05-03T10:57:00.152Z</time></trkpt><trkpt lat="43.7060459" lon="11.6027574"><ele>1334.0</ele><time>2026-05-03T10:57:01.152Z</time></trkpt><trkpt lat="43.7061911" lon="11.6025302"><ele>1334.0</ele><time>2026-05-03T10:57:02.152Z</time></trkpt><trkpt lat="43.7063216" lon="11.6023342"><ele>1334.0</ele><time>2026-05-03T10:57:03.152Z</time></trkpt><trkpt lat="43.7064405" lon="11.6021546"><ele>1334.0</ele><time>2026-05-03T10:57:04.151Z</time></trkpt><trkpt lat="43.7065653" lon="11.602001"><ele>1334.6666666666667</ele><time>2026-05-03T10:57:05.151Z</time></trkpt><trkpt lat="43.7067097" lon="11.6018532"><ele>1335.3333333333333</ele><time>2026-05-03T10:57:06.15Z</time></trkpt><trkpt lat="43.706885" lon="11.6017056"><ele>1336.0</ele><time>2026-05-03T10:57:07.152Z</time></trkpt><trkpt lat="43.7070836" lon="11.6015552"><ele>1336.0</ele><time>2026-05-03T10:57:08.152Z</time></trkpt><trkpt lat="43.707299" lon="11.6013903"><ele>1336.0</ele><time>2026-05-03T10:57:09.151Z</time></trkpt><trkpt lat="43.7075259" lon="11.6012069"><ele>1339.5</ele><time>2026-05-03T10:57:10.152Z</time></trkpt><trkpt lat="43.707763" lon="11.601018"><ele>1343.0</ele><time>2026-05-03T10:57:11.152Z</time></trkpt><trkpt lat="43.7079726" lon="11.600849"><ele>1343.0</ele><time>2026-05-03T10:57:12.152Z</time></trkpt><trkpt lat="43.7081569" lon="11.6007028"><ele>1343.0</ele><time>2026-05-03T10:57:13.151Z</time></trkpt><trkpt lat="43.7083201" lon="11.6005679"><ele>1343.0</ele><time>2026-05-03T10:57:14.152Z</time></trkpt><trkpt lat="43.7084654" lon="11.6004632"><ele>1343.5</ele><time>2026-05-03T10:57:15.151Z</time></trkpt><trkpt lat="43.7086007" lon="11.6003856"><ele>1344.0</ele><time>2026-05-03T10:57:16.151Z</time></trkpt><trkpt lat="43.7087265" lon="11.6003395"><ele>1344.5</ele><time>2026-05-03T10:57:17.151Z</time></trkpt><trkpt lat="43.7088628" lon="11.6003305"><ele>1345.0</ele><time>2026-05-03T10:57:18.152Z</time></trkpt><trkpt lat="43.7090217" lon="11.6003638"><ele>1345.0</ele><time>2026-05-03T10:57:19.152Z</time></trkpt><trkpt lat="43.709204" lon="11.6004237"><ele>1345.0</ele><time>2026-05-03T10:57:20.152Z</time></trkpt><trkpt lat="43.709407" lon="11.6005186"><ele>1345.0</ele><time>2026-05-03T10:57:21.152Z</time></trkpt><trkpt lat="43.709631" lon="11.6006058"><ele>1349.0</ele><time>2026-05-03T10:57:22.152Z</time></trkpt><trkpt lat="43.7098539" lon="11.600692"><ele>1353.0</ele><time>2026-05-03T10:57:23.151Z</time></trkpt><trkpt lat="43.7100677" lon="11.6007683"><ele>1353.6666666666667</ele><time>2026-05-03T10:57:24.151Z</time></trkpt><trkpt lat="43.7102711" lon="11.6008314"><ele>1354.3333333333335</ele><time>2026-05-03T10:57:25.152Z</time></trkpt><trkpt lat="43.7104467" lon="11.600899"><ele>1355.0</ele><time>2026-05-03T10:57:26.151Z</time></trkpt><trkpt lat="43.7106265" lon="11.6009582"><ele>1355.0</ele><time>2026-05-03T10:57:27.151Z</time></trkpt><trkpt lat="43.7108046" lon="11.600995"><ele>1355.0</ele><time>2026-05-03T10:57:28.151Z</time></trkpt><trkpt lat="43.7109708" lon="11.6009758"><ele>1355.0</ele><time>2026-05-03T10:57:29.151Z</time></trkpt><trkpt lat="43.7111467" lon="11.6009573"><ele>1353.3333333333335</ele><time>2026-05-03T10:57:30.152Z</time></trkpt><trkpt lat="43.7113016" lon="11.6008698"><ele>1351.6666666666667</ele><time>2026-05-03T10:57:31.152Z</time></trkpt><trkpt lat="43.7114515" lon="11.6007664"><ele>1350.0</ele><time>2026-05-03T10:57:32.151Z</time></trkpt><trkpt lat="43.7116017" lon="11.6006683"><ele>1350.0</ele><time>2026-05-03T10:57:33.152Z</time></trkpt><trkpt lat="43.7117329" lon="11.6005087"><ele>1350.0</ele><time>2026-05-03T10:57:34.151Z</time></trkpt><trkpt lat="43.7118641" lon="11.6003651"><ele>1350.0</ele><time>2026-05-03T10:57:35.152Z</time></trkpt><trkpt lat="43.7119899" lon="11.6002155"><ele>1348.3333333333333</ele><time>2026-05-03T10:57:36.151Z</time></trkpt><trkpt lat="43.7121372" lon="11.6000558"><ele>1346.6666666666665</ele><time>2026-05-03T10:57:37.151Z</time></trkpt><trkpt lat="43.7122919" lon="11.5999009"><ele>1345.0</ele><time>2026-05-03T10:57:38.15Z</time></trkpt><trkpt lat="43.7124481" lon="11.5997422"><ele>1345.0</ele><time>2026-05-03T10:57:39.151Z</time></trkpt><trkpt lat="43.7126049" lon="11.5995798"><ele>1345.0</ele><time>2026-05-03T10:57:40.152Z</time></trkpt><trkpt lat="43.7127556" lon="11.599425"><ele>1345.0</ele><time>2026-05-03T10:57:41.152Z</time></trkpt><trkpt lat="43.712903" lon="11.5992736"><ele>1346.0</ele><time>2026-05-03T10:57:42.151Z</time></trkpt><trkpt lat="43.7130478" lon="11.5991197"><ele>1347.0</ele><time>2026-05-03T10:57:43.15Z</time></trkpt><trkpt lat="43.7131851" lon="11.5989715"><ele>1348.0</ele><time>2026-05-03T10:57:44.151Z</time></trkpt><trkpt lat="43.7133105" lon="11.5988339"><ele>1348.0</ele><time>2026-05-03T10:57:45.151Z</time></trkpt><trkpt lat="43.713418" lon="11.598706"><ele>1348.0</ele><time>2026-05-03T10:57:46.152Z</time></trkpt><trkpt lat="43.7135142" lon="11.598595"><ele>1348.0</ele><time>2026-05-03T10:57:47.151Z</time></trkpt><trkpt lat="43.7135873" lon="11.598487"><ele>1348.0</ele><time>2026-05-03T10:57:48.151Z</time></trkpt><trkpt lat="43.7136345" lon="11.5983659"><ele>1347.6000000000001</ele><time>2026-05-03T10:57:49.152Z</time></trkpt><trkpt lat="43.7136592" lon="11.5982221"><ele>1347.2</ele><time>2026-05-03T10:57:50.151Z</time></trkpt><trkpt lat="43.7136597" lon="11.5980749"><ele>1346.8</ele><time>2026-05-03T10:57:51.152Z</time></trkpt><trkpt lat="43.7136435" lon="11.5979232"><ele>1346.4</ele><time>2026-05-03T10:57:52.152Z</time></trkpt><trkpt lat="43.7136241" lon="11.5977916"><ele>1346.0</ele><time>2026-05-03T10:57:53.151Z</time></trkpt><trkpt lat="43.7135898" lon="11.5976555"><ele>1344.4</ele><time>2026-05-03T10:57:54.15Z</time></trkpt><trkpt lat="43.7135551" lon="11.5975123"><ele>1342.8</ele><time>2026-05-03T10:57:55.152Z</time></trkpt><trkpt lat="43.7135415" lon="11.5973804"><ele>1341.2</ele><time>2026-05-03T10:57:56.15Z</time></trkpt><trkpt lat="43.7135452" lon="11.5972568"><ele>1339.6000000000001</ele><time>2026-05-03T10:57:57.152Z</time></trkpt><trkpt lat="43.7135563" lon="11.5971424"><ele>1338.0</ele><time>2026-05-03T10:57:58.152Z</time></trkpt><trkpt lat="43.7135782" lon="11.5970387"><ele>1337.857142857143</ele><time>2026-05-03T10:57:59.151Z</time></trkpt><trkpt lat="43.7135947" lon="11.5969393"><ele>1337.7142857142858</ele><time>2026-05-03T10:58:00.151Z</time></trkpt><trkpt lat="43.7136211" lon="11.5968386"><ele>1337.5714285714284</ele><time>2026-05-03T10:58:01.15Z</time></trkpt><trkpt lat="43.7136511" lon="11.5967441"><ele>1337.4285714285716</ele><time>2026-05-03T10:58:02.152Z</time></trkpt><trkpt lat="43.7136752" lon="11.5966571"><ele>1337.2857142857142</ele><time>2026-05-03T10:58:03.151Z</time></trkpt><trkpt lat="43.7136959" lon="11.5965746"><ele>1337.142857142857</ele><time>2026-05-03T10:58:04.152Z</time></trkpt><trkpt lat="43.7137162" lon="11.5964804"><ele>1337.0</ele><time>2026-05-03T10:58:05.152Z</time></trkpt><trkpt lat="43.7137353" lon="11.5963719"><ele>1337.0</ele><time>2026-05-03T10:58:06.152Z</time></trkpt><trkpt lat="43.713767" lon="11.596252"><ele>1337.0</ele><time>2026-05-03T10:58:07.152Z</time></trkpt><trkpt lat="43.7138042" lon="11.5961131"><ele>1337.0</ele><time>2026-05-03T10:58:08.151Z</time></trkpt><trkpt lat="43.7138458" lon="11.5959521"><ele>1337.0</ele><time>2026-05-03T10:58:09.151Z</time></trkpt><trkpt lat="43.713897" lon="11.5957461"><ele>1339.0</ele><time>2026-05-03T10:58:10.151Z</time></trkpt><trkpt lat="43.7139645" lon="11.5955115"><ele>1341.0</ele><time>2026-05-03T10:58:11.151Z</time></trkpt><trkpt lat="43.7140254" lon="11.5952719"><ele>1343.0</ele><time>2026-05-03T10:58:12.152Z</time></trkpt><trkpt lat="43.7140779" lon="11.5950778"><ele>1343.5</ele><time>2026-05-03T10:58:13.152Z</time></trkpt><trkpt lat="43.7141296" lon="11.5948905"><ele>1344.0</ele><time>2026-05-03T10:58:14.152Z</time></trkpt><trkpt lat="43.7141944" lon="11.5947238"><ele>1344.5</ele><time>2026-05-03T10:58:15.152Z</time></trkpt><trkpt lat="43.7142808" lon="11.5945736"><ele>1345.0</ele><time>2026-05-03T10:58:16.151Z</time></trkpt><trkpt lat="43.7143948" lon="11.5944402"><ele>1346.25</ele><time>2026-05-03T10:58:17.151Z</time></trkpt><trkpt lat="43.7145123" lon="11.5943317"><ele>1347.5</ele><time>2026-05-03T10:58:18.152Z</time></trkpt><trkpt lat="43.71462" lon="11.5942669"><ele>1348.75</ele><time>2026-05-03T10:58:19.152Z</time></trkpt><trkpt lat="43.714742" lon="11.5942381"><ele>1350.0</ele><time>2026-05-03T10:58:20.152Z</time></trkpt><trkpt lat="43.7148948" lon="11.5942499"><ele>1350.0</ele><time>2026-05-03T10:58:21.151Z</time></trkpt><trkpt lat="43.715048" lon="11.5942778"><ele>1350.0</ele><time>2026-05-03T10:58:22.151Z</time></trkpt><trkpt lat="43.7152164" lon="11.5943017"><ele>1350.0</ele><time>2026-05-03T10:58:23.151Z</time></trkpt><trkpt lat="43.7153953" lon="11.5943229"><ele>1352.25</ele><time>2026-05-03T10:58:24.152Z</time></trkpt><trkpt lat="43.7155486" lon="11.5943366"><ele>1354.5</ele><time>2026-05-03T10:58:25.152Z</time></trkpt><trkpt lat="43.7156844" lon="11.5943389"><ele>1356.75</ele><time>2026-05-03T10:58:26.151Z</time></trkpt><trkpt lat="43.7158268" lon="11.5943169"><ele>1359.0</ele><time>2026-05-03T10:58:27.152Z</time></trkpt><trkpt lat="43.7159701" lon="11.594273"><ele>1359.0</ele><time>2026-05-03T10:58:28.151Z</time></trkpt><trkpt lat="43.7161195" lon="11.5941984"><ele>1359.0</ele><time>2026-05-03T10:58:29.151Z</time></trkpt><trkpt lat="43.7162792" lon="11.5940913"><ele>1359.0</ele><time>2026-05-03T10:58:30.151Z</time></trkpt><trkpt lat="43.7164215" lon="11.5940051"><ele>1359.0</ele><time>2026-05-03T10:58:31.152Z</time></trkpt><trkpt lat="43.716548" lon="11.5939332"><ele>1359.0</ele><time>2026-05-03T10:58:32.151Z</time></trkpt><trkpt lat="43.7166517" lon="11.5938764"><ele>1359.0</ele><time>2026-05-03T10:58:33.151Z</time></trkpt><trkpt lat="43.7167601" lon="11.5938145"><ele>1359.0</ele><time>2026-05-03T10:58:34.152Z</time></trkpt><trkpt lat="43.7168369" lon="11.5937674"><ele>1358.2</ele><time>2026-05-03T10:58:35.152Z</time></trkpt><trkpt lat="43.7169377" lon="11.5937241"><ele>1357.4</ele><time>2026-05-03T10:58:36.152Z</time></trkpt><trkpt lat="43.7170355" lon="11.5936859"><ele>1356.6</ele><time>2026-05-03T10:58:37.152Z</time></trkpt><trkpt lat="43.7171353" lon="11.5936538"><ele>1355.8</ele><time>2026-05-03T10:58:38.15Z</time></trkpt><trkpt lat="43.7172364" lon="11.5936227"><ele>1355.0</ele><time>2026-05-03T10:58:39.152Z</time></trkpt><trkpt lat="43.7173342" lon="11.5935867"><ele>1358.0</ele><time>2026-05-03T10:58:40.152Z</time></trkpt><trkpt lat="43.7174316" lon="11.593537"><ele>1361.0</ele><time>2026-05-03T10:58:41.15Z</time></trkpt><trkpt lat="43.7175238" lon="11.5934715"><ele>1364.0</ele><time>2026-05-03T10:58:42.152Z</time></trkpt><trkpt lat="43.7176083" lon="11.5933894"><ele>1367.0</ele><time>2026-05-03T10:58:43.151Z</time></trkpt><trkpt lat="43.7176901" lon="11.5933"><ele>1370.0</ele><time>2026-05-03T10:58:44.152Z</time></trkpt><trkpt lat="43.717772" lon="11.5932086"><ele>1370.0</ele><time>2026-05-03T10:58:45.152Z</time></trkpt><trkpt lat="43.7178449" lon="11.5930989"><ele>1370.0</ele><time>2026-05-03T10:58:46.152Z</time></trkpt><trkpt lat="43.7179155" lon="11.5929837"><ele>1370.0</ele><time>2026-05-03T10:58:47.151Z</time></trkpt><trkpt lat="43.7179889" lon="11.592872"><ele>1370.0</ele><time>2026-05-03T10:58:48.152Z</time></trkpt><trkpt lat="43.718069" lon="11.5927809"><ele>1370.0</ele><time>2026-05-03T10:58:49.152Z</time></trkpt><trkpt lat="43.7181467" lon="11.5927108"><ele>1373.3333333333335</ele><time>2026-05-03T10:58:50.152Z</time></trkpt><trkpt lat="43.7182215" lon="11.5926558"><ele>1376.6666666666667</ele><time>2026-05-03T10:58:51.152Z</time></trkpt><trkpt lat="43.7183029" lon="11.5926118"><ele>1380.0</ele><time>2026-05-03T10:58:52.151Z</time></trkpt><trkpt lat="43.7183863" lon="11.5925767"><ele>1383.3333333333333</ele><time>2026-05-03T10:58:53.15Z</time></trkpt><trkpt lat="43.7184724" lon="11.5925582"><ele>1386.6666666666665</ele><time>2026-05-03T10:58:54.152Z</time></trkpt><trkpt lat="43.718567" lon="11.5925418"><ele>1390.0</ele><time>2026-05-03T10:58:55.15Z</time></trkpt><trkpt lat="43.7186691" lon="11.5925243"><ele>1390.0</ele><time>2026-05-03T10:58:56.152Z</time></trkpt><trkpt lat="43.7187752" lon="11.5925135"><ele>1390.0</ele><time>2026-05-03T10:58:57.152Z</time></trkpt><trkpt lat="43.7188847" lon="11.5925002"><ele>1390.0</ele><time>2026-05-03T10:58:58.152Z</time></trkpt><trkpt lat="43.7189971" lon="11.5924884"><ele>1390.0</ele><time>2026-05-03T10:58:59.152Z</time></trkpt><trkpt lat="43.719106" lon="11.5924814"><ele>1390.0</ele><time>2026-05-03T10:59:00.151Z</time></trkpt><trkpt lat="43.7192018" lon="11.5924693"><ele>1390.0</ele><time>2026-05-03T10:59:01.151Z</time></trkpt><trkpt lat="43.7192953" lon="11.5924583"><ele>1390.0</ele><time>2026-05-03T10:59:02.152Z</time></trkpt><trkpt lat="43.7193803" lon="11.5924372"><ele>1390.0</ele><time>2026-05-03T10:59:03.152Z</time></trkpt><trkpt lat="43.7194561" lon="11.5924058"><ele>1390.0</ele><time>2026-05-03T10:59:04.152Z</time></trkpt><trkpt lat="43.7195161" lon="11.5923532"><ele>1390.0</ele><time>2026-05-03T10:59:05.152Z</time></trkpt><trkpt lat="43.7195612" lon="11.5922909"><ele>1390.0</ele><time>2026-05-03T10:59:06.151Z</time></trkpt><trkpt lat="43.7195961" lon="11.5922123"><ele>1389.4</ele><time>2026-05-03T10:59:07.151Z</time></trkpt><trkpt lat="43.7196157" lon="11.5921245"><ele>1388.8</ele><time>2026-05-03T10:59:08.152Z</time></trkpt><trkpt lat="43.7196158" lon="11.5920251"><ele>1388.1999999999998</ele><time>2026-05-03T10:59:09.152Z</time></trkpt><trkpt lat="43.7196022" lon="11.5919145"><ele>1387.6</ele><time>2026-05-03T10:59:10.152Z</time></trkpt><trkpt lat="43.7195788" lon="11.5917715"><ele>1387.0</ele><time>2026-05-03T10:59:11.152Z</time></trkpt><trkpt lat="43.7195495" lon="11.5915957"><ele>1386.5</ele><time>2026-05-03T10:59:12.151Z</time></trkpt><trkpt lat="43.7195192" lon="11.5914137"><ele>1386.0</ele><time>2026-05-03T10:59:13.152Z</time></trkpt><trkpt lat="43.7194979" lon="11.5912379"><ele>1385.5</ele><time>2026-05-03T10:59:14.152Z</time></trkpt><trkpt lat="43.719467" lon="11.5910401"><ele>1385.0</ele><time>2026-05-03T10:59:15.152Z</time></trkpt><trkpt lat="43.7194267" lon="11.5908205"><ele>1394.0</ele><time>2026-05-03T10:59:16.15Z</time></trkpt><trkpt lat="43.7193875" lon="11.5905899"><ele>1403.0</ele><time>2026-05-03T10:59:17.151Z</time></trkpt><trkpt lat="43.719348" lon="11.59038"><ele>1412.0</ele><time>2026-05-03T10:59:18.151Z</time></trkpt><trkpt lat="43.7193072" lon="11.5901743"><ele>1412.6666666666667</ele><time>2026-05-03T10:59:19.151Z</time></trkpt><trkpt lat="43.7192492" lon="11.5899535"><ele>1413.3333333333333</ele><time>2026-05-03T10:59:20.151Z</time></trkpt><trkpt lat="43.7191592" lon="11.5897214"><ele>1414.0</ele><time>2026-05-03T10:59:21.152Z</time></trkpt><trkpt lat="43.7190628" lon="11.5894759"><ele>1412.6666666666665</ele><time>2026-05-03T10:59:22.151Z</time></trkpt><trkpt lat="43.7189564" lon="11.5892576"><ele>1411.3333333333333</ele><time>2026-05-03T10:59:23.152Z</time></trkpt><trkpt lat="43.7188852" lon="11.5890846"><ele>1410.0</ele><time>2026-05-03T10:59:24.151Z</time></trkpt><trkpt lat="43.7188312" lon="11.5889398"><ele>1410.0</ele><time>2026-05-03T10:59:25.152Z</time></trkpt><trkpt lat="43.7188007" lon="11.5888013"><ele>1410.0</ele><time>2026-05-03T10:59:26.152Z</time></trkpt><trkpt lat="43.7187978" lon="11.5886628"><ele>1410.0</ele><time>2026-05-03T10:59:27.152Z</time></trkpt><trkpt lat="43.7188186" lon="11.5885215"><ele>1410.0</ele><time>2026-05-03T10:59:28.152Z</time></trkpt><trkpt lat="43.7188585" lon="11.5883722"><ele>1410.0</ele><time>2026-05-03T10:59:29.152Z</time></trkpt><trkpt lat="43.7189005" lon="11.588218"><ele>1411.5</ele><time>2026-05-03T10:59:30.151Z</time></trkpt><trkpt lat="43.7189441" lon="11.5880682"><ele>1413.0</ele><time>2026-05-03T10:59:31.151Z</time></trkpt><trkpt lat="43.7189747" lon="11.587915"><ele>1414.5</ele><time>2026-05-03T10:59:32.152Z</time></trkpt><trkpt lat="43.7189858" lon="11.5877597"><ele>1416.0</ele><time>2026-05-03T10:59:33.152Z</time></trkpt><trkpt lat="43.7189789" lon="11.587597"><ele>1417.25</ele><time>2026-05-03T10:59:34.152Z</time></trkpt><trkpt lat="43.7189501" lon="11.5874401"><ele>1418.5</ele><time>2026-05-03T10:59:35.151Z</time></trkpt><trkpt lat="43.7189014" lon="11.5872862"><ele>1419.75</ele><time>2026-05-03T10:59:36.15Z</time></trkpt><trkpt lat="43.718847" lon="11.5871235"><ele>1421.0</ele><time>2026-05-03T10:59:37.151Z</time></trkpt><trkpt lat="43.7187955" lon="11.5869439"><ele>1422.4</ele><time>2026-05-03T10:59:38.151Z</time></trkpt><trkpt lat="43.7187609" lon="11.5867943"><ele>1423.8</ele><time>2026-05-03T10:59:39.152Z</time></trkpt><trkpt lat="43.718743" lon="11.5866563"><ele>1425.2</ele><time>2026-05-03T10:59:40.152Z</time></trkpt><trkpt lat="43.7187424" lon="11.5865293"><ele>1426.6000000000001</ele><time>2026-05-03T10:59:41.151Z</time></trkpt><trkpt lat="43.7187665" lon="11.5864069"><ele>1428.0</ele><time>2026-05-03T10:59:42.15Z</time></trkpt><trkpt lat="43.7188144" lon="11.5862927"><ele>1428.0</ele><time>2026-05-03T10:59:43.151Z</time></trkpt><trkpt lat="43.7188857" lon="11.5861922"><ele>1428.0</ele><time>2026-05-03T10:59:44.152Z</time></trkpt><trkpt lat="43.7189785" lon="11.5860999"><ele>1428.0</ele><time>2026-05-03T10:59:45.151Z</time></trkpt><trkpt lat="43.7190799" lon="11.5860169"><ele>1428.0</ele><time>2026-05-03T10:59:46.15Z</time></trkpt><trkpt lat="43.7191853" lon="11.5859428"><ele>1431.0</ele><time>2026-05-03T10:59:47.151Z</time></trkpt><trkpt lat="43.7193038" lon="11.585873"><ele>1434.0</ele><time>2026-05-03T10:59:48.151Z</time></trkpt><trkpt lat="43.7194249" lon="11.5857985"><ele>1437.0</ele><time>2026-05-03T10:59:49.152Z</time></trkpt><trkpt lat="43.7195576" lon="11.5857296"><ele>1440.0</ele><time>2026-05-03T10:59:50.152Z</time></trkpt><trkpt lat="43.7196948" lon="11.5856813"><ele>1440.0</ele><time>2026-05-03T10:59:51.152Z</time></trkpt><trkpt lat="43.719835" lon="11.5856522"><ele>1440.0</ele><time>2026-05-03T10:59:52.152Z</time></trkpt><trkpt lat="43.7199564" lon="11.58563"><ele>1440.0</ele><time>2026-05-03T10:59:53.152Z</time></trkpt><trkpt lat="43.7200795" lon="11.5856055"><ele>1440.0</ele><time>2026-05-03T10:59:54.15Z</time></trkpt><trkpt lat="43.720176" lon="11.5855619"><ele>1438.6</ele><time>2026-05-03T10:59:55.152Z</time></trkpt><trkpt lat="43.7202475" lon="11.585437"><ele>1437.2</ele><time>2026-05-03T10:59:56.151Z</time></trkpt><trkpt lat="43.7202792" lon="11.5853031"><ele>1435.8000000000002</ele><time>2026-05-03T10:59:57.152Z</time></trkpt><trkpt lat="43.720323" lon="11.5851578"><ele>1434.4</ele><time>2026-05-03T10:59:58.152Z</time></trkpt><trkpt lat="43.7203111" lon="11.585006"><ele>1433.0</ele><time>2026-05-03T10:59:59.152Z</time></trkpt><trkpt lat="43.7202962" lon="11.5848561"><ele>1433.0</ele><time>2026-05-03T11:00:00.152Z</time></trkpt><trkpt lat="43.7202789" lon="11.5847075"><ele>1433.0</ele><time>2026-05-03T11:00:01.151Z</time></trkpt><trkpt lat="43.7202889" lon="11.5845686"><ele>1433.0</ele><time>2026-05-03T11:00:02.151Z</time></trkpt><trkpt lat="43.7203173" lon="11.5844278"><ele>1433.0</ele><time>2026-05-03T11:00:03.152Z</time></trkpt><trkpt lat="43.720373" lon="11.5842918"><ele>1433.0</ele><time>2026-05-03T11:00:04.152Z</time></trkpt><trkpt lat="43.7204546" lon="11.5841655"><ele>1436.5</ele><time>2026-05-03T11:00:05.152Z</time></trkpt><trkpt lat="43.7205611" lon="11.5840369"><ele>1440.0</ele><time>2026-05-03T11:00:06.152Z</time></trkpt><trkpt lat="43.7206551" lon="11.5839245"><ele>1443.5</ele><time>2026-05-03T11:00:07.151Z</time></trkpt><trkpt lat="43.7207316" lon="11.5838181"><ele>1447.0</ele><time>2026-05-03T11:00:08.151Z</time></trkpt><trkpt lat="43.720783" lon="11.583706"><ele>1447.1666666666665</ele><time>2026-05-03T11:00:09.152Z</time></trkpt><trkpt lat="43.7208133" lon="11.583579"><ele>1447.3333333333333</ele><time>2026-05-03T11:00:10.152Z</time></trkpt><trkpt lat="43.7208127" lon="11.5834554"><ele>1447.5</ele><time>2026-05-03T11:00:11.152Z</time></trkpt><trkpt lat="43.7207923" lon="11.5833411"><ele>1447.6666666666667</ele><time>2026-05-03T11:00:12.151Z</time></trkpt><trkpt lat="43.7207602" lon="11.5832341"><ele>1447.8333333333335</ele><time>2026-05-03T11:00:13.152Z</time></trkpt><trkpt lat="43.7206826" lon="11.5831641"><ele>1448.0</ele><time>2026-05-03T11:00:14.152Z</time></trkpt><trkpt lat="43.7206257" lon="11.5830785"><ele>1448.0</ele><time>2026-05-03T11:00:15.151Z</time></trkpt><trkpt lat="43.7205283" lon="11.5830239"><ele>1448.0</ele><time>2026-05-03T11:00:16.152Z</time></trkpt><trkpt lat="43.7203786" lon="11.5830565"><ele>1448.0</ele><time>2026-05-03T11:00:17.151Z</time></trkpt><trkpt lat="43.7202554" lon="11.583029"><ele>1448.0</ele><time>2026-05-03T11:00:18.151Z</time></trkpt><trkpt lat="43.7201399" lon="11.5830074"><ele>1450.0</ele><time>2026-05-03T11:00:19.151Z</time></trkpt><trkpt lat="43.7200302" lon="11.5829883"><ele>1452.0</ele><time>2026-05-03T11:00:20.152Z</time></trkpt><trkpt lat="43.7199076" lon="11.5829728"><ele>1454.0</ele><time>2026-05-03T11:00:21.152Z</time></trkpt><trkpt lat="43.7197854" lon="11.5829575"><ele>1456.0</ele><time>2026-05-03T11:00:22.152Z</time></trkpt><trkpt lat="43.7196602" lon="11.5829418"><ele>1456.0</ele><time>2026-05-03T11:00:23.151Z</time></trkpt><trkpt lat="43.7195303" lon="11.582921"><ele>1456.0</ele><time>2026-05-03T11:00:24.151Z</time></trkpt><trkpt lat="43.7193967" lon="11.582888"><ele>1456.0</ele><time>2026-05-03T11:00:25.151Z</time></trkpt><trkpt lat="43.7192597" lon="11.5828379"><ele>1456.0</ele><time>2026-05-03T11:00:26.152Z</time></trkpt><trkpt lat="43.7191192" lon="11.582767"><ele>1452.0</ele><time>2026-05-03T11:00:27.151Z</time></trkpt><trkpt lat="43.7189821" lon="11.582673"><ele>1448.0</ele><time>2026-05-03T11:00:28.151Z</time></trkpt><trkpt lat="43.7188571" lon="11.5825838"><ele>1444.0</ele><time>2026-05-03T11:00:29.151Z</time></trkpt><trkpt lat="43.7187418" lon="11.5824957"><ele>1440.0</ele><time>2026-05-03T11:00:30.151Z</time></trkpt><trkpt lat="43.7186345" lon="11.5824109"><ele>1441.8</ele><time>2026-05-03T11:00:31.151Z</time></trkpt><trkpt lat="43.718534" lon="11.5823348"><ele>1443.6</ele><time>2026-05-03T11:00:32.152Z</time></trkpt><trkpt lat="43.7184385" lon="11.5822662"><ele>1445.4</ele><time>2026-05-03T11:00:33.15Z</time></trkpt><trkpt lat="43.7183493" lon="11.5822012"><ele>1447.2</ele><time>2026-05-03T11:00:34.152Z</time></trkpt><trkpt lat="43.7182687" lon="11.5821284"><ele>1449.0</ele><time>2026-05-03T11:00:35.151Z</time></trkpt><trkpt lat="43.7182092" lon="11.5820335"><ele>1448.8333333333333</ele><time>2026-05-03T11:00:36.152Z</time></trkpt><trkpt lat="43.7181723" lon="11.5819279"><ele>1448.6666666666667</ele><time>2026-05-03T11:00:37.151Z</time></trkpt><trkpt lat="43.7181626" lon="11.5818177"><ele>1448.5</ele><time>2026-05-03T11:00:38.151Z</time></trkpt><trkpt lat="43.7181746" lon="11.5817137"><ele>1448.3333333333335</ele><time>2026-05-03T11:00:39.152Z</time></trkpt><trkpt lat="43.7182077" lon="11.5816008"><ele>1448.1666666666667</ele><time>2026-05-03T11:00:40.152Z</time></trkpt><trkpt lat="43.7182507" lon="11.5814847"><ele>1448.0</ele><time>2026-05-03T11:00:41.152Z</time></trkpt><trkpt lat="43.7208133" lon="11.583579"><ele>1448.0</ele><time>2026-05-03T11:00:10.152Z</time></trkpt><trkpt lat="43.7208127" lon="11.5834554"><ele>1448.0</ele><time>2026-05-03T11:00:11.152Z</time></trkpt><trkpt lat="43.7207923" lon="11.5833411"><ele>1448.0</ele><time>2026-05-03T11:00:12.151Z</time></trkpt><trkpt lat="43.7207602" lon="11.5832341"><ele>1448.0</ele><time>2026-05-03T11:00:13.152Z</time></trkpt><trkpt lat="43.7206826" lon="11.5831641"><ele>1448.0</ele><time>2026-05-03T11:00:14.152Z</time></trkpt><trkpt lat="43.7206257" lon="11.5830785"><ele>1448.0</ele><time>2026-05-03T11:00:15.151Z</time></trkpt><trkpt lat="43.7205283" lon="11.5830239"><ele>1448.0</ele><time>2026-05-03T11:00:16.152Z</time></trkpt><trkpt lat="43.7203786" lon="11.5830565"><ele>1448.0</ele><time>2026-05-03T11:00:17.151Z</time></trkpt><trkpt lat="43.7202554" lon="11.583029"><ele>1448.0</ele><time>2026-05-03T11:00:18.151Z</time></trkpt><trkpt lat="43.7201399" lon="11.5830074"><ele>1448.0</ele><time>2026-05-03T11:00:19.151Z</time></trkpt><trkpt lat="43.7200302" lon="11.5829883"><ele>1450.0</ele><time>2026-05-03T11:00:20.152Z</time></trkpt><trkpt lat="43.7199076" lon="11.5829728"><ele>1452.0</ele><time>2026-05-03T11:00:21.152Z</time></trkpt><trkpt lat="43.7197854" lon="11.5829575"><ele>1454.0</ele><time>2026-05-03T11:00:22.152Z</time></trkpt><trkpt lat="43.7196602" lon="11.5829418"><ele>1456.0</ele><time>2026-05-03T11:00:23.151Z</time></trkpt><trkpt lat="43.7195303" lon="11.582921"><ele>1457.5</ele><time>2026-05-03T11:00:24.151Z</time></trkpt><trkpt lat="43.7193967" lon="11.582888"><ele>1459.0</ele><time>2026-05-03T11:00:25.151Z</time></trkpt><trkpt lat="43.7192597" lon="11.5828379"><ele>1460.5</ele><time>2026-05-03T11:00:26.152Z</time></trkpt><trkpt lat="43.7191192" lon="11.582767"><ele>1462.0</ele><time>2026-05-03T11:00:27.151Z</time></trkpt><trkpt lat="43.7189821" lon="11.582673"><ele>1458.75</ele><time>2026-05-03T11:00:28.151Z</time></trkpt><trkpt lat="43.7188571" lon="11.5825838"><ele>1455.5</ele><time>2026-05-03T11:00:29.151Z</time></trkpt><trkpt lat="43.7187418" lon="11.5824957"><ele>1452.25</ele><time>2026-05-03T11:00:30.151Z</time></trkpt><trkpt lat="43.7186345" lon="11.5824109"><ele>1449.0</ele><time>2026-05-03T11:00:31.151Z</time></trkpt><trkpt lat="43.718534" lon="11.5823348"><ele>1449.0</ele><time>2026-05-03T11:00:32.152Z</time></trkpt><trkpt lat="43.7184385" lon="11.5822662"><ele>1449.0</ele><time>2026-05-03T11:00:33.15Z</time></trkpt><trkpt lat="43.7183493" lon="11.5822012"><ele>1449.0</ele><time>2026-05-03T11:00:34.152Z</time></trkpt><trkpt lat="43.7182687" lon="11.5821284"><ele>1449.0</ele><time>2026-05-03T11:00:35.151Z</time></trkpt><trkpt lat="43.7182092" lon="11.5820335"><ele>1449.0</ele><time>2026-05-03T11:00:36.152Z</time></trkpt><trkpt lat="43.7181723" lon="11.5819279"><ele>1447.3333333333333</ele><time>2026-05-03T11:00:37.151Z</time></trkpt><trkpt lat="43.7181626" lon="11.5818177"><ele>1445.6666666666667</ele><time>2026-05-03T11:00:38.151Z</time></trkpt><trkpt lat="43.7181746" lon="11.5817137"><ele>1444.0</ele><time>2026-05-03T11:00:39.152Z</time></trkpt><trkpt lat="43.7182077" lon="11.5816008"><ele>1442.3333333333335</ele><time>2026-05-03T11:00:40.152Z</time></trkpt><trkpt lat="43.7182507" lon="11.5814847"><ele>1440.6666666666667</ele><time>2026-05-03T11:00:41.152Z</time></trkpt><trkpt lat="43.7183024" lon="11.5813715"><ele>1439.0</ele><time>2026-05-03T11:00:42.152Z</time></trkpt><trkpt lat="43.718363" lon="11.5812771"><ele>1439.0</ele><time>2026-05-03T11:00:43.152Z</time></trkpt><trkpt lat="43.7184394" lon="11.5811955"><ele>1439.0</ele><time>2026-05-03T11:00:44.151Z</time></trkpt><trkpt lat="43.7185358" lon="11.5811211"><ele>1439.0</ele><time>2026-05-03T11:00:45.152Z</time></trkpt><trkpt lat="43.7186466" lon="11.5810642"><ele>1439.0</ele><time>2026-05-03T11:00:46.151Z</time></trkpt><trkpt lat="43.7187644" lon="11.5810141"><ele>1439.0</ele><time>2026-05-03T11:00:47.152Z</time></trkpt><trkpt lat="43.7188874" lon="11.5809704"><ele>1440.25</ele><time>2026-05-03T11:00:48.152Z</time></trkpt><trkpt lat="43.7190124" lon="11.5809273"><ele>1441.5</ele><time>2026-05-03T11:00:49.152Z</time></trkpt><trkpt lat="43.7191282" lon="11.5808821"><ele>1442.75</ele><time>2026-05-03T11:00:50.152Z</time></trkpt><trkpt lat="43.7192357" lon="11.580832"><ele>1444.0</ele><time>2026-05-03T11:00:51.152Z</time></trkpt><trkpt lat="43.7193385" lon="11.580778"><ele>1441.75</ele><time>2026-05-03T11:00:52.152Z</time></trkpt><trkpt lat="43.7194467" lon="11.5807125"><ele>1439.5</ele><time>2026-05-03T11:00:53.152Z</time></trkpt><trkpt lat="43.7195534" lon="11.5806408"><ele>1437.25</ele><time>2026-05-03T11:00:54.152Z</time></trkpt><trkpt lat="43.7196572" lon="11.5805674"><ele>1435.0</ele><time>2026-05-03T11:00:55.152Z</time></trkpt><trkpt lat="43.7197538" lon="11.5805068"><ele>1435.0</ele><time>2026-05-03T11:00:56.152Z</time></trkpt><trkpt lat="43.7198487" lon="11.5804399"><ele>1435.0</ele><time>2026-05-03T11:00:57.151Z</time></trkpt><trkpt lat="43.7199229" lon="11.5803768"><ele>1435.0</ele><time>2026-05-03T11:00:58.151Z</time></trkpt><trkpt lat="43.720015" lon="11.5803158"><ele>1435.0</ele><time>2026-05-03T11:00:59.151Z</time></trkpt><trkpt lat="43.7200795" lon="11.5802629"><ele>1435.0</ele><time>2026-05-03T11:01:00.152Z</time></trkpt><trkpt lat="43.7201547" lon="11.5802321"><ele>1435.0</ele><time>2026-05-03T11:01:01.152Z</time></trkpt><trkpt lat="43.7202338" lon="11.5801711"><ele>1434.8</ele><time>2026-05-03T11:01:02.151Z</time></trkpt><trkpt lat="43.7203085" lon="11.5801153"><ele>1434.6</ele><time>2026-05-03T11:01:03.152Z</time></trkpt><trkpt lat="43.7203974" lon="11.5800595"><ele>1434.4</ele><time>2026-05-03T11:01:04.152Z</time></trkpt><trkpt lat="43.7204849" lon="11.5800055"><ele>1434.2</ele><time>2026-05-03T11:01:05.152Z</time></trkpt><trkpt lat="43.7205736" lon="11.5799426"><ele>1434.0</ele><time>2026-05-03T11:01:06.152Z</time></trkpt><trkpt lat="43.7206746" lon="11.5798721"><ele>1434.0</ele><time>2026-05-03T11:01:07.152Z</time></trkpt><trkpt lat="43.7207679" lon="11.5797868"><ele>1434.0</ele><time>2026-05-03T11:01:08.15Z</time></trkpt><trkpt lat="43.7208604" lon="11.5796905"><ele>1434.0</ele><time>2026-05-03T11:01:09.151Z</time></trkpt><trkpt lat="43.7209497" lon="11.5795911"><ele>1434.0</ele><time>2026-05-03T11:01:10.152Z</time></trkpt><trkpt lat="43.7210297" lon="11.5794751"><ele>1431.75</ele><time>2026-05-03T11:01:11.151Z</time></trkpt><trkpt lat="43.7211016" lon="11.5793585"><ele>1429.5</ele><time>2026-05-03T11:01:12.152Z</time></trkpt><trkpt lat="43.7211729" lon="11.5792383"><ele>1427.25</ele><time>2026-05-03T11:01:13.152Z</time></trkpt><trkpt lat="43.7212447" lon="11.579109"><ele>1425.0</ele><time>2026-05-03T11:01:14.151Z</time></trkpt><trkpt lat="43.721311" lon="11.5789774"><ele>1425.0</ele><time>2026-05-03T11:01:15.152Z</time></trkpt><trkpt lat="43.7213774" lon="11.5788471"><ele>1425.0</ele><time>2026-05-03T11:01:16.152Z</time></trkpt><trkpt lat="43.7214378" lon="11.5787308"><ele>1425.0</ele><time>2026-05-03T11:01:17.152Z</time></trkpt><trkpt lat="43.7214948" lon="11.5786229"><ele>1425.0</ele><time>2026-05-03T11:01:18.151Z</time></trkpt><trkpt lat="43.7215525" lon="11.5785256"><ele>1425.0</ele><time>2026-05-03T11:01:19.151Z</time></trkpt><trkpt lat="43.7216246" lon="11.5784374"><ele>1425.4</ele><time>2026-05-03T11:01:20.151Z</time></trkpt><trkpt lat="43.721707" lon="11.5783535"><ele>1425.8</ele><time>2026-05-03T11:01:21.152Z</time></trkpt><trkpt lat="43.7217956" lon="11.5782927"><ele>1426.1999999999998</ele><time>2026-05-03T11:01:22.151Z</time></trkpt><trkpt lat="43.7218846" lon="11.5782367"><ele>1426.6</ele><time>2026-05-03T11:01:23.151Z</time></trkpt><trkpt lat="43.7219768" lon="11.5781841"><ele>1427.0</ele><time>2026-05-03T11:01:24.152Z</time></trkpt><trkpt lat="43.7220672" lon="11.5781485"><ele>1427.0</ele><time>2026-05-03T11:01:25.152Z</time></trkpt><trkpt lat="43.722159" lon="11.5781129"><ele>1427.0</ele><time>2026-05-03T11:01:26.152Z</time></trkpt><trkpt lat="43.7222519" lon="11.578078"><ele>1427.0</ele><time>2026-05-03T11:01:27.151Z</time></trkpt><trkpt lat="43.7223443" lon="11.5780499"><ele>1427.0</ele><time>2026-05-03T11:01:28.151Z</time></trkpt><trkpt lat="43.7224422" lon="11.5780336"><ele>1427.0</ele><time>2026-05-03T11:01:29.152Z</time></trkpt><trkpt lat="43.722543" lon="11.5780352"><ele>1427.0</ele><time>2026-05-03T11:01:30.151Z</time></trkpt><trkpt lat="43.7226417" lon="11.5780519"><ele>1427.0</ele><time>2026-05-03T11:01:31.15Z</time></trkpt><trkpt lat="43.7227421" lon="11.5780776"><ele>1427.0</ele><time>2026-05-03T11:01:32.15Z</time></trkpt><trkpt lat="43.7228452" lon="11.5781015"><ele>1427.0</ele><time>2026-05-03T11:01:33.151Z</time></trkpt><trkpt lat="43.7229482" lon="11.5781297"><ele>1427.0</ele><time>2026-05-03T11:01:34.152Z</time></trkpt><trkpt lat="43.7230537" lon="11.578165"><ele>1427.0</ele><time>2026-05-03T11:01:35.152Z</time></trkpt><trkpt lat="43.7231521" lon="11.5782003"><ele>1427.0</ele><time>2026-05-03T11:01:36.152Z</time></trkpt><trkpt lat="43.7232542" lon="11.5782179"><ele>1427.0</ele><time>2026-05-03T11:01:37.151Z</time></trkpt><trkpt lat="43.7233619" lon="11.5782087"><ele>1427.0</ele><time>2026-05-03T11:01:38.152Z</time></trkpt><trkpt lat="43.7234657" lon="11.5781772"><ele>1427.0</ele><time>2026-05-03T11:01:39.152Z</time></trkpt><trkpt lat="43.7235749" lon="11.5781401"><ele>1427.0</ele><time>2026-05-03T11:01:40.152Z</time></trkpt><trkpt lat="43.7236888" lon="11.5781149"><ele>1427.0</ele><time>2026-05-03T11:01:41.152Z</time></trkpt><trkpt lat="43.7237982" lon="11.5780895"><ele>1427.0</ele><time>2026-05-03T11:01:42.151Z</time></trkpt><trkpt lat="43.7239009" lon="11.5780786"><ele>1427.0</ele><time>2026-05-03T11:01:43.152Z</time></trkpt><trkpt lat="43.7239971" lon="11.5780832"><ele>1427.0</ele><time>2026-05-03T11:01:44.151Z</time></trkpt><trkpt lat="43.7240877" lon="11.5780904"><ele>1427.0</ele><time>2026-05-03T11:01:45.152Z</time></trkpt><trkpt lat="43.7241626" lon="11.5781"><ele>1427.0</ele><time>2026-05-03T11:01:46.152Z</time></trkpt><trkpt lat="43.7242259" lon="11.5781085"><ele>1427.0</ele><time>2026-05-03T11:01:47.151Z</time></trkpt><trkpt lat="43.7242887" lon="11.5781318"><ele>1427.0</ele><time>2026-05-03T11:01:48.152Z</time></trkpt><trkpt lat="43.7243489" lon="11.5781668"><ele>1427.0</ele><time>2026-05-03T11:01:52.151Z</time></trkpt><trkpt lat="43.7244358" lon="11.5782086"><ele>1427.0</ele><time>2026-05-03T11:05:32.151Z</time></trkpt><trkpt lat="43.724523" lon="11.5782315"><ele>1427.1999999999998</ele><time>2026-05-03T11:05:34.152Z</time></trkpt><trkpt lat="43.7246339" lon="11.5782694"><ele>1427.4</ele><time>2026-05-03T11:05:37.226Z</time></trkpt><trkpt lat="43.7247609" lon="11.5783082"><ele>1427.6</ele><time>2026-05-03T11:05:39.151Z</time></trkpt><trkpt lat="43.7248321" lon="11.5783328"><ele>1427.8000000000002</ele><time>2026-05-03T11:05:40.152Z</time></trkpt><trkpt lat="43.7249101" lon="11.578341"><ele>1428.0</ele><time>2026-05-03T11:05:41.152Z</time></trkpt><trkpt lat="43.7249906" lon="11.5783269"><ele>1428.0</ele><time>2026-05-03T11:05:42.152Z</time></trkpt><trkpt lat="43.7250651" lon="11.5782902"><ele>1428.0</ele><time>2026-05-03T11:05:43.151Z</time></trkpt><trkpt lat="43.7251345" lon="11.578242"><ele>1428.0</ele><time>2026-05-03T11:05:44.152Z</time></trkpt><trkpt lat="43.7252025" lon="11.5781896"><ele>1428.0</ele><time>2026-05-03T11:05:45.152Z</time></trkpt><trkpt lat="43.7252689" lon="11.5781415"><ele>1428.0</ele><time>2026-05-03T11:05:46.152Z</time></trkpt><trkpt lat="43.725344" lon="11.5780963"><ele>1428.0</ele><time>2026-05-03T11:05:47.152Z</time></trkpt><trkpt lat="43.7254211" lon="11.5780488"><ele>1427.0</ele><time>2026-05-03T11:05:48.152Z</time></trkpt><trkpt lat="43.7254971" lon="11.5779925"><ele>1426.0</ele><time>2026-05-03T11:05:49.151Z</time></trkpt><trkpt lat="43.7255703" lon="11.5779346"><ele>1425.0</ele><time>2026-05-03T11:05:50.152Z</time></trkpt><trkpt lat="43.7256364" lon="11.5778729"><ele>1424.0</ele><time>2026-05-03T11:05:51.152Z</time></trkpt><trkpt lat="43.7257007" lon="11.577813"><ele>1423.0</ele><time>2026-05-03T11:05:52.152Z</time></trkpt><trkpt lat="43.7257662" lon="11.5777513"><ele>1422.0</ele><time>2026-05-03T11:05:53.151Z</time></trkpt><trkpt lat="43.7258313" lon="11.5776951"><ele>1422.0</ele><time>2026-05-03T11:05:54.152Z</time></trkpt><trkpt lat="43.725891" lon="11.5776406"><ele>1422.0</ele><time>2026-05-03T11:05:55.151Z</time></trkpt><trkpt lat="43.7259462" lon="11.5775802"><ele>1422.0</ele><time>2026-05-03T11:05:56.151Z</time></trkpt><trkpt lat="43.7259988" lon="11.5775057"><ele>1422.0</ele><time>2026-05-03T11:05:57.152Z</time></trkpt><trkpt lat="43.7260447" lon="11.5774225"><ele>1422.0</ele><time>2026-05-03T11:05:58.152Z</time></trkpt><trkpt lat="43.7260948" lon="11.5773456"><ele>1422.0</ele><time>2026-05-03T11:05:59.151Z</time></trkpt><trkpt lat="43.726154" lon="11.5772746"><ele>1422.0</ele><time>2026-05-03T11:06:00.15Z</time></trkpt><trkpt lat="43.7262193" lon="11.5771978"><ele>1422.0</ele><time>2026-05-03T11:06:01.151Z</time></trkpt><trkpt lat="43.7262894" lon="11.5771089"><ele>1422.0</ele><time>2026-05-03T11:06:02.15Z</time></trkpt><trkpt lat="43.7263678" lon="11.5770031"><ele>1422.0</ele><time>2026-05-03T11:06:03.15Z</time></trkpt><trkpt lat="43.7264629" lon="11.5768816"><ele>1422.0</ele><time>2026-05-03T11:06:04.152Z</time></trkpt><trkpt lat="43.7265749" lon="11.5767429"><ele>1423.6666666666667</ele><time>2026-05-03T11:06:05.151Z</time></trkpt><trkpt lat="43.7267027" lon="11.5765927"><ele>1425.3333333333335</ele><time>2026-05-03T11:06:06.151Z</time></trkpt><trkpt lat="43.7268422" lon="11.5764274"><ele>1427.0</ele><time>2026-05-03T11:06:07.151Z</time></trkpt><trkpt lat="43.7269803" lon="11.5762666"><ele>1426.3333333333335</ele><time>2026-05-03T11:06:08.151Z</time></trkpt><trkpt lat="43.7271086" lon="11.576127"><ele>1425.6666666666667</ele><time>2026-05-03T11:06:09.152Z</time></trkpt><trkpt lat="43.7272292" lon="11.575997"><ele>1425.0</ele><time>2026-05-03T11:06:10.152Z</time></trkpt><trkpt lat="43.727341" lon="11.5758693"><ele>1425.0</ele><time>2026-05-03T11:06:11.151Z</time></trkpt><trkpt lat="43.7274426" lon="11.5757493"><ele>1425.0</ele><time>2026-05-03T11:06:12.152Z</time></trkpt><trkpt lat="43.7275418" lon="11.5756369"><ele>1425.0</ele><time>2026-05-03T11:06:13.152Z</time></trkpt><trkpt lat="43.7276396" lon="11.5755311"><ele>1425.0</ele><time>2026-05-03T11:06:14.152Z</time></trkpt><trkpt lat="43.7277386" lon="11.5754346"><ele>1423.6</ele><time>2026-05-03T11:06:15.152Z</time></trkpt><trkpt lat="43.7278342" lon="11.5753555"><ele>1422.2</ele><time>2026-05-03T11:06:16.151Z</time></trkpt><trkpt lat="43.727922" lon="11.5752914"><ele>1420.8000000000002</ele><time>2026-05-03T11:06:17.152Z</time></trkpt><trkpt lat="43.7280087" lon="11.575237"><ele>1419.4</ele><time>2026-05-03T11:06:18.152Z</time></trkpt><trkpt lat="43.7280729" lon="11.5752021"><ele>1418.0</ele><time>2026-05-03T11:06:19.152Z</time></trkpt><trkpt lat="43.728148" lon="11.5751644"><ele>1418.0</ele><time>2026-05-03T11:06:20.152Z</time></trkpt><trkpt lat="43.7282357" lon="11.575133"><ele>1418.0</ele><time>2026-05-03T11:06:21.152Z</time></trkpt><trkpt lat="43.728351" lon="11.5750972"><ele>1418.0</ele><time>2026-05-03T11:06:22.151Z</time></trkpt><trkpt lat="43.7284923" lon="11.575057"><ele>1418.0</ele><time>2026-05-03T11:06:23.152Z</time></trkpt><trkpt lat="43.7286604" lon="11.5750151"><ele>1417.5</ele><time>2026-05-03T11:06:24.152Z</time></trkpt><trkpt lat="43.7288145" lon="11.5749755"><ele>1417.0</ele><time>2026-05-03T11:06:25.151Z</time></trkpt><trkpt lat="43.7289501" lon="11.5749349"><ele>1416.5</ele><time>2026-05-03T11:06:26.151Z</time></trkpt><trkpt lat="43.7290645" lon="11.5748949"><ele>1416.0</ele><time>2026-05-03T11:06:27.152Z</time></trkpt><trkpt lat="43.7291769" lon="11.5748603"><ele>1416.0</ele><time>2026-05-03T11:06:28.152Z</time></trkpt><trkpt lat="43.7292801" lon="11.5748454"><ele>1416.0</ele><time>2026-05-03T11:06:29.152Z</time></trkpt><trkpt lat="43.7293772" lon="11.5748455"><ele>1416.0</ele><time>2026-05-03T11:06:30.151Z</time></trkpt><trkpt lat="43.7294705" lon="11.5748511"><ele>1416.0</ele><time>2026-05-03T11:06:31.151Z</time></trkpt><trkpt lat="43.7295631" lon="11.5748564"><ele>1416.0</ele><time>2026-05-03T11:06:32.151Z</time></trkpt><trkpt lat="43.7296548" lon="11.5748549"><ele>1416.1999999999998</ele><time>2026-05-03T11:06:33.151Z</time></trkpt><trkpt lat="43.7297437" lon="11.5748672"><ele>1416.3999999999999</ele><time>2026-05-03T11:06:34.151Z</time></trkpt><trkpt lat="43.7298263" lon="11.5748979"><ele>1416.6</ele><time>2026-05-03T11:06:35.15Z</time></trkpt><trkpt lat="43.7299144" lon="11.5749452"><ele>1416.8</ele><time>2026-05-03T11:06:36.151Z</time></trkpt><trkpt lat="43.7300086" lon="11.5749962"><ele>1417.0</ele><time>2026-05-03T11:06:37.151Z</time></trkpt><trkpt lat="43.7301103" lon="11.5750511"><ele>1417.0</ele><time>2026-05-03T11:06:38.151Z</time></trkpt><trkpt lat="43.7302114" lon="11.5751084"><ele>1417.0</ele><time>2026-05-03T11:06:39.15Z</time></trkpt><trkpt lat="43.7303112" lon="11.5751767"><ele>1417.0</ele><time>2026-05-03T11:06:40.151Z</time></trkpt><trkpt lat="43.7304118" lon="11.5752535"><ele>1417.0</ele><time>2026-05-03T11:06:41.151Z</time></trkpt><trkpt lat="43.7305083" lon="11.575342"><ele>1415.75</ele><time>2026-05-03T11:06:42.152Z</time></trkpt><trkpt lat="43.7305969" lon="11.5754397"><ele>1414.5</ele><time>2026-05-03T11:06:43.151Z</time></trkpt><trkpt lat="43.7306852" lon="11.575539"><ele>1413.25</ele><time>2026-05-03T11:06:44.151Z</time></trkpt><trkpt lat="43.7307822" lon="11.5756202"><ele>1412.0</ele><time>2026-05-03T11:06:45.15Z</time></trkpt><trkpt lat="43.7308945" lon="11.5756738"><ele>1412.0</ele><time>2026-05-03T11:06:46.152Z</time></trkpt><trkpt lat="43.7310131" lon="11.5757053"><ele>1412.0</ele><time>2026-05-03T11:06:47.151Z</time></trkpt><trkpt lat="43.7311372" lon="11.5757255"><ele>1412.0</ele><time>2026-05-03T11:06:48.152Z</time></trkpt><trkpt lat="43.7312647" lon="11.5757279"><ele>1412.0</ele><time>2026-05-03T11:06:49.151Z</time></trkpt><trkpt lat="43.7313975" lon="11.5757033"><ele>1410.5</ele><time>2026-05-03T11:06:50.151Z</time></trkpt><trkpt lat="43.731528" lon="11.5756571"><ele>1409.0</ele><time>2026-05-03T11:06:51.152Z</time></trkpt><trkpt lat="43.731653" lon="11.575598"><ele>1407.5</ele><time>2026-05-03T11:06:52.15Z</time></trkpt><trkpt lat="43.7317725" lon="11.5755336"><ele>1406.0</ele><time>2026-05-03T11:06:53.152Z</time></trkpt><trkpt lat="43.73189" lon="11.5754681"><ele>1406.25</ele><time>2026-05-03T11:06:54.152Z</time></trkpt><trkpt lat="43.7319985" lon="11.5754024"><ele>1406.5</ele><time>2026-05-03T11:06:55.152Z</time></trkpt><trkpt lat="43.7321022" lon="11.5753339"><ele>1406.75</ele><time>2026-05-03T11:06:56.152Z</time></trkpt><trkpt lat="43.7321995" lon="11.575256"><ele>1407.0</ele><time>2026-05-03T11:06:57.152Z</time></trkpt><trkpt lat="43.7322853" lon="11.575164"><ele>1407.0</ele><time>2026-05-03T11:06:58.151Z</time></trkpt><trkpt lat="43.7323632" lon="11.5750631"><ele>1407.0</ele><time>2026-05-03T11:06:59.152Z</time></trkpt><trkpt lat="43.7324382" lon="11.5749578"><ele>1407.0</ele><time>2026-05-03T11:07:00.152Z</time></trkpt><trkpt lat="43.7325122" lon="11.5748491"><ele>1407.0</ele><time>2026-05-03T11:07:01.15Z</time></trkpt><trkpt lat="43.7325871" lon="11.5747532"><ele>1407.0</ele><time>2026-05-03T11:07:02.152Z</time></trkpt><trkpt lat="43.7326628" lon="11.5746585"><ele>1406.8</ele><time>2026-05-03T11:07:03.152Z</time></trkpt><trkpt lat="43.7327465" lon="11.5745817"><ele>1406.6</ele><time>2026-05-03T11:07:04.15Z</time></trkpt><trkpt lat="43.732842" lon="11.5745292"><ele>1406.3999999999999</ele><time>2026-05-03T11:07:05.151Z</time></trkpt><trkpt lat="43.7329425" lon="11.5745025"><ele>1406.1999999999998</ele><time>2026-05-03T11:07:06.152Z</time></trkpt><trkpt lat="43.7330428" lon="11.5744875"><ele>1406.0</ele><time>2026-05-03T11:07:07.152Z</time></trkpt><trkpt lat="43.7331423" lon="11.5744759"><ele>1406.0</ele><time>2026-05-03T11:07:08.152Z</time></trkpt><trkpt lat="43.7332404" lon="11.5744609"><ele>1406.0</ele><time>2026-05-03T11:07:09.151Z</time></trkpt><trkpt lat="43.7333467" lon="11.5744463"><ele>1406.0</ele><time>2026-05-03T11:07:10.151Z</time></trkpt><trkpt lat="43.7334517" lon="11.5744198"><ele>1406.0</ele><time>2026-05-03T11:07:11.152Z</time></trkpt><trkpt lat="43.7335591" lon="11.5743986"><ele>1406.0</ele><time>2026-05-03T11:07:12.152Z</time></trkpt><trkpt lat="43.7336771" lon="11.5743746"><ele>1403.75</ele><time>2026-05-03T11:07:13.152Z</time></trkpt><trkpt lat="43.7337899" lon="11.5743387"><ele>1401.5</ele><time>2026-05-03T11:07:14.151Z</time></trkpt><trkpt lat="43.733907" lon="11.5742912"><ele>1399.25</ele><time>2026-05-03T11:07:15.151Z</time></trkpt><trkpt lat="43.7340158" lon="11.574248"><ele>1397.0</ele><time>2026-05-03T11:07:16.152Z</time></trkpt><trkpt lat="43.7341239" lon="11.5742036"><ele>1397.0</ele><time>2026-05-03T11:07:17.151Z</time></trkpt><trkpt lat="43.7342247" lon="11.5741684"><ele>1397.0</ele><time>2026-05-03T11:07:18.151Z</time></trkpt><trkpt lat="43.7343364" lon="11.5741402"><ele>1397.0</ele><time>2026-05-03T11:07:19.15Z</time></trkpt><trkpt lat="43.734444" lon="11.5741055"><ele>1397.0</ele><time>2026-05-03T11:07:20.15Z</time></trkpt><trkpt lat="43.7345508" lon="11.5740963"><ele>1397.0</ele><time>2026-05-03T11:07:21.152Z</time></trkpt><trkpt lat="43.73466" lon="11.5740843"><ele>1395.6</ele><time>2026-05-03T11:07:22.15Z</time></trkpt><trkpt lat="43.7347687" lon="11.5740783"><ele>1394.1999999999998</ele><time>2026-05-03T11:07:23.151Z</time></trkpt><trkpt lat="43.7348783" lon="11.5740419"><ele>1392.8</ele><time>2026-05-03T11:07:24.152Z</time></trkpt><trkpt lat="43.734961" lon="11.574013"><ele>1391.4</ele><time>2026-05-03T11:07:25.152Z</time></trkpt><trkpt lat="43.735064" lon="11.5740776"><ele>1390.0</ele><time>2026-05-03T11:07:26.152Z</time></trkpt><trkpt lat="43.7351835" lon="11.5741532"><ele>1389.75</ele><time>2026-05-03T11:07:27.152Z</time></trkpt><trkpt lat="43.7353032" lon="11.5742396"><ele>1389.5</ele><time>2026-05-03T11:07:28.15Z</time></trkpt><trkpt lat="43.7354187" lon="11.5743074"><ele>1389.25</ele><time>2026-05-03T11:07:29.151Z</time></trkpt><trkpt lat="43.7355424" lon="11.5743885"><ele>1389.0</ele><time>2026-05-03T11:07:30.151Z</time></trkpt><trkpt lat="43.7356431" lon="11.5745059"><ele>1384.0</ele><time>2026-05-03T11:07:31.152Z</time></trkpt><trkpt lat="43.735734" lon="11.5746224"><ele>1379.0</ele><time>2026-05-03T11:07:32.152Z</time></trkpt><trkpt lat="43.7358305" lon="11.5747223"><ele>1374.0</ele><time>2026-05-03T11:07:33.151Z</time></trkpt><trkpt lat="43.7359235" lon="11.5748302"><ele>1369.0</ele><time>2026-05-03T11:07:34.15Z</time></trkpt><trkpt lat="43.7360482" lon="11.5748741"><ele>1369.0</ele><time>2026-05-03T11:07:35.152Z</time></trkpt><trkpt lat="43.7361524" lon="11.5749597"><ele>1369.0</ele><time>2026-05-03T11:07:36.151Z</time></trkpt><trkpt lat="43.7362408" lon="11.5750807"><ele>1369.0</ele><time>2026-05-03T11:07:37.151Z</time></trkpt><trkpt lat="43.7363381" lon="11.5751915"><ele>1369.0</ele><time>2026-05-03T11:07:38.152Z</time></trkpt><trkpt lat="43.7364125" lon="11.5753376"><ele>1369.0</ele><time>2026-05-03T11:07:39.152Z</time></trkpt><trkpt lat="43.7365015" lon="11.5754315"><ele>1369.0</ele><time>2026-05-03T11:07:40.152Z</time></trkpt><trkpt lat="43.7365977" lon="11.5754718"><ele>1369.0</ele><time>2026-05-03T11:07:41.152Z</time></trkpt><trkpt lat="43.7366839" lon="11.575463"><ele>1369.0</ele><time>2026-05-03T11:07:42.151Z</time></trkpt><trkpt lat="43.7367599" lon="11.5753948"><ele>1369.0</ele><time>2026-05-03T11:07:43.151Z</time></trkpt><trkpt lat="43.7368058" lon="11.5752872"><ele>1369.0</ele><time>2026-05-03T11:07:44.152Z</time></trkpt><trkpt lat="43.7368202" lon="11.5751556"><ele>1369.0</ele><time>2026-05-03T11:07:45.152Z</time></trkpt><trkpt lat="43.7368324" lon="11.5750367"><ele>1369.0</ele><time>2026-05-03T11:07:46.152Z</time></trkpt><trkpt lat="43.7368049" lon="11.5748736"><ele>1369.0</ele><time>2026-05-03T11:07:47.152Z</time></trkpt><trkpt lat="43.7367291" lon="11.5747019"><ele>1369.0</ele><time>2026-05-03T11:07:48.152Z</time></trkpt><trkpt lat="43.7366951" lon="11.5745464"><ele>1371.0</ele><time>2026-05-03T11:07:49.151Z</time></trkpt><trkpt lat="43.7366763" lon="11.5743496"><ele>1373.0</ele><time>2026-05-03T11:07:50.15Z</time></trkpt><trkpt lat="43.7366812" lon="11.5742111"><ele>1375.0</ele><time>2026-05-03T11:07:51.15Z</time></trkpt><trkpt lat="43.7366851" lon="11.574038"><ele>1377.0</ele><time>2026-05-03T11:07:52.151Z</time></trkpt><trkpt lat="43.7367063" lon="11.5738583"><ele>1377.0</ele><time>2026-05-03T11:07:53.151Z</time></trkpt><trkpt lat="43.7367863" lon="11.5737347"><ele>1377.0</ele><time>2026-05-03T11:07:54.151Z</time></trkpt><trkpt lat="43.7368905" lon="11.5736175"><ele>1377.0</ele><time>2026-05-03T11:07:55.15Z</time></trkpt><trkpt lat="43.7369754" lon="11.5735006"><ele>1377.0</ele><time>2026-05-03T11:07:56.151Z</time></trkpt><trkpt lat="43.7371094" lon="11.5734075"><ele>1374.0</ele><time>2026-05-03T11:07:57.151Z</time></trkpt><trkpt lat="43.7372109" lon="11.5732931"><ele>1371.0</ele><time>2026-05-03T11:07:58.151Z</time></trkpt><trkpt lat="43.7372585" lon="11.5731195"><ele>1368.0</ele><time>2026-05-03T11:07:59.15Z</time></trkpt><trkpt lat="43.7372907" lon="11.5729439"><ele>1365.0</ele><time>2026-05-03T11:08:00.15Z</time></trkpt><trkpt lat="43.737336" lon="11.5727546"><ele>1365.0</ele><time>2026-05-03T11:08:01.15Z</time></trkpt><trkpt lat="43.7373706" lon="11.5725494"><ele>1365.0</ele><time>2026-05-03T11:08:02.15Z</time></trkpt><trkpt lat="43.7373828" lon="11.5723492"><ele>1365.0</ele><time>2026-05-03T11:08:03.151Z</time></trkpt><trkpt lat="43.7374031" lon="11.572163"><ele>1365.0</ele><time>2026-05-03T11:08:04.151Z</time></trkpt><trkpt lat="43.737408" lon="11.5719706"><ele>1364.25</ele><time>2026-05-03T11:08:05.15Z</time></trkpt><trkpt lat="43.7374079" lon="11.5717874"><ele>1363.5</ele><time>2026-05-03T11:08:06.151Z</time></trkpt><trkpt lat="43.7374178" lon="11.5715987"><ele>1362.75</ele><time>2026-05-03T11:08:07.15Z</time></trkpt><trkpt lat="43.7374174" lon="11.5714383"><ele>1362.0</ele><time>2026-05-03T11:08:08.15Z</time></trkpt><trkpt lat="43.7374254" lon="11.5712525"><ele>1361.25</ele><time>2026-05-03T11:08:09.151Z</time></trkpt><trkpt lat="43.7374351" lon="11.5710726"><ele>1360.5</ele><time>2026-05-03T11:08:10.15Z</time></trkpt><trkpt lat="43.7374451" lon="11.5708972"><ele>1359.75</ele><time>2026-05-03T11:08:11.15Z</time></trkpt><trkpt lat="43.7374801" lon="11.5707222"><ele>1359.0</ele><time>2026-05-03T11:08:12.151Z</time></trkpt><trkpt lat="43.7375025" lon="11.5705587"><ele>1357.5</ele><time>2026-05-03T11:08:13.151Z</time></trkpt><trkpt lat="43.7375318" lon="11.570353"><ele>1356.0</ele><time>2026-05-03T11:08:14.151Z</time></trkpt><trkpt lat="43.7375661" lon="11.5701544"><ele>1354.5</ele><time>2026-05-03T11:08:15.151Z</time></trkpt><trkpt lat="43.7375675" lon="11.5699948"><ele>1353.0</ele><time>2026-05-03T11:08:16.15Z</time></trkpt><trkpt lat="43.7375741" lon="11.5698375"><ele>1353.0</ele><time>2026-05-03T11:08:17.151Z</time></trkpt><trkpt lat="43.7375621" lon="11.5696612"><ele>1353.0</ele><time>2026-05-03T11:08:18.151Z</time></trkpt><trkpt lat="43.737546" lon="11.5694841"><ele>1353.0</ele><time>2026-05-03T11:08:19.15Z</time></trkpt><trkpt lat="43.7375228" lon="11.5693146"><ele>1353.0</ele><time>2026-05-03T11:08:20.15Z</time></trkpt><trkpt lat="43.7374907" lon="11.5691603"><ele>1351.6000000000001</ele><time>2026-05-03T11:08:21.15Z</time></trkpt><trkpt lat="43.7374492" lon="11.5690123"><ele>1350.2</ele><time>2026-05-03T11:08:22.151Z</time></trkpt><trkpt lat="43.7374368" lon="11.5688703"><ele>1348.8</ele><time>2026-05-03T11:08:23.15Z</time></trkpt><trkpt lat="43.7374287" lon="11.5687531"><ele>1347.4</ele><time>2026-05-03T11:08:24.151Z</time></trkpt><trkpt lat="43.7374428" lon="11.5686568"><ele>1346.0</ele><time>2026-05-03T11:08:25.151Z</time></trkpt><trkpt lat="43.7374805" lon="11.5685333"><ele>1346.0</ele><time>2026-05-03T11:08:26.15Z</time></trkpt><trkpt lat="43.7375432" lon="11.568493"><ele>1346.0</ele><time>2026-05-03T11:08:27.15Z</time></trkpt><trkpt lat="43.7376205" lon="11.568573"><ele>1346.0</ele><time>2026-05-03T11:08:28.151Z</time></trkpt><trkpt lat="43.7376988" lon="11.5687179"><ele>1346.0</ele><time>2026-05-03T11:08:29.15Z</time></trkpt><trkpt lat="43.7377746" lon="11.5689045"><ele>1343.5</ele><time>2026-05-03T11:08:30.15Z</time></trkpt><trkpt lat="43.7378073" lon="11.5691261"><ele>1341.0</ele><time>2026-05-03T11:08:31.151Z</time></trkpt><trkpt lat="43.7378747" lon="11.5692787"><ele>1338.5</ele><time>2026-05-03T11:08:32.151Z</time></trkpt><trkpt lat="43.7379554" lon="11.5694594"><ele>1336.0</ele><time>2026-05-03T11:08:33.151Z</time></trkpt><trkpt lat="43.7380233" lon="11.5696367"><ele>1336.0</ele><time>2026-05-03T11:08:34.151Z</time></trkpt><trkpt lat="43.7381109" lon="11.569792"><ele>1336.0</ele><time>2026-05-03T11:08:35.151Z</time></trkpt><trkpt lat="43.7381696" lon="11.5699548"><ele>1336.0</ele><time>2026-05-03T11:08:36.15Z</time></trkpt><trkpt lat="43.7382261" lon="11.5701212"><ele>1336.0</ele><time>2026-05-03T11:08:37.15Z</time></trkpt><trkpt lat="43.7382488" lon="11.5703006"><ele>1336.5</ele><time>2026-05-03T11:08:38.15Z</time></trkpt><trkpt lat="43.7382441" lon="11.5704942"><ele>1337.0</ele><time>2026-05-03T11:08:39.151Z</time></trkpt><trkpt lat="43.738266" lon="11.5706813"><ele>1337.5</ele><time>2026-05-03T11:08:40.151Z</time></trkpt><trkpt lat="43.7382882" lon="11.5708754"><ele>1338.0</ele><time>2026-05-03T11:08:41.151Z</time></trkpt><trkpt lat="43.7383805" lon="11.5709818"><ele>1338.0</ele><time>2026-05-03T11:08:42.15Z</time></trkpt><trkpt lat="43.7384348" lon="11.5711268"><ele>1338.0</ele><time>2026-05-03T11:08:43.151Z</time></trkpt><trkpt lat="43.7385118" lon="11.5712043"><ele>1338.0</ele><time>2026-05-03T11:08:44.151Z</time></trkpt><trkpt lat="43.7386016" lon="11.5712838"><ele>1338.0</ele><time>2026-05-03T11:08:45.151Z</time></trkpt><trkpt lat="43.738704" lon="11.5713385"><ele>1338.0</ele><time>2026-05-03T11:08:46.151Z</time></trkpt><trkpt lat="43.7387601" lon="11.5714308"><ele>1333.0</ele><time>2026-05-03T11:08:47.15Z</time></trkpt><trkpt lat="43.7388226" lon="11.5714881"><ele>1328.0</ele><time>2026-05-03T11:08:48.15Z</time></trkpt><trkpt lat="43.7388786" lon="11.5715728"><ele>1323.0</ele><time>2026-05-03T11:08:49.15Z</time></trkpt><trkpt lat="43.7387648" lon="11.5717277"><ele>1318.0</ele><time>2026-05-03T11:08:50.15Z</time></trkpt><trkpt lat="43.7387332" lon="11.57188"><ele>1313.0</ele><time>2026-05-03T11:08:51.151Z</time></trkpt><trkpt lat="43.7387071" lon="11.5720354"><ele>1312.75</ele><time>2026-05-03T11:08:52.151Z</time></trkpt><trkpt lat="43.738739" lon="11.5721903"><ele>1312.5</ele><time>2026-05-03T11:08:53.15Z</time></trkpt><trkpt lat="43.7387694" lon="11.5723546"><ele>1312.25</ele><time>2026-05-03T11:08:54.151Z</time></trkpt><trkpt lat="43.7388299" lon="11.572492"><ele>1312.0</ele><time>2026-05-03T11:08:55.151Z</time></trkpt><trkpt lat="43.738905" lon="11.572627"><ele>1312.0</ele><time>2026-05-03T11:08:56.151Z</time></trkpt><trkpt lat="43.7389802" lon="11.5727345"><ele>1312.0</ele><time>2026-05-03T11:08:57.151Z</time></trkpt><trkpt lat="43.7390836" lon="11.5728377"><ele>1312.0</ele><time>2026-05-03T11:08:58.151Z</time></trkpt><trkpt lat="43.7392534" lon="11.5728634"><ele>1312.0</ele><time>2026-05-03T11:08:59.151Z</time></trkpt><trkpt lat="43.7393886" lon="11.5728993"><ele>1307.25</ele><time>2026-05-03T11:09:00.151Z</time></trkpt><trkpt lat="43.7395146" lon="11.5729516"><ele>1302.5</ele><time>2026-05-03T11:09:01.151Z</time></trkpt><trkpt lat="43.7396361" lon="11.5730023"><ele>1297.75</ele><time>2026-05-03T11:09:02.151Z</time></trkpt><trkpt lat="43.7397461" lon="11.5730483"><ele>1293.0</ele><time>2026-05-03T11:09:03.151Z</time></trkpt><trkpt lat="43.7398436" lon="11.5731191"><ele>1293.0</ele><time>2026-05-03T11:09:04.15Z</time></trkpt><trkpt lat="43.739908" lon="11.5732137"><ele>1293.0</ele><time>2026-05-03T11:09:05.15Z</time></trkpt><trkpt lat="43.7397343" lon="11.5733482"><ele>1293.0</ele><time>2026-05-03T11:09:06.15Z</time></trkpt><trkpt lat="43.7396106" lon="11.5734819"><ele>1293.0</ele><time>2026-05-03T11:09:08.151Z</time></trkpt><trkpt lat="43.7395248" lon="11.573546"><ele>1293.0</ele><time>2026-05-03T11:09:09.15Z</time></trkpt><trkpt lat="43.7394097" lon="11.5736364"><ele>1293.0</ele><time>2026-05-03T11:09:10.15Z</time></trkpt><trkpt lat="43.7393052" lon="11.5737542"><ele>1293.0</ele><time>2026-05-03T11:09:11.151Z</time></trkpt><trkpt lat="43.7392438" lon="11.5738998"><ele>1295.25</ele><time>2026-05-03T11:09:12.149Z</time></trkpt><trkpt lat="43.7392023" lon="11.5740603"><ele>1297.5</ele><time>2026-05-03T11:09:13.15Z</time></trkpt><trkpt lat="43.7391509" lon="11.5742402"><ele>1299.75</ele><time>2026-05-03T11:09:14.151Z</time></trkpt><trkpt lat="43.7391057" lon="11.5744173"><ele>1302.0</ele><time>2026-05-03T11:09:15.151Z</time></trkpt><trkpt lat="43.7390716" lon="11.5745738"><ele>1303.0</ele><time>2026-05-03T11:09:16.151Z</time></trkpt><trkpt lat="43.7390342" lon="11.5746929"><ele>1304.0</ele><time>2026-05-03T11:09:17.15Z</time></trkpt><trkpt lat="43.7389967" lon="11.574812"><ele>1305.0</ele><time>2026-05-03T11:09:18.149Z</time></trkpt><trkpt lat="43.7391561" lon="11.5747662"><ele>1306.0</ele><time>2026-05-03T11:09:20.15Z</time></trkpt><trkpt lat="43.7392355" lon="11.5747709"><ele>1307.0</ele><time>2026-05-03T11:09:21.151Z</time></trkpt><trkpt lat="43.7394407" lon="11.5746489"><ele>1303.75</ele><time>2026-05-03T11:09:23.15Z</time></trkpt><trkpt lat="43.7395695" lon="11.5746131"><ele>1300.5</ele><time>2026-05-03T11:09:24.15Z</time></trkpt><trkpt lat="43.7397016" lon="11.5745635"><ele>1297.25</ele><time>2026-05-03T11:09:25.151Z</time></trkpt><trkpt lat="43.7398234" lon="11.5746798"><ele>1294.0</ele><time>2026-05-03T11:09:26.151Z</time></trkpt><trkpt lat="43.7398981" lon="11.5748194"><ele>1294.0</ele><time>2026-05-03T11:09:27.151Z</time></trkpt><trkpt lat="43.7400077" lon="11.5749381"><ele>1294.0</ele><time>2026-05-03T11:09:28.151Z</time></trkpt><trkpt lat="43.7401017" lon="11.5750435"><ele>1294.0</ele><time>2026-05-03T11:09:29.15Z</time></trkpt><trkpt lat="43.7401704" lon="11.5751656"><ele>1294.0</ele><time>2026-05-03T11:09:30.151Z</time></trkpt><trkpt lat="43.7402723" lon="11.5752736"><ele>1290.75</ele><time>2026-05-03T11:09:31.151Z</time></trkpt><trkpt lat="43.7404017" lon="11.5753819"><ele>1287.5</ele><time>2026-05-03T11:09:32.15Z</time></trkpt><trkpt lat="43.7405176" lon="11.5754979"><ele>1284.25</ele><time>2026-05-03T11:09:33.15Z</time></trkpt><trkpt lat="43.7406135" lon="11.575623"><ele>1281.0</ele><time>2026-05-03T11:09:34.151Z</time></trkpt><trkpt lat="43.7407161" lon="11.575744"><ele>1281.0</ele><time>2026-05-03T11:09:35.151Z</time></trkpt><trkpt lat="43.7407672" lon="11.575885"><ele>1281.0</ele><time>2026-05-03T11:09:36.149Z</time></trkpt><trkpt lat="43.7408427" lon="11.5760185"><ele>1281.0</ele><time>2026-05-03T11:09:37.149Z</time></trkpt><trkpt lat="43.7409165" lon="11.5761276"><ele>1281.0</ele><time>2026-05-03T11:09:38.151Z</time></trkpt><trkpt lat="43.7410346" lon="11.5762587"><ele>1275.75</ele><time>2026-05-03T11:09:39.151Z</time></trkpt><trkpt lat="43.7411317" lon="11.5763554"><ele>1270.5</ele><time>2026-05-03T11:09:40.15Z</time></trkpt><trkpt lat="43.7412256" lon="11.5764726"><ele>1265.25</ele><time>2026-05-03T11:09:41.151Z</time></trkpt><trkpt lat="43.7413075" lon="11.5766334"><ele>1260.0</ele><time>2026-05-03T11:09:42.151Z</time></trkpt><trkpt lat="43.7413977" lon="11.5767836"><ele>1260.0</ele><time>2026-05-03T11:09:43.15Z</time></trkpt><trkpt lat="43.7414815" lon="11.5769446"><ele>1260.0</ele><time>2026-05-03T11:09:44.15Z</time></trkpt><trkpt lat="43.7415302" lon="11.5771223"><ele>1260.0</ele><time>2026-05-03T11:09:45.151Z</time></trkpt><trkpt lat="43.741607" lon="11.5772907"><ele>1260.0</ele><time>2026-05-03T11:09:46.15Z</time></trkpt><trkpt lat="43.7416407" lon="11.5774841"><ele>1261.5</ele><time>2026-05-03T11:09:47.151Z</time></trkpt><trkpt lat="43.7417053" lon="11.5776545"><ele>1263.0</ele><time>2026-05-03T11:09:48.15Z</time></trkpt><trkpt lat="43.7417424" lon="11.5778314"><ele>1264.5</ele><time>2026-05-03T11:09:49.151Z</time></trkpt><trkpt lat="43.7417889" lon="11.5780068"><ele>1266.0</ele><time>2026-05-03T11:09:50.149Z</time></trkpt><trkpt lat="43.7418479" lon="11.5781812"><ele>1260.75</ele><time>2026-05-03T11:09:51.149Z</time></trkpt><trkpt lat="43.7418961" lon="11.5783611"><ele>1255.5</ele><time>2026-05-03T11:09:52.151Z</time></trkpt><trkpt lat="43.7419286" lon="11.5785488"><ele>1250.25</ele><time>2026-05-03T11:09:53.15Z</time></trkpt><trkpt lat="43.7419723" lon="11.5787206"><ele>1245.0</ele><time>2026-05-03T11:09:54.149Z</time></trkpt><trkpt lat="43.7420122" lon="11.5789178"><ele>1245.0</ele><time>2026-05-03T11:09:55.15Z</time></trkpt><trkpt lat="43.7420601" lon="11.5790904"><ele>1245.0</ele><time>2026-05-03T11:09:56.151Z</time></trkpt><trkpt lat="43.7421213" lon="11.5792414"><ele>1245.0</ele><time>2026-05-03T11:09:57.151Z</time></trkpt><trkpt lat="43.7421806" lon="11.5793948"><ele>1245.0</ele><time>2026-05-03T11:09:58.151Z</time></trkpt><trkpt lat="43.7422596" lon="11.5794527"><ele>1245.0</ele><time>2026-05-03T11:09:59.15Z</time></trkpt><trkpt lat="43.7423735" lon="11.5793528"><ele>1245.0</ele><time>2026-05-03T11:10:00.15Z</time></trkpt><trkpt lat="43.7424723" lon="11.5793444"><ele>1245.0</ele><time>2026-05-03T11:10:01.151Z</time></trkpt><trkpt lat="43.7426181" lon="11.5792514"><ele>1245.0</ele><time>2026-05-03T11:10:02.15Z</time></trkpt><trkpt lat="43.7427438" lon="11.5792189"><ele>1243.75</ele><time>2026-05-03T11:10:03.15Z</time></trkpt><trkpt lat="43.7428738" lon="11.5791787"><ele>1242.5</ele><time>2026-05-03T11:10:04.151Z</time></trkpt><trkpt lat="43.7429877" lon="11.5792922"><ele>1241.25</ele><time>2026-05-03T11:10:05.149Z</time></trkpt><trkpt lat="43.7431296" lon="11.579327"><ele>1240.0</ele><time>2026-05-03T11:10:06.151Z</time></trkpt><trkpt lat="43.743274" lon="11.5793706"><ele>1240.0</ele><time>2026-05-03T11:10:07.151Z</time></trkpt><trkpt lat="43.7433976" lon="11.5794126"><ele>1240.0</ele><time>2026-05-03T11:10:08.151Z</time></trkpt><trkpt lat="43.743521" lon="11.5794547"><ele>1240.0</ele><time>2026-05-03T11:10:09.151Z</time></trkpt><trkpt lat="43.7436256" lon="11.5795025"><ele>1240.0</ele><time>2026-05-03T11:10:10.151Z</time></trkpt><trkpt lat="43.7437192" lon="11.5796467"><ele>1238.3333333333333</ele><time>2026-05-03T11:10:11.15Z</time></trkpt><trkpt lat="43.7437943" lon="11.5798223"><ele>1236.6666666666667</ele><time>2026-05-03T11:10:12.15Z</time></trkpt><trkpt lat="43.7438665" lon="11.5799618"><ele>1235.0</ele><time>2026-05-03T11:10:13.15Z</time></trkpt><trkpt lat="43.7438731" lon="11.5802265"><ele>1234.0</ele><time>2026-05-03T11:10:14.15Z</time></trkpt><trkpt lat="43.7439093" lon="11.580415"><ele>1233.0</ele><time>2026-05-03T11:10:15.15Z</time></trkpt><trkpt lat="43.7439097" lon="11.5806225"><ele>1232.0</ele><time>2026-05-03T11:10:16.151Z</time></trkpt><trkpt lat="43.7439004" lon="11.5808239"><ele>1231.0</ele><time>2026-05-03T11:10:17.149Z</time></trkpt><trkpt lat="43.7439291" lon="11.5810095"><ele>1230.0</ele><time>2026-05-03T11:10:18.151Z</time></trkpt><trkpt lat="43.743964" lon="11.5812099"><ele>1229.0</ele><time>2026-05-03T11:10:19.151Z</time></trkpt><trkpt lat="43.7440481" lon="11.5813406"><ele>1228.0</ele><time>2026-05-03T11:10:20.151Z</time></trkpt><trkpt lat="43.7441298" lon="11.5814938"><ele>1227.0</ele><time>2026-05-03T11:10:21.151Z</time></trkpt><trkpt lat="43.7441753" lon="11.5816417"><ele>1227.0</ele><time>2026-05-03T11:10:22.151Z</time></trkpt><trkpt lat="43.7442312" lon="11.5818334"><ele>1227.0</ele><time>2026-05-03T11:10:23.151Z</time></trkpt><trkpt lat="43.7442666" lon="11.5819925"><ele>1227.0</ele><time>2026-05-03T11:10:24.15Z</time></trkpt><trkpt lat="43.7442964" lon="11.5821837"><ele>1227.0</ele><time>2026-05-03T11:10:25.151Z</time></trkpt><trkpt lat="43.7443181" lon="11.5823457"><ele>1225.75</ele><time>2026-05-03T11:10:26.151Z</time></trkpt><trkpt lat="43.7443364" lon="11.5825212"><ele>1224.5</ele><time>2026-05-03T11:10:27.151Z</time></trkpt><trkpt lat="43.7443205" lon="11.5827131"><ele>1223.25</ele><time>2026-05-03T11:10:28.151Z</time></trkpt><trkpt lat="43.7443136" lon="11.5828756"><ele>1222.0</ele><time>2026-05-03T11:10:29.151Z</time></trkpt><trkpt lat="43.7441774" lon="11.5829593"><ele>1219.8</ele><time>2026-05-03T11:10:30.15Z</time></trkpt><trkpt lat="43.7440754" lon="11.5830677"><ele>1217.6</ele><time>2026-05-03T11:10:31.15Z</time></trkpt><trkpt lat="43.7439891" lon="11.5831599"><ele>1215.3999999999999</ele><time>2026-05-03T11:10:32.151Z</time></trkpt><trkpt lat="43.7439124" lon="11.5832554"><ele>1213.2</ele><time>2026-05-03T11:10:33.15Z</time></trkpt><trkpt lat="43.7438431" lon="11.5833524"><ele>1211.0</ele><time>2026-05-03T11:10:34.15Z</time></trkpt><trkpt lat="43.7438192" lon="11.5834492"><ele>1211.0</ele><time>2026-05-03T11:10:35.151Z</time></trkpt><trkpt lat="43.7437783" lon="11.5835417"><ele>1211.0</ele><time>2026-05-03T11:10:36.15Z</time></trkpt><trkpt lat="43.743741" lon="11.5837152"><ele>1211.0</ele><time>2026-05-03T11:10:38.15Z</time></trkpt><trkpt lat="43.7437254" lon="11.5838285"><ele>1211.0</ele><time>2026-05-03T11:10:39.15Z</time></trkpt><trkpt lat="43.7437061" lon="11.5839497"><ele>1211.0</ele><time>2026-05-03T11:10:40.15Z</time></trkpt><trkpt lat="43.743675" lon="11.5840784"><ele>1211.0</ele><time>2026-05-03T11:10:41.151Z</time></trkpt><trkpt lat="43.7436438" lon="11.5842178"><ele>1211.0</ele><time>2026-05-03T11:10:42.149Z</time></trkpt><trkpt lat="43.7436251" lon="11.584368"><ele>1211.0</ele><time>2026-05-03T11:10:43.15Z</time></trkpt><trkpt lat="43.7436161" lon="11.5845249"><ele>1211.0</ele><time>2026-05-03T11:10:44.15Z</time></trkpt><trkpt lat="43.7436283" lon="11.5846917"><ele>1211.75</ele><time>2026-05-03T11:10:45.151Z</time></trkpt><trkpt lat="43.7436545" lon="11.5848535"><ele>1212.5</ele><time>2026-05-03T11:10:46.151Z</time></trkpt><trkpt lat="43.743691" lon="11.5850191"><ele>1213.25</ele><time>2026-05-03T11:10:47.149Z</time></trkpt><trkpt lat="43.7437222" lon="11.5851988"><ele>1214.0</ele><time>2026-05-03T11:10:48.151Z</time></trkpt><trkpt lat="43.7437314" lon="11.5853724"><ele>1215.0</ele><time>2026-05-03T11:10:49.151Z</time></trkpt><trkpt lat="43.743722" lon="11.5855428"><ele>1216.0</ele><time>2026-05-03T11:10:50.151Z</time></trkpt><trkpt lat="43.7436997" lon="11.5857159"><ele>1217.0</ele><time>2026-05-03T11:10:51.15Z</time></trkpt><trkpt lat="43.7436828" lon="11.5858946"><ele>1218.0</ele><time>2026-05-03T11:10:52.15Z</time></trkpt><trkpt lat="43.7436795" lon="11.5860812"><ele>1217.75</ele><time>2026-05-03T11:10:53.151Z</time></trkpt><trkpt lat="43.7436895" lon="11.5862734"><ele>1217.5</ele><time>2026-05-03T11:10:54.151Z</time></trkpt><trkpt lat="43.7437064" lon="11.5864713"><ele>1217.25</ele><time>2026-05-03T11:10:55.151Z</time></trkpt><trkpt lat="43.7437188" lon="11.5866744"><ele>1217.0</ele><time>2026-05-03T11:10:56.151Z</time></trkpt><trkpt lat="43.7437273" lon="11.5868722"><ele>1215.5</ele><time>2026-05-03T11:10:57.151Z</time></trkpt><trkpt lat="43.7437351" lon="11.5870668"><ele>1214.0</ele><time>2026-05-03T11:10:58.149Z</time></trkpt><trkpt lat="43.7437379" lon="11.5872593"><ele>1212.5</ele><time>2026-05-03T11:10:59.151Z</time></trkpt><trkpt lat="43.743739" lon="11.5874483"><ele>1211.0</ele><time>2026-05-03T11:11:00.151Z</time></trkpt><trkpt lat="43.7437382" lon="11.5876353"><ele>1211.0</ele><time>2026-05-03T11:11:01.149Z</time></trkpt><trkpt lat="43.7437388" lon="11.5878103"><ele>1211.0</ele><time>2026-05-03T11:11:02.151Z</time></trkpt><trkpt lat="43.7437435" lon="11.5879761"><ele>1211.0</ele><time>2026-05-03T11:11:03.149Z</time></trkpt><trkpt lat="43.74377" lon="11.5881317"><ele>1211.0</ele><time>2026-05-03T11:11:04.151Z</time></trkpt><trkpt lat="43.7438339" lon="11.5882568"><ele>1209.0</ele><time>2026-05-03T11:11:05.15Z</time></trkpt><trkpt lat="43.7439174" lon="11.5883493"><ele>1207.0</ele><time>2026-05-03T11:11:06.15Z</time></trkpt><trkpt lat="43.7440051" lon="11.5884376"><ele>1205.0</ele><time>2026-05-03T11:11:07.15Z</time></trkpt><trkpt lat="43.7440637" lon="11.5885534"><ele>1203.0</ele><time>2026-05-03T11:11:08.15Z</time></trkpt><trkpt lat="43.7440847" lon="11.5886943"><ele>1201.0</ele><time>2026-05-03T11:11:09.151Z</time></trkpt><trkpt lat="43.7440724" lon="11.5888427"><ele>1200.5</ele><time>2026-05-03T11:11:10.15Z</time></trkpt><trkpt lat="43.7440157" lon="11.588985"><ele>1200.0</ele><time>2026-05-03T11:11:11.151Z</time></trkpt><trkpt lat="43.74394" lon="11.5891251"><ele>1199.5</ele><time>2026-05-03T11:11:12.151Z</time></trkpt><trkpt lat="43.7438402" lon="11.5892399"><ele>1199.0</ele><time>2026-05-03T11:11:13.15Z</time></trkpt><trkpt lat="43.7437309" lon="11.5893386"><ele>1199.0</ele><time>2026-05-03T11:11:14.149Z</time></trkpt><trkpt lat="43.7436175" lon="11.5894014"><ele>1199.0</ele><time>2026-05-03T11:11:15.151Z</time></trkpt><trkpt lat="43.743522" lon="11.5894925"><ele>1199.0</ele><time>2026-05-03T11:11:16.151Z</time></trkpt><trkpt lat="43.7434569" lon="11.5896216"><ele>1199.0</ele><time>2026-05-03T11:11:17.149Z</time></trkpt><trkpt lat="43.7434269" lon="11.5897748"><ele>1197.5</ele><time>2026-05-03T11:11:18.15Z</time></trkpt><trkpt lat="43.743428" lon="11.5899306"><ele>1196.0</ele><time>2026-05-03T11:11:19.149Z</time></trkpt><trkpt lat="43.7434672" lon="11.5900899"><ele>1194.5</ele><time>2026-05-03T11:11:20.15Z</time></trkpt><trkpt lat="43.7435419" lon="11.5902356"><ele>1193.0</ele><time>2026-05-03T11:11:21.15Z</time></trkpt><trkpt lat="43.7436401" lon="11.5903641"><ele>1193.0</ele><time>2026-05-03T11:11:22.151Z</time></trkpt><trkpt lat="43.7437256" lon="11.5904973"><ele>1193.0</ele><time>2026-05-03T11:11:23.149Z</time></trkpt><trkpt lat="43.7437863" lon="11.5906523"><ele>1193.0</ele><time>2026-05-03T11:11:24.15Z</time></trkpt><trkpt lat="43.7438101" lon="11.5908198"><ele>1193.0</ele><time>2026-05-03T11:11:25.149Z</time></trkpt><trkpt lat="43.7437889" lon="11.5909919"><ele>1193.0</ele><time>2026-05-03T11:11:26.151Z</time></trkpt><trkpt lat="43.7437351" lon="11.591159"><ele>1193.0</ele><time>2026-05-03T11:11:27.15Z</time></trkpt><trkpt lat="43.7436588" lon="11.5913096"><ele>1193.0</ele><time>2026-05-03T11:11:28.15Z</time></trkpt><trkpt lat="43.7435759" lon="11.5914566"><ele>1193.0</ele><time>2026-05-03T11:11:29.151Z</time></trkpt><trkpt lat="43.7434961" lon="11.5916029"><ele>1182.25</ele><time>2026-05-03T11:11:30.151Z</time></trkpt><trkpt lat="43.7434215" lon="11.5917428"><ele>1171.5</ele><time>2026-05-03T11:11:31.151Z</time></trkpt><trkpt lat="43.7434095" lon="11.5919174"><ele>1160.75</ele><time>2026-05-03T11:11:32.151Z</time></trkpt><trkpt lat="43.743414" lon="11.5920952"><ele>1150.0</ele><time>2026-05-03T11:11:33.15Z</time></trkpt><trkpt lat="43.7434605" lon="11.5922791"><ele>1148.6666666666665</ele><time>2026-05-03T11:11:34.149Z</time></trkpt><trkpt lat="43.7435284" lon="11.5924633"><ele>1147.3333333333333</ele><time>2026-05-03T11:11:35.151Z</time></trkpt><trkpt lat="43.7436003" lon="11.5926541"><ele>1146.0</ele><time>2026-05-03T11:11:36.151Z</time></trkpt><trkpt lat="43.7436753" lon="11.5928527"><ele>1150.0</ele><time>2026-05-03T11:11:37.151Z</time></trkpt><trkpt lat="43.7437485" lon="11.5930577"><ele>1154.0</ele><time>2026-05-03T11:11:38.15Z</time></trkpt><trkpt lat="43.7438177" lon="11.5932561"><ele>1158.0</ele><time>2026-05-03T11:11:39.151Z</time></trkpt><trkpt lat="43.7438843" lon="11.5934399"><ele>1158.0</ele><time>2026-05-03T11:11:40.15Z</time></trkpt><trkpt lat="43.7439494" lon="11.5936016"><ele>1158.0</ele><time>2026-05-03T11:11:41.15Z</time></trkpt><trkpt lat="43.7440154" lon="11.5937366"><ele>1158.0</ele><time>2026-05-03T11:11:42.151Z</time></trkpt><trkpt lat="43.744142" lon="11.5938009"><ele>1158.0</ele><time>2026-05-03T11:11:43.15Z</time></trkpt><trkpt lat="43.7442368" lon="11.5938637"><ele>1154.25</ele><time>2026-05-03T11:11:44.15Z</time></trkpt><trkpt lat="43.7443456" lon="11.5938664"><ele>1150.5</ele><time>2026-05-03T11:11:45.15Z</time></trkpt><trkpt lat="43.7444891" lon="11.5938206"><ele>1146.75</ele><time>2026-05-03T11:11:46.151Z</time></trkpt><trkpt lat="43.7446094" lon="11.5937687"><ele>1143.0</ele><time>2026-05-03T11:11:47.149Z</time></trkpt><trkpt lat="43.7447286" lon="11.5937572"><ele>1143.0</ele><time>2026-05-03T11:11:48.15Z</time></trkpt><trkpt lat="43.7448382" lon="11.5938565"><ele>1143.0</ele><time>2026-05-03T11:11:49.151Z</time></trkpt><trkpt lat="43.7449136" lon="11.5939524"><ele>1143.0</ele><time>2026-05-03T11:11:50.151Z</time></trkpt><trkpt lat="43.744966" lon="11.5940697"><ele>1143.0</ele><time>2026-05-03T11:11:51.151Z</time></trkpt><trkpt lat="43.7449654" lon="11.5942103"><ele>1143.0</ele><time>2026-05-03T11:11:52.151Z</time></trkpt><trkpt lat="43.7449447" lon="11.5943599"><ele>1142.5</ele><time>2026-05-03T11:11:53.151Z</time></trkpt><trkpt lat="43.7449058" lon="11.5945357"><ele>1142.0</ele><time>2026-05-03T11:11:54.151Z</time></trkpt><trkpt lat="43.7448692" lon="11.5947268"><ele>1141.5</ele><time>2026-05-03T11:11:55.151Z</time></trkpt><trkpt lat="43.7448344" lon="11.5949284"><ele>1141.0</ele><time>2026-05-03T11:11:56.149Z</time></trkpt><trkpt lat="43.7448046" lon="11.5951437"><ele>1139.3333333333333</ele><time>2026-05-03T11:11:57.151Z</time></trkpt><trkpt lat="43.7447787" lon="11.5953718"><ele>1137.6666666666667</ele><time>2026-05-03T11:11:58.15Z</time></trkpt><trkpt lat="43.74474" lon="11.5956036"><ele>1136.0</ele><time>2026-05-03T11:11:59.151Z</time></trkpt><trkpt lat="43.744688" lon="11.5958336"><ele>1136.0</ele><time>2026-05-03T11:12:00.15Z</time></trkpt><trkpt lat="43.7446303" lon="11.5960504"><ele>1136.0</ele><time>2026-05-03T11:12:01.151Z</time></trkpt><trkpt lat="43.7445681" lon="11.5962626"><ele>1136.0</ele><time>2026-05-03T11:12:02.15Z</time></trkpt><trkpt lat="43.7445167" lon="11.5964738"><ele>1133.0</ele><time>2026-05-03T11:12:03.151Z</time></trkpt><trkpt lat="43.7444771" lon="11.5966831"><ele>1130.0</ele><time>2026-05-03T11:12:04.151Z</time></trkpt><trkpt lat="43.7444485" lon="11.5968754"><ele>1127.0</ele><time>2026-05-03T11:12:05.15Z</time></trkpt><trkpt lat="43.7444366" lon="11.5970381"><ele>1124.0</ele><time>2026-05-03T11:12:06.15Z</time></trkpt><trkpt lat="43.7444469" lon="11.5971738"><ele>1120.0</ele><time>2026-05-03T11:12:07.15Z</time></trkpt><trkpt lat="43.7444681" lon="11.5973101"><ele>1116.0</ele><time>2026-05-03T11:12:08.151Z</time></trkpt><trkpt lat="43.7445676" lon="11.5973897"><ele>1112.0</ele><time>2026-05-03T11:12:09.152Z</time></trkpt><trkpt lat="43.7447061" lon="11.5973795"><ele>1108.0</ele><time>2026-05-03T11:12:10.152Z</time></trkpt><trkpt lat="43.7448323" lon="11.5974063"><ele>1108.0</ele><time>2026-05-03T11:12:11.15Z</time></trkpt><trkpt lat="43.7449707" lon="11.5974343"><ele>1108.0</ele><time>2026-05-03T11:12:12.152Z</time></trkpt><trkpt lat="43.7451207" lon="11.5974623"><ele>1108.0</ele><time>2026-05-03T11:12:13.151Z</time></trkpt><trkpt lat="43.7452739" lon="11.597517"><ele>1108.0</ele><time>2026-05-03T11:12:14.152Z</time></trkpt><trkpt lat="43.7454298" lon="11.5975856"><ele>1109.25</ele><time>2026-05-03T11:12:15.151Z</time></trkpt><trkpt lat="43.7455829" lon="11.597666"><ele>1110.5</ele><time>2026-05-03T11:12:16.152Z</time></trkpt><trkpt lat="43.7457188" lon="11.5977502"><ele>1111.75</ele><time>2026-05-03T11:12:17.151Z</time></trkpt><trkpt lat="43.7458337" lon="11.5978491"><ele>1113.0</ele><time>2026-05-03T11:12:18.152Z</time></trkpt><trkpt lat="43.745916" lon="11.5979592"><ele>1110.4</ele><time>2026-05-03T11:12:19.15Z</time></trkpt><trkpt lat="43.7459538" lon="11.5980878"><ele>1107.8</ele><time>2026-05-03T11:12:20.152Z</time></trkpt><trkpt lat="43.7459504" lon="11.5982304"><ele>1105.2</ele><time>2026-05-03T11:12:21.152Z</time></trkpt><trkpt lat="43.7459467" lon="11.5983832"><ele>1102.6</ele><time>2026-05-03T11:12:22.151Z</time></trkpt><trkpt lat="43.7458648" lon="11.5985225"><ele>1100.0</ele><time>2026-05-03T11:12:23.151Z</time></trkpt><trkpt lat="43.7458129" lon="11.5986831"><ele>1100.0</ele><time>2026-05-03T11:12:24.15Z</time></trkpt><trkpt lat="43.7457506" lon="11.5988545"><ele>1100.0</ele><time>2026-05-03T11:12:25.152Z</time></trkpt><trkpt lat="43.7457028" lon="11.5990238"><ele>1100.0</ele><time>2026-05-03T11:12:26.152Z</time></trkpt><trkpt lat="43.7457056" lon="11.5992234"><ele>1100.0</ele><time>2026-05-03T11:12:27.151Z</time></trkpt><trkpt lat="43.7457181" lon="11.5994138"><ele>1100.25</ele><time>2026-05-03T11:12:28.151Z</time></trkpt><trkpt lat="43.7457094" lon="11.5996179"><ele>1100.5</ele><time>2026-05-03T11:12:29.152Z</time></trkpt><trkpt lat="43.7456849" lon="11.5998243"><ele>1100.75</ele><time>2026-05-03T11:12:30.151Z</time></trkpt><trkpt lat="43.7456796" lon="11.6000266"><ele>1101.0</ele><time>2026-05-03T11:12:31.152Z</time></trkpt><trkpt lat="43.7456766" lon="11.6002171"><ele>1101.75</ele><time>2026-05-03T11:12:32.152Z</time></trkpt><trkpt lat="43.7456379" lon="11.6003829"><ele>1102.5</ele><time>2026-05-03T11:12:33.152Z</time></trkpt><trkpt lat="43.7455595" lon="11.6005247"><ele>1103.25</ele><time>2026-05-03T11:12:34.152Z</time></trkpt><trkpt lat="43.7454694" lon="11.6006725"><ele>1104.0</ele><time>2026-05-03T11:12:35.15Z</time></trkpt><trkpt lat="43.7453774" lon="11.6008381"><ele>1104.0</ele><time>2026-05-03T11:12:36.151Z</time></trkpt><trkpt lat="43.7452863" lon="11.6010284"><ele>1104.0</ele><time>2026-05-03T11:12:37.151Z</time></trkpt><trkpt lat="43.7451984" lon="11.6012254"><ele>1104.0</ele><time>2026-05-03T11:12:38.152Z</time></trkpt><trkpt lat="43.745115" lon="11.6014331"><ele>1094.6666666666667</ele><time>2026-05-03T11:12:39.152Z</time></trkpt><trkpt lat="43.745031" lon="11.601629"><ele>1085.3333333333335</ele><time>2026-05-03T11:12:40.151Z</time></trkpt><trkpt lat="43.7449554" lon="11.6018098"><ele>1076.0</ele><time>2026-05-03T11:12:41.151Z</time></trkpt><trkpt lat="43.7448847" lon="11.6019798"><ele>1077.0</ele><time>2026-05-03T11:12:42.152Z</time></trkpt><trkpt lat="43.7448089" lon="11.6021383"><ele>1078.0</ele><time>2026-05-03T11:12:43.151Z</time></trkpt><trkpt lat="43.7447305" lon="11.6022955"><ele>1079.0</ele><time>2026-05-03T11:12:44.152Z</time></trkpt><trkpt lat="43.7446539" lon="11.6024586"><ele>1080.0</ele><time>2026-05-03T11:12:45.152Z</time></trkpt><trkpt lat="43.7445713" lon="11.6026209"><ele>1080.0</ele><time>2026-05-03T11:12:46.151Z</time></trkpt><trkpt lat="43.7444929" lon="11.6027853"><ele>1080.0</ele><time>2026-05-03T11:12:47.151Z</time></trkpt><trkpt lat="43.7444372" lon="11.6029602"><ele>1080.0</ele><time>2026-05-03T11:12:48.152Z</time></trkpt><trkpt lat="43.7443998" lon="11.6031431"><ele>1080.0</ele><time>2026-05-03T11:12:49.152Z</time></trkpt><trkpt lat="43.7443783" lon="11.6033147"><ele>1079.0</ele><time>2026-05-03T11:12:50.151Z</time></trkpt><trkpt lat="43.7443835" lon="11.6034782"><ele>1078.0</ele><time>2026-05-03T11:12:51.152Z</time></trkpt><trkpt lat="43.7444182" lon="11.6036266"><ele>1077.0</ele><time>2026-05-03T11:12:52.152Z</time></trkpt><trkpt lat="43.7444831" lon="11.6037502"><ele>1076.0</ele><time>2026-05-03T11:12:53.151Z</time></trkpt><trkpt lat="43.744552" lon="11.6038754"><ele>1072.5</ele><time>2026-05-03T11:12:54.152Z</time></trkpt><trkpt lat="43.7446899" lon="11.6039323"><ele>1069.0</ele><time>2026-05-03T11:12:55.152Z</time></trkpt><trkpt lat="43.744795" lon="11.6040408"><ele>1065.5</ele><time>2026-05-03T11:12:56.151Z</time></trkpt><trkpt lat="43.7448617" lon="11.6041421"><ele>1062.0</ele><time>2026-05-03T11:12:57.152Z</time></trkpt><trkpt lat="43.7448945" lon="11.6042577"><ele>1062.0</ele><time>2026-05-03T11:12:58.152Z</time></trkpt><trkpt lat="43.7448865" lon="11.6043978"><ele>1062.0</ele><time>2026-05-03T11:12:59.152Z</time></trkpt><trkpt lat="43.7448781" lon="11.6045425"><ele>1062.0</ele><time>2026-05-03T11:13:00.152Z</time></trkpt><trkpt lat="43.7448941" lon="11.6047035"><ele>1062.0</ele><time>2026-05-03T11:13:01.151Z</time></trkpt><trkpt lat="43.7449326" lon="11.6048745"><ele>1058.75</ele><time>2026-05-03T11:13:02.151Z</time></trkpt><trkpt lat="43.744973" lon="11.6050619"><ele>1055.5</ele><time>2026-05-03T11:13:03.151Z</time></trkpt><trkpt lat="43.7450022" lon="11.6052515"><ele>1052.25</ele><time>2026-05-03T11:13:04.152Z</time></trkpt><trkpt lat="43.7450505" lon="11.6054316"><ele>1049.0</ele><time>2026-05-03T11:13:05.152Z</time></trkpt><trkpt lat="43.7451106" lon="11.6055834"><ele>1048.75</ele><time>2026-05-03T11:13:06.151Z</time></trkpt><trkpt lat="43.7451816" lon="11.6057124"><ele>1048.5</ele><time>2026-05-03T11:13:07.15Z</time></trkpt><trkpt lat="43.7452835" lon="11.605808"><ele>1048.25</ele><time>2026-05-03T11:13:08.152Z</time></trkpt><trkpt lat="43.7453784" lon="11.6059079"><ele>1048.0</ele><time>2026-05-03T11:13:09.152Z</time></trkpt><trkpt lat="43.7455249" lon="11.6059446"><ele>1048.0</ele><time>2026-05-03T11:13:10.15Z</time></trkpt><trkpt lat="43.7456365" lon="11.6060255"><ele>1048.0</ele><time>2026-05-03T11:13:11.152Z</time></trkpt><trkpt lat="43.7457329" lon="11.606098"><ele>1048.0</ele><time>2026-05-03T11:13:12.152Z</time></trkpt><trkpt lat="43.7457988" lon="11.6061815"><ele>1048.0</ele><time>2026-05-03T11:13:13.152Z</time></trkpt><trkpt lat="43.7458245" lon="11.6062785"><ele>1048.0</ele><time>2026-05-03T11:13:14.152Z</time></trkpt><trkpt lat="43.7458056" lon="11.6063891"><ele>1046.25</ele><time>2026-05-03T11:13:15.152Z</time></trkpt><trkpt lat="43.7457484" lon="11.6064997"><ele>1044.5</ele><time>2026-05-03T11:13:16.152Z</time></trkpt><trkpt lat="43.7456731" lon="11.6066166"><ele>1042.75</ele><time>2026-05-03T11:13:17.151Z</time></trkpt><trkpt lat="43.745597" lon="11.6067561"><ele>1041.0</ele><time>2026-05-03T11:13:18.152Z</time></trkpt><trkpt lat="43.7455031" lon="11.6068912"><ele>1046.0</ele><time>2026-05-03T11:13:19.151Z</time></trkpt><trkpt lat="43.7453916" lon="11.6070238"><ele>1051.0</ele><time>2026-05-03T11:13:20.152Z</time></trkpt><trkpt lat="43.7452678" lon="11.6071449"><ele>1056.0</ele><time>2026-05-03T11:13:21.152Z</time></trkpt><trkpt lat="43.7451371" lon="11.6072631"><ele>1048.25</ele><time>2026-05-03T11:13:22.152Z</time></trkpt><trkpt lat="43.7450078" lon="11.6073669"><ele>1040.5</ele><time>2026-05-03T11:13:23.15Z</time></trkpt><trkpt lat="43.7448846" lon="11.6074547"><ele>1032.75</ele><time>2026-05-03T11:13:24.151Z</time></trkpt><trkpt lat="43.7447684" lon="11.607529"><ele>1025.0</ele><time>2026-05-03T11:13:25.152Z</time></trkpt><trkpt lat="43.7446533" lon="11.6075833"><ele>1025.0</ele><time>2026-05-03T11:13:26.152Z</time></trkpt><trkpt lat="43.7445426" lon="11.607618"><ele>1025.0</ele><time>2026-05-03T11:13:27.152Z</time></trkpt><trkpt lat="43.744435" lon="11.6076336"><ele>1025.0</ele><time>2026-05-03T11:13:28.151Z</time></trkpt><trkpt lat="43.7443316" lon="11.6076552"><ele>1025.0</ele><time>2026-05-03T11:13:29.152Z</time></trkpt><trkpt lat="43.7442259" lon="11.6077166"><ele>1025.0</ele><time>2026-05-03T11:13:30.151Z</time></trkpt><trkpt lat="43.7441243" lon="11.6078125"><ele>1020.75</ele><time>2026-05-03T11:13:31.151Z</time></trkpt><trkpt lat="43.7440343" lon="11.6079267"><ele>1016.5</ele><time>2026-05-03T11:13:32.151Z</time></trkpt><trkpt lat="43.7439452" lon="11.6080646"><ele>1012.25</ele><time>2026-05-03T11:13:33.152Z</time></trkpt><trkpt lat="43.7438725" lon="11.6082245"><ele>1008.0</ele><time>2026-05-03T11:13:34.152Z</time></trkpt><trkpt lat="43.7438194" lon="11.6084016"><ele>1008.0</ele><time>2026-05-03T11:13:35.152Z</time></trkpt><trkpt lat="43.7437916" lon="11.6085931"><ele>1008.0</ele><time>2026-05-03T11:13:36.151Z</time></trkpt><trkpt lat="43.7437908" lon="11.6087875"><ele>1008.0</ele><time>2026-05-03T11:13:37.151Z</time></trkpt><trkpt lat="43.7438171" lon="11.6089783"><ele>1008.0</ele><time>2026-05-03T11:13:38.152Z</time></trkpt><trkpt lat="43.7438663" lon="11.6091628"><ele>1007.0</ele><time>2026-05-03T11:13:39.152Z</time></trkpt><trkpt lat="43.7439338" lon="11.6093412"><ele>1006.0</ele><time>2026-05-03T11:13:40.151Z</time></trkpt><trkpt lat="43.7439806" lon="11.6095037"><ele>1005.0</ele><time>2026-05-03T11:13:41.151Z</time></trkpt><trkpt lat="43.7440038" lon="11.6096557"><ele>1004.0</ele><time>2026-05-03T11:13:42.151Z</time></trkpt><trkpt lat="43.7439944" lon="11.6097839"><ele>1003.0</ele><time>2026-05-03T11:13:43.151Z</time></trkpt><trkpt lat="43.7439412" lon="11.6098908"><ele>1002.0</ele><time>2026-05-03T11:13:44.15Z</time></trkpt><trkpt lat="43.7438515" lon="11.6099728"><ele>1001.0</ele><time>2026-05-03T11:13:45.151Z</time></trkpt><trkpt lat="43.7437437" lon="11.6100557"><ele>1000.0</ele><time>2026-05-03T11:13:46.151Z</time></trkpt><trkpt lat="43.7436264" lon="11.6101569"><ele>994.3333333333333</ele><time>2026-05-03T11:13:47.151Z</time></trkpt><trkpt lat="43.7435023" lon="11.610276"><ele>988.6666666666667</ele><time>2026-05-03T11:13:48.152Z</time></trkpt><trkpt lat="43.7433771" lon="11.6103981"><ele>983.0</ele><time>2026-05-03T11:13:49.151Z</time></trkpt><trkpt lat="43.743251" lon="11.6105179"><ele>983.0</ele><time>2026-05-03T11:13:50.149Z</time></trkpt><trkpt lat="43.7431428" lon="11.6106641"><ele>983.0</ele><time>2026-05-03T11:13:51.15Z</time></trkpt><trkpt lat="43.7430163" lon="11.6108115"><ele>983.0</ele><time>2026-05-03T11:13:52.15Z</time></trkpt><trkpt lat="43.7429004" lon="11.6109749"><ele>983.0</ele><time>2026-05-03T11:13:53.15Z</time></trkpt><trkpt lat="43.742862" lon="11.6112054"><ele>983.0</ele><time>2026-05-03T11:13:54.15Z</time></trkpt><trkpt lat="43.7427877" lon="11.611407"><ele>983.0</ele><time>2026-05-03T11:13:55.15Z</time></trkpt><trkpt lat="43.7427231" lon="11.6116123"><ele>970.3333333333334</ele><time>2026-05-03T11:13:56.149Z</time></trkpt><trkpt lat="43.7426684" lon="11.6118221"><ele>957.6666666666667</ele><time>2026-05-03T11:13:57.149Z</time></trkpt><trkpt lat="43.7426196" lon="11.6120319"><ele>945.0</ele><time>2026-05-03T11:13:58.151Z</time></trkpt><trkpt lat="43.7425844" lon="11.6122478"><ele>944.75</ele><time>2026-05-03T11:13:59.151Z</time></trkpt><trkpt lat="43.7425669" lon="11.6124623"><ele>944.5</ele><time>2026-05-03T11:14:00.15Z</time></trkpt><trkpt lat="43.7425642" lon="11.6126415"><ele>944.25</ele><time>2026-05-03T11:14:01.15Z</time></trkpt><trkpt lat="43.7425892" lon="11.6128129"><ele>944.0</ele><time>2026-05-03T11:14:02.151Z</time></trkpt><trkpt lat="43.7426465" lon="11.6129622"><ele>946.0</ele><time>2026-05-03T11:14:03.151Z</time></trkpt><trkpt lat="43.7427338" lon="11.6130888"><ele>948.0</ele><time>2026-05-03T11:14:04.151Z</time></trkpt><trkpt lat="43.7428392" lon="11.6132011"><ele>950.0</ele><time>2026-05-03T11:14:05.151Z</time></trkpt><trkpt lat="43.7429606" lon="11.6132951"><ele>952.0</ele><time>2026-05-03T11:14:06.151Z</time></trkpt><trkpt lat="43.743084" lon="11.6133742"><ele>952.0</ele><time>2026-05-03T11:14:07.151Z</time></trkpt><trkpt lat="43.7432097" lon="11.6134488"><ele>952.0</ele><time>2026-05-03T11:14:08.15Z</time></trkpt><trkpt lat="43.7433352" lon="11.6135292"><ele>952.0</ele><time>2026-05-03T11:14:09.151Z</time></trkpt><trkpt lat="43.7434619" lon="11.6136295"><ele>952.0</ele><time>2026-05-03T11:14:10.15Z</time></trkpt><trkpt lat="43.7435814" lon="11.6137473"><ele>952.0</ele><time>2026-05-03T11:14:11.15Z</time></trkpt><trkpt lat="43.7436981" lon="11.6138632"><ele>952.0</ele><time>2026-05-03T11:14:12.15Z</time></trkpt><trkpt lat="43.7438077" lon="11.6139742"><ele>952.0</ele><time>2026-05-03T11:14:13.15Z</time></trkpt><trkpt lat="43.7439107" lon="11.6140954"><ele>952.0</ele><time>2026-05-03T11:14:14.151Z</time></trkpt><trkpt lat="43.7440021" lon="11.614235"><ele>952.0</ele><time>2026-05-03T11:14:15.151Z</time></trkpt><trkpt lat="43.7440801" lon="11.6143898"><ele>952.0</ele><time>2026-05-03T11:14:16.149Z</time></trkpt><trkpt lat="43.7441495" lon="11.6145481"><ele>952.0</ele><time>2026-05-03T11:14:17.151Z</time></trkpt><trkpt lat="43.7442125" lon="11.6147134"><ele>952.0</ele><time>2026-05-03T11:14:18.151Z</time></trkpt><trkpt lat="43.7442547" lon="11.6148899"><ele>948.5</ele><time>2026-05-03T11:14:19.151Z</time></trkpt><trkpt lat="43.7442608" lon="11.6150781"><ele>945.0</ele><time>2026-05-03T11:14:20.151Z</time></trkpt><trkpt lat="43.7442403" lon="11.6152689"><ele>941.5</ele><time>2026-05-03T11:14:21.149Z</time></trkpt><trkpt lat="43.7442185" lon="11.6154513"><ele>938.0</ele><time>2026-05-03T11:14:22.151Z</time></trkpt><trkpt lat="43.7442269" lon="11.6156385"><ele>936.5</ele><time>2026-05-03T11:14:23.15Z</time></trkpt><trkpt lat="43.7442724" lon="11.6158226"><ele>935.0</ele><time>2026-05-03T11:14:24.151Z</time></trkpt><trkpt lat="43.744321" lon="11.6160052"><ele>933.5</ele><time>2026-05-03T11:14:25.151Z</time></trkpt><trkpt lat="43.744353" lon="11.6161933"><ele>932.0</ele><time>2026-05-03T11:14:26.151Z</time></trkpt><trkpt lat="43.7443591" lon="11.6163838"><ele>929.5</ele><time>2026-05-03T11:14:27.151Z</time></trkpt><trkpt lat="43.7443477" lon="11.616573"><ele>927.0</ele><time>2026-05-03T11:14:28.15Z</time></trkpt><trkpt lat="43.7443322" lon="11.6167668"><ele>924.5</ele><time>2026-05-03T11:14:29.15Z</time></trkpt><trkpt lat="43.7443233" lon="11.6169703"><ele>922.0</ele><time>2026-05-03T11:14:30.151Z</time></trkpt><trkpt lat="43.7443203" lon="11.6171763"><ele>920.0</ele><time>2026-05-03T11:14:31.151Z</time></trkpt><trkpt lat="43.7443153" lon="11.6173747"><ele>918.0</ele><time>2026-05-03T11:14:32.151Z</time></trkpt><trkpt lat="43.7443075" lon="11.6175654"><ele>916.0</ele><time>2026-05-03T11:14:33.15Z</time></trkpt><trkpt lat="43.7443032" lon="11.6177555"><ele>914.0</ele><time>2026-05-03T11:14:34.151Z</time></trkpt><trkpt lat="43.7443122" lon="11.6179434"><ele>911.5</ele><time>2026-05-03T11:14:35.151Z</time></trkpt><trkpt lat="43.7443434" lon="11.6181271"><ele>909.0</ele><time>2026-05-03T11:14:36.151Z</time></trkpt><trkpt lat="43.7443724" lon="11.618309"><ele>906.5</ele><time>2026-05-03T11:14:37.151Z</time></trkpt><trkpt lat="43.7443894" lon="11.6184923"><ele>904.0</ele><time>2026-05-03T11:14:38.15Z</time></trkpt><trkpt lat="43.7443955" lon="11.6186774"><ele>910.0</ele><time>2026-05-03T11:14:39.15Z</time></trkpt><trkpt lat="43.7443931" lon="11.6188562"><ele>916.0</ele><time>2026-05-03T11:14:40.151Z</time></trkpt><trkpt lat="43.744408" lon="11.6190299"><ele>922.0</ele><time>2026-05-03T11:14:41.151Z</time></trkpt><trkpt lat="43.7444406" lon="11.6191957"><ele>928.0</ele><time>2026-05-03T11:14:42.151Z</time></trkpt><trkpt lat="43.7444779" lon="11.6193556"><ele>924.5</ele><time>2026-05-03T11:14:43.15Z</time></trkpt><trkpt lat="43.7445237" lon="11.6195064"><ele>921.0</ele><time>2026-05-03T11:14:44.149Z</time></trkpt><trkpt lat="43.7445818" lon="11.6196479"><ele>917.5</ele><time>2026-05-03T11:14:45.151Z</time></trkpt><trkpt lat="43.7446392" lon="11.6197832"><ele>914.0</ele><time>2026-05-03T11:14:46.15Z</time></trkpt><trkpt lat="43.7446921" lon="11.6199087"><ele>914.0</ele><time>2026-05-03T11:14:47.15Z</time></trkpt><trkpt lat="43.7447303" lon="11.6200378"><ele>914.0000000000001</ele><time>2026-05-03T11:14:48.151Z</time></trkpt><trkpt lat="43.7447571" lon="11.620187"><ele>914.0000000000001</ele><time>2026-05-03T11:14:49.151Z</time></trkpt><trkpt lat="43.7447757" lon="11.6203352"><ele>914.0</ele><time>2026-05-03T11:14:50.15Z</time></trkpt><trkpt lat="43.7447744" lon="11.6204655"><ele>914.0</ele><time>2026-05-03T11:14:51.151Z</time></trkpt><trkpt lat="43.7447529" lon="11.6205813"><ele>911.8333333333334</ele><time>2026-05-03T11:14:52.151Z</time></trkpt><trkpt lat="43.7447015" lon="11.6206656"><ele>909.6666666666667</ele><time>2026-05-03T11:14:53.151Z</time></trkpt><trkpt lat="43.7446329" lon="11.6206983"><ele>907.5</ele><time>2026-05-03T11:14:54.149Z</time></trkpt><trkpt lat="43.7445531" lon="11.6206701"><ele>905.3333333333333</ele><time>2026-05-03T11:14:55.151Z</time></trkpt><trkpt lat="43.7444726" lon="11.6205939"><ele>903.1666666666666</ele><time>2026-05-03T11:14:56.151Z</time></trkpt><trkpt lat="43.7443924" lon="11.6204808"><ele>901.0</ele><time>2026-05-03T11:14:57.151Z</time></trkpt><trkpt lat="43.7443093" lon="11.6203451"><ele>897.25</ele><time>2026-05-03T11:14:58.15Z</time></trkpt><trkpt lat="43.7442266" lon="11.6201993"><ele>893.5</ele><time>2026-05-03T11:14:59.15Z</time></trkpt><trkpt lat="43.7441454" lon="11.6200563"><ele>889.75</ele><time>2026-05-03T11:15:00.15Z</time></trkpt><trkpt lat="43.7440605" lon="11.6199157"><ele>886.0</ele><time>2026-05-03T11:15:01.151Z</time></trkpt><trkpt lat="43.7439769" lon="11.61978"><ele>886.0</ele><time>2026-05-03T11:15:02.151Z</time></trkpt><trkpt lat="43.7438954" lon="11.6196444"><ele>886.0</ele><time>2026-05-03T11:15:03.149Z</time></trkpt><trkpt lat="43.7438197" lon="11.6195007"><ele>886.0</ele><time>2026-05-03T11:15:04.15Z</time></trkpt><trkpt lat="43.7437607" lon="11.6193497"><ele>886.0</ele><time>2026-05-03T11:15:05.149Z</time></trkpt><trkpt lat="43.7437267" lon="11.6191883"><ele>888.1999999999999</ele><time>2026-05-03T11:15:06.151Z</time></trkpt><trkpt lat="43.7436916" lon="11.6190426"><ele>890.3999999999999</ele><time>2026-05-03T11:15:07.15Z</time></trkpt><trkpt lat="43.743626" lon="11.6189184"><ele>892.6</ele><time>2026-05-03T11:15:08.151Z</time></trkpt><trkpt lat="43.7435356" lon="11.6188372"><ele>894.8</ele><time>2026-05-03T11:15:09.151Z</time></trkpt><trkpt lat="43.7434449" lon="11.6187834"><ele>897.0</ele><time>2026-05-03T11:15:10.151Z</time></trkpt><trkpt lat="43.7433556" lon="11.6187347"><ele>894.0</ele><time>2026-05-03T11:15:11.151Z</time></trkpt><trkpt lat="43.7432691" lon="11.6186791"><ele>891.0</ele><time>2026-05-03T11:15:12.15Z</time></trkpt><trkpt lat="43.7431783" lon="11.618605"><ele>888.0</ele><time>2026-05-03T11:15:13.151Z</time></trkpt><trkpt lat="43.7430827" lon="11.6185196"><ele>885.0</ele><time>2026-05-03T11:15:14.151Z</time></trkpt><trkpt lat="43.7429835" lon="11.6184372"><ele>882.0</ele><time>2026-05-03T11:15:15.151Z</time></trkpt><trkpt lat="43.7428834" lon="11.6183645"><ele>882.0</ele><time>2026-05-03T11:15:16.151Z</time></trkpt><trkpt lat="43.7427849" lon="11.6182917"><ele>882.0</ele><time>2026-05-03T11:15:17.15Z</time></trkpt><trkpt lat="43.7426893" lon="11.6182229"><ele>882.0</ele><time>2026-05-03T11:15:18.151Z</time></trkpt><trkpt lat="43.7426067" lon="11.6181708"><ele>882.0</ele><time>2026-05-03T11:15:19.15Z</time></trkpt><trkpt lat="43.7425294" lon="11.6181536"><ele>882.0</ele><time>2026-05-03T11:15:20.151Z</time></trkpt><trkpt lat="43.7424601" lon="11.6181837"><ele>879.0</ele><time>2026-05-03T11:15:21.151Z</time></trkpt><trkpt lat="43.7424081" lon="11.6182581"><ele>876.0</ele><time>2026-05-03T11:15:22.151Z</time></trkpt><trkpt lat="43.7423834" lon="11.6183684"><ele>873.0</ele><time>2026-05-03T11:15:23.15Z</time></trkpt><trkpt lat="43.7423934" lon="11.6184885"><ele>870.0</ele><time>2026-05-03T11:15:24.15Z</time></trkpt><trkpt lat="43.7424375" lon="11.6186159"><ele>867.0</ele><time>2026-05-03T11:15:25.15Z</time></trkpt><trkpt lat="43.7425063" lon="11.6187379"><ele>868.0</ele><time>2026-05-03T11:15:26.151Z</time></trkpt><trkpt lat="43.7425867" lon="11.6188527"><ele>869.0</ele><time>2026-05-03T11:15:27.151Z</time></trkpt><trkpt lat="43.7426758" lon="11.6189725"><ele>870.0</ele><time>2026-05-03T11:15:28.149Z</time></trkpt><trkpt lat="43.7427568" lon="11.619092"><ele>871.0</ele><time>2026-05-03T11:15:29.15Z</time></trkpt><trkpt lat="43.7428327" lon="11.6192091"><ele>871.0</ele><time>2026-05-03T11:15:30.151Z</time></trkpt><trkpt lat="43.7429304" lon="11.6193001"><ele>871.0</ele><time>2026-05-03T11:15:31.151Z</time></trkpt><trkpt lat="43.7430485" lon="11.6193581"><ele>871.0</ele><time>2026-05-03T11:15:32.15Z</time></trkpt><trkpt lat="43.7431739" lon="11.6194078"><ele>871.0</ele><time>2026-05-03T11:15:33.151Z</time></trkpt><trkpt lat="43.7432854" lon="11.6194682"><ele>868.5999999999999</ele><time>2026-05-03T11:15:34.151Z</time></trkpt><trkpt lat="43.7433691" lon="11.6195606"><ele>866.1999999999999</ele><time>2026-05-03T11:15:35.151Z</time></trkpt><trkpt lat="43.7434244" lon="11.6196811"><ele>863.8000000000001</ele><time>2026-05-03T11:15:36.151Z</time></trkpt><trkpt lat="43.7434501" lon="11.6198354"><ele>861.4000000000001</ele><time>2026-05-03T11:15:37.151Z</time></trkpt><trkpt lat="43.7434577" lon="11.620006"><ele>859.0</ele><time>2026-05-03T11:15:38.15Z</time></trkpt><trkpt lat="43.7434634" lon="11.6201894"><ele>856.6</ele><time>2026-05-03T11:15:39.151Z</time></trkpt><trkpt lat="43.7434937" lon="11.6203511"><ele>854.2</ele><time>2026-05-03T11:15:40.151Z</time></trkpt><trkpt lat="43.7435348" lon="11.6205043"><ele>851.8000000000001</ele><time>2026-05-03T11:15:41.151Z</time></trkpt><trkpt lat="43.7435647" lon="11.6206472"><ele>849.4000000000001</ele><time>2026-05-03T11:15:42.15Z</time></trkpt><trkpt lat="43.7435677" lon="11.6207868"><ele>847.0</ele><time>2026-05-03T11:15:43.151Z</time></trkpt><trkpt lat="43.7435356" lon="11.6209089"><ele>847.0</ele><time>2026-05-03T11:15:44.151Z</time></trkpt><trkpt lat="43.7434708" lon="11.621003"><ele>847.0</ele><time>2026-05-03T11:15:45.15Z</time></trkpt><trkpt lat="43.7433939" lon="11.6210828"><ele>847.0</ele><time>2026-05-03T11:15:46.151Z</time></trkpt><trkpt lat="43.7433267" lon="11.6211561"><ele>847.0</ele><time>2026-05-03T11:15:47.151Z</time></trkpt><trkpt lat="43.7432609" lon="11.6212414"><ele>847.0</ele><time>2026-05-03T11:15:48.151Z</time></trkpt><trkpt lat="43.7432095" lon="11.6213407"><ele>846.6666666666666</ele><time>2026-05-03T11:15:49.151Z</time></trkpt><trkpt lat="43.743173" lon="11.6214513"><ele>846.3333333333333</ele><time>2026-05-03T11:15:50.149Z</time></trkpt><trkpt lat="43.7431463" lon="11.6215706"><ele>846.0</ele><time>2026-05-03T11:15:51.15Z</time></trkpt><trkpt lat="43.7431216" lon="11.6216917"><ele>845.6666666666667</ele><time>2026-05-03T11:15:52.151Z</time></trkpt><trkpt lat="43.743127" lon="11.6218163"><ele>845.3333333333334</ele><time>2026-05-03T11:15:53.15Z</time></trkpt><trkpt lat="43.7431714" lon="11.6219174"><ele>845.0</ele><time>2026-05-03T11:15:54.15Z</time></trkpt><trkpt lat="43.7432472" lon="11.6219888"><ele>847.3333333333334</ele><time>2026-05-03T11:15:55.151Z</time></trkpt><trkpt lat="43.7433394" lon="11.62204"><ele>849.6666666666667</ele><time>2026-05-03T11:15:56.151Z</time></trkpt><trkpt lat="43.7434312" lon="11.6221"><ele>852.0</ele><time>2026-05-03T11:15:57.151Z</time></trkpt><trkpt lat="43.7435041" lon="11.6221769"><ele>854.3333333333333</ele><time>2026-05-03T11:15:58.151Z</time></trkpt><trkpt lat="43.7435615" lon="11.6222545"><ele>856.6666666666666</ele><time>2026-05-03T11:15:59.15Z</time></trkpt><trkpt lat="43.7436103" lon="11.6223239"><ele>859.0</ele><time>2026-05-03T11:16:00.15Z</time></trkpt><trkpt lat="43.7436707" lon="11.6224362"><ele>859.0</ele><time>2026-05-03T11:16:02.15Z</time></trkpt><trkpt lat="43.7436928" lon="11.6226003"><ele>859.0000000000001</ele><time>2026-05-03T11:16:04.151Z</time></trkpt><trkpt lat="43.7437012" lon="11.622716"><ele>859.0000000000001</ele><time>2026-05-03T11:16:05.15Z</time></trkpt><trkpt lat="43.7437175" lon="11.6228527"><ele>859.0</ele><time>2026-05-03T11:16:06.151Z</time></trkpt><trkpt lat="43.7437384" lon="11.6230037"><ele>859.0</ele><time>2026-05-03T11:16:07.151Z</time></trkpt><trkpt lat="43.7437695" lon="11.6231656"><ele>856.75</ele><time>2026-05-03T11:16:08.151Z</time></trkpt><trkpt lat="43.7438044" lon="11.6233352"><ele>854.5</ele><time>2026-05-03T11:16:09.15Z</time></trkpt><trkpt lat="43.7438407" lon="11.6235093"><ele>852.25</ele><time>2026-05-03T11:16:10.151Z</time></trkpt><trkpt lat="43.743888" lon="11.623677"><ele>850.0</ele><time>2026-05-03T11:16:11.15Z</time></trkpt><trkpt lat="43.7439476" lon="11.6238268"><ele>845.5</ele><time>2026-05-03T11:16:12.151Z</time></trkpt><trkpt lat="43.7440289" lon="11.6239544"><ele>841.0</ele><time>2026-05-03T11:16:13.149Z</time></trkpt><trkpt lat="43.7441308" lon="11.624059"><ele>836.5</ele><time>2026-05-03T11:16:14.151Z</time></trkpt><trkpt lat="43.7442293" lon="11.6241662"><ele>832.0</ele><time>2026-05-03T11:16:15.151Z</time></trkpt><trkpt lat="43.7443183" lon="11.6242934"><ele>834.5</ele><time>2026-05-03T11:16:16.151Z</time></trkpt><trkpt lat="43.7443895" lon="11.6244346"><ele>837.0</ele><time>2026-05-03T11:16:17.15Z</time></trkpt><trkpt lat="43.7444439" lon="11.6245808"><ele>839.5</ele><time>2026-05-03T11:16:18.151Z</time></trkpt><trkpt lat="43.7444778" lon="11.624733"><ele>842.0</ele><time>2026-05-03T11:16:19.15Z</time></trkpt><trkpt lat="43.7444905" lon="11.6248873"><ele>842.0</ele><time>2026-05-03T11:16:20.15Z</time></trkpt><trkpt lat="43.7444754" lon="11.6250389"><ele>842.0</ele><time>2026-05-03T11:16:21.151Z</time></trkpt><trkpt lat="43.7444301" lon="11.6251864"><ele>842.0</ele><time>2026-05-03T11:16:22.151Z</time></trkpt><trkpt lat="43.7443617" lon="11.6253317"><ele>842.0</ele><time>2026-05-03T11:16:23.15Z</time></trkpt><trkpt lat="43.7442934" lon="11.6254833"><ele>835.5</ele><time>2026-05-03T11:16:24.151Z</time></trkpt><trkpt lat="43.7442287" lon="11.6256346"><ele>829.0</ele><time>2026-05-03T11:16:25.149Z</time></trkpt><trkpt lat="43.7441653" lon="11.6257813"><ele>822.5</ele><time>2026-05-03T11:16:26.151Z</time></trkpt><trkpt lat="43.7440997" lon="11.6259258"><ele>816.0</ele><time>2026-05-03T11:16:27.151Z</time></trkpt><trkpt lat="43.7440381" lon="11.6260733"><ele>815.4</ele><time>2026-05-03T11:16:28.15Z</time></trkpt><trkpt lat="43.7439768" lon="11.6262222"><ele>814.8</ele><time>2026-05-03T11:16:29.15Z</time></trkpt><trkpt lat="43.7439178" lon="11.626367"><ele>814.1999999999999</ele><time>2026-05-03T11:16:30.151Z</time></trkpt><trkpt lat="43.7438635" lon="11.6264942"><ele>813.5999999999999</ele><time>2026-05-03T11:16:31.151Z</time></trkpt><trkpt lat="43.7438178" lon="11.6266025"><ele>813.0</ele><time>2026-05-03T11:16:32.15Z</time></trkpt><trkpt lat="43.7437819" lon="11.6266929"><ele>813.0</ele><time>2026-05-03T11:16:33.15Z</time></trkpt><trkpt lat="43.743728" lon="11.6268192"><ele>813.0</ele><time>2026-05-03T11:16:35.151Z</time></trkpt><trkpt lat="43.7436916" lon="11.6269329"><ele>813.0</ele><time>2026-05-03T11:16:38.151Z</time></trkpt><trkpt lat="43.7437488" lon="11.6270444"><ele>813.0</ele><time>2026-05-03T11:16:41.151Z</time></trkpt><trkpt lat="43.7438476" lon="11.6271395"><ele>813.0</ele><time>2026-05-03T11:16:43.15Z</time></trkpt><trkpt lat="43.7439088" lon="11.6272001"><ele>811.3333333333334</ele><time>2026-05-03T11:16:44.151Z</time></trkpt><trkpt lat="43.7439748" lon="11.6272611"><ele>809.6666666666667</ele><time>2026-05-03T11:16:45.151Z</time></trkpt><trkpt lat="43.7440445" lon="11.6273178"><ele>808.0</ele><time>2026-05-03T11:16:46.151Z</time></trkpt><trkpt lat="43.7441229" lon="11.6273688"><ele>806.3333333333334</ele><time>2026-05-03T11:16:47.149Z</time></trkpt><trkpt lat="43.7442155" lon="11.6274013"><ele>804.6666666666667</ele><time>2026-05-03T11:16:48.151Z</time></trkpt><trkpt lat="43.7443158" lon="11.6274104"><ele>803.0</ele><time>2026-05-03T11:16:49.151Z</time></trkpt><trkpt lat="43.7444174" lon="11.6273874"><ele>801.2</ele><time>2026-05-03T11:16:50.151Z</time></trkpt><trkpt lat="43.7445199" lon="11.627347"><ele>799.4</ele><time>2026-05-03T11:16:51.151Z</time></trkpt><trkpt lat="43.7446243" lon="11.6273012"><ele>797.6</ele><time>2026-05-03T11:16:52.15Z</time></trkpt><trkpt lat="43.744732" lon="11.6272616"><ele>795.8000000000001</ele><time>2026-05-03T11:16:53.151Z</time></trkpt><trkpt lat="43.7448491" lon="11.6272194"><ele>794.0</ele><time>2026-05-03T11:16:54.151Z</time></trkpt><trkpt lat="43.7449721" lon="11.627178"><ele>794.0</ele><time>2026-05-03T11:16:55.151Z</time></trkpt><trkpt lat="43.7450997" lon="11.627139"><ele>794.0</ele><time>2026-05-03T11:16:56.151Z</time></trkpt><trkpt lat="43.7452309" lon="11.6271102"><ele>794.0</ele><time>2026-05-03T11:16:57.151Z</time></trkpt><trkpt lat="43.7453665" lon="11.627106"><ele>794.0</ele><time>2026-05-03T11:16:58.15Z</time></trkpt><trkpt lat="43.7455034" lon="11.6271312"><ele>793.5</ele><time>2026-05-03T11:16:59.15Z</time></trkpt><trkpt lat="43.7456364" lon="11.6271834"><ele>793.0</ele><time>2026-05-03T11:17:00.151Z</time></trkpt><trkpt lat="43.7457605" lon="11.6272632"><ele>792.5</ele><time>2026-05-03T11:17:01.15Z</time></trkpt><trkpt lat="43.7458764" lon="11.6273607"><ele>792.0</ele><time>2026-05-03T11:17:02.15Z</time></trkpt><trkpt lat="43.7459908" lon="11.6274508"><ele>791.6</ele><time>2026-05-03T11:17:03.15Z</time></trkpt><trkpt lat="43.7460975" lon="11.6275157"><ele>791.2</ele><time>2026-05-03T11:17:04.151Z</time></trkpt><trkpt lat="43.7461977" lon="11.6275765"><ele>790.8</ele><time>2026-05-03T11:17:05.15Z</time></trkpt><trkpt lat="43.7463024" lon="11.6276031"><ele>790.4</ele><time>2026-05-03T11:17:06.149Z</time></trkpt><trkpt lat="43.7463946" lon="11.6275969"><ele>790.0</ele><time>2026-05-03T11:17:07.151Z</time></trkpt><trkpt lat="43.7464658" lon="11.6274005"><ele>790.0</ele><time>2026-05-03T11:17:08.15Z</time></trkpt><trkpt lat="43.7465251" lon="11.6273059"><ele>790.0</ele><time>2026-05-03T11:17:09.15Z</time></trkpt><trkpt lat="43.746564" lon="11.6271724"><ele>790.0</ele><time>2026-05-03T11:17:10.151Z</time></trkpt><trkpt lat="43.7465972" lon="11.6270343"><ele>790.0</ele><time>2026-05-03T11:17:11.151Z</time></trkpt><trkpt lat="43.7466275" lon="11.6268847"><ele>790.0</ele><time>2026-05-03T11:17:12.149Z</time></trkpt><trkpt lat="43.7466817" lon="11.6267431"><ele>789.5</ele><time>2026-05-03T11:17:13.15Z</time></trkpt><trkpt lat="43.7467694" lon="11.6266286"><ele>789.0</ele><time>2026-05-03T11:17:14.151Z</time></trkpt><trkpt lat="43.7468726" lon="11.6265357"><ele>788.5</ele><time>2026-05-03T11:17:15.151Z</time></trkpt><trkpt lat="43.7469837" lon="11.6264585"><ele>788.0</ele><time>2026-05-03T11:17:16.15Z</time></trkpt><trkpt lat="43.7470964" lon="11.6263826"><ele>788.0</ele><time>2026-05-03T11:17:17.15Z</time></trkpt><trkpt lat="43.7472111" lon="11.6263159"><ele>788.0</ele><time>2026-05-03T11:17:18.15Z</time></trkpt><trkpt lat="43.7473293" lon="11.6262466"><ele>788.0</ele><time>2026-05-03T11:17:19.151Z</time></trkpt><trkpt lat="43.7474462" lon="11.6261805"><ele>788.0</ele><time>2026-05-03T11:17:20.15Z</time></trkpt><trkpt lat="43.747563" lon="11.6261126"><ele>787.5</ele><time>2026-05-03T11:17:21.15Z</time></trkpt><trkpt lat="43.747668" lon="11.6260255"><ele>787.0</ele><time>2026-05-03T11:17:22.151Z</time></trkpt><trkpt lat="43.7477665" lon="11.6259221"><ele>786.5</ele><time>2026-05-03T11:17:23.151Z</time></trkpt><trkpt lat="43.7478524" lon="11.6258003"><ele>786.0</ele><time>2026-05-03T11:17:24.15Z</time></trkpt><trkpt lat="43.747918" lon="11.6256577"><ele>786.0</ele><time>2026-05-03T11:17:25.151Z</time></trkpt><trkpt lat="43.7479645" lon="11.6255037"><ele>786.0</ele><time>2026-05-03T11:17:26.151Z</time></trkpt><trkpt lat="43.747987" lon="11.6253353"><ele>786.0</ele><time>2026-05-03T11:17:27.151Z</time></trkpt><trkpt lat="43.7480017" lon="11.6251603"><ele>786.0</ele><time>2026-05-03T11:17:28.15Z</time></trkpt><trkpt lat="43.7480182" lon="11.6249844"><ele>787.0</ele><time>2026-05-03T11:17:29.149Z</time></trkpt><trkpt lat="43.7480457" lon="11.6248069"><ele>788.0</ele><time>2026-05-03T11:17:30.15Z</time></trkpt><trkpt lat="43.7480841" lon="11.6246313"><ele>789.0</ele><time>2026-05-03T11:17:31.151Z</time></trkpt><trkpt lat="43.7481341" lon="11.6244563"><ele>790.0</ele><time>2026-05-03T11:17:32.15Z</time></trkpt><trkpt lat="43.7481869" lon="11.6242805"><ele>793.5</ele><time>2026-05-03T11:17:33.15Z</time></trkpt><trkpt lat="43.7482434" lon="11.6241081"><ele>797.0</ele><time>2026-05-03T11:17:34.151Z</time></trkpt><trkpt lat="43.7483045" lon="11.6239372"><ele>800.5</ele><time>2026-05-03T11:17:35.151Z</time></trkpt><trkpt lat="43.7483743" lon="11.6237718"><ele>804.0</ele><time>2026-05-03T11:17:36.149Z</time></trkpt><trkpt lat="43.7484589" lon="11.623616"><ele>801.5</ele><time>2026-05-03T11:17:37.151Z</time></trkpt><trkpt lat="43.7485538" lon="11.6234704"><ele>799.0</ele><time>2026-05-03T11:17:38.151Z</time></trkpt><trkpt lat="43.7486542" lon="11.6233324"><ele>796.5</ele><time>2026-05-03T11:17:39.151Z</time></trkpt><trkpt lat="43.7487584" lon="11.6231989"><ele>794.0</ele><time>2026-05-03T11:17:40.151Z</time></trkpt><trkpt lat="43.7488616" lon="11.6230632"><ele>794.0</ele><time>2026-05-03T11:17:41.151Z</time></trkpt><trkpt lat="43.748964" lon="11.6229282"><ele>794.0</ele><time>2026-05-03T11:17:42.15Z</time></trkpt><trkpt lat="43.7490647" lon="11.6227895"><ele>794.0</ele><time>2026-05-03T11:17:43.151Z</time></trkpt><trkpt lat="43.7491641" lon="11.6226511"><ele>794.0</ele><time>2026-05-03T11:17:44.151Z</time></trkpt><trkpt lat="43.7492642" lon="11.6225177"><ele>794.5</ele><time>2026-05-03T11:17:45.15Z</time></trkpt><trkpt lat="43.7493752" lon="11.6223978"><ele>795.0</ele><time>2026-05-03T11:17:46.151Z</time></trkpt><trkpt lat="43.7494984" lon="11.6223003"><ele>795.5</ele><time>2026-05-03T11:17:47.15Z</time></trkpt><trkpt lat="43.7496325" lon="11.6222178"><ele>796.0</ele><time>2026-05-03T11:17:48.151Z</time></trkpt><trkpt lat="43.7497761" lon="11.6221485"><ele>796.0</ele><time>2026-05-03T11:17:49.151Z</time></trkpt><trkpt lat="43.7499238" lon="11.6220941"><ele>796.0</ele><time>2026-05-03T11:17:50.15Z</time></trkpt><trkpt lat="43.7500743" lon="11.6220431"><ele>796.0</ele><time>2026-05-03T11:17:51.15Z</time></trkpt><trkpt lat="43.7502253" lon="11.6219949"><ele>800.3333333333333</ele><time>2026-05-03T11:17:52.151Z</time></trkpt><trkpt lat="43.7503779" lon="11.6219433"><ele>804.6666666666667</ele><time>2026-05-03T11:17:53.15Z</time></trkpt><trkpt lat="43.7505316" lon="11.6218856"><ele>809.0</ele><time>2026-05-03T11:17:54.151Z</time></trkpt><trkpt lat="43.7506784" lon="11.6218311"><ele>809.0</ele><time>2026-05-03T11:17:55.15Z</time></trkpt><trkpt lat="43.7508257" lon="11.6217742"><ele>809.0</ele><time>2026-05-03T11:17:56.15Z</time></trkpt><trkpt lat="43.7509705" lon="11.6217165"><ele>809.0</ele><time>2026-05-03T11:17:57.151Z</time></trkpt><trkpt lat="43.7511098" lon="11.6216649"><ele>809.0</ele><time>2026-05-03T11:17:58.151Z</time></trkpt><trkpt lat="43.7512414" lon="11.6216181"><ele>803.75</ele><time>2026-05-03T11:17:59.15Z</time></trkpt><trkpt lat="43.7513672" lon="11.621561"><ele>798.5</ele><time>2026-05-03T11:18:00.15Z</time></trkpt><trkpt lat="43.7514776" lon="11.6214842"><ele>793.25</ele><time>2026-05-03T11:18:01.15Z</time></trkpt><trkpt lat="43.7515728" lon="11.6213915"><ele>788.0</ele><time>2026-05-03T11:18:02.15Z</time></trkpt><trkpt lat="43.7516696" lon="11.6212931"><ele>792.0</ele><time>2026-05-03T11:18:03.151Z</time></trkpt><trkpt lat="43.7517105" lon="11.6211236"><ele>796.0</ele><time>2026-05-03T11:18:04.151Z</time></trkpt><trkpt lat="43.7516491" lon="11.62087"><ele>800.0</ele><time>2026-05-03T11:18:05.149Z</time></trkpt><trkpt lat="43.7517151" lon="11.6207177"><ele>800.0</ele><time>2026-05-03T11:18:06.151Z</time></trkpt><trkpt lat="43.7518007" lon="11.6206035"><ele>800.0</ele><time>2026-05-03T11:18:07.151Z</time></trkpt><trkpt lat="43.7519029" lon="11.6205243"><ele>800.0</ele><time>2026-05-03T11:18:08.151Z</time></trkpt><trkpt lat="43.7520256" lon="11.6204925"><ele>800.0</ele><time>2026-05-03T11:18:09.151Z</time></trkpt><trkpt lat="43.7521586" lon="11.6204721"><ele>800.25</ele><time>2026-05-03T11:18:10.151Z</time></trkpt><trkpt lat="43.752285" lon="11.6204076"><ele>800.5</ele><time>2026-05-03T11:18:11.15Z</time></trkpt><trkpt lat="43.7524107" lon="11.6203065"><ele>800.75</ele><time>2026-05-03T11:18:12.151Z</time></trkpt><trkpt lat="43.7525348" lon="11.6201805"><ele>801.0</ele><time>2026-05-03T11:18:13.151Z</time></trkpt><trkpt lat="43.7526532" lon="11.6200406"><ele>791.0</ele><time>2026-05-03T11:18:14.151Z</time></trkpt><trkpt lat="43.7527732" lon="11.6198992"><ele>781.0</ele><time>2026-05-03T11:18:15.151Z</time></trkpt><trkpt lat="43.7528936" lon="11.6197615"><ele>771.0</ele><time>2026-05-03T11:18:16.15Z</time></trkpt><trkpt lat="43.7530137" lon="11.6196238"><ele>771.0</ele><time>2026-05-03T11:18:17.149Z</time></trkpt><trkpt lat="43.7531299" lon="11.6194927"><ele>771.0</ele><time>2026-05-03T11:18:18.151Z</time></trkpt><trkpt lat="43.7532471" lon="11.6193579"><ele>771.0</ele><time>2026-05-03T11:18:19.15Z</time></trkpt><trkpt lat="43.753362" lon="11.6192201"><ele>767.0</ele><time>2026-05-03T11:18:20.15Z</time></trkpt><trkpt lat="43.7534771" lon="11.6190822"><ele>763.0</ele><time>2026-05-03T11:18:21.151Z</time></trkpt><trkpt lat="43.7535885" lon="11.6189359"><ele>759.0</ele><time>2026-05-03T11:18:22.151Z</time></trkpt><trkpt lat="43.7537027" lon="11.61879"><ele>766.0</ele><time>2026-05-03T11:18:23.15Z</time></trkpt><trkpt lat="43.7538127" lon="11.6186399"><ele>773.0</ele><time>2026-05-03T11:18:24.151Z</time></trkpt><trkpt lat="43.7539225" lon="11.6184843"><ele>780.0</ele><time>2026-05-03T11:18:25.15Z</time></trkpt><trkpt lat="43.754026" lon="11.6183355"><ele>780.0</ele><time>2026-05-03T11:18:26.151Z</time></trkpt><trkpt lat="43.7541304" lon="11.6181919"><ele>780.0</ele><time>2026-05-03T11:18:27.15Z</time></trkpt><trkpt lat="43.7542323" lon="11.6180562"><ele>780.0</ele><time>2026-05-03T11:18:28.149Z</time></trkpt><trkpt lat="43.7543314" lon="11.6179207"><ele>780.0</ele><time>2026-05-03T11:18:29.149Z</time></trkpt><trkpt lat="43.7544289" lon="11.6177872"><ele>775.5</ele><time>2026-05-03T11:18:30.151Z</time></trkpt><trkpt lat="43.7545226" lon="11.6176557"><ele>771.0</ele><time>2026-05-03T11:18:31.151Z</time></trkpt><trkpt lat="43.754612" lon="11.6175232"><ele>766.5</ele><time>2026-05-03T11:18:32.15Z</time></trkpt><trkpt lat="43.7547014" lon="11.6173924"><ele>762.0</ele><time>2026-05-03T11:18:33.15Z</time></trkpt><trkpt lat="43.7547835" lon="11.6172582"><ele>762.0</ele><time>2026-05-03T11:18:34.15Z</time></trkpt><trkpt lat="43.7548508" lon="11.6171103"><ele>762.0</ele><time>2026-05-03T11:18:35.151Z</time></trkpt><trkpt lat="43.754908" lon="11.6169567"><ele>762.0</ele><time>2026-05-03T11:18:36.151Z</time></trkpt><trkpt lat="43.75496" lon="11.616796"><ele>762.0</ele><time>2026-05-03T11:18:37.15Z</time></trkpt><trkpt lat="43.7550116" lon="11.6166327"><ele>760.0</ele><time>2026-05-03T11:18:38.15Z</time></trkpt><trkpt lat="43.7550704" lon="11.6164781"><ele>758.0</ele><time>2026-05-03T11:18:39.151Z</time></trkpt><trkpt lat="43.7551249" lon="11.6163223"><ele>756.0</ele><time>2026-05-03T11:18:40.151Z</time></trkpt><trkpt lat="43.7551783" lon="11.6161788"><ele>754.0</ele><time>2026-05-03T11:18:41.151Z</time></trkpt><trkpt lat="43.7552216" lon="11.6160568"><ele>754.0</ele><time>2026-05-03T11:18:42.15Z</time></trkpt><trkpt lat="43.7552661" lon="11.6159646"><ele>754.0</ele><time>2026-05-03T11:18:43.151Z</time></trkpt><trkpt lat="43.7553493" lon="11.6158934"><ele>754.0</ele><time>2026-05-03T11:18:45.15Z</time></trkpt><trkpt lat="43.75538" lon="11.6160214"><ele>754.0</ele><time>2026-05-03T11:18:48.151Z</time></trkpt><trkpt lat="43.7553699" lon="11.6161728"><ele>754.0</ele><time>2026-05-03T11:18:50.151Z</time></trkpt><trkpt lat="43.7553673" lon="11.6162606"><ele>754.0</ele><time>2026-05-03T11:18:51.151Z</time></trkpt><trkpt lat="43.7553659" lon="11.61635"><ele>752.3333333333334</ele><time>2026-05-03T11:18:52.15Z</time></trkpt><trkpt lat="43.7553595" lon="11.616525"><ele>750.6666666666667</ele><time>2026-05-03T11:18:54.15Z</time></trkpt><trkpt lat="43.7553786" lon="11.6166512"><ele>749.0</ele><time>2026-05-03T11:18:56.15Z</time></trkpt><trkpt lat="43.7554453" lon="11.6166587"><ele>747.3333333333334</ele><time>2026-05-03T11:18:58.151Z</time></trkpt><trkpt lat="43.7554913" lon="11.6165775"><ele>745.6666666666666</ele><time>2026-05-03T11:18:59.151Z</time></trkpt><trkpt lat="43.7555323" lon="11.6165097"><ele>744.0</ele><time>2026-05-03T11:19:00.15Z</time></trkpt><trkpt lat="43.7555819" lon="11.616453"><ele>744.0</ele><time>2026-05-03T11:19:01.149Z</time></trkpt><trkpt lat="43.755634" lon="11.6163878"><ele>744.0</ele><time>2026-05-03T11:19:02.15Z</time></trkpt><trkpt lat="43.7556859" lon="11.6163221"><ele>744.0</ele><time>2026-05-03T11:19:03.15Z</time></trkpt><trkpt lat="43.7557297" lon="11.6162479"><ele>744.0</ele><time>2026-05-03T11:19:04.15Z</time></trkpt><trkpt lat="43.7557709" lon="11.6161711"><ele>744.0</ele><time>2026-05-03T11:19:05.149Z</time></trkpt><trkpt lat="43.7558458" lon="11.6160403"><ele>744.0</ele><time>2026-05-03T11:19:07.151Z</time></trkpt><trkpt lat="43.7559249" lon="11.6159272"><ele>744.8333333333334</ele><time>2026-05-03T11:19:09.15Z</time></trkpt><trkpt lat="43.7559854" lon="11.6159027"><ele>745.6666666666666</ele><time>2026-05-03T11:19:11.151Z</time></trkpt><trkpt lat="43.7560435" lon="11.6159486"><ele>746.5</ele><time>2026-05-03T11:20:06.151Z</time></trkpt><trkpt lat="43.7561149" lon="11.616018"><ele>747.3333333333333</ele><time>2026-05-03T11:20:10.149Z</time></trkpt><trkpt lat="43.7561642" lon="11.6160939"><ele>748.1666666666666</ele><time>2026-05-03T11:20:12.149Z</time></trkpt><trkpt lat="43.7562274" lon="11.6161633"><ele>749.0</ele><time>2026-05-03T11:20:14.15Z</time></trkpt><trkpt lat="43.7562974" lon="11.6162251"><ele>749.0</ele><time>2026-05-03T11:20:16.151Z</time></trkpt><trkpt lat="43.7563578" lon="11.6163141"><ele>749.0</ele><time>2026-05-03T11:20:18.15Z</time></trkpt><trkpt lat="43.7564219" lon="11.6163763"><ele>749.0</ele><time>2026-05-03T11:20:20.15Z</time></trkpt><trkpt lat="43.7565022" lon="11.6163929"><ele>749.0</ele><time>2026-05-03T11:20:23.15Z</time></trkpt><trkpt lat="43.7565553" lon="11.6163051"><ele>749.0</ele><time>2026-05-03T11:22:23.15Z</time></trkpt><trkpt lat="43.7565352" lon="11.6162197"><ele>749.0</ele><time>2026-05-03T11:22:26.15Z</time></trkpt><trkpt lat="43.7566127" lon="11.6161923"><ele>749.0</ele><time>2026-05-03T11:22:29.15Z</time></trkpt><trkpt lat="43.7566983" lon="11.6162388"><ele>749.0</ele><time>2026-05-03T11:22:31.151Z</time></trkpt><trkpt lat="43.7567674" lon="11.6162447"><ele>749.0</ele><time>2026-05-03T11:22:33.151Z</time></trkpt><trkpt lat="43.7567817" lon="11.6161312"><ele>749.0</ele><time>2026-05-03T11:22:49.151Z</time></trkpt><trkpt lat="43.7567126" lon="11.6161032"><ele>749.0</ele><time>2026-05-03T11:22:52.15Z</time></trkpt><trkpt lat="43.7566456" lon="11.6160649"><ele>749.0</ele><time>2026-05-03T11:22:54.151Z</time></trkpt><trkpt lat="43.7565833" lon="11.6160138"><ele>753.1666666666666</ele><time>2026-05-03T11:22:56.149Z</time></trkpt><trkpt lat="43.7565082" lon="11.6159209"><ele>757.3333333333333</ele><time>2026-05-03T11:22:58.15Z</time></trkpt><trkpt lat="43.7564614" lon="11.6158309"><ele>761.5</ele><time>2026-05-03T11:23:00.151Z</time></trkpt><trkpt lat="43.7563941" lon="11.6156902"><ele>765.6666666666666</ele><time>2026-05-03T11:23:02.151Z</time></trkpt><trkpt lat="43.7563709" lon="11.6155961"><ele>769.8333333333334</ele><time>2026-05-03T11:23:03.15Z</time></trkpt><trkpt lat="43.7563467" lon="11.6155073"><ele>774.0</ele><time>2026-05-03T11:23:04.15Z</time></trkpt><trkpt lat="43.7563109" lon="11.6153345"><ele>779.6</ele><time>2026-05-03T11:23:06.151Z</time></trkpt><trkpt lat="43.7562788" lon="11.6151706"><ele>785.2</ele><time>2026-05-03T11:23:08.151Z</time></trkpt><trkpt lat="43.756268" lon="11.6150687"><ele>790.8000000000001</ele><time>2026-05-03T11:23:09.151Z</time></trkpt><trkpt lat="43.7562826" lon="11.6149107"><ele>796.4000000000001</ele><time>2026-05-03T11:23:11.15Z</time></trkpt><trkpt lat="43.7562804" lon="11.6148023"><ele>802.0</ele><time>2026-05-03T11:23:15.151Z</time></trkpt><trkpt lat="43.756283" lon="11.6146904"><ele>802.0</ele><time>2026-05-03T11:23:18.151Z</time></trkpt><trkpt lat="43.7563094" lon="11.6145798"><ele>802.0</ele><time>2026-05-03T11:23:20.149Z</time></trkpt><trkpt lat="43.7563547" lon="11.6144642"><ele>802.0</ele><time>2026-05-03T11:23:24.15Z</time></trkpt><trkpt lat="43.75639" lon="11.6143469"><ele>802.0</ele><time>2026-05-03T11:23:27.15Z</time></trkpt><trkpt lat="43.7563865" lon="11.6142012"><ele>802.0</ele><time>2026-05-03T11:23:35.15Z</time></trkpt><trkpt lat="43.7564237" lon="11.6141105"><ele>806.0</ele><time>2026-05-03T11:23:37.151Z</time></trkpt><trkpt lat="43.7563857" lon="11.6140327"><ele>810.0</ele><time>2026-05-03T11:23:39.15Z</time></trkpt><trkpt lat="43.7562836" lon="11.6139416"><ele>814.0</ele><time>2026-05-03T11:23:41.151Z</time></trkpt><trkpt lat="43.7562185" lon="11.6139114"><ele>818.0</ele><time>2026-05-03T11:23:42.151Z</time></trkpt><trkpt lat="43.7561392" lon="11.613817"><ele>822.0</ele><time>2026-05-03T11:23:44.151Z</time></trkpt><trkpt lat="43.7560803" lon="11.6136982"><ele>817.2</ele><time>2026-05-03T11:23:46.149Z</time></trkpt><trkpt lat="43.7559905" lon="11.6136045"><ele>812.4000000000001</ele><time>2026-05-03T11:23:48.151Z</time></trkpt><trkpt lat="43.755896" lon="11.6135175"><ele>807.5999999999999</ele><time>2026-05-03T11:23:50.15Z</time></trkpt><trkpt lat="43.7558447" lon="11.6134645"><ele>802.8</ele><time>2026-05-03T11:23:51.151Z</time></trkpt><trkpt lat="43.7558302" lon="11.6132992"><ele>798.0</ele><time>2026-05-03T11:23:53.15Z</time></trkpt><trkpt lat="43.7558194" lon="11.6132112"><ele>798.0</ele><time>2026-05-03T11:23:54.151Z</time></trkpt><trkpt lat="43.7558098" lon="11.6131171"><ele>798.0</ele><time>2026-05-03T11:23:55.15Z</time></trkpt><trkpt lat="43.7557982" lon="11.6130222"><ele>798.0</ele><time>2026-05-03T11:23:56.149Z</time></trkpt><trkpt lat="43.7557475" lon="11.612879"><ele>798.0</ele><time>2026-05-03T11:23:58.15Z</time></trkpt><trkpt lat="43.755728" lon="11.6127556"><ele>798.0</ele><time>2026-05-03T11:24:00.151Z</time></trkpt><trkpt lat="43.7557634" lon="11.6126402"><ele>798.0</ele><time>2026-05-03T11:24:02.151Z</time></trkpt><trkpt lat="43.7558148" lon="11.6125411"><ele>799.0</ele><time>2026-05-03T11:24:04.15Z</time></trkpt><trkpt lat="43.7558452" lon="11.6124382"><ele>800.0</ele><time>2026-05-03T11:24:07.15Z</time></trkpt><trkpt lat="43.7558378" lon="11.6123486"><ele>801.0</ele><time>2026-05-03T11:24:15.151Z</time></trkpt><trkpt lat="43.7558291" lon="11.6122344"><ele>802.0</ele><time>2026-05-03T11:24:17.151Z</time></trkpt><trkpt lat="43.7558787" lon="11.6121549"><ele>803.0</ele><time>2026-05-03T11:24:19.151Z</time></trkpt><trkpt lat="43.7559294" lon="11.6120815"><ele>804.0</ele><time>2026-05-03T11:24:22.151Z</time></trkpt><trkpt lat="43.7559989" lon="11.6119815"><ele>810.0</ele><time>2026-05-03T11:24:24.15Z</time></trkpt><trkpt lat="43.7560878" lon="11.6118584"><ele>816.0</ele><time>2026-05-03T11:24:26.15Z</time></trkpt><trkpt lat="43.7561319" lon="11.6117929"><ele>822.0</ele><time>2026-05-03T11:24:27.15Z</time></trkpt><trkpt lat="43.7561558" lon="11.611664"><ele>828.0</ele><time>2026-05-03T11:24:29.15Z</time></trkpt><trkpt lat="43.7561589" lon="11.6115629"><ele>834.0</ele><time>2026-05-03T11:24:31.15Z</time></trkpt><trkpt lat="43.7561479" lon="11.611469"><ele>840.0</ele><time>2026-05-03T11:24:33.15Z</time></trkpt><trkpt lat="43.7561509" lon="11.6113623"><ele>840.0</ele><time>2026-05-03T11:25:00.15Z</time></trkpt><trkpt lat="43.756226" lon="11.6112733"><ele>840.0</ele><time>2026-05-03T11:25:04.15Z</time></trkpt><trkpt lat="43.7562836" lon="11.6112251"><ele>840.0</ele><time>2026-05-03T11:25:06.151Z</time></trkpt><trkpt lat="43.7562372" lon="11.6113014"><ele>840.0</ele><time>2026-05-03T11:25:24.151Z</time></trkpt><trkpt lat="43.7561702" lon="11.6113812"><ele>840.0</ele><time>2026-05-03T11:25:26.151Z</time></trkpt><trkpt lat="43.7561874" lon="11.611474"><ele>840.0</ele><time>2026-05-03T11:25:47.15Z</time></trkpt><trkpt lat="43.7561844" lon="11.6115866"><ele>840.0</ele><time>2026-05-03T11:25:50.15Z</time></trkpt><trkpt lat="43.7561796" lon="11.611698"><ele>840.0</ele><time>2026-05-03T11:25:53.151Z</time></trkpt><trkpt lat="43.7561486" lon="11.6117846"><ele>840.0</ele><time>2026-05-03T11:25:55.151Z</time></trkpt><trkpt lat="43.7560832" lon="11.6118947"><ele>840.0</ele><time>2026-05-03T11:25:57.15Z</time></trkpt><trkpt lat="43.7560009" lon="11.6119854"><ele>840.0</ele><time>2026-05-03T11:25:59.15Z</time></trkpt><trkpt lat="43.7559635" lon="11.6120582"><ele>840.0</ele><time>2026-05-03T11:26:01.149Z</time></trkpt><trkpt lat="43.7559207" lon="11.612154"><ele>835.1428571428571</ele><time>2026-05-03T11:26:08.151Z</time></trkpt><trkpt lat="43.7558694" lon="11.6122135"><ele>830.2857142857142</ele><time>2026-05-03T11:26:10.15Z</time></trkpt><trkpt lat="43.7558603" lon="11.6123189"><ele>825.4285714285714</ele><time>2026-05-03T11:26:14.15Z</time></trkpt><trkpt lat="43.755851" lon="11.612414"><ele>820.5714285714286</ele><time>2026-05-03T11:26:26.15Z</time></trkpt><trkpt lat="43.755825" lon="11.6124964"><ele>815.7142857142857</ele><time>2026-05-03T11:26:29.151Z</time></trkpt><trkpt lat="43.755766" lon="11.6125479"><ele>810.8571428571429</ele><time>2026-05-03T11:26:32.151Z</time></trkpt><trkpt lat="43.7557432" lon="11.612637"><ele>806.0</ele><time>2026-05-03T11:26:46.15Z</time></trkpt><trkpt lat="43.7557245" lon="11.6127266"><ele>806.0000000000001</ele><time>2026-05-03T11:26:50.151Z</time></trkpt><trkpt lat="43.7557339" lon="11.6128436"><ele>806.0</ele><time>2026-05-03T11:26:53.15Z</time></trkpt><trkpt lat="43.7557802" lon="11.6129339"><ele>806.0</ele><time>2026-05-03T11:26:56.15Z</time></trkpt><trkpt lat="43.7558106" lon="11.6130117"><ele>806.0</ele><time>2026-05-03T11:27:03.151Z</time></trkpt><trkpt lat="43.7557782" lon="11.6129127"><ele>806.0000000000001</ele><time>2026-05-03T11:27:16.151Z</time></trkpt><trkpt lat="43.7557316" lon="11.6128179"><ele>806.0</ele><time>2026-05-03T11:27:18.151Z</time></trkpt><trkpt lat="43.755715" lon="11.6127131"><ele>806.0000000000001</ele><time>2026-05-03T11:27:20.15Z</time></trkpt><trkpt lat="43.7557419" lon="11.6126301"><ele>806.0</ele><time>2026-05-03T11:27:22.15Z</time></trkpt><trkpt lat="43.755815" lon="11.6125324"><ele>806.0</ele><time>2026-05-03T11:27:24.15Z</time></trkpt><trkpt lat="43.7558554" lon="11.612432"><ele>806.0</ele><time>2026-05-03T11:27:26.151Z</time></trkpt><trkpt lat="43.755857" lon="11.6122768"><ele>806.0000000000001</ele><time>2026-05-03T11:27:28.15Z</time></trkpt><trkpt lat="43.7558886" lon="11.6121861"><ele>806.0</ele><time>2026-05-03T11:27:30.149Z</time></trkpt><trkpt lat="43.7559469" lon="11.6120765"><ele>805.6666666666667</ele><time>2026-05-03T11:27:32.151Z</time></trkpt><trkpt lat="43.7560059" lon="11.6119705"><ele>805.3333333333334</ele><time>2026-05-03T11:27:34.149Z</time></trkpt><trkpt lat="43.7560581" lon="11.6119036"><ele>805.0</ele><time>2026-05-03T11:27:35.151Z</time></trkpt><trkpt lat="43.7561058" lon="11.6118204"><ele>804.6666666666667</ele><time>2026-05-03T11:27:36.151Z</time></trkpt><trkpt lat="43.7561425" lon="11.6117482"><ele>804.3333333333334</ele><time>2026-05-03T11:27:37.151Z</time></trkpt><trkpt lat="43.756166" lon="11.6116458"><ele>804.0</ele><time>2026-05-03T11:27:39.151Z</time></trkpt><trkpt lat="43.7561402" lon="11.611761"><ele>804.0</ele><time>2026-05-03T11:28:47.151Z</time></trkpt><trkpt lat="43.756079" lon="11.6118595"><ele>804.0</ele><time>2026-05-03T11:28:49.149Z</time></trkpt><trkpt lat="43.7559953" lon="11.6119748"><ele>804.0</ele><time>2026-05-03T11:28:51.151Z</time></trkpt><trkpt lat="43.755934" lon="11.6120616"><ele>804.0</ele><time>2026-05-03T11:28:53.151Z</time></trkpt><trkpt lat="43.7558855" lon="11.6121465"><ele>804.0</ele><time>2026-05-03T11:28:55.151Z</time></trkpt><trkpt lat="43.7558261" lon="11.61224"><ele>804.4000000000001</ele><time>2026-05-03T11:28:58.149Z</time></trkpt><trkpt lat="43.7557884" lon="11.6123957"><ele>804.8</ele><time>2026-05-03T11:29:01.151Z</time></trkpt><trkpt lat="43.7558326" lon="11.6124782"><ele>805.2</ele><time>2026-05-03T11:29:02.15Z</time></trkpt><trkpt lat="43.7558137" lon="11.6125979"><ele>805.5999999999999</ele><time>2026-05-03T11:29:04.151Z</time></trkpt><trkpt lat="43.7557414" lon="11.6126786"><ele>806.0</ele><time>2026-05-03T11:29:06.151Z</time></trkpt><trkpt lat="43.7556918" lon="11.6127902"><ele>804.4</ele><time>2026-05-03T11:29:08.149Z</time></trkpt><trkpt lat="43.7556809" lon="11.6128826"><ele>802.8</ele><time>2026-05-03T11:29:10.151Z</time></trkpt><trkpt lat="43.7557773" lon="11.6129593"><ele>801.1999999999999</ele><time>2026-05-03T11:29:11.15Z</time></trkpt><trkpt lat="43.7558003" lon="11.6130959"><ele>799.5999999999999</ele><time>2026-05-03T11:29:13.151Z</time></trkpt><trkpt lat="43.7558043" lon="11.6131847"><ele>798.0</ele><time>2026-05-03T11:29:14.15Z</time></trkpt><trkpt lat="43.7558248" lon="11.6133529"><ele>798.0</ele><time>2026-05-03T11:29:16.15Z</time></trkpt><trkpt lat="43.7559407" lon="11.6135398"><ele>798.0</ele><time>2026-05-03T11:29:19.15Z</time></trkpt><trkpt lat="43.7560468" lon="11.613591"><ele>798.0</ele><time>2026-05-03T11:29:21.15Z</time></trkpt><trkpt lat="43.7561152" lon="11.6137204"><ele>798.0</ele><time>2026-05-03T11:29:23.15Z</time></trkpt><trkpt lat="43.756178" lon="11.613849"><ele>802.8</ele><time>2026-05-03T11:29:25.15Z</time></trkpt><trkpt lat="43.7562433" lon="11.6139289"><ele>807.5999999999999</ele><time>2026-05-03T11:29:26.15Z</time></trkpt><trkpt lat="43.7563565" lon="11.6139694"><ele>812.4000000000001</ele><time>2026-05-03T11:29:28.149Z</time></trkpt><trkpt lat="43.7564354" lon="11.6140451"><ele>817.2</ele><time>2026-05-03T11:29:30.149Z</time></trkpt><trkpt lat="43.7564377" lon="11.6141646"><ele>822.0</ele><time>2026-05-03T11:29:32.149Z</time></trkpt><trkpt lat="43.7563976" lon="11.6142936"><ele>822.0</ele><time>2026-05-03T11:29:34.15Z</time></trkpt><trkpt lat="43.7563561" lon="11.6144059"><ele>822.0</ele><time>2026-05-03T11:29:36.15Z</time></trkpt><trkpt lat="43.756318" lon="11.6145071"><ele>822.0</ele><time>2026-05-03T11:29:39.148Z</time></trkpt><trkpt lat="43.7562939" lon="11.614677"><ele>822.0</ele><time>2026-05-03T11:29:41.15Z</time></trkpt><trkpt lat="43.7562564" lon="11.6148123"><ele>822.0</ele><time>2026-05-03T11:29:43.15Z</time></trkpt><trkpt lat="43.7562904" lon="11.6149004"><ele>818.6666666666666</ele><time>2026-05-03T11:29:46.15Z</time></trkpt><trkpt lat="43.7562999" lon="11.6150316"><ele>815.3333333333333</ele><time>2026-05-03T11:29:48.15Z</time></trkpt><trkpt lat="43.7563174" lon="11.6151205"><ele>812.0</ele><time>2026-05-03T11:29:49.149Z</time></trkpt><trkpt lat="43.7563338" lon="11.6152661"><ele>808.6666666666666</ele><time>2026-05-03T11:29:51.15Z</time></trkpt><trkpt lat="43.7563649" lon="11.6153642"><ele>805.3333333333333</ele><time>2026-05-03T11:29:52.15Z</time></trkpt><trkpt lat="43.7563825" lon="11.615454"><ele>802.0</ele><time>2026-05-03T11:29:53.15Z</time></trkpt><trkpt lat="43.7563769" lon="11.615611"><ele>796.4000000000001</ele><time>2026-05-03T11:29:55.15Z</time></trkpt><trkpt lat="43.7563991" lon="11.615704"><ele>790.8000000000001</ele><time>2026-05-03T11:29:56.15Z</time></trkpt><trkpt lat="43.7564707" lon="11.6157969"><ele>785.2</ele><time>2026-05-03T11:29:57.149Z</time></trkpt><trkpt lat="43.7565463" lon="11.6159307"><ele>779.6</ele><time>2026-05-03T11:29:59.149Z</time></trkpt><trkpt lat="43.7566001" lon="11.6160221"><ele>774.0</ele><time>2026-05-03T11:30:01.15Z</time></trkpt><trkpt lat="43.7566764" lon="11.616071"><ele>774.0</ele><time>2026-05-03T11:30:03.15Z</time></trkpt><trkpt lat="43.7567505" lon="11.6161265"><ele>774.0</ele><time>2026-05-03T11:30:05.15Z</time></trkpt><trkpt lat="43.7568095" lon="11.6161661"><ele>774.0</ele><time>2026-05-03T11:30:07.15Z</time></trkpt><trkpt lat="43.7569101" lon="11.616209"><ele>774.0</ele><time>2026-05-03T11:30:10.15Z</time></trkpt><trkpt lat="43.7570398" lon="11.6162291"><ele>774.0</ele><time>2026-05-03T11:30:12.149Z</time></trkpt><trkpt lat="43.7571167" lon="11.6162309"><ele>775.6</ele><time>2026-05-03T11:30:13.15Z</time></trkpt><trkpt lat="43.7571949" lon="11.6162296"><ele>777.2</ele><time>2026-05-03T11:30:14.149Z</time></trkpt><trkpt lat="43.7572748" lon="11.6162248"><ele>778.8000000000001</ele><time>2026-05-03T11:30:15.149Z</time></trkpt><trkpt lat="43.7573554" lon="11.6162137"><ele>780.4000000000001</ele><time>2026-05-03T11:30:16.15Z</time></trkpt><trkpt lat="43.7575184" lon="11.6161659"><ele>782.0</ele><time>2026-05-03T11:30:18.149Z</time></trkpt><trkpt lat="43.7575994" lon="11.616138"><ele>782.0000000000001</ele><time>2026-05-03T11:30:19.15Z</time></trkpt><trkpt lat="43.7576811" lon="11.6161081"><ele>782.0</ele><time>2026-05-03T11:30:20.149Z</time></trkpt><trkpt lat="43.7577641" lon="11.6160799"><ele>782.0</ele><time>2026-05-03T11:30:21.149Z</time></trkpt><trkpt lat="43.7578478" lon="11.6160529"><ele>782.0</ele><time>2026-05-03T11:30:22.15Z</time></trkpt><trkpt lat="43.75793" lon="11.6160334"><ele>782.0000000000001</ele><time>2026-05-03T11:30:23.15Z</time></trkpt><trkpt lat="43.7580152" lon="11.6160298"><ele>782.0</ele><time>2026-05-03T11:30:24.149Z</time></trkpt><trkpt lat="43.7580985" lon="11.6160383"><ele>782.3333333333334</ele><time>2026-05-03T11:30:25.149Z</time></trkpt><trkpt lat="43.7581806" lon="11.6160561"><ele>782.6666666666667</ele><time>2026-05-03T11:30:26.15Z</time></trkpt><trkpt lat="43.7582657" lon="11.6160789"><ele>783.0</ele><time>2026-05-03T11:30:27.148Z</time></trkpt><trkpt lat="43.7583532" lon="11.6161036"><ele>783.3333333333333</ele><time>2026-05-03T11:30:28.149Z</time></trkpt><trkpt lat="43.7584396" lon="11.6161308"><ele>783.6666666666666</ele><time>2026-05-03T11:30:29.149Z</time></trkpt><trkpt lat="43.7585267" lon="11.6161553"><ele>784.0</ele><time>2026-05-03T11:30:30.15Z</time></trkpt><trkpt lat="43.7586137" lon="11.616179"><ele>780.8333333333333</ele><time>2026-05-03T11:30:31.149Z</time></trkpt><trkpt lat="43.7587007" lon="11.6161988"><ele>777.6666666666666</ele><time>2026-05-03T11:30:32.149Z</time></trkpt><trkpt lat="43.7587861" lon="11.6162222"><ele>774.5</ele><time>2026-05-03T11:30:33.15Z</time></trkpt><trkpt lat="43.7588714" lon="11.6162441"><ele>771.3333333333333</ele><time>2026-05-03T11:30:34.15Z</time></trkpt><trkpt lat="43.7589563" lon="11.61627"><ele>768.1666666666666</ele><time>2026-05-03T11:30:35.149Z</time></trkpt><trkpt lat="43.7590416" lon="11.6162953"><ele>765.0</ele><time>2026-05-03T11:30:36.15Z</time></trkpt><trkpt lat="43.7591297" lon="11.6163254"><ele>765.0</ele><time>2026-05-03T11:30:37.15Z</time></trkpt><trkpt lat="43.7592202" lon="11.6163575"><ele>765.0</ele><time>2026-05-03T11:30:38.149Z</time></trkpt><trkpt lat="43.7593163" lon="11.6163882"><ele>765.0</ele><time>2026-05-03T11:30:39.15Z</time></trkpt><trkpt lat="43.7594163" lon="11.6164204"><ele>765.0</ele><time>2026-05-03T11:30:40.15Z</time></trkpt><trkpt lat="43.7595208" lon="11.6164526"><ele>765.0</ele><time>2026-05-03T11:30:41.15Z</time></trkpt><trkpt lat="43.7596267" lon="11.6164805"><ele>767.0</ele><time>2026-05-03T11:30:42.15Z</time></trkpt><trkpt lat="43.7597361" lon="11.6165062"><ele>769.0</ele><time>2026-05-03T11:30:43.15Z</time></trkpt><trkpt lat="43.7598484" lon="11.6165373"><ele>771.0</ele><time>2026-05-03T11:30:44.149Z</time></trkpt><trkpt lat="43.7599642" lon="11.6165582"><ele>773.0</ele><time>2026-05-03T11:30:45.149Z</time></trkpt><trkpt lat="43.7600812" lon="11.6165669"><ele>778.25</ele><time>2026-05-03T11:30:46.15Z</time></trkpt><trkpt lat="43.7602008" lon="11.6165653"><ele>783.5</ele><time>2026-05-03T11:30:47.149Z</time></trkpt><trkpt lat="43.7603225" lon="11.6165601"><ele>788.75</ele><time>2026-05-03T11:30:48.15Z</time></trkpt><trkpt lat="43.7604436" lon="11.616564"><ele>794.0</ele><time>2026-05-03T11:30:49.15Z</time></trkpt><trkpt lat="43.7605608" lon="11.6165938"><ele>794.0</ele><time>2026-05-03T11:30:50.149Z</time></trkpt><trkpt lat="43.7606713" lon="11.616653"><ele>794.0</ele><time>2026-05-03T11:30:51.15Z</time></trkpt><trkpt lat="43.7607675" lon="11.6167491"><ele>794.0</ele><time>2026-05-03T11:30:52.15Z</time></trkpt><trkpt lat="43.7608482" lon="11.6168776"><ele>794.0</ele><time>2026-05-03T11:30:53.149Z</time></trkpt><trkpt lat="43.7609101" lon="11.6170322"><ele>790.25</ele><time>2026-05-03T11:30:54.149Z</time></trkpt><trkpt lat="43.7609581" lon="11.6171983"><ele>786.5</ele><time>2026-05-03T11:30:55.149Z</time></trkpt><trkpt lat="43.760997" lon="11.617372"><ele>782.75</ele><time>2026-05-03T11:30:56.149Z</time></trkpt><trkpt lat="43.7610352" lon="11.6175524"><ele>779.0</ele><time>2026-05-03T11:30:57.149Z</time></trkpt><trkpt lat="43.7610838" lon="11.6177264"><ele>783.0</ele><time>2026-05-03T11:30:58.15Z</time></trkpt><trkpt lat="43.7611492" lon="11.6178916"><ele>787.0</ele><time>2026-05-03T11:30:59.15Z</time></trkpt><trkpt lat="43.7612366" lon="11.6180371"><ele>791.0</ele><time>2026-05-03T11:31:00.15Z</time></trkpt><trkpt lat="43.7615735" lon="11.6183893"><ele>791.0</ele><time>2026-05-03T11:31:03.15Z</time></trkpt><trkpt lat="43.7616833" lon="11.6185313"><ele>791.0</ele><time>2026-05-03T11:31:04.15Z</time></trkpt><trkpt lat="43.7617935" lon="11.6186724"><ele>791.0</ele><time>2026-05-03T11:31:05.15Z</time></trkpt><trkpt lat="43.7618894" lon="11.6188366"><ele>793.3333333333334</ele><time>2026-05-03T11:31:06.149Z</time></trkpt><trkpt lat="43.7619881" lon="11.6189981"><ele>795.6666666666667</ele><time>2026-05-03T11:31:07.15Z</time></trkpt><trkpt lat="43.7620822" lon="11.6191605"><ele>798.0</ele><time>2026-05-03T11:31:08.15Z</time></trkpt><trkpt lat="43.7621825" lon="11.6193155"><ele>798.0</ele><time>2026-05-03T11:31:09.15Z</time></trkpt><trkpt lat="43.7622832" lon="11.6194625"><ele>798.0</ele><time>2026-05-03T11:31:10.149Z</time></trkpt><trkpt lat="43.7623871" lon="11.6195999"><ele>798.0</ele><time>2026-05-03T11:31:11.149Z</time></trkpt><trkpt lat="43.7624944" lon="11.6197358"><ele>798.0</ele><time>2026-05-03T11:31:12.15Z</time></trkpt><trkpt lat="43.7625985" lon="11.6198731"><ele>799.5</ele><time>2026-05-03T11:31:13.15Z</time></trkpt><trkpt lat="43.7627" lon="11.6200023"><ele>801.0</ele><time>2026-05-03T11:31:14.15Z</time></trkpt><trkpt lat="43.7628085" lon="11.6201238"><ele>802.5</ele><time>2026-05-03T11:31:15.149Z</time></trkpt><trkpt lat="43.762922" lon="11.6202376"><ele>804.0</ele><time>2026-05-03T11:31:16.149Z</time></trkpt><trkpt lat="43.7630437" lon="11.6203289"><ele>801.0</ele><time>2026-05-03T11:31:17.15Z</time></trkpt><trkpt lat="43.7631705" lon="11.6204121"><ele>798.0</ele><time>2026-05-03T11:31:18.148Z</time></trkpt><trkpt lat="43.7632991" lon="11.6204962"><ele>795.0</ele><time>2026-05-03T11:31:19.15Z</time></trkpt><trkpt lat="43.763427" lon="11.6205831"><ele>792.0</ele><time>2026-05-03T11:31:20.149Z</time></trkpt><trkpt lat="43.7635527" lon="11.6206681"><ele>792.0</ele><time>2026-05-03T11:31:21.149Z</time></trkpt><trkpt lat="43.763679" lon="11.6207515"><ele>792.0</ele><time>2026-05-03T11:31:22.149Z</time></trkpt><trkpt lat="43.7638006" lon="11.6208272"><ele>792.0</ele><time>2026-05-03T11:31:23.149Z</time></trkpt><trkpt lat="43.763925" lon="11.6208667"><ele>792.0</ele><time>2026-05-03T11:31:24.149Z</time></trkpt><trkpt lat="43.7640501" lon="11.6208633"><ele>792.0</ele><time>2026-05-03T11:31:25.15Z</time></trkpt><trkpt lat="43.7641728" lon="11.6208135"><ele>792.0</ele><time>2026-05-03T11:31:26.15Z</time></trkpt><trkpt lat="43.7642909" lon="11.6207274"><ele>792.0</ele><time>2026-05-03T11:31:27.148Z</time></trkpt><trkpt lat="43.7644068" lon="11.6206336"><ele>792.0</ele><time>2026-05-03T11:31:28.149Z</time></trkpt><trkpt lat="43.7645131" lon="11.6205154"><ele>795.0</ele><time>2026-05-03T11:31:29.15Z</time></trkpt><trkpt lat="43.7646061" lon="11.6203726"><ele>798.0</ele><time>2026-05-03T11:31:30.149Z</time></trkpt><trkpt lat="43.7646879" lon="11.6202181"><ele>801.0</ele><time>2026-05-03T11:31:31.149Z</time></trkpt><trkpt lat="43.7647682" lon="11.6200575"><ele>804.0</ele><time>2026-05-03T11:31:32.15Z</time></trkpt><trkpt lat="43.7648482" lon="11.6198946"><ele>804.0</ele><time>2026-05-03T11:31:33.149Z</time></trkpt><trkpt lat="43.7649267" lon="11.6197301"><ele>804.0</ele><time>2026-05-03T11:31:34.15Z</time></trkpt><trkpt lat="43.7650075" lon="11.6195687"><ele>804.0</ele><time>2026-05-03T11:31:35.15Z</time></trkpt><trkpt lat="43.765088" lon="11.6194086"><ele>804.0</ele><time>2026-05-03T11:31:36.15Z</time></trkpt><trkpt lat="43.7651683" lon="11.6192469"><ele>806.25</ele><time>2026-05-03T11:31:37.149Z</time></trkpt><trkpt lat="43.7652468" lon="11.6190833"><ele>808.5</ele><time>2026-05-03T11:31:38.15Z</time></trkpt><trkpt lat="43.7653271" lon="11.6189226"><ele>810.75</ele><time>2026-05-03T11:31:39.149Z</time></trkpt><trkpt lat="43.765408" lon="11.6187596"><ele>813.0</ele><time>2026-05-03T11:31:40.15Z</time></trkpt><trkpt lat="43.7654889" lon="11.6185972"><ele>813.0</ele><time>2026-05-03T11:31:41.15Z</time></trkpt><trkpt lat="43.7655697" lon="11.6184363"><ele>813.0</ele><time>2026-05-03T11:31:42.15Z</time></trkpt><trkpt lat="43.7656519" lon="11.6182735"><ele>813.0</ele><time>2026-05-03T11:31:43.149Z</time></trkpt><trkpt lat="43.765734" lon="11.6181129"><ele>813.0</ele><time>2026-05-03T11:31:44.148Z</time></trkpt><trkpt lat="43.7658185" lon="11.6179554"><ele>813.0</ele><time>2026-05-03T11:31:45.15Z</time></trkpt><trkpt lat="43.765919" lon="11.6178151"><ele>813.0</ele><time>2026-05-03T11:31:46.15Z</time></trkpt><trkpt lat="43.7660327" lon="11.6176983"><ele>813.0</ele><time>2026-05-03T11:31:47.15Z</time></trkpt><trkpt lat="43.7661605" lon="11.6176174"><ele>813.0</ele><time>2026-05-03T11:31:48.15Z</time></trkpt><trkpt lat="43.7663" lon="11.6175668"><ele>813.0</ele><time>2026-05-03T11:31:49.15Z</time></trkpt><trkpt lat="43.7664454" lon="11.6175409"><ele>813.0</ele><time>2026-05-03T11:31:50.15Z</time></trkpt><trkpt lat="43.7665924" lon="11.6175218"><ele>813.0</ele><time>2026-05-03T11:31:51.15Z</time></trkpt><trkpt lat="43.7667362" lon="11.617499"><ele>813.0</ele><time>2026-05-03T11:31:52.148Z</time></trkpt><trkpt lat="43.7668788" lon="11.6174818"><ele>812.0</ele><time>2026-05-03T11:31:53.15Z</time></trkpt><trkpt lat="43.7670163" lon="11.617481"><ele>811.0</ele><time>2026-05-03T11:31:54.149Z</time></trkpt><trkpt lat="43.7671459" lon="11.6175123"><ele>810.0</ele><time>2026-05-03T11:31:55.15Z</time></trkpt><trkpt lat="43.7672666" lon="11.6175852"><ele>809.0</ele><time>2026-05-03T11:31:56.15Z</time></trkpt><trkpt lat="43.7673742" lon="11.6176931"><ele>809.5</ele><time>2026-05-03T11:31:57.15Z</time></trkpt><trkpt lat="43.7674659" lon="11.6178294"><ele>810.0</ele><time>2026-05-03T11:31:58.15Z</time></trkpt><trkpt lat="43.7675557" lon="11.617975"><ele>810.5</ele><time>2026-05-03T11:31:59.15Z</time></trkpt><trkpt lat="43.7676567" lon="11.6181071"><ele>811.0</ele><time>2026-05-03T11:32:00.149Z</time></trkpt><trkpt lat="43.7677735" lon="11.6182145"><ele>811.0</ele><time>2026-05-03T11:32:01.15Z</time></trkpt><trkpt lat="43.7678912" lon="11.6183182"><ele>811.0</ele><time>2026-05-03T11:32:02.15Z</time></trkpt><trkpt lat="43.7680485" lon="11.6183305"><ele>811.0</ele><time>2026-05-03T11:32:03.149Z</time></trkpt><trkpt lat="43.76819" lon="11.6183733"><ele>811.0</ele><time>2026-05-03T11:32:04.149Z</time></trkpt><trkpt lat="43.7683341" lon="11.6184218"><ele>811.0</ele><time>2026-05-03T11:32:05.148Z</time></trkpt><trkpt lat="43.7684781" lon="11.6184703"><ele>811.0</ele><time>2026-05-03T11:32:06.15Z</time></trkpt><trkpt lat="43.7686206" lon="11.6185069"><ele>811.0</ele><time>2026-05-03T11:32:07.15Z</time></trkpt><trkpt lat="43.768763" lon="11.6185414"><ele>811.0</ele><time>2026-05-03T11:32:08.148Z</time></trkpt><trkpt lat="43.768906" lon="11.6185845"><ele>810.25</ele><time>2026-05-03T11:32:09.15Z</time></trkpt><trkpt lat="43.7690507" lon="11.6186255"><ele>809.5</ele><time>2026-05-03T11:32:10.149Z</time></trkpt><trkpt lat="43.7691979" lon="11.6186611"><ele>808.75</ele><time>2026-05-03T11:32:11.15Z</time></trkpt><trkpt lat="43.769344" lon="11.6186882"><ele>808.0</ele><time>2026-05-03T11:32:12.149Z</time></trkpt><trkpt lat="43.7694906" lon="11.6186914"><ele>808.25</ele><time>2026-05-03T11:32:13.149Z</time></trkpt><trkpt lat="43.7696367" lon="11.6186802"><ele>808.5</ele><time>2026-05-03T11:32:14.15Z</time></trkpt><trkpt lat="43.7697814" lon="11.6186572"><ele>808.75</ele><time>2026-05-03T11:32:15.15Z</time></trkpt><trkpt lat="43.7699261" lon="11.6186301"><ele>809.0</ele><time>2026-05-03T11:32:16.15Z</time></trkpt><trkpt lat="43.7700689" lon="11.6186023"><ele>810.0</ele><time>2026-05-03T11:32:17.149Z</time></trkpt><trkpt lat="43.7702091" lon="11.6185724"><ele>811.0</ele><time>2026-05-03T11:32:18.149Z</time></trkpt><trkpt lat="43.7703505" lon="11.6185414"><ele>812.0</ele><time>2026-05-03T11:32:19.149Z</time></trkpt><trkpt lat="43.7704917" lon="11.6185116"><ele>813.0</ele><time>2026-05-03T11:32:20.15Z</time></trkpt><trkpt lat="43.7706307" lon="11.6184826"><ele>813.0</ele><time>2026-05-03T11:32:21.149Z</time></trkpt><trkpt lat="43.7707685" lon="11.6184523"><ele>813.0</ele><time>2026-05-03T11:32:22.149Z</time></trkpt><trkpt lat="43.7709066" lon="11.6184188"><ele>813.0</ele><time>2026-05-03T11:32:23.15Z</time></trkpt><trkpt lat="43.7710477" lon="11.6183875"><ele>813.0</ele><time>2026-05-03T11:32:24.149Z</time></trkpt><trkpt lat="43.771188" lon="11.6183537"><ele>815.25</ele><time>2026-05-03T11:32:25.149Z</time></trkpt><trkpt lat="43.7713271" lon="11.6183174"><ele>817.5</ele><time>2026-05-03T11:32:26.15Z</time></trkpt><trkpt lat="43.7714659" lon="11.6182835"><ele>819.75</ele><time>2026-05-03T11:32:27.149Z</time></trkpt><trkpt lat="43.771602" lon="11.6182508"><ele>822.0</ele><time>2026-05-03T11:32:28.15Z</time></trkpt><trkpt lat="43.7717384" lon="11.6182187"><ele>822.75</ele><time>2026-05-03T11:32:29.15Z</time></trkpt><trkpt lat="43.7718747" lon="11.6181894"><ele>823.5</ele><time>2026-05-03T11:32:30.15Z</time></trkpt><trkpt lat="43.7720102" lon="11.6181645"><ele>824.25</ele><time>2026-05-03T11:32:31.15Z</time></trkpt><trkpt lat="43.7721465" lon="11.6181514"><ele>825.0</ele><time>2026-05-03T11:32:32.149Z</time></trkpt><trkpt lat="43.7722779" lon="11.618158"><ele>825.0</ele><time>2026-05-03T11:32:33.15Z</time></trkpt><trkpt lat="43.7723981" lon="11.6181906"><ele>825.0</ele><time>2026-05-03T11:32:34.148Z</time></trkpt><trkpt lat="43.7725175" lon="11.6182431"><ele>825.0</ele><time>2026-05-03T11:32:35.15Z</time></trkpt><trkpt lat="43.7726335" lon="11.6183"><ele>825.0</ele><time>2026-05-03T11:32:36.148Z</time></trkpt><trkpt lat="43.7727537" lon="11.6183532"><ele>824.5</ele><time>2026-05-03T11:32:37.149Z</time></trkpt><trkpt lat="43.7728743" lon="11.6184039"><ele>824.0</ele><time>2026-05-03T11:32:38.149Z</time></trkpt><trkpt lat="43.7729946" lon="11.6184617"><ele>823.5</ele><time>2026-05-03T11:32:39.15Z</time></trkpt><trkpt lat="43.7731168" lon="11.6185161"><ele>823.0</ele><time>2026-05-03T11:32:40.149Z</time></trkpt><trkpt lat="43.7732407" lon="11.6185734"><ele>823.0</ele><time>2026-05-03T11:32:41.149Z</time></trkpt><trkpt lat="43.7733633" lon="11.6186333"><ele>823.0</ele><time>2026-05-03T11:32:42.15Z</time></trkpt><trkpt lat="43.7734848" lon="11.6187022"><ele>823.0</ele><time>2026-05-03T11:32:43.15Z</time></trkpt><trkpt lat="43.7736034" lon="11.6187847"><ele>823.0</ele><time>2026-05-03T11:32:44.149Z</time></trkpt><trkpt lat="43.7737178" lon="11.618878"><ele>824.5</ele><time>2026-05-03T11:32:45.148Z</time></trkpt><trkpt lat="43.7738278" lon="11.6189827"><ele>826.0</ele><time>2026-05-03T11:32:46.149Z</time></trkpt><trkpt lat="43.7739355" lon="11.6190936"><ele>827.5</ele><time>2026-05-03T11:32:47.15Z</time></trkpt><trkpt lat="43.7740429" lon="11.6192051"><ele>829.0</ele><time>2026-05-03T11:32:48.15Z</time></trkpt><trkpt lat="43.774152" lon="11.6193143"><ele>829.0</ele><time>2026-05-03T11:32:49.15Z</time></trkpt><trkpt lat="43.7742609" lon="11.619423"><ele>829.0</ele><time>2026-05-03T11:32:50.15Z</time></trkpt><trkpt lat="43.7743678" lon="11.6195298"><ele>829.0</ele><time>2026-05-03T11:32:51.149Z</time></trkpt><trkpt lat="43.7744741" lon="11.6196388"><ele>829.0</ele><time>2026-05-03T11:32:52.15Z</time></trkpt><trkpt lat="43.7745779" lon="11.6197501"><ele>830.25</ele><time>2026-05-03T11:32:53.15Z</time></trkpt><trkpt lat="43.7746818" lon="11.6198622"><ele>831.5</ele><time>2026-05-03T11:32:54.15Z</time></trkpt><trkpt lat="43.7747869" lon="11.6199726"><ele>832.75</ele><time>2026-05-03T11:32:55.149Z</time></trkpt><trkpt lat="43.7748959" lon="11.6200796"><ele>834.0</ele><time>2026-05-03T11:32:56.15Z</time></trkpt><trkpt lat="43.7750054" lon="11.6201869"><ele>834.0</ele><time>2026-05-03T11:32:57.15Z</time></trkpt><trkpt lat="43.775113" lon="11.620301"><ele>834.0</ele><time>2026-05-03T11:32:58.15Z</time></trkpt><trkpt lat="43.7752209" lon="11.6204159"><ele>834.0</ele><time>2026-05-03T11:32:59.15Z</time></trkpt><trkpt lat="43.7753311" lon="11.6205293"><ele>834.0</ele><time>2026-05-03T11:33:00.149Z</time></trkpt><trkpt lat="43.7754439" lon="11.6206416"><ele>835.25</ele><time>2026-05-03T11:33:01.149Z</time></trkpt><trkpt lat="43.7755591" lon="11.6207448"><ele>836.5</ele><time>2026-05-03T11:33:02.149Z</time></trkpt><trkpt lat="43.775683" lon="11.6208269"><ele>837.75</ele><time>2026-05-03T11:33:03.149Z</time></trkpt><trkpt lat="43.7758143" lon="11.6208805"><ele>839.0</ele><time>2026-05-03T11:33:04.15Z</time></trkpt><trkpt lat="43.7759499" lon="11.6209085"><ele>840.25</ele><time>2026-05-03T11:33:05.149Z</time></trkpt><trkpt lat="43.7760882" lon="11.6209194"><ele>841.5</ele><time>2026-05-03T11:33:06.15Z</time></trkpt><trkpt lat="43.7762268" lon="11.6209232"><ele>842.75</ele><time>2026-05-03T11:33:07.149Z</time></trkpt><trkpt lat="43.7763659" lon="11.6209324"><ele>844.0</ele><time>2026-05-03T11:33:08.149Z</time></trkpt><trkpt lat="43.7765046" lon="11.6209453"><ele>844.0</ele><time>2026-05-03T11:33:09.149Z</time></trkpt><trkpt lat="43.7766419" lon="11.620948"><ele>844.0</ele><time>2026-05-03T11:33:10.15Z</time></trkpt><trkpt lat="43.7767731" lon="11.620928"><ele>844.0</ele><time>2026-05-03T11:33:11.15Z</time></trkpt><trkpt lat="43.7768854" lon="11.6208626"><ele>844.0</ele><time>2026-05-03T11:33:12.149Z</time></trkpt><trkpt lat="43.776979" lon="11.6207588"><ele>844.75</ele><time>2026-05-03T11:33:13.15Z</time></trkpt><trkpt lat="43.7770494" lon="11.620625"><ele>845.5</ele><time>2026-05-03T11:33:14.149Z</time></trkpt><trkpt lat="43.7771091" lon="11.6204724"><ele>846.25</ele><time>2026-05-03T11:33:15.15Z</time></trkpt><trkpt lat="43.7771668" lon="11.6203085"><ele>847.0</ele><time>2026-05-03T11:33:16.149Z</time></trkpt><trkpt lat="43.7772058" lon="11.6201347"><ele>847.0</ele><time>2026-05-03T11:33:17.149Z</time></trkpt><trkpt lat="43.7772038" lon="11.6199579"><ele>847.0</ele><time>2026-05-03T11:33:18.15Z</time></trkpt><trkpt lat="43.7771644" lon="11.6197945"><ele>847.0</ele><time>2026-05-03T11:33:19.15Z</time></trkpt><trkpt lat="43.7771024" lon="11.6196376"><ele>847.0</ele><time>2026-05-03T11:33:20.15Z</time></trkpt><trkpt lat="43.777028" lon="11.6194849"><ele>846.75</ele><time>2026-05-03T11:33:21.15Z</time></trkpt><trkpt lat="43.7769541" lon="11.6193312"><ele>846.5</ele><time>2026-05-03T11:33:22.149Z</time></trkpt><trkpt lat="43.7768779" lon="11.6191771"><ele>846.25</ele><time>2026-05-03T11:33:23.149Z</time></trkpt><trkpt lat="43.7768093" lon="11.6190166"><ele>846.0</ele><time>2026-05-03T11:33:24.15Z</time></trkpt><trkpt lat="43.7767601" lon="11.6188548"><ele>846.0</ele><time>2026-05-03T11:33:25.148Z</time></trkpt><trkpt lat="43.7767379" lon="11.6186931"><ele>846.0</ele><time>2026-05-03T11:33:26.149Z</time></trkpt><trkpt lat="43.7767497" lon="11.618532"><ele>846.0</ele><time>2026-05-03T11:33:27.15Z</time></trkpt><trkpt lat="43.7767941" lon="11.618382"><ele>846.0</ele><time>2026-05-03T11:33:28.149Z</time></trkpt><trkpt lat="43.7768622" lon="11.6182441"><ele>849.5</ele><time>2026-05-03T11:33:29.15Z</time></trkpt><trkpt lat="43.7769394" lon="11.6181085"><ele>853.0</ele><time>2026-05-03T11:33:30.149Z</time></trkpt><trkpt lat="43.7770202" lon="11.6179741"><ele>856.5</ele><time>2026-05-03T11:33:31.149Z</time></trkpt><trkpt lat="43.7771016" lon="11.617841"><ele>860.0</ele><time>2026-05-03T11:33:32.149Z</time></trkpt><trkpt lat="43.7771814" lon="11.6177093"><ele>860.0</ele><time>2026-05-03T11:33:33.15Z</time></trkpt><trkpt lat="43.777263" lon="11.6175713"><ele>860.0</ele><time>2026-05-03T11:33:34.15Z</time></trkpt><trkpt lat="43.7773439" lon="11.6174312"><ele>860.0</ele><time>2026-05-03T11:33:35.149Z</time></trkpt><trkpt lat="43.7774255" lon="11.6172883"><ele>860.0</ele><time>2026-05-03T11:33:36.148Z</time></trkpt><trkpt lat="43.7775058" lon="11.6171449"><ele>860.0</ele><time>2026-05-03T11:33:37.15Z</time></trkpt><trkpt lat="43.7775863" lon="11.6169998"><ele>860.0</ele><time>2026-05-03T11:33:38.149Z</time></trkpt><trkpt lat="43.7776686" lon="11.6168561"><ele>860.0</ele><time>2026-05-03T11:33:39.15Z</time></trkpt><trkpt lat="43.7777522" lon="11.6167144"><ele>860.0</ele><time>2026-05-03T11:33:40.149Z</time></trkpt><trkpt lat="43.7778391" lon="11.616577"><ele>861.8</ele><time>2026-05-03T11:33:41.149Z</time></trkpt><trkpt lat="43.7779306" lon="11.6164634"><ele>863.6</ele><time>2026-05-03T11:33:42.15Z</time></trkpt><trkpt lat="43.7780329" lon="11.6163968"><ele>865.4000000000001</ele><time>2026-05-03T11:33:43.149Z</time></trkpt><trkpt lat="43.77814" lon="11.6163843"><ele>867.2</ele><time>2026-05-03T11:33:44.15Z</time></trkpt><trkpt lat="43.7782388" lon="11.6164349"><ele>869.0</ele><time>2026-05-03T11:33:45.149Z</time></trkpt><trkpt lat="43.7783087" lon="11.6165335"><ele>869.0</ele><time>2026-05-03T11:33:46.149Z</time></trkpt><trkpt lat="43.7783434" lon="11.6166617"><ele>869.0000000000001</ele><time>2026-05-03T11:33:47.149Z</time></trkpt><trkpt lat="43.7783395" lon="11.6167971"><ele>869.0000000000001</ele><time>2026-05-03T11:33:48.149Z</time></trkpt><trkpt lat="43.7783035" lon="11.6169331"><ele>869.0</ele><time>2026-05-03T11:33:49.15Z</time></trkpt><trkpt lat="43.7782469" lon="11.6170769"><ele>869.0</ele><time>2026-05-03T11:33:50.15Z</time></trkpt><trkpt lat="43.7781909" lon="11.6172277"><ele>870.25</ele><time>2026-05-03T11:33:51.15Z</time></trkpt><trkpt lat="43.7781378" lon="11.6173817"><ele>871.5</ele><time>2026-05-03T11:33:52.148Z</time></trkpt><trkpt lat="43.7780841" lon="11.6175378"><ele>872.75</ele><time>2026-05-03T11:33:53.15Z</time></trkpt><trkpt lat="43.7780276" lon="11.6176899"><ele>874.0</ele><time>2026-05-03T11:33:54.15Z</time></trkpt><trkpt lat="43.7779718" lon="11.6178421"><ele>874.4000000000001</ele><time>2026-05-03T11:33:55.15Z</time></trkpt><trkpt lat="43.7779283" lon="11.6179827"><ele>874.8000000000001</ele><time>2026-05-03T11:33:56.149Z</time></trkpt><trkpt lat="43.7779177" lon="11.6181229"><ele>875.1999999999999</ele><time>2026-05-03T11:33:57.149Z</time></trkpt><trkpt lat="43.7779521" lon="11.6182588"><ele>875.5999999999999</ele><time>2026-05-03T11:33:58.15Z</time></trkpt><trkpt lat="43.7780233" lon="11.6183574"><ele>876.0</ele><time>2026-05-03T11:33:59.15Z</time></trkpt><trkpt lat="43.7781157" lon="11.6183994"><ele>876.0</ele><time>2026-05-03T11:34:00.15Z</time></trkpt><trkpt lat="43.7782076" lon="11.6183843"><ele>875.9999999999999</ele><time>2026-05-03T11:34:01.15Z</time></trkpt><trkpt lat="43.7782872" lon="11.6183053"><ele>875.9999999999999</ele><time>2026-05-03T11:34:02.149Z</time></trkpt><trkpt lat="43.7783494" lon="11.6181927"><ele>876.0</ele><time>2026-05-03T11:34:03.15Z</time></trkpt><trkpt lat="43.7784038" lon="11.6180621"><ele>876.0</ele><time>2026-05-03T11:34:04.149Z</time></trkpt><trkpt lat="43.7784534" lon="11.6179247"><ele>875.5999999999999</ele><time>2026-05-03T11:34:05.15Z</time></trkpt><trkpt lat="43.7785061" lon="11.6177916"><ele>875.1999999999999</ele><time>2026-05-03T11:34:06.149Z</time></trkpt><trkpt lat="43.7785583" lon="11.6176609"><ele>874.8000000000001</ele><time>2026-05-03T11:34:07.149Z</time></trkpt><trkpt lat="43.7786098" lon="11.617528"><ele>874.4000000000001</ele><time>2026-05-03T11:34:08.15Z</time></trkpt><trkpt lat="43.7786612" lon="11.6173905"><ele>874.0</ele><time>2026-05-03T11:34:09.149Z</time></trkpt><trkpt lat="43.778712" lon="11.6172532"><ele>877.5</ele><time>2026-05-03T11:34:10.15Z</time></trkpt><trkpt lat="43.7787653" lon="11.6171153"><ele>881.0</ele><time>2026-05-03T11:34:11.15Z</time></trkpt><trkpt lat="43.7788203" lon="11.616978"><ele>884.5</ele><time>2026-05-03T11:34:12.15Z</time></trkpt><trkpt lat="43.7788729" lon="11.6168394"><ele>888.0</ele><time>2026-05-03T11:34:13.148Z</time></trkpt><trkpt lat="43.7789284" lon="11.6167002"><ele>888.0</ele><time>2026-05-03T11:34:14.149Z</time></trkpt><trkpt lat="43.7789816" lon="11.6165579"><ele>888.0</ele><time>2026-05-03T11:34:15.15Z</time></trkpt><trkpt lat="43.7790369" lon="11.6164143"><ele>888.0</ele><time>2026-05-03T11:34:16.15Z</time></trkpt><trkpt lat="43.7790949" lon="11.616273"><ele>888.0</ele><time>2026-05-03T11:34:17.15Z</time></trkpt><trkpt lat="43.7791506" lon="11.6161347"><ele>886.5</ele><time>2026-05-03T11:34:18.149Z</time></trkpt><trkpt lat="43.7792067" lon="11.6159967"><ele>885.0</ele><time>2026-05-03T11:34:19.149Z</time></trkpt><trkpt lat="43.7792703" lon="11.6158682"><ele>883.5</ele><time>2026-05-03T11:34:20.149Z</time></trkpt><trkpt lat="43.7793443" lon="11.615752"><ele>882.0</ele><time>2026-05-03T11:34:21.149Z</time></trkpt><trkpt lat="43.7794253" lon="11.6156447"><ele>884.5</ele><time>2026-05-03T11:34:22.149Z</time></trkpt><trkpt lat="43.779512" lon="11.6155418"><ele>887.0</ele><time>2026-05-03T11:34:23.15Z</time></trkpt><trkpt lat="43.7796006" lon="11.6154419"><ele>889.5</ele><time>2026-05-03T11:34:24.149Z</time></trkpt><trkpt lat="43.7796891" lon="11.6153415"><ele>892.0</ele><time>2026-05-03T11:34:25.15Z</time></trkpt><trkpt lat="43.7797779" lon="11.6152404"><ele>892.0</ele><time>2026-05-03T11:34:26.149Z</time></trkpt><trkpt lat="43.7798673" lon="11.6151383"><ele>892.0</ele><time>2026-05-03T11:34:27.15Z</time></trkpt><trkpt lat="43.7799564" lon="11.615033"><ele>892.0</ele><time>2026-05-03T11:34:28.148Z</time></trkpt><trkpt lat="43.7800475" lon="11.6149289"><ele>892.0</ele><time>2026-05-03T11:34:29.149Z</time></trkpt><trkpt lat="43.7801393" lon="11.6148286"><ele>894.75</ele><time>2026-05-03T11:34:30.149Z</time></trkpt><trkpt lat="43.7802319" lon="11.6147257"><ele>897.5</ele><time>2026-05-03T11:34:31.15Z</time></trkpt><trkpt lat="43.7803252" lon="11.6146233"><ele>900.25</ele><time>2026-05-03T11:34:32.149Z</time></trkpt><trkpt lat="43.7804236" lon="11.6145278"><ele>903.0</ele><time>2026-05-03T11:34:33.15Z</time></trkpt><trkpt lat="43.7805259" lon="11.614446"><ele>903.0</ele><time>2026-05-03T11:34:34.149Z</time></trkpt><trkpt lat="43.7806345" lon="11.6143801"><ele>903.0</ele><time>2026-05-03T11:34:35.15Z</time></trkpt><trkpt lat="43.7807488" lon="11.6143321"><ele>903.0</ele><time>2026-05-03T11:34:36.149Z</time></trkpt><trkpt lat="43.780866" lon="11.6143108"><ele>903.0</ele><time>2026-05-03T11:34:37.15Z</time></trkpt><trkpt lat="43.7809733" lon="11.6143397"><ele>906.4</ele><time>2026-05-03T11:34:38.15Z</time></trkpt><trkpt lat="43.7810678" lon="11.614415"><ele>909.8</ele><time>2026-05-03T11:34:39.148Z</time></trkpt><trkpt lat="43.7811348" lon="11.6145332"><ele>913.2</ele><time>2026-05-03T11:34:40.149Z</time></trkpt><trkpt lat="43.7811634" lon="11.6146732"><ele>916.6</ele><time>2026-05-03T11:34:41.149Z</time></trkpt><trkpt lat="43.7811498" lon="11.6148211"><ele>920.0</ele><time>2026-05-03T11:34:42.149Z</time></trkpt><trkpt lat="43.7811056" lon="11.6149663"><ele>919.25</ele><time>2026-05-03T11:34:43.149Z</time></trkpt><trkpt lat="43.7810433" lon="11.6151041"><ele>918.5</ele><time>2026-05-03T11:34:44.148Z</time></trkpt><trkpt lat="43.7809758" lon="11.6152408"><ele>917.75</ele><time>2026-05-03T11:34:45.15Z</time></trkpt><trkpt lat="43.7809071" lon="11.6153817"><ele>917.0</ele><time>2026-05-03T11:34:46.149Z</time></trkpt><trkpt lat="43.7808408" lon="11.6155232"><ele>917.0</ele><time>2026-05-03T11:34:47.149Z</time></trkpt><trkpt lat="43.7807729" lon="11.615666"><ele>917.0</ele><time>2026-05-03T11:34:48.149Z</time></trkpt><trkpt lat="43.7807073" lon="11.6158086"><ele>917.0</ele><time>2026-05-03T11:34:49.15Z</time></trkpt><trkpt lat="43.7806433" lon="11.615955"><ele>917.0</ele><time>2026-05-03T11:34:50.15Z</time></trkpt><trkpt lat="43.7805753" lon="11.6161059"><ele>919.25</ele><time>2026-05-03T11:34:51.15Z</time></trkpt><trkpt lat="43.7805064" lon="11.6162569"><ele>921.5</ele><time>2026-05-03T11:34:52.149Z</time></trkpt><trkpt lat="43.7804377" lon="11.6164095"><ele>923.75</ele><time>2026-05-03T11:34:53.149Z</time></trkpt><trkpt lat="43.7803685" lon="11.6165653"><ele>926.0</ele><time>2026-05-03T11:34:54.15Z</time></trkpt><trkpt lat="43.7803171" lon="11.6167292"><ele>926.0</ele><time>2026-05-03T11:34:55.15Z</time></trkpt><trkpt lat="43.7802989" lon="11.6169006"><ele>926.0</ele><time>2026-05-03T11:34:56.15Z</time></trkpt><trkpt lat="43.7803213" lon="11.6170701"><ele>926.0</ele><time>2026-05-03T11:34:57.15Z</time></trkpt><trkpt lat="43.7803799" lon="11.61722"><ele>926.0</ele><time>2026-05-03T11:34:58.149Z</time></trkpt><trkpt lat="43.7804745" lon="11.6173349"><ele>924.25</ele><time>2026-05-03T11:34:59.15Z</time></trkpt><trkpt lat="43.780591" lon="11.6174181"><ele>922.5</ele><time>2026-05-03T11:35:00.148Z</time></trkpt><trkpt lat="43.7807179" lon="11.6174812"><ele>920.75</ele><time>2026-05-03T11:35:01.15Z</time></trkpt><trkpt lat="43.7808451" lon="11.617551"><ele>919.0</ele><time>2026-05-03T11:35:02.149Z</time></trkpt><trkpt lat="43.7809745" lon="11.6176174"><ele>919.25</ele><time>2026-05-03T11:35:03.15Z</time></trkpt><trkpt lat="43.7811059" lon="11.6176793"><ele>919.5</ele><time>2026-05-03T11:35:04.149Z</time></trkpt><trkpt lat="43.7812363" lon="11.6177468"><ele>919.75</ele><time>2026-05-03T11:35:05.149Z</time></trkpt><trkpt lat="43.781366" lon="11.6178133"><ele>920.0</ele><time>2026-05-03T11:35:06.149Z</time></trkpt><trkpt lat="43.7814956" lon="11.6178769"><ele>920.0</ele><time>2026-05-03T11:35:07.15Z</time></trkpt><trkpt lat="43.7816245" lon="11.6179423"><ele>920.0</ele><time>2026-05-03T11:35:08.149Z</time></trkpt><trkpt lat="43.7817535" lon="11.6180109"><ele>920.0</ele><time>2026-05-03T11:35:09.149Z</time></trkpt><trkpt lat="43.7818786" lon="11.6180874"><ele>920.0</ele><time>2026-05-03T11:35:10.149Z</time></trkpt><trkpt lat="43.782" lon="11.618176"><ele>923.0</ele><time>2026-05-03T11:35:11.149Z</time></trkpt><trkpt lat="43.7821152" lon="11.618282"><ele>926.0</ele><time>2026-05-03T11:35:12.149Z</time></trkpt><trkpt lat="43.7822193" lon="11.6184036"><ele>929.0</ele><time>2026-05-03T11:35:13.149Z</time></trkpt><trkpt lat="43.7823148" lon="11.6185398"><ele>932.0</ele><time>2026-05-03T11:35:14.15Z</time></trkpt><trkpt lat="43.7824087" lon="11.6186782"><ele>932.0</ele><time>2026-05-03T11:35:15.148Z</time></trkpt><trkpt lat="43.7825086" lon="11.6188104"><ele>932.0</ele><time>2026-05-03T11:35:16.149Z</time></trkpt><trkpt lat="43.7826114" lon="11.6189417"><ele>932.0</ele><time>2026-05-03T11:35:17.149Z</time></trkpt><trkpt lat="43.7827148" lon="11.6190716"><ele>932.0</ele><time>2026-05-03T11:35:18.15Z</time></trkpt><trkpt lat="43.7828175" lon="11.6192068"><ele>933.75</ele><time>2026-05-03T11:35:19.149Z</time></trkpt><trkpt lat="43.7829183" lon="11.6193447"><ele>935.5</ele><time>2026-05-03T11:35:20.15Z</time></trkpt><trkpt lat="43.7830168" lon="11.6194852"><ele>937.25</ele><time>2026-05-03T11:35:21.149Z</time></trkpt><trkpt lat="43.7831165" lon="11.6196244"><ele>939.0</ele><time>2026-05-03T11:35:22.15Z</time></trkpt><trkpt lat="43.7832155" lon="11.6197606"><ele>939.0</ele><time>2026-05-03T11:35:23.15Z</time></trkpt><trkpt lat="43.7833162" lon="11.6198926"><ele>939.0</ele><time>2026-05-03T11:35:24.148Z</time></trkpt><trkpt lat="43.7834169" lon="11.6200235"><ele>939.0</ele><time>2026-05-03T11:35:25.149Z</time></trkpt><trkpt lat="43.7835181" lon="11.6201457"><ele>939.0</ele><time>2026-05-03T11:35:26.15Z</time></trkpt><trkpt lat="43.7836281" lon="11.6202379"><ele>942.0</ele><time>2026-05-03T11:35:27.149Z</time></trkpt><trkpt lat="43.783752" lon="11.6202905"><ele>945.0</ele><time>2026-05-03T11:35:28.15Z</time></trkpt><trkpt lat="43.7838809" lon="11.6203022"><ele>948.0</ele><time>2026-05-03T11:35:29.149Z</time></trkpt><trkpt lat="43.7840112" lon="11.6202834"><ele>951.0</ele><time>2026-05-03T11:35:30.149Z</time></trkpt><trkpt lat="43.7841424" lon="11.620245"><ele>951.0</ele><time>2026-05-03T11:35:31.15Z</time></trkpt><trkpt lat="43.7842746" lon="11.6202044"><ele>951.0</ele><time>2026-05-03T11:35:32.149Z</time></trkpt><trkpt lat="43.784407" lon="11.6201654"><ele>951.0</ele><time>2026-05-03T11:35:33.15Z</time></trkpt><trkpt lat="43.7845421" lon="11.6201286"><ele>951.0</ele><time>2026-05-03T11:35:34.15Z</time></trkpt><trkpt lat="43.7846724" lon="11.6200925"><ele>951.0</ele><time>2026-05-03T11:35:35.148Z</time></trkpt><trkpt lat="43.7847996" lon="11.6200573"><ele>951.0</ele><time>2026-05-03T11:35:36.149Z</time></trkpt><trkpt lat="43.7849277" lon="11.6200191"><ele>951.0</ele><time>2026-05-03T11:35:37.15Z</time></trkpt><trkpt lat="43.7850537" lon="11.6199806"><ele>951.0</ele><time>2026-05-03T11:35:38.149Z</time></trkpt><trkpt lat="43.7851783" lon="11.6199437"><ele>950.1999999999999</ele><time>2026-05-03T11:35:39.15Z</time></trkpt><trkpt lat="43.7852897" lon="11.6199132"><ele>949.3999999999999</ele><time>2026-05-03T11:35:40.15Z</time></trkpt><trkpt lat="43.7853928" lon="11.6198821"><ele>948.6</ele><time>2026-05-03T11:35:41.15Z</time></trkpt><trkpt lat="43.7854833" lon="11.6198476"><ele>947.8</ele><time>2026-05-03T11:35:42.149Z</time></trkpt><trkpt lat="43.7855514" lon="11.6198008"><ele>947.0</ele><time>2026-05-03T11:35:43.15Z</time></trkpt><trkpt lat="43.7856068" lon="11.6196797"><ele>947.0</ele><time>2026-05-03T11:35:45.15Z</time></trkpt><trkpt lat="43.7855499" lon="11.6195829"><ele>947.0</ele><time>2026-05-03T11:35:47.15Z</time></trkpt><trkpt lat="43.7854785" lon="11.6195491"><ele>947.0</ele><time>2026-05-03T11:35:48.149Z</time></trkpt><trkpt lat="43.7853804" lon="11.6195406"><ele>947.0</ele><time>2026-05-03T11:35:49.15Z</time></trkpt><trkpt lat="43.7852505" lon="11.6195683"><ele>947.0</ele><time>2026-05-03T11:35:50.15Z</time></trkpt><trkpt lat="43.7851286" lon="11.6196229"><ele>948.0</ele><time>2026-05-03T11:35:51.149Z</time></trkpt><trkpt lat="43.7849952" lon="11.6196702"><ele>949.0</ele><time>2026-05-03T11:35:52.149Z</time></trkpt><trkpt lat="43.784872" lon="11.6196756"><ele>950.0</ele><time>2026-05-03T11:35:53.15Z</time></trkpt><trkpt lat="43.7847525" lon="11.6196496"><ele>951.0</ele><time>2026-05-03T11:35:54.149Z</time></trkpt><trkpt lat="43.7846428" lon="11.6195954"><ele>951.0</ele><time>2026-05-03T11:35:55.15Z</time></trkpt><trkpt lat="43.7845412" lon="11.6195189"><ele>950.9999999999999</ele><time>2026-05-03T11:35:56.15Z</time></trkpt><trkpt lat="43.7844498" lon="11.6194258"><ele>950.9999999999999</ele><time>2026-05-03T11:35:57.149Z</time></trkpt><trkpt lat="43.784373" lon="11.619317"><ele>951.0</ele><time>2026-05-03T11:35:58.15Z</time></trkpt><trkpt lat="43.7843164" lon="11.619186"><ele>951.0</ele><time>2026-05-03T11:35:59.149Z</time></trkpt><trkpt lat="43.7842862" lon="11.6190412"><ele>952.8</ele><time>2026-05-03T11:36:00.15Z</time></trkpt><trkpt lat="43.7842841" lon="11.6188928"><ele>954.5999999999999</ele><time>2026-05-03T11:36:01.149Z</time></trkpt><trkpt lat="43.7842986" lon="11.6187431"><ele>956.4</ele><time>2026-05-03T11:36:02.149Z</time></trkpt><trkpt lat="43.7843166" lon="11.6185918"><ele>958.2</ele><time>2026-05-03T11:36:03.15Z</time></trkpt><trkpt lat="43.7843302" lon="11.6184381"><ele>960.0</ele><time>2026-05-03T11:36:04.149Z</time></trkpt><trkpt lat="43.7843364" lon="11.6182817"><ele>962.25</ele><time>2026-05-03T11:36:05.15Z</time></trkpt><trkpt lat="43.7843378" lon="11.6181249"><ele>964.5</ele><time>2026-05-03T11:36:06.149Z</time></trkpt><trkpt lat="43.7843386" lon="11.6179648"><ele>966.75</ele><time>2026-05-03T11:36:07.15Z</time></trkpt><trkpt lat="43.7843397" lon="11.6178017"><ele>969.0</ele><time>2026-05-03T11:36:08.149Z</time></trkpt><trkpt lat="43.784342" lon="11.6176367"><ele>970.5</ele><time>2026-05-03T11:36:09.148Z</time></trkpt><trkpt lat="43.7843448" lon="11.6174707"><ele>972.0</ele><time>2026-05-03T11:36:10.149Z</time></trkpt><trkpt lat="43.7843386" lon="11.6173042"><ele>973.5</ele><time>2026-05-03T11:36:11.15Z</time></trkpt><trkpt lat="43.7843261" lon="11.6171373"><ele>975.0</ele><time>2026-05-03T11:36:12.148Z</time></trkpt><trkpt lat="43.7843126" lon="11.6169683"><ele>976.75</ele><time>2026-05-03T11:36:13.149Z</time></trkpt><trkpt lat="43.7843033" lon="11.6167985"><ele>978.5</ele><time>2026-05-03T11:36:14.15Z</time></trkpt><trkpt lat="43.7843048" lon="11.6166272"><ele>980.25</ele><time>2026-05-03T11:36:15.15Z</time></trkpt><trkpt lat="43.7843203" lon="11.6164591"><ele>982.0</ele><time>2026-05-03T11:36:16.15Z</time></trkpt><trkpt lat="43.7843546" lon="11.6162986"><ele>984.5</ele><time>2026-05-03T11:36:17.149Z</time></trkpt><trkpt lat="43.7844066" lon="11.616148"><ele>987.0</ele><time>2026-05-03T11:36:18.149Z</time></trkpt><trkpt lat="43.7844764" lon="11.6160149"><ele>989.5</ele><time>2026-05-03T11:36:19.149Z</time></trkpt><trkpt lat="43.7845592" lon="11.6158946"><ele>992.0</ele><time>2026-05-03T11:36:20.15Z</time></trkpt><trkpt lat="43.7846447" lon="11.6157753"><ele>992.0</ele><time>2026-05-03T11:36:21.15Z</time></trkpt><trkpt lat="43.7847287" lon="11.6156523"><ele>992.0</ele><time>2026-05-03T11:36:22.149Z</time></trkpt><trkpt lat="43.7848015" lon="11.6155209"><ele>992.0</ele><time>2026-05-03T11:36:23.149Z</time></trkpt><trkpt lat="43.7848614" lon="11.6153761"><ele>992.0</ele><time>2026-05-03T11:36:24.149Z</time></trkpt><trkpt lat="43.7849099" lon="11.6152223"><ele>992.0</ele><time>2026-05-03T11:36:25.148Z</time></trkpt><trkpt lat="43.7849511" lon="11.6150631"><ele>992.0</ele><time>2026-05-03T11:36:26.15Z</time></trkpt><trkpt lat="43.7849821" lon="11.6149002"><ele>992.0</ele><time>2026-05-03T11:36:27.149Z</time></trkpt><trkpt lat="43.7850086" lon="11.6147325"><ele>992.0</ele><time>2026-05-03T11:36:28.15Z</time></trkpt><trkpt lat="43.7850357" lon="11.6145645"><ele>992.75</ele><time>2026-05-03T11:36:29.148Z</time></trkpt><trkpt lat="43.7850621" lon="11.6143941"><ele>993.5</ele><time>2026-05-03T11:36:30.15Z</time></trkpt><trkpt lat="43.7850887" lon="11.614226"><ele>994.25</ele><time>2026-05-03T11:36:31.15Z</time></trkpt><trkpt lat="43.7851166" lon="11.6140547"><ele>995.0</ele><time>2026-05-03T11:36:32.149Z</time></trkpt><trkpt lat="43.7851519" lon="11.6138812"><ele>995.5</ele><time>2026-05-03T11:36:33.149Z</time></trkpt><trkpt lat="43.7851998" lon="11.6137226"><ele>996.0</ele><time>2026-05-03T11:36:34.15Z</time></trkpt><trkpt lat="43.7852751" lon="11.6135952"><ele>996.5</ele><time>2026-05-03T11:36:35.15Z</time></trkpt><trkpt lat="43.7853772" lon="11.6135029"><ele>997.0</ele><time>2026-05-03T11:36:36.15Z</time></trkpt><trkpt lat="43.7854945" lon="11.6134393"><ele>1000.5</ele><time>2026-05-03T11:36:37.15Z</time></trkpt><trkpt lat="43.7856191" lon="11.6133883"><ele>1004.0</ele><time>2026-05-03T11:36:38.149Z</time></trkpt><trkpt lat="43.7857445" lon="11.6133402"><ele>1007.5</ele><time>2026-05-03T11:36:39.15Z</time></trkpt><trkpt lat="43.7858536" lon="11.6132799"><ele>1011.0</ele><time>2026-05-03T11:36:40.15Z</time></trkpt><trkpt lat="43.7859511" lon="11.6131957"><ele>1008.5</ele><time>2026-05-03T11:36:41.149Z</time></trkpt><trkpt lat="43.7860141" lon="11.6130757"><ele>1006.0</ele><time>2026-05-03T11:36:42.149Z</time></trkpt><trkpt lat="43.7860437" lon="11.6129241"><ele>1003.5</ele><time>2026-05-03T11:36:43.149Z</time></trkpt><trkpt lat="43.7860319" lon="11.61276"><ele>1001.0</ele><time>2026-05-03T11:36:44.15Z</time></trkpt><trkpt lat="43.7860106" lon="11.6125951"><ele>1006.0</ele><time>2026-05-03T11:36:45.149Z</time></trkpt><trkpt lat="43.7859778" lon="11.6124321"><ele>1011.0</ele><time>2026-05-03T11:36:46.15Z</time></trkpt><trkpt lat="43.7859531" lon="11.612258"><ele>1016.0</ele><time>2026-05-03T11:36:47.15Z</time></trkpt><trkpt lat="43.7859423" lon="11.6120793"><ele>1021.0</ele><time>2026-05-03T11:36:48.15Z</time></trkpt><trkpt lat="43.7859353" lon="11.6119075"><ele>1021.75</ele><time>2026-05-03T11:36:49.15Z</time></trkpt><trkpt lat="43.7859161" lon="11.6117388"><ele>1022.5</ele><time>2026-05-03T11:36:50.149Z</time></trkpt><trkpt lat="43.7858728" lon="11.6115797"><ele>1023.25</ele><time>2026-05-03T11:36:51.15Z</time></trkpt><trkpt lat="43.7858143" lon="11.6114295"><ele>1024.0</ele><time>2026-05-03T11:36:52.15Z</time></trkpt><trkpt lat="43.7857462" lon="11.6112844"><ele>1023.5</ele><time>2026-05-03T11:36:53.15Z</time></trkpt><trkpt lat="43.785673" lon="11.6111404"><ele>1023.0</ele><time>2026-05-03T11:36:54.149Z</time></trkpt><trkpt lat="43.7856081" lon="11.6109913"><ele>1022.5</ele><time>2026-05-03T11:36:55.15Z</time></trkpt><trkpt lat="43.7855392" lon="11.610841"><ele>1022.0</ele><time>2026-05-03T11:36:56.15Z</time></trkpt><trkpt lat="43.7854731" lon="11.6106876"><ele>1022.0</ele><time>2026-05-03T11:36:57.15Z</time></trkpt><trkpt lat="43.7854117" lon="11.6105276"><ele>1022.0</ele><time>2026-05-03T11:36:58.15Z</time></trkpt><trkpt lat="43.785375" lon="11.6103549"><ele>1022.0</ele><time>2026-05-03T11:36:59.15Z</time></trkpt><trkpt lat="43.7853455" lon="11.6101869"><ele>1022.0</ele><time>2026-05-03T11:37:00.15Z</time></trkpt><trkpt lat="43.7853195" lon="11.6100185"><ele>1022.0</ele><time>2026-05-03T11:37:01.15Z</time></trkpt><trkpt lat="43.7852945" lon="11.6098498"><ele>1022.0</ele><time>2026-05-03T11:37:02.15Z</time></trkpt><trkpt lat="43.7852672" lon="11.6096793"><ele>1022.0</ele><time>2026-05-03T11:37:03.149Z</time></trkpt><trkpt lat="43.7852364" lon="11.6095094"><ele>1022.0</ele><time>2026-05-03T11:37:04.149Z</time></trkpt><trkpt lat="43.7852068" lon="11.6093374"><ele>1024.75</ele><time>2026-05-03T11:37:05.149Z</time></trkpt><trkpt lat="43.7851788" lon="11.6091634"><ele>1027.5</ele><time>2026-05-03T11:37:06.149Z</time></trkpt><trkpt lat="43.7851504" lon="11.6089887"><ele>1030.25</ele><time>2026-05-03T11:37:07.15Z</time></trkpt><trkpt lat="43.7851202" lon="11.6088147"><ele>1033.0</ele><time>2026-05-03T11:37:08.149Z</time></trkpt><trkpt lat="43.7850898" lon="11.6086395"><ele>1033.0</ele><time>2026-05-03T11:37:09.15Z</time></trkpt><trkpt lat="43.7850617" lon="11.6084618"><ele>1033.0</ele><time>2026-05-03T11:37:10.148Z</time></trkpt><trkpt lat="43.7850331" lon="11.6082848"><ele>1033.0</ele><time>2026-05-03T11:37:11.149Z</time></trkpt><trkpt lat="43.7850039" lon="11.6081052"><ele>1033.0</ele><time>2026-05-03T11:37:12.15Z</time></trkpt><trkpt lat="43.784974" lon="11.6079222"><ele>1033.75</ele><time>2026-05-03T11:37:13.15Z</time></trkpt><trkpt lat="43.7849414" lon="11.6077415"><ele>1034.5</ele><time>2026-05-03T11:37:14.149Z</time></trkpt><trkpt lat="43.7849081" lon="11.6075623"><ele>1035.25</ele><time>2026-05-03T11:37:15.149Z</time></trkpt><trkpt lat="43.7848765" lon="11.6073821"><ele>1036.0</ele><time>2026-05-03T11:37:16.15Z</time></trkpt><trkpt lat="43.7848475" lon="11.6071996"><ele>1036.0</ele><time>2026-05-03T11:37:17.149Z</time></trkpt><trkpt lat="43.7848242" lon="11.607015"><ele>1036.0</ele><time>2026-05-03T11:37:18.15Z</time></trkpt><trkpt lat="43.7848142" lon="11.606827"><ele>1036.0</ele><time>2026-05-03T11:37:19.15Z</time></trkpt><trkpt lat="43.7848205" lon="11.606639"><ele>1036.0</ele><time>2026-05-03T11:37:20.15Z</time></trkpt><trkpt lat="43.784849" lon="11.6064555"><ele>1037.5</ele><time>2026-05-03T11:37:21.149Z</time></trkpt><trkpt lat="43.7848955" lon="11.6062784"><ele>1039.0</ele><time>2026-05-03T11:37:22.15Z</time></trkpt><trkpt lat="43.7849583" lon="11.606108"><ele>1040.5</ele><time>2026-05-03T11:37:23.148Z</time></trkpt><trkpt lat="43.785028" lon="11.6059405"><ele>1042.0</ele><time>2026-05-03T11:37:24.148Z</time></trkpt><trkpt lat="43.785099" lon="11.6057745"><ele>1042.0</ele><time>2026-05-03T11:37:25.15Z</time></trkpt><trkpt lat="43.7851705" lon="11.6056106"><ele>1042.0</ele><time>2026-05-03T11:37:26.149Z</time></trkpt><trkpt lat="43.7852422" lon="11.6054476"><ele>1042.0</ele><time>2026-05-03T11:37:27.149Z</time></trkpt><trkpt lat="43.7853148" lon="11.6052852"><ele>1042.0</ele><time>2026-05-03T11:37:28.15Z</time></trkpt><trkpt lat="43.7853881" lon="11.6051243"><ele>1045.25</ele><time>2026-05-03T11:37:29.15Z</time></trkpt><trkpt lat="43.7854576" lon="11.6049616"><ele>1048.5</ele><time>2026-05-03T11:37:30.15Z</time></trkpt><trkpt lat="43.7855189" lon="11.6048058"><ele>1051.75</ele><time>2026-05-03T11:37:31.15Z</time></trkpt><trkpt lat="43.7855759" lon="11.6046528"><ele>1055.0</ele><time>2026-05-03T11:37:32.15Z</time></trkpt><trkpt lat="43.7856272" lon="11.6044993"><ele>1057.0</ele><time>2026-05-03T11:37:33.149Z</time></trkpt><trkpt lat="43.7856188" lon="11.6043097"><ele>1059.0</ele><time>2026-05-03T11:37:34.149Z</time></trkpt><trkpt lat="43.7855303" lon="11.6041649"><ele>1061.0</ele><time>2026-05-03T11:37:35.149Z</time></trkpt><trkpt lat="43.7853017" lon="11.6042"><ele>1061.0</ele><time>2026-05-03T11:37:36.15Z</time></trkpt><trkpt lat="43.7852063" lon="11.6041164"><ele>1061.0</ele><time>2026-05-03T11:37:37.149Z</time></trkpt><trkpt lat="43.7850856" lon="11.6040755"><ele>1061.0</ele><time>2026-05-03T11:37:38.148Z</time></trkpt><trkpt lat="43.7849562" lon="11.6040605"><ele>1061.0</ele><time>2026-05-03T11:37:39.15Z</time></trkpt><trkpt lat="43.7848306" lon="11.6040463"><ele>1059.5</ele><time>2026-05-03T11:37:40.15Z</time></trkpt><trkpt lat="43.7847089" lon="11.6040207"><ele>1058.0</ele><time>2026-05-03T11:37:41.149Z</time></trkpt><trkpt lat="43.7845924" lon="11.60398"><ele>1056.5</ele><time>2026-05-03T11:37:42.149Z</time></trkpt><trkpt lat="43.7844859" lon="11.6039251"><ele>1055.0</ele><time>2026-05-03T11:37:43.15Z</time></trkpt><trkpt lat="43.7843975" lon="11.6038479"><ele>1054.25</ele><time>2026-05-03T11:37:44.149Z</time></trkpt><trkpt lat="43.7843182" lon="11.6037283"><ele>1053.5</ele><time>2026-05-03T11:37:45.15Z</time></trkpt><trkpt lat="43.7842475" lon="11.6035872"><ele>1052.75</ele><time>2026-05-03T11:37:46.15Z</time></trkpt><trkpt lat="43.7841712" lon="11.6034393"><ele>1052.0</ele><time>2026-05-03T11:37:47.148Z</time></trkpt><trkpt lat="43.7840861" lon="11.6032818"><ele>1054.5</ele><time>2026-05-03T11:37:48.15Z</time></trkpt><trkpt lat="43.783997" lon="11.6031191"><ele>1057.0</ele><time>2026-05-03T11:37:49.15Z</time></trkpt><trkpt lat="43.7839091" lon="11.6029582"><ele>1059.5</ele><time>2026-05-03T11:37:50.15Z</time></trkpt><trkpt lat="43.7838206" lon="11.6027932"><ele>1062.0</ele><time>2026-05-03T11:37:51.149Z</time></trkpt><trkpt lat="43.7837291" lon="11.6026251"><ele>1058.75</ele><time>2026-05-03T11:37:52.149Z</time></trkpt><trkpt lat="43.7836393" lon="11.6024534"><ele>1055.5</ele><time>2026-05-03T11:37:53.15Z</time></trkpt><trkpt lat="43.7835511" lon="11.6022936"><ele>1052.25</ele><time>2026-05-03T11:37:54.149Z</time></trkpt><trkpt lat="43.7834522" lon="11.6021746"><ele>1049.0</ele><time>2026-05-03T11:37:55.149Z</time></trkpt><trkpt lat="43.7833389" lon="11.6020842"><ele>1049.0</ele><time>2026-05-03T11:37:56.15Z</time></trkpt><trkpt lat="43.7832298" lon="11.6020241"><ele>1049.0</ele><time>2026-05-03T11:37:57.15Z</time></trkpt><trkpt lat="43.7831334" lon="11.601953"><ele>1049.0</ele><time>2026-05-03T11:37:58.148Z</time></trkpt><trkpt lat="43.7830609" lon="11.6018517"><ele>1049.0</ele><time>2026-05-03T11:37:59.15Z</time></trkpt><trkpt lat="43.783006" lon="11.6017241"><ele>1049.0</ele><time>2026-05-03T11:38:00.15Z</time></trkpt><trkpt lat="43.7829646" lon="11.6015837"><ele>1052.4</ele><time>2026-05-03T11:38:01.148Z</time></trkpt><trkpt lat="43.7829429" lon="11.6014454"><ele>1055.8000000000002</ele><time>2026-05-03T11:38:02.15Z</time></trkpt><trkpt lat="43.7829413" lon="11.6013064"><ele>1059.1999999999998</ele><time>2026-05-03T11:38:03.149Z</time></trkpt><trkpt lat="43.7829549" lon="11.6011715"><ele>1062.6</ele><time>2026-05-03T11:38:04.149Z</time></trkpt><trkpt lat="43.7829694" lon="11.6010339"><ele>1066.0</ele><time>2026-05-03T11:38:05.15Z</time></trkpt><trkpt lat="43.782982" lon="11.6008955"><ele>1066.0</ele><time>2026-05-03T11:38:06.15Z</time></trkpt><trkpt lat="43.7829906" lon="11.6007543"><ele>1066.0</ele><time>2026-05-03T11:38:07.15Z</time></trkpt><trkpt lat="43.7829926" lon="11.6006095"><ele>1066.0</ele><time>2026-05-03T11:38:08.148Z</time></trkpt><trkpt lat="43.7829863" lon="11.6004638"><ele>1066.0</ele><time>2026-05-03T11:38:09.149Z</time></trkpt><trkpt lat="43.7829774" lon="11.600317"><ele>1066.0</ele><time>2026-05-03T11:38:10.149Z</time></trkpt><trkpt lat="43.7829679" lon="11.6001681"><ele>1064.0</ele><time>2026-05-03T11:38:11.149Z</time></trkpt><trkpt lat="43.7829593" lon="11.6000178"><ele>1062.0</ele><time>2026-05-03T11:38:12.15Z</time></trkpt><trkpt lat="43.7829502" lon="11.5998659"><ele>1060.0</ele><time>2026-05-03T11:38:13.148Z</time></trkpt><trkpt lat="43.7829403" lon="11.5997113"><ele>1058.0</ele><time>2026-05-03T11:38:14.15Z</time></trkpt><trkpt lat="43.7829298" lon="11.5995546"><ele>1056.0</ele><time>2026-05-03T11:38:15.148Z</time></trkpt><trkpt lat="43.7829178" lon="11.5993964"><ele>1054.75</ele><time>2026-05-03T11:38:16.149Z</time></trkpt><trkpt lat="43.7829064" lon="11.5992365"><ele>1053.5</ele><time>2026-05-03T11:38:17.15Z</time></trkpt><trkpt lat="43.7828901" lon="11.5990758"><ele>1052.25</ele><time>2026-05-03T11:38:18.149Z</time></trkpt><trkpt lat="43.7828601" lon="11.5989201"><ele>1051.0</ele><time>2026-05-03T11:38:19.149Z</time></trkpt><trkpt lat="43.7828182" lon="11.5987713"><ele>1052.75</ele><time>2026-05-03T11:38:20.149Z</time></trkpt><trkpt lat="43.7827652" lon="11.5986223"><ele>1054.5</ele><time>2026-05-03T11:38:21.15Z</time></trkpt><trkpt lat="43.7827054" lon="11.5984795"><ele>1056.25</ele><time>2026-05-03T11:38:22.15Z</time></trkpt><trkpt lat="43.7826369" lon="11.5983382"><ele>1058.0</ele><time>2026-05-03T11:38:23.15Z</time></trkpt><trkpt lat="43.7825632" lon="11.5982055"><ele>1053.5</ele><time>2026-05-03T11:38:24.149Z</time></trkpt><trkpt lat="43.7824776" lon="11.5980874"><ele>1049.0</ele><time>2026-05-03T11:38:25.15Z</time></trkpt><trkpt lat="43.7823792" lon="11.5979893"><ele>1044.5</ele><time>2026-05-03T11:38:26.149Z</time></trkpt><trkpt lat="43.7822736" lon="11.5979054"><ele>1040.0</ele><time>2026-05-03T11:38:27.15Z</time></trkpt><trkpt lat="43.7821639" lon="11.5978295"><ele>1040.0</ele><time>2026-05-03T11:38:28.149Z</time></trkpt><trkpt lat="43.7820501" lon="11.597756"><ele>1040.0</ele><time>2026-05-03T11:38:29.15Z</time></trkpt><trkpt lat="43.781939" lon="11.5976802"><ele>1040.0</ele><time>2026-05-03T11:38:30.15Z</time></trkpt><trkpt lat="43.7818261" lon="11.5976014"><ele>1040.0</ele><time>2026-05-03T11:38:31.15Z</time></trkpt><trkpt lat="43.7817172" lon="11.5975207"><ele>1036.25</ele><time>2026-05-03T11:38:32.148Z</time></trkpt><trkpt lat="43.7816061" lon="11.5974285"><ele>1032.5</ele><time>2026-05-03T11:38:33.149Z</time></trkpt><trkpt lat="43.7815013" lon="11.5973303"><ele>1028.75</ele><time>2026-05-03T11:38:34.149Z</time></trkpt><trkpt lat="43.7814107" lon="11.5972206"><ele>1025.0</ele><time>2026-05-03T11:38:35.15Z</time></trkpt><trkpt lat="43.7813283" lon="11.5971098"><ele>1024.4</ele><time>2026-05-03T11:38:36.149Z</time></trkpt><trkpt lat="43.7812596" lon="11.5969839"><ele>1023.8</ele><time>2026-05-03T11:38:37.15Z</time></trkpt><trkpt lat="43.781198" lon="11.5968551"><ele>1023.2</ele><time>2026-05-03T11:38:38.149Z</time></trkpt><trkpt lat="43.7811425" lon="11.5967312"><ele>1022.6</ele><time>2026-05-03T11:38:39.15Z</time></trkpt><trkpt lat="43.7810851" lon="11.5966125"><ele>1022.0</ele><time>2026-05-03T11:38:40.15Z</time></trkpt><trkpt lat="43.781034" lon="11.5965185"><ele>1022.0000000000001</ele><time>2026-05-03T11:38:41.15Z</time></trkpt><trkpt lat="43.7809907" lon="11.5964544"><ele>1022.0</ele><time>2026-05-03T11:38:42.149Z</time></trkpt><trkpt lat="43.7809015" lon="11.5963654"><ele>1022.0</ele><time>2026-05-03T11:38:44.15Z</time></trkpt><trkpt lat="43.7807945" lon="11.59628"><ele>1022.0</ele><time>2026-05-03T11:38:46.149Z</time></trkpt><trkpt lat="43.7807364" lon="11.5962317"><ele>1022.0000000000001</ele><time>2026-05-03T11:38:47.15Z</time></trkpt><trkpt lat="43.7806754" lon="11.5961677"><ele>1022.0</ele><time>2026-05-03T11:38:48.15Z</time></trkpt><trkpt lat="43.7806108" lon="11.5960917"><ele>1021.0</ele><time>2026-05-03T11:38:49.15Z</time></trkpt><trkpt lat="43.7805459" lon="11.5960084"><ele>1020.0</ele><time>2026-05-03T11:38:50.148Z</time></trkpt><trkpt lat="43.7804736" lon="11.5959265"><ele>1019.0</ele><time>2026-05-03T11:38:51.149Z</time></trkpt><trkpt lat="43.7803983" lon="11.5958401"><ele>1018.0</ele><time>2026-05-03T11:38:52.15Z</time></trkpt><trkpt lat="43.780319" lon="11.595754"><ele>1017.0</ele><time>2026-05-03T11:38:53.15Z</time></trkpt><trkpt lat="43.7802355" lon="11.5956731"><ele>1017.2</ele><time>2026-05-03T11:38:54.15Z</time></trkpt><trkpt lat="43.7801533" lon="11.5955897"><ele>1017.4000000000001</ele><time>2026-05-03T11:38:55.15Z</time></trkpt><trkpt lat="43.7800712" lon="11.5954987"><ele>1017.5999999999999</ele><time>2026-05-03T11:38:56.15Z</time></trkpt><trkpt lat="43.7799883" lon="11.5954021"><ele>1017.8</ele><time>2026-05-03T11:38:57.15Z</time></trkpt><trkpt lat="43.779909" lon="11.5952996"><ele>1018.0</ele><time>2026-05-03T11:38:58.15Z</time></trkpt><trkpt lat="43.7798402" lon="11.5951839"><ele>1018.0</ele><time>2026-05-03T11:38:59.149Z</time></trkpt><trkpt lat="43.7797802" lon="11.5950474"><ele>1018.0</ele><time>2026-05-03T11:39:00.15Z</time></trkpt><trkpt lat="43.779735" lon="11.5949005"><ele>1018.0</ele><time>2026-05-03T11:39:01.15Z</time></trkpt><trkpt lat="43.7797033" lon="11.5947477"><ele>1018.0</ele><time>2026-05-03T11:39:02.15Z</time></trkpt><trkpt lat="43.779681" lon="11.5945937"><ele>1017.5999999999999</ele><time>2026-05-03T11:39:03.149Z</time></trkpt><trkpt lat="43.7796653" lon="11.5944384"><ele>1017.1999999999999</ele><time>2026-05-03T11:39:04.149Z</time></trkpt><trkpt lat="43.779648" lon="11.5942858"><ele>1016.8</ele><time>2026-05-03T11:39:05.15Z</time></trkpt><trkpt lat="43.7796351" lon="11.5941413"><ele>1016.4</ele><time>2026-05-03T11:39:06.15Z</time></trkpt><trkpt lat="43.7796246" lon="11.5940054"><ele>1016.0</ele><time>2026-05-03T11:39:07.15Z</time></trkpt><trkpt lat="43.7796147" lon="11.5938693"><ele>1016.0</ele><time>2026-05-03T11:39:08.15Z</time></trkpt><trkpt lat="43.7796108" lon="11.5937332"><ele>1015.9999999999999</ele><time>2026-05-03T11:39:09.149Z</time></trkpt><trkpt lat="43.7796237" lon="11.5935985"><ele>1015.9999999999999</ele><time>2026-05-03T11:39:10.149Z</time></trkpt><trkpt lat="43.7796453" lon="11.5934879"><ele>1016.0</ele><time>2026-05-03T11:39:11.149Z</time></trkpt><trkpt lat="43.7796855" lon="11.5934154"><ele>1016.0</ele><time>2026-05-03T11:39:12.15Z</time></trkpt><trkpt lat="43.7797673" lon="11.5932759"><ele>1016.3333333333334</ele><time>2026-05-03T11:39:14.149Z</time></trkpt><trkpt lat="43.7797977" lon="11.5931897"><ele>1016.6666666666667</ele><time>2026-05-03T11:39:15.149Z</time></trkpt><trkpt lat="43.7798164" lon="11.5930895"><ele>1017.0</ele><time>2026-05-03T11:39:16.15Z</time></trkpt><trkpt lat="43.7798374" lon="11.5929727"><ele>1017.3333333333333</ele><time>2026-05-03T11:39:17.149Z</time></trkpt><trkpt lat="43.7798503" lon="11.5928416"><ele>1017.6666666666666</ele><time>2026-05-03T11:39:18.149Z</time></trkpt><trkpt lat="43.7798603" lon="11.5927078"><ele>1018.0</ele><time>2026-05-03T11:39:19.149Z</time></trkpt><trkpt lat="43.7798041" lon="11.5925674"><ele>1018.0</ele><time>2026-05-03T11:39:20.15Z</time></trkpt><trkpt lat="43.7797424" lon="11.5924395"><ele>1018.0</ele><time>2026-05-03T11:39:21.15Z</time></trkpt><trkpt lat="43.7796814" lon="11.592296"><ele>1018.0</ele><time>2026-05-03T11:39:22.149Z</time></trkpt><trkpt lat="43.7796193" lon="11.5921635"><ele>1018.0</ele><time>2026-05-03T11:39:23.15Z</time></trkpt><trkpt lat="43.7795715" lon="11.592032"><ele>1017.1666666666666</ele><time>2026-05-03T11:39:24.149Z</time></trkpt><trkpt lat="43.7795586" lon="11.5918988"><ele>1016.3333333333333</ele><time>2026-05-03T11:39:25.149Z</time></trkpt><trkpt lat="43.7795202" lon="11.5917802"><ele>1015.5</ele><time>2026-05-03T11:39:26.149Z</time></trkpt><trkpt lat="43.7794908" lon="11.5916758"><ele>1014.6666666666667</ele><time>2026-05-03T11:39:27.15Z</time></trkpt><trkpt lat="43.779421" lon="11.5916091"><ele>1013.8333333333334</ele><time>2026-05-03T11:39:28.15Z</time></trkpt><trkpt lat="43.7793501" lon="11.5916328"><ele>1013.0</ele><time>2026-05-03T11:39:29.149Z</time></trkpt><trkpt lat="43.7792299" lon="11.5916524"><ele>1012.3333333333334</ele><time>2026-05-03T11:39:31.15Z</time></trkpt><trkpt lat="43.7791692" lon="11.5917248"><ele>1011.6666666666667</ele><time>2026-05-03T11:39:32.15Z</time></trkpt><trkpt lat="43.7790867" lon="11.5918182"><ele>1011.0</ele><time>2026-05-03T11:39:33.149Z</time></trkpt><trkpt lat="43.7790107" lon="11.5918791"><ele>1010.3333333333333</ele><time>2026-05-03T11:39:34.15Z</time></trkpt><trkpt lat="43.7789395" lon="11.5919545"><ele>1009.6666666666666</ele><time>2026-05-03T11:39:35.149Z</time></trkpt><trkpt lat="43.7788728" lon="11.5920132"><ele>1009.0</ele><time>2026-05-03T11:39:36.15Z</time></trkpt><trkpt lat="43.7787849" lon="11.591973"><ele>1009.0</ele><time>2026-05-03T11:39:39.149Z</time></trkpt><trkpt lat="43.7787741" lon="11.5918671"><ele>1009.0000000000001</ele><time>2026-05-03T11:39:41.149Z</time></trkpt><trkpt lat="43.7788003" lon="11.5916952"><ele>1009.0000000000001</ele><time>2026-05-03T11:39:44.15Z</time></trkpt><trkpt lat="43.7788348" lon="11.5915288"><ele>1009.0</ele><time>2026-05-03T11:39:46.15Z</time></trkpt><trkpt lat="43.7789145" lon="11.5914703"><ele>1009.0</ele><time>2026-05-03T11:39:47.15Z</time></trkpt><trkpt lat="43.7789857" lon="11.5914059"><ele>1008.9999999999999</ele><time>2026-05-03T11:39:48.149Z</time></trkpt><trkpt lat="43.7790275" lon="11.5913243"><ele>1009.0</ele><time>2026-05-03T11:39:49.15Z</time></trkpt><trkpt lat="43.7790731" lon="11.5912471"><ele>1009.0</ele><time>2026-05-03T11:39:50.15Z</time></trkpt><trkpt lat="43.7791138" lon="11.5910996"><ele>1009.0</ele><time>2026-05-03T11:39:52.15Z</time></trkpt><trkpt lat="43.7791555" lon="11.5910267"><ele>1008.9999999999999</ele><time>2026-05-03T11:39:53.149Z</time></trkpt><trkpt lat="43.7791705" lon="11.5909061"><ele>1009.0</ele><time>2026-05-03T11:39:54.15Z</time></trkpt><trkpt lat="43.7791825" lon="11.590785"><ele>1007.8333333333333</ele><time>2026-05-03T11:39:55.149Z</time></trkpt><trkpt lat="43.7791834" lon="11.590668"><ele>1006.6666666666666</ele><time>2026-05-03T11:39:56.149Z</time></trkpt><trkpt lat="43.7792164" lon="11.5905647"><ele>1005.5</ele><time>2026-05-03T11:39:57.15Z</time></trkpt><trkpt lat="43.7792186" lon="11.5904667"><ele>1004.3333333333333</ele><time>2026-05-03T11:39:58.15Z</time></trkpt><trkpt lat="43.7791966" lon="11.590358"><ele>1003.1666666666666</ele><time>2026-05-03T11:39:59.15Z</time></trkpt><trkpt lat="43.7792326" lon="11.5902657"><ele>1002.0</ele><time>2026-05-03T11:40:00.149Z</time></trkpt><trkpt lat="43.7793205" lon="11.5901401"><ele>998.6</ele><time>2026-05-03T11:40:02.148Z</time></trkpt><trkpt lat="43.7794162" lon="11.5901319"><ele>995.2</ele><time>2026-05-03T11:40:03.149Z</time></trkpt><trkpt lat="43.7794902" lon="11.5900874"><ele>991.8</ele><time>2026-05-03T11:40:04.149Z</time></trkpt><trkpt lat="43.7795814" lon="11.590043"><ele>988.4</ele><time>2026-05-03T11:40:05.149Z</time></trkpt><trkpt lat="43.7796866" lon="11.5899628"><ele>985.0</ele><time>2026-05-03T11:40:06.15Z</time></trkpt><trkpt lat="43.7797536" lon="11.589841"><ele>984.9999999999999</ele><time>2026-05-03T11:40:07.149Z</time></trkpt><trkpt lat="43.7796822" lon="11.5897031"><ele>985.0</ele><time>2026-05-03T11:40:08.148Z</time></trkpt><trkpt lat="43.7797066" lon="11.5895941"><ele>985.0</ele><time>2026-05-03T11:40:09.149Z</time></trkpt><trkpt lat="43.7796743" lon="11.589488"><ele>985.0</ele><time>2026-05-03T11:40:10.15Z</time></trkpt><trkpt lat="43.7796947" lon="11.5893913"><ele>984.9999999999999</ele><time>2026-05-03T11:40:11.15Z</time></trkpt><trkpt lat="43.77971" lon="11.5893037"><ele>985.0</ele><time>2026-05-03T11:40:12.15Z</time></trkpt><trkpt lat="43.7798261" lon="11.5892153"><ele>985.4</ele><time>2026-05-03T11:40:14.15Z</time></trkpt><trkpt lat="43.7798695" lon="11.5891464"><ele>985.8</ele><time>2026-05-03T11:40:15.15Z</time></trkpt><trkpt lat="43.7799068" lon="11.5889906"><ele>986.2</ele><time>2026-05-03T11:40:17.149Z</time></trkpt><trkpt lat="43.7798689" lon="11.5888885"><ele>986.6</ele><time>2026-05-03T11:40:18.15Z</time></trkpt><trkpt lat="43.7798338" lon="11.5887796"><ele>987.0</ele><time>2026-05-03T11:40:19.15Z</time></trkpt><trkpt lat="43.7797635" lon="11.5886514"><ele>987.0</ele><time>2026-05-03T11:40:20.149Z</time></trkpt><trkpt lat="43.7797438" lon="11.5885324"><ele>987.0</ele><time>2026-05-03T11:40:21.15Z</time></trkpt><trkpt lat="43.7797242" lon="11.5884197"><ele>987.0</ele><time>2026-05-03T11:40:22.15Z</time></trkpt><trkpt lat="43.7797146" lon="11.5883165"><ele>987.0</ele><time>2026-05-03T11:40:23.15Z</time></trkpt><trkpt lat="43.7796983" lon="11.5882181"><ele>987.0</ele><time>2026-05-03T11:40:24.15Z</time></trkpt><trkpt lat="43.7800116" lon="11.588348"><ele>987.0</ele><time>2026-05-03T11:40:25.149Z</time></trkpt><trkpt lat="43.7800901" lon="11.5883489"><ele>987.0</ele><time>2026-05-03T11:40:26.15Z</time></trkpt><trkpt lat="43.7801702" lon="11.5883638"><ele>987.0</ele><time>2026-05-03T11:40:27.15Z</time></trkpt><trkpt lat="43.7802966" lon="11.588438"><ele>987.0</ele><time>2026-05-03T11:40:28.15Z</time></trkpt><trkpt lat="43.7803927" lon="11.5884711"><ele>987.0</ele><time>2026-05-03T11:40:29.148Z</time></trkpt><trkpt lat="43.7805418" lon="11.5884797"><ele>986.6</ele><time>2026-05-03T11:40:30.15Z</time></trkpt><trkpt lat="43.7806565" lon="11.5884986"><ele>986.2</ele><time>2026-05-03T11:40:31.15Z</time></trkpt><trkpt lat="43.7807653" lon="11.5885354"><ele>985.8</ele><time>2026-05-03T11:40:32.149Z</time></trkpt><trkpt lat="43.7808651" lon="11.5885352"><ele>985.4</ele><time>2026-05-03T11:40:33.149Z</time></trkpt><trkpt lat="43.7809422" lon="11.5885175"><ele>985.0</ele><time>2026-05-03T11:40:34.15Z</time></trkpt><trkpt lat="43.7810242" lon="11.5884884"><ele>984.9999999999999</ele><time>2026-05-03T11:40:35.15Z</time></trkpt><trkpt lat="43.7810949" lon="11.5884088"><ele>985.0</ele><time>2026-05-03T11:40:36.15Z</time></trkpt><trkpt lat="43.7811416" lon="11.5883251"><ele>985.0</ele><time>2026-05-03T11:40:37.15Z</time></trkpt><trkpt lat="43.7812001" lon="11.5882889"><ele>985.0</ele><time>2026-05-03T11:40:38.15Z</time></trkpt><trkpt lat="43.781292" lon="11.5882898"><ele>984.9999999999999</ele><time>2026-05-03T11:40:39.149Z</time></trkpt><trkpt lat="43.7813764" lon="11.5883043"><ele>985.0</ele><time>2026-05-03T11:40:40.15Z</time></trkpt><trkpt lat="43.7814679" lon="11.5883322"><ele>985.0</ele><time>2026-05-03T11:40:41.149Z</time></trkpt><trkpt lat="43.7815888" lon="11.5883562"><ele>985.0</ele><time>2026-05-03T11:40:42.15Z</time></trkpt><trkpt lat="43.781701" lon="11.588385"><ele>985.0</ele><time>2026-05-03T11:40:43.15Z</time></trkpt><trkpt lat="43.7818074" lon="11.5884091"><ele>985.0</ele><time>2026-05-03T11:40:44.15Z</time></trkpt><trkpt lat="43.7819119" lon="11.5884394"><ele>983.4</ele><time>2026-05-03T11:40:45.15Z</time></trkpt><trkpt lat="43.7820083" lon="11.5884623"><ele>981.8</ele><time>2026-05-03T11:40:46.15Z</time></trkpt><trkpt lat="43.7820953" lon="11.5884401"><ele>980.2</ele><time>2026-05-03T11:40:47.149Z</time></trkpt><trkpt lat="43.7821591" lon="11.5883559"><ele>978.6</ele><time>2026-05-03T11:40:48.149Z</time></trkpt><trkpt lat="43.7822068" lon="11.5882344"><ele>977.0</ele><time>2026-05-03T11:40:49.149Z</time></trkpt><trkpt lat="43.7822782" lon="11.5881149"><ele>977.0</ele><time>2026-05-03T11:40:50.148Z</time></trkpt><trkpt lat="43.782341" lon="11.5879852"><ele>977.0</ele><time>2026-05-03T11:40:51.15Z</time></trkpt><trkpt lat="43.7823827" lon="11.5878642"><ele>977.0</ele><time>2026-05-03T11:40:52.15Z</time></trkpt><trkpt lat="43.7824387" lon="11.5877596"><ele>977.0</ele><time>2026-05-03T11:40:53.15Z</time></trkpt><trkpt lat="43.7825092" lon="11.5877062"><ele>977.0</ele><time>2026-05-03T11:40:54.15Z</time></trkpt><trkpt lat="43.7825698" lon="11.5876674"><ele>978.2</ele><time>2026-05-03T11:40:55.15Z</time></trkpt><trkpt lat="43.7826753" lon="11.5877053"><ele>979.4000000000001</ele><time>2026-05-03T11:40:57.15Z</time></trkpt><trkpt lat="43.782775" lon="11.58772"><ele>980.5999999999999</ele><time>2026-05-03T11:40:59.15Z</time></trkpt><trkpt lat="43.7828428" lon="11.5876821"><ele>981.8</ele><time>2026-05-03T11:41:00.15Z</time></trkpt><trkpt lat="43.7829375" lon="11.5875342"><ele>983.0</ele><time>2026-05-03T11:41:02.149Z</time></trkpt><trkpt lat="43.7829493" lon="11.5874305"><ele>980.8</ele><time>2026-05-03T11:41:03.149Z</time></trkpt><trkpt lat="43.7829809" lon="11.5873085"><ele>978.5999999999999</ele><time>2026-05-03T11:41:04.15Z</time></trkpt><trkpt lat="43.782943" lon="11.5871535"><ele>976.4000000000001</ele><time>2026-05-03T11:41:05.15Z</time></trkpt><trkpt lat="43.7829757" lon="11.5870018"><ele>974.2</ele><time>2026-05-03T11:41:06.15Z</time></trkpt><trkpt lat="43.783001" lon="11.5868476"><ele>972.0</ele><time>2026-05-03T11:41:07.15Z</time></trkpt><trkpt lat="43.7830757" lon="11.5867172"><ele>972.0</ele><time>2026-05-03T11:41:08.149Z</time></trkpt><trkpt lat="43.7831237" lon="11.586578"><ele>972.0</ele><time>2026-05-03T11:41:09.148Z</time></trkpt><trkpt lat="43.7831938" lon="11.5864494"><ele>972.0</ele><time>2026-05-03T11:41:10.149Z</time></trkpt><trkpt lat="43.7832436" lon="11.5863262"><ele>972.0</ele><time>2026-05-03T11:41:11.149Z</time></trkpt><trkpt lat="43.7832865" lon="11.5861798"><ele>972.0</ele><time>2026-05-03T11:41:12.149Z</time></trkpt><trkpt lat="43.7833491" lon="11.5860171"><ele>973.0</ele><time>2026-05-03T11:41:13.15Z</time></trkpt><trkpt lat="43.7834308" lon="11.5858432"><ele>974.0</ele><time>2026-05-03T11:41:14.149Z</time></trkpt><trkpt lat="43.7835036" lon="11.5856796"><ele>975.0</ele><time>2026-05-03T11:41:15.149Z</time></trkpt><trkpt lat="43.7835661" lon="11.5855137"><ele>976.0</ele><time>2026-05-03T11:41:16.15Z</time></trkpt><trkpt lat="43.7836482" lon="11.5853629"><ele>973.0</ele><time>2026-05-03T11:41:17.15Z</time></trkpt><trkpt lat="43.7837317" lon="11.5852198"><ele>970.0</ele><time>2026-05-03T11:41:18.15Z</time></trkpt><trkpt lat="43.7838202" lon="11.5850691"><ele>967.0</ele><time>2026-05-03T11:41:19.15Z</time></trkpt><trkpt lat="43.7838664" lon="11.5849398"><ele>964.0</ele><time>2026-05-03T11:41:20.15Z</time></trkpt><trkpt lat="43.7839537" lon="11.5848357"><ele>964.0</ele><time>2026-05-03T11:41:21.15Z</time></trkpt><trkpt lat="43.7841471" lon="11.5848092"><ele>964.0</ele><time>2026-05-03T11:41:22.15Z</time></trkpt><trkpt lat="43.7842427" lon="11.5847605"><ele>964.0</ele><time>2026-05-03T11:41:23.15Z</time></trkpt><trkpt lat="43.7843599" lon="11.584731"><ele>964.0</ele><time>2026-05-03T11:41:24.15Z</time></trkpt><trkpt lat="43.7844919" lon="11.5847421"><ele>962.9999999999999</ele><time>2026-05-03T11:41:25.149Z</time></trkpt><trkpt lat="43.7846008" lon="11.5847611"><ele>962.0</ele><time>2026-05-03T11:41:26.149Z</time></trkpt><trkpt lat="43.784678" lon="11.5848155"><ele>961.0</ele><time>2026-05-03T11:41:27.148Z</time></trkpt><trkpt lat="43.7847678" lon="11.5848801"><ele>960.0</ele><time>2026-05-03T11:41:28.15Z</time></trkpt><trkpt lat="43.7848363" lon="11.5849269"><ele>958.9999999999999</ele><time>2026-05-03T11:41:29.15Z</time></trkpt><trkpt lat="43.7849019" lon="11.5849301"><ele>958.0</ele><time>2026-05-03T11:41:30.15Z</time></trkpt><trkpt lat="43.7849996" lon="11.5848359"><ele>958.0</ele><time>2026-05-03T11:41:32.15Z</time></trkpt><trkpt lat="43.7850522" lon="11.5847383"><ele>958.0</ele><time>2026-05-03T11:41:33.15Z</time></trkpt><trkpt lat="43.7850554" lon="11.584548"><ele>958.0</ele><time>2026-05-03T11:41:34.15Z</time></trkpt><trkpt lat="43.7850403" lon="11.5844211"><ele>958.0</ele><time>2026-05-03T11:41:35.149Z</time></trkpt><trkpt lat="43.7850078" lon="11.5842962"><ele>958.0</ele><time>2026-05-03T11:41:36.15Z</time></trkpt><trkpt lat="43.7849632" lon="11.5841671"><ele>957.8</ele><time>2026-05-03T11:41:37.15Z</time></trkpt><trkpt lat="43.7849038" lon="11.5840404"><ele>957.5999999999999</ele><time>2026-05-03T11:41:38.149Z</time></trkpt><trkpt lat="43.78485" lon="11.583929"><ele>957.4000000000001</ele><time>2026-05-03T11:41:39.15Z</time></trkpt><trkpt lat="43.7847401" lon="11.5839228"><ele>957.2</ele><time>2026-05-03T11:41:40.15Z</time></trkpt><trkpt lat="43.7846713" lon="11.583843"><ele>957.0</ele><time>2026-05-03T11:41:41.15Z</time></trkpt><trkpt lat="43.7846063" lon="11.5837694"><ele>957.0</ele><time>2026-05-03T11:41:42.149Z</time></trkpt><trkpt lat="43.7845698" lon="11.5836852"><ele>957.0</ele><time>2026-05-03T11:41:43.15Z</time></trkpt><trkpt lat="43.7845103" lon="11.5836058"><ele>957.0</ele><time>2026-05-03T11:41:44.149Z</time></trkpt><trkpt lat="43.7844818" lon="11.5835024"><ele>957.0</ele><time>2026-05-03T11:41:45.149Z</time></trkpt><trkpt lat="43.7844745" lon="11.5833968"><ele>957.0</ele><time>2026-05-03T11:41:46.15Z</time></trkpt><trkpt lat="43.7845671" lon="11.5833389"><ele>957.0</ele><time>2026-05-03T11:41:47.15Z</time></trkpt><trkpt lat="43.7846171" lon="11.5832724"><ele>956.0</ele><time>2026-05-03T11:41:48.149Z</time></trkpt><trkpt lat="43.78469" lon="11.5831198"><ele>955.0</ele><time>2026-05-03T11:41:50.15Z</time></trkpt><trkpt lat="43.7847455" lon="11.5830508"><ele>954.0</ele><time>2026-05-03T11:41:51.149Z</time></trkpt><trkpt lat="43.7847951" lon="11.5829705"><ele>953.0</ele><time>2026-05-03T11:41:52.149Z</time></trkpt><trkpt lat="43.7848723" lon="11.5829159"><ele>952.0</ele><time>2026-05-03T11:41:53.149Z</time></trkpt><trkpt lat="43.7849445" lon="11.5828593"><ele>950.25</ele><time>2026-05-03T11:41:54.15Z</time></trkpt><trkpt lat="43.7850341" lon="11.5827312"><ele>948.5</ele><time>2026-05-03T11:41:55.15Z</time></trkpt><trkpt lat="43.7850981" lon="11.582595"><ele>946.75</ele><time>2026-05-03T11:41:56.15Z</time></trkpt><trkpt lat="43.7851599" lon="11.5824571"><ele>945.0</ele><time>2026-05-03T11:41:57.15Z</time></trkpt><trkpt lat="43.7852307" lon="11.5823047"><ele>945.0</ele><time>2026-05-03T11:41:58.15Z</time></trkpt><trkpt lat="43.7852841" lon="11.5821785"><ele>945.0</ele><time>2026-05-03T11:41:59.15Z</time></trkpt><trkpt lat="43.7853248" lon="11.5820414"><ele>945.0</ele><time>2026-05-03T11:42:00.148Z</time></trkpt><trkpt lat="43.7853557" lon="11.5819135"><ele>945.0</ele><time>2026-05-03T11:42:01.149Z</time></trkpt><trkpt lat="43.7854145" lon="11.5817939"><ele>945.0</ele><time>2026-05-03T11:42:02.15Z</time></trkpt><trkpt lat="43.7854806" lon="11.5816813"><ele>946.8</ele><time>2026-05-03T11:42:03.149Z</time></trkpt><trkpt lat="43.7855979" lon="11.5816121"><ele>948.6</ele><time>2026-05-03T11:42:04.15Z</time></trkpt><trkpt lat="43.7856698" lon="11.5815359"><ele>950.4000000000001</ele><time>2026-05-03T11:42:05.149Z</time></trkpt><trkpt lat="43.7857766" lon="11.5815043"><ele>952.2</ele><time>2026-05-03T11:42:06.149Z</time></trkpt><trkpt lat="43.7858711" lon="11.5814788"><ele>954.0</ele><time>2026-05-03T11:42:07.149Z</time></trkpt><trkpt lat="43.7859708" lon="11.5814549"><ele>954.0</ele><time>2026-05-03T11:42:08.15Z</time></trkpt><trkpt lat="43.7860586" lon="11.5814287"><ele>954.0</ele><time>2026-05-03T11:42:09.15Z</time></trkpt><trkpt lat="43.7861363" lon="11.5813837"><ele>954.0</ele><time>2026-05-03T11:42:10.15Z</time></trkpt><trkpt lat="43.7861991" lon="11.5813436"><ele>954.0</ele><time>2026-05-03T11:42:11.149Z</time></trkpt><trkpt lat="43.7862617" lon="11.5812938"><ele>954.0</ele><time>2026-05-03T11:42:12.15Z</time></trkpt><trkpt lat="43.7862829" lon="11.5811881"><ele>954.0</ele><time>2026-05-03T11:42:13.15Z</time></trkpt><trkpt lat="43.7862963" lon="11.5810655"><ele>954.0</ele><time>2026-05-03T11:42:14.15Z</time></trkpt><trkpt lat="43.7862786" lon="11.5809633"><ele>954.0</ele><time>2026-05-03T11:42:15.149Z</time></trkpt><trkpt lat="43.7862808" lon="11.580857"><ele>954.0</ele><time>2026-05-03T11:42:16.149Z</time></trkpt><trkpt lat="43.7862771" lon="11.5807413"><ele>954.0</ele><time>2026-05-03T11:42:17.15Z</time></trkpt><trkpt lat="43.7862229" lon="11.5806119"><ele>954.0</ele><time>2026-05-03T11:42:18.15Z</time></trkpt><trkpt lat="43.7862235" lon="11.5804796"><ele>954.0</ele><time>2026-05-03T11:42:19.15Z</time></trkpt><trkpt lat="43.7862369" lon="11.5803514"><ele>951.75</ele><time>2026-05-03T11:42:20.15Z</time></trkpt><trkpt lat="43.7862503" lon="11.5802172"><ele>949.5</ele><time>2026-05-03T11:42:21.15Z</time></trkpt><trkpt lat="43.7862652" lon="11.5800729"><ele>947.25</ele><time>2026-05-03T11:42:22.15Z</time></trkpt><trkpt lat="43.7862563" lon="11.5799048"><ele>945.0</ele><time>2026-05-03T11:42:23.15Z</time></trkpt><trkpt lat="43.7862235" lon="11.579731"><ele>945.0</ele><time>2026-05-03T11:42:24.149Z</time></trkpt><trkpt lat="43.7862346" lon="11.5795593"><ele>945.0</ele><time>2026-05-03T11:42:25.149Z</time></trkpt><trkpt lat="43.7862476" lon="11.5793904"><ele>945.0</ele><time>2026-05-03T11:42:26.15Z</time></trkpt><trkpt lat="43.786262" lon="11.5792262"><ele>945.0</ele><time>2026-05-03T11:42:27.149Z</time></trkpt><trkpt lat="43.7862853" lon="11.5790699"><ele>944.8</ele><time>2026-05-03T11:42:28.15Z</time></trkpt><trkpt lat="43.786272" lon="11.5789093"><ele>944.6</ele><time>2026-05-03T11:42:29.15Z</time></trkpt><trkpt lat="43.7862422" lon="11.578756"><ele>944.4000000000001</ele><time>2026-05-03T11:42:30.15Z</time></trkpt><trkpt lat="43.786246" lon="11.5786132"><ele>944.2</ele><time>2026-05-03T11:42:31.149Z</time></trkpt><trkpt lat="43.7862546" lon="11.5784676"><ele>944.0</ele><time>2026-05-03T11:42:32.15Z</time></trkpt><trkpt lat="43.7862637" lon="11.5783253"><ele>943.6</ele><time>2026-05-03T11:42:33.15Z</time></trkpt><trkpt lat="43.7862953" lon="11.5781864"><ele>943.2</ele><time>2026-05-03T11:42:34.15Z</time></trkpt><trkpt lat="43.7863631" lon="11.5780827"><ele>942.8000000000001</ele><time>2026-05-03T11:42:35.15Z</time></trkpt><trkpt lat="43.7863882" lon="11.577946"><ele>942.4000000000001</ele><time>2026-05-03T11:42:36.149Z</time></trkpt><trkpt lat="43.7864033" lon="11.5778221"><ele>942.0</ele><time>2026-05-03T11:42:37.149Z</time></trkpt><trkpt lat="43.7863952" lon="11.5777086"><ele>939.8</ele><time>2026-05-03T11:42:38.15Z</time></trkpt><trkpt lat="43.786379" lon="11.577601"><ele>937.6</ele><time>2026-05-03T11:42:39.15Z</time></trkpt><trkpt lat="43.7862971" lon="11.5775364"><ele>935.3999999999999</ele><time>2026-05-03T11:42:40.149Z</time></trkpt><trkpt lat="43.7862118" lon="11.5774347"><ele>933.1999999999999</ele><time>2026-05-03T11:42:41.149Z</time></trkpt><trkpt lat="43.7861541" lon="11.5773155"><ele>931.0</ele><time>2026-05-03T11:42:42.149Z</time></trkpt><trkpt lat="43.7860745" lon="11.5771917"><ele>932.0</ele><time>2026-05-03T11:42:43.148Z</time></trkpt><trkpt lat="43.7860098" lon="11.5770521"><ele>933.0</ele><time>2026-05-03T11:42:44.149Z</time></trkpt><trkpt lat="43.7859552" lon="11.5769151"><ele>934.0</ele><time>2026-05-03T11:42:45.15Z</time></trkpt><trkpt lat="43.7859145" lon="11.5767712"><ele>935.0</ele><time>2026-05-03T11:42:46.149Z</time></trkpt><trkpt lat="43.7858675" lon="11.5766341"><ele>933.5000000000001</ele><time>2026-05-03T11:42:47.149Z</time></trkpt><trkpt lat="43.7858129" lon="11.5765066"><ele>932.0</ele><time>2026-05-03T11:42:48.149Z</time></trkpt><trkpt lat="43.7857462" lon="11.5764178"><ele>930.5</ele><time>2026-05-03T11:42:49.15Z</time></trkpt><trkpt lat="43.7856822" lon="11.5763276"><ele>929.0</ele><time>2026-05-03T11:42:50.15Z</time></trkpt><trkpt lat="43.7856291" lon="11.576249"><ele>927.5000000000001</ele><time>2026-05-03T11:42:51.148Z</time></trkpt><trkpt lat="43.7855995" lon="11.5761491"><ele>926.0</ele><time>2026-05-03T11:42:52.15Z</time></trkpt><trkpt lat="43.7856042" lon="11.576049"><ele>924.4</ele><time>2026-05-03T11:42:53.149Z</time></trkpt><trkpt lat="43.7856349" lon="11.5759446"><ele>922.8</ele><time>2026-05-03T11:42:54.15Z</time></trkpt><trkpt lat="43.7856899" lon="11.5758393"><ele>921.1999999999999</ele><time>2026-05-03T11:42:55.15Z</time></trkpt><trkpt lat="43.7857551" lon="11.5757258"><ele>919.5999999999999</ele><time>2026-05-03T11:42:56.15Z</time></trkpt><trkpt lat="43.7858274" lon="11.5756194"><ele>918.0</ele><time>2026-05-03T11:42:57.15Z</time></trkpt><trkpt lat="43.7858942" lon="11.5755224"><ele>918.0</ele><time>2026-05-03T11:42:58.149Z</time></trkpt><trkpt lat="43.7859607" lon="11.57544"><ele>918.0</ele><time>2026-05-03T11:42:59.15Z</time></trkpt><trkpt lat="43.7860394" lon="11.5753852"><ele>918.0</ele><time>2026-05-03T11:43:00.15Z</time></trkpt><trkpt lat="43.7861198" lon="11.5753699"><ele>918.0</ele><time>2026-05-03T11:43:01.15Z</time></trkpt><trkpt lat="43.7862017" lon="11.5753852"><ele>918.0</ele><time>2026-05-03T11:43:02.149Z</time></trkpt><trkpt lat="43.7862798" lon="11.5754166"><ele>918.0</ele><time>2026-05-03T11:43:03.15Z</time></trkpt><trkpt lat="43.7863519" lon="11.5754331"><ele>917.3333333333334</ele><time>2026-05-03T11:43:04.149Z</time></trkpt><trkpt lat="43.7864234" lon="11.5754113"><ele>916.6666666666667</ele><time>2026-05-03T11:43:05.15Z</time></trkpt><trkpt lat="43.7864814" lon="11.5753589"><ele>916.0</ele><time>2026-05-03T11:43:06.149Z</time></trkpt><trkpt lat="43.7865239" lon="11.5752741"><ele>915.3333333333334</ele><time>2026-05-03T11:43:07.149Z</time></trkpt><trkpt lat="43.7865496" lon="11.5751632"><ele>914.6666666666667</ele><time>2026-05-03T11:43:08.149Z</time></trkpt><trkpt lat="43.786554" lon="11.5750212"><ele>914.0</ele><time>2026-05-03T11:43:09.15Z</time></trkpt><trkpt lat="43.7865425" lon="11.574881"><ele>913.2</ele><time>2026-05-03T11:43:10.149Z</time></trkpt><trkpt lat="43.7865429" lon="11.574746"><ele>912.4000000000001</ele><time>2026-05-03T11:43:11.15Z</time></trkpt><trkpt lat="43.7865503" lon="11.5746231"><ele>911.6</ele><time>2026-05-03T11:43:12.149Z</time></trkpt><trkpt lat="43.7865801" lon="11.5745141"><ele>910.8</ele><time>2026-05-03T11:43:13.15Z</time></trkpt><trkpt lat="43.7866373" lon="11.5744255"><ele>910.0</ele><time>2026-05-03T11:43:14.149Z</time></trkpt><trkpt lat="43.7867153" lon="11.5743501"><ele>908.2</ele><time>2026-05-03T11:43:15.148Z</time></trkpt><trkpt lat="43.7868055" lon="11.5742799"><ele>906.4</ele><time>2026-05-03T11:43:16.149Z</time></trkpt><trkpt lat="43.7868895" lon="11.5741978"><ele>904.5999999999999</ele><time>2026-05-03T11:43:17.15Z</time></trkpt><trkpt lat="43.7869725" lon="11.5740978"><ele>902.8</ele><time>2026-05-03T11:43:18.148Z</time></trkpt><trkpt lat="43.7870476" lon="11.5739848"><ele>901.0</ele><time>2026-05-03T11:43:19.149Z</time></trkpt><trkpt lat="43.7871136" lon="11.5738626"><ele>900.75</ele><time>2026-05-03T11:43:20.15Z</time></trkpt><trkpt lat="43.7871766" lon="11.5737353"><ele>900.5</ele><time>2026-05-03T11:43:21.149Z</time></trkpt><trkpt lat="43.7872445" lon="11.5736103"><ele>900.25</ele><time>2026-05-03T11:43:22.15Z</time></trkpt><trkpt lat="43.7873118" lon="11.5734829"><ele>900.0</ele><time>2026-05-03T11:43:23.149Z</time></trkpt><trkpt lat="43.7873693" lon="11.5733447"><ele>899.0</ele><time>2026-05-03T11:43:24.15Z</time></trkpt><trkpt lat="43.7874215" lon="11.5732118"><ele>898.0</ele><time>2026-05-03T11:43:25.15Z</time></trkpt><trkpt lat="43.7874696" lon="11.5730755"><ele>897.0</ele><time>2026-05-03T11:43:26.15Z</time></trkpt><trkpt lat="43.7875019" lon="11.5729356"><ele>896.0</ele><time>2026-05-03T11:43:27.15Z</time></trkpt><trkpt lat="43.7875527" lon="11.5728039"><ele>895.0</ele><time>2026-05-03T11:43:28.15Z</time></trkpt><trkpt lat="43.7875994" lon="11.5726739"><ele>893.8</ele><time>2026-05-03T11:43:29.15Z</time></trkpt><trkpt lat="43.787665" lon="11.5725551"><ele>892.6</ele><time>2026-05-03T11:43:30.15Z</time></trkpt><trkpt lat="43.7877241" lon="11.5724374"><ele>891.4000000000001</ele><time>2026-05-03T11:43:31.15Z</time></trkpt><trkpt lat="43.7878068" lon="11.572342"><ele>890.2</ele><time>2026-05-03T11:43:32.149Z</time></trkpt><trkpt lat="43.787891" lon="11.5722475"><ele>889.0</ele><time>2026-05-03T11:43:33.15Z</time></trkpt><trkpt lat="43.787999" lon="11.5721881"><ele>887.75</ele><time>2026-05-03T11:43:34.149Z</time></trkpt><trkpt lat="43.7881096" lon="11.5721229"><ele>886.5</ele><time>2026-05-03T11:43:35.15Z</time></trkpt><trkpt lat="43.7882261" lon="11.5720882"><ele>885.25</ele><time>2026-05-03T11:43:36.149Z</time></trkpt><trkpt lat="43.7883383" lon="11.5720675"><ele>884.0</ele><time>2026-05-03T11:43:37.149Z</time></trkpt><trkpt lat="43.7884587" lon="11.5720651"><ele>882.5</ele><time>2026-05-03T11:43:38.149Z</time></trkpt><trkpt lat="43.7885822" lon="11.5720719"><ele>881.0</ele><time>2026-05-03T11:43:39.15Z</time></trkpt><trkpt lat="43.7887039" lon="11.5720686"><ele>879.5</ele><time>2026-05-03T11:43:40.149Z</time></trkpt><trkpt lat="43.7888221" lon="11.5720548"><ele>878.0</ele><time>2026-05-03T11:43:41.149Z</time></trkpt><trkpt lat="43.788939" lon="11.5720256"><ele>879.25</ele><time>2026-05-03T11:43:42.149Z</time></trkpt><trkpt lat="43.7890535" lon="11.5719688"><ele>880.5</ele><time>2026-05-03T11:43:43.149Z</time></trkpt><trkpt lat="43.7891588" lon="11.5718947"><ele>881.75</ele><time>2026-05-03T11:43:44.15Z</time></trkpt><trkpt lat="43.7892631" lon="11.571826"><ele>883.0</ele><time>2026-05-03T11:43:45.15Z</time></trkpt><trkpt lat="43.789375" lon="11.5717778"><ele>883.0</ele><time>2026-05-03T11:43:46.15Z</time></trkpt><trkpt lat="43.7894813" lon="11.5718181"><ele>883.0</ele><time>2026-05-03T11:43:47.15Z</time></trkpt><trkpt lat="43.7895951" lon="11.571832"><ele>883.0</ele><time>2026-05-03T11:43:48.15Z</time></trkpt><trkpt lat="43.7896975" lon="11.5718267"><ele>883.0</ele><time>2026-05-03T11:43:49.149Z</time></trkpt><trkpt lat="43.7898085" lon="11.5718043"><ele>883.0</ele><time>2026-05-03T11:43:50.149Z</time></trkpt><trkpt lat="43.7899192" lon="11.5717785"><ele>883.0</ele><time>2026-05-03T11:43:51.149Z</time></trkpt><trkpt lat="43.7900249" lon="11.5717681"><ele>883.0</ele><time>2026-05-03T11:43:52.149Z</time></trkpt><trkpt lat="43.7901562" lon="11.5718191"><ele>883.0</ele><time>2026-05-03T11:43:53.149Z</time></trkpt><trkpt lat="43.7902643" lon="11.571831"><ele>883.0</ele><time>2026-05-03T11:43:54.15Z</time></trkpt><trkpt lat="43.7903561" lon="11.5718131"><ele>883.0</ele><time>2026-05-03T11:43:55.15Z</time></trkpt><trkpt lat="43.7904592" lon="11.5718041"><ele>876.75</ele><time>2026-05-03T11:43:56.15Z</time></trkpt><trkpt lat="43.7905554" lon="11.5717083"><ele>870.5</ele><time>2026-05-03T11:43:57.15Z</time></trkpt><trkpt lat="43.7906475" lon="11.5715889"><ele>864.25</ele><time>2026-05-03T11:43:58.149Z</time></trkpt><trkpt lat="43.7907216" lon="11.5714876"><ele>858.0</ele><time>2026-05-03T11:43:59.15Z</time></trkpt><trkpt lat="43.790778" lon="11.571367"><ele>858.0</ele><time>2026-05-03T11:44:00.15Z</time></trkpt><trkpt lat="43.790822" lon="11.5712455"><ele>858.0</ele><time>2026-05-03T11:44:01.149Z</time></trkpt><trkpt lat="43.7908747" lon="11.5711234"><ele>858.0</ele><time>2026-05-03T11:44:02.149Z</time></trkpt><trkpt lat="43.7909305" lon="11.5710051"><ele>858.0</ele><time>2026-05-03T11:44:03.15Z</time></trkpt><trkpt lat="43.791079" lon="11.5709809"><ele>854.0</ele><time>2026-05-03T11:44:04.15Z</time></trkpt><trkpt lat="43.7912208" lon="11.5710376"><ele>850.0</ele><time>2026-05-03T11:44:05.149Z</time></trkpt><trkpt lat="43.7913231" lon="11.5710327"><ele>846.0</ele><time>2026-05-03T11:44:06.15Z</time></trkpt><trkpt lat="43.7914073" lon="11.5710701"><ele>842.0</ele><time>2026-05-03T11:44:07.149Z</time></trkpt><trkpt lat="43.7915265" lon="11.57103"><ele>842.0</ele><time>2026-05-03T11:44:09.15Z</time></trkpt><trkpt lat="43.7916172" lon="11.5708501"><ele>842.0</ele><time>2026-05-03T11:44:11.148Z</time></trkpt><trkpt lat="43.7916662" lon="11.5707491"><ele>842.0</ele><time>2026-05-03T11:44:12.149Z</time></trkpt><trkpt lat="43.7917137" lon="11.5706088"><ele>842.0</ele><time>2026-05-03T11:44:13.149Z</time></trkpt><trkpt lat="43.7917628" lon="11.5704816"><ele>844.0</ele><time>2026-05-03T11:44:14.149Z</time></trkpt><trkpt lat="43.7918087" lon="11.5703409"><ele>846.0</ele><time>2026-05-03T11:44:15.15Z</time></trkpt><trkpt lat="43.7918657" lon="11.5701904"><ele>848.0</ele><time>2026-05-03T11:44:16.15Z</time></trkpt><trkpt lat="43.7918942" lon="11.5700661"><ele>850.0</ele><time>2026-05-03T11:44:17.149Z</time></trkpt><trkpt lat="43.7919446" lon="11.5699532"><ele>852.0</ele><time>2026-05-03T11:44:18.15Z</time></trkpt><trkpt lat="43.7919986" lon="11.5698596"><ele>847.6</ele><time>2026-05-03T11:44:19.15Z</time></trkpt><trkpt lat="43.792092" lon="11.5697952"><ele>843.2</ele><time>2026-05-03T11:44:20.15Z</time></trkpt><trkpt lat="43.7921822" lon="11.5697625"><ele>838.8</ele><time>2026-05-03T11:44:21.149Z</time></trkpt><trkpt lat="43.7923078" lon="11.5698047"><ele>834.4</ele><time>2026-05-03T11:44:22.149Z</time></trkpt><trkpt lat="43.7924045" lon="11.5697854"><ele>830.0</ele><time>2026-05-03T11:44:23.15Z</time></trkpt><trkpt lat="43.7925028" lon="11.569783"><ele>830.0000000000001</ele><time>2026-05-03T11:44:24.15Z</time></trkpt><trkpt lat="43.7925987" lon="11.5697927"><ele>830.0</ele><time>2026-05-03T11:44:25.148Z</time></trkpt><trkpt lat="43.7927203" lon="11.569734"><ele>830.0</ele><time>2026-05-03T11:44:27.15Z</time></trkpt><trkpt lat="43.7927823" lon="11.5696816"><ele>830.0</ele><time>2026-05-03T11:44:28.15Z</time></trkpt><trkpt lat="43.7928441" lon="11.569636"><ele>830.0000000000001</ele><time>2026-05-03T11:44:29.149Z</time></trkpt><trkpt lat="43.792904" lon="11.5695861"><ele>830.0</ele><time>2026-05-03T11:44:30.149Z</time></trkpt><trkpt lat="43.7929608" lon="11.569524"><ele>827.6</ele><time>2026-05-03T11:44:31.15Z</time></trkpt><trkpt lat="43.7930087" lon="11.5694357"><ele>825.2</ele><time>2026-05-03T11:44:32.15Z</time></trkpt><trkpt lat="43.7930408" lon="11.5693325"><ele>822.8</ele><time>2026-05-03T11:44:33.149Z</time></trkpt><trkpt lat="43.7930617" lon="11.5692087"><ele>820.4</ele><time>2026-05-03T11:44:34.15Z</time></trkpt><trkpt lat="43.7930856" lon="11.5690673"><ele>818.0</ele><time>2026-05-03T11:44:35.149Z</time></trkpt><trkpt lat="43.7930956" lon="11.5689124"><ele>818.0</ele><time>2026-05-03T11:44:36.149Z</time></trkpt><trkpt lat="43.7931224" lon="11.5687609"><ele>818.0</ele><time>2026-05-03T11:44:37.15Z</time></trkpt><trkpt lat="43.7931606" lon="11.568611"><ele>818.0</ele><time>2026-05-03T11:44:38.149Z</time></trkpt><trkpt lat="43.7931888" lon="11.5684557"><ele>818.0</ele><time>2026-05-03T11:44:39.15Z</time></trkpt><trkpt lat="43.7932246" lon="11.5683034"><ele>818.1666666666667</ele><time>2026-05-03T11:44:40.15Z</time></trkpt><trkpt lat="43.793265" lon="11.5681778"><ele>818.3333333333334</ele><time>2026-05-03T11:44:41.15Z</time></trkpt><trkpt lat="43.7932881" lon="11.5680492"><ele>818.5</ele><time>2026-05-03T11:44:42.148Z</time></trkpt><trkpt lat="43.7933017" lon="11.5679235"><ele>818.6666666666667</ele><time>2026-05-03T11:44:43.149Z</time></trkpt><trkpt lat="43.7933672" lon="11.5678495"><ele>818.8333333333334</ele><time>2026-05-03T11:44:44.15Z</time></trkpt><trkpt lat="43.7934106" lon="11.5677721"><ele>819.0</ele><time>2026-05-03T11:44:45.15Z</time></trkpt><trkpt lat="43.793521" lon="11.5677562"><ele>814.8000000000001</ele><time>2026-05-03T11:44:46.15Z</time></trkpt><trkpt lat="43.7935895" lon="11.5677076"><ele>810.6</ele><time>2026-05-03T11:44:47.15Z</time></trkpt><trkpt lat="43.7936758" lon="11.5676699"><ele>806.4</ele><time>2026-05-03T11:44:48.148Z</time></trkpt><trkpt lat="43.7937002" lon="11.5675679"><ele>802.2</ele><time>2026-05-03T11:44:49.149Z</time></trkpt><trkpt lat="43.7937548" lon="11.5674472"><ele>798.0</ele><time>2026-05-03T11:44:50.149Z</time></trkpt><trkpt lat="43.793851" lon="11.5673833"><ele>798.0</ele><time>2026-05-03T11:44:51.148Z</time></trkpt><trkpt lat="43.7939308" lon="11.5673274"><ele>798.0</ele><time>2026-05-03T11:44:52.149Z</time></trkpt><trkpt lat="43.7940221" lon="11.5672673"><ele>798.0</ele><time>2026-05-03T11:44:53.15Z</time></trkpt><trkpt lat="43.7941181" lon="11.5671619"><ele>798.0</ele><time>2026-05-03T11:44:54.149Z</time></trkpt><trkpt lat="43.7942244" lon="11.567073"><ele>798.0</ele><time>2026-05-03T11:44:55.149Z</time></trkpt><trkpt lat="43.7943412" lon="11.5669861"><ele>792.5999999999999</ele><time>2026-05-03T11:44:56.149Z</time></trkpt><trkpt lat="43.7944104" lon="11.5668988"><ele>787.1999999999999</ele><time>2026-05-03T11:44:57.149Z</time></trkpt><trkpt lat="43.7945161" lon="11.5667741"><ele>781.8</ele><time>2026-05-03T11:44:58.15Z</time></trkpt><trkpt lat="43.7945553" lon="11.5666676"><ele>776.4</ele><time>2026-05-03T11:44:59.149Z</time></trkpt><trkpt lat="43.7945881" lon="11.5665451"><ele>771.0</ele><time>2026-05-03T11:45:00.15Z</time></trkpt><trkpt lat="43.794641" lon="11.5664312"><ele>771.0</ele><time>2026-05-03T11:45:01.15Z</time></trkpt><trkpt lat="43.7946754" lon="11.5663085"><ele>771.0</ele><time>2026-05-03T11:45:02.15Z</time></trkpt><trkpt lat="43.794718" lon="11.5661888"><ele>771.0</ele><time>2026-05-03T11:45:03.149Z</time></trkpt><trkpt lat="43.7946783" lon="11.5660808"><ele>771.0</ele><time>2026-05-03T11:45:04.149Z</time></trkpt><trkpt lat="43.7945873" lon="11.5659452"><ele>771.0</ele><time>2026-05-03T11:45:05.15Z</time></trkpt><trkpt lat="43.7945646" lon="11.5658328"><ele>770.5999999999999</ele><time>2026-05-03T11:45:06.15Z</time></trkpt><trkpt lat="43.7944905" lon="11.5656937"><ele>770.2</ele><time>2026-05-03T11:45:07.15Z</time></trkpt><trkpt lat="43.794461" lon="11.5655803"><ele>769.8</ele><time>2026-05-03T11:45:08.148Z</time></trkpt><trkpt lat="43.7944341" lon="11.5654687"><ele>769.4000000000001</ele><time>2026-05-03T11:45:09.149Z</time></trkpt><trkpt lat="43.7944887" lon="11.5653823"><ele>769.0</ele><time>2026-05-03T11:45:10.15Z</time></trkpt><trkpt lat="43.7945346" lon="11.5652882"><ele>769.0</ele><time>2026-05-03T11:45:11.15Z</time></trkpt><trkpt lat="43.7946382" lon="11.5652048"><ele>769.0</ele><time>2026-05-03T11:45:12.149Z</time></trkpt><trkpt lat="43.7947144" lon="11.5651204"><ele>769.0</ele><time>2026-05-03T11:45:13.15Z</time></trkpt><trkpt lat="43.7947963" lon="11.5650397"><ele>769.0</ele><time>2026-05-03T11:45:14.149Z</time></trkpt><trkpt lat="43.7948208" lon="11.5649484"><ele>769.0</ele><time>2026-05-03T11:45:15.15Z</time></trkpt><trkpt lat="43.7948626" lon="11.5648726"><ele>769.0</ele><time>2026-05-03T11:45:16.149Z</time></trkpt><trkpt lat="43.7949653" lon="11.5648087"><ele>769.0</ele><time>2026-05-03T11:45:17.15Z</time></trkpt><trkpt lat="43.7950335" lon="11.5647399"><ele>769.0</ele><time>2026-05-03T11:45:18.149Z</time></trkpt><trkpt lat="43.795106" lon="11.5646692"><ele>769.0</ele><time>2026-05-03T11:45:19.149Z</time></trkpt><trkpt lat="43.795156" lon="11.5645703"><ele>769.0</ele><time>2026-05-03T11:45:20.15Z</time></trkpt><trkpt lat="43.795183" lon="11.5644608"><ele>770.0</ele><time>2026-05-03T11:45:21.15Z</time></trkpt><trkpt lat="43.795209" lon="11.5643158"><ele>771.0</ele><time>2026-05-03T11:45:22.15Z</time></trkpt><trkpt lat="43.7951914" lon="11.5642181"><ele>772.0</ele><time>2026-05-03T11:45:23.149Z</time></trkpt><trkpt lat="43.7951676" lon="11.5641017"><ele>773.0</ele><time>2026-05-03T11:45:24.149Z</time></trkpt><trkpt lat="43.7951184" lon="11.5639557"><ele>774.0</ele><time>2026-05-03T11:45:25.15Z</time></trkpt><trkpt lat="43.7950932" lon="11.5638232"><ele>775.0</ele><time>2026-05-03T11:45:26.15Z</time></trkpt><trkpt lat="43.7950802" lon="11.563678"><ele>776.0</ele><time>2026-05-03T11:45:27.149Z</time></trkpt><trkpt lat="43.7950664" lon="11.563519"><ele>777.0</ele><time>2026-05-03T11:45:28.15Z</time></trkpt><trkpt lat="43.7951266" lon="11.5633392"><ele>778.0</ele><time>2026-05-03T11:45:29.149Z</time></trkpt><trkpt lat="43.7952248" lon="11.5631995"><ele>767.0</ele><time>2026-05-03T11:45:30.149Z</time></trkpt><trkpt lat="43.7952587" lon="11.5630327"><ele>756.0</ele><time>2026-05-03T11:45:31.149Z</time></trkpt><trkpt lat="43.795322" lon="11.5628695"><ele>745.0</ele><time>2026-05-03T11:45:32.15Z</time></trkpt><trkpt lat="43.7953516" lon="11.5627204"><ele>734.0</ele><time>2026-05-03T11:45:33.15Z</time></trkpt><trkpt lat="43.7953809" lon="11.5626113"><ele>734.0</ele><time>2026-05-03T11:45:34.149Z</time></trkpt><trkpt lat="43.7954271" lon="11.5624898"><ele>734.0</ele><time>2026-05-03T11:45:35.149Z</time></trkpt><trkpt lat="43.7954937" lon="11.5623581"><ele>734.0</ele><time>2026-05-03T11:45:36.148Z</time></trkpt><trkpt lat="43.7955822" lon="11.5622705"><ele>734.0</ele><time>2026-05-03T11:45:37.149Z</time></trkpt><trkpt lat="43.7956875" lon="11.5621582"><ele>736.0</ele><time>2026-05-03T11:45:38.15Z</time></trkpt><trkpt lat="43.7957867" lon="11.5620237"><ele>738.0</ele><time>2026-05-03T11:45:39.15Z</time></trkpt><trkpt lat="43.7958674" lon="11.561887"><ele>740.0</ele><time>2026-05-03T11:45:40.15Z</time></trkpt><trkpt lat="43.7959212" lon="11.5617418"><ele>742.0</ele><time>2026-05-03T11:45:41.149Z</time></trkpt><trkpt lat="43.7959803" lon="11.5615953"><ele>742.0</ele><time>2026-05-03T11:45:42.149Z</time></trkpt><trkpt lat="43.7959733" lon="11.5614783"><ele>742.0</ele><time>2026-05-03T11:45:43.149Z</time></trkpt><trkpt lat="43.7960648" lon="11.5613702"><ele>742.0</ele><time>2026-05-03T11:45:44.149Z</time></trkpt><trkpt lat="43.7961411" lon="11.5613061"><ele>742.0</ele><time>2026-05-03T11:45:45.15Z</time></trkpt><trkpt lat="43.7962583" lon="11.5612914"><ele>742.0</ele><time>2026-05-03T11:45:46.148Z</time></trkpt><trkpt lat="43.7963471" lon="11.5612023"><ele>736.0</ele><time>2026-05-03T11:45:47.149Z</time></trkpt><trkpt lat="43.7964216" lon="11.5610913"><ele>730.0</ele><time>2026-05-03T11:45:48.15Z</time></trkpt><trkpt lat="43.7964973" lon="11.5609799"><ele>724.0</ele><time>2026-05-03T11:45:49.149Z</time></trkpt><trkpt lat="43.7965622" lon="11.5608684"><ele>718.0</ele><time>2026-05-03T11:45:50.149Z</time></trkpt><trkpt lat="43.7966477" lon="11.5607705"><ele>712.0</ele><time>2026-05-03T11:45:51.15Z</time></trkpt><trkpt lat="43.7967279" lon="11.5606693"><ele>712.0</ele><time>2026-05-03T11:45:52.15Z</time></trkpt><trkpt lat="43.7968139" lon="11.5605861"><ele>712.0</ele><time>2026-05-03T11:45:53.15Z</time></trkpt><trkpt lat="43.796884" lon="11.5604958"><ele>712.0</ele><time>2026-05-03T11:45:54.149Z</time></trkpt><trkpt lat="43.796936" lon="11.560395"><ele>712.0</ele><time>2026-05-03T11:45:55.15Z</time></trkpt><trkpt lat="43.7969844" lon="11.5602927"><ele>712.0</ele><time>2026-05-03T11:45:56.15Z</time></trkpt><trkpt lat="43.7970233" lon="11.5602083"><ele>709.4285714285713</ele><time>2026-05-03T11:45:57.149Z</time></trkpt><trkpt lat="43.797065" lon="11.5601335"><ele>706.8571428571429</ele><time>2026-05-03T11:45:58.15Z</time></trkpt><trkpt lat="43.7971156" lon="11.5600476"><ele>704.2857142857142</ele><time>2026-05-03T11:45:59.15Z</time></trkpt><trkpt lat="43.7971762" lon="11.5599885"><ele>701.7142857142857</ele><time>2026-05-03T11:46:00.149Z</time></trkpt><trkpt lat="43.7972269" lon="11.5599124"><ele>699.1428571428571</ele><time>2026-05-03T11:46:01.15Z</time></trkpt><trkpt lat="43.7972738" lon="11.5598351"><ele>696.5714285714286</ele><time>2026-05-03T11:46:02.15Z</time></trkpt><trkpt lat="43.7973181" lon="11.5597624"><ele>694.0</ele><time>2026-05-03T11:46:03.149Z</time></trkpt><trkpt lat="43.7973638" lon="11.5596901"><ele>694.0</ele><time>2026-05-03T11:46:04.149Z</time></trkpt><trkpt lat="43.7974068" lon="11.5596173"><ele>694.0</ele><time>2026-05-03T11:46:05.15Z</time></trkpt><trkpt lat="43.7974528" lon="11.5595365"><ele>694.0</ele><time>2026-05-03T11:46:06.149Z</time></trkpt><trkpt lat="43.7974982" lon="11.5594558"><ele>694.0</ele><time>2026-05-03T11:46:07.15Z</time></trkpt><trkpt lat="43.7975424" lon="11.5593765"><ele>694.0</ele><time>2026-05-03T11:46:08.148Z</time></trkpt><trkpt lat="43.7975898" lon="11.5592987"><ele>694.0</ele><time>2026-05-03T11:46:09.15Z</time></trkpt><trkpt lat="43.7976433" lon="11.5592255"><ele>694.0</ele><time>2026-05-03T11:46:10.148Z</time></trkpt><trkpt lat="43.7976935" lon="11.5591597"><ele>692.4000000000001</ele><time>2026-05-03T11:46:11.15Z</time></trkpt><trkpt lat="43.7977459" lon="11.5591048"><ele>690.8</ele><time>2026-05-03T11:46:12.15Z</time></trkpt><trkpt lat="43.7977986" lon="11.5590513"><ele>689.2</ele><time>2026-05-03T11:46:13.149Z</time></trkpt><trkpt lat="43.7978996" lon="11.5589508"><ele>687.5999999999999</ele><time>2026-05-03T11:46:15.15Z</time></trkpt><trkpt lat="43.7979922" lon="11.5588445"><ele>686.0</ele><time>2026-05-03T11:46:17.149Z</time></trkpt><trkpt lat="43.7980531" lon="11.5587402"><ele>687.3333333333333</ele><time>2026-05-03T11:46:19.15Z</time></trkpt><trkpt lat="43.7980285" lon="11.5586585"><ele>688.6666666666666</ele><time>2026-05-03T11:46:21.149Z</time></trkpt><trkpt lat="43.7980318" lon="11.5585713"><ele>690.0</ele><time>2026-05-03T11:46:23.15Z</time></trkpt><trkpt lat="43.7980806" lon="11.5584828"><ele>691.3333333333334</ele><time>2026-05-03T11:46:25.148Z</time></trkpt><trkpt lat="43.7981448" lon="11.5583664"><ele>692.6666666666667</ele><time>2026-05-03T11:46:27.15Z</time></trkpt><trkpt lat="43.7982183" lon="11.5582401"><ele>694.0</ele><time>2026-05-03T11:46:29.15Z</time></trkpt><trkpt lat="43.7982945" lon="11.5581239"><ele>694.0</ele><time>2026-05-03T11:46:31.149Z</time></trkpt><trkpt lat="43.7983774" lon="11.5580055"><ele>694.0</ele><time>2026-05-03T11:46:33.15Z</time></trkpt><trkpt lat="43.7984667" lon="11.5579018"><ele>694.0</ele><time>2026-05-03T11:46:35.15Z</time></trkpt><trkpt lat="43.7985198" lon="11.5578249"><ele>694.0</ele><time>2026-05-03T11:46:37.149Z</time></trkpt><trkpt lat="43.7985776" lon="11.5577826"><ele>694.0</ele><time>2026-05-03T11:46:42.15Z</time></trkpt><trkpt lat="43.7985894" lon="11.5576929"><ele>694.0</ele><time>2026-05-03T11:46:47.149Z</time></trkpt><trkpt lat="43.7985372" lon="11.5576112"><ele>691.2</ele><time>2026-05-03T11:46:50.15Z</time></trkpt><trkpt lat="43.7984573" lon="11.5576167"><ele>688.4000000000001</ele><time>2026-05-03T11:46:52.15Z</time></trkpt><trkpt lat="43.7983713" lon="11.5576727"><ele>685.6</ele><time>2026-05-03T11:46:54.15Z</time></trkpt><trkpt lat="43.7982828" lon="11.5576925"><ele>682.8</ele><time>2026-05-03T11:46:56.15Z</time></trkpt><trkpt lat="43.7981753" lon="11.5576832"><ele>680.0</ele><time>2026-05-03T11:46:58.149Z</time></trkpt><trkpt lat="43.7980701" lon="11.5576764"><ele>680.0</ele><time>2026-05-03T11:47:00.149Z</time></trkpt><trkpt lat="43.7979673" lon="11.557696"><ele>680.0</ele><time>2026-05-03T11:47:02.149Z</time></trkpt><trkpt lat="43.7978525" lon="11.5577299"><ele>680.0</ele><time>2026-05-03T11:47:04.15Z</time></trkpt><trkpt lat="43.797753" lon="11.5577779"><ele>680.0</ele><time>2026-05-03T11:47:06.15Z</time></trkpt><trkpt lat="43.797656" lon="11.5578445"><ele>680.0</ele><time>2026-05-03T11:47:08.15Z</time></trkpt><trkpt lat="43.797564" lon="11.5578717"><ele>681.4285714285714</ele><time>2026-05-03T11:47:10.148Z</time></trkpt><trkpt lat="43.7974973" lon="11.5578825"><ele>682.8571428571428</ele><time>2026-05-03T11:47:12.15Z</time></trkpt><trkpt lat="43.797416" lon="11.55791"><ele>684.2857142857142</ele><time>2026-05-03T11:47:22.149Z</time></trkpt><trkpt lat="43.7973496" lon="11.5579291"><ele>685.7142857142858</ele><time>2026-05-03T11:47:24.15Z</time></trkpt><trkpt lat="43.7972651" lon="11.5579306"><ele>687.1428571428571</ele><time>2026-05-03T11:47:27.149Z</time></trkpt><trkpt lat="43.7971951" lon="11.5579803"><ele>688.5714285714286</ele><time>2026-05-03T11:47:34.148Z</time></trkpt><trkpt lat="43.797164" lon="11.558057"><ele>690.0</ele><time>2026-05-03T11:47:37.149Z</time></trkpt><trkpt lat="43.7970698" lon="11.5580121"><ele>690.0</ele><time>2026-05-03T11:50:49.148Z</time></trkpt><trkpt lat="43.7970356" lon="11.5579295"><ele>690.0</ele><time>2026-05-03T11:50:56.149Z</time></trkpt><trkpt lat="43.7970548" lon="11.5578255"><ele>690.0</ele><time>2026-05-03T11:50:58.149Z</time></trkpt><trkpt lat="43.7970774" lon="11.5577342"><ele>690.0</ele><time>2026-05-03T11:50:59.148Z</time></trkpt><trkpt lat="43.79714" lon="11.5576245"><ele>690.0</ele><time>2026-05-03T11:51:01.148Z</time></trkpt><trkpt lat="43.797165" lon="11.5574569"><ele>690.0</ele><time>2026-05-03T11:51:03.149Z</time></trkpt><trkpt lat="43.7971872" lon="11.5573713"><ele>687.4</ele><time>2026-05-03T11:51:04.149Z</time></trkpt><trkpt lat="43.7972155" lon="11.5572905"><ele>684.8</ele><time>2026-05-03T11:51:05.149Z</time></trkpt><trkpt lat="43.797178" lon="11.5571733"><ele>682.2</ele><time>2026-05-03T11:51:07.149Z</time></trkpt><trkpt lat="43.7972105" lon="11.5570543"><ele>679.6</ele><time>2026-05-03T11:51:09.149Z</time></trkpt><trkpt lat="43.7972145" lon="11.5568681"><ele>677.0</ele><time>2026-05-03T11:51:11.149Z</time></trkpt><trkpt lat="43.7972192" lon="11.5567729"><ele>676.6</ele><time>2026-05-03T11:51:12.149Z</time></trkpt><trkpt lat="43.7971516" lon="11.5566715"><ele>676.2</ele><time>2026-05-03T11:51:13.148Z</time></trkpt><trkpt lat="43.7971418" lon="11.5565142"><ele>675.8</ele><time>2026-05-03T11:51:15.149Z</time></trkpt><trkpt lat="43.7971242" lon="11.5563453"><ele>675.4</ele><time>2026-05-03T11:51:17.149Z</time></trkpt><trkpt lat="43.7971092" lon="11.5562353"><ele>675.0</ele><time>2026-05-03T11:51:18.149Z</time></trkpt><trkpt lat="43.7970947" lon="11.5561379"><ele>674.1666666666666</ele><time>2026-05-03T11:51:19.149Z</time></trkpt><trkpt lat="43.7970644" lon="11.5560565"><ele>673.3333333333334</ele><time>2026-05-03T11:51:20.148Z</time></trkpt><trkpt lat="43.7970439" lon="11.555943"><ele>672.5</ele><time>2026-05-03T11:51:21.149Z</time></trkpt><trkpt lat="43.7970146" lon="11.5558508"><ele>671.6666666666667</ele><time>2026-05-03T11:51:22.148Z</time></trkpt><trkpt lat="43.796983" lon="11.555765"><ele>670.8333333333334</ele><time>2026-05-03T11:51:23.148Z</time></trkpt><trkpt lat="43.7969509" lon="11.5556703"><ele>670.0</ele><time>2026-05-03T11:51:24.148Z</time></trkpt><trkpt lat="43.7969743" lon="11.555539"><ele>670.0</ele><time>2026-05-03T11:51:26.149Z</time></trkpt><trkpt lat="43.7969445" lon="11.5554397"><ele>670.0</ele><time>2026-05-03T11:51:28.149Z</time></trkpt><trkpt lat="43.7969059" lon="11.5553088"><ele>670.0</ele><time>2026-05-03T11:51:30.148Z</time></trkpt><trkpt lat="43.7968669" lon="11.5552102"><ele>670.0</ele><time>2026-05-03T11:51:32.149Z</time></trkpt><trkpt lat="43.7968196" lon="11.5551295"><ele>670.0</ele><time>2026-05-03T11:51:34.149Z</time></trkpt><trkpt lat="43.796777" lon="11.5550374"><ele>670.0</ele><time>2026-05-03T11:51:36.148Z</time></trkpt><trkpt lat="43.7967557" lon="11.5549401"><ele>669.6</ele><time>2026-05-03T11:51:38.149Z</time></trkpt><trkpt lat="43.7967964" lon="11.5548466"><ele>669.2</ele><time>2026-05-03T11:51:40.148Z</time></trkpt><trkpt lat="43.7968374" lon="11.5547512"><ele>668.8</ele><time>2026-05-03T11:51:41.147Z</time></trkpt><trkpt lat="43.7968696" lon="11.5545942"><ele>668.4</ele><time>2026-05-03T11:51:43.147Z</time></trkpt><trkpt lat="43.7969419" lon="11.5544454"><ele>668.0</ele><time>2026-05-03T11:51:45.148Z</time></trkpt><trkpt lat="43.7969809" lon="11.5543545"><ele>668.6666666666666</ele><time>2026-05-03T11:51:46.148Z</time></trkpt><trkpt lat="43.7969945" lon="11.5542429"><ele>669.3333333333333</ele><time>2026-05-03T11:51:47.148Z</time></trkpt><trkpt lat="43.7969934" lon="11.5541262"><ele>670.0</ele><time>2026-05-03T11:51:48.149Z</time></trkpt><trkpt lat="43.7970036" lon="11.5540213"><ele>670.6666666666666</ele><time>2026-05-03T11:51:49.148Z</time></trkpt><trkpt lat="43.7970174" lon="11.5539117"><ele>671.3333333333334</ele><time>2026-05-03T11:51:50.148Z</time></trkpt><trkpt lat="43.7970321" lon="11.5538034"><ele>672.0</ele><time>2026-05-03T11:51:51.149Z</time></trkpt><trkpt lat="43.7970534" lon="11.5537013"><ele>672.6666666666666</ele><time>2026-05-03T11:51:52.149Z</time></trkpt><trkpt lat="43.7970393" lon="11.5535976"><ele>673.3333333333334</ele><time>2026-05-03T11:51:53.149Z</time></trkpt><trkpt lat="43.797065" lon="11.5535104"><ele>674.0</ele><time>2026-05-03T11:51:54.149Z</time></trkpt><trkpt lat="43.7970908" lon="11.5533307"><ele>674.6666666666667</ele><time>2026-05-03T11:51:56.148Z</time></trkpt><trkpt lat="43.7970555" lon="11.5532062"><ele>675.3333333333334</ele><time>2026-05-03T11:51:58.149Z</time></trkpt><trkpt lat="43.7970456" lon="11.5531154"><ele>676.0</ele><time>2026-05-03T11:52:00.147Z</time></trkpt><trkpt lat="43.7970432" lon="11.5530011"><ele>676.0</ele><time>2026-05-03T11:52:02.149Z</time></trkpt><trkpt lat="43.7971289" lon="11.5528844"><ele>676.0</ele><time>2026-05-03T11:52:04.148Z</time></trkpt><trkpt lat="43.7971611" lon="11.5527849"><ele>676.0</ele><time>2026-05-03T11:52:05.148Z</time></trkpt><trkpt lat="43.7972475" lon="11.5527215"><ele>676.0</ele><time>2026-05-03T11:52:07.148Z</time></trkpt><trkpt lat="43.7973125" lon="11.5526476"><ele>676.0</ele><time>2026-05-03T11:52:09.148Z</time></trkpt><trkpt lat="43.7973247" lon="11.5525531"><ele>676.1666666666667</ele><time>2026-05-03T11:52:12.149Z</time></trkpt><trkpt lat="43.7973704" lon="11.5524797"><ele>676.3333333333334</ele><time>2026-05-03T11:52:18.148Z</time></trkpt><trkpt lat="43.7974148" lon="11.5523781"><ele>676.5</ele><time>2026-05-03T11:52:21.149Z</time></trkpt><trkpt lat="43.7974477" lon="11.5522811"><ele>676.6666666666666</ele><time>2026-05-03T11:52:22.149Z</time></trkpt><trkpt lat="43.7974632" lon="11.5521451"><ele>676.8333333333333</ele><time>2026-05-03T11:52:24.148Z</time></trkpt><trkpt lat="43.7974689" lon="11.5520164"><ele>677.0</ele><time>2026-05-03T11:52:26.148Z</time></trkpt><trkpt lat="43.7974967" lon="11.55187"><ele>676.2</ele><time>2026-05-03T11:52:28.149Z</time></trkpt><trkpt lat="43.7975333" lon="11.5517804"><ele>675.4000000000001</ele><time>2026-05-03T11:52:29.149Z</time></trkpt><trkpt lat="43.7974981" lon="11.5516096"><ele>674.5999999999999</ele><time>2026-05-03T11:52:31.149Z</time></trkpt><trkpt lat="43.7974936" lon="11.5515206"><ele>673.8</ele><time>2026-05-03T11:52:32.149Z</time></trkpt><trkpt lat="43.7975669" lon="11.5513758"><ele>673.0</ele><time>2026-05-03T11:52:34.149Z</time></trkpt><trkpt lat="43.797549" lon="11.5512849"><ele>673.0</ele><time>2026-05-03T11:52:36.148Z</time></trkpt><trkpt lat="43.7975165" lon="11.55119"><ele>673.0</ele><time>2026-05-03T11:52:38.149Z</time></trkpt><trkpt lat="43.7975093" lon="11.5510858"><ele>673.0</ele><time>2026-05-03T11:52:40.149Z</time></trkpt><trkpt lat="43.7975531" lon="11.5509843"><ele>673.0</ele><time>2026-05-03T11:52:44.148Z</time></trkpt><trkpt lat="43.7975422" lon="11.5508919"><ele>673.0</ele><time>2026-05-03T11:52:46.148Z</time></trkpt><trkpt lat="43.7975413" lon="11.5507938"><ele>673.0</ele><time>2026-05-03T11:52:47.148Z</time></trkpt><trkpt lat="43.7975797" lon="11.5507136"><ele>673.0</ele><time>2026-05-03T11:52:48.149Z</time></trkpt><trkpt lat="43.7975974" lon="11.550623"><ele>673.0</ele><time>2026-05-03T11:52:49.148Z</time></trkpt><trkpt lat="43.7976361" lon="11.5505437"><ele>673.0</ele><time>2026-05-03T11:52:50.149Z</time></trkpt><trkpt lat="43.7976909" lon="11.5503958"><ele>673.0</ele><time>2026-05-03T11:52:52.149Z</time></trkpt><trkpt lat="43.7977617" lon="11.5503576"><ele>673.0</ele><time>2026-05-03T11:52:54.148Z</time></trkpt><trkpt lat="43.7978257" lon="11.5503013"><ele>673.0</ele><time>2026-05-03T11:52:56.148Z</time></trkpt><trkpt lat="43.7978776" lon="11.5502222"><ele>673.0</ele><time>2026-05-03T11:52:58.149Z</time></trkpt><trkpt lat="43.7979249" lon="11.5501392"><ele>671.5999999999999</ele><time>2026-05-03T11:53:00.148Z</time></trkpt><trkpt lat="43.7979587" lon="11.5500653"><ele>670.1999999999999</ele><time>2026-05-03T11:53:01.148Z</time></trkpt><trkpt lat="43.7979949" lon="11.5499174"><ele>668.8</ele><time>2026-05-03T11:53:03.149Z</time></trkpt><trkpt lat="43.7980716" lon="11.5498493"><ele>667.4</ele><time>2026-05-03T11:53:05.148Z</time></trkpt><trkpt lat="43.7981489" lon="11.549751"><ele>666.0</ele><time>2026-05-03T11:53:07.149Z</time></trkpt><trkpt lat="43.7981884" lon="11.5496145"><ele>666.5</ele><time>2026-05-03T11:53:09.148Z</time></trkpt><trkpt lat="43.7982126" lon="11.5495042"><ele>667.0</ele><time>2026-05-03T11:53:11.148Z</time></trkpt><trkpt lat="43.7982533" lon="11.5494106"><ele>667.5</ele><time>2026-05-03T11:53:15.149Z</time></trkpt><trkpt lat="43.7982726" lon="11.5493101"><ele>668.0</ele><time>2026-05-03T11:53:18.148Z</time></trkpt><trkpt lat="43.7982922" lon="11.5491909"><ele>668.5</ele><time>2026-05-03T11:53:21.148Z</time></trkpt><trkpt lat="43.798256" lon="11.549114"><ele>669.0</ele><time>2026-05-03T11:53:23.149Z</time></trkpt><trkpt lat="43.7981987" lon="11.5490247"><ele>669.0</ele><time>2026-05-03T11:53:25.148Z</time></trkpt><trkpt lat="43.7981299" lon="11.5489159"><ele>669.0</ele><time>2026-05-03T11:53:27.147Z</time></trkpt><trkpt lat="43.798101" lon="11.5487638"><ele>669.0</ele><time>2026-05-03T11:53:29.148Z</time></trkpt><trkpt lat="43.7980777" lon="11.5485863"><ele>669.0</ele><time>2026-05-03T11:53:31.149Z</time></trkpt><trkpt lat="43.7980628" lon="11.5484972"><ele>669.0</ele><time>2026-05-03T11:53:32.148Z</time></trkpt><trkpt lat="43.7980263" lon="11.5483323"><ele>668.4000000000001</ele><time>2026-05-03T11:53:34.149Z</time></trkpt><trkpt lat="43.7980106" lon="11.548247"><ele>667.8</ele><time>2026-05-03T11:53:35.149Z</time></trkpt><trkpt lat="43.797996" lon="11.5480941"><ele>667.2</ele><time>2026-05-03T11:53:37.148Z</time></trkpt><trkpt lat="43.7980114" lon="11.5479495"><ele>666.5999999999999</ele><time>2026-05-03T11:53:39.148Z</time></trkpt><trkpt lat="43.7980593" lon="11.5478396"><ele>666.0</ele><time>2026-05-03T11:53:41.149Z</time></trkpt><trkpt lat="43.7981192" lon="11.5476848"><ele>666.0</ele><time>2026-05-03T11:53:43.149Z</time></trkpt><trkpt lat="43.7981701" lon="11.547497"><ele>666.0</ele><time>2026-05-03T11:53:45.147Z</time></trkpt><trkpt lat="43.7982027" lon="11.5473844"><ele>666.0</ele><time>2026-05-03T11:53:46.148Z</time></trkpt><trkpt lat="43.798265" lon="11.5472154"><ele>666.0</ele><time>2026-05-03T11:53:48.148Z</time></trkpt><trkpt lat="43.7983051" lon="11.5471395"><ele>666.0</ele><time>2026-05-03T11:53:49.148Z</time></trkpt><trkpt lat="43.7983158" lon="11.5470286"><ele>665.4</ele><time>2026-05-03T11:53:50.148Z</time></trkpt><trkpt lat="43.7983647" lon="11.5468847"><ele>664.8</ele><time>2026-05-03T11:53:52.148Z</time></trkpt><trkpt lat="43.798364" lon="11.5467686"><ele>664.1999999999999</ele><time>2026-05-03T11:53:54.148Z</time></trkpt><trkpt lat="43.7983596" lon="11.5466802"><ele>663.5999999999999</ele><time>2026-05-03T11:53:55.149Z</time></trkpt><trkpt lat="43.7983808" lon="11.5464903"><ele>663.0</ele><time>2026-05-03T11:53:57.149Z</time></trkpt><trkpt lat="43.7984047" lon="11.5463614"><ele>663.0</ele><time>2026-05-03T11:53:59.148Z</time></trkpt><trkpt lat="43.7984108" lon="11.5462337"><ele>663.0</ele><time>2026-05-03T11:54:02.149Z</time></trkpt><trkpt lat="43.7983793" lon="11.5461022"><ele>663.0</ele><time>2026-05-03T11:54:04.149Z</time></trkpt><trkpt lat="43.798322" lon="11.5460399"><ele>663.0</ele><time>2026-05-03T11:54:05.149Z</time></trkpt><trkpt lat="43.7982749" lon="11.5459623"><ele>663.0</ele><time>2026-05-03T11:54:06.148Z</time></trkpt><trkpt lat="43.798235" lon="11.545874"><ele>663.0</ele><time>2026-05-03T11:54:07.148Z</time></trkpt><trkpt lat="43.7982008" lon="11.5457676"><ele>663.2</ele><time>2026-05-03T11:54:08.148Z</time></trkpt><trkpt lat="43.798169" lon="11.5456613"><ele>663.4</ele><time>2026-05-03T11:54:09.148Z</time></trkpt><trkpt lat="43.7981375" lon="11.5455549"><ele>663.6</ele><time>2026-05-03T11:54:10.147Z</time></trkpt><trkpt lat="43.7981062" lon="11.5454371"><ele>663.8000000000001</ele><time>2026-05-03T11:54:11.149Z</time></trkpt><trkpt lat="43.7980742" lon="11.5453145"><ele>664.0</ele><time>2026-05-03T11:54:12.148Z</time></trkpt><trkpt lat="43.7980446" lon="11.5451795"><ele>663.0</ele><time>2026-05-03T11:54:13.149Z</time></trkpt><trkpt lat="43.7980216" lon="11.5450369"><ele>662.0</ele><time>2026-05-03T11:54:14.149Z</time></trkpt><trkpt lat="43.7980066" lon="11.5448882"><ele>661.0</ele><time>2026-05-03T11:54:15.148Z</time></trkpt><trkpt lat="43.7980064" lon="11.5447406"><ele>660.0</ele><time>2026-05-03T11:54:16.149Z</time></trkpt><trkpt lat="43.7980166" lon="11.5446034"><ele>659.0</ele><time>2026-05-03T11:54:17.149Z</time></trkpt><trkpt lat="43.7980352" lon="11.5444675"><ele>658.25</ele><time>2026-05-03T11:54:18.149Z</time></trkpt><trkpt lat="43.7980588" lon="11.5443194"><ele>657.5</ele><time>2026-05-03T11:54:19.148Z</time></trkpt><trkpt lat="43.7980752" lon="11.5441667"><ele>656.75</ele><time>2026-05-03T11:54:20.148Z</time></trkpt><trkpt lat="43.7980867" lon="11.544005"><ele>656.0</ele><time>2026-05-03T11:54:21.149Z</time></trkpt><trkpt lat="43.7980828" lon="11.5438382"><ele>655.0</ele><time>2026-05-03T11:54:22.149Z</time></trkpt><trkpt lat="43.7980613" lon="11.5436698"><ele>654.0</ele><time>2026-05-03T11:54:23.148Z</time></trkpt><trkpt lat="43.7980168" lon="11.5435065"><ele>653.0</ele><time>2026-05-03T11:54:24.147Z</time></trkpt><trkpt lat="43.7979612" lon="11.5433436"><ele>652.0</ele><time>2026-05-03T11:54:25.148Z</time></trkpt><trkpt lat="43.7979007" lon="11.543183"><ele>652.0</ele><time>2026-05-03T11:54:26.148Z</time></trkpt><trkpt lat="43.7978449" lon="11.5430185"><ele>652.0</ele><time>2026-05-03T11:54:27.149Z</time></trkpt><trkpt lat="43.7977946" lon="11.5428488"><ele>652.0</ele><time>2026-05-03T11:54:28.149Z</time></trkpt><trkpt lat="43.7977513" lon="11.5426766"><ele>652.0</ele><time>2026-05-03T11:54:29.148Z</time></trkpt><trkpt lat="43.7977162" lon="11.5425009"><ele>652.0</ele><time>2026-05-03T11:54:30.148Z</time></trkpt><trkpt lat="43.7976818" lon="11.542324"><ele>652.0</ele><time>2026-05-03T11:54:31.149Z</time></trkpt><trkpt lat="43.7976445" lon="11.5421486"><ele>652.0</ele><time>2026-05-03T11:54:32.149Z</time></trkpt><trkpt lat="43.7976074" lon="11.5419721"><ele>652.0</ele><time>2026-05-03T11:54:33.149Z</time></trkpt><trkpt lat="43.7975778" lon="11.5417955"><ele>660.75</ele><time>2026-05-03T11:54:34.149Z</time></trkpt><trkpt lat="43.7975664" lon="11.5416224"><ele>669.5</ele><time>2026-05-03T11:54:35.148Z</time></trkpt><trkpt lat="43.7975789" lon="11.5414529"><ele>678.25</ele><time>2026-05-03T11:54:36.149Z</time></trkpt><trkpt lat="43.7976142" lon="11.5412873"><ele>687.0</ele><time>2026-05-03T11:54:37.149Z</time></trkpt><trkpt lat="43.7976603" lon="11.5411223"><ele>682.0</ele><time>2026-05-03T11:54:38.149Z</time></trkpt><trkpt lat="43.7977322" lon="11.5409743"><ele>677.0</ele><time>2026-05-03T11:54:39.149Z</time></trkpt><trkpt lat="43.7977962" lon="11.5408217"><ele>672.0</ele><time>2026-05-03T11:54:40.148Z</time></trkpt><trkpt lat="43.7978542" lon="11.5406598"><ele>667.0</ele><time>2026-05-03T11:54:41.149Z</time></trkpt><trkpt lat="43.7978978" lon="11.540516"><ele>668.2</ele><time>2026-05-03T11:54:42.148Z</time></trkpt><trkpt lat="43.7979249" lon="11.5403747"><ele>669.4000000000001</ele><time>2026-05-03T11:54:43.149Z</time></trkpt><trkpt lat="43.7979232" lon="11.540242"><ele>670.5999999999999</ele><time>2026-05-03T11:54:44.148Z</time></trkpt><trkpt lat="43.7979275" lon="11.5401198"><ele>671.8</ele><time>2026-05-03T11:54:45.148Z</time></trkpt><trkpt lat="43.7978442" lon="11.5399996"><ele>673.0</ele><time>2026-05-03T11:54:46.149Z</time></trkpt><trkpt lat="43.7977822" lon="11.5398795"><ele>673.0</ele><time>2026-05-03T11:54:47.149Z</time></trkpt><trkpt lat="43.7977148" lon="11.5397649"><ele>673.0</ele><time>2026-05-03T11:54:48.149Z</time></trkpt><trkpt lat="43.797645" lon="11.5396512"><ele>673.0</ele><time>2026-05-03T11:54:49.148Z</time></trkpt><trkpt lat="43.7975654" lon="11.5395407"><ele>673.0</ele><time>2026-05-03T11:54:50.149Z</time></trkpt><trkpt lat="43.7974812" lon="11.5394375"><ele>673.0</ele><time>2026-05-03T11:54:51.148Z</time></trkpt><trkpt lat="43.7973818" lon="11.539354"><ele>678.0</ele><time>2026-05-03T11:54:52.149Z</time></trkpt><trkpt lat="43.797279" lon="11.5392848"><ele>683.0</ele><time>2026-05-03T11:54:53.148Z</time></trkpt><trkpt lat="43.7971711" lon="11.5392297"><ele>688.0</ele><time>2026-05-03T11:54:54.149Z</time></trkpt><trkpt lat="43.7970603" lon="11.5391803"><ele>693.0</ele><time>2026-05-03T11:54:55.147Z</time></trkpt><trkpt lat="43.7969506" lon="11.5391273"><ele>693.0</ele><time>2026-05-03T11:54:56.149Z</time></trkpt><trkpt lat="43.7968444" lon="11.5390535"><ele>693.0</ele><time>2026-05-03T11:54:57.149Z</time></trkpt><trkpt lat="43.7967421" lon="11.5389598"><ele>693.0</ele><time>2026-05-03T11:54:58.148Z</time></trkpt><trkpt lat="43.7966444" lon="11.538854"><ele>693.0</ele><time>2026-05-03T11:54:59.149Z</time></trkpt><trkpt lat="43.7965508" lon="11.5387353"><ele>694.5</ele><time>2026-05-03T11:55:00.148Z</time></trkpt><trkpt lat="43.796457" lon="11.5386143"><ele>696.0</ele><time>2026-05-03T11:55:01.149Z</time></trkpt><trkpt lat="43.7963678" lon="11.5384905"><ele>697.5</ele><time>2026-05-03T11:55:02.149Z</time></trkpt><trkpt lat="43.7962772" lon="11.5383588"><ele>699.0</ele><time>2026-05-03T11:55:03.149Z</time></trkpt><trkpt lat="43.7961966" lon="11.5382193"><ele>699.0</ele><time>2026-05-03T11:55:04.149Z</time></trkpt><trkpt lat="43.7961259" lon="11.5380693"><ele>699.0</ele><time>2026-05-03T11:55:05.149Z</time></trkpt><trkpt lat="43.7960695" lon="11.5379072"><ele>699.0</ele><time>2026-05-03T11:55:06.149Z</time></trkpt><trkpt lat="43.7960268" lon="11.5377367"><ele>699.0</ele><time>2026-05-03T11:55:07.148Z</time></trkpt><trkpt lat="43.7959979" lon="11.5375605"><ele>698.25</ele><time>2026-05-03T11:55:08.149Z</time></trkpt><trkpt lat="43.7959853" lon="11.53738"><ele>697.5</ele><time>2026-05-03T11:55:09.149Z</time></trkpt><trkpt lat="43.795985" lon="11.5371981"><ele>696.75</ele><time>2026-05-03T11:55:10.149Z</time></trkpt><trkpt lat="43.7959946" lon="11.5370164"><ele>696.0</ele><time>2026-05-03T11:55:11.149Z</time></trkpt><trkpt lat="43.7960037" lon="11.536834"><ele>696.0</ele><time>2026-05-03T11:55:12.148Z</time></trkpt><trkpt lat="43.7960107" lon="11.5366614"><ele>696.0</ele><time>2026-05-03T11:55:13.149Z</time></trkpt><trkpt lat="43.7960207" lon="11.5365145"><ele>696.0</ele><time>2026-05-03T11:55:14.148Z</time></trkpt><trkpt lat="43.7960404" lon="11.5364078"><ele>696.0</ele><time>2026-05-03T11:55:15.149Z</time></trkpt><trkpt lat="43.7960922" lon="11.5362612"><ele>696.0</ele><time>2026-05-03T11:55:17.149Z</time></trkpt><trkpt lat="43.796116" lon="11.5361702"><ele>696.1666666666666</ele><time>2026-05-03T11:55:18.149Z</time></trkpt><trkpt lat="43.7961264" lon="11.5360606"><ele>696.3333333333334</ele><time>2026-05-03T11:55:19.149Z</time></trkpt><trkpt lat="43.7961273" lon="11.5359466"><ele>696.5</ele><time>2026-05-03T11:55:20.149Z</time></trkpt><trkpt lat="43.7961328" lon="11.5358374"><ele>696.6666666666667</ele><time>2026-05-03T11:55:21.148Z</time></trkpt><trkpt lat="43.7961474" lon="11.5357055"><ele>696.8333333333334</ele><time>2026-05-03T11:55:22.148Z</time></trkpt><trkpt lat="43.7961749" lon="11.5355743"><ele>697.0</ele><time>2026-05-03T11:55:23.149Z</time></trkpt><trkpt lat="43.796204" lon="11.5354318"><ele>696.2</ele><time>2026-05-03T11:55:24.149Z</time></trkpt><trkpt lat="43.7962529" lon="11.5353155"><ele>695.4000000000001</ele><time>2026-05-03T11:55:25.149Z</time></trkpt><trkpt lat="43.7963028" lon="11.5351977"><ele>694.5999999999999</ele><time>2026-05-03T11:55:26.149Z</time></trkpt><trkpt lat="43.796353" lon="11.5350754"><ele>693.8</ele><time>2026-05-03T11:55:27.149Z</time></trkpt><trkpt lat="43.7963957" lon="11.5349434"><ele>693.0</ele><time>2026-05-03T11:55:28.149Z</time></trkpt><trkpt lat="43.7964479" lon="11.5348208"><ele>693.0</ele><time>2026-05-03T11:55:29.148Z</time></trkpt><trkpt lat="43.7964919" lon="11.5346389"><ele>693.0</ele><time>2026-05-03T11:55:30.149Z</time></trkpt><trkpt lat="43.7965128" lon="11.5344882"><ele>693.0</ele><time>2026-05-03T11:55:31.148Z</time></trkpt><trkpt lat="43.7965425" lon="11.5343315"><ele>693.0</ele><time>2026-05-03T11:55:32.149Z</time></trkpt><trkpt lat="43.7965735" lon="11.5341759"><ele>693.5999999999999</ele><time>2026-05-03T11:55:33.148Z</time></trkpt><trkpt lat="43.7965975" lon="11.5340248"><ele>694.1999999999999</ele><time>2026-05-03T11:55:34.149Z</time></trkpt><trkpt lat="43.7966291" lon="11.5338753"><ele>694.8</ele><time>2026-05-03T11:55:35.148Z</time></trkpt><trkpt lat="43.7966422" lon="11.5337234"><ele>695.4</ele><time>2026-05-03T11:55:36.149Z</time></trkpt><trkpt lat="43.7966705" lon="11.533586"><ele>696.0</ele><time>2026-05-03T11:55:37.149Z</time></trkpt><trkpt lat="43.7966935" lon="11.5334651"><ele>697.4</ele><time>2026-05-03T11:55:38.147Z</time></trkpt><trkpt lat="43.7967996" lon="11.5333849"><ele>698.8</ele><time>2026-05-03T11:55:39.148Z</time></trkpt><trkpt lat="43.7968818" lon="11.5333077"><ele>700.1999999999999</ele><time>2026-05-03T11:55:40.149Z</time></trkpt><trkpt lat="43.7969482" lon="11.5332087"><ele>701.5999999999999</ele><time>2026-05-03T11:55:41.148Z</time></trkpt><trkpt lat="43.7970033" lon="11.5331185"><ele>703.0</ele><time>2026-05-03T11:55:42.148Z</time></trkpt><trkpt lat="43.7970687" lon="11.5330173"><ele>698.8</ele><time>2026-05-03T11:55:43.149Z</time></trkpt><trkpt lat="43.797151" lon="11.5329261"><ele>694.5999999999999</ele><time>2026-05-03T11:55:44.149Z</time></trkpt><trkpt lat="43.7972136" lon="11.5328366"><ele>690.4000000000001</ele><time>2026-05-03T11:55:45.148Z</time></trkpt><trkpt lat="43.7973248" lon="11.5328048"><ele>686.2</ele><time>2026-05-03T11:55:46.148Z</time></trkpt><trkpt lat="43.797406" lon="11.5327534"><ele>682.0</ele><time>2026-05-03T11:55:47.149Z</time></trkpt><trkpt lat="43.7974909" lon="11.5326898"><ele>682.0</ele><time>2026-05-03T11:55:48.149Z</time></trkpt><trkpt lat="43.7975922" lon="11.532617"><ele>682.0</ele><time>2026-05-03T11:55:49.149Z</time></trkpt><trkpt lat="43.7976897" lon="11.5325484"><ele>682.0</ele><time>2026-05-03T11:55:50.149Z</time></trkpt><trkpt lat="43.7977098" lon="11.532409"><ele>682.0</ele><time>2026-05-03T11:55:51.148Z</time></trkpt><trkpt lat="43.7977834" lon="11.5322997"><ele>682.0</ele><time>2026-05-03T11:55:52.149Z</time></trkpt><trkpt lat="43.7978653" lon="11.5322223"><ele>676.0</ele><time>2026-05-03T11:55:53.149Z</time></trkpt><trkpt lat="43.7979873" lon="11.5322296"><ele>670.0</ele><time>2026-05-03T11:55:54.148Z</time></trkpt><trkpt lat="43.7980732" lon="11.53219"><ele>664.0</ele><time>2026-05-03T11:55:55.149Z</time></trkpt><trkpt lat="43.7981725" lon="11.5321623"><ele>658.0</ele><time>2026-05-03T11:55:56.149Z</time></trkpt><trkpt lat="43.7982466" lon="11.5321344"><ele>652.0</ele><time>2026-05-03T11:55:57.149Z</time></trkpt><trkpt lat="43.798344" lon="11.5320953"><ele>649.5</ele><time>2026-05-03T11:55:58.149Z</time></trkpt><trkpt lat="43.7984373" lon="11.5320519"><ele>647.0</ele><time>2026-05-03T11:55:59.148Z</time></trkpt><trkpt lat="43.798545" lon="11.532033"><ele>644.5</ele><time>2026-05-03T11:56:00.148Z</time></trkpt><trkpt lat="43.7986392" lon="11.5319789"><ele>642.0</ele><time>2026-05-03T11:56:01.149Z</time></trkpt><trkpt lat="43.7987478" lon="11.5318205"><ele>642.0</ele><time>2026-05-03T11:56:03.149Z</time></trkpt><trkpt lat="43.7988092" lon="11.5317204"><ele>642.0</ele><time>2026-05-03T11:56:04.149Z</time></trkpt><trkpt lat="43.7988705" lon="11.5316131"><ele>642.0</ele><time>2026-05-03T11:56:05.149Z</time></trkpt><trkpt lat="43.7988838" lon="11.5314946"><ele>642.0</ele><time>2026-05-03T11:56:06.148Z</time></trkpt><trkpt lat="43.7989117" lon="11.5313247"><ele>642.0</ele><time>2026-05-03T11:56:07.149Z</time></trkpt><trkpt lat="43.79894" lon="11.5311537"><ele>642.2</ele><time>2026-05-03T11:56:08.148Z</time></trkpt><trkpt lat="43.7989463" lon="11.5309823"><ele>642.4000000000001</ele><time>2026-05-03T11:56:09.149Z</time></trkpt><trkpt lat="43.798971" lon="11.5308379"><ele>642.5999999999999</ele><time>2026-05-03T11:56:10.148Z</time></trkpt><trkpt lat="43.7989892" lon="11.5306817"><ele>642.8</ele><time>2026-05-03T11:56:11.149Z</time></trkpt><trkpt lat="43.7990121" lon="11.5305552"><ele>643.0</ele><time>2026-05-03T11:56:12.149Z</time></trkpt><trkpt lat="43.7990228" lon="11.5304491"><ele>641.6666666666667</ele><time>2026-05-03T11:56:13.149Z</time></trkpt><trkpt lat="43.7990448" lon="11.5303381"><ele>640.3333333333334</ele><time>2026-05-03T11:56:14.148Z</time></trkpt><trkpt lat="43.7990069" lon="11.5302439"><ele>639.0</ele><time>2026-05-03T11:56:15.149Z</time></trkpt><trkpt lat="43.7989759" lon="11.5301429"><ele>637.6666666666666</ele><time>2026-05-03T11:56:16.149Z</time></trkpt><trkpt lat="43.7989472" lon="11.5300259"><ele>636.3333333333333</ele><time>2026-05-03T11:56:17.149Z</time></trkpt><trkpt lat="43.7989497" lon="11.5298894"><ele>635.0</ele><time>2026-05-03T11:56:18.149Z</time></trkpt><trkpt lat="43.7989364" lon="11.5297839"><ele>635.0</ele><time>2026-05-03T11:56:19.147Z</time></trkpt><trkpt lat="43.7989266" lon="11.5296522"><ele>635.0</ele><time>2026-05-03T11:56:20.149Z</time></trkpt><trkpt lat="43.7989016" lon="11.5294987"><ele>635.0</ele><time>2026-05-03T11:56:21.148Z</time></trkpt><trkpt lat="43.7988742" lon="11.5293792"><ele>635.0</ele><time>2026-05-03T11:56:22.148Z</time></trkpt><trkpt lat="43.7988479" lon="11.5292559"><ele>635.0</ele><time>2026-05-03T11:56:23.149Z</time></trkpt><trkpt lat="43.7988029" lon="11.5291359"><ele>634.0</ele><time>2026-05-03T11:56:24.148Z</time></trkpt><trkpt lat="43.7987813" lon="11.5290421"><ele>633.0</ele><time>2026-05-03T11:56:25.149Z</time></trkpt><trkpt lat="43.7987441" lon="11.5289456"><ele>632.0</ele><time>2026-05-03T11:56:26.149Z</time></trkpt><trkpt lat="43.7987039" lon="11.5287813"><ele>631.0</ele><time>2026-05-03T11:56:28.148Z</time></trkpt><trkpt lat="43.7986808" lon="11.5286783"><ele>630.0</ele><time>2026-05-03T11:56:29.149Z</time></trkpt><trkpt lat="43.798696" lon="11.52857"><ele>629.0</ele><time>2026-05-03T11:56:30.147Z</time></trkpt><trkpt lat="43.7987087" lon="11.5284475"><ele>629.0</ele><time>2026-05-03T11:56:31.149Z</time></trkpt><trkpt lat="43.7987195" lon="11.5283219"><ele>629.0</ele><time>2026-05-03T11:56:32.147Z</time></trkpt><trkpt lat="43.7987511" lon="11.5281936"><ele>629.0</ele><time>2026-05-03T11:56:33.148Z</time></trkpt><trkpt lat="43.7987967" lon="11.5280737"><ele>629.0</ele><time>2026-05-03T11:56:34.148Z</time></trkpt><trkpt lat="43.7988342" lon="11.5279576"><ele>629.0</ele><time>2026-05-03T11:56:35.149Z</time></trkpt><trkpt lat="43.7988783" lon="11.5278318"><ele>630.0</ele><time>2026-05-03T11:56:36.149Z</time></trkpt><trkpt lat="43.7989234" lon="11.5277316"><ele>631.0</ele><time>2026-05-03T11:56:37.148Z</time></trkpt><trkpt lat="43.7990102" lon="11.5276277"><ele>632.0</ele><time>2026-05-03T11:56:38.149Z</time></trkpt><trkpt lat="43.7991004" lon="11.5275406"><ele>633.0</ele><time>2026-05-03T11:56:39.147Z</time></trkpt><trkpt lat="43.7991855" lon="11.5274513"><ele>634.0</ele><time>2026-05-03T11:56:40.148Z</time></trkpt><trkpt lat="43.7992469" lon="11.5273476"><ele>634.0</ele><time>2026-05-03T11:56:41.148Z</time></trkpt><trkpt lat="43.7993189" lon="11.5272618"><ele>634.0</ele><time>2026-05-03T11:56:42.149Z</time></trkpt><trkpt lat="43.7993884" lon="11.5271872"><ele>634.0</ele><time>2026-05-03T11:56:43.148Z</time></trkpt><trkpt lat="43.7994651" lon="11.5271185"><ele>634.0</ele><time>2026-05-03T11:56:44.149Z</time></trkpt><trkpt lat="43.7995629" lon="11.5271088"><ele>634.0</ele><time>2026-05-03T11:56:45.148Z</time></trkpt><trkpt lat="43.7996553" lon="11.5270791"><ele>634.6</ele><time>2026-05-03T11:56:46.149Z</time></trkpt><trkpt lat="43.7997526" lon="11.5270503"><ele>635.2</ele><time>2026-05-03T11:56:47.149Z</time></trkpt><trkpt lat="43.7998493" lon="11.5270002"><ele>635.8000000000001</ele><time>2026-05-03T11:56:48.149Z</time></trkpt><trkpt lat="43.7999485" lon="11.526932"><ele>636.4</ele><time>2026-05-03T11:56:49.149Z</time></trkpt><trkpt lat="43.8000615" lon="11.526869"><ele>637.0</ele><time>2026-05-03T11:56:50.148Z</time></trkpt><trkpt lat="43.8001675" lon="11.5268145"><ele>633.8000000000001</ele><time>2026-05-03T11:56:51.148Z</time></trkpt><trkpt lat="43.8002787" lon="11.526775"><ele>630.6</ele><time>2026-05-03T11:56:52.148Z</time></trkpt><trkpt lat="43.8003842" lon="11.5267047"><ele>627.4000000000001</ele><time>2026-05-03T11:56:53.147Z</time></trkpt><trkpt lat="43.8004763" lon="11.5266453"><ele>624.2</ele><time>2026-05-03T11:56:54.147Z</time></trkpt><trkpt lat="43.8005558" lon="11.5265723"><ele>621.0</ele><time>2026-05-03T11:56:55.149Z</time></trkpt><trkpt lat="43.8006225" lon="11.5264932"><ele>621.0</ele><time>2026-05-03T11:56:56.149Z</time></trkpt><trkpt lat="43.8006754" lon="11.5263962"><ele>621.0</ele><time>2026-05-03T11:56:57.149Z</time></trkpt><trkpt lat="43.8007179" lon="11.5263118"><ele>621.0</ele><time>2026-05-03T11:56:58.149Z</time></trkpt><trkpt lat="43.8007684" lon="11.5262593"><ele>621.0</ele><time>2026-05-03T11:56:59.149Z</time></trkpt><trkpt lat="43.8008315" lon="11.526222"><ele>621.0</ele><time>2026-05-03T11:57:00.149Z</time></trkpt><trkpt lat="43.8009119" lon="11.5261957"><ele>621.0</ele><time>2026-05-03T11:57:01.149Z</time></trkpt><trkpt lat="43.8010035" lon="11.5261694"><ele>618.4</ele><time>2026-05-03T11:57:02.149Z</time></trkpt><trkpt lat="43.8010911" lon="11.5261349"><ele>615.8</ele><time>2026-05-03T11:57:03.149Z</time></trkpt><trkpt lat="43.8011863" lon="11.5260916"><ele>613.1999999999999</ele><time>2026-05-03T11:57:04.149Z</time></trkpt><trkpt lat="43.8012734" lon="11.5260102"><ele>610.6</ele><time>2026-05-03T11:57:05.148Z</time></trkpt><trkpt lat="43.8013634" lon="11.5259426"><ele>608.0</ele><time>2026-05-03T11:57:06.149Z</time></trkpt><trkpt lat="43.8014577" lon="11.5258729"><ele>608.0</ele><time>2026-05-03T11:57:07.149Z</time></trkpt><trkpt lat="43.8015463" lon="11.5257549"><ele>608.0</ele><time>2026-05-03T11:57:08.148Z</time></trkpt><trkpt lat="43.8016286" lon="11.5256694"><ele>608.0</ele><time>2026-05-03T11:57:09.148Z</time></trkpt><trkpt lat="43.8017089" lon="11.5255829"><ele>608.0</ele><time>2026-05-03T11:57:10.149Z</time></trkpt><trkpt lat="43.8017723" lon="11.5255146"><ele>608.0</ele><time>2026-05-03T11:57:11.148Z</time></trkpt><trkpt lat="43.8018254" lon="11.5254135"><ele>607.0</ele><time>2026-05-03T11:57:13.149Z</time></trkpt><trkpt lat="43.8018863" lon="11.5253107"><ele>606.0</ele><time>2026-05-03T11:57:15.149Z</time></trkpt><trkpt lat="43.801958" lon="11.5251788"><ele>605.0</ele><time>2026-05-03T11:57:17.148Z</time></trkpt><trkpt lat="43.8019913" lon="11.5250857"><ele>604.0</ele><time>2026-05-03T11:57:18.148Z</time></trkpt><trkpt lat="43.8020622" lon="11.5249567"><ele>603.0</ele><time>2026-05-03T11:57:19.148Z</time></trkpt><trkpt lat="43.8021158" lon="11.5248444"><ele>603.0</ele><time>2026-05-03T11:57:20.149Z</time></trkpt><trkpt lat="43.8021984" lon="11.5247427"><ele>603.0</ele><time>2026-05-03T11:57:21.148Z</time></trkpt><trkpt lat="43.8022805" lon="11.5246535"><ele>603.0</ele><time>2026-05-03T11:57:22.149Z</time></trkpt><trkpt lat="43.8023814" lon="11.5245769"><ele>603.0</ele><time>2026-05-03T11:57:23.148Z</time></trkpt><trkpt lat="43.802479" lon="11.5244975"><ele>603.0</ele><time>2026-05-03T11:57:24.148Z</time></trkpt><trkpt lat="43.802581" lon="11.5244032"><ele>601.0</ele><time>2026-05-03T11:57:25.149Z</time></trkpt><trkpt lat="43.8026883" lon="11.5243121"><ele>599.0</ele><time>2026-05-03T11:57:26.148Z</time></trkpt><trkpt lat="43.8027813" lon="11.5242103"><ele>597.0</ele><time>2026-05-03T11:57:27.149Z</time></trkpt><trkpt lat="43.802841" lon="11.5240973"><ele>595.0</ele><time>2026-05-03T11:57:28.148Z</time></trkpt><trkpt lat="43.8029213" lon="11.5240221"><ele>593.0</ele><time>2026-05-03T11:57:29.148Z</time></trkpt><trkpt lat="43.8030141" lon="11.5239794"><ele>593.0</ele><time>2026-05-03T11:57:30.149Z</time></trkpt><trkpt lat="43.803111" lon="11.5239641"><ele>593.0</ele><time>2026-05-03T11:57:31.148Z</time></trkpt><trkpt lat="43.8032163" lon="11.5239564"><ele>593.0</ele><time>2026-05-03T11:57:32.149Z</time></trkpt><trkpt lat="43.8033195" lon="11.5239555"><ele>593.0</ele><time>2026-05-03T11:57:33.149Z</time></trkpt><trkpt lat="43.8034214" lon="11.5239497"><ele>593.0</ele><time>2026-05-03T11:57:34.149Z</time></trkpt><trkpt lat="43.8035205" lon="11.5239413"><ele>590.3333333333333</ele><time>2026-05-03T11:57:35.148Z</time></trkpt><trkpt lat="43.803619" lon="11.5239244"><ele>587.6666666666666</ele><time>2026-05-03T11:57:36.148Z</time></trkpt><trkpt lat="43.8037072" lon="11.5239056"><ele>585.0</ele><time>2026-05-03T11:57:37.148Z</time></trkpt><trkpt lat="43.8037826" lon="11.5238866"><ele>582.3333333333334</ele><time>2026-05-03T11:57:38.149Z</time></trkpt><trkpt lat="43.8038491" lon="11.5238517"><ele>579.6666666666667</ele><time>2026-05-03T11:57:39.149Z</time></trkpt><trkpt lat="43.8039126" lon="11.523798"><ele>577.0</ele><time>2026-05-03T11:57:40.149Z</time></trkpt><trkpt lat="43.803969" lon="11.5237159"><ele>577.0</ele><time>2026-05-03T11:57:41.148Z</time></trkpt><trkpt lat="43.8040308" lon="11.5236279"><ele>577.0</ele><time>2026-05-03T11:57:42.149Z</time></trkpt><trkpt lat="43.8041013" lon="11.5235543"><ele>577.0</ele><time>2026-05-03T11:57:43.149Z</time></trkpt><trkpt lat="43.8041878" lon="11.5234948"><ele>577.0</ele><time>2026-05-03T11:57:44.149Z</time></trkpt><trkpt lat="43.8042832" lon="11.5234393"><ele>577.0</ele><time>2026-05-03T11:57:45.149Z</time></trkpt><trkpt lat="43.8043811" lon="11.5233765"><ele>574.6</ele><time>2026-05-03T11:57:46.149Z</time></trkpt><trkpt lat="43.8044835" lon="11.5233135"><ele>572.2</ele><time>2026-05-03T11:57:47.148Z</time></trkpt><trkpt lat="43.8045809" lon="11.5232527"><ele>569.8</ele><time>2026-05-03T11:57:48.148Z</time></trkpt><trkpt lat="43.8046718" lon="11.5231934"><ele>567.4</ele><time>2026-05-03T11:57:49.148Z</time></trkpt><trkpt lat="43.8047519" lon="11.523123"><ele>565.0</ele><time>2026-05-03T11:57:50.149Z</time></trkpt><trkpt lat="43.8048261" lon="11.5230457"><ele>565.0</ele><time>2026-05-03T11:57:51.149Z</time></trkpt><trkpt lat="43.8048953" lon="11.522964"><ele>565.0</ele><time>2026-05-03T11:57:52.148Z</time></trkpt><trkpt lat="43.8049745" lon="11.5228786"><ele>565.0</ele><time>2026-05-03T11:57:53.148Z</time></trkpt><trkpt lat="43.8050543" lon="11.5227955"><ele>565.0</ele><time>2026-05-03T11:57:54.148Z</time></trkpt><trkpt lat="43.8051294" lon="11.5227161"><ele>565.0</ele><time>2026-05-03T11:57:55.148Z</time></trkpt><trkpt lat="43.8051784" lon="11.5226323"><ele>564.6</ele><time>2026-05-03T11:57:56.148Z</time></trkpt><trkpt lat="43.8051981" lon="11.5225283"><ele>564.2</ele><time>2026-05-03T11:57:57.149Z</time></trkpt><trkpt lat="43.8051887" lon="11.5224134"><ele>563.8</ele><time>2026-05-03T11:57:58.148Z</time></trkpt><trkpt lat="43.8051694" lon="11.5222893"><ele>563.4</ele><time>2026-05-03T11:57:59.148Z</time></trkpt><trkpt lat="43.8051374" lon="11.522156"><ele>563.0</ele><time>2026-05-03T11:58:00.148Z</time></trkpt><trkpt lat="43.8051033" lon="11.5220167"><ele>564.75</ele><time>2026-05-03T11:58:01.149Z</time></trkpt><trkpt lat="43.8050705" lon="11.5218702"><ele>566.5</ele><time>2026-05-03T11:58:02.149Z</time></trkpt><trkpt lat="43.8050288" lon="11.5217172"><ele>568.25</ele><time>2026-05-03T11:58:03.149Z</time></trkpt><trkpt lat="43.8049888" lon="11.5215607"><ele>570.0</ele><time>2026-05-03T11:58:04.147Z</time></trkpt><trkpt lat="43.8049478" lon="11.5213983"><ele>570.0</ele><time>2026-05-03T11:58:05.147Z</time></trkpt><trkpt lat="43.8049091" lon="11.5212329"><ele>570.0</ele><time>2026-05-03T11:58:06.149Z</time></trkpt><trkpt lat="43.8048671" lon="11.5210602"><ele>570.0</ele><time>2026-05-03T11:58:07.149Z</time></trkpt><trkpt lat="43.8048214" lon="11.5208884"><ele>570.0</ele><time>2026-05-03T11:58:08.149Z</time></trkpt><trkpt lat="43.8047825" lon="11.5207209"><ele>570.0</ele><time>2026-05-03T11:58:09.149Z</time></trkpt><trkpt lat="43.804744" lon="11.5205653"><ele>570.0</ele><time>2026-05-03T11:58:10.148Z</time></trkpt><trkpt lat="43.8047025" lon="11.5204286"><ele>570.0</ele><time>2026-05-03T11:58:11.149Z</time></trkpt><trkpt lat="43.8046735" lon="11.5203168"><ele>570.0</ele><time>2026-05-03T11:58:12.149Z</time></trkpt><trkpt lat="43.8046624" lon="11.5202197"><ele>570.0</ele><time>2026-05-03T11:58:13.149Z</time></trkpt><trkpt lat="43.8047247" lon="11.5200731"><ele>569.6666666666666</ele><time>2026-05-03T11:58:15.148Z</time></trkpt><trkpt lat="43.8047942" lon="11.5200224"><ele>569.3333333333334</ele><time>2026-05-03T11:58:16.149Z</time></trkpt><trkpt lat="43.8048731" lon="11.5199709"><ele>569.0</ele><time>2026-05-03T11:58:17.149Z</time></trkpt><trkpt lat="43.8049638" lon="11.5199174"><ele>568.6666666666667</ele><time>2026-05-03T11:58:18.148Z</time></trkpt><trkpt lat="43.8050427" lon="11.519858"><ele>568.3333333333334</ele><time>2026-05-03T11:58:19.149Z</time></trkpt><trkpt lat="43.8051012" lon="11.5197807"><ele>568.0</ele><time>2026-05-03T11:58:20.147Z</time></trkpt><trkpt lat="43.8051274" lon="11.5196827"><ele>566.1999999999999</ele><time>2026-05-03T11:58:21.148Z</time></trkpt><trkpt lat="43.805129" lon="11.5195669"><ele>564.4</ele><time>2026-05-03T11:58:22.148Z</time></trkpt><trkpt lat="43.8051174" lon="11.5194386"><ele>562.5999999999999</ele><time>2026-05-03T11:58:23.149Z</time></trkpt><trkpt lat="43.8051222" lon="11.5192948"><ele>560.8</ele><time>2026-05-03T11:58:24.149Z</time></trkpt><trkpt lat="43.8051502" lon="11.5191535"><ele>559.0</ele><time>2026-05-03T11:58:25.148Z</time></trkpt><trkpt lat="43.8051869" lon="11.5190189"><ele>561.5</ele><time>2026-05-03T11:58:26.148Z</time></trkpt><trkpt lat="43.8052392" lon="11.5188775"><ele>564.0</ele><time>2026-05-03T11:58:27.149Z</time></trkpt><trkpt lat="43.8052925" lon="11.5187372"><ele>566.5</ele><time>2026-05-03T11:58:28.148Z</time></trkpt><trkpt lat="43.8053927" lon="11.5186476"><ele>569.0</ele><time>2026-05-03T11:58:29.149Z</time></trkpt><trkpt lat="43.8054639" lon="11.5185285"><ele>569.0</ele><time>2026-05-03T11:58:30.148Z</time></trkpt><trkpt lat="43.805528" lon="11.5184222"><ele>569.0</ele><time>2026-05-03T11:58:31.148Z</time></trkpt><trkpt lat="43.8055882" lon="11.5183169"><ele>569.0</ele><time>2026-05-03T11:58:32.148Z</time></trkpt><trkpt lat="43.8056143" lon="11.5181929"><ele>569.0</ele><time>2026-05-03T11:58:33.149Z</time></trkpt><trkpt lat="43.8056216" lon="11.5180475"><ele>569.0</ele><time>2026-05-03T11:58:34.148Z</time></trkpt><trkpt lat="43.8056404" lon="11.5179116"><ele>566.2</ele><time>2026-05-03T11:58:35.148Z</time></trkpt><trkpt lat="43.805664" lon="11.5177637"><ele>563.4</ele><time>2026-05-03T11:58:36.149Z</time></trkpt><trkpt lat="43.8056703" lon="11.5176302"><ele>560.6</ele><time>2026-05-03T11:58:37.148Z</time></trkpt><trkpt lat="43.8056819" lon="11.517499"><ele>557.8</ele><time>2026-05-03T11:58:38.149Z</time></trkpt><trkpt lat="43.8057201" lon="11.5173559"><ele>555.0</ele><time>2026-05-03T11:58:39.148Z</time></trkpt><trkpt lat="43.8057403" lon="11.517232"><ele>555.0</ele><time>2026-05-03T11:58:40.148Z</time></trkpt><trkpt lat="43.8057538" lon="11.5170988"><ele>555.0</ele><time>2026-05-03T11:58:41.148Z</time></trkpt><trkpt lat="43.8057479" lon="11.5169765"><ele>555.0</ele><time>2026-05-03T11:58:42.147Z</time></trkpt><trkpt lat="43.8057343" lon="11.5168651"><ele>555.0</ele><time>2026-05-03T11:58:43.149Z</time></trkpt><trkpt lat="43.8057271" lon="11.5167702"><ele>555.0</ele><time>2026-05-03T11:58:44.148Z</time></trkpt><trkpt lat="43.8057311" lon="11.5166765"><ele>555.0</ele><time>2026-05-03T11:58:45.148Z</time></trkpt><trkpt lat="43.8057857" lon="11.5165106"><ele>552.6</ele><time>2026-05-03T11:58:47.148Z</time></trkpt><trkpt lat="43.8058327" lon="11.5164073"><ele>550.2</ele><time>2026-05-03T11:58:48.149Z</time></trkpt><trkpt lat="43.8058822" lon="11.51629"><ele>547.8</ele><time>2026-05-03T11:58:49.149Z</time></trkpt><trkpt lat="43.805936" lon="11.5161734"><ele>545.4</ele><time>2026-05-03T11:58:50.148Z</time></trkpt><trkpt lat="43.8059882" lon="11.5160524"><ele>543.0</ele><time>2026-05-03T11:58:51.148Z</time></trkpt><trkpt lat="43.8060052" lon="11.5158885"><ele>543.0</ele><time>2026-05-03T11:58:52.149Z</time></trkpt><trkpt lat="43.8060471" lon="11.5157586"><ele>543.0</ele><time>2026-05-03T11:58:53.148Z</time></trkpt><trkpt lat="43.8060833" lon="11.5156215"><ele>543.0</ele><time>2026-05-03T11:58:54.149Z</time></trkpt><trkpt lat="43.8061192" lon="11.5154837"><ele>543.0</ele><time>2026-05-03T11:58:55.149Z</time></trkpt><trkpt lat="43.8061364" lon="11.5153448"><ele>543.0</ele><time>2026-05-03T11:58:56.148Z</time></trkpt><trkpt lat="43.8061486" lon="11.5152023"><ele>540.6</ele><time>2026-05-03T11:58:57.148Z</time></trkpt><trkpt lat="43.8061573" lon="11.5150648"><ele>538.1999999999999</ele><time>2026-05-03T11:58:58.149Z</time></trkpt><trkpt lat="43.8061579" lon="11.5149296"><ele>535.8</ele><time>2026-05-03T11:58:59.149Z</time></trkpt><trkpt lat="43.8061657" lon="11.5147812"><ele>533.4</ele><time>2026-05-03T11:59:00.149Z</time></trkpt><trkpt lat="43.8061839" lon="11.5146315"><ele>531.0</ele><time>2026-05-03T11:59:01.149Z</time></trkpt><trkpt lat="43.8062132" lon="11.5144846"><ele>530.2</ele><time>2026-05-03T11:59:02.149Z</time></trkpt><trkpt lat="43.8062354" lon="11.5143313"><ele>529.4000000000001</ele><time>2026-05-03T11:59:03.149Z</time></trkpt><trkpt lat="43.8062535" lon="11.5141862"><ele>528.6</ele><time>2026-05-03T11:59:04.149Z</time></trkpt><trkpt lat="43.8062624" lon="11.5140337"><ele>527.8000000000001</ele><time>2026-05-03T11:59:05.149Z</time></trkpt><trkpt lat="43.8062649" lon="11.5138779"><ele>527.0</ele><time>2026-05-03T11:59:06.147Z</time></trkpt><trkpt lat="43.8062758" lon="11.5137243"><ele>525.8000000000001</ele><time>2026-05-03T11:59:07.147Z</time></trkpt><trkpt lat="43.8062839" lon="11.51358"><ele>524.6</ele><time>2026-05-03T11:59:08.148Z</time></trkpt><trkpt lat="43.8062892" lon="11.5134419"><ele>523.4000000000001</ele><time>2026-05-03T11:59:09.149Z</time></trkpt><trkpt lat="43.8062894" lon="11.5133039"><ele>522.2</ele><time>2026-05-03T11:59:10.149Z</time></trkpt><trkpt lat="43.8062971" lon="11.5131797"><ele>521.0</ele><time>2026-05-03T11:59:11.149Z</time></trkpt><trkpt lat="43.8063074" lon="11.5130735"><ele>521.0</ele><time>2026-05-03T11:59:12.149Z</time></trkpt><trkpt lat="43.8063454" lon="11.512927"><ele>521.0</ele><time>2026-05-03T11:59:14.148Z</time></trkpt><trkpt lat="43.8064529" lon="11.5128458"><ele>521.0</ele><time>2026-05-03T11:59:16.148Z</time></trkpt><trkpt lat="43.8065326" lon="11.5128056"><ele>521.0</ele><time>2026-05-03T11:59:17.148Z</time></trkpt><trkpt lat="43.8066223" lon="11.5127616"><ele>521.0</ele><time>2026-05-03T11:59:18.149Z</time></trkpt><trkpt lat="43.8067083" lon="11.5127203"><ele>518.5</ele><time>2026-05-03T11:59:19.149Z</time></trkpt><trkpt lat="43.8067945" lon="11.512684"><ele>516.0</ele><time>2026-05-03T11:59:20.148Z</time></trkpt><trkpt lat="43.8068775" lon="11.5126546"><ele>513.5</ele><time>2026-05-03T11:59:21.149Z</time></trkpt><trkpt lat="43.8069623" lon="11.5126346"><ele>511.0</ele><time>2026-05-03T11:59:22.149Z</time></trkpt><trkpt lat="43.8070318" lon="11.5126309"><ele>508.49999999999994</ele><time>2026-05-03T11:59:23.149Z</time></trkpt><trkpt lat="43.8071055" lon="11.5126387"><ele>506.0</ele><time>2026-05-03T11:59:24.148Z</time></trkpt><trkpt lat="43.8071823" lon="11.5126938"><ele>504.3333333333333</ele><time>2026-05-03T11:59:25.149Z</time></trkpt><trkpt lat="43.8072602" lon="11.5127391"><ele>502.66666666666663</ele><time>2026-05-03T11:59:26.149Z</time></trkpt><trkpt lat="43.8073364" lon="11.5127884"><ele>501.0</ele><time>2026-05-03T11:59:27.149Z</time></trkpt><trkpt lat="43.8074168" lon="11.5128313"><ele>499.33333333333337</ele><time>2026-05-03T11:59:28.148Z</time></trkpt><trkpt lat="43.807507" lon="11.5128613"><ele>497.6666666666667</ele><time>2026-05-03T11:59:29.148Z</time></trkpt><trkpt lat="43.80758" lon="11.5128699"><ele>496.0</ele><time>2026-05-03T11:59:30.149Z</time></trkpt><trkpt lat="43.8076623" lon="11.5128523"><ele>495.33333333333337</ele><time>2026-05-03T11:59:31.148Z</time></trkpt><trkpt lat="43.8077551" lon="11.5127954"><ele>494.6666666666667</ele><time>2026-05-03T11:59:32.147Z</time></trkpt><trkpt lat="43.8078348" lon="11.5127818"><ele>494.0</ele><time>2026-05-03T11:59:33.148Z</time></trkpt><trkpt lat="43.8079272" lon="11.5127901"><ele>493.33333333333337</ele><time>2026-05-03T11:59:34.149Z</time></trkpt><trkpt lat="43.8080083" lon="11.512794"><ele>492.6666666666667</ele><time>2026-05-03T11:59:35.148Z</time></trkpt><trkpt lat="43.8080993" lon="11.512804"><ele>492.0</ele><time>2026-05-03T11:59:36.148Z</time></trkpt><trkpt lat="43.8081975" lon="11.5127918"><ele>492.0</ele><time>2026-05-03T11:59:37.149Z</time></trkpt><trkpt lat="43.8083001" lon="11.5127791"><ele>492.00000000000006</ele><time>2026-05-03T11:59:38.148Z</time></trkpt><trkpt lat="43.8083966" lon="11.5127821"><ele>492.00000000000006</ele><time>2026-05-03T11:59:39.148Z</time></trkpt><trkpt lat="43.808487" lon="11.5127484"><ele>492.0</ele><time>2026-05-03T11:59:40.148Z</time></trkpt><trkpt lat="43.8085743" lon="11.5127054"><ele>492.0</ele><time>2026-05-03T11:59:41.149Z</time></trkpt><trkpt lat="43.8086407" lon="11.5126607"><ele>491.20000000000005</ele><time>2026-05-03T11:59:42.149Z</time></trkpt><trkpt lat="43.8087345" lon="11.5126053"><ele>490.40000000000003</ele><time>2026-05-03T11:59:44.148Z</time></trkpt><trkpt lat="43.8088374" lon="11.512614"><ele>489.59999999999997</ele><time>2026-05-03T11:59:46.148Z</time></trkpt><trkpt lat="43.8089486" lon="11.5126565"><ele>488.79999999999995</ele><time>2026-05-03T11:59:48.148Z</time></trkpt><trkpt lat="43.8090145" lon="11.5127338"><ele>488.0</ele><time>2026-05-03T11:59:49.148Z</time></trkpt><trkpt lat="43.8090707" lon="11.5128317"><ele>490.2</ele><time>2026-05-03T11:59:50.149Z</time></trkpt><trkpt lat="43.8091053" lon="11.512981"><ele>492.4</ele><time>2026-05-03T11:59:52.148Z</time></trkpt><trkpt lat="43.8091204" lon="11.5131252"><ele>494.59999999999997</ele><time>2026-05-03T11:59:54.148Z</time></trkpt><trkpt lat="43.8091533" lon="11.513249"><ele>496.79999999999995</ele><time>2026-05-03T11:59:56.148Z</time></trkpt><trkpt lat="43.8091834" lon="11.513333"><ele>499.0</ele><time>2026-05-03T11:59:58.149Z</time></trkpt><trkpt lat="43.8092912" lon="11.5133509"><ele>499.4</ele><time>2026-05-03T12:00:00.149Z</time></trkpt><trkpt lat="43.8093877" lon="11.5132263"><ele>499.79999999999995</ele><time>2026-05-03T12:00:02.149Z</time></trkpt><trkpt lat="43.8094335" lon="11.513157"><ele>500.20000000000005</ele><time>2026-05-03T12:00:03.148Z</time></trkpt><trkpt lat="43.809486" lon="11.5130864"><ele>500.6</ele><time>2026-05-03T12:00:04.149Z</time></trkpt><trkpt lat="43.8095512" lon="11.5130059"><ele>501.0</ele><time>2026-05-03T12:00:05.149Z</time></trkpt><trkpt lat="43.8096098" lon="11.5129009"><ele>501.0</ele><time>2026-05-03T12:00:06.149Z</time></trkpt><trkpt lat="43.8096586" lon="11.512805"><ele>501.0</ele><time>2026-05-03T12:00:07.149Z</time></trkpt><trkpt lat="43.8096958" lon="11.5127054"><ele>501.0</ele><time>2026-05-03T12:00:08.149Z</time></trkpt><trkpt lat="43.8097288" lon="11.5126181"><ele>501.0</ele><time>2026-05-03T12:00:09.148Z</time></trkpt><trkpt lat="43.8097579" lon="11.512515"><ele>501.0</ele><time>2026-05-03T12:00:10.149Z</time></trkpt><trkpt lat="43.8098747" lon="11.5124597"><ele>501.0</ele><time>2026-05-03T12:00:12.147Z</time></trkpt><trkpt lat="43.8099325" lon="11.5124091"><ele>501.0</ele><time>2026-05-03T12:00:13.148Z</time></trkpt><trkpt lat="43.8099919" lon="11.5123416"><ele>501.0</ele><time>2026-05-03T12:00:14.149Z</time></trkpt><trkpt lat="43.8101022" lon="11.5123148"><ele>501.0</ele><time>2026-05-03T12:00:16.148Z</time></trkpt><trkpt lat="43.8102074" lon="11.5122733"><ele>501.0</ele><time>2026-05-03T12:00:18.148Z</time></trkpt><trkpt lat="43.810353" lon="11.512316"><ele>501.0</ele><time>2026-05-03T12:00:20.147Z</time></trkpt><trkpt lat="43.8104252" lon="11.5123515"><ele>500.4</ele><time>2026-05-03T12:00:21.148Z</time></trkpt><trkpt lat="43.8104993" lon="11.5123737"><ele>499.8</ele><time>2026-05-03T12:00:22.149Z</time></trkpt><trkpt lat="43.8105668" lon="11.5123884"><ele>499.19999999999993</ele><time>2026-05-03T12:00:23.148Z</time></trkpt><trkpt lat="43.8106708" lon="11.5124536"><ele>498.59999999999997</ele><time>2026-05-03T12:00:25.149Z</time></trkpt><trkpt lat="43.8107731" lon="11.5124496"><ele>498.0</ele><time>2026-05-03T12:00:27.148Z</time></trkpt><trkpt lat="43.8108952" lon="11.5124222"><ele>498.0</ele><time>2026-05-03T12:00:29.149Z</time></trkpt><trkpt lat="43.8109785" lon="11.5124103"><ele>497.99999999999994</ele><time>2026-05-03T12:00:30.148Z</time></trkpt><trkpt lat="43.8110502" lon="11.5124172"><ele>498.0</ele><time>2026-05-03T12:00:31.148Z</time></trkpt><trkpt lat="43.8111225" lon="11.5124121"><ele>498.0</ele><time>2026-05-03T12:00:32.148Z</time></trkpt><trkpt lat="43.8111918" lon="11.5123878"><ele>497.99999999999994</ele><time>2026-05-03T12:00:33.149Z</time></trkpt><trkpt lat="43.8112635" lon="11.5123821"><ele>498.0</ele><time>2026-05-03T12:00:34.149Z</time></trkpt><trkpt lat="43.8113333" lon="11.512392"><ele>498.0</ele><time>2026-05-03T12:00:35.149Z</time></trkpt><trkpt lat="43.8113988" lon="11.5123895"><ele>496.59999999999997</ele><time>2026-05-03T12:00:36.148Z</time></trkpt><trkpt lat="43.8114631" lon="11.5123704"><ele>495.19999999999993</ele><time>2026-05-03T12:00:37.148Z</time></trkpt><trkpt lat="43.8115835" lon="11.5123847"><ele>493.8</ele><time>2026-05-03T12:00:39.149Z</time></trkpt><trkpt lat="43.8117197" lon="11.5124036"><ele>492.4</ele><time>2026-05-03T12:00:41.149Z</time></trkpt><trkpt lat="43.811795" lon="11.5124074"><ele>491.0</ele><time>2026-05-03T12:00:42.147Z</time></trkpt><trkpt lat="43.8118617" lon="11.512426"><ele>490.3333333333333</ele><time>2026-05-03T12:00:43.148Z</time></trkpt><trkpt lat="43.8119783" lon="11.5124724"><ele>489.66666666666663</ele><time>2026-05-03T12:00:45.149Z</time></trkpt><trkpt lat="43.8120466" lon="11.5124673"><ele>489.0</ele><time>2026-05-03T12:00:46.148Z</time></trkpt><trkpt lat="43.8121185" lon="11.5124714"><ele>488.33333333333337</ele><time>2026-05-03T12:00:47.148Z</time></trkpt><trkpt lat="43.8122029" lon="11.5124633"><ele>487.6666666666667</ele><time>2026-05-03T12:00:48.148Z</time></trkpt><trkpt lat="43.8122864" lon="11.5124647"><ele>487.0</ele><time>2026-05-03T12:00:49.149Z</time></trkpt><trkpt lat="43.8123679" lon="11.5124812"><ele>487.00000000000006</ele><time>2026-05-03T12:00:50.149Z</time></trkpt><trkpt lat="43.8124489" lon="11.5124963"><ele>487.0</ele><time>2026-05-03T12:00:51.149Z</time></trkpt><trkpt lat="43.8125118" lon="11.5125046"><ele>487.0</ele><time>2026-05-03T12:00:52.149Z</time></trkpt><trkpt lat="43.8125799" lon="11.512504"><ele>487.0</ele><time>2026-05-03T12:00:53.149Z</time></trkpt><trkpt lat="43.8126833" lon="11.512579"><ele>487.00000000000006</ele><time>2026-05-03T12:00:55.149Z</time></trkpt><trkpt lat="43.8127417" lon="11.5126162"><ele>487.0</ele><time>2026-05-03T12:00:56.148Z</time></trkpt><trkpt lat="43.8128022" lon="11.5126747"><ele>485.50000000000006</ele><time>2026-05-03T12:00:57.148Z</time></trkpt><trkpt lat="43.8128901" lon="11.5127241"><ele>484.0</ele><time>2026-05-03T12:00:58.148Z</time></trkpt><trkpt lat="43.8129628" lon="11.5127441"><ele>482.5</ele><time>2026-05-03T12:00:59.148Z</time></trkpt><trkpt lat="43.8130596" lon="11.5128258"><ele>481.0</ele><time>2026-05-03T12:01:01.148Z</time></trkpt><trkpt lat="43.813129" lon="11.5128587"><ele>479.50000000000006</ele><time>2026-05-03T12:01:03.148Z</time></trkpt><trkpt lat="43.8131585" lon="11.5127523"><ele>478.0</ele><time>2026-05-03T12:01:07.147Z</time></trkpt><trkpt lat="43.8132193" lon="11.5126239"><ele>478.00000000000006</ele><time>2026-05-03T12:01:09.149Z</time></trkpt><trkpt lat="43.8132363" lon="11.5125184"><ele>478.0</ele><time>2026-05-03T12:01:10.149Z</time></trkpt><trkpt lat="43.813249" lon="11.5124137"><ele>478.00000000000006</ele><time>2026-05-03T12:01:11.149Z</time></trkpt><trkpt lat="43.813206" lon="11.5123241"><ele>478.00000000000006</ele><time>2026-05-03T12:01:12.149Z</time></trkpt><trkpt lat="43.8132018" lon="11.5122273"><ele>478.0</ele><time>2026-05-03T12:01:13.149Z</time></trkpt><trkpt lat="43.8131961" lon="11.5121285"><ele>478.00000000000006</ele><time>2026-05-03T12:01:14.149Z</time></trkpt><trkpt lat="43.8131933" lon="11.5120301"><ele>478.00000000000006</ele><time>2026-05-03T12:01:15.148Z</time></trkpt><trkpt lat="43.8131713" lon="11.5118542"><ele>476.0</ele><time>2026-05-03T12:01:17.149Z</time></trkpt><trkpt lat="43.8131217" lon="11.5117127"><ele>473.99999999999994</ele><time>2026-05-03T12:01:19.149Z</time></trkpt><trkpt lat="43.8130807" lon="11.5116147"><ele>471.99999999999994</ele><time>2026-05-03T12:01:20.149Z</time></trkpt><trkpt lat="43.8130365" lon="11.511496"><ele>470.0</ele><time>2026-05-03T12:01:22.149Z</time></trkpt><trkpt lat="43.813111" lon="11.5114411"><ele>468.0</ele><time>2026-05-03T12:01:25.148Z</time></trkpt><trkpt lat="43.8132201" lon="11.5113428"><ele>468.0</ele><time>2026-05-03T12:01:27.148Z</time></trkpt><trkpt lat="43.8132646" lon="11.5112622"><ele>468.0</ele><time>2026-05-03T12:01:28.149Z</time></trkpt><trkpt lat="43.8133129" lon="11.5111898"><ele>468.0</ele><time>2026-05-03T12:01:29.149Z</time></trkpt><trkpt lat="43.8133596" lon="11.51112"><ele>468.0</ele><time>2026-05-03T12:01:30.149Z</time></trkpt><trkpt lat="43.8134256" lon="11.5110127"><ele>468.0</ele><time>2026-05-03T12:01:32.148Z</time></trkpt><trkpt lat="43.8134655" lon="11.5108962"><ele>468.0</ele><time>2026-05-03T12:01:34.149Z</time></trkpt><trkpt lat="43.8135099" lon="11.5107878"><ele>460.4</ele><time>2026-05-03T12:01:36.148Z</time></trkpt><trkpt lat="43.8135761" lon="11.5106752"><ele>452.79999999999995</ele><time>2026-05-03T12:01:38.148Z</time></trkpt><trkpt lat="43.8136463" lon="11.510567"><ele>445.2</ele><time>2026-05-03T12:01:40.149Z</time></trkpt><trkpt lat="43.8136527" lon="11.5104579"><ele>437.6</ele><time>2026-05-03T12:01:42.149Z</time></trkpt><trkpt lat="43.8136145" lon="11.5103251"><ele>430.0</ele><time>2026-05-03T12:01:44.148Z</time></trkpt><trkpt lat="43.8135595" lon="11.5102644"><ele>430.1666666666667</ele><time>2026-05-03T12:01:45.149Z</time></trkpt><trkpt lat="43.8134568" lon="11.510175"><ele>430.33333333333337</ele><time>2026-05-03T12:01:47.149Z</time></trkpt><trkpt lat="43.8134086" lon="11.5101136"><ele>430.5</ele><time>2026-05-03T12:01:48.149Z</time></trkpt><trkpt lat="43.813373" lon="11.5100333"><ele>430.66666666666663</ele><time>2026-05-03T12:01:49.149Z</time></trkpt><trkpt lat="43.8133401" lon="11.5099054"><ele>430.8333333333333</ele><time>2026-05-03T12:01:51.148Z</time></trkpt><trkpt lat="43.8133749" lon="11.5098173"><ele>431.0</ele><time>2026-05-03T12:01:54.149Z</time></trkpt><trkpt lat="43.8134528" lon="11.5097988"><ele>429.49999999999994</ele><time>2026-05-03T12:01:56.148Z</time></trkpt><trkpt lat="43.8135154" lon="11.5097672"><ele>428.0</ele><time>2026-05-03T12:01:57.149Z</time></trkpt><trkpt lat="43.8136039" lon="11.50979"><ele>426.5</ele><time>2026-05-03T12:01:58.148Z</time></trkpt><trkpt lat="43.8137285" lon="11.5097331"><ele>425.0</ele><time>2026-05-03T12:02:00.149Z</time></trkpt><trkpt lat="43.813787" lon="11.5096905"><ele>423.49999999999994</ele><time>2026-05-03T12:02:01.149Z</time></trkpt><trkpt lat="43.8138397" lon="11.5096414"><ele>422.0</ele><time>2026-05-03T12:02:02.148Z</time></trkpt><trkpt lat="43.8139423" lon="11.5096114"><ele>421.99999999999994</ele><time>2026-05-03T12:02:04.148Z</time></trkpt><trkpt lat="43.8140321" lon="11.5096582"><ele>422.0</ele><time>2026-05-03T12:02:06.148Z</time></trkpt><trkpt lat="43.8140934" lon="11.5096874"><ele>422.0</ele><time>2026-05-03T12:02:08.149Z</time></trkpt><trkpt lat="43.8141778" lon="11.5096334"><ele>422.0</ele><time>2026-05-03T12:02:10.148Z</time></trkpt><trkpt lat="43.8142428" lon="11.5095794"><ele>421.99999999999994</ele><time>2026-05-03T12:02:13.147Z</time></trkpt><trkpt lat="43.8143095" lon="11.509534"><ele>422.0</ele><time>2026-05-03T12:02:26.149Z</time></trkpt><trkpt lat="43.8143921" lon="11.5093074"><ele>415.8571428571429</ele><time>2026-05-03T12:02:30.149Z</time></trkpt><trkpt lat="43.8143998" lon="11.5092152"><ele>409.7142857142857</ele><time>2026-05-03T12:02:31.148Z</time></trkpt><trkpt lat="43.8144011" lon="11.5091204"><ele>403.57142857142856</ele><time>2026-05-03T12:02:32.148Z</time></trkpt><trkpt lat="43.814405" lon="11.5090273"><ele>397.42857142857144</ele><time>2026-05-03T12:02:33.149Z</time></trkpt><trkpt lat="43.8144132" lon="11.5089266"><ele>391.2857142857143</ele><time>2026-05-03T12:02:34.148Z</time></trkpt><trkpt lat="43.8143929" lon="11.5088226"><ele>385.14285714285717</ele><time>2026-05-03T12:02:35.147Z</time></trkpt><trkpt lat="43.8143878" lon="11.5087231"><ele>379.0</ele><time>2026-05-03T12:02:36.147Z</time></trkpt><trkpt lat="43.8144298" lon="11.5085872"><ele>378.6</ele><time>2026-05-03T12:02:38.149Z</time></trkpt><trkpt lat="43.8144805" lon="11.5085138"><ele>378.2</ele><time>2026-05-03T12:02:40.149Z</time></trkpt><trkpt lat="43.8145579" lon="11.5085265"><ele>377.8</ele><time>2026-05-03T12:02:43.149Z</time></trkpt><trkpt lat="43.8146432" lon="11.5085102"><ele>377.40000000000003</ele><time>2026-05-03T12:02:45.149Z</time></trkpt><trkpt lat="43.8147355" lon="11.5084216"><ele>377.0</ele><time>2026-05-03T12:02:47.148Z</time></trkpt><trkpt lat="43.8148301" lon="11.5083144"><ele>376.99999999999994</ele><time>2026-05-03T12:02:49.148Z</time></trkpt><trkpt lat="43.814877" lon="11.5082508"><ele>377.0</ele><time>2026-05-03T12:02:50.149Z</time></trkpt><trkpt lat="43.8149256" lon="11.5081879"><ele>377.0</ele><time>2026-05-03T12:02:51.149Z</time></trkpt><trkpt lat="43.8149747" lon="11.5081317"><ele>377.0</ele><time>2026-05-03T12:02:52.149Z</time></trkpt><trkpt lat="43.8150518" lon="11.508047"><ele>377.0</ele><time>2026-05-03T12:02:54.149Z</time></trkpt><trkpt lat="43.8151207" lon="11.5079981"><ele>376.99999999999994</ele><time>2026-05-03T12:02:57.147Z</time></trkpt><trkpt lat="43.8151436" lon="11.5080822"><ele>377.0</ele><time>2026-05-03T12:03:00.148Z</time></trkpt><trkpt lat="43.8151169" lon="11.508194"><ele>377.0</ele><time>2026-05-03T12:03:02.149Z</time></trkpt><trkpt lat="43.8150933" lon="11.5083157"><ele>377.0</ele><time>2026-05-03T12:03:04.148Z</time></trkpt><trkpt lat="43.8150802" lon="11.5084104"><ele>377.0</ele><time>2026-05-03T12:03:06.149Z</time></trkpt><trkpt lat="43.8150606" lon="11.5085161"><ele>377.0</ele><time>2026-05-03T12:03:09.148Z</time></trkpt><trkpt lat="43.815042" lon="11.5086709"><ele>377.0</ele><time>2026-05-03T12:03:28.147Z</time></trkpt><trkpt lat="43.8150349" lon="11.5087651"><ele>377.0</ele><time>2026-05-03T12:03:29.146Z</time></trkpt><trkpt lat="43.8150189" lon="11.5088664"><ele>377.40000000000003</ele><time>2026-05-03T12:03:30.147Z</time></trkpt><trkpt lat="43.8149984" lon="11.5089833"><ele>377.8</ele><time>2026-05-03T12:03:31.148Z</time></trkpt><trkpt lat="43.8149802" lon="11.509108"><ele>378.2</ele><time>2026-05-03T12:03:32.148Z</time></trkpt><trkpt lat="43.8149598" lon="11.509245"><ele>378.6</ele><time>2026-05-03T12:03:33.148Z</time></trkpt><trkpt lat="43.814937" lon="11.5093861"><ele>379.0</ele><time>2026-05-03T12:03:34.147Z</time></trkpt><trkpt lat="43.8149086" lon="11.5095306"><ele>379.66666666666663</ele><time>2026-05-03T12:03:35.147Z</time></trkpt><trkpt lat="43.8148883" lon="11.5096736"><ele>380.3333333333333</ele><time>2026-05-03T12:03:36.148Z</time></trkpt><trkpt lat="43.8148695" lon="11.5097969"><ele>381.0</ele><time>2026-05-03T12:03:37.148Z</time></trkpt><trkpt lat="43.8148606" lon="11.5099184"><ele>381.6666666666667</ele><time>2026-05-03T12:03:38.148Z</time></trkpt><trkpt lat="43.8148412" lon="11.5100269"><ele>382.33333333333337</ele><time>2026-05-03T12:03:39.148Z</time></trkpt><trkpt lat="43.8148357" lon="11.5101307"><ele>383.0</ele><time>2026-05-03T12:03:40.147Z</time></trkpt><trkpt lat="43.8148404" lon="11.5102208"><ele>383.0</ele><time>2026-05-03T12:03:41.148Z</time></trkpt><trkpt lat="43.8148627" lon="11.5103204"><ele>383.0</ele><time>2026-05-03T12:03:42.148Z</time></trkpt><trkpt lat="43.8148863" lon="11.510421"><ele>383.0</ele><time>2026-05-03T12:03:43.148Z</time></trkpt><trkpt lat="43.8149025" lon="11.5105212"><ele>383.0</ele><time>2026-05-03T12:03:44.146Z</time></trkpt><trkpt lat="43.8149071" lon="11.5106501"><ele>383.0</ele><time>2026-05-03T12:03:46.148Z</time></trkpt><trkpt lat="43.8148304" lon="11.5107211"><ele>383.0</ele><time>2026-05-03T12:03:53.148Z</time></trkpt><trkpt lat="43.8147576" lon="11.5108331"><ele>383.83333333333337</ele><time>2026-05-03T12:03:55.146Z</time></trkpt><trkpt lat="43.814724" lon="11.5109225"><ele>384.6666666666667</ele><time>2026-05-03T12:03:56.148Z</time></trkpt><trkpt lat="43.814689" lon="11.5110209"><ele>385.5</ele><time>2026-05-03T12:03:57.147Z</time></trkpt><trkpt lat="43.8146567" lon="11.5111324"><ele>386.33333333333337</ele><time>2026-05-03T12:03:58.148Z</time></trkpt><trkpt lat="43.8146263" lon="11.5112636"><ele>387.1666666666667</ele><time>2026-05-03T12:03:59.146Z</time></trkpt><trkpt lat="43.8146022" lon="11.5113859"><ele>388.0</ele><time>2026-05-03T12:04:00.147Z</time></trkpt><trkpt lat="43.8145817" lon="11.5115056"><ele>388.83333333333337</ele><time>2026-05-03T12:04:01.147Z</time></trkpt><trkpt lat="43.8145609" lon="11.5116252"><ele>389.6666666666667</ele><time>2026-05-03T12:04:02.148Z</time></trkpt><trkpt lat="43.814544" lon="11.5117345"><ele>390.5</ele><time>2026-05-03T12:04:03.147Z</time></trkpt><trkpt lat="43.8145441" lon="11.5118796"><ele>391.33333333333337</ele><time>2026-05-03T12:04:05.147Z</time></trkpt><trkpt lat="43.8146091" lon="11.5118796"><ele>392.1666666666667</ele><time>2026-05-03T12:04:09.147Z</time></trkpt><trkpt lat="43.8146013" lon="11.5117825"><ele>393.0</ele><time>2026-05-03T12:04:11.148Z</time></trkpt><trkpt lat="43.8145788" lon="11.5116365"><ele>393.0</ele><time>2026-05-03T12:04:13.147Z</time></trkpt><trkpt lat="43.814582" lon="11.5114935"><ele>393.0</ele><time>2026-05-03T12:04:15.148Z</time></trkpt><trkpt lat="43.8145987" lon="11.5113495"><ele>393.0</ele><time>2026-05-03T12:04:17.148Z</time></trkpt><trkpt lat="43.8146231" lon="11.5111955"><ele>393.0</ele><time>2026-05-03T12:04:19.146Z</time></trkpt><trkpt lat="43.8146718" lon="11.5110258"><ele>392.1666666666667</ele><time>2026-05-03T12:04:21.148Z</time></trkpt><trkpt lat="43.8147035" lon="11.5109339"><ele>391.33333333333337</ele><time>2026-05-03T12:04:22.148Z</time></trkpt><trkpt lat="43.8147354" lon="11.5108495"><ele>390.5</ele><time>2026-05-03T12:04:23.148Z</time></trkpt><trkpt lat="43.8147997" lon="11.5107312"><ele>389.6666666666667</ele><time>2026-05-03T12:04:25.148Z</time></trkpt><trkpt lat="43.8148529" lon="11.5106675"><ele>388.83333333333337</ele><time>2026-05-03T12:04:27.148Z</time></trkpt><trkpt lat="43.8148882" lon="11.5105725"><ele>388.0</ele><time>2026-05-03T12:04:34.147Z</time></trkpt><trkpt lat="43.8149505" lon="11.5105383"><ele>388.0</ele><time>2026-05-03T12:04:38.146Z</time></trkpt><trkpt lat="43.8150112" lon="11.5105902"><ele>388.0</ele><time>2026-05-03T12:04:40.148Z</time></trkpt><trkpt lat="43.8150566" lon="11.5106541"><ele>388.0</ele><time>2026-05-03T12:04:42.147Z</time></trkpt><trkpt lat="43.8151472" lon="11.5107431"><ele>388.0</ele><time>2026-05-03T12:04:44.148Z</time></trkpt><trkpt lat="43.815242" lon="11.5108346"><ele>388.0</ele><time>2026-05-03T12:04:46.148Z</time></trkpt><trkpt lat="43.8153279" lon="11.5109078"><ele>385.2</ele><time>2026-05-03T12:04:48.147Z</time></trkpt><trkpt lat="43.8154349" lon="11.5109728"><ele>382.4</ele><time>2026-05-03T12:04:50.148Z</time></trkpt><trkpt lat="43.8155356" lon="11.5110427"><ele>379.59999999999997</ele><time>2026-05-03T12:04:52.147Z</time></trkpt><trkpt lat="43.8156193" lon="11.5111274"><ele>376.79999999999995</ele><time>2026-05-03T12:04:54.147Z</time></trkpt><trkpt lat="43.8156712" lon="11.5112151"><ele>374.0</ele><time>2026-05-03T12:04:56.147Z</time></trkpt><trkpt lat="43.8157278" lon="11.5113049"><ele>374.0</ele><time>2026-05-03T12:04:58.148Z</time></trkpt><trkpt lat="43.8158093" lon="11.5114085"><ele>374.0</ele><time>2026-05-03T12:05:00.146Z</time></trkpt><trkpt lat="43.8158969" lon="11.5115218"><ele>374.0</ele><time>2026-05-03T12:05:02.148Z</time></trkpt><trkpt lat="43.8159688" lon="11.5116477"><ele>374.0</ele><time>2026-05-03T12:05:04.147Z</time></trkpt><trkpt lat="43.8160226" lon="11.5117577"><ele>374.0</ele><time>2026-05-03T12:05:06.148Z</time></trkpt><trkpt lat="43.8160597" lon="11.5118325"><ele>370.2</ele><time>2026-05-03T12:05:08.148Z</time></trkpt><trkpt lat="43.8161346" lon="11.5118918"><ele>366.4</ele><time>2026-05-03T12:05:10.148Z</time></trkpt><trkpt lat="43.8161987" lon="11.5119321"><ele>362.6</ele><time>2026-05-03T12:05:11.147Z</time></trkpt><trkpt lat="43.8162919" lon="11.5120429"><ele>358.8</ele><time>2026-05-03T12:05:13.147Z</time></trkpt><trkpt lat="43.8164004" lon="11.5120087"><ele>355.0</ele><time>2026-05-03T12:05:15.147Z</time></trkpt><trkpt lat="43.816464" lon="11.5119688"><ele>355.0</ele><time>2026-05-03T12:05:16.148Z</time></trkpt><trkpt lat="43.8165226" lon="11.5119256"><ele>355.0</ele><time>2026-05-03T12:05:17.147Z</time></trkpt><trkpt lat="43.8165849" lon="11.5118732"><ele>355.0</ele><time>2026-05-03T12:05:18.147Z</time></trkpt><trkpt lat="43.8166472" lon="11.5117649"><ele>355.0</ele><time>2026-05-03T12:05:19.147Z</time></trkpt><trkpt lat="43.8167467" lon="11.5116892"><ele>355.0</ele><time>2026-05-03T12:05:21.147Z</time></trkpt><trkpt lat="43.8168623" lon="11.5116418"><ele>351.0</ele><time>2026-05-03T12:05:23.148Z</time></trkpt><trkpt lat="43.8169242" lon="11.5116159"><ele>347.0</ele><time>2026-05-03T12:05:24.147Z</time></trkpt><trkpt lat="43.8170536" lon="11.5115655"><ele>343.0</ele><time>2026-05-03T12:05:26.148Z</time></trkpt><trkpt lat="43.8171224" lon="11.511538"><ele>339.0</ele><time>2026-05-03T12:05:27.148Z</time></trkpt><trkpt lat="43.8171922" lon="11.5115004"><ele>335.0</ele><time>2026-05-03T12:05:28.148Z</time></trkpt><trkpt lat="43.817268" lon="11.5114624"><ele>331.0</ele><time>2026-05-03T12:05:29.148Z</time></trkpt><trkpt lat="43.8173438" lon="11.5114268"><ele>331.0</ele><time>2026-05-03T12:05:30.148Z</time></trkpt><trkpt lat="43.8174093" lon="11.5113929"><ele>331.0</ele><time>2026-05-03T12:05:31.148Z</time></trkpt><trkpt lat="43.8174788" lon="11.5113817"><ele>331.0</ele><time>2026-05-03T12:05:33.148Z</time></trkpt><trkpt lat="43.8175221" lon="11.5114532"><ele>331.0</ele><time>2026-05-03T12:05:36.146Z</time></trkpt><trkpt lat="43.8174646" lon="11.5115439"><ele>331.0</ele><time>2026-05-03T12:05:40.147Z</time></trkpt><trkpt lat="43.8173818" lon="11.5115987"><ele>331.0</ele><time>2026-05-03T12:05:42.147Z</time></trkpt><trkpt lat="43.8172985" lon="11.5116891"><ele>331.0</ele><time>2026-05-03T12:05:44.147Z</time></trkpt><trkpt lat="43.8172367" lon="11.5118054"><ele>331.0</ele><time>2026-05-03T12:05:46.147Z</time></trkpt><trkpt lat="43.8171687" lon="11.5119322"><ele>331.0</ele><time>2026-05-03T12:05:48.148Z</time></trkpt><trkpt lat="43.8171043" lon="11.5120024"><ele>331.0</ele><time>2026-05-03T12:05:50.148Z</time></trkpt><trkpt lat="43.8171701" lon="11.5119216"><ele>331.0</ele><time>2026-05-03T12:06:00.147Z</time></trkpt><trkpt lat="43.8172487" lon="11.5117642"><ele>331.0</ele><time>2026-05-03T12:06:02.147Z</time></trkpt><trkpt lat="43.8173056" lon="11.5116736"><ele>331.0</ele><time>2026-05-03T12:06:03.147Z</time></trkpt><trkpt lat="43.8173712" lon="11.5115935"><ele>331.0</ele><time>2026-05-03T12:06:04.147Z</time></trkpt><trkpt lat="43.8174427" lon="11.511539"><ele>331.0</ele><time>2026-05-03T12:06:05.147Z</time></trkpt><trkpt lat="43.8175036" lon="11.5114861"><ele>331.0</ele><time>2026-05-03T12:06:06.147Z</time></trkpt><trkpt lat="43.8175502" lon="11.511422"><ele>331.0</ele><time>2026-05-03T12:06:07.148Z</time></trkpt><trkpt lat="43.8176075" lon="11.5112646"><ele>331.3333333333333</ele><time>2026-05-03T12:06:09.148Z</time></trkpt><trkpt lat="43.8176457" lon="11.5111577"><ele>331.66666666666663</ele><time>2026-05-03T12:06:11.147Z</time></trkpt><trkpt lat="43.8176517" lon="11.5110348"><ele>332.0</ele><time>2026-05-03T12:06:17.146Z</time></trkpt><trkpt lat="43.8176346" lon="11.5108607"><ele>332.3333333333333</ele><time>2026-05-03T12:06:19.147Z</time></trkpt><trkpt lat="43.8176154" lon="11.5107661"><ele>332.6666666666667</ele><time>2026-05-03T12:06:20.148Z</time></trkpt><trkpt lat="43.8175984" lon="11.5106814"><ele>333.0</ele><time>2026-05-03T12:06:21.147Z</time></trkpt><trkpt lat="43.8175676" lon="11.5105327"><ele>333.0</ele><time>2026-05-03T12:06:23.147Z</time></trkpt><trkpt lat="43.8175456" lon="11.5103987"><ele>333.0</ele><time>2026-05-03T12:06:25.147Z</time></trkpt><trkpt lat="43.817548" lon="11.5103074"><ele>333.0</ele><time>2026-05-03T12:06:27.147Z</time></trkpt><trkpt lat="43.8175496" lon="11.5103967"><ele>333.0</ele><time>2026-05-03T12:06:37.147Z</time></trkpt><trkpt lat="43.8175847" lon="11.5105471"><ele>333.0</ele><time>2026-05-03T12:06:39.148Z</time></trkpt><trkpt lat="43.8176044" lon="11.510647"><ele>333.0</ele><time>2026-05-03T12:06:40.147Z</time></trkpt><trkpt lat="43.8176244" lon="11.5107522"><ele>333.0</ele><time>2026-05-03T12:06:41.148Z</time></trkpt><trkpt lat="43.8176393" lon="11.5108583"><ele>333.0</ele><time>2026-05-03T12:06:42.147Z</time></trkpt><trkpt lat="43.8176497" lon="11.510957"><ele>333.0</ele><time>2026-05-03T12:06:43.148Z</time></trkpt><trkpt lat="43.8176453" lon="11.5110971"><ele>333.0</ele><time>2026-05-03T12:06:45.148Z</time></trkpt><trkpt lat="43.8176976" lon="11.5111659"><ele>333.0</ele><time>2026-05-03T12:06:50.147Z</time></trkpt><trkpt lat="43.81777" lon="11.5112363"><ele>333.0</ele><time>2026-05-03T12:06:54.148Z</time></trkpt><trkpt lat="43.8177786" lon="11.5113259"><ele>329.2857142857143</ele><time>2026-05-03T12:07:05.148Z</time></trkpt><trkpt lat="43.817837" lon="11.5112888"><ele>325.57142857142856</ele><time>2026-05-03T12:07:08.148Z</time></trkpt><trkpt lat="43.8178937" lon="11.5112421"><ele>321.85714285714283</ele><time>2026-05-03T12:07:10.147Z</time></trkpt><trkpt lat="43.8179733" lon="11.5112737"><ele>318.1428571428571</ele><time>2026-05-03T12:07:13.147Z</time></trkpt><trkpt lat="43.8180407" lon="11.5112936"><ele>314.42857142857144</ele><time>2026-05-03T12:07:16.147Z</time></trkpt><trkpt lat="43.8181164" lon="11.5113185"><ele>310.71428571428567</ele><time>2026-05-03T12:07:19.147Z</time></trkpt><trkpt lat="43.818181" lon="11.5113204"><ele>307.0</ele><time>2026-05-03T12:07:21.146Z</time></trkpt><trkpt lat="43.8182572" lon="11.511319"><ele>307.0</ele><time>2026-05-03T12:07:23.148Z</time></trkpt><trkpt lat="43.8183381" lon="11.5113083"><ele>307.0</ele><time>2026-05-03T12:07:25.148Z</time></trkpt><trkpt lat="43.8184163" lon="11.5112633"><ele>307.0</ele><time>2026-05-03T12:07:27.148Z</time></trkpt><trkpt lat="43.8185073" lon="11.5112195"><ele>307.0</ele><time>2026-05-03T12:07:29.147Z</time></trkpt><trkpt lat="43.8185996" lon="11.5111538"><ele>307.0</ele><time>2026-05-03T12:07:31.146Z</time></trkpt><trkpt lat="43.8187126" lon="11.5111026"><ele>306.0</ele><time>2026-05-03T12:07:33.148Z</time></trkpt><trkpt lat="43.8188223" lon="11.511056"><ele>305.0</ele><time>2026-05-03T12:07:35.148Z</time></trkpt><trkpt lat="43.8189196" lon="11.5110458"><ele>304.0</ele><time>2026-05-03T12:07:37.148Z</time></trkpt><trkpt lat="43.8189968" lon="11.5110757"><ele>303.0</ele><time>2026-05-03T12:07:39.148Z</time></trkpt><trkpt lat="43.8190792" lon="11.5110833"><ele>302.0</ele><time>2026-05-03T12:07:41.148Z</time></trkpt><trkpt lat="43.819189" lon="11.511096"><ele>296.75</ele><time>2026-05-03T12:07:43.147Z</time></trkpt><trkpt lat="43.8193243" lon="11.5110604"><ele>291.5</ele><time>2026-05-03T12:07:45.148Z</time></trkpt><trkpt lat="43.8194499" lon="11.5110269"><ele>286.25</ele><time>2026-05-03T12:07:47.148Z</time></trkpt><trkpt lat="43.8195461" lon="11.5109559"><ele>281.0</ele><time>2026-05-03T12:07:49.147Z</time></trkpt><trkpt lat="43.8196469" lon="11.5109248"><ele>281.0</ele><time>2026-05-03T12:07:51.146Z</time></trkpt><trkpt lat="43.8197485" lon="11.5108676"><ele>281.0</ele><time>2026-05-03T12:07:53.148Z</time></trkpt><trkpt lat="43.8198233" lon="11.5108798"><ele>281.0</ele><time>2026-05-03T12:07:56.147Z</time></trkpt><trkpt lat="43.8198779" lon="11.5109569"><ele>281.0</ele><time>2026-05-03T12:07:58.148Z</time></trkpt><trkpt lat="43.8199454" lon="11.510943"><ele>281.0</ele><time>2026-05-03T12:08:00.148Z</time></trkpt><trkpt lat="43.8200062" lon="11.5108063"><ele>281.0</ele><time>2026-05-03T12:08:03.146Z</time></trkpt><trkpt lat="43.820054" lon="11.5106927"><ele>281.0</ele><time>2026-05-03T12:08:05.148Z</time></trkpt><trkpt lat="43.8200926" lon="11.5105776"><ele>281.0</ele><time>2026-05-03T12:08:07.148Z</time></trkpt><trkpt lat="43.8201404" lon="11.5104704"><ele>281.0</ele><time>2026-05-03T12:08:09.147Z</time></trkpt><trkpt lat="43.820153" lon="11.5103823"><ele>281.0</ele><time>2026-05-03T12:08:10.146Z</time></trkpt><trkpt lat="43.8201765" lon="11.5102546"><ele>281.0</ele><time>2026-05-03T12:08:13.146Z</time></trkpt><trkpt lat="43.8201384" lon="11.5101611"><ele>281.0</ele><time>2026-05-03T12:08:18.148Z</time></trkpt><trkpt lat="43.8201284" lon="11.5100737"><ele>280.1666666666667</ele><time>2026-05-03T12:08:20.148Z</time></trkpt><trkpt lat="43.8201396" lon="11.5099626"><ele>279.33333333333337</ele><time>2026-05-03T12:08:22.146Z</time></trkpt><trkpt lat="43.8201376" lon="11.5098601"><ele>278.5</ele><time>2026-05-03T12:08:24.147Z</time></trkpt><trkpt lat="43.820148" lon="11.5097728"><ele>277.6666666666667</ele><time>2026-05-03T12:08:27.148Z</time></trkpt><trkpt lat="43.8202187" lon="11.5096999"><ele>276.8333333333333</ele><time>2026-05-03T12:08:30.147Z</time></trkpt><trkpt lat="43.8202819" lon="11.5096542"><ele>276.0</ele><time>2026-05-03T12:08:32.148Z</time></trkpt><trkpt lat="43.8203323" lon="11.5095659"><ele>272.5</ele><time>2026-05-03T12:08:34.148Z</time></trkpt><trkpt lat="43.8203697" lon="11.509476"><ele>269.0</ele><time>2026-05-03T12:08:36.147Z</time></trkpt><trkpt lat="43.8204263" lon="11.509425"><ele>265.5</ele><time>2026-05-03T12:08:39.148Z</time></trkpt><trkpt lat="43.8205016" lon="11.5093555"><ele>262.0</ele><time>2026-05-03T12:08:42.148Z</time></trkpt><trkpt lat="43.8205683" lon="11.5092868"><ele>258.5</ele><time>2026-05-03T12:08:44.147Z</time></trkpt><trkpt lat="43.820649" lon="11.5092137"><ele>255.0</ele><time>2026-05-03T12:08:46.147Z</time></trkpt><trkpt lat="43.8207129" lon="11.5091437"><ele>255.0</ele><time>2026-05-03T12:08:48.147Z</time></trkpt><trkpt lat="43.8208076" lon="11.5090908"><ele>255.0</ele><time>2026-05-03T12:08:50.147Z</time></trkpt><trkpt lat="43.8208966" lon="11.5090369"><ele>255.0</ele><time>2026-05-03T12:08:52.147Z</time></trkpt><trkpt lat="43.8209916" lon="11.5090166"><ele>255.0</ele><time>2026-05-03T12:08:54.148Z</time></trkpt><trkpt lat="43.8210641" lon="11.5089244"><ele>255.0</ele><time>2026-05-03T12:08:56.148Z</time></trkpt><trkpt lat="43.821144" lon="11.5089055"><ele>250.5</ele><time>2026-05-03T12:08:58.148Z</time></trkpt><trkpt lat="43.8212291" lon="11.5088484"><ele>246.0</ele><time>2026-05-03T12:09:01.148Z</time></trkpt><trkpt lat="43.8212335" lon="11.5087435"><ele>241.5</ele><time>2026-05-03T12:09:03.147Z</time></trkpt><trkpt lat="43.8212812" lon="11.5086672"><ele>237.0</ele><time>2026-05-03T12:09:05.147Z</time></trkpt><trkpt lat="43.8213332" lon="11.508609"><ele>232.5</ele><time>2026-05-03T12:09:07.147Z</time></trkpt><trkpt lat="43.8213846" lon="11.5085511"><ele>228.0</ele><time>2026-05-03T12:09:09.147Z</time></trkpt><trkpt lat="43.8214118" lon="11.5084515"><ele>228.0</ele><time>2026-05-03T12:09:11.148Z</time></trkpt><trkpt lat="43.821427" lon="11.5083624"><ele>227.99999999999997</ele><time>2026-05-03T12:09:14.148Z</time></trkpt><trkpt lat="43.8214937" lon="11.5083031"><ele>228.0</ele><time>2026-05-03T12:09:18.148Z</time></trkpt><trkpt lat="43.8215617" lon="11.5082578"><ele>228.0</ele><time>2026-05-03T12:09:24.147Z</time></trkpt><trkpt lat="43.8216197" lon="11.5082186"><ele>227.99999999999997</ele><time>2026-05-03T12:09:28.148Z</time></trkpt><trkpt lat="43.8216486" lon="11.5083144"><ele>228.0</ele><time>2026-05-03T12:11:10.147Z</time></trkpt><trkpt lat="43.8216554" lon="11.5084107"><ele>228.0</ele><time>2026-05-03T12:11:13.148Z</time></trkpt><trkpt lat="43.8216868" lon="11.5084917"><ele>228.0</ele><time>2026-05-03T12:11:16.148Z</time></trkpt><trkpt lat="43.8217478" lon="11.5085766"><ele>228.0</ele><time>2026-05-03T12:11:19.147Z</time></trkpt><trkpt lat="43.8217816" lon="11.508654"><ele>228.0</ele><time>2026-05-03T12:11:21.148Z</time></trkpt><trkpt lat="43.8218027" lon="11.5087711"><ele>228.0</ele><time>2026-05-03T12:11:24.147Z</time></trkpt><trkpt lat="43.8218359" lon="11.5088571"><ele>228.0</ele><time>2026-05-03T12:11:28.147Z</time></trkpt><trkpt lat="43.8219012" lon="11.5088403"><ele>228.0</ele><time>2026-05-03T12:11:40.147Z</time></trkpt><trkpt lat="43.8219648" lon="11.5087819"><ele>223.5</ele><time>2026-05-03T12:11:43.147Z</time></trkpt><trkpt lat="43.8220331" lon="11.5087125"><ele>219.0</ele><time>2026-05-03T12:11:48.148Z</time></trkpt><trkpt lat="43.8221009" lon="11.5086766"><ele>214.5</ele><time>2026-05-03T12:11:51.148Z</time></trkpt><trkpt lat="43.8221908" lon="11.5086683"><ele>210.0</ele><time>2026-05-03T12:11:54.146Z</time></trkpt><trkpt lat="43.8222568" lon="11.5086248"><ele>205.5</ele><time>2026-05-03T12:11:57.148Z</time></trkpt><trkpt lat="43.8223374" lon="11.5086305"><ele>201.0</ele><time>2026-05-03T12:12:00.148Z</time></trkpt><trkpt lat="43.8224213" lon="11.5086263"><ele>201.0</ele><time>2026-05-03T12:12:02.148Z</time></trkpt><trkpt lat="43.8225096" lon="11.5086079"><ele>201.0</ele><time>2026-05-03T12:12:04.148Z</time></trkpt><trkpt lat="43.8226024" lon="11.508609"><ele>201.0</ele><time>2026-05-03T12:12:06.148Z</time></trkpt><trkpt lat="43.8226569" lon="11.5086916"><ele>201.0</ele><time>2026-05-03T12:12:08.148Z</time></trkpt><trkpt lat="43.822681" lon="11.5088189"><ele>201.0</ele><time>2026-05-03T12:12:10.147Z</time></trkpt><trkpt lat="43.8227003" lon="11.5089685"><ele>197.20000000000002</ele><time>2026-05-03T12:12:12.148Z</time></trkpt><trkpt lat="43.8227794" lon="11.5090697"><ele>193.4</ele><time>2026-05-03T12:12:14.148Z</time></trkpt><trkpt lat="43.8228817" lon="11.509107"><ele>189.6</ele><time>2026-05-03T12:12:16.146Z</time></trkpt><trkpt lat="43.8229873" lon="11.5090958"><ele>185.8</ele><time>2026-05-03T12:12:18.147Z</time></trkpt><trkpt lat="43.8230699" lon="11.509021"><ele>182.0</ele><time>2026-05-03T12:12:20.147Z</time></trkpt><trkpt lat="43.8231552" lon="11.5089446"><ele>182.0</ele><time>2026-05-03T12:12:22.148Z</time></trkpt><trkpt lat="43.8232375" lon="11.5088905"><ele>182.0</ele><time>2026-05-03T12:12:24.148Z</time></trkpt><trkpt lat="43.8233257" lon="11.5088321"><ele>182.0</ele><time>2026-05-03T12:12:26.147Z</time></trkpt><trkpt lat="43.823381" lon="11.5087047"><ele>182.0</ele><time>2026-05-03T12:12:28.148Z</time></trkpt><trkpt lat="43.8234178" lon="11.5086238"><ele>182.0</ele><time>2026-05-03T12:12:29.148Z</time></trkpt><trkpt lat="43.823461" lon="11.5085367"><ele>182.0</ele><time>2026-05-03T12:12:30.146Z</time></trkpt><trkpt lat="43.8235098" lon="11.5084691"><ele>181.5</ele><time>2026-05-03T12:12:31.148Z</time></trkpt><trkpt lat="43.8236142" lon="11.5083995"><ele>181.0</ele><time>2026-05-03T12:12:33.148Z</time></trkpt><trkpt lat="43.8237408" lon="11.5083886"><ele>180.5</ele><time>2026-05-03T12:12:35.147Z</time></trkpt><trkpt lat="43.8238551" lon="11.5083739"><ele>180.0</ele><time>2026-05-03T12:12:37.148Z</time></trkpt><trkpt lat="43.8239385" lon="11.5082974"><ele>180.0</ele><time>2026-05-03T12:12:39.147Z</time></trkpt><trkpt lat="43.8239772" lon="11.5082227"><ele>180.0</ele><time>2026-05-03T12:12:40.148Z</time></trkpt><trkpt lat="43.8240014" lon="11.5081279"><ele>180.0</ele><time>2026-05-03T12:12:41.148Z</time></trkpt><trkpt lat="43.8240107" lon="11.5080153"><ele>180.0</ele><time>2026-05-03T12:12:42.147Z</time></trkpt><trkpt lat="43.824008" lon="11.5078931"><ele>180.0</ele><time>2026-05-03T12:12:43.146Z</time></trkpt><trkpt lat="43.8240036" lon="11.5077664"><ele>180.0</ele><time>2026-05-03T12:12:44.147Z</time></trkpt><trkpt lat="43.8240045" lon="11.5076399"><ele>179.0</ele><time>2026-05-03T12:12:45.145Z</time></trkpt><trkpt lat="43.8240134" lon="11.5075129"><ele>178.0</ele><time>2026-05-03T12:12:46.145Z</time></trkpt><trkpt lat="43.8240186" lon="11.5073867"><ele>177.0</ele><time>2026-05-03T12:12:47.147Z</time></trkpt><trkpt lat="43.82403" lon="11.5072524"><ele>176.0</ele><time>2026-05-03T12:12:48.146Z</time></trkpt><trkpt lat="43.8240419" lon="11.507117"><ele>175.0</ele><time>2026-05-03T12:12:49.147Z</time></trkpt><trkpt lat="43.8240559" lon="11.5069951"><ele>175.0</ele><time>2026-05-03T12:12:50.147Z</time></trkpt><trkpt lat="43.8240724" lon="11.5068861"><ele>175.0</ele><time>2026-05-03T12:12:51.147Z</time></trkpt><trkpt lat="43.8241025" lon="11.5067808"><ele>175.0</ele><time>2026-05-03T12:12:52.145Z</time></trkpt><trkpt lat="43.8241479" lon="11.5066688"><ele>175.0</ele><time>2026-05-03T12:12:53.146Z</time></trkpt><trkpt lat="43.8242012" lon="11.5065551"><ele>175.0</ele><time>2026-05-03T12:12:54.146Z</time></trkpt><trkpt lat="43.8242645" lon="11.5064462"><ele>174.2</ele><time>2026-05-03T12:12:55.145Z</time></trkpt><trkpt lat="43.8243262" lon="11.5063388"><ele>173.4</ele><time>2026-05-03T12:12:56.147Z</time></trkpt><trkpt lat="43.8243949" lon="11.5062336"><ele>172.60000000000002</ele><time>2026-05-03T12:12:57.146Z</time></trkpt><trkpt lat="43.8244606" lon="11.5061349"><ele>171.8</ele><time>2026-05-03T12:12:58.147Z</time></trkpt><trkpt lat="43.8245203" lon="11.5060396"><ele>171.0</ele><time>2026-05-03T12:12:59.147Z</time></trkpt><trkpt lat="43.8245782" lon="11.5059446"><ele>170.5</ele><time>2026-05-03T12:13:00.146Z</time></trkpt><trkpt lat="43.8246326" lon="11.5058614"><ele>170.0</ele><time>2026-05-03T12:13:01.146Z</time></trkpt><trkpt lat="43.8246969" lon="11.5058001"><ele>169.5</ele><time>2026-05-03T12:13:02.147Z</time></trkpt><trkpt lat="43.8247609" lon="11.5057669"><ele>169.0</ele><time>2026-05-03T12:13:03.147Z</time></trkpt><trkpt lat="43.8248262" lon="11.5057612"><ele>168.5</ele><time>2026-05-03T12:13:04.146Z</time></trkpt><trkpt lat="43.8249398" lon="11.5058162"><ele>168.0</ele><time>2026-05-03T12:13:06.147Z</time></trkpt><trkpt lat="43.8250476" lon="11.505882"><ele>168.0</ele><time>2026-05-03T12:13:08.146Z</time></trkpt><trkpt lat="43.8251234" lon="11.5058419"><ele>168.0</ele><time>2026-05-03T12:13:10.146Z</time></trkpt><trkpt lat="43.8251671" lon="11.5056826"><ele>168.0</ele><time>2026-05-03T12:13:12.147Z</time></trkpt><trkpt lat="43.8251829" lon="11.5055715"><ele>168.0</ele><time>2026-05-03T12:13:13.146Z</time></trkpt><trkpt lat="43.8251895" lon="11.5054478"><ele>168.0</ele><time>2026-05-03T12:13:14.145Z</time></trkpt><trkpt lat="43.8251862" lon="11.5053097"><ele>167.25</ele><time>2026-05-03T12:13:15.147Z</time></trkpt><trkpt lat="43.8251679" lon="11.5051638"><ele>166.5</ele><time>2026-05-03T12:13:16.147Z</time></trkpt><trkpt lat="43.8251395" lon="11.5050085"><ele>165.75</ele><time>2026-05-03T12:13:17.147Z</time></trkpt><trkpt lat="43.8251082" lon="11.5048473"><ele>165.0</ele><time>2026-05-03T12:13:18.147Z</time></trkpt><trkpt lat="43.8250722" lon="11.504679"><ele>166.75</ele><time>2026-05-03T12:13:19.146Z</time></trkpt><trkpt lat="43.8250309" lon="11.5045105"><ele>168.5</ele><time>2026-05-03T12:13:20.147Z</time></trkpt><trkpt lat="43.8249882" lon="11.5043485"><ele>170.25</ele><time>2026-05-03T12:13:21.147Z</time></trkpt><trkpt lat="43.8249454" lon="11.5041891"><ele>172.0</ele><time>2026-05-03T12:13:22.147Z</time></trkpt><trkpt lat="43.8249045" lon="11.504044"><ele>172.0</ele><time>2026-05-03T12:13:23.145Z</time></trkpt><trkpt lat="43.8248632" lon="11.5038996"><ele>172.0</ele><time>2026-05-03T12:13:24.146Z</time></trkpt><trkpt lat="43.8248169" lon="11.5037574"><ele>172.0</ele><time>2026-05-03T12:13:25.147Z</time></trkpt><trkpt lat="43.8247563" lon="11.5036185"><ele>172.0</ele><time>2026-05-03T12:13:26.146Z</time></trkpt><trkpt lat="43.8246884" lon="11.5034852"><ele>174.25</ele><time>2026-05-03T12:13:27.146Z</time></trkpt><trkpt lat="43.8246049" lon="11.5033727"><ele>176.5</ele><time>2026-05-03T12:13:28.147Z</time></trkpt><trkpt lat="43.8245132" lon="11.5032621"><ele>178.75</ele><time>2026-05-03T12:13:29.146Z</time></trkpt><trkpt lat="43.8244106" lon="11.5031621"><ele>181.0</ele><time>2026-05-03T12:13:30.147Z</time></trkpt><trkpt lat="43.824301" lon="11.503067"><ele>177.75</ele><time>2026-05-03T12:13:31.147Z</time></trkpt><trkpt lat="43.8241919" lon="11.5029654"><ele>174.5</ele><time>2026-05-03T12:13:32.146Z</time></trkpt><trkpt lat="43.8240706" lon="11.5028795"><ele>171.25</ele><time>2026-05-03T12:13:33.147Z</time></trkpt><trkpt lat="43.823954" lon="11.5027829"><ele>168.0</ele><time>2026-05-03T12:13:34.147Z</time></trkpt><trkpt lat="43.8238328" lon="11.50269"><ele>168.0</ele><time>2026-05-03T12:13:35.146Z</time></trkpt><trkpt lat="43.8237101" lon="11.5025998"><ele>168.0</ele><time>2026-05-03T12:13:36.146Z</time></trkpt><trkpt lat="43.8235891" lon="11.5025054"><ele>168.0</ele><time>2026-05-03T12:13:37.146Z</time></trkpt><trkpt lat="43.8234674" lon="11.5024106"><ele>168.0</ele><time>2026-05-03T12:13:38.147Z</time></trkpt><trkpt lat="43.8233581" lon="11.5023206"><ele>166.25</ele><time>2026-05-03T12:13:39.145Z</time></trkpt><trkpt lat="43.8232593" lon="11.5022266"><ele>164.5</ele><time>2026-05-03T12:13:40.146Z</time></trkpt><trkpt lat="43.823169" lon="11.5021095"><ele>162.75</ele><time>2026-05-03T12:13:41.145Z</time></trkpt><trkpt lat="43.8230904" lon="11.5019701"><ele>161.0</ele><time>2026-05-03T12:13:42.147Z</time></trkpt><trkpt lat="43.8230205" lon="11.5018127"><ele>161.0</ele><time>2026-05-03T12:13:43.147Z</time></trkpt><trkpt lat="43.8229605" lon="11.5016461"><ele>161.0</ele><time>2026-05-03T12:13:44.147Z</time></trkpt><trkpt lat="43.8229168" lon="11.5014628"><ele>161.0</ele><time>2026-05-03T12:13:45.147Z</time></trkpt><trkpt lat="43.8228863" lon="11.5012708"><ele>161.0</ele><time>2026-05-03T12:13:46.146Z</time></trkpt><trkpt lat="43.8228712" lon="11.5010731"><ele>163.25</ele><time>2026-05-03T12:13:47.147Z</time></trkpt><trkpt lat="43.8228622" lon="11.5008729"><ele>165.5</ele><time>2026-05-03T12:13:48.146Z</time></trkpt><trkpt lat="43.8228558" lon="11.5006779"><ele>167.75</ele><time>2026-05-03T12:13:49.146Z</time></trkpt><trkpt lat="43.822843" lon="11.5004959"><ele>170.0</ele><time>2026-05-03T12:13:50.147Z</time></trkpt><trkpt lat="43.8228266" lon="11.5003226"><ele>167.5</ele><time>2026-05-03T12:13:51.147Z</time></trkpt><trkpt lat="43.8227924" lon="11.5001566"><ele>165.0</ele><time>2026-05-03T12:13:52.145Z</time></trkpt><trkpt lat="43.8227532" lon="11.5000046"><ele>162.5</ele><time>2026-05-03T12:13:53.147Z</time></trkpt><trkpt lat="43.8226989" lon="11.4998604"><ele>160.0</ele><time>2026-05-03T12:13:54.147Z</time></trkpt><trkpt lat="43.8225647" lon="11.4998081"><ele>160.0</ele><time>2026-05-03T12:13:55.147Z</time></trkpt><trkpt lat="43.8224686" lon="11.4997242"><ele>160.0</ele><time>2026-05-03T12:13:56.146Z</time></trkpt><trkpt lat="43.8223729" lon="11.499669"><ele>160.0</ele><time>2026-05-03T12:13:57.146Z</time></trkpt><trkpt lat="43.8222808" lon="11.4996132"><ele>160.0</ele><time>2026-05-03T12:13:58.147Z</time></trkpt><trkpt lat="43.8221935" lon="11.4995499"><ele>160.0</ele><time>2026-05-03T12:13:59.147Z</time></trkpt><trkpt lat="43.8221078" lon="11.4994823"><ele>163.4</ele><time>2026-05-03T12:14:00.147Z</time></trkpt><trkpt lat="43.8220307" lon="11.4993903"><ele>166.8</ele><time>2026-05-03T12:14:01.147Z</time></trkpt><trkpt lat="43.8219691" lon="11.4992644"><ele>170.2</ele><time>2026-05-03T12:14:02.147Z</time></trkpt><trkpt lat="43.8219208" lon="11.4991183"><ele>173.6</ele><time>2026-05-03T12:14:03.147Z</time></trkpt><trkpt lat="43.8218805" lon="11.4989607"><ele>177.0</ele><time>2026-05-03T12:14:04.147Z</time></trkpt><trkpt lat="43.8218426" lon="11.4987946"><ele>170.75</ele><time>2026-05-03T12:14:05.147Z</time></trkpt><trkpt lat="43.8218012" lon="11.4986295"><ele>164.5</ele><time>2026-05-03T12:14:06.146Z</time></trkpt><trkpt lat="43.821756" lon="11.4984623"><ele>158.25</ele><time>2026-05-03T12:14:07.146Z</time></trkpt><trkpt lat="43.8217108" lon="11.4982923"><ele>152.0</ele><time>2026-05-03T12:14:08.147Z</time></trkpt><trkpt lat="43.8216666" lon="11.4981217"><ele>152.0</ele><time>2026-05-03T12:14:09.146Z</time></trkpt><trkpt lat="43.8216232" lon="11.4979577"><ele>152.0</ele><time>2026-05-03T12:14:10.147Z</time></trkpt><trkpt lat="43.821589" lon="11.4978025"><ele>152.0</ele><time>2026-05-03T12:14:11.147Z</time></trkpt><trkpt lat="43.8215711" lon="11.4976587"><ele>152.0</ele><time>2026-05-03T12:14:12.146Z</time></trkpt><trkpt lat="43.8215781" lon="11.4975225"><ele>152.0</ele><time>2026-05-03T12:14:13.147Z</time></trkpt><trkpt lat="43.8216095" lon="11.497391"><ele>151.25</ele><time>2026-05-03T12:14:14.147Z</time></trkpt><trkpt lat="43.8216682" lon="11.4972647"><ele>150.5</ele><time>2026-05-03T12:14:15.147Z</time></trkpt><trkpt lat="43.8217444" lon="11.4971469"><ele>149.75</ele><time>2026-05-03T12:14:16.146Z</time></trkpt><trkpt lat="43.8218279" lon="11.49703"><ele>149.0</ele><time>2026-05-03T12:14:17.146Z</time></trkpt><trkpt lat="43.8219072" lon="11.4969075"><ele>155.5</ele><time>2026-05-03T12:14:18.147Z</time></trkpt><trkpt lat="43.82197" lon="11.4967643"><ele>162.0</ele><time>2026-05-03T12:14:19.146Z</time></trkpt><trkpt lat="43.8220088" lon="11.496605"><ele>168.5</ele><time>2026-05-03T12:14:20.146Z</time></trkpt><trkpt lat="43.822023" lon="11.4964359"><ele>175.0</ele><time>2026-05-03T12:14:21.147Z</time></trkpt><trkpt lat="43.8220113" lon="11.4962617"><ele>170.0</ele><time>2026-05-03T12:14:22.147Z</time></trkpt><trkpt lat="43.8219813" lon="11.4960851"><ele>165.0</ele><time>2026-05-03T12:14:23.147Z</time></trkpt><trkpt lat="43.8219383" lon="11.4959076"><ele>160.0</ele><time>2026-05-03T12:14:24.147Z</time></trkpt><trkpt lat="43.8218916" lon="11.4957277"><ele>155.0</ele><time>2026-05-03T12:14:25.147Z</time></trkpt><trkpt lat="43.821848" lon="11.495546"><ele>151.0</ele><time>2026-05-03T12:14:26.147Z</time></trkpt><trkpt lat="43.8218118" lon="11.4953759"><ele>147.0</ele><time>2026-05-03T12:14:27.146Z</time></trkpt><trkpt lat="43.8217802" lon="11.4952059"><ele>143.0</ele><time>2026-05-03T12:14:28.147Z</time></trkpt><trkpt lat="43.8217575" lon="11.4950452"><ele>139.0</ele><time>2026-05-03T12:14:29.147Z</time></trkpt><trkpt lat="43.8217522" lon="11.4948881"><ele>139.0</ele><time>2026-05-03T12:14:30.147Z</time></trkpt><trkpt lat="43.8217742" lon="11.494737"><ele>139.0</ele><time>2026-05-03T12:14:31.147Z</time></trkpt><trkpt lat="43.8218175" lon="11.4945845"><ele>139.0</ele><time>2026-05-03T12:14:32.146Z</time></trkpt><trkpt lat="43.8218725" lon="11.49443"><ele>139.0</ele><time>2026-05-03T12:14:33.146Z</time></trkpt><trkpt lat="43.8219311" lon="11.4942722"><ele>138.0</ele><time>2026-05-03T12:14:34.147Z</time></trkpt><trkpt lat="43.8219941" lon="11.4941199"><ele>137.0</ele><time>2026-05-03T12:14:35.146Z</time></trkpt><trkpt lat="43.8220586" lon="11.4939645"><ele>136.0</ele><time>2026-05-03T12:14:36.147Z</time></trkpt><trkpt lat="43.8221221" lon="11.4938123"><ele>135.0</ele><time>2026-05-03T12:14:37.146Z</time></trkpt><trkpt lat="43.8221842" lon="11.4936558"><ele>135.0</ele><time>2026-05-03T12:14:38.146Z</time></trkpt><trkpt lat="43.8222455" lon="11.4934988"><ele>135.0</ele><time>2026-05-03T12:14:39.147Z</time></trkpt><trkpt lat="43.8223053" lon="11.4933434"><ele>135.0</ele><time>2026-05-03T12:14:40.146Z</time></trkpt><trkpt lat="43.8223622" lon="11.4931962"><ele>135.0</ele><time>2026-05-03T12:14:41.146Z</time></trkpt><trkpt lat="43.8224245" lon="11.4930683"><ele>135.0</ele><time>2026-05-03T12:14:42.147Z</time></trkpt><trkpt lat="43.8224955" lon="11.492959"><ele>135.0</ele><time>2026-05-03T12:14:43.145Z</time></trkpt><trkpt lat="43.8225734" lon="11.4928675"><ele>135.0</ele><time>2026-05-03T12:14:44.147Z</time></trkpt><trkpt lat="43.8226465" lon="11.4927744"><ele>135.0</ele><time>2026-05-03T12:14:45.146Z</time></trkpt><trkpt lat="43.8227149" lon="11.4926749"><ele>135.0</ele><time>2026-05-03T12:14:46.147Z</time></trkpt><trkpt lat="43.8227866" lon="11.4925712"><ele>132.75</ele><time>2026-05-03T12:14:47.147Z</time></trkpt><trkpt lat="43.8228614" lon="11.4924777"><ele>130.5</ele><time>2026-05-03T12:14:48.146Z</time></trkpt><trkpt lat="43.8229523" lon="11.4923854"><ele>128.25</ele><time>2026-05-03T12:14:49.146Z</time></trkpt><trkpt lat="43.823054" lon="11.4923019"><ele>126.0</ele><time>2026-05-03T12:14:50.146Z</time></trkpt><trkpt lat="43.823163" lon="11.4922276"><ele>126.0</ele><time>2026-05-03T12:14:51.147Z</time></trkpt><trkpt lat="43.8232793" lon="11.4921645"><ele>126.0</ele><time>2026-05-03T12:14:52.145Z</time></trkpt><trkpt lat="43.8234001" lon="11.4921031"><ele>126.0</ele><time>2026-05-03T12:14:53.146Z</time></trkpt><trkpt lat="43.8235206" lon="11.4920429"><ele>126.0</ele><time>2026-05-03T12:14:54.147Z</time></trkpt><trkpt lat="43.8236452" lon="11.4919845"><ele>125.75</ele><time>2026-05-03T12:14:55.146Z</time></trkpt><trkpt lat="43.823769" lon="11.491923"><ele>125.5</ele><time>2026-05-03T12:14:56.146Z</time></trkpt><trkpt lat="43.8238949" lon="11.4918541"><ele>125.25</ele><time>2026-05-03T12:14:57.147Z</time></trkpt><trkpt lat="43.8240131" lon="11.491788"><ele>125.0</ele><time>2026-05-03T12:14:58.145Z</time></trkpt><trkpt lat="43.8241191" lon="11.4917188"><ele>125.0</ele><time>2026-05-03T12:14:59.146Z</time></trkpt><trkpt lat="43.8242264" lon="11.4916526"><ele>125.0</ele><time>2026-05-03T12:15:00.146Z</time></trkpt><trkpt lat="43.8243391" lon="11.491597"><ele>125.0</ele><time>2026-05-03T12:15:01.147Z</time></trkpt><trkpt lat="43.8244572" lon="11.4915679"><ele>125.0</ele><time>2026-05-03T12:15:02.146Z</time></trkpt><trkpt lat="43.8245788" lon="11.4915534"><ele>124.5</ele><time>2026-05-03T12:15:03.145Z</time></trkpt><trkpt lat="43.8247034" lon="11.4915454"><ele>124.0</ele><time>2026-05-03T12:15:04.147Z</time></trkpt><trkpt lat="43.8248227" lon="11.4915373"><ele>123.5</ele><time>2026-05-03T12:15:05.147Z</time></trkpt><trkpt lat="43.824944" lon="11.4915275"><ele>123.0</ele><time>2026-05-03T12:15:06.147Z</time></trkpt><trkpt lat="43.8250692" lon="11.491515"><ele>122.80000000000001</ele><time>2026-05-03T12:15:07.146Z</time></trkpt><trkpt lat="43.8251862" lon="11.4914995"><ele>122.60000000000001</ele><time>2026-05-03T12:15:08.146Z</time></trkpt><trkpt lat="43.8252934" lon="11.4914856"><ele>122.39999999999999</ele><time>2026-05-03T12:15:09.146Z</time></trkpt><trkpt lat="43.8253908" lon="11.4914689"><ele>122.19999999999999</ele><time>2026-05-03T12:15:10.146Z</time></trkpt><trkpt lat="43.8254697" lon="11.4914364"><ele>122.0</ele><time>2026-05-03T12:15:11.147Z</time></trkpt><trkpt lat="43.8255351" lon="11.4913771"><ele>121.99999999999999</ele><time>2026-05-03T12:15:12.146Z</time></trkpt><trkpt lat="43.8255799" lon="11.491289"><ele>122.0</ele><time>2026-05-03T12:15:13.147Z</time></trkpt><trkpt lat="43.8256113" lon="11.4911876"><ele>122.0</ele><time>2026-05-03T12:15:14.146Z</time></trkpt><trkpt lat="43.8256366" lon="11.4910997"><ele>122.0</ele><time>2026-05-03T12:15:15.146Z</time></trkpt><trkpt lat="43.8256636" lon="11.490981"><ele>121.99999999999999</ele><time>2026-05-03T12:15:17.147Z</time></trkpt><trkpt lat="43.8256299" lon="11.4908854"><ele>122.0</ele><time>2026-05-03T12:15:21.147Z</time></trkpt><trkpt lat="43.8255499" lon="11.4908382"><ele>121.83333333333333</ele><time>2026-05-03T12:15:23.147Z</time></trkpt><trkpt lat="43.8254871" lon="11.4908234"><ele>121.66666666666666</ele><time>2026-05-03T12:15:24.145Z</time></trkpt><trkpt lat="43.8254187" lon="11.4908073"><ele>121.5</ele><time>2026-05-03T12:15:25.146Z</time></trkpt><trkpt lat="43.8253537" lon="11.4907948"><ele>121.33333333333334</ele><time>2026-05-03T12:15:26.146Z</time></trkpt><trkpt lat="43.8252454" lon="11.490758"><ele>121.16666666666667</ele><time>2026-05-03T12:15:28.146Z</time></trkpt><trkpt lat="43.8251739" lon="11.4907289"><ele>121.0</ele><time>2026-05-03T12:15:30.147Z</time></trkpt><trkpt lat="43.8251083" lon="11.4907258"><ele>121.0</ele><time>2026-05-03T12:15:33.147Z</time></trkpt><trkpt lat="43.8251862" lon="11.4907787"><ele>121.0</ele><time>2026-05-03T12:15:37.147Z</time></trkpt><trkpt lat="43.8253143" lon="11.4907907"><ele>121.0</ele><time>2026-05-03T12:15:39.146Z</time></trkpt><trkpt lat="43.825396" lon="11.4908193"><ele>121.0</ele><time>2026-05-03T12:15:40.147Z</time></trkpt><trkpt lat="43.8254779" lon="11.4908524"><ele>121.0</ele><time>2026-05-03T12:15:41.147Z</time></trkpt><trkpt lat="43.8255509" lon="11.4908816"><ele>121.0</ele><time>2026-05-03T12:15:42.147Z</time></trkpt><trkpt lat="43.8256221" lon="11.490904"><ele>120.99999999999999</ele><time>2026-05-03T12:15:43.146Z</time></trkpt><trkpt lat="43.8256911" lon="11.4909075"><ele>121.0</ele><time>2026-05-03T12:15:44.146Z</time></trkpt><trkpt lat="43.8257598" lon="11.4909017"><ele>121.0</ele><time>2026-05-03T12:15:45.146Z</time></trkpt><trkpt lat="43.8258327" lon="11.4908818"><ele>120.99999999999999</ele><time>2026-05-03T12:15:46.147Z</time></trkpt><trkpt lat="43.8259105" lon="11.4908596"><ele>121.0</ele><time>2026-05-03T12:15:47.146Z</time></trkpt><trkpt lat="43.8259861" lon="11.4908364"><ele>121.0</ele><time>2026-05-03T12:15:48.146Z</time></trkpt><trkpt lat="43.8260613" lon="11.4908097"><ele>120.66666666666667</ele><time>2026-05-03T12:15:49.146Z</time></trkpt><trkpt lat="43.8261402" lon="11.4907858"><ele>120.33333333333334</ele><time>2026-05-03T12:15:50.146Z</time></trkpt><trkpt lat="43.826219" lon="11.4907605"><ele>120.0</ele><time>2026-05-03T12:15:51.147Z</time></trkpt><trkpt lat="43.8262987" lon="11.4907387"><ele>119.66666666666666</ele><time>2026-05-03T12:15:52.146Z</time></trkpt><trkpt lat="43.8263747" lon="11.490717"><ele>119.33333333333333</ele><time>2026-05-03T12:15:53.146Z</time></trkpt><trkpt lat="43.8264509" lon="11.4906921"><ele>119.0</ele><time>2026-05-03T12:15:54.147Z</time></trkpt><trkpt lat="43.8265239" lon="11.4906648"><ele>119.0</ele><time>2026-05-03T12:15:55.147Z</time></trkpt><trkpt lat="43.8265998" lon="11.4906289"><ele>119.0</ele><time>2026-05-03T12:15:56.147Z</time></trkpt><trkpt lat="43.8266764" lon="11.490599"><ele>119.0</ele><time>2026-05-03T12:15:57.146Z</time></trkpt><trkpt lat="43.8267498" lon="11.4905836"><ele>119.0</ele><time>2026-05-03T12:15:58.146Z</time></trkpt><trkpt lat="43.8268239" lon="11.4905717"><ele>119.0</ele><time>2026-05-03T12:15:59.146Z</time></trkpt><trkpt lat="43.8268929" lon="11.4905614"><ele>119.0</ele><time>2026-05-03T12:16:00.146Z</time></trkpt><trkpt lat="43.8269613" lon="11.4905507"><ele>119.0</ele><time>2026-05-03T12:16:01.145Z</time></trkpt><trkpt lat="43.827027" lon="11.4905398"><ele>119.0</ele><time>2026-05-03T12:16:02.147Z</time></trkpt><trkpt lat="43.8271424" lon="11.4905163"><ele>119.0</ele><time>2026-05-03T12:16:04.146Z</time></trkpt><trkpt lat="43.8272058" lon="11.4905081"><ele>119.0</ele><time>2026-05-03T12:16:06.147Z</time></trkpt><trkpt lat="43.8272628" lon="11.4904519"><ele>119.0</ele><time>2026-05-03T12:16:10.147Z</time></trkpt><trkpt lat="43.8273116" lon="11.4903459"><ele>119.0</ele><time>2026-05-03T12:16:12.145Z</time></trkpt><trkpt lat="43.8273303" lon="11.4901824"><ele>118.83333333333333</ele><time>2026-05-03T12:16:14.146Z</time></trkpt><trkpt lat="43.8273223" lon="11.4900954"><ele>118.66666666666666</ele><time>2026-05-03T12:16:15.147Z</time></trkpt><trkpt lat="43.8273026" lon="11.4899984"><ele>118.5</ele><time>2026-05-03T12:16:16.147Z</time></trkpt><trkpt lat="43.8272737" lon="11.4898948"><ele>118.33333333333334</ele><time>2026-05-03T12:16:17.146Z</time></trkpt><trkpt lat="43.8272389" lon="11.489782"><ele>118.16666666666667</ele><time>2026-05-03T12:16:18.147Z</time></trkpt><trkpt lat="43.8272063" lon="11.4896629"><ele>118.0</ele><time>2026-05-03T12:16:19.147Z</time></trkpt><trkpt lat="43.8271711" lon="11.4895467"><ele>117.60000000000001</ele><time>2026-05-03T12:16:20.146Z</time></trkpt><trkpt lat="43.8271308" lon="11.4894205"><ele>117.20000000000002</ele><time>2026-05-03T12:16:21.145Z</time></trkpt><trkpt lat="43.8270894" lon="11.4892922"><ele>116.8</ele><time>2026-05-03T12:16:22.146Z</time></trkpt><trkpt lat="43.8270482" lon="11.4891578"><ele>116.4</ele><time>2026-05-03T12:16:23.147Z</time></trkpt><trkpt lat="43.8270047" lon="11.4890236"><ele>116.0</ele><time>2026-05-03T12:16:24.147Z</time></trkpt><trkpt lat="43.8269637" lon="11.488885"><ele>116.0</ele><time>2026-05-03T12:16:25.147Z</time></trkpt><trkpt lat="43.8269229" lon="11.4887501"><ele>116.0</ele><time>2026-05-03T12:16:26.146Z</time></trkpt><trkpt lat="43.8268799" lon="11.4886129"><ele>116.0</ele><time>2026-05-03T12:16:27.146Z</time></trkpt><trkpt lat="43.826836" lon="11.4884791"><ele>116.0</ele><time>2026-05-03T12:16:28.146Z</time></trkpt><trkpt lat="43.8267948" lon="11.4883423"><ele>116.0</ele><time>2026-05-03T12:16:29.147Z</time></trkpt><trkpt lat="43.826754" lon="11.4882079"><ele>115.8</ele><time>2026-05-03T12:16:30.146Z</time></trkpt><trkpt lat="43.8267057" lon="11.4880807"><ele>115.6</ele><time>2026-05-03T12:16:31.147Z</time></trkpt><trkpt lat="43.8266555" lon="11.4879602"><ele>115.4</ele><time>2026-05-03T12:16:32.147Z</time></trkpt><trkpt lat="43.8265909" lon="11.4878608"><ele>115.2</ele><time>2026-05-03T12:16:33.147Z</time></trkpt><trkpt lat="43.8265093" lon="11.4877825"><ele>115.0</ele><time>2026-05-03T12:16:34.147Z</time></trkpt><trkpt lat="43.8264251" lon="11.4877228"><ele>114.83333333333334</ele><time>2026-05-03T12:16:35.147Z</time></trkpt><trkpt lat="43.8263388" lon="11.4876733"><ele>114.66666666666667</ele><time>2026-05-03T12:16:36.147Z</time></trkpt><trkpt lat="43.8262614" lon="11.4876281"><ele>114.5</ele><time>2026-05-03T12:16:37.147Z</time></trkpt><trkpt lat="43.826208" lon="11.4875619"><ele>114.33333333333334</ele><time>2026-05-03T12:16:38.146Z</time></trkpt><trkpt lat="43.8261795" lon="11.4874728"><ele>114.16666666666667</ele><time>2026-05-03T12:16:39.147Z</time></trkpt><trkpt lat="43.8261686" lon="11.487307"><ele>114.0</ele><time>2026-05-03T12:16:41.147Z</time></trkpt><trkpt lat="43.8261387" lon="11.4871885"><ele>114.0</ele><time>2026-05-03T12:16:43.146Z</time></trkpt><trkpt lat="43.8260732" lon="11.4871487"><ele>113.99999999999999</ele><time>2026-05-03T12:16:46.146Z</time></trkpt><trkpt lat="43.8260085" lon="11.4871408"><ele>114.0</ele><time>2026-05-03T12:17:00.147Z</time></trkpt><trkpt lat="43.8260349" lon="11.4870576"><ele>114.0</ele><time>2026-05-03T12:22:26.147Z</time></trkpt><trkpt lat="43.8260658" lon="11.4871341"><ele>113.99999999999999</ele><time>2026-05-03T12:29:42.145Z</time></trkpt><trkpt lat="43.8260055" lon="11.4871647"><ele>114.0</ele><time>2026-05-03T12:31:23.145Z</time></trkpt><trkpt lat="43.8260673" lon="11.4872128"><ele>114.0</ele><time>2026-05-03T12:43:52.142Z</time></trkpt><trkpt lat="43.8261336" lon="11.4872576"><ele>114.0</ele><time>2026-05-03T12:44:25.143Z</time></trkpt><trkpt lat="43.8261525" lon="11.4873428"><ele>113.99999999999999</ele><time>2026-05-03T12:44:29.143Z</time></trkpt><trkpt lat="43.8261662" lon="11.4874662"><ele>114.0</ele><time>2026-05-03T12:44:32.144Z</time></trkpt><trkpt lat="43.8261924" lon="11.4875599"><ele>114.0</ele><time>2026-05-03T12:44:36.144Z</time></trkpt><trkpt lat="43.8262083" lon="11.4874599"><ele>113.99999999999999</ele><time>2026-05-03T12:44:40.142Z</time></trkpt><trkpt lat="43.826196" lon="11.4873557"><ele>114.0</ele><time>2026-05-03T12:44:43.143Z</time></trkpt><trkpt lat="43.8261265" lon="11.4873617"><ele>114.0</ele><time>2026-05-03T12:44:46.144Z</time></trkpt><trkpt lat="43.8261542" lon="11.4874835"><ele>114.0</ele><time>2026-05-03T12:44:48.144Z</time></trkpt><trkpt lat="43.8261824" lon="11.4875656"><ele>114.0</ele><time>2026-05-03T12:44:55.144Z</time></trkpt><trkpt lat="43.826245" lon="11.4876375"><ele>114.0</ele><time>2026-05-03T12:44:57.143Z</time></trkpt><trkpt lat="43.8263676" lon="11.4877124"><ele>114.0</ele><time>2026-05-03T12:44:59.144Z</time></trkpt><trkpt lat="43.8264447" lon="11.4877528"><ele>114.0</ele><time>2026-05-03T12:45:00.143Z</time></trkpt><trkpt lat="43.8265178" lon="11.4878014"><ele>114.0</ele><time>2026-05-03T12:45:01.144Z</time></trkpt><trkpt lat="43.8265767" lon="11.487848"><ele>114.0</ele><time>2026-05-03T12:45:02.143Z</time></trkpt><trkpt lat="43.8266443" lon="11.4879267"><ele>114.0</ele><time>2026-05-03T12:45:04.143Z</time></trkpt><trkpt lat="43.8267177" lon="11.4879016"><ele>114.0</ele><time>2026-05-03T12:45:06.144Z</time></trkpt><trkpt lat="43.8267774" lon="11.4877605"><ele>114.0</ele><time>2026-05-03T12:45:08.143Z</time></trkpt><trkpt lat="43.8268016" lon="11.4876637"><ele>114.0</ele><time>2026-05-03T12:45:09.143Z</time></trkpt><trkpt lat="43.8268248" lon="11.487554"><ele>114.0</ele><time>2026-05-03T12:45:10.143Z</time></trkpt><trkpt lat="43.8268497" lon="11.4874373"><ele>114.0</ele><time>2026-05-03T12:45:11.144Z</time></trkpt><trkpt lat="43.8268699" lon="11.4873337"><ele>114.0</ele><time>2026-05-03T12:45:12.144Z</time></trkpt><trkpt lat="43.8268936" lon="11.4872377"><ele>114.0</ele><time>2026-05-03T12:45:13.144Z</time></trkpt><trkpt lat="43.8269499" lon="11.4870917"><ele>114.0</ele><time>2026-05-03T12:45:15.143Z</time></trkpt><trkpt lat="43.8270258" lon="11.4870284"><ele>114.0</ele><time>2026-05-03T12:45:17.144Z</time></trkpt><trkpt lat="43.8271192" lon="11.4869922"><ele>113.66666666666667</ele><time>2026-05-03T12:45:19.142Z</time></trkpt><trkpt lat="43.8271801" lon="11.48688"><ele>113.33333333333334</ele><time>2026-05-03T12:45:21.143Z</time></trkpt><trkpt lat="43.8272122" lon="11.4867982"><ele>113.0</ele><time>2026-05-03T12:45:22.144Z</time></trkpt><trkpt lat="43.8272521" lon="11.4867071"><ele>112.66666666666667</ele><time>2026-05-03T12:45:23.144Z</time></trkpt><trkpt lat="43.8272861" lon="11.4866174"><ele>112.33333333333334</ele><time>2026-05-03T12:45:24.143Z</time></trkpt><trkpt lat="43.8272763" lon="11.4864689"><ele>112.0</ele><time>2026-05-03T12:45:26.144Z</time></trkpt><trkpt lat="43.8273043" lon="11.4863528"><ele>112.00000000000001</ele><time>2026-05-03T12:45:29.144Z</time></trkpt><trkpt lat="43.8274061" lon="11.4863381"><ele>112.0</ele><time>2026-05-03T12:45:31.143Z</time></trkpt><trkpt lat="43.8274871" lon="11.4863323"><ele>112.0</ele><time>2026-05-03T12:45:32.143Z</time></trkpt><trkpt lat="43.8275575" lon="11.4862986"><ele>112.0</ele><time>2026-05-03T12:45:33.144Z</time></trkpt><trkpt lat="43.8276178" lon="11.4862687"><ele>112.00000000000001</ele><time>2026-05-03T12:45:34.144Z</time></trkpt><trkpt lat="43.8277145" lon="11.4862682"><ele>112.0</ele><time>2026-05-03T12:45:36.144Z</time></trkpt><trkpt lat="43.8277629" lon="11.4863721"><ele>112.0</ele><time>2026-05-03T12:45:38.144Z</time></trkpt><trkpt lat="43.8277766" lon="11.4865358"><ele>111.99999999999999</ele><time>2026-05-03T12:45:40.143Z</time></trkpt><trkpt lat="43.8277895" lon="11.4866448"><ele>111.99999999999999</ele><time>2026-05-03T12:45:41.143Z</time></trkpt><trkpt lat="43.8278124" lon="11.4867662"><ele>112.0</ele><time>2026-05-03T12:45:42.144Z</time></trkpt><trkpt lat="43.8278394" lon="11.4868969"><ele>112.0</ele><time>2026-05-03T12:45:43.144Z</time></trkpt><trkpt lat="43.8278593" lon="11.4870368"><ele>112.39999999999999</ele><time>2026-05-03T12:45:44.144Z</time></trkpt><trkpt lat="43.8278784" lon="11.4871841"><ele>112.79999999999998</ele><time>2026-05-03T12:45:45.143Z</time></trkpt><trkpt lat="43.8279006" lon="11.487338"><ele>113.2</ele><time>2026-05-03T12:45:46.144Z</time></trkpt><trkpt lat="43.8279233" lon="11.4874949"><ele>113.6</ele><time>2026-05-03T12:45:47.143Z</time></trkpt><trkpt lat="43.8279449" lon="11.4876407"><ele>114.0</ele><time>2026-05-03T12:45:48.144Z</time></trkpt><trkpt lat="43.8279627" lon="11.4877666"><ele>114.0</ele><time>2026-05-03T12:45:49.143Z</time></trkpt><trkpt lat="43.8279814" lon="11.4878788"><ele>114.0</ele><time>2026-05-03T12:45:50.144Z</time></trkpt><trkpt lat="43.8280009" lon="11.4879671"><ele>114.0</ele><time>2026-05-03T12:45:51.143Z</time></trkpt><trkpt lat="43.8280315" lon="11.4880706"><ele>114.0</ele><time>2026-05-03T12:45:53.144Z</time></trkpt><trkpt lat="43.8280972" lon="11.4881081"><ele>114.0</ele><time>2026-05-03T12:45:56.143Z</time></trkpt><trkpt lat="43.828181" lon="11.488021"><ele>114.0</ele><time>2026-05-03T12:45:58.142Z</time></trkpt><trkpt lat="43.8282486" lon="11.4879726"><ele>114.0</ele><time>2026-05-03T12:45:59.143Z</time></trkpt><trkpt lat="43.8283172" lon="11.4879233"><ele>114.0</ele><time>2026-05-03T12:46:00.144Z</time></trkpt><trkpt lat="43.8284087" lon="11.4879084"><ele>114.0</ele><time>2026-05-03T12:46:01.144Z</time></trkpt><trkpt lat="43.8284998" lon="11.4878952"><ele>114.0</ele><time>2026-05-03T12:46:02.144Z</time></trkpt><trkpt lat="43.828601" lon="11.4879007"><ele>114.0</ele><time>2026-05-03T12:46:03.144Z</time></trkpt><trkpt lat="43.8286974" lon="11.4879074"><ele>114.0</ele><time>2026-05-03T12:46:04.143Z</time></trkpt><trkpt lat="43.8287915" lon="11.4879141"><ele>114.0</ele><time>2026-05-03T12:46:05.143Z</time></trkpt><trkpt lat="43.8288784" lon="11.4879195"><ele>114.0</ele><time>2026-05-03T12:46:06.144Z</time></trkpt><trkpt lat="43.8289624" lon="11.487925"><ele>114.0</ele><time>2026-05-03T12:46:07.143Z</time></trkpt><trkpt lat="43.8290434" lon="11.4879261"><ele>114.0</ele><time>2026-05-03T12:46:08.144Z</time></trkpt><trkpt lat="43.829123" lon="11.4879277"><ele>114.0</ele><time>2026-05-03T12:46:09.144Z</time></trkpt><trkpt lat="43.829204" lon="11.487921"><ele>114.0</ele><time>2026-05-03T12:46:10.143Z</time></trkpt><trkpt lat="43.8292838" lon="11.4879055"><ele>114.0</ele><time>2026-05-03T12:46:11.144Z</time></trkpt><trkpt lat="43.8293561" lon="11.4878891"><ele>114.0</ele><time>2026-05-03T12:46:12.143Z</time></trkpt><trkpt lat="43.8294218" lon="11.4878745"><ele>114.0</ele><time>2026-05-03T12:46:13.142Z</time></trkpt><trkpt lat="43.8295143" lon="11.4877851"><ele>114.0</ele><time>2026-05-03T12:46:15.144Z</time></trkpt><trkpt lat="43.82954" lon="11.4875917"><ele>115.0</ele><time>2026-05-03T12:46:17.143Z</time></trkpt><trkpt lat="43.8295367" lon="11.4874683"><ele>116.0</ele><time>2026-05-03T12:46:18.144Z</time></trkpt><trkpt lat="43.8295354" lon="11.487334"><ele>117.0</ele><time>2026-05-03T12:46:19.142Z</time></trkpt><trkpt lat="43.8295326" lon="11.4871921"><ele>118.0</ele><time>2026-05-03T12:46:20.143Z</time></trkpt><trkpt lat="43.8295304" lon="11.4870422"><ele>119.0</ele><time>2026-05-03T12:46:21.143Z</time></trkpt><trkpt lat="43.8295284" lon="11.4868904"><ele>119.25</ele><time>2026-05-03T12:46:22.144Z</time></trkpt><trkpt lat="43.829527" lon="11.4867345"><ele>119.5</ele><time>2026-05-03T12:46:23.144Z</time></trkpt><trkpt lat="43.8295252" lon="11.4865795"><ele>119.75</ele><time>2026-05-03T12:46:24.144Z</time></trkpt><trkpt lat="43.8295262" lon="11.4864219"><ele>120.0</ele><time>2026-05-03T12:46:25.144Z</time></trkpt><trkpt lat="43.8295325" lon="11.4862629"><ele>120.0</ele><time>2026-05-03T12:46:26.144Z</time></trkpt><trkpt lat="43.829539" lon="11.486102"><ele>120.0</ele><time>2026-05-03T12:46:27.144Z</time></trkpt><trkpt lat="43.8295471" lon="11.4859391"><ele>120.0</ele><time>2026-05-03T12:46:28.143Z</time></trkpt><trkpt lat="43.8295543" lon="11.4857767"><ele>120.0</ele><time>2026-05-03T12:46:29.144Z</time></trkpt><trkpt lat="43.8295605" lon="11.4856106"><ele>120.0</ele><time>2026-05-03T12:46:30.144Z</time></trkpt><trkpt lat="43.8295715" lon="11.485446"><ele>120.0</ele><time>2026-05-03T12:46:31.143Z</time></trkpt><trkpt lat="43.8295793" lon="11.4852807"><ele>120.0</ele><time>2026-05-03T12:46:32.144Z</time></trkpt><trkpt lat="43.8295837" lon="11.4851123"><ele>120.0</ele><time>2026-05-03T12:46:33.144Z</time></trkpt><trkpt lat="43.8295879" lon="11.4849433"><ele>119.75</ele><time>2026-05-03T12:46:34.144Z</time></trkpt><trkpt lat="43.8295934" lon="11.4847746"><ele>119.5</ele><time>2026-05-03T12:46:35.143Z</time></trkpt><trkpt lat="43.8295955" lon="11.4846029"><ele>119.25</ele><time>2026-05-03T12:46:36.144Z</time></trkpt><trkpt lat="43.8295973" lon="11.4844306"><ele>119.0</ele><time>2026-05-03T12:46:37.143Z</time></trkpt><trkpt lat="43.8296004" lon="11.4842576"><ele>119.0</ele><time>2026-05-03T12:46:38.143Z</time></trkpt><trkpt lat="43.8296023" lon="11.4840815"><ele>119.0</ele><time>2026-05-03T12:46:39.144Z</time></trkpt><trkpt lat="43.8296097" lon="11.4839033"><ele>119.0</ele><time>2026-05-03T12:46:40.143Z</time></trkpt><trkpt lat="43.8296198" lon="11.4837225"><ele>119.0</ele><time>2026-05-03T12:46:41.144Z</time></trkpt><trkpt lat="43.8296282" lon="11.4835403"><ele>118.75</ele><time>2026-05-03T12:46:42.144Z</time></trkpt><trkpt lat="43.8296368" lon="11.4833577"><ele>118.5</ele><time>2026-05-03T12:46:43.143Z</time></trkpt><trkpt lat="43.8296462" lon="11.4831756"><ele>118.25</ele><time>2026-05-03T12:46:44.144Z</time></trkpt><trkpt lat="43.8296569" lon="11.482996"><ele>118.0</ele><time>2026-05-03T12:46:45.143Z</time></trkpt><trkpt lat="43.8296709" lon="11.4828336"><ele>117.00000000000001</ele><time>2026-05-03T12:46:46.142Z</time></trkpt><trkpt lat="43.8296946" lon="11.4826906"><ele>116.0</ele><time>2026-05-03T12:46:47.144Z</time></trkpt><trkpt lat="43.8297332" lon="11.4825739"><ele>115.0</ele><time>2026-05-03T12:46:48.144Z</time></trkpt><trkpt lat="43.8297821" lon="11.4824935"><ele>114.0</ele><time>2026-05-03T12:46:49.144Z</time></trkpt><trkpt lat="43.8298362" lon="11.4824331"><ele>113.00000000000001</ele><time>2026-05-03T12:46:50.142Z</time></trkpt><trkpt lat="43.829898" lon="11.4823636"><ele>112.0</ele><time>2026-05-03T12:46:52.143Z</time></trkpt><trkpt lat="43.8299035" lon="11.4822509"><ele>112.16666666666667</ele><time>2026-05-03T12:46:54.144Z</time></trkpt><trkpt lat="43.8298571" lon="11.4820717"><ele>112.33333333333334</ele><time>2026-05-03T12:46:56.143Z</time></trkpt><trkpt lat="43.8298308" lon="11.4819692"><ele>112.5</ele><time>2026-05-03T12:46:57.142Z</time></trkpt><trkpt lat="43.8298094" lon="11.4818729"><ele>112.66666666666666</ele><time>2026-05-03T12:46:58.143Z</time></trkpt><trkpt lat="43.8298054" lon="11.4817823"><ele>112.83333333333333</ele><time>2026-05-03T12:46:59.144Z</time></trkpt><trkpt lat="43.8298265" lon="11.4816975"><ele>113.0</ele><time>2026-05-03T12:47:00.144Z</time></trkpt><trkpt lat="43.8298724" lon="11.4816272"><ele>113.0</ele><time>2026-05-03T12:47:01.144Z</time></trkpt><trkpt lat="43.8299401" lon="11.4815645"><ele>113.00000000000001</ele><time>2026-05-03T12:47:02.143Z</time></trkpt><trkpt lat="43.8300195" lon="11.4815044"><ele>113.00000000000001</ele><time>2026-05-03T12:47:03.143Z</time></trkpt><trkpt lat="43.8301066" lon="11.4814354"><ele>113.0</ele><time>2026-05-03T12:47:04.144Z</time></trkpt><trkpt lat="43.8301985" lon="11.4813604"><ele>113.0</ele><time>2026-05-03T12:47:05.144Z</time></trkpt><trkpt lat="43.830294" lon="11.481278"><ele>113.5</ele><time>2026-05-03T12:47:06.143Z</time></trkpt><trkpt lat="43.8303962" lon="11.4811908"><ele>114.0</ele><time>2026-05-03T12:47:07.143Z</time></trkpt><trkpt lat="43.830498" lon="11.481103"><ele>114.5</ele><time>2026-05-03T12:47:08.144Z</time></trkpt><trkpt lat="43.8306039" lon="11.4810147"><ele>115.0</ele><time>2026-05-03T12:47:09.143Z</time></trkpt><trkpt lat="43.8307132" lon="11.480925"><ele>115.0</ele><time>2026-05-03T12:47:10.143Z</time></trkpt><trkpt lat="43.8308262" lon="11.4808331"><ele>115.0</ele><time>2026-05-03T12:47:11.144Z</time></trkpt><trkpt lat="43.8309421" lon="11.4807419"><ele>115.0</ele><time>2026-05-03T12:47:12.144Z</time></trkpt><trkpt lat="43.8310601" lon="11.4806453"><ele>115.0</ele><time>2026-05-03T12:47:13.144Z</time></trkpt><trkpt lat="43.8311807" lon="11.480545"><ele>115.5</ele><time>2026-05-03T12:47:14.142Z</time></trkpt><trkpt lat="43.8313048" lon="11.480446"><ele>116.0</ele><time>2026-05-03T12:47:15.144Z</time></trkpt><trkpt lat="43.8314298" lon="11.4803462"><ele>116.5</ele><time>2026-05-03T12:47:16.144Z</time></trkpt><trkpt lat="43.8315515" lon="11.48025"><ele>117.0</ele><time>2026-05-03T12:47:17.143Z</time></trkpt><trkpt lat="43.8316762" lon="11.4801519"><ele>117.25</ele><time>2026-05-03T12:47:18.144Z</time></trkpt><trkpt lat="43.8318008" lon="11.4800544"><ele>117.5</ele><time>2026-05-03T12:47:19.144Z</time></trkpt><trkpt lat="43.831927" lon="11.4799547"><ele>117.75</ele><time>2026-05-03T12:47:20.143Z</time></trkpt><trkpt lat="43.8320527" lon="11.4798506"><ele>118.0</ele><time>2026-05-03T12:47:21.144Z</time></trkpt><trkpt lat="43.8321778" lon="11.4797427"><ele>118.0</ele><time>2026-05-03T12:47:22.143Z</time></trkpt><trkpt lat="43.8323033" lon="11.4796356"><ele>118.0</ele><time>2026-05-03T12:47:23.143Z</time></trkpt><trkpt lat="43.8324184" lon="11.4795345"><ele>118.0</ele><time>2026-05-03T12:47:24.144Z</time></trkpt><trkpt lat="43.8325316" lon="11.4794287"><ele>118.0</ele><time>2026-05-03T12:47:25.143Z</time></trkpt><trkpt lat="43.8326414" lon="11.4793204"><ele>118.75</ele><time>2026-05-03T12:47:26.144Z</time></trkpt><trkpt lat="43.8327541" lon="11.4792135"><ele>119.5</ele><time>2026-05-03T12:47:27.142Z</time></trkpt><trkpt lat="43.8328751" lon="11.4791136"><ele>120.25</ele><time>2026-05-03T12:47:28.143Z</time></trkpt><trkpt lat="43.8330023" lon="11.4790224"><ele>121.0</ele><time>2026-05-03T12:47:29.144Z</time></trkpt><trkpt lat="43.8331331" lon="11.4789333"><ele>121.0</ele><time>2026-05-03T12:47:30.143Z</time></trkpt><trkpt lat="43.8332636" lon="11.4788377"><ele>121.0</ele><time>2026-05-03T12:47:31.144Z</time></trkpt><trkpt lat="43.8333926" lon="11.4787344"><ele>121.0</ele><time>2026-05-03T12:47:32.142Z</time></trkpt><trkpt lat="43.8335224" lon="11.4786264"><ele>121.0</ele><time>2026-05-03T12:47:33.144Z</time></trkpt><trkpt lat="43.8336551" lon="11.4785181"><ele>121.0</ele><time>2026-05-03T12:47:34.144Z</time></trkpt><trkpt lat="43.8337899" lon="11.4784103"><ele>121.0</ele><time>2026-05-03T12:47:35.142Z</time></trkpt><trkpt lat="43.8339251" lon="11.4783003"><ele>121.0</ele><time>2026-05-03T12:47:36.144Z</time></trkpt><trkpt lat="43.8340598" lon="11.4781905"><ele>121.0</ele><time>2026-05-03T12:47:37.144Z</time></trkpt><trkpt lat="43.8341922" lon="11.4780826"><ele>121.0</ele><time>2026-05-03T12:47:38.143Z</time></trkpt><trkpt lat="43.8343224" lon="11.4779756"><ele>121.0</ele><time>2026-05-03T12:47:39.144Z</time></trkpt><trkpt lat="43.8344513" lon="11.4778718"><ele>121.5</ele><time>2026-05-03T12:47:40.143Z</time></trkpt><trkpt lat="43.8345802" lon="11.4777679"><ele>122.0</ele><time>2026-05-03T12:47:41.144Z</time></trkpt><trkpt lat="43.8347079" lon="11.4776598"><ele>122.5</ele><time>2026-05-03T12:47:42.144Z</time></trkpt><trkpt lat="43.8348324" lon="11.4775536"><ele>123.0</ele><time>2026-05-03T12:47:43.143Z</time></trkpt><trkpt lat="43.8349563" lon="11.477449"><ele>123.0</ele><time>2026-05-03T12:47:44.143Z</time></trkpt><trkpt lat="43.8350797" lon="11.4773458"><ele>123.0</ele><time>2026-05-03T12:47:45.143Z</time></trkpt><trkpt lat="43.8352016" lon="11.4772451"><ele>123.0</ele><time>2026-05-03T12:47:46.143Z</time></trkpt><trkpt lat="43.8353164" lon="11.4771533"><ele>123.0</ele><time>2026-05-03T12:47:47.144Z</time></trkpt><trkpt lat="43.8354257" lon="11.4770733"><ele>124.5</ele><time>2026-05-03T12:47:48.144Z</time></trkpt><trkpt lat="43.8355333" lon="11.4769939"><ele>126.0</ele><time>2026-05-03T12:47:49.144Z</time></trkpt><trkpt lat="43.8356324" lon="11.4769052"><ele>127.5</ele><time>2026-05-03T12:47:50.144Z</time></trkpt><trkpt lat="43.8357128" lon="11.4767976"><ele>129.0</ele><time>2026-05-03T12:47:51.143Z</time></trkpt><trkpt lat="43.8357598" lon="11.4766622"><ele>129.0</ele><time>2026-05-03T12:47:52.144Z</time></trkpt><trkpt lat="43.8357787" lon="11.4765044"><ele>129.0</ele><time>2026-05-03T12:47:53.144Z</time></trkpt><trkpt lat="43.8357707" lon="11.4763461"><ele>129.0</ele><time>2026-05-03T12:47:54.144Z</time></trkpt><trkpt lat="43.8357365" lon="11.4761866"><ele>129.0</ele><time>2026-05-03T12:47:55.143Z</time></trkpt><trkpt lat="43.8356969" lon="11.4760209"><ele>129.75</ele><time>2026-05-03T12:47:56.143Z</time></trkpt><trkpt lat="43.8356785" lon="11.4758531"><ele>130.5</ele><time>2026-05-03T12:47:57.143Z</time></trkpt><trkpt lat="43.8356754" lon="11.4756803"><ele>131.25</ele><time>2026-05-03T12:47:58.143Z</time></trkpt><trkpt lat="43.83569" lon="11.4755119"><ele>132.0</ele><time>2026-05-03T12:47:59.143Z</time></trkpt><trkpt lat="43.8357248" lon="11.4753455"><ele>133.0</ele><time>2026-05-03T12:48:00.144Z</time></trkpt><trkpt lat="43.8357644" lon="11.4751841"><ele>134.0</ele><time>2026-05-03T12:48:01.143Z</time></trkpt><trkpt lat="43.8358112" lon="11.4750404"><ele>135.0</ele><time>2026-05-03T12:48:02.143Z</time></trkpt><trkpt lat="43.8358601" lon="11.4749069"><ele>136.0</ele><time>2026-05-03T12:48:03.144Z</time></trkpt><trkpt lat="43.8359169" lon="11.4747755"><ele>136.25</ele><time>2026-05-03T12:48:04.144Z</time></trkpt><trkpt lat="43.8359959" lon="11.4746576"><ele>136.5</ele><time>2026-05-03T12:48:05.144Z</time></trkpt><trkpt lat="43.8360906" lon="11.4745469"><ele>136.75</ele><time>2026-05-03T12:48:06.144Z</time></trkpt><trkpt lat="43.8361942" lon="11.4744349"><ele>137.0</ele><time>2026-05-03T12:48:07.144Z</time></trkpt><trkpt lat="43.8363006" lon="11.4743172"><ele>136.5</ele><time>2026-05-03T12:48:08.143Z</time></trkpt><trkpt lat="43.836402" lon="11.474187"><ele>136.0</ele><time>2026-05-03T12:48:09.143Z</time></trkpt><trkpt lat="43.8364944" lon="11.4740447"><ele>135.5</ele><time>2026-05-03T12:48:10.143Z</time></trkpt><trkpt lat="43.83658" lon="11.4738947"><ele>135.0</ele><time>2026-05-03T12:48:11.144Z</time></trkpt><trkpt lat="43.8366666" lon="11.4737355"><ele>137.25</ele><time>2026-05-03T12:48:12.144Z</time></trkpt><trkpt lat="43.8367604" lon="11.4735782"><ele>139.5</ele><time>2026-05-03T12:48:13.144Z</time></trkpt><trkpt lat="43.8368609" lon="11.4734221"><ele>141.75</ele><time>2026-05-03T12:48:14.143Z</time></trkpt><trkpt lat="43.8369665" lon="11.4732731"><ele>144.0</ele><time>2026-05-03T12:48:15.143Z</time></trkpt><trkpt lat="43.8370796" lon="11.4731368"><ele>144.0</ele><time>2026-05-03T12:48:16.144Z</time></trkpt><trkpt lat="43.8371972" lon="11.4730156"><ele>144.0</ele><time>2026-05-03T12:48:17.144Z</time></trkpt><trkpt lat="43.8373044" lon="11.472915"><ele>144.0</ele><time>2026-05-03T12:48:18.144Z</time></trkpt><trkpt lat="43.8373961" lon="11.4728116"><ele>144.0</ele><time>2026-05-03T12:48:19.143Z</time></trkpt><trkpt lat="43.8374266" lon="11.472677"><ele>143.5</ele><time>2026-05-03T12:48:20.143Z</time></trkpt><trkpt lat="43.8374471" lon="11.4725256"><ele>143.0</ele><time>2026-05-03T12:48:21.144Z</time></trkpt><trkpt lat="43.8374679" lon="11.4723708"><ele>142.5</ele><time>2026-05-03T12:48:22.144Z</time></trkpt><trkpt lat="43.8374924" lon="11.472207"><ele>142.0</ele><time>2026-05-03T12:48:23.143Z</time></trkpt><trkpt lat="43.8375311" lon="11.4720486"><ele>144.25</ele><time>2026-05-03T12:48:24.143Z</time></trkpt><trkpt lat="43.8375693" lon="11.4718954"><ele>146.5</ele><time>2026-05-03T12:48:25.143Z</time></trkpt><trkpt lat="43.83761" lon="11.4717535"><ele>148.75</ele><time>2026-05-03T12:48:26.143Z</time></trkpt><trkpt lat="43.8376672" lon="11.4716167"><ele>151.0</ele><time>2026-05-03T12:48:27.144Z</time></trkpt><trkpt lat="43.8377994" lon="11.4715552"><ele>151.0</ele><time>2026-05-03T12:48:28.144Z</time></trkpt><trkpt lat="43.83789" lon="11.4714644"><ele>151.0</ele><time>2026-05-03T12:48:29.144Z</time></trkpt><trkpt lat="43.8379757" lon="11.4713584"><ele>151.0</ele><time>2026-05-03T12:48:30.144Z</time></trkpt><trkpt lat="43.8380433" lon="11.4712204"><ele>151.0</ele><time>2026-05-03T12:48:31.144Z</time></trkpt><trkpt lat="43.838112" lon="11.4710689"><ele>151.75</ele><time>2026-05-03T12:48:32.144Z</time></trkpt><trkpt lat="43.838178" lon="11.470931"><ele>152.5</ele><time>2026-05-03T12:48:33.143Z</time></trkpt><trkpt lat="43.8382566" lon="11.4708206"><ele>153.25</ele><time>2026-05-03T12:48:34.144Z</time></trkpt><trkpt lat="43.8383542" lon="11.470729"><ele>154.0</ele><time>2026-05-03T12:48:35.144Z</time></trkpt><trkpt lat="43.8384639" lon="11.4706537"><ele>152.25</ele><time>2026-05-03T12:48:36.144Z</time></trkpt><trkpt lat="43.8385822" lon="11.4705903"><ele>150.5</ele><time>2026-05-03T12:48:37.144Z</time></trkpt><trkpt lat="43.8387073" lon="11.4705323"><ele>148.75</ele><time>2026-05-03T12:48:38.143Z</time></trkpt><trkpt lat="43.838832" lon="11.4704748"><ele>147.0</ele><time>2026-05-03T12:48:39.144Z</time></trkpt><trkpt lat="43.8389574" lon="11.4704146"><ele>147.5</ele><time>2026-05-03T12:48:40.144Z</time></trkpt><trkpt lat="43.8390838" lon="11.4703473"><ele>148.0</ele><time>2026-05-03T12:48:41.143Z</time></trkpt><trkpt lat="43.8392095" lon="11.470276"><ele>148.5</ele><time>2026-05-03T12:48:42.142Z</time></trkpt><trkpt lat="43.8393354" lon="11.4702046"><ele>149.0</ele><time>2026-05-03T12:48:43.144Z</time></trkpt><trkpt lat="43.839464" lon="11.4701344"><ele>149.0</ele><time>2026-05-03T12:48:44.143Z</time></trkpt><trkpt lat="43.839595" lon="11.4700705"><ele>149.0</ele><time>2026-05-03T12:48:45.143Z</time></trkpt><trkpt lat="43.839719" lon="11.4700316"><ele>149.0</ele><time>2026-05-03T12:48:46.143Z</time></trkpt><trkpt lat="43.8398348" lon="11.4700039"><ele>149.0</ele><time>2026-05-03T12:48:47.144Z</time></trkpt><trkpt lat="43.8399469" lon="11.4699685"><ele>149.0</ele><time>2026-05-03T12:48:48.144Z</time></trkpt><trkpt lat="43.8400369" lon="11.4699027"><ele>149.0</ele><time>2026-05-03T12:48:49.142Z</time></trkpt><trkpt lat="43.840121" lon="11.469805"><ele>149.0</ele><time>2026-05-03T12:48:50.143Z</time></trkpt><trkpt lat="43.8401894" lon="11.4696972"><ele>149.0</ele><time>2026-05-03T12:48:51.143Z</time></trkpt><trkpt lat="43.8402512" lon="11.4695924"><ele>149.0</ele><time>2026-05-03T12:48:52.144Z</time></trkpt><trkpt lat="43.840297" lon="11.469507"><ele>148.8</ele><time>2026-05-03T12:48:53.143Z</time></trkpt><trkpt lat="43.8403633" lon="11.4693936"><ele>148.60000000000002</ele><time>2026-05-03T12:48:55.144Z</time></trkpt><trkpt lat="43.8404108" lon="11.4693248"><ele>148.4</ele><time>2026-05-03T12:48:57.143Z</time></trkpt><trkpt lat="43.8404547" lon="11.4692309"><ele>148.20000000000002</ele><time>2026-05-03T12:49:03.143Z</time></trkpt><trkpt lat="43.8405164" lon="11.4691263"><ele>148.0</ele><time>2026-05-03T12:49:06.144Z</time></trkpt><trkpt lat="43.8406148" lon="11.4690382"><ele>148.0</ele><time>2026-05-03T12:49:08.142Z</time></trkpt><trkpt lat="43.8406682" lon="11.4689743"><ele>148.0</ele><time>2026-05-03T12:49:09.143Z</time></trkpt><trkpt lat="43.8407263" lon="11.4688982"><ele>148.0</ele><time>2026-05-03T12:49:10.144Z</time></trkpt><trkpt lat="43.8407936" lon="11.4688133"><ele>148.0</ele><time>2026-05-03T12:49:11.144Z</time></trkpt><trkpt lat="43.8408583" lon="11.4687329"><ele>148.0</ele><time>2026-05-03T12:49:12.144Z</time></trkpt><trkpt lat="43.8409039" lon="11.4686439"><ele>148.0</ele><time>2026-05-03T12:49:13.144Z</time></trkpt><trkpt lat="43.8409317" lon="11.4685527"><ele>149.20000000000002</ele><time>2026-05-03T12:49:14.142Z</time></trkpt><trkpt lat="43.8409477" lon="11.4683987"><ele>150.4</ele><time>2026-05-03T12:49:16.143Z</time></trkpt><trkpt lat="43.8408993" lon="11.4683347"><ele>151.60000000000002</ele><time>2026-05-03T12:49:17.143Z</time></trkpt><trkpt lat="43.8408478" lon="11.4681882"><ele>152.8</ele><time>2026-05-03T12:49:19.144Z</time></trkpt><trkpt lat="43.8408289" lon="11.4680825"><ele>154.0</ele><time>2026-05-03T12:49:20.142Z</time></trkpt><trkpt lat="43.8408189" lon="11.4679666"><ele>154.5</ele><time>2026-05-03T12:49:21.142Z</time></trkpt><trkpt lat="43.8408059" lon="11.4678387"><ele>155.0</ele><time>2026-05-03T12:49:22.142Z</time></trkpt><trkpt lat="43.8407829" lon="11.4677042"><ele>155.5</ele><time>2026-05-03T12:49:23.143Z</time></trkpt><trkpt lat="43.8407616" lon="11.4675946"><ele>156.0</ele><time>2026-05-03T12:49:24.143Z</time></trkpt><trkpt lat="43.8407413" lon="11.4675066"><ele>156.5</ele><time>2026-05-03T12:49:25.143Z</time></trkpt><trkpt lat="43.8407455" lon="11.4674149"><ele>157.0</ele><time>2026-05-03T12:49:27.143Z</time></trkpt><trkpt lat="43.8407827" lon="11.4673147"><ele>156.99999999999997</ele><time>2026-05-03T12:57:20.142Z</time></trkpt><trkpt lat="43.8408513" lon="11.4673329"><ele>157.0</ele><time>2026-05-03T12:57:32.143Z</time></trkpt><trkpt lat="43.8409202" lon="11.4673304"><ele>157.0</ele><time>2026-05-03T12:57:48.142Z</time></trkpt><trkpt lat="43.8409757" lon="11.4672586"><ele>157.0</ele><time>2026-05-03T12:57:56.143Z</time></trkpt><trkpt lat="43.8410397" lon="11.4671984"><ele>157.0</ele><time>2026-05-03T12:57:59.143Z</time></trkpt><trkpt lat="43.8410343" lon="11.4670982"><ele>156.99999999999997</ele><time>2026-05-03T12:58:03.142Z</time></trkpt><trkpt lat="43.8410106" lon="11.4669974"><ele>157.0</ele><time>2026-05-03T12:58:11.143Z</time></trkpt><trkpt lat="43.8410127" lon="11.4668856"><ele>156.7142857142857</ele><time>2026-05-03T12:58:15.143Z</time></trkpt><trkpt lat="43.8410356" lon="11.4667997"><ele>156.42857142857142</ele><time>2026-05-03T12:58:18.141Z</time></trkpt><trkpt lat="43.840997" lon="11.4667007"><ele>156.14285714285714</ele><time>2026-05-03T12:58:33.142Z</time></trkpt><trkpt lat="43.8409406" lon="11.4666528"><ele>155.85714285714283</ele><time>2026-05-03T12:58:36.141Z</time></trkpt><trkpt lat="43.8409321" lon="11.4665585"><ele>155.57142857142856</ele><time>2026-05-03T12:58:40.141Z</time></trkpt><trkpt lat="43.840896" lon="11.4664766"><ele>155.28571428571428</ele><time>2026-05-03T12:58:44.141Z</time></trkpt><trkpt lat="43.8408922" lon="11.4663439"><ele>155.0</ele><time>2026-05-03T12:58:47.142Z</time></trkpt><trkpt lat="43.8409079" lon="11.4662184"><ele>155.83333333333331</ele><time>2026-05-03T12:58:50.142Z</time></trkpt><trkpt lat="43.8409306" lon="11.4661072"><ele>156.66666666666666</ele><time>2026-05-03T12:58:53.141Z</time></trkpt><trkpt lat="43.8409561" lon="11.466026"><ele>157.5</ele><time>2026-05-03T12:58:55.142Z</time></trkpt><trkpt lat="43.840989" lon="11.4659227"><ele>158.33333333333334</ele><time>2026-05-03T12:58:58.142Z</time></trkpt><trkpt lat="43.8410409" lon="11.4657698"><ele>159.16666666666669</ele><time>2026-05-03T12:59:00.142Z</time></trkpt><trkpt lat="43.841083" lon="11.4656765"><ele>160.0</ele><time>2026-05-03T12:59:01.142Z</time></trkpt><trkpt lat="43.8411218" lon="11.4655864"><ele>161.25</ele><time>2026-05-03T12:59:02.142Z</time></trkpt><trkpt lat="43.8410599" lon="11.4652351"><ele>162.5</ele><time>2026-05-03T12:59:03.141Z</time></trkpt><trkpt lat="43.8410554" lon="11.4651394"><ele>163.75</ele><time>2026-05-03T12:59:04.141Z</time></trkpt><trkpt lat="43.8410723" lon="11.4650483"><ele>165.0</ele><time>2026-05-03T12:59:05.141Z</time></trkpt><trkpt lat="43.841109" lon="11.4649643"><ele>165.0</ele><time>2026-05-03T12:59:06.141Z</time></trkpt><trkpt lat="43.8412175" lon="11.4648613"><ele>165.0</ele><time>2026-05-03T12:59:08.141Z</time></trkpt><trkpt lat="43.8412865" lon="11.4648134"><ele>165.0</ele><time>2026-05-03T12:59:09.142Z</time></trkpt><trkpt lat="43.8413515" lon="11.4647514"><ele>165.0</ele><time>2026-05-03T12:59:10.142Z</time></trkpt><trkpt lat="43.8414125" lon="11.4646867"><ele>165.0</ele><time>2026-05-03T12:59:11.142Z</time></trkpt><trkpt lat="43.8414805" lon="11.464637"><ele>165.0</ele><time>2026-05-03T12:59:12.141Z</time></trkpt><trkpt lat="43.8415432" lon="11.4645866"><ele>164.2</ele><time>2026-05-03T12:59:13.141Z</time></trkpt><trkpt lat="43.8416111" lon="11.4644503"><ele>163.4</ele><time>2026-05-03T12:59:15.14Z</time></trkpt><trkpt lat="43.8416335" lon="11.4643597"><ele>162.60000000000002</ele><time>2026-05-03T12:59:16.142Z</time></trkpt><trkpt lat="43.8416627" lon="11.4642308"><ele>161.8</ele><time>2026-05-03T12:59:17.141Z</time></trkpt><trkpt lat="43.8417071" lon="11.4640681"><ele>161.0</ele><time>2026-05-03T12:59:19.141Z</time></trkpt><trkpt lat="43.8417251" lon="11.463964"><ele>161.0</ele><time>2026-05-03T12:59:20.142Z</time></trkpt><trkpt lat="43.8417564" lon="11.4638675"><ele>161.0</ele><time>2026-05-03T12:59:21.141Z</time></trkpt><trkpt lat="43.8417975" lon="11.4637797"><ele>161.0</ele><time>2026-05-03T12:59:22.142Z</time></trkpt><trkpt lat="43.8418452" lon="11.4636654"><ele>161.0</ele><time>2026-05-03T12:59:24.142Z</time></trkpt><trkpt lat="43.8418335" lon="11.4635622"><ele>161.0</ele><time>2026-05-03T12:59:26.141Z</time></trkpt><trkpt lat="43.8418002" lon="11.4634507"><ele>161.0</ele><time>2026-05-03T12:59:29.141Z</time></trkpt><trkpt lat="43.8418172" lon="11.4633473"><ele>164.4</ele><time>2026-05-03T12:59:31.141Z</time></trkpt><trkpt lat="43.841841" lon="11.4632362"><ele>167.8</ele><time>2026-05-03T12:59:33.141Z</time></trkpt><trkpt lat="43.8418436" lon="11.463066"><ele>171.20000000000002</ele><time>2026-05-03T12:59:35.141Z</time></trkpt><trkpt lat="43.8418082" lon="11.4629069"><ele>174.60000000000002</ele><time>2026-05-03T12:59:37.142Z</time></trkpt><trkpt lat="43.8418023" lon="11.4628007"><ele>178.0</ele><time>2026-05-03T12:59:39.141Z</time></trkpt><trkpt lat="43.841788" lon="11.4627082"><ele>178.0</ele><time>2026-05-03T12:59:41.141Z</time></trkpt><trkpt lat="43.8418235" lon="11.4626201"><ele>178.0</ele><time>2026-05-03T12:59:49.142Z</time></trkpt><trkpt lat="43.8418452" lon="11.4636654"><ele>178.0</ele><time>2026-05-03T12:59:24.142Z</time></trkpt><trkpt lat="43.8418335" lon="11.4635622"><ele>178.0</ele><time>2026-05-03T12:59:26.141Z</time></trkpt><trkpt lat="43.8418002" lon="11.4634507"><ele>178.0</ele><time>2026-05-03T12:59:29.141Z</time></trkpt><trkpt lat="43.8418172" lon="11.4633473"><ele>178.0</ele><time>2026-05-03T12:59:31.141Z</time></trkpt><trkpt lat="43.841841" lon="11.4632362"><ele>178.0</ele><time>2026-05-03T12:59:33.141Z</time></trkpt><trkpt lat="43.8418436" lon="11.463066"><ele>178.0</ele><time>2026-05-03T12:59:35.141Z</time></trkpt><trkpt lat="43.8418082" lon="11.4629069"><ele>177.99999999999997</ele><time>2026-05-03T12:59:37.142Z</time></trkpt><trkpt lat="43.8418023" lon="11.4628007"><ele>178.0</ele><time>2026-05-03T12:59:39.141Z</time></trkpt><trkpt lat="43.841788" lon="11.4627082"><ele>178.0</ele><time>2026-05-03T12:59:41.141Z</time></trkpt><trkpt lat="43.8418235" lon="11.4626201"><ele>178.0</ele><time>2026-05-03T12:59:49.142Z</time></trkpt><trkpt lat="43.8418318" lon="11.4625292"><ele>178.0</ele><time>2026-05-03T12:59:59.142Z</time></trkpt><trkpt lat="43.8417979" lon="11.4624356"><ele>177.99999999999997</ele><time>2026-05-03T13:00:06.142Z</time></trkpt><trkpt lat="43.8418227" lon="11.4623171"><ele>178.0</ele><time>2026-05-03T13:00:20.142Z</time></trkpt><trkpt lat="43.8418344" lon="11.4622222"><ele>178.0</ele><time>2026-05-03T13:00:23.142Z</time></trkpt><trkpt lat="43.8418601" lon="11.462134"><ele>178.0</ele><time>2026-05-03T13:00:39.141Z</time></trkpt><trkpt lat="43.8418602" lon="11.4620278"><ele>178.0</ele><time>2026-05-03T13:01:14.141Z</time></trkpt><trkpt lat="43.8417982" lon="11.4620022"><ele>178.0</ele><time>2026-05-03T13:02:28.142Z</time></trkpt><trkpt lat="43.8418083" lon="11.461905"><ele>178.0</ele><time>2026-05-03T13:02:38.142Z</time></trkpt><trkpt lat="43.8418354" lon="11.4618113"><ele>178.0</ele><time>2026-05-03T13:02:46.142Z</time></trkpt><trkpt lat="43.841909" lon="11.4617226"><ele>176.5</ele><time>2026-05-03T13:02:49.141Z</time></trkpt><trkpt lat="43.8419687" lon="11.4616577"><ele>175.0</ele><time>2026-05-03T13:02:52.141Z</time></trkpt><trkpt lat="43.8420241" lon="11.4616017"><ele>173.5</ele><time>2026-05-03T13:02:54.142Z</time></trkpt><trkpt lat="43.8421093" lon="11.4615252"><ele>172.0</ele><time>2026-05-03T13:02:56.142Z</time></trkpt><trkpt lat="43.8421638" lon="11.4614669"><ele>170.5</ele><time>2026-05-03T13:02:57.141Z</time></trkpt><trkpt lat="43.8422589" lon="11.4613763"><ele>169.0</ele><time>2026-05-03T13:02:59.141Z</time></trkpt><trkpt lat="43.8422975" lon="11.4613051"><ele>169.0</ele><time>2026-05-03T13:03:56.142Z</time></trkpt><trkpt lat="43.8423137" lon="11.4613904"><ele>169.0</ele><time>2026-05-03T13:04:27.142Z</time></trkpt><trkpt lat="43.8423729" lon="11.4614306"><ele>169.0</ele><time>2026-05-03T13:05:40.142Z</time></trkpt><trkpt lat="43.8424225" lon="11.4613739"><ele>169.0</ele><time>2026-05-03T13:06:42.141Z</time></trkpt><trkpt lat="43.8424551" lon="11.4612801"><ele>169.0</ele><time>2026-05-03T13:06:52.141Z</time></trkpt><trkpt lat="43.8425028" lon="11.46119"><ele>169.0</ele><time>2026-05-03T13:07:30.141Z</time></trkpt><trkpt lat="43.8425879" lon="11.4611777"><ele>169.0</ele><time>2026-05-03T13:07:32.141Z</time></trkpt><trkpt lat="43.8426541" lon="11.4611524"><ele>169.6</ele><time>2026-05-03T13:07:33.141Z</time></trkpt><trkpt lat="43.8427155" lon="11.4611282"><ele>170.2</ele><time>2026-05-03T13:07:34.14Z</time></trkpt><trkpt lat="43.8427994" lon="11.4610396"><ele>170.79999999999998</ele><time>2026-05-03T13:07:36.14Z</time></trkpt><trkpt lat="43.8428951" lon="11.4609129"><ele>171.39999999999998</ele><time>2026-05-03T13:07:38.141Z</time></trkpt><trkpt lat="43.8429901" lon="11.4607862"><ele>172.0</ele><time>2026-05-03T13:07:40.141Z</time></trkpt><trkpt lat="43.8430527" lon="11.4607597"><ele>172.0</ele><time>2026-05-03T13:07:41.14Z</time></trkpt><trkpt lat="43.8431495" lon="11.4607246"><ele>172.0</ele><time>2026-05-03T13:07:43.141Z</time></trkpt><trkpt lat="43.8432243" lon="11.4607577"><ele>172.0</ele><time>2026-05-03T13:07:45.141Z</time></trkpt><trkpt lat="43.8433157" lon="11.4607295"><ele>172.0</ele><time>2026-05-03T13:07:48.141Z</time></trkpt><trkpt lat="43.8433994" lon="11.4606378"><ele>172.0</ele><time>2026-05-03T13:07:50.141Z</time></trkpt><trkpt lat="43.843479" lon="11.4605482"><ele>174.0</ele><time>2026-05-03T13:07:52.14Z</time></trkpt><trkpt lat="43.8435466" lon="11.4604715"><ele>176.0</ele><time>2026-05-03T13:07:54.141Z</time></trkpt><trkpt lat="43.8436144" lon="11.460401"><ele>178.0</ele><time>2026-05-03T13:07:57.14Z</time></trkpt><trkpt lat="43.8436577" lon="11.4602734"><ele>180.0</ele><time>2026-05-03T13:08:00.141Z</time></trkpt><trkpt lat="43.8437526" lon="11.4601985"><ele>182.0</ele><time>2026-05-03T13:08:02.14Z</time></trkpt><trkpt lat="43.8438502" lon="11.4601194"><ele>182.0</ele><time>2026-05-03T13:08:04.14Z</time></trkpt><trkpt lat="43.8439017" lon="11.4600432"><ele>182.0</ele><time>2026-05-03T13:08:09.141Z</time></trkpt><trkpt lat="43.84392" lon="11.4599582"><ele>182.0</ele><time>2026-05-03T13:08:14.14Z</time></trkpt><trkpt lat="43.843951" lon="11.4597913"><ele>182.0</ele><time>2026-05-03T13:08:16.141Z</time></trkpt><trkpt lat="43.8439971" lon="11.459695"><ele>182.0</ele><time>2026-05-03T13:08:19.141Z</time></trkpt><trkpt lat="43.8440382" lon="11.4595874"><ele>182.0</ele><time>2026-05-03T13:08:22.141Z</time></trkpt><trkpt lat="43.8440962" lon="11.4594737"><ele>183.25</ele><time>2026-05-03T13:08:25.141Z</time></trkpt><trkpt lat="43.8441683" lon="11.459383"><ele>184.5</ele><time>2026-05-03T13:08:27.141Z</time></trkpt><trkpt lat="43.8442396" lon="11.4590764"><ele>185.75</ele><time>2026-05-03T13:08:32.14Z</time></trkpt><trkpt lat="43.8442536" lon="11.4589653"><ele>187.0</ele><time>2026-05-03T13:08:34.141Z</time></trkpt><trkpt lat="43.8442435" lon="11.4588774"><ele>187.0</ele><time>2026-05-03T13:10:31.141Z</time></trkpt><trkpt lat="43.8442936" lon="11.4589355"><ele>187.0</ele><time>2026-05-03T13:13:09.14Z</time></trkpt><trkpt lat="43.8443172" lon="11.4590287"><ele>187.0</ele><time>2026-05-03T13:15:53.14Z</time></trkpt><trkpt lat="43.8442724" lon="11.4591206"><ele>187.0</ele><time>2026-05-03T13:21:17.14Z</time></trkpt><trkpt lat="43.844251" lon="11.4592347"><ele>187.0</ele><time>2026-05-03T13:21:21.14Z</time></trkpt><trkpt lat="43.8441919" lon="11.4593268"><ele>187.0</ele><time>2026-05-03T13:21:23.139Z</time></trkpt><trkpt lat="43.8441639" lon="11.4594179"><ele>187.0</ele><time>2026-05-03T13:21:24.14Z</time></trkpt><trkpt lat="43.8441057" lon="11.4595337"><ele>187.0</ele><time>2026-05-03T13:21:26.14Z</time></trkpt><trkpt lat="43.8440645" lon="11.4596224"><ele>187.0</ele><time>2026-05-03T13:21:28.139Z</time></trkpt><trkpt lat="43.8440212" lon="11.4597306"><ele>187.0</ele><time>2026-05-03T13:21:31.138Z</time></trkpt><trkpt lat="43.8439639" lon="11.4598215"><ele>187.0</ele><time>2026-05-03T13:21:34.138Z</time></trkpt><trkpt lat="43.8439464" lon="11.4599568"><ele>186.0</ele><time>2026-05-03T13:21:37.138Z</time></trkpt><trkpt lat="43.8438994" lon="11.460087"><ele>185.0</ele><time>2026-05-03T13:21:39.14Z</time></trkpt><trkpt lat="43.8438354" lon="11.4601449"><ele>184.0</ele><time>2026-05-03T13:21:41.14Z</time></trkpt><trkpt lat="43.8437452" lon="11.4601921"><ele>183.0</ele><time>2026-05-03T13:21:43.139Z</time></trkpt><trkpt lat="43.8436693" lon="11.4602813"><ele>182.0</ele><time>2026-05-03T13:21:45.14Z</time></trkpt><trkpt lat="43.8436022" lon="11.4603994"><ele>180.0</ele><time>2026-05-03T13:21:47.14Z</time></trkpt><trkpt lat="43.8435563" lon="11.4604783"><ele>178.0</ele><time>2026-05-03T13:21:50.14Z</time></trkpt><trkpt lat="43.8434804" lon="11.4605492"><ele>176.0</ele><time>2026-05-03T13:21:53.14Z</time></trkpt><trkpt lat="43.8433862" lon="11.4606309"><ele>174.0</ele><time>2026-05-03T13:21:55.139Z</time></trkpt><trkpt lat="43.8432961" lon="11.4607081"><ele>172.0</ele><time>2026-05-03T13:21:57.139Z</time></trkpt><trkpt lat="43.8432169" lon="11.4607471"><ele>172.0</ele><time>2026-05-03T13:21:59.139Z</time></trkpt><trkpt lat="43.8431474" lon="11.4607701"><ele>172.0</ele><time>2026-05-03T13:22:01.138Z</time></trkpt><trkpt lat="43.8430494" lon="11.4608382"><ele>172.0</ele><time>2026-05-03T13:22:03.14Z</time></trkpt><trkpt lat="43.8429377" lon="11.4609324"><ele>172.0</ele><time>2026-05-03T13:22:05.138Z</time></trkpt><trkpt lat="43.8428508" lon="11.4610247"><ele>172.0</ele><time>2026-05-03T13:22:07.139Z</time></trkpt><trkpt lat="43.8427641" lon="11.4611311"><ele>172.0</ele><time>2026-05-03T13:22:09.14Z</time></trkpt><trkpt lat="43.8426473" lon="11.4611893"><ele>172.0</ele><time>2026-05-03T13:22:11.14Z</time></trkpt><trkpt lat="43.842565" lon="11.461217"><ele>172.0</ele><time>2026-05-03T13:22:12.14Z</time></trkpt><trkpt lat="43.8424738" lon="11.4612721"><ele>172.0</ele><time>2026-05-03T13:22:14.14Z</time></trkpt><trkpt lat="43.8424192" lon="11.461326"><ele>172.0</ele><time>2026-05-03T13:22:16.14Z</time></trkpt><trkpt lat="43.8424137" lon="11.4614139"><ele>172.0</ele><time>2026-05-03T13:22:52.14Z</time></trkpt><trkpt lat="43.8423455" lon="11.4614148"><ele>171.5</ele><time>2026-05-03T13:23:02.14Z</time></trkpt><trkpt lat="43.8422804" lon="11.461412"><ele>171.0</ele><time>2026-05-03T13:23:07.139Z</time></trkpt><trkpt lat="43.8422127" lon="11.4614748"><ele>170.5</ele><time>2026-05-03T13:23:10.14Z</time></trkpt><trkpt lat="43.8421619" lon="11.4615516"><ele>170.0</ele><time>2026-05-03T13:23:12.14Z</time></trkpt><trkpt lat="43.842072" lon="11.4616474"><ele>169.5</ele><time>2026-05-03T13:23:14.14Z</time></trkpt><trkpt lat="43.8420044" lon="11.4617358"><ele>169.0</ele><time>2026-05-03T13:23:16.139Z</time></trkpt><trkpt lat="43.8419456" lon="11.4617862"><ele>169.0</ele><time>2026-05-03T13:23:17.138Z</time></trkpt><trkpt lat="43.8418962" lon="11.461842"><ele>169.0</ele><time>2026-05-03T13:23:19.14Z</time></trkpt><trkpt lat="43.8418553" lon="11.4619339"><ele>169.0</ele><time>2026-05-03T13:23:33.139Z</time></trkpt><trkpt lat="43.8418729" lon="11.4620321"><ele>169.0</ele><time>2026-05-03T13:23:38.138Z</time></trkpt><trkpt lat="43.8418758" lon="11.4621502"><ele>169.0</ele><time>2026-05-03T13:23:41.14Z</time></trkpt><trkpt lat="43.8418699" lon="11.4622726"><ele>169.0</ele><time>2026-05-03T13:23:44.139Z</time></trkpt><trkpt lat="43.8418577" lon="11.4624023"><ele>170.28571428571428</ele><time>2026-05-03T13:23:47.139Z</time></trkpt><trkpt lat="43.8418416" lon="11.462487"><ele>171.57142857142856</ele><time>2026-05-03T13:23:49.14Z</time></trkpt><trkpt lat="43.8418393" lon="11.4625802"><ele>172.85714285714283</ele><time>2026-05-03T13:23:53.14Z</time></trkpt><trkpt lat="43.8417898" lon="11.4626534"><ele>174.14285714285714</ele><time>2026-05-03T13:24:12.14Z</time></trkpt><trkpt lat="43.8418185" lon="11.4627565"><ele>175.42857142857142</ele><time>2026-05-03T13:24:16.14Z</time></trkpt><trkpt lat="43.8418434" lon="11.46285"><ele>176.7142857142857</ele><time>2026-05-03T13:24:18.139Z</time></trkpt><trkpt lat="43.8418688" lon="11.4629605"><ele>178.0</ele><time>2026-05-03T13:24:20.139Z</time></trkpt><trkpt lat="43.8418955" lon="11.4630799"><ele>178.5</ele><time>2026-05-03T13:24:22.138Z</time></trkpt><trkpt lat="43.8418993" lon="11.4632196"><ele>179.0</ele><time>2026-05-03T13:24:24.139Z</time></trkpt><trkpt lat="43.8418817" lon="11.4633442"><ele>179.5</ele><time>2026-05-03T13:24:26.139Z</time></trkpt><trkpt lat="43.8418553" lon="11.4634301"><ele>180.0</ele><time>2026-05-03T13:24:28.139Z</time></trkpt><trkpt lat="43.8418422" lon="11.4635545"><ele>180.5</ele><time>2026-05-03T13:24:31.14Z</time></trkpt><trkpt lat="43.8418413" lon="11.4636711"><ele>181.0</ele><time>2026-05-03T13:24:34.14Z</time></trkpt><trkpt lat="43.8417776" lon="11.4637644"><ele>177.0</ele><time>2026-05-03T13:24:36.14Z</time></trkpt><trkpt lat="43.8417115" lon="11.4639089"><ele>173.0</ele><time>2026-05-03T13:24:38.14Z</time></trkpt><trkpt lat="43.8416889" lon="11.4640636"><ele>169.0</ele><time>2026-05-03T13:24:40.14Z</time></trkpt><trkpt lat="43.841656" lon="11.4642245"><ele>165.0</ele><time>2026-05-03T13:24:42.139Z</time></trkpt><trkpt lat="43.8416356" lon="11.4643122"><ele>161.0</ele><time>2026-05-03T13:24:43.139Z</time></trkpt><trkpt lat="43.8416075" lon="11.4644022"><ele>161.0</ele><time>2026-05-03T13:24:44.138Z</time></trkpt><trkpt lat="43.8415572" lon="11.4645367"><ele>161.0</ele><time>2026-05-03T13:24:46.14Z</time></trkpt><trkpt lat="43.841485" lon="11.4646375"><ele>161.0</ele><time>2026-05-03T13:24:48.14Z</time></trkpt><trkpt lat="43.8413898" lon="11.4647239"><ele>161.0</ele><time>2026-05-03T13:24:50.14Z</time></trkpt><trkpt lat="43.8412995" lon="11.4648198"><ele>161.0</ele><time>2026-05-03T13:24:52.14Z</time></trkpt><trkpt lat="43.8411867" lon="11.4648968"><ele>161.8</ele><time>2026-05-03T13:24:54.139Z</time></trkpt><trkpt lat="43.841134" lon="11.4649501"><ele>162.60000000000002</ele><time>2026-05-03T13:24:55.139Z</time></trkpt><trkpt lat="43.8411015" lon="11.4650271"><ele>163.4</ele><time>2026-05-03T13:24:56.139Z</time></trkpt><trkpt lat="43.8410746" lon="11.4651843"><ele>164.2</ele><time>2026-05-03T13:24:58.139Z</time></trkpt><trkpt lat="43.8410611" lon="11.4653362"><ele>165.0</ele><time>2026-05-03T13:25:00.139Z</time></trkpt><trkpt lat="43.84099" lon="11.4654885"><ele>164.16666666666666</ele><time>2026-05-03T13:25:02.14Z</time></trkpt><trkpt lat="43.8409525" lon="11.4655706"><ele>163.33333333333334</ele><time>2026-05-03T13:25:03.138Z</time></trkpt><trkpt lat="43.8409299" lon="11.4656568"><ele>162.5</ele><time>2026-05-03T13:25:04.139Z</time></trkpt><trkpt lat="43.840913" lon="11.4658359"><ele>161.66666666666669</ele><time>2026-05-03T13:25:06.14Z</time></trkpt><trkpt lat="43.8409018" lon="11.4659454"><ele>160.83333333333334</ele><time>2026-05-03T13:25:07.139Z</time></trkpt><trkpt lat="43.8408932" lon="11.4660516"><ele>160.0</ele><time>2026-05-03T13:25:08.14Z</time></trkpt><trkpt lat="43.8408809" lon="11.4661503"><ele>159.16666666666669</ele><time>2026-05-03T13:25:09.138Z</time></trkpt><trkpt lat="43.8408568" lon="11.4662949"><ele>158.33333333333334</ele><time>2026-05-03T13:25:11.139Z</time></trkpt><trkpt lat="43.8408886" lon="11.4663774"><ele>157.5</ele><time>2026-05-03T13:25:13.14Z</time></trkpt><trkpt lat="43.8409452" lon="11.4664696"><ele>156.66666666666666</ele><time>2026-05-03T13:25:15.139Z</time></trkpt><trkpt lat="43.8409624" lon="11.466576"><ele>155.83333333333331</ele><time>2026-05-03T13:25:18.14Z</time></trkpt><trkpt lat="43.8409684" lon="11.4666812"><ele>155.0</ele><time>2026-05-03T13:25:21.139Z</time></trkpt><trkpt lat="43.8410315" lon="11.4667088"><ele>176.0</ele><time>2026-05-03T13:25:25.14Z</time></trkpt><trkpt lat="43.84104" lon="11.4668443"><ele>176.0</ele><time>2026-05-03T13:25:28.14Z</time></trkpt><trkpt lat="43.8410601" lon="11.4669479"><ele>176.0</ele><time>2026-05-03T13:25:30.14Z</time></trkpt><trkpt lat="43.8410678" lon="11.4670462"><ele>176.0</ele><time>2026-05-03T13:25:32.139Z</time></trkpt><trkpt lat="43.8410639" lon="11.4671568"><ele>173.0</ele><time>2026-05-03T13:25:35.139Z</time></trkpt><trkpt lat="43.8410251" lon="11.4672328"><ele>173.0</ele><time>2026-05-03T13:25:44.14Z</time></trkpt></trkseg></trk></gpx>